<?xml version="1.0" encoding="UTF-8" standalone="no" ?>
<gpx xmlns="http://www.topografix.com/GPX/1/1" xmlns:xsi="http://www.w3.org/2001/XMLSchema-instance" xsi:schemaLocation="http://www.topografix.com/GPX/1/1 http://www.topografix.com/GPX/1/1/gpx.xsd" version="1.1" creator="VisuGPX - https://www.visugpx.com">
  <metadata>
    <name>Vers Lucenay</name>
  </metadata>
  <trk>
    <name><![CDATA[2022 06 18 vers Lucenay]]></name>
    <trkseg>
      <trkpt lat="45.84536" lon="4.74357">
        <ele>296.17277</ele>
        <time>2022-06-18T07:27:44.000Z</time>
      </trkpt>
      <trkpt lat="45.84534" lon="4.74358">
        <ele>296.18195</ele>
        <time>2022-06-18T07:27:50.000Z</time>
      </trkpt>
      <trkpt lat="45.84532" lon="4.74358">
        <ele>296.14347</ele>
        <time>2022-06-18T07:28:26.000Z</time>
      </trkpt>
      <trkpt lat="45.84529" lon="4.74356">
        <ele>296.01209</ele>
        <time>2022-06-18T07:28:31.000Z</time>
      </trkpt>
      <trkpt lat="45.84527" lon="4.74353">
        <ele>295.87555</ele>
        <time>2022-06-18T07:28:33.000Z</time>
      </trkpt>
      <trkpt lat="45.84523" lon="4.74352">
        <ele>295.77383</ele>
        <time>2022-06-18T07:28:35.000Z</time>
      </trkpt>
      <trkpt lat="45.84521" lon="4.74352">
        <ele>295.76061</ele>
        <time>2022-06-18T07:28:36.000Z</time>
      </trkpt>
      <trkpt lat="45.84519" lon="4.74354">
        <ele>295.76738</ele>
        <time>2022-06-18T07:28:37.000Z</time>
      </trkpt>
      <trkpt lat="45.84518" lon="4.74356">
        <ele>295.80164</ele>
        <time>2022-06-18T07:28:38.000Z</time>
      </trkpt>
      <trkpt lat="45.84517" lon="4.74359">
        <ele>295.88185</ele>
        <time>2022-06-18T07:28:40.000Z</time>
      </trkpt>
      <trkpt lat="45.84519" lon="4.74359">
        <ele>295.91457</ele>
        <time>2022-06-18T07:28:42.000Z</time>
      </trkpt>
      <trkpt lat="45.84521" lon="4.74357">
        <ele>295.88719</ele>
        <time>2022-06-18T07:28:43.000Z</time>
      </trkpt>
      <trkpt lat="45.84522" lon="4.74355">
        <ele>295.86871</ele>
        <time>2022-06-18T07:28:45.000Z</time>
      </trkpt>
      <trkpt lat="45.84524" lon="4.7435">
        <ele>295.73872</ele>
        <time>2022-06-18T07:29:06.000Z</time>
      </trkpt>
      <trkpt lat="45.84527" lon="4.74347">
        <ele>295.66737</ele>
        <time>2022-06-18T07:29:07.000Z</time>
      </trkpt>
      <trkpt lat="45.84529" lon="4.74345">
        <ele>295.61177</ele>
        <time>2022-06-18T07:29:08.000Z</time>
      </trkpt>
      <trkpt lat="45.84532" lon="4.74343">
        <ele>295.55364</ele>
        <time>2022-06-18T07:29:09.000Z</time>
      </trkpt>
      <trkpt lat="45.84535" lon="4.74341">
        <ele>295.50269</ele>
        <time>2022-06-18T07:29:10.000Z</time>
      </trkpt>
      <trkpt lat="45.84538" lon="4.74339">
        <ele>295.44974</ele>
        <time>2022-06-18T07:29:11.000Z</time>
      </trkpt>
      <trkpt lat="45.8454" lon="4.74337">
        <ele>295.38745</ele>
        <time>2022-06-18T07:29:12.000Z</time>
      </trkpt>
      <trkpt lat="45.84543" lon="4.74335">
        <ele>295.32629</ele>
        <time>2022-06-18T07:29:13.000Z</time>
      </trkpt>
      <trkpt lat="45.84544" lon="4.74334">
        <ele>295.27891</ele>
        <time>2022-06-18T07:29:14.000Z</time>
      </trkpt>
      <trkpt lat="45.84546" lon="4.74331">
        <ele>295.15882</ele>
        <time>2022-06-18T07:29:16.000Z</time>
      </trkpt>
      <trkpt lat="45.84546" lon="4.74328">
        <ele>295.03431</ele>
        <time>2022-06-18T07:29:17.000Z</time>
      </trkpt>
      <trkpt lat="45.84545" lon="4.74324">
        <ele>294.91341</ele>
        <time>2022-06-18T07:29:18.000Z</time>
      </trkpt>
      <trkpt lat="45.84544" lon="4.74322">
        <ele>294.81384</ele>
        <time>2022-06-18T07:29:19.000Z</time>
      </trkpt>
      <trkpt lat="45.84543" lon="4.74319">
        <ele>294.71211</ele>
        <time>2022-06-18T07:29:20.000Z</time>
      </trkpt>
      <trkpt lat="45.84542" lon="4.74315">
        <ele>294.58529</ele>
        <time>2022-06-18T07:29:21.000Z</time>
      </trkpt>
      <trkpt lat="45.8454" lon="4.74311">
        <ele>294.44891</ele>
        <time>2022-06-18T07:29:22.000Z</time>
      </trkpt>
      <trkpt lat="45.84539" lon="4.74307">
        <ele>294.29904</ele>
        <time>2022-06-18T07:29:23.000Z</time>
      </trkpt>
      <trkpt lat="45.84537" lon="4.74302">
        <ele>294.13696</ele>
        <time>2022-06-18T07:29:24.000Z</time>
      </trkpt>
      <trkpt lat="45.84535" lon="4.74298">
        <ele>293.9772</ele>
        <time>2022-06-18T07:29:25.000Z</time>
      </trkpt>
      <trkpt lat="45.84533" lon="4.74293">
        <ele>293.78895</ele>
        <time>2022-06-18T07:29:26.000Z</time>
      </trkpt>
      <trkpt lat="45.84531" lon="4.74288">
        <ele>293.57838</ele>
        <time>2022-06-18T07:29:27.000Z</time>
      </trkpt>
      <trkpt lat="45.84529" lon="4.74282">
        <ele>293.33212</ele>
        <time>2022-06-18T07:29:28.000Z</time>
      </trkpt>
      <trkpt lat="45.84524" lon="4.74273">
        <ele>292.83264</ele>
        <time>2022-06-18T07:29:29.000Z</time>
      </trkpt>
      <trkpt lat="45.84522" lon="4.74268">
        <ele>292.53581</ele>
        <time>2022-06-18T07:29:30.000Z</time>
      </trkpt>
      <trkpt lat="45.84521" lon="4.74263">
        <ele>292.2592</ele>
        <time>2022-06-18T07:29:31.000Z</time>
      </trkpt>
      <trkpt lat="45.84519" lon="4.74259">
        <ele>291.93909</ele>
        <time>2022-06-18T07:29:32.000Z</time>
      </trkpt>
      <trkpt lat="45.84517" lon="4.74254">
        <ele>291.62372</ele>
        <time>2022-06-18T07:29:33.000Z</time>
      </trkpt>
      <trkpt lat="45.84515" lon="4.74249">
        <ele>291.25728</ele>
        <time>2022-06-18T07:29:34.000Z</time>
      </trkpt>
      <trkpt lat="45.84512" lon="4.74244">
        <ele>290.90001</ele>
        <time>2022-06-18T07:29:35.000Z</time>
      </trkpt>
      <trkpt lat="45.84512" lon="4.7424">
        <ele>290.72743</ele>
        <time>2022-06-18T07:29:36.000Z</time>
      </trkpt>
      <trkpt lat="45.84509" lon="4.74235">
        <ele>290.42777</ele>
        <time>2022-06-18T07:29:37.000Z</time>
      </trkpt>
      <trkpt lat="45.84507" lon="4.7423">
        <ele>290.22097</ele>
        <time>2022-06-18T07:29:38.000Z</time>
      </trkpt>
      <trkpt lat="45.84506" lon="4.74222">
        <ele>290.01961</ele>
        <time>2022-06-18T07:29:39.000Z</time>
      </trkpt>
      <trkpt lat="45.84504" lon="4.74219">
        <ele>289.86603</ele>
        <time>2022-06-18T07:29:40.000Z</time>
      </trkpt>
      <trkpt lat="45.84502" lon="4.74216">
        <ele>289.68724</ele>
        <time>2022-06-18T07:29:42.000Z</time>
      </trkpt>
      <trkpt lat="45.84501" lon="4.74212">
        <ele>289.51379</ele>
        <time>2022-06-18T07:29:44.000Z</time>
      </trkpt>
      <trkpt lat="45.845" lon="4.74209">
        <ele>289.37395</ele>
        <time>2022-06-18T07:29:45.000Z</time>
      </trkpt>
      <trkpt lat="45.84498" lon="4.74207">
        <ele>289.19999</ele>
        <time>2022-06-18T07:29:46.000Z</time>
      </trkpt>
      <trkpt lat="45.84496" lon="4.74204">
        <ele>288.98882</ele>
        <time>2022-06-18T07:29:47.000Z</time>
      </trkpt>
      <trkpt lat="45.84494" lon="4.742">
        <ele>288.69994</ele>
        <time>2022-06-18T07:29:48.000Z</time>
      </trkpt>
      <trkpt lat="45.84492" lon="4.74194">
        <ele>288.34951</ele>
        <time>2022-06-18T07:29:49.000Z</time>
      </trkpt>
      <trkpt lat="45.8449" lon="4.74184">
        <ele>287.86393</ele>
        <time>2022-06-18T07:29:50.000Z</time>
      </trkpt>
      <trkpt lat="45.84487" lon="4.74179">
        <ele>287.52236</ele>
        <time>2022-06-18T07:29:51.000Z</time>
      </trkpt>
      <trkpt lat="45.84485" lon="4.74172">
        <ele>287.12186</ele>
        <time>2022-06-18T07:29:52.000Z</time>
      </trkpt>
      <trkpt lat="45.84483" lon="4.74166">
        <ele>286.6945</ele>
        <time>2022-06-18T07:29:53.000Z</time>
      </trkpt>
      <trkpt lat="45.84481" lon="4.74157">
        <ele>286.20439</ele>
        <time>2022-06-18T07:29:54.000Z</time>
      </trkpt>
      <trkpt lat="45.84478" lon="4.74149">
        <ele>285.7001</ele>
        <time>2022-06-18T07:29:55.000Z</time>
      </trkpt>
      <trkpt lat="45.84475" lon="4.74142">
        <ele>285.17899</ele>
        <time>2022-06-18T07:29:56.000Z</time>
      </trkpt>
      <trkpt lat="45.8447" lon="4.74131">
        <ele>284.52567</ele>
        <time>2022-06-18T07:29:57.000Z</time>
      </trkpt>
      <trkpt lat="45.84466" lon="4.74121">
        <ele>283.96988</ele>
        <time>2022-06-18T07:29:58.000Z</time>
      </trkpt>
      <trkpt lat="45.8446" lon="4.7411">
        <ele>283.36883</ele>
        <time>2022-06-18T07:29:59.000Z</time>
      </trkpt>
      <trkpt lat="45.84456" lon="4.74101">
        <ele>282.93488</ele>
        <time>2022-06-18T07:30:00.000Z</time>
      </trkpt>
      <trkpt lat="45.84451" lon="4.74092">
        <ele>282.47311</ele>
        <time>2022-06-18T07:30:01.000Z</time>
      </trkpt>
      <trkpt lat="45.84447" lon="4.7408">
        <ele>282.07263</ele>
        <time>2022-06-18T07:30:02.000Z</time>
      </trkpt>
      <trkpt lat="45.84441" lon="4.7407">
        <ele>281.63273</ele>
        <time>2022-06-18T07:30:03.000Z</time>
      </trkpt>
      <trkpt lat="45.84436" lon="4.74062">
        <ele>281.27346</ele>
        <time>2022-06-18T07:30:04.000Z</time>
      </trkpt>
      <trkpt lat="45.8443" lon="4.74049">
        <ele>280.80521</ele>
        <time>2022-06-18T07:30:05.000Z</time>
      </trkpt>
      <trkpt lat="45.84426" lon="4.7404">
        <ele>280.52089</ele>
        <time>2022-06-18T07:30:06.000Z</time>
      </trkpt>
      <trkpt lat="45.8442" lon="4.74028">
        <ele>280.17426</ele>
        <time>2022-06-18T07:30:07.000Z</time>
      </trkpt>
      <trkpt lat="45.84417" lon="4.74017">
        <ele>279.91956</ele>
        <time>2022-06-18T07:30:08.000Z</time>
      </trkpt>
      <trkpt lat="45.84411" lon="4.74006">
        <ele>279.40022</ele>
        <time>2022-06-18T07:30:09.000Z</time>
      </trkpt>
      <trkpt lat="45.84405" lon="4.73994">
        <ele>278.82239</ele>
        <time>2022-06-18T07:30:10.000Z</time>
      </trkpt>
      <trkpt lat="45.84399" lon="4.73985">
        <ele>278.45429</ele>
        <time>2022-06-18T07:30:11.000Z</time>
      </trkpt>
      <trkpt lat="45.84393" lon="4.73977">
        <ele>278.12113</ele>
        <time>2022-06-18T07:30:12.000Z</time>
      </trkpt>
      <trkpt lat="45.84389" lon="4.73966">
        <ele>277.68424</ele>
        <time>2022-06-18T07:30:13.000Z</time>
      </trkpt>
      <trkpt lat="45.84385" lon="4.73955">
        <ele>277.11989</ele>
        <time>2022-06-18T07:30:14.000Z</time>
      </trkpt>
      <trkpt lat="45.84379" lon="4.73943">
        <ele>276.36449</ele>
        <time>2022-06-18T07:30:15.000Z</time>
      </trkpt>
      <trkpt lat="45.84374" lon="4.73935">
        <ele>275.81982</ele>
        <time>2022-06-18T07:30:16.000Z</time>
      </trkpt>
      <trkpt lat="45.8437" lon="4.73927">
        <ele>275.2713</ele>
        <time>2022-06-18T07:30:17.000Z</time>
      </trkpt>
      <trkpt lat="45.84363" lon="4.73915">
        <ele>274.48299</ele>
        <time>2022-06-18T07:30:18.000Z</time>
      </trkpt>
      <trkpt lat="45.84359" lon="4.73904">
        <ele>273.9046</ele>
        <time>2022-06-18T07:30:19.000Z</time>
      </trkpt>
      <trkpt lat="45.84354" lon="4.73894">
        <ele>273.42402</ele>
        <time>2022-06-18T07:30:20.000Z</time>
      </trkpt>
      <trkpt lat="45.84351" lon="4.73883">
        <ele>273.03454</ele>
        <time>2022-06-18T07:30:21.000Z</time>
      </trkpt>
      <trkpt lat="45.84344" lon="4.7387">
        <ele>272.44849</ele>
        <time>2022-06-18T07:30:22.000Z</time>
      </trkpt>
      <trkpt lat="45.84339" lon="4.73858">
        <ele>271.9008</ele>
        <time>2022-06-18T07:30:23.000Z</time>
      </trkpt>
      <trkpt lat="45.84333" lon="4.73845">
        <ele>271.42988</ele>
        <time>2022-06-18T07:30:24.000Z</time>
      </trkpt>
      <trkpt lat="45.84327" lon="4.73833">
        <ele>271.04543</ele>
        <time>2022-06-18T07:30:25.000Z</time>
      </trkpt>
      <trkpt lat="45.84321" lon="4.7382">
        <ele>270.30307</ele>
        <time>2022-06-18T07:30:26.000Z</time>
      </trkpt>
      <trkpt lat="45.84315" lon="4.73812">
        <ele>269.30918</ele>
        <time>2022-06-18T07:30:27.000Z</time>
      </trkpt>
      <trkpt lat="45.8431" lon="4.73801">
        <ele>268.11298</ele>
        <time>2022-06-18T07:30:28.000Z</time>
      </trkpt>
      <trkpt lat="45.84305" lon="4.7379">
        <ele>266.78946</ele>
        <time>2022-06-18T07:30:29.000Z</time>
      </trkpt>
      <trkpt lat="45.84299" lon="4.73779">
        <ele>265.3484</ele>
        <time>2022-06-18T07:30:30.000Z</time>
      </trkpt>
      <trkpt lat="45.84292" lon="4.73764">
        <ele>263.47239</ele>
        <time>2022-06-18T07:30:31.000Z</time>
      </trkpt>
      <trkpt lat="45.84285" lon="4.73749">
        <ele>262.09388</ele>
        <time>2022-06-18T07:30:32.000Z</time>
      </trkpt>
      <trkpt lat="45.84279" lon="4.73736">
        <ele>261.01574</ele>
        <time>2022-06-18T07:30:33.000Z</time>
      </trkpt>
      <trkpt lat="45.84272" lon="4.73727">
        <ele>260.04122</ele>
        <time>2022-06-18T07:30:34.000Z</time>
      </trkpt>
      <trkpt lat="45.84265" lon="4.73719">
        <ele>259.25481</ele>
        <time>2022-06-18T07:30:35.000Z</time>
      </trkpt>
      <trkpt lat="45.84258" lon="4.73714">
        <ele>258.69855</ele>
        <time>2022-06-18T07:30:36.000Z</time>
      </trkpt>
      <trkpt lat="45.84252" lon="4.73712">
        <ele>258.32869</ele>
        <time>2022-06-18T07:30:37.000Z</time>
      </trkpt>
      <trkpt lat="45.84243" lon="4.73721">
        <ele>258.11503</ele>
        <time>2022-06-18T07:30:38.000Z</time>
      </trkpt>
      <trkpt lat="45.84235" lon="4.73732">
        <ele>258.12008</ele>
        <time>2022-06-18T07:30:39.000Z</time>
      </trkpt>
      <trkpt lat="45.8423" lon="4.7374">
        <ele>258.11438</ele>
        <time>2022-06-18T07:30:40.000Z</time>
      </trkpt>
      <trkpt lat="45.84225" lon="4.73746">
        <ele>258.06573</ele>
        <time>2022-06-18T07:30:41.000Z</time>
      </trkpt>
      <trkpt lat="45.84219" lon="4.73752">
        <ele>257.98295</ele>
        <time>2022-06-18T07:30:42.000Z</time>
      </trkpt>
      <trkpt lat="45.84215" lon="4.73758">
        <ele>258.06409</ele>
        <time>2022-06-18T07:30:43.000Z</time>
      </trkpt>
      <trkpt lat="45.8421" lon="4.73766">
        <ele>258.08087</ele>
        <time>2022-06-18T07:30:44.000Z</time>
      </trkpt>
      <trkpt lat="45.84206" lon="4.73775">
        <ele>258.13024</ele>
        <time>2022-06-18T07:30:45.000Z</time>
      </trkpt>
      <trkpt lat="45.84203" lon="4.73781">
        <ele>258.18398</ele>
        <time>2022-06-18T07:30:46.000Z</time>
      </trkpt>
      <trkpt lat="45.84199" lon="4.73787">
        <ele>258.32079</ele>
        <time>2022-06-18T07:30:47.000Z</time>
      </trkpt>
      <trkpt lat="45.84197" lon="4.73791">
        <ele>258.40256</ele>
        <time>2022-06-18T07:30:48.000Z</time>
      </trkpt>
      <trkpt lat="45.84194" lon="4.73793">
        <ele>258.43687</ele>
        <time>2022-06-18T07:30:49.000Z</time>
      </trkpt>
      <trkpt lat="45.84192" lon="4.73798">
        <ele>258.52653</ele>
        <time>2022-06-18T07:30:50.000Z</time>
      </trkpt>
      <trkpt lat="45.8419" lon="4.73801">
        <ele>258.59216</ele>
        <time>2022-06-18T07:30:51.000Z</time>
      </trkpt>
      <trkpt lat="45.84188" lon="4.73803">
        <ele>258.58549</ele>
        <time>2022-06-18T07:30:52.000Z</time>
      </trkpt>
      <trkpt lat="45.84184" lon="4.73806">
        <ele>258.6147</ele>
        <time>2022-06-18T07:30:54.000Z</time>
      </trkpt>
      <trkpt lat="45.84182" lon="4.73805">
        <ele>258.56888</ele>
        <time>2022-06-18T07:30:56.000Z</time>
      </trkpt>
      <trkpt lat="45.84178" lon="4.73806">
        <ele>258.54735</ele>
        <time>2022-06-18T07:30:57.000Z</time>
      </trkpt>
      <trkpt lat="45.84176" lon="4.73809">
        <ele>258.65328</ele>
        <time>2022-06-18T07:30:59.000Z</time>
      </trkpt>
      <trkpt lat="45.84173" lon="4.73811">
        <ele>258.67451</ele>
        <time>2022-06-18T07:31:01.000Z</time>
      </trkpt>
      <trkpt lat="45.8417" lon="4.7381">
        <ele>258.59872</ele>
        <time>2022-06-18T07:31:02.000Z</time>
      </trkpt>
      <trkpt lat="45.84168" lon="4.73808">
        <ele>258.49958</ele>
        <time>2022-06-18T07:31:03.000Z</time>
      </trkpt>
      <trkpt lat="45.84167" lon="4.73806">
        <ele>258.40756</ele>
        <time>2022-06-18T07:31:04.000Z</time>
      </trkpt>
      <trkpt lat="45.84164" lon="4.73805">
        <ele>258.30826</ele>
        <time>2022-06-18T07:31:06.000Z</time>
      </trkpt>
      <trkpt lat="45.84162" lon="4.73806">
        <ele>258.32421</ele>
        <time>2022-06-18T07:31:08.000Z</time>
      </trkpt>
      <trkpt lat="45.84162" lon="4.73809">
        <ele>258.42247</ele>
        <time>2022-06-18T07:31:12.000Z</time>
      </trkpt>
      <trkpt lat="45.84158" lon="4.73808">
        <ele>258.3086</ele>
        <time>2022-06-18T07:31:44.000Z</time>
      </trkpt>
      <trkpt lat="45.84153" lon="4.73808">
        <ele>258.16135</ele>
        <time>2022-06-18T07:31:45.000Z</time>
      </trkpt>
      <trkpt lat="45.84138" lon="4.73805">
        <ele>257.93307</ele>
        <time>2022-06-18T07:31:46.000Z</time>
      </trkpt>
      <trkpt lat="45.84133" lon="4.73806">
        <ele>257.92763</ele>
        <time>2022-06-18T07:31:47.000Z</time>
      </trkpt>
      <trkpt lat="45.84127" lon="4.73807">
        <ele>257.87998</ele>
        <time>2022-06-18T07:31:48.000Z</time>
      </trkpt>
      <trkpt lat="45.84119" lon="4.73809">
        <ele>257.70654</ele>
        <time>2022-06-18T07:31:49.000Z</time>
      </trkpt>
      <trkpt lat="45.84115" lon="4.73809">
        <ele>257.56697</ele>
        <time>2022-06-18T07:31:50.000Z</time>
      </trkpt>
      <trkpt lat="45.84109" lon="4.73812">
        <ele>257.36815</ele>
        <time>2022-06-18T07:31:51.000Z</time>
      </trkpt>
      <trkpt lat="45.84103" lon="4.73815">
        <ele>257.22127</ele>
        <time>2022-06-18T07:31:52.000Z</time>
      </trkpt>
      <trkpt lat="45.84093" lon="4.73819">
        <ele>257.08821</ele>
        <time>2022-06-18T07:31:53.000Z</time>
      </trkpt>
      <trkpt lat="45.84086" lon="4.73823">
        <ele>257.06642</ele>
        <time>2022-06-18T07:31:54.000Z</time>
      </trkpt>
      <trkpt lat="45.84078" lon="4.73823">
        <ele>256.98621</ele>
        <time>2022-06-18T07:31:55.000Z</time>
      </trkpt>
      <trkpt lat="45.84071" lon="4.73813">
        <ele>256.96127</ele>
        <time>2022-06-18T07:31:56.000Z</time>
      </trkpt>
      <trkpt lat="45.84061" lon="4.73817">
        <ele>257.10164</ele>
        <time>2022-06-18T07:31:57.000Z</time>
      </trkpt>
      <trkpt lat="45.84058" lon="4.73824">
        <ele>257.21108</ele>
        <time>2022-06-18T07:31:58.000Z</time>
      </trkpt>
      <trkpt lat="45.84055" lon="4.7383">
        <ele>257.449</ele>
        <time>2022-06-18T07:31:59.000Z</time>
      </trkpt>
      <trkpt lat="45.8405" lon="4.73835">
        <ele>257.7342</ele>
        <time>2022-06-18T07:32:00.000Z</time>
      </trkpt>
      <trkpt lat="45.84045" lon="4.73838">
        <ele>258.07969</ele>
        <time>2022-06-18T07:32:01.000Z</time>
      </trkpt>
      <trkpt lat="45.84039" lon="4.73844">
        <ele>258.21584</ele>
        <time>2022-06-18T07:32:02.000Z</time>
      </trkpt>
      <trkpt lat="45.84034" lon="4.73848">
        <ele>258.1833</ele>
        <time>2022-06-18T07:32:03.000Z</time>
      </trkpt>
      <trkpt lat="45.84027" lon="4.73849">
        <ele>258.24005</ele>
        <time>2022-06-18T07:32:04.000Z</time>
      </trkpt>
      <trkpt lat="45.84017" lon="4.73855">
        <ele>258.85401</ele>
        <time>2022-06-18T07:32:05.000Z</time>
      </trkpt>
      <trkpt lat="45.84013" lon="4.7386">
        <ele>260.19483</ele>
        <time>2022-06-18T07:32:06.000Z</time>
      </trkpt>
      <trkpt lat="45.84006" lon="4.73857">
        <ele>260.35521</ele>
        <time>2022-06-18T07:32:07.000Z</time>
      </trkpt>
      <trkpt lat="45.84" lon="4.73851">
        <ele>259.04165</ele>
        <time>2022-06-18T07:32:08.000Z</time>
      </trkpt>
      <trkpt lat="45.83996" lon="4.73853">
        <ele>259.34007</ele>
        <time>2022-06-18T07:32:09.000Z</time>
      </trkpt>
      <trkpt lat="45.83991" lon="4.73856">
        <ele>260.45128</ele>
        <time>2022-06-18T07:32:10.000Z</time>
      </trkpt>
      <trkpt lat="45.83985" lon="4.73849">
        <ele>259.59212</ele>
        <time>2022-06-18T07:32:11.000Z</time>
      </trkpt>
      <trkpt lat="45.8398" lon="4.73846">
        <ele>260.96955</ele>
        <time>2022-06-18T07:32:12.000Z</time>
      </trkpt>
      <trkpt lat="45.83975" lon="4.73844">
        <ele>263.06652</ele>
        <time>2022-06-18T07:32:13.000Z</time>
      </trkpt>
      <trkpt lat="45.83958" lon="4.73819">
        <ele>261.17657</ele>
        <time>2022-06-18T07:32:17.000Z</time>
      </trkpt>
      <trkpt lat="45.83956" lon="4.73809">
        <ele>260.99594</ele>
        <time>2022-06-18T07:32:18.000Z</time>
      </trkpt>
      <trkpt lat="45.83952" lon="4.73798">
        <ele>262.323</ele>
        <time>2022-06-18T07:32:19.000Z</time>
      </trkpt>
      <trkpt lat="45.83948" lon="4.73795">
        <ele>262.55027</ele>
        <time>2022-06-18T07:32:20.000Z</time>
      </trkpt>
      <trkpt lat="45.83947" lon="4.73788">
        <ele>263.18613</ele>
        <time>2022-06-18T07:32:21.000Z</time>
      </trkpt>
      <trkpt lat="45.83943" lon="4.73786">
        <ele>263.17114</ele>
        <time>2022-06-18T07:32:22.000Z</time>
      </trkpt>
      <trkpt lat="45.83941" lon="4.73781">
        <ele>263.54479</ele>
        <time>2022-06-18T07:32:23.000Z</time>
      </trkpt>
      <trkpt lat="45.8394" lon="4.73776">
        <ele>263.90391</ele>
        <time>2022-06-18T07:32:24.000Z</time>
      </trkpt>
      <trkpt lat="45.83938" lon="4.73767">
        <ele>264.81773</ele>
        <time>2022-06-18T07:32:25.000Z</time>
      </trkpt>
      <trkpt lat="45.83937" lon="4.73758">
        <ele>265.71707</ele>
        <time>2022-06-18T07:32:26.000Z</time>
      </trkpt>
      <trkpt lat="45.83935" lon="4.73753">
        <ele>266.82317</ele>
        <time>2022-06-18T07:32:27.000Z</time>
      </trkpt>
      <trkpt lat="45.83934" lon="4.73748">
        <ele>267.33073</ele>
        <time>2022-06-18T07:32:29.000Z</time>
      </trkpt>
      <trkpt lat="45.83935" lon="4.73744">
        <ele>267.13255</ele>
        <time>2022-06-18T07:32:30.000Z</time>
      </trkpt>
      <trkpt lat="45.83937" lon="4.7374">
        <ele>266.82168</ele>
        <time>2022-06-18T07:32:31.000Z</time>
      </trkpt>
      <trkpt lat="45.83938" lon="4.73736">
        <ele>266.57218</ele>
        <time>2022-06-18T07:32:32.000Z</time>
      </trkpt>
      <trkpt lat="45.83939" lon="4.73732">
        <ele>266.26201</ele>
        <time>2022-06-18T07:32:33.000Z</time>
      </trkpt>
      <trkpt lat="45.8394" lon="4.73728">
        <ele>265.87265</ele>
        <time>2022-06-18T07:32:34.000Z</time>
      </trkpt>
      <trkpt lat="45.83943" lon="4.73723">
        <ele>265.55547</ele>
        <time>2022-06-18T07:32:35.000Z</time>
      </trkpt>
      <trkpt lat="45.83946" lon="4.73719">
        <ele>265.56125</ele>
        <time>2022-06-18T07:32:36.000Z</time>
      </trkpt>
      <trkpt lat="45.8395" lon="4.73714">
        <ele>265.93717</ele>
        <time>2022-06-18T07:32:37.000Z</time>
      </trkpt>
      <trkpt lat="45.83953" lon="4.7371">
        <ele>266.48202</ele>
        <time>2022-06-18T07:32:38.000Z</time>
      </trkpt>
      <trkpt lat="45.83957" lon="4.73707">
        <ele>266.92521</ele>
        <time>2022-06-18T07:32:39.000Z</time>
      </trkpt>
      <trkpt lat="45.83961" lon="4.73702">
        <ele>267.15037</ele>
        <time>2022-06-18T07:32:40.000Z</time>
      </trkpt>
      <trkpt lat="45.83964" lon="4.73698">
        <ele>267.18717</ele>
        <time>2022-06-18T07:32:41.000Z</time>
      </trkpt>
      <trkpt lat="45.83966" lon="4.73693">
        <ele>267.17183</ele>
        <time>2022-06-18T07:32:42.000Z</time>
      </trkpt>
      <trkpt lat="45.83966" lon="4.73689">
        <ele>267.24379</ele>
        <time>2022-06-18T07:32:43.000Z</time>
      </trkpt>
      <trkpt lat="45.83964" lon="4.73684">
        <ele>267.48721</ele>
        <time>2022-06-18T07:32:44.000Z</time>
      </trkpt>
      <trkpt lat="45.83962" lon="4.7368">
        <ele>268.00827</ele>
        <time>2022-06-18T07:32:45.000Z</time>
      </trkpt>
      <trkpt lat="45.83958" lon="4.73676">
        <ele>268.83007</ele>
        <time>2022-06-18T07:32:46.000Z</time>
      </trkpt>
      <trkpt lat="45.83955" lon="4.73671">
        <ele>269.75419</ele>
        <time>2022-06-18T07:32:47.000Z</time>
      </trkpt>
      <trkpt lat="45.83953" lon="4.73667">
        <ele>270.58812</ele>
        <time>2022-06-18T07:32:48.000Z</time>
      </trkpt>
      <trkpt lat="45.83951" lon="4.73662">
        <ele>271.1025</ele>
        <time>2022-06-18T07:32:49.000Z</time>
      </trkpt>
      <trkpt lat="45.83951" lon="4.73658">
        <ele>271.25075</ele>
        <time>2022-06-18T07:32:50.000Z</time>
      </trkpt>
      <trkpt lat="45.83953" lon="4.73653">
        <ele>270.92413</ele>
        <time>2022-06-18T07:32:51.000Z</time>
      </trkpt>
      <trkpt lat="45.83957" lon="4.73647">
        <ele>270.51979</ele>
        <time>2022-06-18T07:32:52.000Z</time>
      </trkpt>
      <trkpt lat="45.83961" lon="4.73643">
        <ele>270.36471</ele>
        <time>2022-06-18T07:32:53.000Z</time>
      </trkpt>
      <trkpt lat="45.83965" lon="4.73638">
        <ele>270.64587</ele>
        <time>2022-06-18T07:32:54.000Z</time>
      </trkpt>
      <trkpt lat="45.83968" lon="4.73633">
        <ele>271.24993</ele>
        <time>2022-06-18T07:32:55.000Z</time>
      </trkpt>
      <trkpt lat="45.83972" lon="4.73628">
        <ele>271.71961</ele>
        <time>2022-06-18T07:32:56.000Z</time>
      </trkpt>
      <trkpt lat="45.83974" lon="4.73624">
        <ele>271.81</ele>
        <time>2022-06-18T07:32:57.000Z</time>
      </trkpt>
      <trkpt lat="45.83977" lon="4.73623">
        <ele>271.39552</ele>
        <time>2022-06-18T07:32:58.000Z</time>
      </trkpt>
      <trkpt lat="45.83981" lon="4.73622">
        <ele>270.71903</ele>
        <time>2022-06-18T07:32:59.000Z</time>
      </trkpt>
      <trkpt lat="45.83986" lon="4.73622">
        <ele>270.07574</ele>
        <time>2022-06-18T07:33:00.000Z</time>
      </trkpt>
      <trkpt lat="45.83991" lon="4.73623">
        <ele>269.66922</ele>
        <time>2022-06-18T07:33:01.000Z</time>
      </trkpt>
      <trkpt lat="45.83996" lon="4.73623">
        <ele>269.66161</ele>
        <time>2022-06-18T07:33:02.000Z</time>
      </trkpt>
      <trkpt lat="45.84001" lon="4.73623">
        <ele>269.89577</ele>
        <time>2022-06-18T07:33:03.000Z</time>
      </trkpt>
      <trkpt lat="45.84006" lon="4.73621">
        <ele>270.21783</ele>
        <time>2022-06-18T07:33:04.000Z</time>
      </trkpt>
      <trkpt lat="45.8401" lon="4.73618">
        <ele>270.53578</ele>
        <time>2022-06-18T07:33:05.000Z</time>
      </trkpt>
      <trkpt lat="45.84013" lon="4.73613">
        <ele>270.79795</ele>
        <time>2022-06-18T07:33:06.000Z</time>
      </trkpt>
      <trkpt lat="45.84015" lon="4.73608">
        <ele>271.06143</ele>
        <time>2022-06-18T07:33:07.000Z</time>
      </trkpt>
      <trkpt lat="45.84017" lon="4.73603">
        <ele>271.31633</ele>
        <time>2022-06-18T07:33:08.000Z</time>
      </trkpt>
      <trkpt lat="45.84018" lon="4.73597">
        <ele>271.55109</ele>
        <time>2022-06-18T07:33:09.000Z</time>
      </trkpt>
      <trkpt lat="45.84019" lon="4.7359">
        <ele>271.73641</ele>
        <time>2022-06-18T07:33:10.000Z</time>
      </trkpt>
      <trkpt lat="45.8402" lon="4.73584">
        <ele>271.88211</ele>
        <time>2022-06-18T07:33:11.000Z</time>
      </trkpt>
      <trkpt lat="45.8402" lon="4.73578">
        <ele>272.05541</ele>
        <time>2022-06-18T07:33:12.000Z</time>
      </trkpt>
      <trkpt lat="45.84019" lon="4.73571">
        <ele>272.25879</ele>
        <time>2022-06-18T07:33:13.000Z</time>
      </trkpt>
      <trkpt lat="45.84018" lon="4.73565">
        <ele>272.42992</ele>
        <time>2022-06-18T07:33:14.000Z</time>
      </trkpt>
      <trkpt lat="45.84018" lon="4.73559">
        <ele>272.59516</ele>
        <time>2022-06-18T07:33:15.000Z</time>
      </trkpt>
      <trkpt lat="45.84017" lon="4.73553">
        <ele>272.77595</ele>
        <time>2022-06-18T07:33:16.000Z</time>
      </trkpt>
      <trkpt lat="45.84011" lon="4.73545">
        <ele>273.32539</ele>
        <time>2022-06-18T07:33:17.000Z</time>
      </trkpt>
      <trkpt lat="45.8401" lon="4.73539">
        <ele>273.55351</ele>
        <time>2022-06-18T07:33:18.000Z</time>
      </trkpt>
      <trkpt lat="45.8401" lon="4.73533">
        <ele>273.77656</ele>
        <time>2022-06-18T07:33:19.000Z</time>
      </trkpt>
      <trkpt lat="45.8401" lon="4.73525">
        <ele>273.93976</ele>
        <time>2022-06-18T07:33:20.000Z</time>
      </trkpt>
      <trkpt lat="45.84012" lon="4.73518">
        <ele>274.03994</ele>
        <time>2022-06-18T07:33:21.000Z</time>
      </trkpt>
      <trkpt lat="45.84012" lon="4.73513">
        <ele>274.23332</ele>
        <time>2022-06-18T07:33:22.000Z</time>
      </trkpt>
      <trkpt lat="45.84009" lon="4.73506">
        <ele>274.57785</ele>
        <time>2022-06-18T07:33:23.000Z</time>
      </trkpt>
      <trkpt lat="45.84007" lon="4.73502">
        <ele>274.85584</ele>
        <time>2022-06-18T07:33:24.000Z</time>
      </trkpt>
      <trkpt lat="45.84004" lon="4.73497">
        <ele>275.06207</ele>
        <time>2022-06-18T07:33:25.000Z</time>
      </trkpt>
      <trkpt lat="45.84002" lon="4.73492">
        <ele>275.24295</ele>
        <time>2022-06-18T07:33:26.000Z</time>
      </trkpt>
      <trkpt lat="45.84" lon="4.73487">
        <ele>275.38773</ele>
        <time>2022-06-18T07:33:27.000Z</time>
      </trkpt>
      <trkpt lat="45.83998" lon="4.73482">
        <ele>275.51853</ele>
        <time>2022-06-18T07:33:28.000Z</time>
      </trkpt>
      <trkpt lat="45.83996" lon="4.73477">
        <ele>275.63864</ele>
        <time>2022-06-18T07:33:29.000Z</time>
      </trkpt>
      <trkpt lat="45.83994" lon="4.73473">
        <ele>275.76052</ele>
        <time>2022-06-18T07:33:30.000Z</time>
      </trkpt>
      <trkpt lat="45.83992" lon="4.73469">
        <ele>275.88153</ele>
        <time>2022-06-18T07:33:31.000Z</time>
      </trkpt>
      <trkpt lat="45.83991" lon="4.73464">
        <ele>276.029</ele>
        <time>2022-06-18T07:33:32.000Z</time>
      </trkpt>
      <trkpt lat="45.83989" lon="4.73461">
        <ele>276.17992</ele>
        <time>2022-06-18T07:33:33.000Z</time>
      </trkpt>
      <trkpt lat="45.83985" lon="4.73458">
        <ele>276.42069</ele>
        <time>2022-06-18T07:33:34.000Z</time>
      </trkpt>
      <trkpt lat="45.83982" lon="4.73455">
        <ele>276.63376</ele>
        <time>2022-06-18T07:33:35.000Z</time>
      </trkpt>
      <trkpt lat="45.83979" lon="4.73454">
        <ele>276.82112</ele>
        <time>2022-06-18T07:33:36.000Z</time>
      </trkpt>
      <trkpt lat="45.83976" lon="4.73454">
        <ele>276.94755</ele>
        <time>2022-06-18T07:33:37.000Z</time>
      </trkpt>
      <trkpt lat="45.83972" lon="4.73455">
        <ele>277.05252</ele>
        <time>2022-06-18T07:33:38.000Z</time>
      </trkpt>
      <trkpt lat="45.83969" lon="4.73458">
        <ele>277.16332</ele>
        <time>2022-06-18T07:33:39.000Z</time>
      </trkpt>
      <trkpt lat="45.83966" lon="4.73462">
        <ele>277.30303</ele>
        <time>2022-06-18T07:33:40.000Z</time>
      </trkpt>
      <trkpt lat="45.83962" lon="4.73467">
        <ele>277.45825</ele>
        <time>2022-06-18T07:33:41.000Z</time>
      </trkpt>
      <trkpt lat="45.83959" lon="4.73471">
        <ele>277.61945</ele>
        <time>2022-06-18T07:33:42.000Z</time>
      </trkpt>
      <trkpt lat="45.83956" lon="4.73475">
        <ele>277.77278</ele>
        <time>2022-06-18T07:33:43.000Z</time>
      </trkpt>
      <trkpt lat="45.83953" lon="4.73479">
        <ele>277.91182</ele>
        <time>2022-06-18T07:33:44.000Z</time>
      </trkpt>
      <trkpt lat="45.83949" lon="4.73484">
        <ele>278.04872</ele>
        <time>2022-06-18T07:33:45.000Z</time>
      </trkpt>
      <trkpt lat="45.83946" lon="4.73488">
        <ele>278.14861</ele>
        <time>2022-06-18T07:33:46.000Z</time>
      </trkpt>
      <trkpt lat="45.83943" lon="4.73492">
        <ele>278.22151</ele>
        <time>2022-06-18T07:33:47.000Z</time>
      </trkpt>
      <trkpt lat="45.83941" lon="4.73496">
        <ele>278.27129</ele>
        <time>2022-06-18T07:33:48.000Z</time>
      </trkpt>
      <trkpt lat="45.83939" lon="4.73499">
        <ele>278.31193</ele>
        <time>2022-06-18T07:33:49.000Z</time>
      </trkpt>
      <trkpt lat="45.83937" lon="4.73502">
        <ele>278.36797</ele>
        <time>2022-06-18T07:33:50.000Z</time>
      </trkpt>
      <trkpt lat="45.83935" lon="4.73505">
        <ele>278.44265</ele>
        <time>2022-06-18T07:33:51.000Z</time>
      </trkpt>
      <trkpt lat="45.83933" lon="4.73508">
        <ele>278.53736</ele>
        <time>2022-06-18T07:33:52.000Z</time>
      </trkpt>
      <trkpt lat="45.83931" lon="4.73511">
        <ele>278.64465</ele>
        <time>2022-06-18T07:33:53.000Z</time>
      </trkpt>
      <trkpt lat="45.83927" lon="4.73513">
        <ele>278.76262</ele>
        <time>2022-06-18T07:33:54.000Z</time>
      </trkpt>
      <trkpt lat="45.83924" lon="4.73514">
        <ele>278.84397</ele>
        <time>2022-06-18T07:33:55.000Z</time>
      </trkpt>
      <trkpt lat="45.83921" lon="4.73514">
        <ele>278.85815</ele>
        <time>2022-06-18T07:33:56.000Z</time>
      </trkpt>
      <trkpt lat="45.83918" lon="4.73515">
        <ele>278.81273</ele>
        <time>2022-06-18T07:33:57.000Z</time>
      </trkpt>
      <trkpt lat="45.83915" lon="4.73513">
        <ele>278.68047</ele>
        <time>2022-06-18T07:33:58.000Z</time>
      </trkpt>
      <trkpt lat="45.83912" lon="4.73512">
        <ele>278.57356</ele>
        <time>2022-06-18T07:33:59.000Z</time>
      </trkpt>
      <trkpt lat="45.83903" lon="4.73517">
        <ele>278.46934</ele>
        <time>2022-06-18T07:34:05.000Z</time>
      </trkpt>
      <trkpt lat="45.83899" lon="4.73515">
        <ele>278.50655</ele>
        <time>2022-06-18T07:34:07.000Z</time>
      </trkpt>
      <trkpt lat="45.83897" lon="4.73514">
        <ele>278.56831</ele>
        <time>2022-06-18T07:34:08.000Z</time>
      </trkpt>
      <trkpt lat="45.83895" lon="4.73511">
        <ele>278.6448</ele>
        <time>2022-06-18T07:34:09.000Z</time>
      </trkpt>
      <trkpt lat="45.83893" lon="4.73508">
        <ele>278.72696</ele>
        <time>2022-06-18T07:34:10.000Z</time>
      </trkpt>
      <trkpt lat="45.83891" lon="4.73505">
        <ele>278.80638</ele>
        <time>2022-06-18T07:34:11.000Z</time>
      </trkpt>
      <trkpt lat="45.8389" lon="4.73502">
        <ele>278.85796</ele>
        <time>2022-06-18T07:34:12.000Z</time>
      </trkpt>
      <trkpt lat="45.83888" lon="4.73499">
        <ele>278.8957</ele>
        <time>2022-06-18T07:34:13.000Z</time>
      </trkpt>
      <trkpt lat="45.83887" lon="4.73498">
        <ele>278.93363</ele>
        <time>2022-06-18T07:34:14.000Z</time>
      </trkpt>
      <trkpt lat="45.83884" lon="4.73497">
        <ele>279.01865</ele>
        <time>2022-06-18T07:34:15.000Z</time>
      </trkpt>
      <trkpt lat="45.83882" lon="4.73499">
        <ele>279.1547</ele>
        <time>2022-06-18T07:34:16.000Z</time>
      </trkpt>
      <trkpt lat="45.8388" lon="4.73501">
        <ele>279.293</ele>
        <time>2022-06-18T07:34:17.000Z</time>
      </trkpt>
      <trkpt lat="45.83878" lon="4.73503">
        <ele>279.42843</ele>
        <time>2022-06-18T07:34:18.000Z</time>
      </trkpt>
      <trkpt lat="45.83877" lon="4.73506">
        <ele>279.55543</ele>
        <time>2022-06-18T07:34:19.000Z</time>
      </trkpt>
      <trkpt lat="45.83876" lon="4.73509">
        <ele>279.68459</ele>
        <time>2022-06-18T07:34:20.000Z</time>
      </trkpt>
      <trkpt lat="45.83874" lon="4.73513">
        <ele>279.8423</ele>
        <time>2022-06-18T07:34:21.000Z</time>
      </trkpt>
      <trkpt lat="45.83872" lon="4.73518">
        <ele>279.99149</ele>
        <time>2022-06-18T07:34:22.000Z</time>
      </trkpt>
      <trkpt lat="45.8387" lon="4.73523">
        <ele>280.06946</ele>
        <time>2022-06-18T07:34:23.000Z</time>
      </trkpt>
      <trkpt lat="45.83868" lon="4.73527">
        <ele>280.0828</ele>
        <time>2022-06-18T07:34:24.000Z</time>
      </trkpt>
      <trkpt lat="45.83866" lon="4.73532">
        <ele>280.07121</ele>
        <time>2022-06-18T07:34:25.000Z</time>
      </trkpt>
      <trkpt lat="45.83863" lon="4.73536">
        <ele>280.08984</ele>
        <time>2022-06-18T07:34:26.000Z</time>
      </trkpt>
      <trkpt lat="45.8386" lon="4.73541">
        <ele>280.13954</ele>
        <time>2022-06-18T07:34:27.000Z</time>
      </trkpt>
      <trkpt lat="45.83857" lon="4.73545">
        <ele>280.19518</ele>
        <time>2022-06-18T07:34:28.000Z</time>
      </trkpt>
      <trkpt lat="45.83855" lon="4.73549">
        <ele>280.27039</ele>
        <time>2022-06-18T07:34:29.000Z</time>
      </trkpt>
      <trkpt lat="45.83852" lon="4.73553">
        <ele>280.35163</ele>
        <time>2022-06-18T07:34:30.000Z</time>
      </trkpt>
      <trkpt lat="45.83849" lon="4.73556">
        <ele>280.4669</ele>
        <time>2022-06-18T07:34:31.000Z</time>
      </trkpt>
      <trkpt lat="45.83847" lon="4.7356">
        <ele>280.58468</ele>
        <time>2022-06-18T07:34:32.000Z</time>
      </trkpt>
      <trkpt lat="45.83844" lon="4.73563">
        <ele>280.7311</ele>
        <time>2022-06-18T07:34:33.000Z</time>
      </trkpt>
      <trkpt lat="45.83842" lon="4.73565">
        <ele>280.94897</ele>
        <time>2022-06-18T07:34:34.000Z</time>
      </trkpt>
      <trkpt lat="45.83839" lon="4.73567">
        <ele>281.25514</ele>
        <time>2022-06-18T07:34:35.000Z</time>
      </trkpt>
      <trkpt lat="45.83835" lon="4.73569">
        <ele>281.62965</ele>
        <time>2022-06-18T07:34:36.000Z</time>
      </trkpt>
      <trkpt lat="45.83831" lon="4.73571">
        <ele>281.94654</ele>
        <time>2022-06-18T07:34:37.000Z</time>
      </trkpt>
      <trkpt lat="45.83828" lon="4.73573">
        <ele>282.20748</ele>
        <time>2022-06-18T07:34:38.000Z</time>
      </trkpt>
      <trkpt lat="45.83824" lon="4.73574">
        <ele>282.43129</ele>
        <time>2022-06-18T07:34:39.000Z</time>
      </trkpt>
      <trkpt lat="45.8382" lon="4.73575">
        <ele>282.629</ele>
        <time>2022-06-18T07:34:40.000Z</time>
      </trkpt>
      <trkpt lat="45.83816" lon="4.73576">
        <ele>282.81655</ele>
        <time>2022-06-18T07:34:41.000Z</time>
      </trkpt>
      <trkpt lat="45.83813" lon="4.73577">
        <ele>283.0029</ele>
        <time>2022-06-18T07:34:42.000Z</time>
      </trkpt>
      <trkpt lat="45.8381" lon="4.73578">
        <ele>283.17783</ele>
        <time>2022-06-18T07:34:43.000Z</time>
      </trkpt>
      <trkpt lat="45.83807" lon="4.73579">
        <ele>283.35273</ele>
        <time>2022-06-18T07:34:44.000Z</time>
      </trkpt>
      <trkpt lat="45.83803" lon="4.73579">
        <ele>283.49517</ele>
        <time>2022-06-18T07:34:45.000Z</time>
      </trkpt>
      <trkpt lat="45.838" lon="4.7358">
        <ele>283.61898</ele>
        <time>2022-06-18T07:34:46.000Z</time>
      </trkpt>
      <trkpt lat="45.83797" lon="4.73582">
        <ele>283.72625</ele>
        <time>2022-06-18T07:34:47.000Z</time>
      </trkpt>
      <trkpt lat="45.83794" lon="4.73583">
        <ele>283.82773</ele>
        <time>2022-06-18T07:34:48.000Z</time>
      </trkpt>
      <trkpt lat="45.83791" lon="4.73585">
        <ele>283.93164</ele>
        <time>2022-06-18T07:34:49.000Z</time>
      </trkpt>
      <trkpt lat="45.83788" lon="4.73587">
        <ele>284.05906</ele>
        <time>2022-06-18T07:34:50.000Z</time>
      </trkpt>
      <trkpt lat="45.83785" lon="4.73589">
        <ele>284.18558</ele>
        <time>2022-06-18T07:34:51.000Z</time>
      </trkpt>
      <trkpt lat="45.83783" lon="4.7359">
        <ele>284.31339</ele>
        <time>2022-06-18T07:34:52.000Z</time>
      </trkpt>
      <trkpt lat="45.83779" lon="4.73592">
        <ele>284.48257</ele>
        <time>2022-06-18T07:34:53.000Z</time>
      </trkpt>
      <trkpt lat="45.83776" lon="4.73592">
        <ele>284.65634</ele>
        <time>2022-06-18T07:34:54.000Z</time>
      </trkpt>
      <trkpt lat="45.83773" lon="4.73592">
        <ele>284.8379</ele>
        <time>2022-06-18T07:34:55.000Z</time>
      </trkpt>
      <trkpt lat="45.83769" lon="4.73592">
        <ele>285.02436</ele>
        <time>2022-06-18T07:34:56.000Z</time>
      </trkpt>
      <trkpt lat="45.83766" lon="4.73591">
        <ele>285.20656</ele>
        <time>2022-06-18T07:34:57.000Z</time>
      </trkpt>
      <trkpt lat="45.83763" lon="4.73589">
        <ele>285.38787</ele>
        <time>2022-06-18T07:34:58.000Z</time>
      </trkpt>
      <trkpt lat="45.8376" lon="4.73586">
        <ele>285.56469</ele>
        <time>2022-06-18T07:34:59.000Z</time>
      </trkpt>
      <trkpt lat="45.83756" lon="4.73582">
        <ele>285.78516</ele>
        <time>2022-06-18T07:35:00.000Z</time>
      </trkpt>
      <trkpt lat="45.83752" lon="4.73579">
        <ele>286.01954</ele>
        <time>2022-06-18T07:35:01.000Z</time>
      </trkpt>
      <trkpt lat="45.83748" lon="4.73577">
        <ele>286.29798</ele>
        <time>2022-06-18T07:35:02.000Z</time>
      </trkpt>
      <trkpt lat="45.83743" lon="4.73576">
        <ele>286.56252</ele>
        <time>2022-06-18T07:35:03.000Z</time>
      </trkpt>
      <trkpt lat="45.8374" lon="4.73576">
        <ele>286.80537</ele>
        <time>2022-06-18T07:35:04.000Z</time>
      </trkpt>
      <trkpt lat="45.83736" lon="4.73577">
        <ele>287.03788</ele>
        <time>2022-06-18T07:35:05.000Z</time>
      </trkpt>
      <trkpt lat="45.83733" lon="4.73578">
        <ele>287.27743</ele>
        <time>2022-06-18T07:35:06.000Z</time>
      </trkpt>
      <trkpt lat="45.83729" lon="4.7358">
        <ele>287.5104</ele>
        <time>2022-06-18T07:35:07.000Z</time>
      </trkpt>
      <trkpt lat="45.83726" lon="4.73581">
        <ele>287.76615</ele>
        <time>2022-06-18T07:35:08.000Z</time>
      </trkpt>
      <trkpt lat="45.83722" lon="4.73583">
        <ele>288.0251</ele>
        <time>2022-06-18T07:35:09.000Z</time>
      </trkpt>
      <trkpt lat="45.83719" lon="4.73584">
        <ele>288.23591</ele>
        <time>2022-06-18T07:35:10.000Z</time>
      </trkpt>
      <trkpt lat="45.83717" lon="4.73584">
        <ele>288.38467</ele>
        <time>2022-06-18T07:35:11.000Z</time>
      </trkpt>
      <trkpt lat="45.83715" lon="4.73583">
        <ele>288.52189</ele>
        <time>2022-06-18T07:35:12.000Z</time>
      </trkpt>
      <trkpt lat="45.83712" lon="4.73579">
        <ele>288.65477</ele>
        <time>2022-06-18T07:35:13.000Z</time>
      </trkpt>
      <trkpt lat="45.8371" lon="4.73575">
        <ele>288.75817</ele>
        <time>2022-06-18T07:35:14.000Z</time>
      </trkpt>
      <trkpt lat="45.83708" lon="4.7357">
        <ele>288.8446</ele>
        <time>2022-06-18T07:35:15.000Z</time>
      </trkpt>
      <trkpt lat="45.83706" lon="4.73564">
        <ele>288.92388</ele>
        <time>2022-06-18T07:35:16.000Z</time>
      </trkpt>
      <trkpt lat="45.83705" lon="4.73557">
        <ele>288.96853</ele>
        <time>2022-06-18T07:35:17.000Z</time>
      </trkpt>
      <trkpt lat="45.83701" lon="4.73544">
        <ele>289.09578</ele>
        <time>2022-06-18T07:35:18.000Z</time>
      </trkpt>
      <trkpt lat="45.83699" lon="4.73537">
        <ele>289.0654</ele>
        <time>2022-06-18T07:35:19.000Z</time>
      </trkpt>
      <trkpt lat="45.83696" lon="4.73531">
        <ele>289.07329</ele>
        <time>2022-06-18T07:35:20.000Z</time>
      </trkpt>
      <trkpt lat="45.83694" lon="4.73525">
        <ele>289.05269</ele>
        <time>2022-06-18T07:35:21.000Z</time>
      </trkpt>
      <trkpt lat="45.83691" lon="4.73516">
        <ele>288.9784</ele>
        <time>2022-06-18T07:35:22.000Z</time>
      </trkpt>
      <trkpt lat="45.83688" lon="4.7351">
        <ele>288.97228</ele>
        <time>2022-06-18T07:35:23.000Z</time>
      </trkpt>
      <trkpt lat="45.83684" lon="4.73503">
        <ele>288.95279</ele>
        <time>2022-06-18T07:35:24.000Z</time>
      </trkpt>
      <trkpt lat="45.8368" lon="4.73497">
        <ele>288.9319</ele>
        <time>2022-06-18T07:35:25.000Z</time>
      </trkpt>
      <trkpt lat="45.83676" lon="4.73491">
        <ele>288.8566</ele>
        <time>2022-06-18T07:35:26.000Z</time>
      </trkpt>
      <trkpt lat="45.83673" lon="4.73486">
        <ele>288.73041</ele>
        <time>2022-06-18T07:35:27.000Z</time>
      </trkpt>
      <trkpt lat="45.8367" lon="4.73479">
        <ele>288.5416</ele>
        <time>2022-06-18T07:35:28.000Z</time>
      </trkpt>
      <trkpt lat="45.83667" lon="4.73473">
        <ele>288.28064</ele>
        <time>2022-06-18T07:35:29.000Z</time>
      </trkpt>
      <trkpt lat="45.83665" lon="4.73466">
        <ele>287.9295</ele>
        <time>2022-06-18T07:35:30.000Z</time>
      </trkpt>
      <trkpt lat="45.83664" lon="4.73457">
        <ele>287.52851</ele>
        <time>2022-06-18T07:35:31.000Z</time>
      </trkpt>
      <trkpt lat="45.83662" lon="4.73449">
        <ele>287.24633</ele>
        <time>2022-06-18T07:35:32.000Z</time>
      </trkpt>
      <trkpt lat="45.83659" lon="4.7344">
        <ele>286.92835</ele>
        <time>2022-06-18T07:35:33.000Z</time>
      </trkpt>
      <trkpt lat="45.83657" lon="4.7343">
        <ele>286.63328</ele>
        <time>2022-06-18T07:35:34.000Z</time>
      </trkpt>
      <trkpt lat="45.83655" lon="4.73422">
        <ele>286.42458</ele>
        <time>2022-06-18T07:35:35.000Z</time>
      </trkpt>
      <trkpt lat="45.83651" lon="4.73411">
        <ele>286.25875</ele>
        <time>2022-06-18T07:35:36.000Z</time>
      </trkpt>
      <trkpt lat="45.83649" lon="4.73401">
        <ele>286.18541</ele>
        <time>2022-06-18T07:35:37.000Z</time>
      </trkpt>
      <trkpt lat="45.83645" lon="4.73394">
        <ele>286.33954</ele>
        <time>2022-06-18T07:35:38.000Z</time>
      </trkpt>
      <trkpt lat="45.83646" lon="4.73387">
        <ele>286.21528</ele>
        <time>2022-06-18T07:35:39.000Z</time>
      </trkpt>
      <trkpt lat="45.83646" lon="4.7338">
        <ele>286.1271</ele>
        <time>2022-06-18T07:35:40.000Z</time>
      </trkpt>
      <trkpt lat="45.83648" lon="4.73374">
        <ele>285.9989</ele>
        <time>2022-06-18T07:35:41.000Z</time>
      </trkpt>
      <trkpt lat="45.8365" lon="4.73365">
        <ele>285.86609</ele>
        <time>2022-06-18T07:35:42.000Z</time>
      </trkpt>
      <trkpt lat="45.83652" lon="4.73357">
        <ele>285.77917</ele>
        <time>2022-06-18T07:35:43.000Z</time>
      </trkpt>
      <trkpt lat="45.83653" lon="4.73349">
        <ele>285.71766</ele>
        <time>2022-06-18T07:35:44.000Z</time>
      </trkpt>
      <trkpt lat="45.83657" lon="4.73344">
        <ele>285.56325</ele>
        <time>2022-06-18T07:35:45.000Z</time>
      </trkpt>
      <trkpt lat="45.83661" lon="4.73337">
        <ele>285.41077</ele>
        <time>2022-06-18T07:35:46.000Z</time>
      </trkpt>
      <trkpt lat="45.83665" lon="4.7333">
        <ele>285.14363</ele>
        <time>2022-06-18T07:35:47.000Z</time>
      </trkpt>
      <trkpt lat="45.83669" lon="4.73323">
        <ele>284.935</ele>
        <time>2022-06-18T07:35:48.000Z</time>
      </trkpt>
      <trkpt lat="45.83673" lon="4.73315">
        <ele>284.66791</ele>
        <time>2022-06-18T07:35:49.000Z</time>
      </trkpt>
      <trkpt lat="45.83676" lon="4.7331">
        <ele>284.50403</ele>
        <time>2022-06-18T07:35:50.000Z</time>
      </trkpt>
      <trkpt lat="45.83679" lon="4.73301">
        <ele>284.36083</ele>
        <time>2022-06-18T07:35:51.000Z</time>
      </trkpt>
      <trkpt lat="45.83683" lon="4.73293">
        <ele>284.16376</ele>
        <time>2022-06-18T07:35:52.000Z</time>
      </trkpt>
      <trkpt lat="45.83687" lon="4.73284">
        <ele>283.86042</ele>
        <time>2022-06-18T07:35:53.000Z</time>
      </trkpt>
      <trkpt lat="45.8369" lon="4.73276">
        <ele>283.57136</ele>
        <time>2022-06-18T07:35:54.000Z</time>
      </trkpt>
      <trkpt lat="45.83695" lon="4.73271">
        <ele>283.28791</ele>
        <time>2022-06-18T07:35:55.000Z</time>
      </trkpt>
      <trkpt lat="45.837" lon="4.73266">
        <ele>282.98867</ele>
        <time>2022-06-18T07:35:56.000Z</time>
      </trkpt>
      <trkpt lat="45.83705" lon="4.73264">
        <ele>282.80681</ele>
        <time>2022-06-18T07:35:57.000Z</time>
      </trkpt>
      <trkpt lat="45.83711" lon="4.73257">
        <ele>282.45991</ele>
        <time>2022-06-18T07:35:58.000Z</time>
      </trkpt>
      <trkpt lat="45.83717" lon="4.7325">
        <ele>282.11597</ele>
        <time>2022-06-18T07:35:59.000Z</time>
      </trkpt>
      <trkpt lat="45.83722" lon="4.73245">
        <ele>281.84373</ele>
        <time>2022-06-18T07:36:00.000Z</time>
      </trkpt>
      <trkpt lat="45.83726" lon="4.7324">
        <ele>281.58673</ele>
        <time>2022-06-18T07:36:01.000Z</time>
      </trkpt>
      <trkpt lat="45.8373" lon="4.73233">
        <ele>281.31207</ele>
        <time>2022-06-18T07:36:02.000Z</time>
      </trkpt>
      <trkpt lat="45.83735" lon="4.73223">
        <ele>281.00624</ele>
        <time>2022-06-18T07:36:03.000Z</time>
      </trkpt>
      <trkpt lat="45.8374" lon="4.73219">
        <ele>280.85982</ele>
        <time>2022-06-18T07:36:04.000Z</time>
      </trkpt>
      <trkpt lat="45.83746" lon="4.73213">
        <ele>280.73599</ele>
        <time>2022-06-18T07:36:05.000Z</time>
      </trkpt>
      <trkpt lat="45.83751" lon="4.73207">
        <ele>280.69562</ele>
        <time>2022-06-18T07:36:06.000Z</time>
      </trkpt>
      <trkpt lat="45.83756" lon="4.73203">
        <ele>280.69028</ele>
        <time>2022-06-18T07:36:07.000Z</time>
      </trkpt>
      <trkpt lat="45.83761" lon="4.73197">
        <ele>280.69231</ele>
        <time>2022-06-18T07:36:08.000Z</time>
      </trkpt>
      <trkpt lat="45.83766" lon="4.73193">
        <ele>280.66901</ele>
        <time>2022-06-18T07:36:09.000Z</time>
      </trkpt>
      <trkpt lat="45.8377" lon="4.7319">
        <ele>280.62804</ele>
        <time>2022-06-18T07:36:10.000Z</time>
      </trkpt>
      <trkpt lat="45.83773" lon="4.73187">
        <ele>280.58641</ele>
        <time>2022-06-18T07:36:11.000Z</time>
      </trkpt>
      <trkpt lat="45.83776" lon="4.73184">
        <ele>280.52097</ele>
        <time>2022-06-18T07:36:12.000Z</time>
      </trkpt>
      <trkpt lat="45.83776" lon="4.7318">
        <ele>280.42511</ele>
        <time>2022-06-18T07:36:13.000Z</time>
      </trkpt>
      <trkpt lat="45.83775" lon="4.73175">
        <ele>280.27406</ele>
        <time>2022-06-18T07:36:14.000Z</time>
      </trkpt>
      <trkpt lat="45.83774" lon="4.7317">
        <ele>280.07989</ele>
        <time>2022-06-18T07:36:15.000Z</time>
      </trkpt>
      <trkpt lat="45.83774" lon="4.73166">
        <ele>279.8859</ele>
        <time>2022-06-18T07:36:16.000Z</time>
      </trkpt>
      <trkpt lat="45.83773" lon="4.73161">
        <ele>279.64368</ele>
        <time>2022-06-18T07:36:17.000Z</time>
      </trkpt>
      <trkpt lat="45.83772" lon="4.73157">
        <ele>279.39716</ele>
        <time>2022-06-18T07:36:18.000Z</time>
      </trkpt>
      <trkpt lat="45.83771" lon="4.73154">
        <ele>279.17973</ele>
        <time>2022-06-18T07:36:19.000Z</time>
      </trkpt>
      <trkpt lat="45.8377" lon="4.73152">
        <ele>279.0044</ele>
        <time>2022-06-18T07:36:21.000Z</time>
      </trkpt>
      <trkpt lat="45.83768" lon="4.73152">
        <ele>279.00926</ele>
        <time>2022-06-18T07:36:23.000Z</time>
      </trkpt>
      <trkpt lat="45.83767" lon="4.7315">
        <ele>278.79209</ele>
        <time>2022-06-18T07:36:27.000Z</time>
      </trkpt>
      <trkpt lat="45.83769" lon="4.73149">
        <ele>278.75021</ele>
        <time>2022-06-18T07:36:44.000Z</time>
      </trkpt>
      <trkpt lat="45.83766" lon="4.73144">
        <ele>278.30363</ele>
        <time>2022-06-18T07:37:22.000Z</time>
      </trkpt>
      <trkpt lat="45.83761" lon="4.73138">
        <ele>277.74857</ele>
        <time>2022-06-18T07:37:23.000Z</time>
      </trkpt>
      <trkpt lat="45.83753" lon="4.73129">
        <ele>276.61021</ele>
        <time>2022-06-18T07:37:24.000Z</time>
      </trkpt>
      <trkpt lat="45.83751" lon="4.73117">
        <ele>274.99781</ele>
        <time>2022-06-18T07:37:25.000Z</time>
      </trkpt>
      <trkpt lat="45.83746" lon="4.73112">
        <ele>273.98059</ele>
        <time>2022-06-18T07:37:26.000Z</time>
      </trkpt>
      <trkpt lat="45.83743" lon="4.73103">
        <ele>272.48362</ele>
        <time>2022-06-18T07:37:27.000Z</time>
      </trkpt>
      <trkpt lat="45.83744" lon="4.73092">
        <ele>271.03409</ele>
        <time>2022-06-18T07:37:28.000Z</time>
      </trkpt>
      <trkpt lat="45.83744" lon="4.73081">
        <ele>269.60315</ele>
        <time>2022-06-18T07:37:29.000Z</time>
      </trkpt>
      <trkpt lat="45.83743" lon="4.7307">
        <ele>268.33441</ele>
        <time>2022-06-18T07:37:30.000Z</time>
      </trkpt>
      <trkpt lat="45.83743" lon="4.73062">
        <ele>267.51565</ele>
        <time>2022-06-18T07:37:31.000Z</time>
      </trkpt>
      <trkpt lat="45.83742" lon="4.73056">
        <ele>267.07845</ele>
        <time>2022-06-18T07:37:32.000Z</time>
      </trkpt>
      <trkpt lat="45.83741" lon="4.73053">
        <ele>266.81363</ele>
        <time>2022-06-18T07:37:33.000Z</time>
      </trkpt>
      <trkpt lat="45.83741" lon="4.73047">
        <ele>266.53158</ele>
        <time>2022-06-18T07:37:34.000Z</time>
      </trkpt>
      <trkpt lat="45.83739" lon="4.73046">
        <ele>266.41193</ele>
        <time>2022-06-18T07:37:38.000Z</time>
      </trkpt>
      <trkpt lat="45.83741" lon="4.73046">
        <ele>266.452</ele>
        <time>2022-06-18T07:37:39.000Z</time>
      </trkpt>
      <trkpt lat="45.83741" lon="4.73042">
        <ele>266.2682</ele>
        <time>2022-06-18T07:37:40.000Z</time>
      </trkpt>
      <trkpt lat="45.83741" lon="4.73039">
        <ele>266.14798</ele>
        <time>2022-06-18T07:37:43.000Z</time>
      </trkpt>
      <trkpt lat="45.83742" lon="4.73037">
        <ele>266.06418</ele>
        <time>2022-06-18T07:37:47.000Z</time>
      </trkpt>
      <trkpt lat="45.83743" lon="4.73034">
        <ele>265.95345</ele>
        <time>2022-06-18T07:37:56.000Z</time>
      </trkpt>
      <trkpt lat="45.8374" lon="4.73034">
        <ele>265.9128</ele>
        <time>2022-06-18T07:37:58.000Z</time>
      </trkpt>
      <trkpt lat="45.83736" lon="4.73033">
        <ele>265.86164</ele>
        <time>2022-06-18T07:38:00.000Z</time>
      </trkpt>
      <trkpt lat="45.83734" lon="4.73032">
        <ele>265.85892</ele>
        <time>2022-06-18T07:38:01.000Z</time>
      </trkpt>
      <trkpt lat="45.83731" lon="4.73032">
        <ele>265.8932</ele>
        <time>2022-06-18T07:38:02.000Z</time>
      </trkpt>
      <trkpt lat="45.83728" lon="4.73031">
        <ele>265.96878</ele>
        <time>2022-06-18T07:38:03.000Z</time>
      </trkpt>
      <trkpt lat="45.83725" lon="4.73032">
        <ele>266.07191</ele>
        <time>2022-06-18T07:38:04.000Z</time>
      </trkpt>
      <trkpt lat="45.83722" lon="4.73032">
        <ele>266.2097</ele>
        <time>2022-06-18T07:38:05.000Z</time>
      </trkpt>
      <trkpt lat="45.83718" lon="4.73032">
        <ele>266.40099</ele>
        <time>2022-06-18T07:38:06.000Z</time>
      </trkpt>
      <trkpt lat="45.83715" lon="4.73032">
        <ele>266.63716</ele>
        <time>2022-06-18T07:38:07.000Z</time>
      </trkpt>
      <trkpt lat="45.83711" lon="4.73031">
        <ele>266.93663</ele>
        <time>2022-06-18T07:38:08.000Z</time>
      </trkpt>
      <trkpt lat="45.83706" lon="4.73031">
        <ele>267.29786</ele>
        <time>2022-06-18T07:38:09.000Z</time>
      </trkpt>
      <trkpt lat="45.83702" lon="4.7303">
        <ele>267.68839</ele>
        <time>2022-06-18T07:38:10.000Z</time>
      </trkpt>
      <trkpt lat="45.83698" lon="4.73031">
        <ele>268.13313</ele>
        <time>2022-06-18T07:38:11.000Z</time>
      </trkpt>
      <trkpt lat="45.83694" lon="4.73031">
        <ele>268.6225</ele>
        <time>2022-06-18T07:38:12.000Z</time>
      </trkpt>
      <trkpt lat="45.83691" lon="4.73031">
        <ele>269.03832</ele>
        <time>2022-06-18T07:38:13.000Z</time>
      </trkpt>
      <trkpt lat="45.83688" lon="4.73032">
        <ele>269.41133</ele>
        <time>2022-06-18T07:38:14.000Z</time>
      </trkpt>
      <trkpt lat="45.83684" lon="4.73032">
        <ele>269.86942</ele>
        <time>2022-06-18T07:38:15.000Z</time>
      </trkpt>
      <trkpt lat="45.8368" lon="4.73032">
        <ele>270.38513</ele>
        <time>2022-06-18T07:38:16.000Z</time>
      </trkpt>
      <trkpt lat="45.83677" lon="4.73032">
        <ele>270.86316</ele>
        <time>2022-06-18T07:38:17.000Z</time>
      </trkpt>
      <trkpt lat="45.83674" lon="4.73032">
        <ele>271.31586</ele>
        <time>2022-06-18T07:38:18.000Z</time>
      </trkpt>
      <trkpt lat="45.8367" lon="4.73032">
        <ele>271.77567</ele>
        <time>2022-06-18T07:38:19.000Z</time>
      </trkpt>
      <trkpt lat="45.83667" lon="4.73033">
        <ele>272.19822</ele>
        <time>2022-06-18T07:38:20.000Z</time>
      </trkpt>
      <trkpt lat="45.83665" lon="4.73034">
        <ele>272.53267</ele>
        <time>2022-06-18T07:38:21.000Z</time>
      </trkpt>
      <trkpt lat="45.83663" lon="4.73034">
        <ele>272.80974</ele>
        <time>2022-06-18T07:38:22.000Z</time>
      </trkpt>
      <trkpt lat="45.8366" lon="4.73035">
        <ele>273.13603</ele>
        <time>2022-06-18T07:38:23.000Z</time>
      </trkpt>
      <trkpt lat="45.83658" lon="4.73036">
        <ele>273.45323</ele>
        <time>2022-06-18T07:38:24.000Z</time>
      </trkpt>
      <trkpt lat="45.83656" lon="4.73037">
        <ele>273.68962</ele>
        <time>2022-06-18T07:38:25.000Z</time>
      </trkpt>
      <trkpt lat="45.83652" lon="4.73038">
        <ele>274.17922</ele>
        <time>2022-06-18T07:38:27.000Z</time>
      </trkpt>
      <trkpt lat="45.8365" lon="4.73038">
        <ele>274.48346</ele>
        <time>2022-06-18T07:38:28.000Z</time>
      </trkpt>
      <trkpt lat="45.83648" lon="4.73038">
        <ele>274.7861</ele>
        <time>2022-06-18T07:38:29.000Z</time>
      </trkpt>
      <trkpt lat="45.83646" lon="4.73039">
        <ele>275.10598</ele>
        <time>2022-06-18T07:38:30.000Z</time>
      </trkpt>
      <trkpt lat="45.83643" lon="4.7304">
        <ele>275.45182</ele>
        <time>2022-06-18T07:38:31.000Z</time>
      </trkpt>
      <trkpt lat="45.8364" lon="4.73042">
        <ele>275.81627</ele>
        <time>2022-06-18T07:38:32.000Z</time>
      </trkpt>
      <trkpt lat="45.83637" lon="4.73044">
        <ele>276.20687</ele>
        <time>2022-06-18T07:38:33.000Z</time>
      </trkpt>
      <trkpt lat="45.83633" lon="4.73046">
        <ele>276.60341</ele>
        <time>2022-06-18T07:38:34.000Z</time>
      </trkpt>
      <trkpt lat="45.8363" lon="4.73047">
        <ele>276.9727</ele>
        <time>2022-06-18T07:38:35.000Z</time>
      </trkpt>
      <trkpt lat="45.83626" lon="4.73049">
        <ele>277.34993</ele>
        <time>2022-06-18T07:38:36.000Z</time>
      </trkpt>
      <trkpt lat="45.83623" lon="4.7305">
        <ele>277.66748</ele>
        <time>2022-06-18T07:38:37.000Z</time>
      </trkpt>
      <trkpt lat="45.83621" lon="4.7305">
        <ele>277.95178</ele>
        <time>2022-06-18T07:38:38.000Z</time>
      </trkpt>
      <trkpt lat="45.83618" lon="4.73051">
        <ele>278.23255</ele>
        <time>2022-06-18T07:38:39.000Z</time>
      </trkpt>
      <trkpt lat="45.83615" lon="4.73052">
        <ele>278.47994</ele>
        <time>2022-06-18T07:38:40.000Z</time>
      </trkpt>
      <trkpt lat="45.83613" lon="4.73054">
        <ele>278.69706</ele>
        <time>2022-06-18T07:38:41.000Z</time>
      </trkpt>
      <trkpt lat="45.8361" lon="4.73055">
        <ele>278.98474</ele>
        <time>2022-06-18T07:38:42.000Z</time>
      </trkpt>
      <trkpt lat="45.83606" lon="4.73057">
        <ele>279.2956</ele>
        <time>2022-06-18T07:38:43.000Z</time>
      </trkpt>
      <trkpt lat="45.83602" lon="4.73058">
        <ele>279.59498</ele>
        <time>2022-06-18T07:38:44.000Z</time>
      </trkpt>
      <trkpt lat="45.83598" lon="4.73058">
        <ele>279.86133</ele>
        <time>2022-06-18T07:38:45.000Z</time>
      </trkpt>
      <trkpt lat="45.83594" lon="4.73059">
        <ele>280.06987</ele>
        <time>2022-06-18T07:38:46.000Z</time>
      </trkpt>
      <trkpt lat="45.83591" lon="4.73059">
        <ele>280.2531</ele>
        <time>2022-06-18T07:38:47.000Z</time>
      </trkpt>
      <trkpt lat="45.83587" lon="4.73059">
        <ele>280.40595</ele>
        <time>2022-06-18T07:38:48.000Z</time>
      </trkpt>
      <trkpt lat="45.83583" lon="4.7306">
        <ele>280.53735</ele>
        <time>2022-06-18T07:38:49.000Z</time>
      </trkpt>
      <trkpt lat="45.83579" lon="4.73061">
        <ele>280.65296</ele>
        <time>2022-06-18T07:38:50.000Z</time>
      </trkpt>
      <trkpt lat="45.83574" lon="4.73063">
        <ele>280.73263</ele>
        <time>2022-06-18T07:38:51.000Z</time>
      </trkpt>
      <trkpt lat="45.83569" lon="4.73064">
        <ele>280.77236</ele>
        <time>2022-06-18T07:38:52.000Z</time>
      </trkpt>
      <trkpt lat="45.83559" lon="4.73065">
        <ele>280.60129</ele>
        <time>2022-06-18T07:38:53.000Z</time>
      </trkpt>
      <trkpt lat="45.83552" lon="4.73063">
        <ele>280.29942</ele>
        <time>2022-06-18T07:38:54.000Z</time>
      </trkpt>
      <trkpt lat="45.83544" lon="4.73062">
        <ele>279.79594</ele>
        <time>2022-06-18T07:38:55.000Z</time>
      </trkpt>
      <trkpt lat="45.83532" lon="4.73062">
        <ele>278.96455</ele>
        <time>2022-06-18T07:38:56.000Z</time>
      </trkpt>
      <trkpt lat="45.83523" lon="4.73058">
        <ele>278.09555</ele>
        <time>2022-06-18T07:38:57.000Z</time>
      </trkpt>
      <trkpt lat="45.83513" lon="4.73057">
        <ele>277.48828</ele>
        <time>2022-06-18T07:38:58.000Z</time>
      </trkpt>
      <trkpt lat="45.83507" lon="4.73051">
        <ele>276.79797</ele>
        <time>2022-06-18T07:38:59.000Z</time>
      </trkpt>
      <trkpt lat="45.83498" lon="4.73049">
        <ele>276.56677</ele>
        <time>2022-06-18T07:39:00.000Z</time>
      </trkpt>
      <trkpt lat="45.83491" lon="4.7304">
        <ele>276.28923</ele>
        <time>2022-06-18T07:39:01.000Z</time>
      </trkpt>
      <trkpt lat="45.83489" lon="4.73037">
        <ele>276.21236</ele>
        <time>2022-06-18T07:39:02.000Z</time>
      </trkpt>
      <trkpt lat="45.83486" lon="4.73028">
        <ele>276.17567</ele>
        <time>2022-06-18T07:39:03.000Z</time>
      </trkpt>
      <trkpt lat="45.83483" lon="4.73019">
        <ele>276.01305</ele>
        <time>2022-06-18T07:39:04.000Z</time>
      </trkpt>
      <trkpt lat="45.83478" lon="4.73006">
        <ele>275.88423</ele>
        <time>2022-06-18T07:39:06.000Z</time>
      </trkpt>
      <trkpt lat="45.83474" lon="4.72998">
        <ele>275.86239</ele>
        <time>2022-06-18T07:39:07.000Z</time>
      </trkpt>
      <trkpt lat="45.83473" lon="4.72996">
        <ele>275.88405</ele>
        <time>2022-06-18T07:39:08.000Z</time>
      </trkpt>
      <trkpt lat="45.83472" lon="4.72991">
        <ele>275.76859</ele>
        <time>2022-06-18T07:39:09.000Z</time>
      </trkpt>
      <trkpt lat="45.83469" lon="4.72986">
        <ele>275.92149</ele>
        <time>2022-06-18T07:39:10.000Z</time>
      </trkpt>
      <trkpt lat="45.83466" lon="4.72979">
        <ele>275.86379</ele>
        <time>2022-06-18T07:39:11.000Z</time>
      </trkpt>
      <trkpt lat="45.83463" lon="4.72971">
        <ele>275.75602</ele>
        <time>2022-06-18T07:39:12.000Z</time>
      </trkpt>
      <trkpt lat="45.83459" lon="4.72962">
        <ele>275.57555</ele>
        <time>2022-06-18T07:39:13.000Z</time>
      </trkpt>
      <trkpt lat="45.83454" lon="4.72954">
        <ele>275.37432</ele>
        <time>2022-06-18T07:39:14.000Z</time>
      </trkpt>
      <trkpt lat="45.83452" lon="4.72949">
        <ele>275.15142</ele>
        <time>2022-06-18T07:39:15.000Z</time>
      </trkpt>
      <trkpt lat="45.83452" lon="4.72942">
        <ele>274.51644</ele>
        <time>2022-06-18T07:39:16.000Z</time>
      </trkpt>
      <trkpt lat="45.8345" lon="4.72935">
        <ele>274.04312</ele>
        <time>2022-06-18T07:39:17.000Z</time>
      </trkpt>
      <trkpt lat="45.83446" lon="4.7293">
        <ele>273.63724</ele>
        <time>2022-06-18T07:39:18.000Z</time>
      </trkpt>
      <trkpt lat="45.83443" lon="4.72922">
        <ele>272.8857</ele>
        <time>2022-06-18T07:39:19.000Z</time>
      </trkpt>
      <trkpt lat="45.83439" lon="4.72904">
        <ele>270.71003</ele>
        <time>2022-06-18T07:39:20.000Z</time>
      </trkpt>
      <trkpt lat="45.83438" lon="4.72891">
        <ele>269.36816</ele>
        <time>2022-06-18T07:39:21.000Z</time>
      </trkpt>
      <trkpt lat="45.83437" lon="4.72882">
        <ele>268.59208</ele>
        <time>2022-06-18T07:39:22.000Z</time>
      </trkpt>
      <trkpt lat="45.83435" lon="4.72871">
        <ele>267.89252</ele>
        <time>2022-06-18T07:39:23.000Z</time>
      </trkpt>
      <trkpt lat="45.83431" lon="4.72865">
        <ele>267.78217</ele>
        <time>2022-06-18T07:39:24.000Z</time>
      </trkpt>
      <trkpt lat="45.8343" lon="4.72857">
        <ele>267.56837</ele>
        <time>2022-06-18T07:39:25.000Z</time>
      </trkpt>
      <trkpt lat="45.8343" lon="4.72846">
        <ele>267.33616</ele>
        <time>2022-06-18T07:39:26.000Z</time>
      </trkpt>
      <trkpt lat="45.83428" lon="4.72839">
        <ele>267.44365</ele>
        <time>2022-06-18T07:39:27.000Z</time>
      </trkpt>
      <trkpt lat="45.83427" lon="4.72827">
        <ele>267.68768</ele>
        <time>2022-06-18T07:39:28.000Z</time>
      </trkpt>
      <trkpt lat="45.83427" lon="4.72821">
        <ele>267.87804</ele>
        <time>2022-06-18T07:39:29.000Z</time>
      </trkpt>
      <trkpt lat="45.83426" lon="4.72816">
        <ele>268.04834</ele>
        <time>2022-06-18T07:39:30.000Z</time>
      </trkpt>
      <trkpt lat="45.83427" lon="4.72808">
        <ele>268.34314</ele>
        <time>2022-06-18T07:39:31.000Z</time>
      </trkpt>
      <trkpt lat="45.83427" lon="4.72799">
        <ele>268.7209</ele>
        <time>2022-06-18T07:39:32.000Z</time>
      </trkpt>
      <trkpt lat="45.83426" lon="4.72793">
        <ele>269.03137</ele>
        <time>2022-06-18T07:39:33.000Z</time>
      </trkpt>
      <trkpt lat="45.83429" lon="4.72781">
        <ele>269.38684</ele>
        <time>2022-06-18T07:39:34.000Z</time>
      </trkpt>
      <trkpt lat="45.83431" lon="4.72774">
        <ele>269.66208</ele>
        <time>2022-06-18T07:39:35.000Z</time>
      </trkpt>
      <trkpt lat="45.83431" lon="4.72764">
        <ele>270.42372</ele>
        <time>2022-06-18T07:39:36.000Z</time>
      </trkpt>
      <trkpt lat="45.83432" lon="4.7276">
        <ele>270.78762</ele>
        <time>2022-06-18T07:39:37.000Z</time>
      </trkpt>
      <trkpt lat="45.83436" lon="4.72755">
        <ele>271.0841</ele>
        <time>2022-06-18T07:39:38.000Z</time>
      </trkpt>
      <trkpt lat="45.83444" lon="4.72759">
        <ele>270.18951</ele>
        <time>2022-06-18T07:39:39.000Z</time>
      </trkpt>
      <trkpt lat="45.83447" lon="4.72759">
        <ele>270.03507</ele>
        <time>2022-06-18T07:39:40.000Z</time>
      </trkpt>
      <trkpt lat="45.83449" lon="4.7276">
        <ele>269.69922</ele>
        <time>2022-06-18T07:39:41.000Z</time>
      </trkpt>
      <trkpt lat="45.83451" lon="4.72758">
        <ele>269.77887</ele>
        <time>2022-06-18T07:39:42.000Z</time>
      </trkpt>
      <trkpt lat="45.83455" lon="4.72759">
        <ele>269.38747</ele>
        <time>2022-06-18T07:39:43.000Z</time>
      </trkpt>
      <trkpt lat="45.83455" lon="4.72759">
        <ele>269.38747</ele>
        <time>2022-06-18T07:39:43.000Z</time>
      </trkpt>
      <trkpt lat="45.83458" lon="4.72757">
        <ele>269.42527</ele>
        <time>2022-06-18T07:39:44.000Z</time>
      </trkpt>
      <trkpt lat="45.83464" lon="4.72757">
        <ele>269.08426</ele>
        <time>2022-06-18T07:39:45.000Z</time>
      </trkpt>
      <trkpt lat="45.83469" lon="4.72758">
        <ele>268.60467</ele>
        <time>2022-06-18T07:39:46.000Z</time>
      </trkpt>
      <trkpt lat="45.83473" lon="4.72756">
        <ele>268.58438</ele>
        <time>2022-06-18T07:39:47.000Z</time>
      </trkpt>
      <trkpt lat="45.83478" lon="4.72755">
        <ele>268.55498</ele>
        <time>2022-06-18T07:39:48.000Z</time>
      </trkpt>
      <trkpt lat="45.83482" lon="4.72753">
        <ele>268.6722</ele>
        <time>2022-06-18T07:39:49.000Z</time>
      </trkpt>
      <trkpt lat="45.83486" lon="4.7275">
        <ele>268.8624</ele>
        <time>2022-06-18T07:39:50.000Z</time>
      </trkpt>
      <trkpt lat="45.83492" lon="4.72747">
        <ele>269.1017</ele>
        <time>2022-06-18T07:39:51.000Z</time>
      </trkpt>
      <trkpt lat="45.83496" lon="4.72745">
        <ele>269.28348</ele>
        <time>2022-06-18T07:39:52.000Z</time>
      </trkpt>
      <trkpt lat="45.83503" lon="4.72746">
        <ele>268.70778</ele>
        <time>2022-06-18T07:39:53.000Z</time>
      </trkpt>
      <trkpt lat="45.83507" lon="4.72745">
        <ele>268.56554</ele>
        <time>2022-06-18T07:39:54.000Z</time>
      </trkpt>
      <trkpt lat="45.83512" lon="4.72745">
        <ele>268.2893</ele>
        <time>2022-06-18T07:39:55.000Z</time>
      </trkpt>
      <trkpt lat="45.83516" lon="4.72746">
        <ele>267.81129</ele>
        <time>2022-06-18T07:39:56.000Z</time>
      </trkpt>
      <trkpt lat="45.83521" lon="4.72742">
        <ele>268.19457</ele>
        <time>2022-06-18T07:39:57.000Z</time>
      </trkpt>
      <trkpt lat="45.83526" lon="4.7274">
        <ele>268.29215</ele>
        <time>2022-06-18T07:39:58.000Z</time>
      </trkpt>
      <trkpt lat="45.83554" lon="4.72732">
        <ele>267.17657</ele>
        <time>2022-06-18T07:40:04.000Z</time>
      </trkpt>
      <trkpt lat="45.83562" lon="4.72733">
        <ele>266.19576</ele>
        <time>2022-06-18T07:40:05.000Z</time>
      </trkpt>
      <trkpt lat="45.83567" lon="4.72728">
        <ele>266.46179</ele>
        <time>2022-06-18T07:40:06.000Z</time>
      </trkpt>
      <trkpt lat="45.83573" lon="4.72721">
        <ele>267.06678</ele>
        <time>2022-06-18T07:40:07.000Z</time>
      </trkpt>
      <trkpt lat="45.83579" lon="4.7272">
        <ele>266.60048</ele>
        <time>2022-06-18T07:40:08.000Z</time>
      </trkpt>
      <trkpt lat="45.83584" lon="4.72719">
        <ele>266.07779</ele>
        <time>2022-06-18T07:40:09.000Z</time>
      </trkpt>
      <trkpt lat="45.83587" lon="4.72714">
        <ele>266.52502</ele>
        <time>2022-06-18T07:40:10.000Z</time>
      </trkpt>
      <trkpt lat="45.83591" lon="4.7271">
        <ele>266.50588</ele>
        <time>2022-06-18T07:40:11.000Z</time>
      </trkpt>
      <trkpt lat="45.83595" lon="4.72708">
        <ele>266.18462</ele>
        <time>2022-06-18T07:40:12.000Z</time>
      </trkpt>
      <trkpt lat="45.836" lon="4.72705">
        <ele>265.84638</ele>
        <time>2022-06-18T07:40:13.000Z</time>
      </trkpt>
      <trkpt lat="45.83605" lon="4.72701">
        <ele>265.61548</ele>
        <time>2022-06-18T07:40:14.000Z</time>
      </trkpt>
      <trkpt lat="45.8361" lon="4.72694">
        <ele>265.50417</ele>
        <time>2022-06-18T07:40:15.000Z</time>
      </trkpt>
      <trkpt lat="45.83616" lon="4.72688">
        <ele>265.30093</ele>
        <time>2022-06-18T07:40:16.000Z</time>
      </trkpt>
      <trkpt lat="45.83621" lon="4.72682">
        <ele>265.07542</ele>
        <time>2022-06-18T07:40:17.000Z</time>
      </trkpt>
      <trkpt lat="45.83628" lon="4.72675">
        <ele>264.5723</ele>
        <time>2022-06-18T07:40:18.000Z</time>
      </trkpt>
      <trkpt lat="45.83635" lon="4.72674">
        <ele>263.86885</ele>
        <time>2022-06-18T07:40:19.000Z</time>
      </trkpt>
      <trkpt lat="45.83643" lon="4.7267">
        <ele>263.16061</ele>
        <time>2022-06-18T07:40:20.000Z</time>
      </trkpt>
      <trkpt lat="45.83649" lon="4.72666">
        <ele>262.67567</ele>
        <time>2022-06-18T07:40:21.000Z</time>
      </trkpt>
      <trkpt lat="45.83658" lon="4.72662">
        <ele>262.13912</ele>
        <time>2022-06-18T07:40:22.000Z</time>
      </trkpt>
      <trkpt lat="45.83668" lon="4.72659">
        <ele>261.51907</ele>
        <time>2022-06-18T07:40:23.000Z</time>
      </trkpt>
      <trkpt lat="45.83678" lon="4.72657">
        <ele>260.98341</ele>
        <time>2022-06-18T07:40:24.000Z</time>
      </trkpt>
      <trkpt lat="45.83687" lon="4.72656">
        <ele>260.5013</ele>
        <time>2022-06-18T07:40:25.000Z</time>
      </trkpt>
      <trkpt lat="45.83696" lon="4.72654">
        <ele>259.87186</ele>
        <time>2022-06-18T07:40:26.000Z</time>
      </trkpt>
      <trkpt lat="45.83704" lon="4.72651">
        <ele>259.28394</ele>
        <time>2022-06-18T07:40:27.000Z</time>
      </trkpt>
      <trkpt lat="45.83711" lon="4.72645">
        <ele>258.67439</ele>
        <time>2022-06-18T07:40:28.000Z</time>
      </trkpt>
      <trkpt lat="45.83718" lon="4.7264">
        <ele>258.26925</ele>
        <time>2022-06-18T07:40:29.000Z</time>
      </trkpt>
      <trkpt lat="45.83725" lon="4.72636">
        <ele>257.88461</ele>
        <time>2022-06-18T07:40:30.000Z</time>
      </trkpt>
      <trkpt lat="45.83735" lon="4.72633">
        <ele>257.37156</ele>
        <time>2022-06-18T07:40:31.000Z</time>
      </trkpt>
      <trkpt lat="45.83743" lon="4.7263">
        <ele>256.9181</ele>
        <time>2022-06-18T07:40:32.000Z</time>
      </trkpt>
      <trkpt lat="45.83751" lon="4.72626">
        <ele>256.38461</ele>
        <time>2022-06-18T07:40:33.000Z</time>
      </trkpt>
      <trkpt lat="45.83758" lon="4.72625">
        <ele>256.04301</ele>
        <time>2022-06-18T07:40:34.000Z</time>
      </trkpt>
      <trkpt lat="45.83766" lon="4.72624">
        <ele>255.71191</ele>
        <time>2022-06-18T07:40:35.000Z</time>
      </trkpt>
      <trkpt lat="45.83773" lon="4.72623">
        <ele>255.38188</ele>
        <time>2022-06-18T07:40:36.000Z</time>
      </trkpt>
      <trkpt lat="45.83781" lon="4.72618">
        <ele>254.95721</ele>
        <time>2022-06-18T07:40:37.000Z</time>
      </trkpt>
      <trkpt lat="45.83788" lon="4.72616">
        <ele>254.59959</ele>
        <time>2022-06-18T07:40:38.000Z</time>
      </trkpt>
      <trkpt lat="45.83795" lon="4.72614">
        <ele>254.21918</ele>
        <time>2022-06-18T07:40:39.000Z</time>
      </trkpt>
      <trkpt lat="45.83802" lon="4.72611">
        <ele>253.81873</ele>
        <time>2022-06-18T07:40:40.000Z</time>
      </trkpt>
      <trkpt lat="45.83808" lon="4.72608">
        <ele>253.50471</ele>
        <time>2022-06-18T07:40:41.000Z</time>
      </trkpt>
      <trkpt lat="45.83813" lon="4.72602">
        <ele>253.16696</ele>
        <time>2022-06-18T07:40:42.000Z</time>
      </trkpt>
      <trkpt lat="45.83817" lon="4.72596">
        <ele>252.87095</ele>
        <time>2022-06-18T07:40:43.000Z</time>
      </trkpt>
      <trkpt lat="45.83819" lon="4.7259">
        <ele>252.71277</ele>
        <time>2022-06-18T07:40:44.000Z</time>
      </trkpt>
      <trkpt lat="45.83822" lon="4.72584">
        <ele>252.5938</ele>
        <time>2022-06-18T07:40:45.000Z</time>
      </trkpt>
      <trkpt lat="45.83824" lon="4.72577">
        <ele>252.51241</ele>
        <time>2022-06-18T07:40:46.000Z</time>
      </trkpt>
      <trkpt lat="45.83828" lon="4.72568">
        <ele>252.47514</ele>
        <time>2022-06-18T07:40:47.000Z</time>
      </trkpt>
      <trkpt lat="45.83829" lon="4.72564">
        <ele>252.51449</ele>
        <time>2022-06-18T07:40:48.000Z</time>
      </trkpt>
      <trkpt lat="45.83831" lon="4.72558">
        <ele>252.5532</ele>
        <time>2022-06-18T07:40:49.000Z</time>
      </trkpt>
      <trkpt lat="45.83833" lon="4.72552">
        <ele>252.62522</ele>
        <time>2022-06-18T07:40:50.000Z</time>
      </trkpt>
      <trkpt lat="45.83832" lon="4.72545">
        <ele>252.71469</ele>
        <time>2022-06-18T07:40:51.000Z</time>
      </trkpt>
      <trkpt lat="45.83833" lon="4.72536">
        <ele>252.80967</ele>
        <time>2022-06-18T07:40:52.000Z</time>
      </trkpt>
      <trkpt lat="45.83834" lon="4.72528">
        <ele>252.93462</ele>
        <time>2022-06-18T07:40:53.000Z</time>
      </trkpt>
      <trkpt lat="45.83835" lon="4.72519">
        <ele>253.13671</ele>
        <time>2022-06-18T07:40:54.000Z</time>
      </trkpt>
      <trkpt lat="45.83834" lon="4.72513">
        <ele>253.31289</ele>
        <time>2022-06-18T07:40:55.000Z</time>
      </trkpt>
      <trkpt lat="45.83834" lon="4.72508">
        <ele>253.48916</ele>
        <time>2022-06-18T07:40:56.000Z</time>
      </trkpt>
      <trkpt lat="45.83835" lon="4.72503">
        <ele>253.68594</ele>
        <time>2022-06-18T07:40:57.000Z</time>
      </trkpt>
      <trkpt lat="45.83836" lon="4.72496">
        <ele>253.9565</ele>
        <time>2022-06-18T07:40:58.000Z</time>
      </trkpt>
      <trkpt lat="45.83836" lon="4.72487">
        <ele>254.27845</ele>
        <time>2022-06-18T07:40:59.000Z</time>
      </trkpt>
      <trkpt lat="45.83835" lon="4.72483">
        <ele>254.48538</ele>
        <time>2022-06-18T07:41:00.000Z</time>
      </trkpt>
      <trkpt lat="45.83833" lon="4.72479">
        <ele>254.67814</ele>
        <time>2022-06-18T07:41:01.000Z</time>
      </trkpt>
      <trkpt lat="45.83833" lon="4.72474">
        <ele>254.9186</ele>
        <time>2022-06-18T07:41:02.000Z</time>
      </trkpt>
      <trkpt lat="45.83833" lon="4.72468">
        <ele>255.14233</ele>
        <time>2022-06-18T07:41:03.000Z</time>
      </trkpt>
      <trkpt lat="45.83834" lon="4.72463">
        <ele>255.29859</ele>
        <time>2022-06-18T07:41:04.000Z</time>
      </trkpt>
      <trkpt lat="45.83834" lon="4.72457">
        <ele>255.55691</ele>
        <time>2022-06-18T07:41:05.000Z</time>
      </trkpt>
      <trkpt lat="45.83835" lon="4.72451">
        <ele>255.69843</ele>
        <time>2022-06-18T07:41:06.000Z</time>
      </trkpt>
      <trkpt lat="45.83837" lon="4.72446">
        <ele>255.8049</ele>
        <time>2022-06-18T07:41:07.000Z</time>
      </trkpt>
      <trkpt lat="45.8384" lon="4.72441">
        <ele>255.87535</ele>
        <time>2022-06-18T07:41:08.000Z</time>
      </trkpt>
      <trkpt lat="45.83843" lon="4.72436">
        <ele>255.87947</ele>
        <time>2022-06-18T07:41:09.000Z</time>
      </trkpt>
      <trkpt lat="45.83846" lon="4.72432">
        <ele>255.89807</ele>
        <time>2022-06-18T07:41:10.000Z</time>
      </trkpt>
      <trkpt lat="45.83851" lon="4.72425">
        <ele>256.00142</ele>
        <time>2022-06-18T07:41:11.000Z</time>
      </trkpt>
      <trkpt lat="45.83855" lon="4.72424">
        <ele>255.95088</ele>
        <time>2022-06-18T07:41:12.000Z</time>
      </trkpt>
      <trkpt lat="45.8386" lon="4.72417">
        <ele>256.2185</ele>
        <time>2022-06-18T07:41:13.000Z</time>
      </trkpt>
      <trkpt lat="45.83865" lon="4.72415">
        <ele>256.31673</ele>
        <time>2022-06-18T07:41:14.000Z</time>
      </trkpt>
      <trkpt lat="45.8387" lon="4.72414">
        <ele>256.43722</ele>
        <time>2022-06-18T07:41:15.000Z</time>
      </trkpt>
      <trkpt lat="45.83876" lon="4.72411">
        <ele>256.76733</ele>
        <time>2022-06-18T07:41:16.000Z</time>
      </trkpt>
      <trkpt lat="45.83879" lon="4.72411">
        <ele>256.97601</ele>
        <time>2022-06-18T07:41:17.000Z</time>
      </trkpt>
      <trkpt lat="45.83881" lon="4.7241">
        <ele>257.16051</ele>
        <time>2022-06-18T07:41:18.000Z</time>
      </trkpt>
      <trkpt lat="45.83882" lon="4.72408">
        <ele>257.39018</ele>
        <time>2022-06-18T07:41:19.000Z</time>
      </trkpt>
      <trkpt lat="45.83886" lon="4.72408">
        <ele>257.69474</ele>
        <time>2022-06-18T07:41:20.000Z</time>
      </trkpt>
      <trkpt lat="45.83889" lon="4.72405">
        <ele>258.03566</ele>
        <time>2022-06-18T07:41:21.000Z</time>
      </trkpt>
      <trkpt lat="45.83893" lon="4.72403">
        <ele>258.39365</ele>
        <time>2022-06-18T07:41:22.000Z</time>
      </trkpt>
      <trkpt lat="45.83897" lon="4.72401">
        <ele>258.72307</ele>
        <time>2022-06-18T07:41:23.000Z</time>
      </trkpt>
      <trkpt lat="45.83901" lon="4.72399">
        <ele>258.98302</ele>
        <time>2022-06-18T07:41:24.000Z</time>
      </trkpt>
      <trkpt lat="45.83905" lon="4.72397">
        <ele>259.23829</ele>
        <time>2022-06-18T07:41:25.000Z</time>
      </trkpt>
      <trkpt lat="45.8391" lon="4.72395">
        <ele>259.50988</ele>
        <time>2022-06-18T07:41:26.000Z</time>
      </trkpt>
      <trkpt lat="45.83915" lon="4.72393">
        <ele>259.77197</ele>
        <time>2022-06-18T07:41:27.000Z</time>
      </trkpt>
      <trkpt lat="45.83919" lon="4.72391">
        <ele>260.10731</ele>
        <time>2022-06-18T07:41:28.000Z</time>
      </trkpt>
      <trkpt lat="45.83928" lon="4.7239">
        <ele>260.56703</ele>
        <time>2022-06-18T07:41:29.000Z</time>
      </trkpt>
      <trkpt lat="45.83932" lon="4.72388">
        <ele>260.87525</ele>
        <time>2022-06-18T07:41:30.000Z</time>
      </trkpt>
      <trkpt lat="45.83935" lon="4.72388">
        <ele>261.03822</ele>
        <time>2022-06-18T07:41:31.000Z</time>
      </trkpt>
      <trkpt lat="45.83938" lon="4.72385">
        <ele>261.44846</ele>
        <time>2022-06-18T07:41:32.000Z</time>
      </trkpt>
      <trkpt lat="45.8394" lon="4.72382">
        <ele>261.89949</ele>
        <time>2022-06-18T07:41:33.000Z</time>
      </trkpt>
      <trkpt lat="45.83941" lon="4.72379">
        <ele>262.31179</ele>
        <time>2022-06-18T07:41:34.000Z</time>
      </trkpt>
      <trkpt lat="45.83944" lon="4.72376">
        <ele>262.68157</ele>
        <time>2022-06-18T07:41:35.000Z</time>
      </trkpt>
      <trkpt lat="45.83949" lon="4.72373">
        <ele>263.09194</ele>
        <time>2022-06-18T07:41:36.000Z</time>
      </trkpt>
      <trkpt lat="45.83953" lon="4.7237">
        <ele>263.39201</ele>
        <time>2022-06-18T07:41:37.000Z</time>
      </trkpt>
      <trkpt lat="45.83955" lon="4.72367">
        <ele>263.64686</ele>
        <time>2022-06-18T07:41:38.000Z</time>
      </trkpt>
      <trkpt lat="45.83953" lon="4.72364">
        <ele>263.8864</ele>
        <time>2022-06-18T07:41:39.000Z</time>
      </trkpt>
      <trkpt lat="45.83957" lon="4.72362">
        <ele>264.10082</ele>
        <time>2022-06-18T07:41:40.000Z</time>
      </trkpt>
      <trkpt lat="45.83961" lon="4.72358">
        <ele>264.44299</ele>
        <time>2022-06-18T07:41:41.000Z</time>
      </trkpt>
      <trkpt lat="45.83965" lon="4.72356">
        <ele>264.8011</ele>
        <time>2022-06-18T07:41:42.000Z</time>
      </trkpt>
      <trkpt lat="45.83968" lon="4.72353">
        <ele>265.19515</ele>
        <time>2022-06-18T07:41:43.000Z</time>
      </trkpt>
      <trkpt lat="45.83972" lon="4.7235">
        <ele>265.62441</ele>
        <time>2022-06-18T07:41:44.000Z</time>
      </trkpt>
      <trkpt lat="45.83976" lon="4.72348">
        <ele>266.05258</ele>
        <time>2022-06-18T07:41:45.000Z</time>
      </trkpt>
      <trkpt lat="45.83979" lon="4.72345">
        <ele>266.36724</ele>
        <time>2022-06-18T07:41:46.000Z</time>
      </trkpt>
      <trkpt lat="45.83981" lon="4.72342">
        <ele>266.59825</ele>
        <time>2022-06-18T07:41:47.000Z</time>
      </trkpt>
      <trkpt lat="45.83984" lon="4.72339">
        <ele>266.83797</ele>
        <time>2022-06-18T07:41:48.000Z</time>
      </trkpt>
      <trkpt lat="45.83987" lon="4.72336">
        <ele>267.01959</ele>
        <time>2022-06-18T07:41:49.000Z</time>
      </trkpt>
      <trkpt lat="45.83991" lon="4.72333">
        <ele>267.11987</ele>
        <time>2022-06-18T07:41:50.000Z</time>
      </trkpt>
      <trkpt lat="45.83994" lon="4.7233">
        <ele>267.22207</ele>
        <time>2022-06-18T07:41:51.000Z</time>
      </trkpt>
      <trkpt lat="45.83996" lon="4.72328">
        <ele>267.32077</ele>
        <time>2022-06-18T07:41:52.000Z</time>
      </trkpt>
      <trkpt lat="45.83998" lon="4.72325">
        <ele>267.42508</ele>
        <time>2022-06-18T07:41:53.000Z</time>
      </trkpt>
      <trkpt lat="45.83999" lon="4.72322">
        <ele>267.5426</ele>
        <time>2022-06-18T07:41:54.000Z</time>
      </trkpt>
      <trkpt lat="45.84002" lon="4.72319">
        <ele>267.63105</ele>
        <time>2022-06-18T07:41:55.000Z</time>
      </trkpt>
      <trkpt lat="45.84004" lon="4.72316">
        <ele>267.69341</ele>
        <time>2022-06-18T07:41:56.000Z</time>
      </trkpt>
      <trkpt lat="45.84005" lon="4.72314">
        <ele>267.76018</ele>
        <time>2022-06-18T07:41:57.000Z</time>
      </trkpt>
      <trkpt lat="45.84007" lon="4.72312">
        <ele>267.8271</ele>
        <time>2022-06-18T07:41:58.000Z</time>
      </trkpt>
      <trkpt lat="45.84008" lon="4.7231">
        <ele>267.86923</ele>
        <time>2022-06-18T07:41:59.000Z</time>
      </trkpt>
      <trkpt lat="45.8401" lon="4.72312">
        <ele>267.76397</ele>
        <time>2022-06-18T07:42:02.000Z</time>
      </trkpt>
      <trkpt lat="45.84012" lon="4.72313">
        <ele>267.67809</ele>
        <time>2022-06-18T07:42:07.000Z</time>
      </trkpt>
      <trkpt lat="45.84014" lon="4.72315">
        <ele>267.52288</ele>
        <time>2022-06-18T07:42:11.000Z</time>
      </trkpt>
      <trkpt lat="45.84016" lon="4.72316">
        <ele>267.39659</ele>
        <time>2022-06-18T07:42:21.000Z</time>
      </trkpt>
      <trkpt lat="45.84016" lon="4.72313">
        <ele>267.55518</ele>
        <time>2022-06-18T07:42:24.000Z</time>
      </trkpt>
      <trkpt lat="45.84015" lon="4.72316">
        <ele>267.42782</ele>
        <time>2022-06-18T07:42:35.000Z</time>
      </trkpt>
      <trkpt lat="45.84015" lon="4.72319">
        <ele>267.24218</ele>
        <time>2022-06-18T07:42:37.000Z</time>
      </trkpt>
      <trkpt lat="45.84015" lon="4.72316">
        <ele>267.42966</ele>
        <time>2022-06-18T07:42:43.000Z</time>
      </trkpt>
      <trkpt lat="45.84012" lon="4.72311">
        <ele>267.77508</ele>
        <time>2022-06-18T07:43:05.000Z</time>
      </trkpt>
      <trkpt lat="45.84008" lon="4.72303">
        <ele>268.22961</ele>
        <time>2022-06-18T07:43:06.000Z</time>
      </trkpt>
      <trkpt lat="45.84005" lon="4.72297">
        <ele>268.57431</ele>
        <time>2022-06-18T07:43:07.000Z</time>
      </trkpt>
      <trkpt lat="45.84002" lon="4.72292">
        <ele>268.83996</ele>
        <time>2022-06-18T07:43:08.000Z</time>
      </trkpt>
      <trkpt lat="45.83998" lon="4.72287">
        <ele>269.00273</ele>
        <time>2022-06-18T07:43:09.000Z</time>
      </trkpt>
      <trkpt lat="45.83995" lon="4.72283">
        <ele>269.07778</ele>
        <time>2022-06-18T07:43:10.000Z</time>
      </trkpt>
      <trkpt lat="45.83993" lon="4.72279">
        <ele>269.1115</ele>
        <time>2022-06-18T07:43:11.000Z</time>
      </trkpt>
      <trkpt lat="45.8399" lon="4.72274">
        <ele>269.11721</ele>
        <time>2022-06-18T07:43:12.000Z</time>
      </trkpt>
      <trkpt lat="45.83988" lon="4.7227">
        <ele>269.13648</ele>
        <time>2022-06-18T07:43:13.000Z</time>
      </trkpt>
      <trkpt lat="45.83985" lon="4.72265">
        <ele>269.1978</ele>
        <time>2022-06-18T07:43:14.000Z</time>
      </trkpt>
      <trkpt lat="45.83984" lon="4.72258">
        <ele>269.35743</ele>
        <time>2022-06-18T07:43:15.000Z</time>
      </trkpt>
      <trkpt lat="45.83982" lon="4.72251">
        <ele>269.53628</ele>
        <time>2022-06-18T07:43:16.000Z</time>
      </trkpt>
      <trkpt lat="45.83981" lon="4.72244">
        <ele>269.67839</ele>
        <time>2022-06-18T07:43:17.000Z</time>
      </trkpt>
      <trkpt lat="45.83978" lon="4.72238">
        <ele>269.75535</ele>
        <time>2022-06-18T07:43:18.000Z</time>
      </trkpt>
      <trkpt lat="45.83975" lon="4.72233">
        <ele>269.76011</ele>
        <time>2022-06-18T07:43:19.000Z</time>
      </trkpt>
      <trkpt lat="45.83972" lon="4.72226">
        <ele>269.7503</ele>
        <time>2022-06-18T07:43:20.000Z</time>
      </trkpt>
      <trkpt lat="45.83969" lon="4.72219">
        <ele>269.78576</ele>
        <time>2022-06-18T07:43:21.000Z</time>
      </trkpt>
      <trkpt lat="45.83966" lon="4.72213">
        <ele>269.79262</ele>
        <time>2022-06-18T07:43:22.000Z</time>
      </trkpt>
      <trkpt lat="45.83963" lon="4.72208">
        <ele>269.77373</ele>
        <time>2022-06-18T07:43:23.000Z</time>
      </trkpt>
      <trkpt lat="45.83961" lon="4.72201">
        <ele>269.76325</ele>
        <time>2022-06-18T07:43:24.000Z</time>
      </trkpt>
      <trkpt lat="45.83958" lon="4.72195">
        <ele>269.72348</ele>
        <time>2022-06-18T07:43:25.000Z</time>
      </trkpt>
      <trkpt lat="45.83956" lon="4.72188">
        <ele>269.71253</ele>
        <time>2022-06-18T07:43:26.000Z</time>
      </trkpt>
      <trkpt lat="45.83953" lon="4.72181">
        <ele>269.6931</ele>
        <time>2022-06-18T07:43:27.000Z</time>
      </trkpt>
      <trkpt lat="45.8395" lon="4.72175">
        <ele>269.69099</ele>
        <time>2022-06-18T07:43:28.000Z</time>
      </trkpt>
      <trkpt lat="45.83945" lon="4.7217">
        <ele>269.67426</ele>
        <time>2022-06-18T07:43:29.000Z</time>
      </trkpt>
      <trkpt lat="45.8394" lon="4.72164">
        <ele>269.65968</ele>
        <time>2022-06-18T07:43:31.000Z</time>
      </trkpt>
      <trkpt lat="45.83938" lon="4.7216">
        <ele>269.64771</ele>
        <time>2022-06-18T07:43:32.000Z</time>
      </trkpt>
      <trkpt lat="45.83944" lon="4.72161">
        <ele>269.67939</ele>
        <time>2022-06-18T07:43:33.000Z</time>
      </trkpt>
      <trkpt lat="45.83949" lon="4.72161">
        <ele>269.67957</ele>
        <time>2022-06-18T07:43:34.000Z</time>
      </trkpt>
      <trkpt lat="45.83952" lon="4.7216">
        <ele>269.66948</ele>
        <time>2022-06-18T07:43:35.000Z</time>
      </trkpt>
      <trkpt lat="45.83957" lon="4.72162">
        <ele>269.67664</ele>
        <time>2022-06-18T07:43:36.000Z</time>
      </trkpt>
      <trkpt lat="45.83965" lon="4.72162">
        <ele>269.68319</ele>
        <time>2022-06-18T07:43:37.000Z</time>
      </trkpt>
      <trkpt lat="45.8397" lon="4.72163">
        <ele>269.72855</ele>
        <time>2022-06-18T07:43:38.000Z</time>
      </trkpt>
      <trkpt lat="45.83978" lon="4.72161">
        <ele>269.74583</ele>
        <time>2022-06-18T07:43:39.000Z</time>
      </trkpt>
      <trkpt lat="45.83983" lon="4.72164">
        <ele>269.89947</ele>
        <time>2022-06-18T07:43:40.000Z</time>
      </trkpt>
      <trkpt lat="45.83989" lon="4.72168">
        <ele>270.10306</ele>
        <time>2022-06-18T07:43:41.000Z</time>
      </trkpt>
      <trkpt lat="45.8399" lon="4.72175">
        <ele>270.25031</ele>
        <time>2022-06-18T07:43:42.000Z</time>
      </trkpt>
      <trkpt lat="45.83992" lon="4.72172">
        <ele>270.23058</ele>
        <time>2022-06-18T07:43:43.000Z</time>
      </trkpt>
      <trkpt lat="45.83996" lon="4.72171">
        <ele>270.23736</ele>
        <time>2022-06-18T07:43:44.000Z</time>
      </trkpt>
      <trkpt lat="45.84004" lon="4.72171">
        <ele>270.28672</ele>
        <time>2022-06-18T07:43:45.000Z</time>
      </trkpt>
      <trkpt lat="45.84008" lon="4.72182">
        <ele>270.51951</ele>
        <time>2022-06-18T07:43:46.000Z</time>
      </trkpt>
      <trkpt lat="45.84011" lon="4.72178">
        <ele>270.49285</ele>
        <time>2022-06-18T07:43:47.000Z</time>
      </trkpt>
      <trkpt lat="45.84021" lon="4.72177">
        <ele>270.65013</ele>
        <time>2022-06-18T07:43:48.000Z</time>
      </trkpt>
      <trkpt lat="45.84025" lon="4.72183">
        <ele>270.91047</ele>
        <time>2022-06-18T07:43:49.000Z</time>
      </trkpt>
      <trkpt lat="45.8403" lon="4.72186">
        <ele>271.13154</ele>
        <time>2022-06-18T07:43:50.000Z</time>
      </trkpt>
      <trkpt lat="45.8403" lon="4.72181">
        <ele>270.97771</ele>
        <time>2022-06-18T07:43:51.000Z</time>
      </trkpt>
      <trkpt lat="45.84035" lon="4.72175">
        <ele>271.00517</ele>
        <time>2022-06-18T07:43:52.000Z</time>
      </trkpt>
      <trkpt lat="45.84052" lon="4.72173">
        <ele>271.91495</ele>
        <time>2022-06-18T07:43:53.000Z</time>
      </trkpt>
      <trkpt lat="45.84061" lon="4.72162">
        <ele>271.7949</ele>
        <time>2022-06-18T07:43:54.000Z</time>
      </trkpt>
      <trkpt lat="45.84066" lon="4.72151">
        <ele>271.3903</ele>
        <time>2022-06-18T07:43:55.000Z</time>
      </trkpt>
      <trkpt lat="45.84067" lon="4.72146">
        <ele>271.2186</ele>
        <time>2022-06-18T07:43:56.000Z</time>
      </trkpt>
      <trkpt lat="45.8407" lon="4.72147">
        <ele>271.38959</ele>
        <time>2022-06-18T07:43:57.000Z</time>
      </trkpt>
      <trkpt lat="45.84076" lon="4.72145">
        <ele>271.51629</ele>
        <time>2022-06-18T07:43:58.000Z</time>
      </trkpt>
      <trkpt lat="45.84084" lon="4.72144">
        <ele>271.77232</ele>
        <time>2022-06-18T07:43:59.000Z</time>
      </trkpt>
      <trkpt lat="45.84087" lon="4.72141">
        <ele>271.85437</ele>
        <time>2022-06-18T07:44:00.000Z</time>
      </trkpt>
      <trkpt lat="45.84095" lon="4.72138">
        <ele>272.12412</ele>
        <time>2022-06-18T07:44:01.000Z</time>
      </trkpt>
      <trkpt lat="45.84101" lon="4.72133">
        <ele>272.23456</ele>
        <time>2022-06-18T07:44:02.000Z</time>
      </trkpt>
      <trkpt lat="45.84107" lon="4.72135">
        <ele>272.57706</ele>
        <time>2022-06-18T07:44:03.000Z</time>
      </trkpt>
      <trkpt lat="45.84113" lon="4.72132">
        <ele>272.66709</ele>
        <time>2022-06-18T07:44:04.000Z</time>
      </trkpt>
      <trkpt lat="45.84118" lon="4.72128">
        <ele>272.68699</ele>
        <time>2022-06-18T07:44:05.000Z</time>
      </trkpt>
      <trkpt lat="45.84123" lon="4.72126">
        <ele>272.74808</ele>
        <time>2022-06-18T07:44:06.000Z</time>
      </trkpt>
      <trkpt lat="45.84129" lon="4.72119">
        <ele>272.56975</ele>
        <time>2022-06-18T07:44:07.000Z</time>
      </trkpt>
      <trkpt lat="45.84136" lon="4.72116">
        <ele>272.69209</ele>
        <time>2022-06-18T07:44:08.000Z</time>
      </trkpt>
      <trkpt lat="45.84139" lon="4.72109">
        <ele>272.44529</ele>
        <time>2022-06-18T07:44:09.000Z</time>
      </trkpt>
      <trkpt lat="45.84145" lon="4.72104">
        <ele>272.37688</ele>
        <time>2022-06-18T07:44:10.000Z</time>
      </trkpt>
      <trkpt lat="45.84151" lon="4.721">
        <ele>272.28574</ele>
        <time>2022-06-18T07:44:11.000Z</time>
      </trkpt>
      <trkpt lat="45.84154" lon="4.72093">
        <ele>271.75453</ele>
        <time>2022-06-18T07:44:12.000Z</time>
      </trkpt>
      <trkpt lat="45.84158" lon="4.72087">
        <ele>271.27294</ele>
        <time>2022-06-18T07:44:13.000Z</time>
      </trkpt>
      <trkpt lat="45.84163" lon="4.72081">
        <ele>270.77251</ele>
        <time>2022-06-18T07:44:14.000Z</time>
      </trkpt>
      <trkpt lat="45.84172" lon="4.72078">
        <ele>270.73439</ele>
        <time>2022-06-18T07:44:15.000Z</time>
      </trkpt>
      <trkpt lat="45.8418" lon="4.72075">
        <ele>271.003</ele>
        <time>2022-06-18T07:44:16.000Z</time>
      </trkpt>
      <trkpt lat="45.84186" lon="4.72069">
        <ele>270.89011</ele>
        <time>2022-06-18T07:44:17.000Z</time>
      </trkpt>
      <trkpt lat="45.84193" lon="4.72066">
        <ele>270.95625</ele>
        <time>2022-06-18T07:44:18.000Z</time>
      </trkpt>
      <trkpt lat="45.84197" lon="4.7206">
        <ele>270.58135</ele>
        <time>2022-06-18T07:44:19.000Z</time>
      </trkpt>
      <trkpt lat="45.84203" lon="4.72053">
        <ele>270.23383</ele>
        <time>2022-06-18T07:44:20.000Z</time>
      </trkpt>
      <trkpt lat="45.84207" lon="4.72045">
        <ele>269.73066</ele>
        <time>2022-06-18T07:44:21.000Z</time>
      </trkpt>
      <trkpt lat="45.84219" lon="4.72046">
        <ele>270.59366</ele>
        <time>2022-06-18T07:44:22.000Z</time>
      </trkpt>
      <trkpt lat="45.84227" lon="4.72041">
        <ele>269.86096</ele>
        <time>2022-06-18T07:44:23.000Z</time>
      </trkpt>
      <trkpt lat="45.84234" lon="4.72037">
        <ele>269.23213</ele>
        <time>2022-06-18T07:44:24.000Z</time>
      </trkpt>
      <trkpt lat="45.8424" lon="4.72032">
        <ele>268.56309</ele>
        <time>2022-06-18T07:44:25.000Z</time>
      </trkpt>
      <trkpt lat="45.84246" lon="4.7203">
        <ele>268.16232</ele>
        <time>2022-06-18T07:44:26.000Z</time>
      </trkpt>
      <trkpt lat="45.8425" lon="4.72026">
        <ele>267.5715</ele>
        <time>2022-06-18T07:44:27.000Z</time>
      </trkpt>
      <trkpt lat="45.84257" lon="4.72021">
        <ele>266.67222</ele>
        <time>2022-06-18T07:44:28.000Z</time>
      </trkpt>
      <trkpt lat="45.84265" lon="4.72018">
        <ele>266.09581</ele>
        <time>2022-06-18T07:44:29.000Z</time>
      </trkpt>
      <trkpt lat="45.84269" lon="4.7201">
        <ele>265.23698</ele>
        <time>2022-06-18T07:44:30.000Z</time>
      </trkpt>
      <trkpt lat="45.84276" lon="4.72005">
        <ele>264.60125</ele>
        <time>2022-06-18T07:44:31.000Z</time>
      </trkpt>
      <trkpt lat="45.84283" lon="4.72002">
        <ele>264.20786</ele>
        <time>2022-06-18T07:44:32.000Z</time>
      </trkpt>
      <trkpt lat="45.8429" lon="4.71996">
        <ele>263.39653</ele>
        <time>2022-06-18T07:44:33.000Z</time>
      </trkpt>
      <trkpt lat="45.84296" lon="4.71991">
        <ele>262.78435</ele>
        <time>2022-06-18T07:44:34.000Z</time>
      </trkpt>
      <trkpt lat="45.84302" lon="4.71988">
        <ele>262.36867</ele>
        <time>2022-06-18T07:44:35.000Z</time>
      </trkpt>
      <trkpt lat="45.84311" lon="4.71985">
        <ele>262.05568</ele>
        <time>2022-06-18T07:44:36.000Z</time>
      </trkpt>
      <trkpt lat="45.84316" lon="4.71981">
        <ele>261.65459</ele>
        <time>2022-06-18T07:44:37.000Z</time>
      </trkpt>
      <trkpt lat="45.84323" lon="4.71977">
        <ele>261.21318</ele>
        <time>2022-06-18T07:44:38.000Z</time>
      </trkpt>
      <trkpt lat="45.84331" lon="4.71973">
        <ele>260.80962</ele>
        <time>2022-06-18T07:44:39.000Z</time>
      </trkpt>
      <trkpt lat="45.84339" lon="4.71972">
        <ele>260.84365</ele>
        <time>2022-06-18T07:44:40.000Z</time>
      </trkpt>
      <trkpt lat="45.84344" lon="4.71971">
        <ele>260.84147</ele>
        <time>2022-06-18T07:44:41.000Z</time>
      </trkpt>
      <trkpt lat="45.84349" lon="4.71969">
        <ele>260.74304</ele>
        <time>2022-06-18T07:44:42.000Z</time>
      </trkpt>
      <trkpt lat="45.84355" lon="4.71968">
        <ele>260.70327</ele>
        <time>2022-06-18T07:44:43.000Z</time>
      </trkpt>
      <trkpt lat="45.84361" lon="4.71965">
        <ele>260.67581</ele>
        <time>2022-06-18T07:44:44.000Z</time>
      </trkpt>
      <trkpt lat="45.84367" lon="4.71963">
        <ele>260.61138</ele>
        <time>2022-06-18T07:44:45.000Z</time>
      </trkpt>
      <trkpt lat="45.84373" lon="4.71961">
        <ele>260.42111</ele>
        <time>2022-06-18T07:44:46.000Z</time>
      </trkpt>
      <trkpt lat="45.84381" lon="4.71958">
        <ele>260.14295</ele>
        <time>2022-06-18T07:44:47.000Z</time>
      </trkpt>
      <trkpt lat="45.84387" lon="4.71955">
        <ele>259.67315</ele>
        <time>2022-06-18T07:44:48.000Z</time>
      </trkpt>
      <trkpt lat="45.84395" lon="4.71952">
        <ele>259.26316</ele>
        <time>2022-06-18T07:44:49.000Z</time>
      </trkpt>
      <trkpt lat="45.844" lon="4.71948">
        <ele>258.73886</ele>
        <time>2022-06-18T07:44:50.000Z</time>
      </trkpt>
      <trkpt lat="45.8441" lon="4.7195">
        <ele>258.75884</ele>
        <time>2022-06-18T07:44:51.000Z</time>
      </trkpt>
      <trkpt lat="45.84417" lon="4.71947">
        <ele>258.39119</ele>
        <time>2022-06-18T07:44:52.000Z</time>
      </trkpt>
      <trkpt lat="45.84425" lon="4.71945">
        <ele>258.02513</ele>
        <time>2022-06-18T07:44:53.000Z</time>
      </trkpt>
      <trkpt lat="45.84434" lon="4.71943">
        <ele>257.81294</ele>
        <time>2022-06-18T07:44:54.000Z</time>
      </trkpt>
      <trkpt lat="45.84441" lon="4.7194">
        <ele>257.49665</ele>
        <time>2022-06-18T07:44:55.000Z</time>
      </trkpt>
      <trkpt lat="45.84449" lon="4.71938">
        <ele>256.99557</ele>
        <time>2022-06-18T07:44:56.000Z</time>
      </trkpt>
      <trkpt lat="45.84457" lon="4.71937">
        <ele>256.41792</ele>
        <time>2022-06-18T07:44:57.000Z</time>
      </trkpt>
      <trkpt lat="45.84464" lon="4.71935">
        <ele>256.00483</ele>
        <time>2022-06-18T07:44:58.000Z</time>
      </trkpt>
      <trkpt lat="45.84473" lon="4.7193">
        <ele>255.57041</ele>
        <time>2022-06-18T07:44:59.000Z</time>
      </trkpt>
      <trkpt lat="45.84477" lon="4.71925">
        <ele>255.39667</ele>
        <time>2022-06-18T07:45:00.000Z</time>
      </trkpt>
      <trkpt lat="45.84483" lon="4.71921">
        <ele>255.36141</ele>
        <time>2022-06-18T07:45:01.000Z</time>
      </trkpt>
      <trkpt lat="45.84489" lon="4.71914">
        <ele>255.00892</ele>
        <time>2022-06-18T07:45:02.000Z</time>
      </trkpt>
      <trkpt lat="45.84491" lon="4.71909">
        <ele>254.68822</ele>
        <time>2022-06-18T07:45:03.000Z</time>
      </trkpt>
      <trkpt lat="45.84496" lon="4.71903">
        <ele>254.51377</ele>
        <time>2022-06-18T07:45:04.000Z</time>
      </trkpt>
      <trkpt lat="45.84503" lon="4.71903">
        <ele>254.80975</ele>
        <time>2022-06-18T07:45:05.000Z</time>
      </trkpt>
      <trkpt lat="45.84504" lon="4.71894">
        <ele>254.16569</ele>
        <time>2022-06-18T07:45:06.000Z</time>
      </trkpt>
      <trkpt lat="45.84509" lon="4.71893">
        <ele>254.44298</ele>
        <time>2022-06-18T07:45:07.000Z</time>
      </trkpt>
      <trkpt lat="45.84515" lon="4.71886">
        <ele>254.20948</ele>
        <time>2022-06-18T07:45:08.000Z</time>
      </trkpt>
      <trkpt lat="45.84517" lon="4.71883">
        <ele>254.05132</ele>
        <time>2022-06-18T07:45:09.000Z</time>
      </trkpt>
      <trkpt lat="45.84522" lon="4.71881">
        <ele>254.14789</ele>
        <time>2022-06-18T07:45:10.000Z</time>
      </trkpt>
      <trkpt lat="45.84528" lon="4.71877">
        <ele>254.13568</ele>
        <time>2022-06-18T07:45:11.000Z</time>
      </trkpt>
      <trkpt lat="45.84534" lon="4.71869">
        <ele>253.75328</ele>
        <time>2022-06-18T07:45:12.000Z</time>
      </trkpt>
      <trkpt lat="45.84541" lon="4.71862">
        <ele>253.28359</ele>
        <time>2022-06-18T07:45:13.000Z</time>
      </trkpt>
      <trkpt lat="45.84546" lon="4.71857">
        <ele>252.69429</ele>
        <time>2022-06-18T07:45:14.000Z</time>
      </trkpt>
      <trkpt lat="45.84554" lon="4.71851">
        <ele>251.9374</ele>
        <time>2022-06-18T07:45:15.000Z</time>
      </trkpt>
      <trkpt lat="45.8456" lon="4.71852">
        <ele>252.11832</ele>
        <time>2022-06-18T07:45:16.000Z</time>
      </trkpt>
      <trkpt lat="45.84569" lon="4.7185">
        <ele>251.96943</ele>
        <time>2022-06-18T07:45:17.000Z</time>
      </trkpt>
      <trkpt lat="45.84578" lon="4.7185">
        <ele>252.13945</ele>
        <time>2022-06-18T07:45:18.000Z</time>
      </trkpt>
      <trkpt lat="45.84582" lon="4.71842">
        <ele>251.37818</ele>
        <time>2022-06-18T07:45:19.000Z</time>
      </trkpt>
      <trkpt lat="45.84588" lon="4.71839">
        <ele>251.51521</ele>
        <time>2022-06-18T07:45:20.000Z</time>
      </trkpt>
      <trkpt lat="45.84595" lon="4.71835">
        <ele>251.63304</ele>
        <time>2022-06-18T07:45:21.000Z</time>
      </trkpt>
      <trkpt lat="45.84599" lon="4.71831">
        <ele>251.27055</ele>
        <time>2022-06-18T07:45:22.000Z</time>
      </trkpt>
      <trkpt lat="45.84608" lon="4.7183">
        <ele>251.07627</ele>
        <time>2022-06-18T07:45:23.000Z</time>
      </trkpt>
      <trkpt lat="45.84615" lon="4.71827">
        <ele>250.30451</ele>
        <time>2022-06-18T07:45:24.000Z</time>
      </trkpt>
      <trkpt lat="45.84621" lon="4.71824">
        <ele>249.48772</ele>
        <time>2022-06-18T07:45:25.000Z</time>
      </trkpt>
      <trkpt lat="45.84626" lon="4.71821">
        <ele>248.86153</ele>
        <time>2022-06-18T07:45:26.000Z</time>
      </trkpt>
      <trkpt lat="45.84632" lon="4.71818">
        <ele>248.27814</ele>
        <time>2022-06-18T07:45:27.000Z</time>
      </trkpt>
      <trkpt lat="45.84638" lon="4.71813">
        <ele>247.59867</ele>
        <time>2022-06-18T07:45:28.000Z</time>
      </trkpt>
      <trkpt lat="45.84644" lon="4.71809">
        <ele>247.20522</ele>
        <time>2022-06-18T07:45:29.000Z</time>
      </trkpt>
      <trkpt lat="45.84693" lon="4.7178">
        <ele>246.30459</ele>
        <time>2022-06-18T07:45:36.000Z</time>
      </trkpt>
      <trkpt lat="45.84698" lon="4.71777">
        <ele>246.64091</ele>
        <time>2022-06-18T07:45:37.000Z</time>
      </trkpt>
      <trkpt lat="45.84705" lon="4.71775">
        <ele>246.85852</ele>
        <time>2022-06-18T07:45:38.000Z</time>
      </trkpt>
      <trkpt lat="45.84712" lon="4.71771">
        <ele>247.08905</ele>
        <time>2022-06-18T07:45:39.000Z</time>
      </trkpt>
      <trkpt lat="45.84717" lon="4.71769">
        <ele>247.20005</ele>
        <time>2022-06-18T07:45:40.000Z</time>
      </trkpt>
      <trkpt lat="45.84723" lon="4.71767">
        <ele>247.36331</ele>
        <time>2022-06-18T07:45:41.000Z</time>
      </trkpt>
      <trkpt lat="45.8473" lon="4.71765">
        <ele>247.38541</ele>
        <time>2022-06-18T07:45:42.000Z</time>
      </trkpt>
      <trkpt lat="45.84735" lon="4.71759">
        <ele>246.87115</ele>
        <time>2022-06-18T07:45:43.000Z</time>
      </trkpt>
      <trkpt lat="45.84738" lon="4.71753">
        <ele>246.33603</ele>
        <time>2022-06-18T07:45:44.000Z</time>
      </trkpt>
      <trkpt lat="45.84745" lon="4.71751">
        <ele>246.23918</ele>
        <time>2022-06-18T07:45:45.000Z</time>
      </trkpt>
      <trkpt lat="45.84754" lon="4.71745">
        <ele>246.5615</ele>
        <time>2022-06-18T07:45:46.000Z</time>
      </trkpt>
      <trkpt lat="45.84761" lon="4.71741">
        <ele>246.97624</ele>
        <time>2022-06-18T07:45:47.000Z</time>
      </trkpt>
      <trkpt lat="45.84767" lon="4.71736">
        <ele>247.21312</ele>
        <time>2022-06-18T07:45:48.000Z</time>
      </trkpt>
      <trkpt lat="45.84772" lon="4.7173">
        <ele>247.26736</ele>
        <time>2022-06-18T07:45:49.000Z</time>
      </trkpt>
      <trkpt lat="45.8478" lon="4.71728">
        <ele>247.4182</ele>
        <time>2022-06-18T07:45:50.000Z</time>
      </trkpt>
      <trkpt lat="45.84785" lon="4.71724">
        <ele>247.52677</ele>
        <time>2022-06-18T07:45:51.000Z</time>
      </trkpt>
      <trkpt lat="45.84792" lon="4.71719">
        <ele>247.73647</ele>
        <time>2022-06-18T07:45:52.000Z</time>
      </trkpt>
      <trkpt lat="45.848" lon="4.71717">
        <ele>248.22416</ele>
        <time>2022-06-18T07:45:53.000Z</time>
      </trkpt>
      <trkpt lat="45.84805" lon="4.71713">
        <ele>248.56798</ele>
        <time>2022-06-18T07:45:54.000Z</time>
      </trkpt>
      <trkpt lat="45.84811" lon="4.71708">
        <ele>248.88672</ele>
        <time>2022-06-18T07:45:55.000Z</time>
      </trkpt>
      <trkpt lat="45.84817" lon="4.71703">
        <ele>249.01558</ele>
        <time>2022-06-18T07:45:56.000Z</time>
      </trkpt>
      <trkpt lat="45.84823" lon="4.71701">
        <ele>249.19671</ele>
        <time>2022-06-18T07:45:57.000Z</time>
      </trkpt>
      <trkpt lat="45.84829" lon="4.71698">
        <ele>249.23798</ele>
        <time>2022-06-18T07:45:58.000Z</time>
      </trkpt>
      <trkpt lat="45.84834" lon="4.71695">
        <ele>249.27403</ele>
        <time>2022-06-18T07:45:59.000Z</time>
      </trkpt>
      <trkpt lat="45.84839" lon="4.71693">
        <ele>249.44769</ele>
        <time>2022-06-18T07:46:00.000Z</time>
      </trkpt>
      <trkpt lat="45.84843" lon="4.71687">
        <ele>249.18154</ele>
        <time>2022-06-18T07:46:01.000Z</time>
      </trkpt>
      <trkpt lat="45.8485" lon="4.71683">
        <ele>249.25753</ele>
        <time>2022-06-18T07:46:02.000Z</time>
      </trkpt>
      <trkpt lat="45.84857" lon="4.71678">
        <ele>249.25893</ele>
        <time>2022-06-18T07:46:03.000Z</time>
      </trkpt>
      <trkpt lat="45.84865" lon="4.71674">
        <ele>249.34013</ele>
        <time>2022-06-18T07:46:04.000Z</time>
      </trkpt>
      <trkpt lat="45.84872" lon="4.71669">
        <ele>249.27548</ele>
        <time>2022-06-18T07:46:05.000Z</time>
      </trkpt>
      <trkpt lat="45.84879" lon="4.71666">
        <ele>249.16379</ele>
        <time>2022-06-18T07:46:06.000Z</time>
      </trkpt>
      <trkpt lat="45.84885" lon="4.71661">
        <ele>248.77923</ele>
        <time>2022-06-18T07:46:07.000Z</time>
      </trkpt>
      <trkpt lat="45.8489" lon="4.71666">
        <ele>249.30823</ele>
        <time>2022-06-18T07:46:08.000Z</time>
      </trkpt>
      <trkpt lat="45.84897" lon="4.71663">
        <ele>249.07328</ele>
        <time>2022-06-18T07:46:09.000Z</time>
      </trkpt>
      <trkpt lat="45.84904" lon="4.71669">
        <ele>249.60574</ele>
        <time>2022-06-18T07:46:10.000Z</time>
      </trkpt>
      <trkpt lat="45.84909" lon="4.71669">
        <ele>249.54835</ele>
        <time>2022-06-18T07:46:11.000Z</time>
      </trkpt>
      <trkpt lat="45.84917" lon="4.71671">
        <ele>249.49371</ele>
        <time>2022-06-18T07:46:12.000Z</time>
      </trkpt>
      <trkpt lat="45.84924" lon="4.71674">
        <ele>249.62592</ele>
        <time>2022-06-18T07:46:13.000Z</time>
      </trkpt>
      <trkpt lat="45.84927" lon="4.7168">
        <ele>250.08992</ele>
        <time>2022-06-18T07:46:14.000Z</time>
      </trkpt>
      <trkpt lat="45.84929" lon="4.71683">
        <ele>250.31361</ele>
        <time>2022-06-18T07:46:15.000Z</time>
      </trkpt>
      <trkpt lat="45.84942" lon="4.71677">
        <ele>249.2189</ele>
        <time>2022-06-18T07:46:16.000Z</time>
      </trkpt>
      <trkpt lat="45.84951" lon="4.71678">
        <ele>248.73767</ele>
        <time>2022-06-18T07:46:17.000Z</time>
      </trkpt>
      <trkpt lat="45.84957" lon="4.71675">
        <ele>248.03498</ele>
        <time>2022-06-18T07:46:18.000Z</time>
      </trkpt>
      <trkpt lat="45.84964" lon="4.71673">
        <ele>247.37281</ele>
        <time>2022-06-18T07:46:19.000Z</time>
      </trkpt>
      <trkpt lat="45.84973" lon="4.71672">
        <ele>246.63726</ele>
        <time>2022-06-18T07:46:20.000Z</time>
      </trkpt>
      <trkpt lat="45.8498" lon="4.71673">
        <ele>246.10604</ele>
        <time>2022-06-18T07:46:21.000Z</time>
      </trkpt>
      <trkpt lat="45.84991" lon="4.71665">
        <ele>244.84622</ele>
        <time>2022-06-18T07:46:22.000Z</time>
      </trkpt>
      <trkpt lat="45.85001" lon="4.71658">
        <ele>243.88637</ele>
        <time>2022-06-18T07:46:23.000Z</time>
      </trkpt>
      <trkpt lat="45.85011" lon="4.71653">
        <ele>243.20581</ele>
        <time>2022-06-18T07:46:24.000Z</time>
      </trkpt>
      <trkpt lat="45.85018" lon="4.71648">
        <ele>242.73074</ele>
        <time>2022-06-18T07:46:25.000Z</time>
      </trkpt>
      <trkpt lat="45.85026" lon="4.71644">
        <ele>242.37006</ele>
        <time>2022-06-18T07:46:26.000Z</time>
      </trkpt>
      <trkpt lat="45.85035" lon="4.71641">
        <ele>242.02809</ele>
        <time>2022-06-18T07:46:27.000Z</time>
      </trkpt>
      <trkpt lat="45.85043" lon="4.71637">
        <ele>241.68535</ele>
        <time>2022-06-18T07:46:28.000Z</time>
      </trkpt>
      <trkpt lat="45.85051" lon="4.71631">
        <ele>241.1237</ele>
        <time>2022-06-18T07:46:29.000Z</time>
      </trkpt>
      <trkpt lat="45.8506" lon="4.71626">
        <ele>240.55446</ele>
        <time>2022-06-18T07:46:30.000Z</time>
      </trkpt>
      <trkpt lat="45.85067" lon="4.71622">
        <ele>240.11852</ele>
        <time>2022-06-18T07:46:31.000Z</time>
      </trkpt>
      <trkpt lat="45.85074" lon="4.7162">
        <ele>239.19418</ele>
        <time>2022-06-18T07:46:32.000Z</time>
      </trkpt>
      <trkpt lat="45.85081" lon="4.71616">
        <ele>236.71888</ele>
        <time>2022-06-18T07:46:33.000Z</time>
      </trkpt>
      <trkpt lat="45.8509" lon="4.71613">
        <ele>231.39641</ele>
        <time>2022-06-18T07:46:34.000Z</time>
      </trkpt>
      <trkpt lat="45.85097" lon="4.71608">
        <ele>227.81726</ele>
        <time>2022-06-18T07:46:35.000Z</time>
      </trkpt>
      <trkpt lat="45.85105" lon="4.71605">
        <ele>228.70668</ele>
        <time>2022-06-18T07:46:36.000Z</time>
      </trkpt>
      <trkpt lat="45.85111" lon="4.716">
        <ele>232.71433</ele>
        <time>2022-06-18T07:46:37.000Z</time>
      </trkpt>
      <trkpt lat="45.85118" lon="4.71595">
        <ele>236.77853</ele>
        <time>2022-06-18T07:46:38.000Z</time>
      </trkpt>
      <trkpt lat="45.85123" lon="4.71597">
        <ele>239.03052</ele>
        <time>2022-06-18T07:46:39.000Z</time>
      </trkpt>
      <trkpt lat="45.85128" lon="4.71598">
        <ele>239.7994</ele>
        <time>2022-06-18T07:46:40.000Z</time>
      </trkpt>
      <trkpt lat="45.85134" lon="4.71598">
        <ele>239.70076</ele>
        <time>2022-06-18T07:46:41.000Z</time>
      </trkpt>
      <trkpt lat="45.85141" lon="4.71597">
        <ele>239.08573</ele>
        <time>2022-06-18T07:46:42.000Z</time>
      </trkpt>
      <trkpt lat="45.85147" lon="4.71595">
        <ele>238.8242</ele>
        <time>2022-06-18T07:46:43.000Z</time>
      </trkpt>
      <trkpt lat="45.85152" lon="4.71592">
        <ele>238.77756</ele>
        <time>2022-06-18T07:46:44.000Z</time>
      </trkpt>
      <trkpt lat="45.85156" lon="4.71588">
        <ele>238.64097</ele>
        <time>2022-06-18T07:46:45.000Z</time>
      </trkpt>
      <trkpt lat="45.85163" lon="4.71585">
        <ele>238.71975</ele>
        <time>2022-06-18T07:46:46.000Z</time>
      </trkpt>
      <trkpt lat="45.85168" lon="4.71583">
        <ele>238.70344</ele>
        <time>2022-06-18T07:46:47.000Z</time>
      </trkpt>
      <trkpt lat="45.85175" lon="4.71579">
        <ele>238.72344</ele>
        <time>2022-06-18T07:46:48.000Z</time>
      </trkpt>
      <trkpt lat="45.85181" lon="4.71579">
        <ele>239.04504</ele>
        <time>2022-06-18T07:46:49.000Z</time>
      </trkpt>
      <trkpt lat="45.85186" lon="4.71579">
        <ele>239.35438</ele>
        <time>2022-06-18T07:46:50.000Z</time>
      </trkpt>
      <trkpt lat="45.85193" lon="4.71575">
        <ele>239.29052</ele>
        <time>2022-06-18T07:46:51.000Z</time>
      </trkpt>
      <trkpt lat="45.85197" lon="4.71574">
        <ele>239.59867</ele>
        <time>2022-06-18T07:46:52.000Z</time>
      </trkpt>
      <trkpt lat="45.85203" lon="4.71571">
        <ele>239.69162</ele>
        <time>2022-06-18T07:46:53.000Z</time>
      </trkpt>
      <trkpt lat="45.8521" lon="4.71568">
        <ele>240.01143</ele>
        <time>2022-06-18T07:46:54.000Z</time>
      </trkpt>
      <trkpt lat="45.85216" lon="4.71566">
        <ele>240.39695</ele>
        <time>2022-06-18T07:46:55.000Z</time>
      </trkpt>
      <trkpt lat="45.8522" lon="4.71561">
        <ele>240.38585</ele>
        <time>2022-06-18T07:46:56.000Z</time>
      </trkpt>
      <trkpt lat="45.85226" lon="4.7156">
        <ele>240.95162</ele>
        <time>2022-06-18T07:46:57.000Z</time>
      </trkpt>
      <trkpt lat="45.85231" lon="4.7156">
        <ele>241.36918</ele>
        <time>2022-06-18T07:46:58.000Z</time>
      </trkpt>
      <trkpt lat="45.85237" lon="4.71559">
        <ele>241.86088</ele>
        <time>2022-06-18T07:46:59.000Z</time>
      </trkpt>
      <trkpt lat="45.85241" lon="4.71557">
        <ele>242.07195</ele>
        <time>2022-06-18T07:47:00.000Z</time>
      </trkpt>
      <trkpt lat="45.85245" lon="4.71554">
        <ele>242.26214</ele>
        <time>2022-06-18T07:47:01.000Z</time>
      </trkpt>
      <trkpt lat="45.8525" lon="4.71553">
        <ele>242.59882</ele>
        <time>2022-06-18T07:47:02.000Z</time>
      </trkpt>
      <trkpt lat="45.85256" lon="4.71553">
        <ele>242.93691</ele>
        <time>2022-06-18T07:47:03.000Z</time>
      </trkpt>
      <trkpt lat="45.8526" lon="4.71551">
        <ele>243.07655</ele>
        <time>2022-06-18T07:47:04.000Z</time>
      </trkpt>
      <trkpt lat="45.85264" lon="4.71548">
        <ele>243.21538</ele>
        <time>2022-06-18T07:47:05.000Z</time>
      </trkpt>
      <trkpt lat="45.85269" lon="4.71545">
        <ele>243.34923</ele>
        <time>2022-06-18T07:47:06.000Z</time>
      </trkpt>
      <trkpt lat="45.85272" lon="4.7154">
        <ele>243.50979</ele>
        <time>2022-06-18T07:47:07.000Z</time>
      </trkpt>
      <trkpt lat="45.85278" lon="4.71535">
        <ele>243.6994</ele>
        <time>2022-06-18T07:47:08.000Z</time>
      </trkpt>
      <trkpt lat="45.85282" lon="4.71532">
        <ele>243.78447</ele>
        <time>2022-06-18T07:47:09.000Z</time>
      </trkpt>
      <trkpt lat="45.85287" lon="4.71529">
        <ele>243.767</ele>
        <time>2022-06-18T07:47:10.000Z</time>
      </trkpt>
      <trkpt lat="45.8529" lon="4.71524">
        <ele>243.87228</ele>
        <time>2022-06-18T07:47:11.000Z</time>
      </trkpt>
      <trkpt lat="45.85294" lon="4.71516">
        <ele>244.31559</ele>
        <time>2022-06-18T07:47:12.000Z</time>
      </trkpt>
      <trkpt lat="45.85298" lon="4.71511">
        <ele>244.31133</ele>
        <time>2022-06-18T07:47:13.000Z</time>
      </trkpt>
      <trkpt lat="45.85302" lon="4.71505">
        <ele>244.59272</ele>
        <time>2022-06-18T07:47:14.000Z</time>
      </trkpt>
      <trkpt lat="45.8531" lon="4.71503">
        <ele>243.76792</ele>
        <time>2022-06-18T07:47:15.000Z</time>
      </trkpt>
      <trkpt lat="45.85315" lon="4.71503">
        <ele>243.04864</ele>
        <time>2022-06-18T07:47:16.000Z</time>
      </trkpt>
      <trkpt lat="45.85321" lon="4.71504">
        <ele>242.03464</ele>
        <time>2022-06-18T07:47:17.000Z</time>
      </trkpt>
      <trkpt lat="45.85325" lon="4.71497">
        <ele>242.08417</ele>
        <time>2022-06-18T07:47:18.000Z</time>
      </trkpt>
      <trkpt lat="45.85329" lon="4.71496">
        <ele>241.6213</ele>
        <time>2022-06-18T07:47:19.000Z</time>
      </trkpt>
      <trkpt lat="45.85334" lon="4.71489">
        <ele>241.50229</ele>
        <time>2022-06-18T07:47:20.000Z</time>
      </trkpt>
      <trkpt lat="45.85341" lon="4.71487">
        <ele>240.48632</ele>
        <time>2022-06-18T07:47:21.000Z</time>
      </trkpt>
      <trkpt lat="45.85345" lon="4.71481">
        <ele>240.39373</ele>
        <time>2022-06-18T07:47:22.000Z</time>
      </trkpt>
      <trkpt lat="45.85351" lon="4.71478">
        <ele>239.61447</ele>
        <time>2022-06-18T07:47:23.000Z</time>
      </trkpt>
      <trkpt lat="45.85355" lon="4.71471">
        <ele>239.57872</ele>
        <time>2022-06-18T07:47:24.000Z</time>
      </trkpt>
      <trkpt lat="45.8536" lon="4.71465">
        <ele>239.3307</ele>
        <time>2022-06-18T07:47:25.000Z</time>
      </trkpt>
      <trkpt lat="45.85365" lon="4.7146">
        <ele>239.10945</ele>
        <time>2022-06-18T07:47:26.000Z</time>
      </trkpt>
      <trkpt lat="45.85367" lon="4.71457">
        <ele>238.93209</ele>
        <time>2022-06-18T07:47:27.000Z</time>
      </trkpt>
      <trkpt lat="45.85372" lon="4.71452">
        <ele>238.5475</ele>
        <time>2022-06-18T07:47:28.000Z</time>
      </trkpt>
      <trkpt lat="45.85376" lon="4.71446">
        <ele>238.38327</ele>
        <time>2022-06-18T07:47:29.000Z</time>
      </trkpt>
      <trkpt lat="45.8538" lon="4.71446">
        <ele>237.97151</ele>
        <time>2022-06-18T07:47:30.000Z</time>
      </trkpt>
      <trkpt lat="45.85384" lon="4.71442">
        <ele>237.60478</ele>
        <time>2022-06-18T07:47:31.000Z</time>
      </trkpt>
      <trkpt lat="45.8539" lon="4.71437">
        <ele>237.15135</ele>
        <time>2022-06-18T07:47:32.000Z</time>
      </trkpt>
      <trkpt lat="45.85395" lon="4.71434">
        <ele>236.6293</ele>
        <time>2022-06-18T07:47:33.000Z</time>
      </trkpt>
      <trkpt lat="45.85399" lon="4.71431">
        <ele>236.26409</ele>
        <time>2022-06-18T07:47:34.000Z</time>
      </trkpt>
      <trkpt lat="45.85403" lon="4.7143">
        <ele>235.73813</ele>
        <time>2022-06-18T07:47:35.000Z</time>
      </trkpt>
      <trkpt lat="45.85409" lon="4.71424">
        <ele>235.55824</ele>
        <time>2022-06-18T07:47:36.000Z</time>
      </trkpt>
      <trkpt lat="45.85413" lon="4.71418">
        <ele>235.52471</ele>
        <time>2022-06-18T07:47:37.000Z</time>
      </trkpt>
      <trkpt lat="45.85417" lon="4.71409">
        <ele>235.62454</ele>
        <time>2022-06-18T07:47:38.000Z</time>
      </trkpt>
      <trkpt lat="45.85421" lon="4.71405">
        <ele>235.35444</ele>
        <time>2022-06-18T07:47:39.000Z</time>
      </trkpt>
      <trkpt lat="45.85426" lon="4.71399">
        <ele>234.96944</ele>
        <time>2022-06-18T07:47:40.000Z</time>
      </trkpt>
      <trkpt lat="45.85434" lon="4.71396">
        <ele>234.49477</ele>
        <time>2022-06-18T07:47:41.000Z</time>
      </trkpt>
      <trkpt lat="45.85439" lon="4.71396">
        <ele>234.12471</ele>
        <time>2022-06-18T07:47:42.000Z</time>
      </trkpt>
      <trkpt lat="45.85446" lon="4.71392">
        <ele>233.69143</ele>
        <time>2022-06-18T07:47:43.000Z</time>
      </trkpt>
      <trkpt lat="45.85453" lon="4.71386">
        <ele>233.29566</ele>
        <time>2022-06-18T07:47:44.000Z</time>
      </trkpt>
      <trkpt lat="45.85461" lon="4.7138">
        <ele>232.78051</ele>
        <time>2022-06-18T07:47:45.000Z</time>
      </trkpt>
      <trkpt lat="45.85468" lon="4.71375">
        <ele>231.95863</ele>
        <time>2022-06-18T07:47:46.000Z</time>
      </trkpt>
      <trkpt lat="45.85476" lon="4.71373">
        <ele>230.81177</ele>
        <time>2022-06-18T07:47:47.000Z</time>
      </trkpt>
      <trkpt lat="45.85484" lon="4.71368">
        <ele>229.60358</ele>
        <time>2022-06-18T07:47:48.000Z</time>
      </trkpt>
      <trkpt lat="45.85492" lon="4.7136">
        <ele>228.69141</ele>
        <time>2022-06-18T07:47:49.000Z</time>
      </trkpt>
      <trkpt lat="45.85499" lon="4.71357">
        <ele>227.97338</ele>
        <time>2022-06-18T07:47:50.000Z</time>
      </trkpt>
      <trkpt lat="45.85508" lon="4.71355">
        <ele>226.92153</ele>
        <time>2022-06-18T07:47:51.000Z</time>
      </trkpt>
      <trkpt lat="45.85516" lon="4.71354">
        <ele>226.16379</ele>
        <time>2022-06-18T07:47:52.000Z</time>
      </trkpt>
      <trkpt lat="45.85523" lon="4.71352">
        <ele>225.34612</ele>
        <time>2022-06-18T07:47:53.000Z</time>
      </trkpt>
      <trkpt lat="45.85531" lon="4.71351">
        <ele>224.54927</ele>
        <time>2022-06-18T07:47:54.000Z</time>
      </trkpt>
      <trkpt lat="45.85537" lon="4.7135">
        <ele>224.08508</ele>
        <time>2022-06-18T07:47:55.000Z</time>
      </trkpt>
      <trkpt lat="45.85544" lon="4.71349">
        <ele>223.54672</ele>
        <time>2022-06-18T07:47:56.000Z</time>
      </trkpt>
      <trkpt lat="45.85551" lon="4.71349">
        <ele>223.02635</ele>
        <time>2022-06-18T07:47:57.000Z</time>
      </trkpt>
      <trkpt lat="45.85558" lon="4.71347">
        <ele>222.48529</ele>
        <time>2022-06-18T07:47:58.000Z</time>
      </trkpt>
      <trkpt lat="45.85565" lon="4.71342">
        <ele>221.8364</ele>
        <time>2022-06-18T07:47:59.000Z</time>
      </trkpt>
      <trkpt lat="45.85575" lon="4.71337">
        <ele>221.08053</ele>
        <time>2022-06-18T07:48:00.000Z</time>
      </trkpt>
      <trkpt lat="45.85582" lon="4.71334">
        <ele>220.64458</ele>
        <time>2022-06-18T07:48:01.000Z</time>
      </trkpt>
      <trkpt lat="45.85588" lon="4.71329">
        <ele>220.13461</ele>
        <time>2022-06-18T07:48:02.000Z</time>
      </trkpt>
      <trkpt lat="45.85595" lon="4.71323">
        <ele>219.33574</ele>
        <time>2022-06-18T07:48:03.000Z</time>
      </trkpt>
      <trkpt lat="45.85599" lon="4.7132">
        <ele>218.81746</ele>
        <time>2022-06-18T07:48:04.000Z</time>
      </trkpt>
      <trkpt lat="45.85603" lon="4.71317">
        <ele>218.36656</ele>
        <time>2022-06-18T07:48:05.000Z</time>
      </trkpt>
      <trkpt lat="45.85605" lon="4.71312">
        <ele>217.95671</ele>
        <time>2022-06-18T07:48:06.000Z</time>
      </trkpt>
      <trkpt lat="45.85604" lon="4.71307">
        <ele>217.48884</ele>
        <time>2022-06-18T07:48:07.000Z</time>
      </trkpt>
      <trkpt lat="45.85602" lon="4.71302">
        <ele>216.94507</ele>
        <time>2022-06-18T07:48:08.000Z</time>
      </trkpt>
      <trkpt lat="45.85599" lon="4.71299">
        <ele>216.46199</ele>
        <time>2022-06-18T07:48:09.000Z</time>
      </trkpt>
      <trkpt lat="45.85594" lon="4.71296">
        <ele>215.84153</ele>
        <time>2022-06-18T07:48:10.000Z</time>
      </trkpt>
      <trkpt lat="45.8559" lon="4.71294">
        <ele>215.30059</ele>
        <time>2022-06-18T07:48:11.000Z</time>
      </trkpt>
      <trkpt lat="45.85585" lon="4.71292">
        <ele>214.46449</ele>
        <time>2022-06-18T07:48:12.000Z</time>
      </trkpt>
      <trkpt lat="45.8558" lon="4.71289">
        <ele>213.58106</ele>
        <time>2022-06-18T07:48:13.000Z</time>
      </trkpt>
      <trkpt lat="45.85573" lon="4.71287">
        <ele>212.44299</ele>
        <time>2022-06-18T07:48:14.000Z</time>
      </trkpt>
      <trkpt lat="45.85568" lon="4.71287">
        <ele>212.03818</ele>
        <time>2022-06-18T07:48:15.000Z</time>
      </trkpt>
      <trkpt lat="45.85562" lon="4.71284">
        <ele>210.84901</ele>
        <time>2022-06-18T07:48:16.000Z</time>
      </trkpt>
      <trkpt lat="45.85553" lon="4.71283">
        <ele>209.92467</ele>
        <time>2022-06-18T07:48:17.000Z</time>
      </trkpt>
      <trkpt lat="45.85544" lon="4.71279">
        <ele>208.49543</ele>
        <time>2022-06-18T07:48:18.000Z</time>
      </trkpt>
      <trkpt lat="45.8554" lon="4.71273">
        <ele>206.89346</ele>
        <time>2022-06-18T07:48:19.000Z</time>
      </trkpt>
      <trkpt lat="45.8553" lon="4.71269">
        <ele>205.72297</ele>
        <time>2022-06-18T07:48:20.000Z</time>
      </trkpt>
      <trkpt lat="45.8552" lon="4.71267">
        <ele>204.94387</ele>
        <time>2022-06-18T07:48:21.000Z</time>
      </trkpt>
      <trkpt lat="45.85514" lon="4.71262">
        <ele>204.02125</ele>
        <time>2022-06-18T07:48:22.000Z</time>
      </trkpt>
      <trkpt lat="45.85507" lon="4.71259">
        <ele>203.43027</ele>
        <time>2022-06-18T07:48:23.000Z</time>
      </trkpt>
      <trkpt lat="45.85503" lon="4.71258">
        <ele>203.13592</ele>
        <time>2022-06-18T07:48:24.000Z</time>
      </trkpt>
      <trkpt lat="45.85499" lon="4.71255">
        <ele>202.81709</ele>
        <time>2022-06-18T07:48:25.000Z</time>
      </trkpt>
      <trkpt lat="45.85496" lon="4.71254">
        <ele>202.71076</ele>
        <time>2022-06-18T07:48:26.000Z</time>
      </trkpt>
      <trkpt lat="45.85494" lon="4.71254">
        <ele>202.6743</ele>
        <time>2022-06-18T07:48:27.000Z</time>
      </trkpt>
      <trkpt lat="45.85489" lon="4.71254">
        <ele>202.74335</ele>
        <time>2022-06-18T07:48:28.000Z</time>
      </trkpt>
      <trkpt lat="45.85485" lon="4.71252">
        <ele>202.5654</ele>
        <time>2022-06-18T07:48:29.000Z</time>
      </trkpt>
      <trkpt lat="45.85483" lon="4.71253">
        <ele>202.59722</ele>
        <time>2022-06-18T07:48:30.000Z</time>
      </trkpt>
      <trkpt lat="45.85482" lon="4.71249">
        <ele>202.35324</ele>
        <time>2022-06-18T07:48:33.000Z</time>
      </trkpt>
      <trkpt lat="45.85479" lon="4.71246">
        <ele>202.27352</ele>
        <time>2022-06-18T07:48:34.000Z</time>
      </trkpt>
      <trkpt lat="45.85477" lon="4.71242">
        <ele>202.24456</ele>
        <time>2022-06-18T07:48:35.000Z</time>
      </trkpt>
      <trkpt lat="45.85476" lon="4.7124">
        <ele>202.27715</ele>
        <time>2022-06-18T07:48:36.000Z</time>
      </trkpt>
      <trkpt lat="45.85475" lon="4.71235">
        <ele>202.40143</ele>
        <time>2022-06-18T07:48:37.000Z</time>
      </trkpt>
      <trkpt lat="45.85474" lon="4.7123">
        <ele>202.64466</ele>
        <time>2022-06-18T07:48:38.000Z</time>
      </trkpt>
      <trkpt lat="45.85474" lon="4.71225">
        <ele>202.91103</ele>
        <time>2022-06-18T07:48:39.000Z</time>
      </trkpt>
      <trkpt lat="45.85474" lon="4.7122">
        <ele>203.21327</ele>
        <time>2022-06-18T07:48:40.000Z</time>
      </trkpt>
      <trkpt lat="45.85474" lon="4.71214">
        <ele>203.5186</ele>
        <time>2022-06-18T07:48:41.000Z</time>
      </trkpt>
      <trkpt lat="45.85474" lon="4.7121">
        <ele>203.84027</ele>
        <time>2022-06-18T07:48:42.000Z</time>
      </trkpt>
      <trkpt lat="45.85474" lon="4.71206">
        <ele>204.13182</ele>
        <time>2022-06-18T07:48:43.000Z</time>
      </trkpt>
      <trkpt lat="45.85473" lon="4.71202">
        <ele>204.4242</ele>
        <time>2022-06-18T07:48:44.000Z</time>
      </trkpt>
      <trkpt lat="45.85474" lon="4.71199">
        <ele>204.70917</ele>
        <time>2022-06-18T07:48:45.000Z</time>
      </trkpt>
      <trkpt lat="45.85474" lon="4.71197">
        <ele>204.97055</ele>
        <time>2022-06-18T07:48:46.000Z</time>
      </trkpt>
      <trkpt lat="45.85475" lon="4.71192">
        <ele>205.49439</ele>
        <time>2022-06-18T07:48:48.000Z</time>
      </trkpt>
      <trkpt lat="45.85476" lon="4.71189">
        <ele>205.91171</ele>
        <time>2022-06-18T07:48:49.000Z</time>
      </trkpt>
      <trkpt lat="45.85478" lon="4.71185">
        <ele>206.46903</ele>
        <time>2022-06-18T07:48:50.000Z</time>
      </trkpt>
      <trkpt lat="45.8548" lon="4.71182">
        <ele>206.99682</ele>
        <time>2022-06-18T07:48:51.000Z</time>
      </trkpt>
      <trkpt lat="45.85482" lon="4.7118">
        <ele>207.54851</ele>
        <time>2022-06-18T07:48:52.000Z</time>
      </trkpt>
      <trkpt lat="45.85485" lon="4.71179">
        <ele>207.9562</ele>
        <time>2022-06-18T07:48:53.000Z</time>
      </trkpt>
      <trkpt lat="45.85487" lon="4.71178">
        <ele>208.34247</ele>
        <time>2022-06-18T07:48:54.000Z</time>
      </trkpt>
      <trkpt lat="45.85489" lon="4.71176">
        <ele>208.81342</ele>
        <time>2022-06-18T07:48:55.000Z</time>
      </trkpt>
      <trkpt lat="45.8549" lon="4.71173">
        <ele>209.41299</ele>
        <time>2022-06-18T07:48:56.000Z</time>
      </trkpt>
      <trkpt lat="45.85492" lon="4.71169">
        <ele>210.17278</ele>
        <time>2022-06-18T07:48:57.000Z</time>
      </trkpt>
      <trkpt lat="45.85493" lon="4.71165">
        <ele>210.88025</ele>
        <time>2022-06-18T07:48:58.000Z</time>
      </trkpt>
      <trkpt lat="45.85494" lon="4.71161">
        <ele>211.67938</ele>
        <time>2022-06-18T07:48:59.000Z</time>
      </trkpt>
      <trkpt lat="45.85496" lon="4.71157">
        <ele>212.43976</ele>
        <time>2022-06-18T07:49:00.000Z</time>
      </trkpt>
      <trkpt lat="45.85498" lon="4.71153">
        <ele>213.14206</ele>
        <time>2022-06-18T07:49:01.000Z</time>
      </trkpt>
      <trkpt lat="45.855" lon="4.7115">
        <ele>213.69845</ele>
        <time>2022-06-18T07:49:02.000Z</time>
      </trkpt>
      <trkpt lat="45.85502" lon="4.71147">
        <ele>214.25847</ele>
        <time>2022-06-18T07:49:03.000Z</time>
      </trkpt>
      <trkpt lat="45.85504" lon="4.71143">
        <ele>214.72044</ele>
        <time>2022-06-18T07:49:04.000Z</time>
      </trkpt>
      <trkpt lat="45.85506" lon="4.71139">
        <ele>215.16223</ele>
        <time>2022-06-18T07:49:05.000Z</time>
      </trkpt>
      <trkpt lat="45.85507" lon="4.71136">
        <ele>215.50361</ele>
        <time>2022-06-18T07:49:06.000Z</time>
      </trkpt>
      <trkpt lat="45.85509" lon="4.71133">
        <ele>215.73641</ele>
        <time>2022-06-18T07:49:07.000Z</time>
      </trkpt>
      <trkpt lat="45.8551" lon="4.71128">
        <ele>216.04055</ele>
        <time>2022-06-18T07:49:08.000Z</time>
      </trkpt>
      <trkpt lat="45.85511" lon="4.71124">
        <ele>216.35126</ele>
        <time>2022-06-18T07:49:09.000Z</time>
      </trkpt>
      <trkpt lat="45.85512" lon="4.71119">
        <ele>216.65753</ele>
        <time>2022-06-18T07:49:10.000Z</time>
      </trkpt>
      <trkpt lat="45.85512" lon="4.71114">
        <ele>216.99925</ele>
        <time>2022-06-18T07:49:11.000Z</time>
      </trkpt>
      <trkpt lat="45.85511" lon="4.7111">
        <ele>217.27942</ele>
        <time>2022-06-18T07:49:12.000Z</time>
      </trkpt>
      <trkpt lat="45.85511" lon="4.71105">
        <ele>217.53476</ele>
        <time>2022-06-18T07:49:13.000Z</time>
      </trkpt>
      <trkpt lat="45.85511" lon="4.71099">
        <ele>217.77432</ele>
        <time>2022-06-18T07:49:14.000Z</time>
      </trkpt>
      <trkpt lat="45.85511" lon="4.71095">
        <ele>217.95973</ele>
        <time>2022-06-18T07:49:15.000Z</time>
      </trkpt>
      <trkpt lat="45.85511" lon="4.7109">
        <ele>218.14593</ele>
        <time>2022-06-18T07:49:16.000Z</time>
      </trkpt>
      <trkpt lat="45.85511" lon="4.71085">
        <ele>218.3168</ele>
        <time>2022-06-18T07:49:17.000Z</time>
      </trkpt>
      <trkpt lat="45.85512" lon="4.7108">
        <ele>218.46172</ele>
        <time>2022-06-18T07:49:18.000Z</time>
      </trkpt>
      <trkpt lat="45.85512" lon="4.71075">
        <ele>218.59973</ele>
        <time>2022-06-18T07:49:19.000Z</time>
      </trkpt>
      <trkpt lat="45.85513" lon="4.71069">
        <ele>218.73023</ele>
        <time>2022-06-18T07:49:20.000Z</time>
      </trkpt>
      <trkpt lat="45.85513" lon="4.71064">
        <ele>218.85686</ele>
        <time>2022-06-18T07:49:21.000Z</time>
      </trkpt>
      <trkpt lat="45.85512" lon="4.71059">
        <ele>219.02301</ele>
        <time>2022-06-18T07:49:22.000Z</time>
      </trkpt>
      <trkpt lat="45.85511" lon="4.71053">
        <ele>219.20187</ele>
        <time>2022-06-18T07:49:23.000Z</time>
      </trkpt>
      <trkpt lat="45.85511" lon="4.71049">
        <ele>219.3602</ele>
        <time>2022-06-18T07:49:24.000Z</time>
      </trkpt>
      <trkpt lat="45.85511" lon="4.71045">
        <ele>219.48879</ele>
        <time>2022-06-18T07:49:25.000Z</time>
      </trkpt>
      <trkpt lat="45.85511" lon="4.71041">
        <ele>219.5727</ele>
        <time>2022-06-18T07:49:26.000Z</time>
      </trkpt>
      <trkpt lat="45.85512" lon="4.71037">
        <ele>219.66113</ele>
        <time>2022-06-18T07:49:27.000Z</time>
      </trkpt>
      <trkpt lat="45.85512" lon="4.71033">
        <ele>219.76331</ele>
        <time>2022-06-18T07:49:28.000Z</time>
      </trkpt>
      <trkpt lat="45.85511" lon="4.71029">
        <ele>219.89077</ele>
        <time>2022-06-18T07:49:29.000Z</time>
      </trkpt>
      <trkpt lat="45.8551" lon="4.71025">
        <ele>220.01789</ele>
        <time>2022-06-18T07:49:30.000Z</time>
      </trkpt>
      <trkpt lat="45.85508" lon="4.71021">
        <ele>220.16294</ele>
        <time>2022-06-18T07:49:31.000Z</time>
      </trkpt>
      <trkpt lat="45.85506" lon="4.71018">
        <ele>220.28708</ele>
        <time>2022-06-18T07:49:32.000Z</time>
      </trkpt>
      <trkpt lat="45.85503" lon="4.71015">
        <ele>220.38895</ele>
        <time>2022-06-18T07:49:33.000Z</time>
      </trkpt>
      <trkpt lat="45.855" lon="4.71013">
        <ele>220.46693</ele>
        <time>2022-06-18T07:49:34.000Z</time>
      </trkpt>
      <trkpt lat="45.85498" lon="4.71011">
        <ele>220.53351</ele>
        <time>2022-06-18T07:49:35.000Z</time>
      </trkpt>
      <trkpt lat="45.85495" lon="4.71007">
        <ele>220.60698</ele>
        <time>2022-06-18T07:49:36.000Z</time>
      </trkpt>
      <trkpt lat="45.85493" lon="4.71003">
        <ele>220.6848</ele>
        <time>2022-06-18T07:49:37.000Z</time>
      </trkpt>
      <trkpt lat="45.85492" lon="4.70998">
        <ele>220.7707</ele>
        <time>2022-06-18T07:49:38.000Z</time>
      </trkpt>
      <trkpt lat="45.85492" lon="4.70993">
        <ele>220.86138</ele>
        <time>2022-06-18T07:49:39.000Z</time>
      </trkpt>
      <trkpt lat="45.85492" lon="4.70987">
        <ele>220.95747</ele>
        <time>2022-06-18T07:49:40.000Z</time>
      </trkpt>
      <trkpt lat="45.85492" lon="4.70981">
        <ele>221.05639</ele>
        <time>2022-06-18T07:49:41.000Z</time>
      </trkpt>
      <trkpt lat="45.85492" lon="4.70975">
        <ele>221.14676</ele>
        <time>2022-06-18T07:49:42.000Z</time>
      </trkpt>
      <trkpt lat="45.85493" lon="4.70969">
        <ele>221.23051</ele>
        <time>2022-06-18T07:49:43.000Z</time>
      </trkpt>
      <trkpt lat="45.85493" lon="4.70964">
        <ele>221.30693</ele>
        <time>2022-06-18T07:49:44.000Z</time>
      </trkpt>
      <trkpt lat="45.85494" lon="4.70958">
        <ele>221.37387</ele>
        <time>2022-06-18T07:49:45.000Z</time>
      </trkpt>
      <trkpt lat="45.85494" lon="4.70954">
        <ele>221.43692</ele>
        <time>2022-06-18T07:49:46.000Z</time>
      </trkpt>
      <trkpt lat="45.85495" lon="4.7095">
        <ele>221.49211</ele>
        <time>2022-06-18T07:49:47.000Z</time>
      </trkpt>
      <trkpt lat="45.85495" lon="4.70946">
        <ele>221.53645</ele>
        <time>2022-06-18T07:49:48.000Z</time>
      </trkpt>
      <trkpt lat="45.85496" lon="4.70941">
        <ele>221.58971</ele>
        <time>2022-06-18T07:49:50.000Z</time>
      </trkpt>
      <trkpt lat="45.85496" lon="4.70939">
        <ele>221.61098</ele>
        <time>2022-06-18T07:49:51.000Z</time>
      </trkpt>
      <trkpt lat="45.85497" lon="4.70936">
        <ele>221.63196</ele>
        <time>2022-06-18T07:49:52.000Z</time>
      </trkpt>
      <trkpt lat="45.85497" lon="4.70932">
        <ele>221.66347</ele>
        <time>2022-06-18T07:49:54.000Z</time>
      </trkpt>
      <trkpt lat="45.85497" lon="4.70932">
        <ele>221.66347</ele>
        <time>2022-06-18T07:49:54.000Z</time>
      </trkpt>
      <trkpt lat="45.85497" lon="4.70929">
        <ele>221.67081</ele>
        <time>2022-06-18T07:49:55.000Z</time>
      </trkpt>
      <trkpt lat="45.85497" lon="4.70926">
        <ele>221.6851</ele>
        <time>2022-06-18T07:49:56.000Z</time>
      </trkpt>
      <trkpt lat="45.85496" lon="4.70923">
        <ele>221.73292</ele>
        <time>2022-06-18T07:49:57.000Z</time>
      </trkpt>
      <trkpt lat="45.85494" lon="4.70921">
        <ele>221.80001</ele>
        <time>2022-06-18T07:49:58.000Z</time>
      </trkpt>
      <trkpt lat="45.85491" lon="4.70919">
        <ele>221.87661</ele>
        <time>2022-06-18T07:49:59.000Z</time>
      </trkpt>
      <trkpt lat="45.85489" lon="4.70917">
        <ele>221.93862</ele>
        <time>2022-06-18T07:50:00.000Z</time>
      </trkpt>
      <trkpt lat="45.85488" lon="4.70915">
        <ele>221.99977</ele>
        <time>2022-06-18T07:50:01.000Z</time>
      </trkpt>
      <trkpt lat="45.85486" lon="4.70911">
        <ele>222.0583</ele>
        <time>2022-06-18T07:50:02.000Z</time>
      </trkpt>
      <trkpt lat="45.85486" lon="4.70907">
        <ele>222.07607</ele>
        <time>2022-06-18T07:50:03.000Z</time>
      </trkpt>
      <trkpt lat="45.85486" lon="4.70903">
        <ele>222.08634</ele>
        <time>2022-06-18T07:50:04.000Z</time>
      </trkpt>
      <trkpt lat="45.85487" lon="4.70899">
        <ele>222.04592</ele>
        <time>2022-06-18T07:50:05.000Z</time>
      </trkpt>
      <trkpt lat="45.85488" lon="4.70895">
        <ele>222.00408</ele>
        <time>2022-06-18T07:50:06.000Z</time>
      </trkpt>
      <trkpt lat="45.85488" lon="4.70891">
        <ele>221.95243</ele>
        <time>2022-06-18T07:50:07.000Z</time>
      </trkpt>
      <trkpt lat="45.85487" lon="4.70887">
        <ele>221.93158</ele>
        <time>2022-06-18T07:50:08.000Z</time>
      </trkpt>
      <trkpt lat="45.85486" lon="4.70883">
        <ele>221.93995</ele>
        <time>2022-06-18T07:50:09.000Z</time>
      </trkpt>
      <trkpt lat="45.85484" lon="4.70881">
        <ele>221.9645</ele>
        <time>2022-06-18T07:50:10.000Z</time>
      </trkpt>
      <trkpt lat="45.85483" lon="4.70879">
        <ele>221.99766</ele>
        <time>2022-06-18T07:50:11.000Z</time>
      </trkpt>
      <trkpt lat="45.85481" lon="4.70877">
        <ele>222.03267</ele>
        <time>2022-06-18T07:50:12.000Z</time>
      </trkpt>
      <trkpt lat="45.8548" lon="4.70875">
        <ele>222.05183</ele>
        <time>2022-06-18T07:50:13.000Z</time>
      </trkpt>
      <trkpt lat="45.85479" lon="4.70872">
        <ele>222.0533</ele>
        <time>2022-06-18T07:50:14.000Z</time>
      </trkpt>
      <trkpt lat="45.85477" lon="4.70868">
        <ele>222.02245</ele>
        <time>2022-06-18T07:50:15.000Z</time>
      </trkpt>
      <trkpt lat="45.85476" lon="4.70864">
        <ele>222.00233</ele>
        <time>2022-06-18T07:50:16.000Z</time>
      </trkpt>
      <trkpt lat="45.85474" lon="4.70859">
        <ele>221.96802</ele>
        <time>2022-06-18T07:50:17.000Z</time>
      </trkpt>
      <trkpt lat="45.85472" lon="4.70855">
        <ele>221.92664</ele>
        <time>2022-06-18T07:50:18.000Z</time>
      </trkpt>
      <trkpt lat="45.85469" lon="4.7085">
        <ele>221.90529</ele>
        <time>2022-06-18T07:50:19.000Z</time>
      </trkpt>
      <trkpt lat="45.85467" lon="4.70844">
        <ele>221.88703</ele>
        <time>2022-06-18T07:50:20.000Z</time>
      </trkpt>
      <trkpt lat="45.85464" lon="4.70839">
        <ele>221.86818</ele>
        <time>2022-06-18T07:50:21.000Z</time>
      </trkpt>
      <trkpt lat="45.85462" lon="4.70833">
        <ele>221.8344</ele>
        <time>2022-06-18T07:50:22.000Z</time>
      </trkpt>
      <trkpt lat="45.85461" lon="4.70827">
        <ele>221.78841</ele>
        <time>2022-06-18T07:50:23.000Z</time>
      </trkpt>
      <trkpt lat="45.8546" lon="4.70822">
        <ele>221.74159</ele>
        <time>2022-06-18T07:50:24.000Z</time>
      </trkpt>
      <trkpt lat="45.85459" lon="4.70816">
        <ele>221.65307</ele>
        <time>2022-06-18T07:50:25.000Z</time>
      </trkpt>
      <trkpt lat="45.85458" lon="4.70811">
        <ele>221.5342</ele>
        <time>2022-06-18T07:50:26.000Z</time>
      </trkpt>
      <trkpt lat="45.85458" lon="4.70804">
        <ele>221.3531</ele>
        <time>2022-06-18T07:50:27.000Z</time>
      </trkpt>
      <trkpt lat="45.85459" lon="4.70797">
        <ele>221.1006</ele>
        <time>2022-06-18T07:50:28.000Z</time>
      </trkpt>
      <trkpt lat="45.85459" lon="4.70791">
        <ele>220.8553</ele>
        <time>2022-06-18T07:50:29.000Z</time>
      </trkpt>
      <trkpt lat="45.85458" lon="4.70784">
        <ele>220.62463</ele>
        <time>2022-06-18T07:50:30.000Z</time>
      </trkpt>
      <trkpt lat="45.85461" lon="4.70775">
        <ele>219.95424</ele>
        <time>2022-06-18T07:50:31.000Z</time>
      </trkpt>
      <trkpt lat="45.85459" lon="4.70771">
        <ele>219.93312</ele>
        <time>2022-06-18T07:50:32.000Z</time>
      </trkpt>
      <trkpt lat="45.85456" lon="4.70767">
        <ele>220.06214</ele>
        <time>2022-06-18T07:50:33.000Z</time>
      </trkpt>
      <trkpt lat="45.85453" lon="4.70762">
        <ele>220.11565</ele>
        <time>2022-06-18T07:50:34.000Z</time>
      </trkpt>
      <trkpt lat="45.85452" lon="4.70755">
        <ele>219.79159</ele>
        <time>2022-06-18T07:50:35.000Z</time>
      </trkpt>
      <trkpt lat="45.85452" lon="4.70747">
        <ele>219.34095</ele>
        <time>2022-06-18T07:50:36.000Z</time>
      </trkpt>
      <trkpt lat="45.85449" lon="4.70742">
        <ele>219.24983</ele>
        <time>2022-06-18T07:50:37.000Z</time>
      </trkpt>
      <trkpt lat="45.85447" lon="4.70735">
        <ele>219.11251</ele>
        <time>2022-06-18T07:50:38.000Z</time>
      </trkpt>
      <trkpt lat="45.85445" lon="4.70728">
        <ele>218.81891</ele>
        <time>2022-06-18T07:50:39.000Z</time>
      </trkpt>
      <trkpt lat="45.85442" lon="4.70722">
        <ele>218.65721</ele>
        <time>2022-06-18T07:50:40.000Z</time>
      </trkpt>
      <trkpt lat="45.85441" lon="4.70714">
        <ele>218.1945</ele>
        <time>2022-06-18T07:50:41.000Z</time>
      </trkpt>
      <trkpt lat="45.85439" lon="4.70705">
        <ele>217.78836</ele>
        <time>2022-06-18T07:50:42.000Z</time>
      </trkpt>
      <trkpt lat="45.85437" lon="4.70696">
        <ele>217.27968</ele>
        <time>2022-06-18T07:50:43.000Z</time>
      </trkpt>
      <trkpt lat="45.85436" lon="4.70687">
        <ele>216.66507</ele>
        <time>2022-06-18T07:50:44.000Z</time>
      </trkpt>
      <trkpt lat="45.85434" lon="4.7068">
        <ele>216.28808</ele>
        <time>2022-06-18T07:50:45.000Z</time>
      </trkpt>
      <trkpt lat="45.85432" lon="4.70672">
        <ele>215.96152</ele>
        <time>2022-06-18T07:50:46.000Z</time>
      </trkpt>
      <trkpt lat="45.85429" lon="4.70665">
        <ele>215.71297</ele>
        <time>2022-06-18T07:50:47.000Z</time>
      </trkpt>
      <trkpt lat="45.85428" lon="4.70654">
        <ele>214.95053</ele>
        <time>2022-06-18T07:50:48.000Z</time>
      </trkpt>
      <trkpt lat="45.85429" lon="4.70644">
        <ele>214.0411</ele>
        <time>2022-06-18T07:50:49.000Z</time>
      </trkpt>
      <trkpt lat="45.85427" lon="4.70637">
        <ele>213.95974</ele>
        <time>2022-06-18T07:50:50.000Z</time>
      </trkpt>
      <trkpt lat="45.85424" lon="4.70631">
        <ele>214.07039</ele>
        <time>2022-06-18T07:50:51.000Z</time>
      </trkpt>
      <trkpt lat="45.85425" lon="4.70623">
        <ele>213.50126</ele>
        <time>2022-06-18T07:50:52.000Z</time>
      </trkpt>
      <trkpt lat="45.85428" lon="4.70615">
        <ele>212.42278</ele>
        <time>2022-06-18T07:50:53.000Z</time>
      </trkpt>
      <trkpt lat="45.85431" lon="4.70607">
        <ele>211.61352</ele>
        <time>2022-06-18T07:50:54.000Z</time>
      </trkpt>
      <trkpt lat="45.85435" lon="4.70602">
        <ele>210.87376</ele>
        <time>2022-06-18T07:50:55.000Z</time>
      </trkpt>
      <trkpt lat="45.8544" lon="4.70596">
        <ele>209.97574</ele>
        <time>2022-06-18T07:50:56.000Z</time>
      </trkpt>
      <trkpt lat="45.85444" lon="4.70596">
        <ele>209.36931</ele>
        <time>2022-06-18T07:50:57.000Z</time>
      </trkpt>
      <trkpt lat="45.85455" lon="4.70602">
        <ele>208.06339</ele>
        <time>2022-06-18T07:50:58.000Z</time>
      </trkpt>
      <trkpt lat="45.85461" lon="4.70602">
        <ele>207.27424</ele>
        <time>2022-06-18T07:50:59.000Z</time>
      </trkpt>
      <trkpt lat="45.85472" lon="4.70613">
        <ele>206.43718</ele>
        <time>2022-06-18T07:51:00.000Z</time>
      </trkpt>
      <trkpt lat="45.85482" lon="4.70615">
        <ele>205.39681</ele>
        <time>2022-06-18T07:51:01.000Z</time>
      </trkpt>
      <trkpt lat="45.85488" lon="4.70619">
        <ele>204.93123</ele>
        <time>2022-06-18T07:51:02.000Z</time>
      </trkpt>
      <trkpt lat="45.85495" lon="4.70624">
        <ele>204.38544</ele>
        <time>2022-06-18T07:51:03.000Z</time>
      </trkpt>
      <trkpt lat="45.85502" lon="4.70627">
        <ele>203.88338</ele>
        <time>2022-06-18T07:51:04.000Z</time>
      </trkpt>
      <trkpt lat="45.85509" lon="4.70632">
        <ele>203.4018</ele>
        <time>2022-06-18T07:51:05.000Z</time>
      </trkpt>
      <trkpt lat="45.85515" lon="4.70635">
        <ele>202.8189</ele>
        <time>2022-06-18T07:51:06.000Z</time>
      </trkpt>
      <trkpt lat="45.8552" lon="4.70632">
        <ele>202.113</ele>
        <time>2022-06-18T07:51:07.000Z</time>
      </trkpt>
      <trkpt lat="45.85523" lon="4.70636">
        <ele>201.99949</ele>
        <time>2022-06-18T07:51:08.000Z</time>
      </trkpt>
      <trkpt lat="45.85523" lon="4.7064">
        <ele>202.09941</ele>
        <time>2022-06-18T07:51:09.000Z</time>
      </trkpt>
      <trkpt lat="45.85527" lon="4.70643">
        <ele>201.79107</ele>
        <time>2022-06-18T07:51:10.000Z</time>
      </trkpt>
      <trkpt lat="45.85522" lon="4.70641">
        <ele>202.31118</ele>
        <time>2022-06-18T07:51:11.000Z</time>
      </trkpt>
      <trkpt lat="45.85513" lon="4.7064">
        <ele>203.31157</ele>
        <time>2022-06-18T07:51:12.000Z</time>
      </trkpt>
      <trkpt lat="45.85511" lon="4.70639">
        <ele>203.55903</ele>
        <time>2022-06-18T07:51:14.000Z</time>
      </trkpt>
      <trkpt lat="45.85513" lon="4.70633">
        <ele>202.98178</ele>
        <time>2022-06-18T07:51:16.000Z</time>
      </trkpt>
      <trkpt lat="45.85508" lon="4.70633">
        <ele>203.53937</ele>
        <time>2022-06-18T07:51:18.000Z</time>
      </trkpt>
      <trkpt lat="45.85509" lon="4.70638">
        <ele>203.77839</ele>
        <time>2022-06-18T07:51:21.000Z</time>
      </trkpt>
      <trkpt lat="45.85511" lon="4.7064">
        <ele>203.63901</ele>
        <time>2022-06-18T07:51:23.000Z</time>
      </trkpt>
      <trkpt lat="45.85512" lon="4.70638">
        <ele>203.3229</ele>
        <time>2022-06-18T07:51:26.000Z</time>
      </trkpt>
      <trkpt lat="45.85513" lon="4.7064">
        <ele>203.35081</ele>
        <time>2022-06-18T07:51:39.000Z</time>
      </trkpt>
      <trkpt lat="45.85516" lon="4.70643">
        <ele>203.2431</ele>
        <time>2022-06-18T07:51:45.000Z</time>
      </trkpt>
      <trkpt lat="45.85518" lon="4.70646">
        <ele>203.10844</ele>
        <time>2022-06-18T07:51:46.000Z</time>
      </trkpt>
      <trkpt lat="45.85521" lon="4.7065">
        <ele>202.82354</ele>
        <time>2022-06-18T07:51:47.000Z</time>
      </trkpt>
      <trkpt lat="45.85526" lon="4.70653">
        <ele>202.46338</ele>
        <time>2022-06-18T07:51:48.000Z</time>
      </trkpt>
      <trkpt lat="45.85538" lon="4.70659">
        <ele>200.938</ele>
        <time>2022-06-18T07:51:49.000Z</time>
      </trkpt>
      <trkpt lat="45.85541" lon="4.70661">
        <ele>200.70782</ele>
        <time>2022-06-18T07:51:50.000Z</time>
      </trkpt>
      <trkpt lat="45.85545" lon="4.70663">
        <ele>200.08198</ele>
        <time>2022-06-18T07:51:51.000Z</time>
      </trkpt>
      <trkpt lat="45.85548" lon="4.70662">
        <ele>199.41455</ele>
        <time>2022-06-18T07:51:52.000Z</time>
      </trkpt>
      <trkpt lat="45.8555" lon="4.70655">
        <ele>198.73156</ele>
        <time>2022-06-18T07:51:53.000Z</time>
      </trkpt>
      <trkpt lat="45.85553" lon="4.70652">
        <ele>197.97315</ele>
        <time>2022-06-18T07:51:54.000Z</time>
      </trkpt>
      <trkpt lat="45.85549" lon="4.70642">
        <ele>198.40547</ele>
        <time>2022-06-18T07:51:55.000Z</time>
      </trkpt>
      <trkpt lat="45.8555" lon="4.70638">
        <ele>198.23229</ele>
        <time>2022-06-18T07:51:56.000Z</time>
      </trkpt>
      <trkpt lat="45.85548" lon="4.70631">
        <ele>198.44584</ele>
        <time>2022-06-18T07:51:57.000Z</time>
      </trkpt>
      <trkpt lat="45.85546" lon="4.70622">
        <ele>198.69812</ele>
        <time>2022-06-18T07:51:58.000Z</time>
      </trkpt>
      <trkpt lat="45.85544" lon="4.70615">
        <ele>198.85702</ele>
        <time>2022-06-18T07:51:59.000Z</time>
      </trkpt>
      <trkpt lat="45.85545" lon="4.70605">
        <ele>198.64693</ele>
        <time>2022-06-18T07:52:00.000Z</time>
      </trkpt>
      <trkpt lat="45.85544" lon="4.70597">
        <ele>198.49367</ele>
        <time>2022-06-18T07:52:01.000Z</time>
      </trkpt>
      <trkpt lat="45.85542" lon="4.70587">
        <ele>198.27356</ele>
        <time>2022-06-18T07:52:02.000Z</time>
      </trkpt>
      <trkpt lat="45.85541" lon="4.70579">
        <ele>198.13602</ele>
        <time>2022-06-18T07:52:03.000Z</time>
      </trkpt>
      <trkpt lat="45.85538" lon="4.70568">
        <ele>198.03056</ele>
        <time>2022-06-18T07:52:04.000Z</time>
      </trkpt>
      <trkpt lat="45.85538" lon="4.70562">
        <ele>197.88977</ele>
        <time>2022-06-18T07:52:05.000Z</time>
      </trkpt>
      <trkpt lat="45.85538" lon="4.70555">
        <ele>197.73646</ele>
        <time>2022-06-18T07:52:06.000Z</time>
      </trkpt>
      <trkpt lat="45.85536" lon="4.70548">
        <ele>197.60578</ele>
        <time>2022-06-18T07:52:07.000Z</time>
      </trkpt>
      <trkpt lat="45.85534" lon="4.70541">
        <ele>197.4513</ele>
        <time>2022-06-18T07:52:08.000Z</time>
      </trkpt>
      <trkpt lat="45.85534" lon="4.70533">
        <ele>197.31962</ele>
        <time>2022-06-18T07:52:09.000Z</time>
      </trkpt>
      <trkpt lat="45.85532" lon="4.70527">
        <ele>197.25422</ele>
        <time>2022-06-18T07:52:10.000Z</time>
      </trkpt>
      <trkpt lat="45.85529" lon="4.70517">
        <ele>197.2494</ele>
        <time>2022-06-18T07:52:11.000Z</time>
      </trkpt>
      <trkpt lat="45.85528" lon="4.70511">
        <ele>197.26503</ele>
        <time>2022-06-18T07:52:12.000Z</time>
      </trkpt>
      <trkpt lat="45.85527" lon="4.70505">
        <ele>197.30764</ele>
        <time>2022-06-18T07:52:13.000Z</time>
      </trkpt>
      <trkpt lat="45.85526" lon="4.70498">
        <ele>197.38005</ele>
        <time>2022-06-18T07:52:14.000Z</time>
      </trkpt>
      <trkpt lat="45.85526" lon="4.70492">
        <ele>197.41584</ele>
        <time>2022-06-18T07:52:15.000Z</time>
      </trkpt>
      <trkpt lat="45.85527" lon="4.70483">
        <ele>197.39979</ele>
        <time>2022-06-18T07:52:16.000Z</time>
      </trkpt>
      <trkpt lat="45.85525" lon="4.70478">
        <ele>197.48896</ele>
        <time>2022-06-18T07:52:17.000Z</time>
      </trkpt>
      <trkpt lat="45.85523" lon="4.70472">
        <ele>197.49763</ele>
        <time>2022-06-18T07:52:18.000Z</time>
      </trkpt>
      <trkpt lat="45.85521" lon="4.70467">
        <ele>197.49263</ele>
        <time>2022-06-18T07:52:19.000Z</time>
      </trkpt>
      <trkpt lat="45.85521" lon="4.70459">
        <ele>197.41052</ele>
        <time>2022-06-18T07:52:20.000Z</time>
      </trkpt>
      <trkpt lat="45.85518" lon="4.70453">
        <ele>197.43846</ele>
        <time>2022-06-18T07:52:21.000Z</time>
      </trkpt>
      <trkpt lat="45.85519" lon="4.70446">
        <ele>197.34683</ele>
        <time>2022-06-18T07:52:22.000Z</time>
      </trkpt>
      <trkpt lat="45.85519" lon="4.7044">
        <ele>197.28792</ele>
        <time>2022-06-18T07:52:23.000Z</time>
      </trkpt>
      <trkpt lat="45.85518" lon="4.70432">
        <ele>197.28382</ele>
        <time>2022-06-18T07:52:24.000Z</time>
      </trkpt>
      <trkpt lat="45.85517" lon="4.70425">
        <ele>197.21828</ele>
        <time>2022-06-18T07:52:25.000Z</time>
      </trkpt>
      <trkpt lat="45.85516" lon="4.70419">
        <ele>197.23141</ele>
        <time>2022-06-18T07:52:26.000Z</time>
      </trkpt>
      <trkpt lat="45.85519" lon="4.70413">
        <ele>197.04089</ele>
        <time>2022-06-18T07:52:27.000Z</time>
      </trkpt>
      <trkpt lat="45.85514" lon="4.70406">
        <ele>197.14395</ele>
        <time>2022-06-18T07:52:28.000Z</time>
      </trkpt>
      <trkpt lat="45.85518" lon="4.70399">
        <ele>196.89262</ele>
        <time>2022-06-18T07:52:29.000Z</time>
      </trkpt>
      <trkpt lat="45.85514" lon="4.70391">
        <ele>196.90848</ele>
        <time>2022-06-18T07:52:30.000Z</time>
      </trkpt>
      <trkpt lat="45.8551" lon="4.70384">
        <ele>196.85454</ele>
        <time>2022-06-18T07:52:31.000Z</time>
      </trkpt>
      <trkpt lat="45.85506" lon="4.70376">
        <ele>196.72321</ele>
        <time>2022-06-18T07:52:32.000Z</time>
      </trkpt>
      <trkpt lat="45.85501" lon="4.70371">
        <ele>196.7187</ele>
        <time>2022-06-18T07:52:33.000Z</time>
      </trkpt>
      <trkpt lat="45.85498" lon="4.70365">
        <ele>196.67392</ele>
        <time>2022-06-18T07:52:34.000Z</time>
      </trkpt>
      <trkpt lat="45.85494" lon="4.70358">
        <ele>196.75445</ele>
        <time>2022-06-18T07:52:35.000Z</time>
      </trkpt>
      <trkpt lat="45.85489" lon="4.70349">
        <ele>196.97246</ele>
        <time>2022-06-18T07:52:36.000Z</time>
      </trkpt>
      <trkpt lat="45.85486" lon="4.7034">
        <ele>197.11127</ele>
        <time>2022-06-18T07:52:37.000Z</time>
      </trkpt>
      <trkpt lat="45.85486" lon="4.70335">
        <ele>197.05465</ele>
        <time>2022-06-18T07:52:38.000Z</time>
      </trkpt>
      <trkpt lat="45.85484" lon="4.70328">
        <ele>197.11008</ele>
        <time>2022-06-18T07:52:39.000Z</time>
      </trkpt>
      <trkpt lat="45.85484" lon="4.70323">
        <ele>197.07103</ele>
        <time>2022-06-18T07:52:40.000Z</time>
      </trkpt>
      <trkpt lat="45.8548" lon="4.70316">
        <ele>197.11443</ele>
        <time>2022-06-18T07:52:41.000Z</time>
      </trkpt>
      <trkpt lat="45.85476" lon="4.70307">
        <ele>196.925</ele>
        <time>2022-06-18T07:52:42.000Z</time>
      </trkpt>
      <trkpt lat="45.85474" lon="4.70299">
        <ele>196.76773</ele>
        <time>2022-06-18T07:52:43.000Z</time>
      </trkpt>
      <trkpt lat="45.85471" lon="4.70294">
        <ele>196.76504</ele>
        <time>2022-06-18T07:52:44.000Z</time>
      </trkpt>
      <trkpt lat="45.85467" lon="4.70288">
        <ele>196.95732</ele>
        <time>2022-06-18T07:52:45.000Z</time>
      </trkpt>
      <trkpt lat="45.85464" lon="4.70284">
        <ele>197.17539</ele>
        <time>2022-06-18T07:52:46.000Z</time>
      </trkpt>
      <trkpt lat="45.8546" lon="4.7028">
        <ele>197.38693</ele>
        <time>2022-06-18T07:52:47.000Z</time>
      </trkpt>
      <trkpt lat="45.85454" lon="4.70275">
        <ele>197.52507</ele>
        <time>2022-06-18T07:52:48.000Z</time>
      </trkpt>
      <trkpt lat="45.85451" lon="4.70272">
        <ele>197.55503</ele>
        <time>2022-06-18T07:52:49.000Z</time>
      </trkpt>
      <trkpt lat="45.85447" lon="4.70268">
        <ele>197.51124</ele>
        <time>2022-06-18T07:52:50.000Z</time>
      </trkpt>
      <trkpt lat="45.85442" lon="4.70263">
        <ele>197.41147</ele>
        <time>2022-06-18T07:52:51.000Z</time>
      </trkpt>
      <trkpt lat="45.85438" lon="4.70258">
        <ele>197.35398</ele>
        <time>2022-06-18T07:52:52.000Z</time>
      </trkpt>
      <trkpt lat="45.85434" lon="4.70252">
        <ele>197.33391</ele>
        <time>2022-06-18T07:52:53.000Z</time>
      </trkpt>
      <trkpt lat="45.8543" lon="4.70249">
        <ele>197.56419</ele>
        <time>2022-06-18T07:52:54.000Z</time>
      </trkpt>
      <trkpt lat="45.85426" lon="4.70247">
        <ele>197.79872</ele>
        <time>2022-06-18T07:52:55.000Z</time>
      </trkpt>
      <trkpt lat="45.85422" lon="4.70243">
        <ele>198.02068</ele>
        <time>2022-06-18T07:52:56.000Z</time>
      </trkpt>
      <trkpt lat="45.85418" lon="4.7024">
        <ele>198.20239</ele>
        <time>2022-06-18T07:52:57.000Z</time>
      </trkpt>
      <trkpt lat="45.85414" lon="4.70237">
        <ele>198.27471</ele>
        <time>2022-06-18T07:52:58.000Z</time>
      </trkpt>
      <trkpt lat="45.8541" lon="4.70235">
        <ele>198.29434</ele>
        <time>2022-06-18T07:52:59.000Z</time>
      </trkpt>
      <trkpt lat="45.85407" lon="4.70232">
        <ele>198.17227</ele>
        <time>2022-06-18T07:53:00.000Z</time>
      </trkpt>
      <trkpt lat="45.85402" lon="4.70229">
        <ele>198.09222</ele>
        <time>2022-06-18T07:53:01.000Z</time>
      </trkpt>
      <trkpt lat="45.85398" lon="4.70222">
        <ele>197.59142</ele>
        <time>2022-06-18T07:53:02.000Z</time>
      </trkpt>
      <trkpt lat="45.85395" lon="4.7022">
        <ele>197.44348</ele>
        <time>2022-06-18T07:53:03.000Z</time>
      </trkpt>
      <trkpt lat="45.85392" lon="4.70217">
        <ele>197.35289</ele>
        <time>2022-06-18T07:53:04.000Z</time>
      </trkpt>
      <trkpt lat="45.85387" lon="4.70215">
        <ele>197.31736</ele>
        <time>2022-06-18T07:53:05.000Z</time>
      </trkpt>
      <trkpt lat="45.85382" lon="4.70211">
        <ele>197.29624</ele>
        <time>2022-06-18T07:53:06.000Z</time>
      </trkpt>
      <trkpt lat="45.8538" lon="4.70206">
        <ele>197.3845</ele>
        <time>2022-06-18T07:53:07.000Z</time>
      </trkpt>
      <trkpt lat="45.85378" lon="4.70202">
        <ele>197.55952</ele>
        <time>2022-06-18T07:53:08.000Z</time>
      </trkpt>
      <trkpt lat="45.85375" lon="4.70195">
        <ele>197.83342</ele>
        <time>2022-06-18T07:53:09.000Z</time>
      </trkpt>
      <trkpt lat="45.85373" lon="4.70188">
        <ele>198.02365</ele>
        <time>2022-06-18T07:53:10.000Z</time>
      </trkpt>
      <trkpt lat="45.85372" lon="4.70182">
        <ele>198.01627</ele>
        <time>2022-06-18T07:53:11.000Z</time>
      </trkpt>
      <trkpt lat="45.8537" lon="4.70176">
        <ele>197.91803</ele>
        <time>2022-06-18T07:53:12.000Z</time>
      </trkpt>
      <trkpt lat="45.8537" lon="4.70169">
        <ele>197.73803</ele>
        <time>2022-06-18T07:53:13.000Z</time>
      </trkpt>
      <trkpt lat="45.85369" lon="4.70163">
        <ele>197.59225</ele>
        <time>2022-06-18T07:53:14.000Z</time>
      </trkpt>
      <trkpt lat="45.85367" lon="4.70154">
        <ele>197.48024</ele>
        <time>2022-06-18T07:53:15.000Z</time>
      </trkpt>
      <trkpt lat="45.85366" lon="4.70149">
        <ele>197.45504</ele>
        <time>2022-06-18T07:53:16.000Z</time>
      </trkpt>
      <trkpt lat="45.85363" lon="4.70142">
        <ele>197.53493</ele>
        <time>2022-06-18T07:53:17.000Z</time>
      </trkpt>
      <trkpt lat="45.85359" lon="4.70135">
        <ele>197.6627</ele>
        <time>2022-06-18T07:53:18.000Z</time>
      </trkpt>
      <trkpt lat="45.85357" lon="4.70129">
        <ele>197.71984</ele>
        <time>2022-06-18T07:53:19.000Z</time>
      </trkpt>
      <trkpt lat="45.85354" lon="4.70121">
        <ele>197.76166</ele>
        <time>2022-06-18T07:53:20.000Z</time>
      </trkpt>
      <trkpt lat="45.85352" lon="4.70115">
        <ele>197.81859</ele>
        <time>2022-06-18T07:53:21.000Z</time>
      </trkpt>
      <trkpt lat="45.85349" lon="4.70112">
        <ele>197.9853</ele>
        <time>2022-06-18T07:53:22.000Z</time>
      </trkpt>
      <trkpt lat="45.85347" lon="4.70103">
        <ele>198.24083</ele>
        <time>2022-06-18T07:53:23.000Z</time>
      </trkpt>
      <trkpt lat="45.85345" lon="4.70096">
        <ele>198.4701</ele>
        <time>2022-06-18T07:53:24.000Z</time>
      </trkpt>
      <trkpt lat="45.85342" lon="4.70089">
        <ele>198.87591</ele>
        <time>2022-06-18T07:53:25.000Z</time>
      </trkpt>
      <trkpt lat="45.8534" lon="4.70083">
        <ele>199.15388</ele>
        <time>2022-06-18T07:53:26.000Z</time>
      </trkpt>
      <trkpt lat="45.85339" lon="4.70077">
        <ele>199.16415</ele>
        <time>2022-06-18T07:53:27.000Z</time>
      </trkpt>
      <trkpt lat="45.85336" lon="4.70071">
        <ele>199.46762</ele>
        <time>2022-06-18T07:53:28.000Z</time>
      </trkpt>
      <trkpt lat="45.85332" lon="4.70063">
        <ele>199.68416</ele>
        <time>2022-06-18T07:53:29.000Z</time>
      </trkpt>
      <trkpt lat="45.85333" lon="4.70058">
        <ele>199.49783</ele>
        <time>2022-06-18T07:53:30.000Z</time>
      </trkpt>
      <trkpt lat="45.85333" lon="4.70048">
        <ele>199.22467</ele>
        <time>2022-06-18T07:53:31.000Z</time>
      </trkpt>
      <trkpt lat="45.85334" lon="4.70045">
        <ele>199.06779</ele>
        <time>2022-06-18T07:53:32.000Z</time>
      </trkpt>
      <trkpt lat="45.85335" lon="4.70042">
        <ele>198.88911</ele>
        <time>2022-06-18T07:53:33.000Z</time>
      </trkpt>
      <trkpt lat="45.85333" lon="4.70035">
        <ele>198.83704</ele>
        <time>2022-06-18T07:53:34.000Z</time>
      </trkpt>
      <trkpt lat="45.85331" lon="4.70026">
        <ele>198.64133</ele>
        <time>2022-06-18T07:53:35.000Z</time>
      </trkpt>
      <trkpt lat="45.85328" lon="4.70019">
        <ele>198.71697</ele>
        <time>2022-06-18T07:53:36.000Z</time>
      </trkpt>
      <trkpt lat="45.85327" lon="4.70011">
        <ele>198.75821</ele>
        <time>2022-06-18T07:53:37.000Z</time>
      </trkpt>
      <trkpt lat="45.85327" lon="4.70003">
        <ele>198.79194</ele>
        <time>2022-06-18T07:53:38.000Z</time>
      </trkpt>
      <trkpt lat="45.85325" lon="4.69996">
        <ele>198.94224</ele>
        <time>2022-06-18T07:53:39.000Z</time>
      </trkpt>
      <trkpt lat="45.85325" lon="4.69992">
        <ele>199.02787</ele>
        <time>2022-06-18T07:53:40.000Z</time>
      </trkpt>
      <trkpt lat="45.85323" lon="4.69984">
        <ele>199.16699</ele>
        <time>2022-06-18T07:53:41.000Z</time>
      </trkpt>
      <trkpt lat="45.8532" lon="4.69978">
        <ele>199.39158</ele>
        <time>2022-06-18T07:53:42.000Z</time>
      </trkpt>
      <trkpt lat="45.85316" lon="4.69972">
        <ele>199.64174</ele>
        <time>2022-06-18T07:53:43.000Z</time>
      </trkpt>
      <trkpt lat="45.85314" lon="4.69963">
        <ele>199.86425</ele>
        <time>2022-06-18T07:53:44.000Z</time>
      </trkpt>
      <trkpt lat="45.8531" lon="4.69955">
        <ele>200.09681</ele>
        <time>2022-06-18T07:53:45.000Z</time>
      </trkpt>
      <trkpt lat="45.85308" lon="4.69948">
        <ele>200.22073</ele>
        <time>2022-06-18T07:53:46.000Z</time>
      </trkpt>
      <trkpt lat="45.85305" lon="4.69941">
        <ele>200.35995</ele>
        <time>2022-06-18T07:53:47.000Z</time>
      </trkpt>
      <trkpt lat="45.85304" lon="4.69935">
        <ele>200.43031</ele>
        <time>2022-06-18T07:53:48.000Z</time>
      </trkpt>
      <trkpt lat="45.85301" lon="4.69928">
        <ele>200.58397</ele>
        <time>2022-06-18T07:53:49.000Z</time>
      </trkpt>
      <trkpt lat="45.85299" lon="4.69922">
        <ele>200.80142</ele>
        <time>2022-06-18T07:53:50.000Z</time>
      </trkpt>
      <trkpt lat="45.85295" lon="4.69917">
        <ele>201.06667</ele>
        <time>2022-06-18T07:53:51.000Z</time>
      </trkpt>
      <trkpt lat="45.85291" lon="4.6991">
        <ele>201.26791</ele>
        <time>2022-06-18T07:53:52.000Z</time>
      </trkpt>
      <trkpt lat="45.85288" lon="4.69902">
        <ele>201.36141</ele>
        <time>2022-06-18T07:53:53.000Z</time>
      </trkpt>
      <trkpt lat="45.85284" lon="4.69896">
        <ele>201.50521</ele>
        <time>2022-06-18T07:53:54.000Z</time>
      </trkpt>
      <trkpt lat="45.8528" lon="4.69891">
        <ele>201.71913</ele>
        <time>2022-06-18T07:53:55.000Z</time>
      </trkpt>
      <trkpt lat="45.85277" lon="4.69882">
        <ele>201.90217</ele>
        <time>2022-06-18T07:53:56.000Z</time>
      </trkpt>
      <trkpt lat="45.85274" lon="4.69875">
        <ele>202.02518</ele>
        <time>2022-06-18T07:53:57.000Z</time>
      </trkpt>
      <trkpt lat="45.85272" lon="4.69868">
        <ele>202.07292</ele>
        <time>2022-06-18T07:53:58.000Z</time>
      </trkpt>
      <trkpt lat="45.85271" lon="4.6986">
        <ele>202.06611</ele>
        <time>2022-06-18T07:53:59.000Z</time>
      </trkpt>
      <trkpt lat="45.85268" lon="4.69852">
        <ele>202.11115</ele>
        <time>2022-06-18T07:54:00.000Z</time>
      </trkpt>
      <trkpt lat="45.85265" lon="4.69844">
        <ele>202.16857</ele>
        <time>2022-06-18T07:54:01.000Z</time>
      </trkpt>
      <trkpt lat="45.85264" lon="4.69836">
        <ele>202.20751</ele>
        <time>2022-06-18T07:54:02.000Z</time>
      </trkpt>
      <trkpt lat="45.85262" lon="4.69827">
        <ele>202.23443</ele>
        <time>2022-06-18T07:54:03.000Z</time>
      </trkpt>
      <trkpt lat="45.8526" lon="4.69819">
        <ele>202.19899</ele>
        <time>2022-06-18T07:54:04.000Z</time>
      </trkpt>
      <trkpt lat="45.85257" lon="4.69812">
        <ele>202.09611</ele>
        <time>2022-06-18T07:54:05.000Z</time>
      </trkpt>
      <trkpt lat="45.85254" lon="4.69805">
        <ele>202.02822</ele>
        <time>2022-06-18T07:54:06.000Z</time>
      </trkpt>
      <trkpt lat="45.85249" lon="4.69799">
        <ele>202.05167</ele>
        <time>2022-06-18T07:54:07.000Z</time>
      </trkpt>
      <trkpt lat="45.85243" lon="4.69791">
        <ele>202.2569</ele>
        <time>2022-06-18T07:54:08.000Z</time>
      </trkpt>
      <trkpt lat="45.85237" lon="4.69785">
        <ele>202.63702</ele>
        <time>2022-06-18T07:54:09.000Z</time>
      </trkpt>
      <trkpt lat="45.85229" lon="4.69783">
        <ele>202.97664</ele>
        <time>2022-06-18T07:54:10.000Z</time>
      </trkpt>
      <trkpt lat="45.85224" lon="4.69781">
        <ele>203.24053</ele>
        <time>2022-06-18T07:54:11.000Z</time>
      </trkpt>
      <trkpt lat="45.85219" lon="4.69779">
        <ele>203.58232</ele>
        <time>2022-06-18T07:54:12.000Z</time>
      </trkpt>
      <trkpt lat="45.85214" lon="4.69775">
        <ele>203.99015</ele>
        <time>2022-06-18T07:54:13.000Z</time>
      </trkpt>
      <trkpt lat="45.85211" lon="4.69769">
        <ele>204.15465</ele>
        <time>2022-06-18T07:54:14.000Z</time>
      </trkpt>
      <trkpt lat="45.85206" lon="4.69767">
        <ele>204.32168</ele>
        <time>2022-06-18T07:54:15.000Z</time>
      </trkpt>
      <trkpt lat="45.852" lon="4.69763">
        <ele>204.37631</ele>
        <time>2022-06-18T07:54:16.000Z</time>
      </trkpt>
      <trkpt lat="45.85197" lon="4.69759">
        <ele>204.2918</ele>
        <time>2022-06-18T07:54:17.000Z</time>
      </trkpt>
      <trkpt lat="45.85193" lon="4.69751">
        <ele>204.17663</ele>
        <time>2022-06-18T07:54:18.000Z</time>
      </trkpt>
      <trkpt lat="45.85189" lon="4.69746">
        <ele>204.2538</ele>
        <time>2022-06-18T07:54:19.000Z</time>
      </trkpt>
      <trkpt lat="45.85184" lon="4.69741">
        <ele>204.50258</ele>
        <time>2022-06-18T07:54:20.000Z</time>
      </trkpt>
      <trkpt lat="45.8518" lon="4.69735">
        <ele>204.9328</ele>
        <time>2022-06-18T07:54:21.000Z</time>
      </trkpt>
      <trkpt lat="45.85178" lon="4.6973">
        <ele>205.23308</ele>
        <time>2022-06-18T07:54:22.000Z</time>
      </trkpt>
      <trkpt lat="45.85175" lon="4.69722">
        <ele>205.73734</ele>
        <time>2022-06-18T07:54:23.000Z</time>
      </trkpt>
      <trkpt lat="45.85172" lon="4.69716">
        <ele>206.25902</ele>
        <time>2022-06-18T07:54:24.000Z</time>
      </trkpt>
      <trkpt lat="45.85167" lon="4.69711">
        <ele>207.2652</ele>
        <time>2022-06-18T07:54:25.000Z</time>
      </trkpt>
      <trkpt lat="45.85164" lon="4.69703">
        <ele>207.90503</ele>
        <time>2022-06-18T07:54:26.000Z</time>
      </trkpt>
      <trkpt lat="45.85161" lon="4.69698">
        <ele>208.41187</ele>
        <time>2022-06-18T07:54:27.000Z</time>
      </trkpt>
      <trkpt lat="45.8516" lon="4.69693">
        <ele>208.23599</ele>
        <time>2022-06-18T07:54:28.000Z</time>
      </trkpt>
      <trkpt lat="45.85159" lon="4.69685">
        <ele>208.18071</ele>
        <time>2022-06-18T07:54:29.000Z</time>
      </trkpt>
      <trkpt lat="45.85158" lon="4.6968">
        <ele>208.27018</ele>
        <time>2022-06-18T07:54:30.000Z</time>
      </trkpt>
      <trkpt lat="45.85157" lon="4.69673">
        <ele>208.10043</ele>
        <time>2022-06-18T07:54:31.000Z</time>
      </trkpt>
      <trkpt lat="45.85158" lon="4.69667">
        <ele>207.82731</ele>
        <time>2022-06-18T07:54:32.000Z</time>
      </trkpt>
      <trkpt lat="45.85158" lon="4.69662">
        <ele>207.62365</ele>
        <time>2022-06-18T07:54:33.000Z</time>
      </trkpt>
      <trkpt lat="45.85161" lon="4.69656">
        <ele>207.03491</ele>
        <time>2022-06-18T07:54:34.000Z</time>
      </trkpt>
      <trkpt lat="45.85162" lon="4.69649">
        <ele>206.86901</ele>
        <time>2022-06-18T07:54:35.000Z</time>
      </trkpt>
      <trkpt lat="45.85161" lon="4.69644">
        <ele>207.20446</ele>
        <time>2022-06-18T07:54:36.000Z</time>
      </trkpt>
      <trkpt lat="45.85163" lon="4.69639">
        <ele>206.95232</ele>
        <time>2022-06-18T07:54:37.000Z</time>
      </trkpt>
      <trkpt lat="45.85163" lon="4.69633">
        <ele>206.93845</ele>
        <time>2022-06-18T07:54:38.000Z</time>
      </trkpt>
      <trkpt lat="45.85164" lon="4.69627">
        <ele>206.8462</ele>
        <time>2022-06-18T07:54:39.000Z</time>
      </trkpt>
      <trkpt lat="45.85165" lon="4.6962">
        <ele>206.8659</ele>
        <time>2022-06-18T07:54:40.000Z</time>
      </trkpt>
      <trkpt lat="45.85163" lon="4.6961">
        <ele>207.51355</ele>
        <time>2022-06-18T07:54:41.000Z</time>
      </trkpt>
      <trkpt lat="45.85163" lon="4.69602">
        <ele>207.70264</ele>
        <time>2022-06-18T07:54:42.000Z</time>
      </trkpt>
      <trkpt lat="45.85162" lon="4.69594">
        <ele>208.06347</ele>
        <time>2022-06-18T07:54:43.000Z</time>
      </trkpt>
      <trkpt lat="45.85162" lon="4.69587">
        <ele>207.97963</ele>
        <time>2022-06-18T07:54:44.000Z</time>
      </trkpt>
      <trkpt lat="45.85162" lon="4.69581">
        <ele>208.01</ele>
        <time>2022-06-18T07:54:45.000Z</time>
      </trkpt>
      <trkpt lat="45.85162" lon="4.69572">
        <ele>207.98199</ele>
        <time>2022-06-18T07:54:46.000Z</time>
      </trkpt>
      <trkpt lat="45.85162" lon="4.69561">
        <ele>207.71662</ele>
        <time>2022-06-18T07:54:47.000Z</time>
      </trkpt>
      <trkpt lat="45.85161" lon="4.69553">
        <ele>207.71784</ele>
        <time>2022-06-18T07:54:48.000Z</time>
      </trkpt>
      <trkpt lat="45.85163" lon="4.69543">
        <ele>206.93972</ele>
        <time>2022-06-18T07:54:49.000Z</time>
      </trkpt>
      <trkpt lat="45.85165" lon="4.69533">
        <ele>205.8322</ele>
        <time>2022-06-18T07:54:50.000Z</time>
      </trkpt>
      <trkpt lat="45.85166" lon="4.69523">
        <ele>205.49576</ele>
        <time>2022-06-18T07:54:51.000Z</time>
      </trkpt>
      <trkpt lat="45.85167" lon="4.69514">
        <ele>205.13049</ele>
        <time>2022-06-18T07:54:52.000Z</time>
      </trkpt>
      <trkpt lat="45.85168" lon="4.69505">
        <ele>205.11702</ele>
        <time>2022-06-18T07:54:53.000Z</time>
      </trkpt>
      <trkpt lat="45.8517" lon="4.69496">
        <ele>204.80773</ele>
        <time>2022-06-18T07:54:54.000Z</time>
      </trkpt>
      <trkpt lat="45.85169" lon="4.69489">
        <ele>205.5585</ele>
        <time>2022-06-18T07:54:55.000Z</time>
      </trkpt>
      <trkpt lat="45.85169" lon="4.69478">
        <ele>206.19681</ele>
        <time>2022-06-18T07:54:56.000Z</time>
      </trkpt>
      <trkpt lat="45.8517" lon="4.69471">
        <ele>206.22739</ele>
        <time>2022-06-18T07:54:57.000Z</time>
      </trkpt>
      <trkpt lat="45.85171" lon="4.69464">
        <ele>206.14459</ele>
        <time>2022-06-18T07:54:58.000Z</time>
      </trkpt>
      <trkpt lat="45.85173" lon="4.69456">
        <ele>205.87407</ele>
        <time>2022-06-18T07:54:59.000Z</time>
      </trkpt>
      <trkpt lat="45.85174" lon="4.69448">
        <ele>205.59467</ele>
        <time>2022-06-18T07:55:00.000Z</time>
      </trkpt>
      <trkpt lat="45.85176" lon="4.69438">
        <ele>205.00798</ele>
        <time>2022-06-18T07:55:01.000Z</time>
      </trkpt>
      <trkpt lat="45.85178" lon="4.69428">
        <ele>204.46118</ele>
        <time>2022-06-18T07:55:02.000Z</time>
      </trkpt>
      <trkpt lat="45.85177" lon="4.69417">
        <ele>204.1732</ele>
        <time>2022-06-18T07:55:03.000Z</time>
      </trkpt>
      <trkpt lat="45.85179" lon="4.69407">
        <ele>204.0593</ele>
        <time>2022-06-18T07:55:04.000Z</time>
      </trkpt>
      <trkpt lat="45.8518" lon="4.69397">
        <ele>204.76216</ele>
        <time>2022-06-18T07:55:05.000Z</time>
      </trkpt>
      <trkpt lat="45.85183" lon="4.69387">
        <ele>206.06838</ele>
        <time>2022-06-18T07:55:06.000Z</time>
      </trkpt>
      <trkpt lat="45.85187" lon="4.69373">
        <ele>206.5941</ele>
        <time>2022-06-18T07:55:07.000Z</time>
      </trkpt>
      <trkpt lat="45.85191" lon="4.69365">
        <ele>205.29054</ele>
        <time>2022-06-18T07:55:08.000Z</time>
      </trkpt>
      <trkpt lat="45.85194" lon="4.69356">
        <ele>204.31974</ele>
        <time>2022-06-18T07:55:09.000Z</time>
      </trkpt>
      <trkpt lat="45.85198" lon="4.69348">
        <ele>203.07507</ele>
        <time>2022-06-18T07:55:10.000Z</time>
      </trkpt>
      <trkpt lat="45.85201" lon="4.6934">
        <ele>202.91858</ele>
        <time>2022-06-18T07:55:11.000Z</time>
      </trkpt>
      <trkpt lat="45.85202" lon="4.69332">
        <ele>203.93185</ele>
        <time>2022-06-18T07:55:12.000Z</time>
      </trkpt>
      <trkpt lat="45.85206" lon="4.69323">
        <ele>205.2245</ele>
        <time>2022-06-18T07:55:13.000Z</time>
      </trkpt>
      <trkpt lat="45.85207" lon="4.6931">
        <ele>206.94163</ele>
        <time>2022-06-18T07:55:14.000Z</time>
      </trkpt>
      <trkpt lat="45.8521" lon="4.69303">
        <ele>206.57021</ele>
        <time>2022-06-18T07:55:15.000Z</time>
      </trkpt>
      <trkpt lat="45.85214" lon="4.69298">
        <ele>205.2445</ele>
        <time>2022-06-18T07:55:16.000Z</time>
      </trkpt>
      <trkpt lat="45.85219" lon="4.69292">
        <ele>203.80068</ele>
        <time>2022-06-18T07:55:17.000Z</time>
      </trkpt>
      <trkpt lat="45.85224" lon="4.69284">
        <ele>202.85788</ele>
        <time>2022-06-18T07:55:18.000Z</time>
      </trkpt>
      <trkpt lat="45.85229" lon="4.69276">
        <ele>202.88646</ele>
        <time>2022-06-18T07:55:19.000Z</time>
      </trkpt>
      <trkpt lat="45.85232" lon="4.69271">
        <ele>203.20405</ele>
        <time>2022-06-18T07:55:20.000Z</time>
      </trkpt>
      <trkpt lat="45.85237" lon="4.69265">
        <ele>203.52775</ele>
        <time>2022-06-18T07:55:21.000Z</time>
      </trkpt>
      <trkpt lat="45.85241" lon="4.69259">
        <ele>203.56067</ele>
        <time>2022-06-18T07:55:22.000Z</time>
      </trkpt>
      <trkpt lat="45.85245" lon="4.69253">
        <ele>203.1522</ele>
        <time>2022-06-18T07:55:23.000Z</time>
      </trkpt>
      <trkpt lat="45.85249" lon="4.69247">
        <ele>202.95531</ele>
        <time>2022-06-18T07:55:24.000Z</time>
      </trkpt>
      <trkpt lat="45.85253" lon="4.69242">
        <ele>203.03302</ele>
        <time>2022-06-18T07:55:25.000Z</time>
      </trkpt>
      <trkpt lat="45.85255" lon="4.69232">
        <ele>204.10447</ele>
        <time>2022-06-18T07:55:26.000Z</time>
      </trkpt>
      <trkpt lat="45.85259" lon="4.69225">
        <ele>204.39971</ele>
        <time>2022-06-18T07:55:27.000Z</time>
      </trkpt>
      <trkpt lat="45.85263" lon="4.6922">
        <ele>204.00545</ele>
        <time>2022-06-18T07:55:28.000Z</time>
      </trkpt>
      <trkpt lat="45.85269" lon="4.69211">
        <ele>203.39814</ele>
        <time>2022-06-18T07:55:29.000Z</time>
      </trkpt>
      <trkpt lat="45.85272" lon="4.69204">
        <ele>203.7004</ele>
        <time>2022-06-18T07:55:30.000Z</time>
      </trkpt>
      <trkpt lat="45.85279" lon="4.69201">
        <ele>203.61895</ele>
        <time>2022-06-18T07:55:31.000Z</time>
      </trkpt>
      <trkpt lat="45.85284" lon="4.69197">
        <ele>203.4338</ele>
        <time>2022-06-18T07:55:32.000Z</time>
      </trkpt>
      <trkpt lat="45.8529" lon="4.69193">
        <ele>202.74733</ele>
        <time>2022-06-18T07:55:33.000Z</time>
      </trkpt>
      <trkpt lat="45.85293" lon="4.69189">
        <ele>202.48142</ele>
        <time>2022-06-18T07:55:34.000Z</time>
      </trkpt>
      <trkpt lat="45.85296" lon="4.69185">
        <ele>202.30241</ele>
        <time>2022-06-18T07:55:35.000Z</time>
      </trkpt>
      <trkpt lat="45.85301" lon="4.69182">
        <ele>202.25047</ele>
        <time>2022-06-18T07:55:36.000Z</time>
      </trkpt>
      <trkpt lat="45.85304" lon="4.69178">
        <ele>202.3261</ele>
        <time>2022-06-18T07:55:37.000Z</time>
      </trkpt>
      <trkpt lat="45.85307" lon="4.69174">
        <ele>202.27334</ele>
        <time>2022-06-18T07:55:38.000Z</time>
      </trkpt>
      <trkpt lat="45.85313" lon="4.69171">
        <ele>201.73129</ele>
        <time>2022-06-18T07:55:39.000Z</time>
      </trkpt>
      <trkpt lat="45.85318" lon="4.69168">
        <ele>201.0859</ele>
        <time>2022-06-18T07:55:40.000Z</time>
      </trkpt>
      <trkpt lat="45.85322" lon="4.69164">
        <ele>200.54652</ele>
        <time>2022-06-18T07:55:41.000Z</time>
      </trkpt>
      <trkpt lat="45.85329" lon="4.69161">
        <ele>200.59913</ele>
        <time>2022-06-18T07:55:42.000Z</time>
      </trkpt>
      <trkpt lat="45.85334" lon="4.69158">
        <ele>200.96494</ele>
        <time>2022-06-18T07:55:43.000Z</time>
      </trkpt>
      <trkpt lat="45.85339" lon="4.69156">
        <ele>201.32321</ele>
        <time>2022-06-18T07:55:44.000Z</time>
      </trkpt>
      <trkpt lat="45.85343" lon="4.69155">
        <ele>201.45413</ele>
        <time>2022-06-18T07:55:45.000Z</time>
      </trkpt>
      <trkpt lat="45.85346" lon="4.69154">
        <ele>201.49877</ele>
        <time>2022-06-18T07:55:46.000Z</time>
      </trkpt>
      <trkpt lat="45.85354" lon="4.69156">
        <ele>201.21568</ele>
        <time>2022-06-18T07:55:47.000Z</time>
      </trkpt>
      <trkpt lat="45.85359" lon="4.6916">
        <ele>201.02829</ele>
        <time>2022-06-18T07:55:48.000Z</time>
      </trkpt>
      <trkpt lat="45.85363" lon="4.69165">
        <ele>200.96704</ele>
        <time>2022-06-18T07:55:49.000Z</time>
      </trkpt>
      <trkpt lat="45.85365" lon="4.69175">
        <ele>201.0895</ele>
        <time>2022-06-18T07:55:50.000Z</time>
      </trkpt>
      <trkpt lat="45.85366" lon="4.69184">
        <ele>201.20182</ele>
        <time>2022-06-18T07:55:51.000Z</time>
      </trkpt>
      <trkpt lat="45.85369" lon="4.69193">
        <ele>201.15546</ele>
        <time>2022-06-18T07:55:52.000Z</time>
      </trkpt>
      <trkpt lat="45.85377" lon="4.692">
        <ele>200.66135</ele>
        <time>2022-06-18T07:55:53.000Z</time>
      </trkpt>
      <trkpt lat="45.85381" lon="4.69209">
        <ele>200.90164</ele>
        <time>2022-06-18T07:55:54.000Z</time>
      </trkpt>
      <trkpt lat="45.85386" lon="4.69212">
        <ele>200.88598</ele>
        <time>2022-06-18T07:55:55.000Z</time>
      </trkpt>
      <trkpt lat="45.85393" lon="4.69218">
        <ele>200.98609</ele>
        <time>2022-06-18T07:55:56.000Z</time>
      </trkpt>
      <trkpt lat="45.85397" lon="4.69222">
        <ele>200.99918</ele>
        <time>2022-06-18T07:55:57.000Z</time>
      </trkpt>
      <trkpt lat="45.85402" lon="4.69225">
        <ele>200.95591</ele>
        <time>2022-06-18T07:55:58.000Z</time>
      </trkpt>
      <trkpt lat="45.85409" lon="4.69228">
        <ele>200.81363</ele>
        <time>2022-06-18T07:55:59.000Z</time>
      </trkpt>
      <trkpt lat="45.85417" lon="4.69232">
        <ele>200.67813</ele>
        <time>2022-06-18T07:56:00.000Z</time>
      </trkpt>
      <trkpt lat="45.85423" lon="4.6924">
        <ele>200.72842</ele>
        <time>2022-06-18T07:56:01.000Z</time>
      </trkpt>
      <trkpt lat="45.85429" lon="4.69243">
        <ele>200.73546</ele>
        <time>2022-06-18T07:56:02.000Z</time>
      </trkpt>
      <trkpt lat="45.85432" lon="4.69246">
        <ele>200.72833</ele>
        <time>2022-06-18T07:56:03.000Z</time>
      </trkpt>
      <trkpt lat="45.85436" lon="4.69248">
        <ele>200.60094</ele>
        <time>2022-06-18T07:56:04.000Z</time>
      </trkpt>
      <trkpt lat="45.85443" lon="4.69257">
        <ele>200.34137</ele>
        <time>2022-06-18T07:56:05.000Z</time>
      </trkpt>
      <trkpt lat="45.85447" lon="4.69267">
        <ele>200.28764</ele>
        <time>2022-06-18T07:56:06.000Z</time>
      </trkpt>
      <trkpt lat="45.85454" lon="4.69271">
        <ele>200.22918</ele>
        <time>2022-06-18T07:56:07.000Z</time>
      </trkpt>
      <trkpt lat="45.85459" lon="4.69275">
        <ele>200.33045</ele>
        <time>2022-06-18T07:56:08.000Z</time>
      </trkpt>
      <trkpt lat="45.85465" lon="4.69276">
        <ele>200.44016</ele>
        <time>2022-06-18T07:56:09.000Z</time>
      </trkpt>
      <trkpt lat="45.85469" lon="4.69276">
        <ele>200.50473</ele>
        <time>2022-06-18T07:56:10.000Z</time>
      </trkpt>
      <trkpt lat="45.85472" lon="4.69276">
        <ele>200.57292</ele>
        <time>2022-06-18T07:56:11.000Z</time>
      </trkpt>
      <trkpt lat="45.8548" lon="4.69274">
        <ele>200.74693</ele>
        <time>2022-06-18T07:56:12.000Z</time>
      </trkpt>
      <trkpt lat="45.85485" lon="4.69274">
        <ele>200.94705</ele>
        <time>2022-06-18T07:56:13.000Z</time>
      </trkpt>
      <trkpt lat="45.85491" lon="4.69271">
        <ele>201.09689</ele>
        <time>2022-06-18T07:56:14.000Z</time>
      </trkpt>
      <trkpt lat="45.85498" lon="4.69273">
        <ele>201.07444</ele>
        <time>2022-06-18T07:56:15.000Z</time>
      </trkpt>
      <trkpt lat="45.85503" lon="4.69271">
        <ele>200.73961</ele>
        <time>2022-06-18T07:56:16.000Z</time>
      </trkpt>
      <trkpt lat="45.85508" lon="4.6927">
        <ele>200.28556</ele>
        <time>2022-06-18T07:56:17.000Z</time>
      </trkpt>
      <trkpt lat="45.85513" lon="4.69267">
        <ele>199.70701</ele>
        <time>2022-06-18T07:56:18.000Z</time>
      </trkpt>
      <trkpt lat="45.85518" lon="4.69265">
        <ele>199.19866</ele>
        <time>2022-06-18T07:56:19.000Z</time>
      </trkpt>
      <trkpt lat="45.85525" lon="4.69264">
        <ele>199.10402</ele>
        <time>2022-06-18T07:56:20.000Z</time>
      </trkpt>
      <trkpt lat="45.85528" lon="4.6926">
        <ele>199.02742</ele>
        <time>2022-06-18T07:56:21.000Z</time>
      </trkpt>
      <trkpt lat="45.85531" lon="4.69258">
        <ele>199.20231</ele>
        <time>2022-06-18T07:56:22.000Z</time>
      </trkpt>
      <trkpt lat="45.85532" lon="4.6925">
        <ele>199.23073</ele>
        <time>2022-06-18T07:56:23.000Z</time>
      </trkpt>
      <trkpt lat="45.85533" lon="4.69246">
        <ele>199.46835</ele>
        <time>2022-06-18T07:56:24.000Z</time>
      </trkpt>
      <trkpt lat="45.85533" lon="4.69239">
        <ele>199.69594</ele>
        <time>2022-06-18T07:56:25.000Z</time>
      </trkpt>
      <trkpt lat="45.85533" lon="4.69234">
        <ele>199.93025</ele>
        <time>2022-06-18T07:56:26.000Z</time>
      </trkpt>
      <trkpt lat="45.85533" lon="4.69226">
        <ele>200.20879</ele>
        <time>2022-06-18T07:56:27.000Z</time>
      </trkpt>
      <trkpt lat="45.85533" lon="4.69222">
        <ele>200.32646</ele>
        <time>2022-06-18T07:56:28.000Z</time>
      </trkpt>
      <trkpt lat="45.85531" lon="4.69219">
        <ele>200.38473</ele>
        <time>2022-06-18T07:56:29.000Z</time>
      </trkpt>
      <trkpt lat="45.85532" lon="4.69216">
        <ele>200.41245</ele>
        <time>2022-06-18T07:56:30.000Z</time>
      </trkpt>
      <trkpt lat="45.85532" lon="4.69213">
        <ele>200.4491</ele>
        <time>2022-06-18T07:56:31.000Z</time>
      </trkpt>
      <trkpt lat="45.85532" lon="4.69208">
        <ele>200.45755</ele>
        <time>2022-06-18T07:56:32.000Z</time>
      </trkpt>
      <trkpt lat="45.85532" lon="4.69204">
        <ele>200.4515</ele>
        <time>2022-06-18T07:56:33.000Z</time>
      </trkpt>
      <trkpt lat="45.85532" lon="4.69201">
        <ele>200.44064</ele>
        <time>2022-06-18T07:56:34.000Z</time>
      </trkpt>
      <trkpt lat="45.85531" lon="4.69196">
        <ele>200.44964</ele>
        <time>2022-06-18T07:56:36.000Z</time>
      </trkpt>
      <trkpt lat="45.85529" lon="4.69194">
        <ele>200.47873</ele>
        <time>2022-06-18T07:56:37.000Z</time>
      </trkpt>
      <trkpt lat="45.85527" lon="4.69191">
        <ele>200.51903</ele>
        <time>2022-06-18T07:56:38.000Z</time>
      </trkpt>
      <trkpt lat="45.85523" lon="4.69188">
        <ele>200.53453</ele>
        <time>2022-06-18T07:56:39.000Z</time>
      </trkpt>
      <trkpt lat="45.85519" lon="4.6918">
        <ele>200.33236</ele>
        <time>2022-06-18T07:56:40.000Z</time>
      </trkpt>
      <trkpt lat="45.85516" lon="4.69173">
        <ele>200.11374</ele>
        <time>2022-06-18T07:56:41.000Z</time>
      </trkpt>
      <trkpt lat="45.85514" lon="4.69168">
        <ele>199.99618</ele>
        <time>2022-06-18T07:56:42.000Z</time>
      </trkpt>
      <trkpt lat="45.85513" lon="4.6916">
        <ele>199.95645</ele>
        <time>2022-06-18T07:56:43.000Z</time>
      </trkpt>
      <trkpt lat="45.85511" lon="4.69152">
        <ele>200.16397</ele>
        <time>2022-06-18T07:56:44.000Z</time>
      </trkpt>
      <trkpt lat="45.85509" lon="4.69146">
        <ele>200.43762</ele>
        <time>2022-06-18T07:56:45.000Z</time>
      </trkpt>
      <trkpt lat="45.85506" lon="4.69139">
        <ele>200.72858</ele>
        <time>2022-06-18T07:56:46.000Z</time>
      </trkpt>
      <trkpt lat="45.85505" lon="4.69131">
        <ele>200.86707</ele>
        <time>2022-06-18T07:56:47.000Z</time>
      </trkpt>
      <trkpt lat="45.85505" lon="4.69121">
        <ele>200.91088</ele>
        <time>2022-06-18T07:56:48.000Z</time>
      </trkpt>
      <trkpt lat="45.85506" lon="4.69113">
        <ele>200.8854</ele>
        <time>2022-06-18T07:56:49.000Z</time>
      </trkpt>
      <trkpt lat="45.85506" lon="4.69103">
        <ele>200.82966</ele>
        <time>2022-06-18T07:56:50.000Z</time>
      </trkpt>
      <trkpt lat="45.85505" lon="4.69093">
        <ele>200.78881</ele>
        <time>2022-06-18T07:56:51.000Z</time>
      </trkpt>
      <trkpt lat="45.85504" lon="4.69084">
        <ele>200.64511</ele>
        <time>2022-06-18T07:56:52.000Z</time>
      </trkpt>
      <trkpt lat="45.85502" lon="4.69073">
        <ele>200.3395</ele>
        <time>2022-06-18T07:56:53.000Z</time>
      </trkpt>
      <trkpt lat="45.855" lon="4.69063">
        <ele>200.04812</ele>
        <time>2022-06-18T07:56:54.000Z</time>
      </trkpt>
      <trkpt lat="45.855" lon="4.69053">
        <ele>199.90272</ele>
        <time>2022-06-18T07:56:55.000Z</time>
      </trkpt>
      <trkpt lat="45.855" lon="4.69043">
        <ele>199.86846</ele>
        <time>2022-06-18T07:56:56.000Z</time>
      </trkpt>
      <trkpt lat="45.85499" lon="4.69032">
        <ele>199.89384</ele>
        <time>2022-06-18T07:56:57.000Z</time>
      </trkpt>
      <trkpt lat="45.85498" lon="4.69021">
        <ele>199.8732</ele>
        <time>2022-06-18T07:56:58.000Z</time>
      </trkpt>
      <trkpt lat="45.85497" lon="4.6901">
        <ele>199.83346</ele>
        <time>2022-06-18T07:56:59.000Z</time>
      </trkpt>
      <trkpt lat="45.85497" lon="4.68997">
        <ele>199.7331</ele>
        <time>2022-06-18T07:57:00.000Z</time>
      </trkpt>
      <trkpt lat="45.85495" lon="4.68987">
        <ele>199.93325</ele>
        <time>2022-06-18T07:57:01.000Z</time>
      </trkpt>
      <trkpt lat="45.85493" lon="4.68977">
        <ele>200.23029</ele>
        <time>2022-06-18T07:57:02.000Z</time>
      </trkpt>
      <trkpt lat="45.85494" lon="4.68966">
        <ele>200.11852</ele>
        <time>2022-06-18T07:57:03.000Z</time>
      </trkpt>
      <trkpt lat="45.85494" lon="4.68955">
        <ele>200.1714</ele>
        <time>2022-06-18T07:57:04.000Z</time>
      </trkpt>
      <trkpt lat="45.85493" lon="4.68945">
        <ele>200.22679</ele>
        <time>2022-06-18T07:57:05.000Z</time>
      </trkpt>
      <trkpt lat="45.8549" lon="4.68935">
        <ele>200.65706</ele>
        <time>2022-06-18T07:57:06.000Z</time>
      </trkpt>
      <trkpt lat="45.8549" lon="4.68925">
        <ele>200.59548</ele>
        <time>2022-06-18T07:57:07.000Z</time>
      </trkpt>
      <trkpt lat="45.85489" lon="4.68915">
        <ele>200.75603</ele>
        <time>2022-06-18T07:57:08.000Z</time>
      </trkpt>
      <trkpt lat="45.85489" lon="4.68904">
        <ele>200.67047</ele>
        <time>2022-06-18T07:57:09.000Z</time>
      </trkpt>
      <trkpt lat="45.85486" lon="4.68895">
        <ele>200.90679</ele>
        <time>2022-06-18T07:57:10.000Z</time>
      </trkpt>
      <trkpt lat="45.85483" lon="4.68888">
        <ele>200.74357</ele>
        <time>2022-06-18T07:57:11.000Z</time>
      </trkpt>
      <trkpt lat="45.85482" lon="4.68879">
        <ele>200.23386</ele>
        <time>2022-06-18T07:57:12.000Z</time>
      </trkpt>
      <trkpt lat="45.85481" lon="4.68871">
        <ele>199.6924</ele>
        <time>2022-06-18T07:57:13.000Z</time>
      </trkpt>
      <trkpt lat="45.8548" lon="4.68861">
        <ele>199.33564</ele>
        <time>2022-06-18T07:57:14.000Z</time>
      </trkpt>
      <trkpt lat="45.85481" lon="4.68853">
        <ele>199.05853</ele>
        <time>2022-06-18T07:57:15.000Z</time>
      </trkpt>
      <trkpt lat="45.85483" lon="4.68845">
        <ele>198.84353</ele>
        <time>2022-06-18T07:57:16.000Z</time>
      </trkpt>
      <trkpt lat="45.85485" lon="4.68839">
        <ele>198.73819</ele>
        <time>2022-06-18T07:57:17.000Z</time>
      </trkpt>
      <trkpt lat="45.8549" lon="4.68833">
        <ele>198.74488</ele>
        <time>2022-06-18T07:57:18.000Z</time>
      </trkpt>
      <trkpt lat="45.85496" lon="4.6883">
        <ele>198.94358</ele>
        <time>2022-06-18T07:57:19.000Z</time>
      </trkpt>
      <trkpt lat="45.855" lon="4.68823">
        <ele>199.01309</ele>
        <time>2022-06-18T07:57:20.000Z</time>
      </trkpt>
      <trkpt lat="45.85506" lon="4.68818">
        <ele>199.05595</ele>
        <time>2022-06-18T07:57:21.000Z</time>
      </trkpt>
      <trkpt lat="45.85508" lon="4.6881">
        <ele>199.04474</ele>
        <time>2022-06-18T07:57:22.000Z</time>
      </trkpt>
      <trkpt lat="45.85508" lon="4.68802">
        <ele>199.01002</ele>
        <time>2022-06-18T07:57:23.000Z</time>
      </trkpt>
      <trkpt lat="45.85505" lon="4.68791">
        <ele>198.90582</ele>
        <time>2022-06-18T07:57:24.000Z</time>
      </trkpt>
      <trkpt lat="45.85504" lon="4.68782">
        <ele>198.84952</ele>
        <time>2022-06-18T07:57:25.000Z</time>
      </trkpt>
      <trkpt lat="45.85505" lon="4.68775">
        <ele>198.82593</ele>
        <time>2022-06-18T07:57:26.000Z</time>
      </trkpt>
      <trkpt lat="45.85504" lon="4.68766">
        <ele>198.83035</ele>
        <time>2022-06-18T07:57:27.000Z</time>
      </trkpt>
      <trkpt lat="45.85505" lon="4.68758">
        <ele>198.87873</ele>
        <time>2022-06-18T07:57:28.000Z</time>
      </trkpt>
      <trkpt lat="45.85508" lon="4.68754">
        <ele>198.93283</ele>
        <time>2022-06-18T07:57:29.000Z</time>
      </trkpt>
      <trkpt lat="45.85512" lon="4.68752">
        <ele>199.00224</ele>
        <time>2022-06-18T07:57:30.000Z</time>
      </trkpt>
      <trkpt lat="45.85516" lon="4.6875">
        <ele>199.05552</ele>
        <time>2022-06-18T07:57:31.000Z</time>
      </trkpt>
      <trkpt lat="45.85521" lon="4.6875">
        <ele>199.11069</ele>
        <time>2022-06-18T07:57:32.000Z</time>
      </trkpt>
      <trkpt lat="45.85527" lon="4.68751">
        <ele>199.14303</ele>
        <time>2022-06-18T07:57:33.000Z</time>
      </trkpt>
      <trkpt lat="45.85529" lon="4.68751">
        <ele>199.14004</ele>
        <time>2022-06-18T07:57:34.000Z</time>
      </trkpt>
      <trkpt lat="45.85532" lon="4.6875">
        <ele>199.13426</ele>
        <time>2022-06-18T07:57:35.000Z</time>
      </trkpt>
      <trkpt lat="45.85536" lon="4.68751">
        <ele>199.09323</ele>
        <time>2022-06-18T07:57:36.000Z</time>
      </trkpt>
      <trkpt lat="45.85533" lon="4.6875">
        <ele>199.13108</ele>
        <time>2022-06-18T07:57:37.000Z</time>
      </trkpt>
      <trkpt lat="45.85535" lon="4.68747">
        <ele>199.15201</ele>
        <time>2022-06-18T07:57:38.000Z</time>
      </trkpt>
      <trkpt lat="45.85534" lon="4.68749">
        <ele>199.13415</ele>
        <time>2022-06-18T07:57:43.000Z</time>
      </trkpt>
      <trkpt lat="45.85532" lon="4.6875">
        <ele>199.13706</ele>
        <time>2022-06-18T07:57:46.000Z</time>
      </trkpt>
      <trkpt lat="45.8553" lon="4.68752">
        <ele>199.13078</ele>
        <time>2022-06-18T07:57:49.000Z</time>
      </trkpt>
      <trkpt lat="45.85535" lon="4.68748">
        <ele>199.14205</ele>
        <time>2022-06-18T07:58:21.000Z</time>
      </trkpt>
      <trkpt lat="45.85547" lon="4.68738">
        <ele>199.25426</ele>
        <time>2022-06-18T07:58:22.000Z</time>
      </trkpt>
      <trkpt lat="45.85555" lon="4.68735">
        <ele>199.24922</ele>
        <time>2022-06-18T07:58:23.000Z</time>
      </trkpt>
      <trkpt lat="45.85562" lon="4.68735">
        <ele>199.16639</ele>
        <time>2022-06-18T07:58:24.000Z</time>
      </trkpt>
      <trkpt lat="45.85566" lon="4.68734">
        <ele>199.08424</ele>
        <time>2022-06-18T07:58:25.000Z</time>
      </trkpt>
      <trkpt lat="45.85573" lon="4.68732">
        <ele>198.95152</ele>
        <time>2022-06-18T07:58:26.000Z</time>
      </trkpt>
      <trkpt lat="45.85578" lon="4.68728">
        <ele>198.83099</ele>
        <time>2022-06-18T07:58:27.000Z</time>
      </trkpt>
      <trkpt lat="45.85584" lon="4.68727">
        <ele>198.79359</ele>
        <time>2022-06-18T07:58:28.000Z</time>
      </trkpt>
      <trkpt lat="45.85589" lon="4.68723">
        <ele>198.82055</ele>
        <time>2022-06-18T07:58:29.000Z</time>
      </trkpt>
      <trkpt lat="45.85596" lon="4.68721">
        <ele>198.86302</ele>
        <time>2022-06-18T07:58:30.000Z</time>
      </trkpt>
      <trkpt lat="45.856" lon="4.68719">
        <ele>198.87281</ele>
        <time>2022-06-18T07:58:31.000Z</time>
      </trkpt>
      <trkpt lat="45.85604" lon="4.68718">
        <ele>198.86675</ele>
        <time>2022-06-18T07:58:32.000Z</time>
      </trkpt>
      <trkpt lat="45.85609" lon="4.68716">
        <ele>198.86611</ele>
        <time>2022-06-18T07:58:33.000Z</time>
      </trkpt>
      <trkpt lat="45.85613" lon="4.68715">
        <ele>198.84438</ele>
        <time>2022-06-18T07:58:34.000Z</time>
      </trkpt>
      <trkpt lat="45.85619" lon="4.68716">
        <ele>198.8411</ele>
        <time>2022-06-18T07:58:35.000Z</time>
      </trkpt>
      <trkpt lat="45.85625" lon="4.68716">
        <ele>198.89706</ele>
        <time>2022-06-18T07:58:36.000Z</time>
      </trkpt>
      <trkpt lat="45.8563" lon="4.68713">
        <ele>198.92645</ele>
        <time>2022-06-18T07:58:37.000Z</time>
      </trkpt>
      <trkpt lat="45.85635" lon="4.68712">
        <ele>198.94009</ele>
        <time>2022-06-18T07:58:38.000Z</time>
      </trkpt>
      <trkpt lat="45.85639" lon="4.6871">
        <ele>198.91899</ele>
        <time>2022-06-18T07:58:39.000Z</time>
      </trkpt>
      <trkpt lat="45.85644" lon="4.68711">
        <ele>198.89151</ele>
        <time>2022-06-18T07:58:40.000Z</time>
      </trkpt>
      <trkpt lat="45.8565" lon="4.68711">
        <ele>198.82299</ele>
        <time>2022-06-18T07:58:41.000Z</time>
      </trkpt>
      <trkpt lat="45.85657" lon="4.68708">
        <ele>198.75799</ele>
        <time>2022-06-18T07:58:42.000Z</time>
      </trkpt>
      <trkpt lat="45.85664" lon="4.68704">
        <ele>198.77668</ele>
        <time>2022-06-18T07:58:43.000Z</time>
      </trkpt>
      <trkpt lat="45.8567" lon="4.68697">
        <ele>198.86465</ele>
        <time>2022-06-18T07:58:44.000Z</time>
      </trkpt>
      <trkpt lat="45.8568" lon="4.68694">
        <ele>198.69921</ele>
        <time>2022-06-18T07:58:45.000Z</time>
      </trkpt>
      <trkpt lat="45.85686" lon="4.68694">
        <ele>198.61027</ele>
        <time>2022-06-18T07:58:46.000Z</time>
      </trkpt>
      <trkpt lat="45.85695" lon="4.68698">
        <ele>198.42717</ele>
        <time>2022-06-18T07:58:47.000Z</time>
      </trkpt>
      <trkpt lat="45.85701" lon="4.68698">
        <ele>198.43312</ele>
        <time>2022-06-18T07:58:48.000Z</time>
      </trkpt>
      <trkpt lat="45.85706" lon="4.68694">
        <ele>198.59337</ele>
        <time>2022-06-18T07:58:49.000Z</time>
      </trkpt>
      <trkpt lat="45.8571" lon="4.68695">
        <ele>198.608</ele>
        <time>2022-06-18T07:58:50.000Z</time>
      </trkpt>
      <trkpt lat="45.85715" lon="4.68694">
        <ele>198.70082</ele>
        <time>2022-06-18T07:58:51.000Z</time>
      </trkpt>
      <trkpt lat="45.85719" lon="4.68693">
        <ele>198.77571</ele>
        <time>2022-06-18T07:58:52.000Z</time>
      </trkpt>
      <trkpt lat="45.85725" lon="4.6869">
        <ele>198.8131</ele>
        <time>2022-06-18T07:58:53.000Z</time>
      </trkpt>
      <trkpt lat="45.85731" lon="4.68688">
        <ele>198.77381</ele>
        <time>2022-06-18T07:58:54.000Z</time>
      </trkpt>
      <trkpt lat="45.85738" lon="4.68688">
        <ele>198.77801</ele>
        <time>2022-06-18T07:58:55.000Z</time>
      </trkpt>
      <trkpt lat="45.85742" lon="4.68684">
        <ele>198.62431</ele>
        <time>2022-06-18T07:58:56.000Z</time>
      </trkpt>
      <trkpt lat="45.85747" lon="4.68681">
        <ele>198.548</ele>
        <time>2022-06-18T07:58:57.000Z</time>
      </trkpt>
      <trkpt lat="45.85752" lon="4.68677">
        <ele>198.539</ele>
        <time>2022-06-18T07:58:58.000Z</time>
      </trkpt>
      <trkpt lat="45.85756" lon="4.68673">
        <ele>198.61214</ele>
        <time>2022-06-18T07:58:59.000Z</time>
      </trkpt>
      <trkpt lat="45.8576" lon="4.68672">
        <ele>198.63081</ele>
        <time>2022-06-18T07:59:00.000Z</time>
      </trkpt>
      <trkpt lat="45.85765" lon="4.6867">
        <ele>198.62688</ele>
        <time>2022-06-18T07:59:01.000Z</time>
      </trkpt>
      <trkpt lat="45.85768" lon="4.68665">
        <ele>198.69435</ele>
        <time>2022-06-18T07:59:02.000Z</time>
      </trkpt>
      <trkpt lat="45.85773" lon="4.68659">
        <ele>198.68877</ele>
        <time>2022-06-18T07:59:03.000Z</time>
      </trkpt>
      <trkpt lat="45.85778" lon="4.68656">
        <ele>198.64054</ele>
        <time>2022-06-18T07:59:04.000Z</time>
      </trkpt>
      <trkpt lat="45.85783" lon="4.68652">
        <ele>198.63094</ele>
        <time>2022-06-18T07:59:05.000Z</time>
      </trkpt>
      <trkpt lat="45.85786" lon="4.68648">
        <ele>198.63545</ele>
        <time>2022-06-18T07:59:06.000Z</time>
      </trkpt>
      <trkpt lat="45.8579" lon="4.68646">
        <ele>198.64126</ele>
        <time>2022-06-18T07:59:07.000Z</time>
      </trkpt>
      <trkpt lat="45.85795" lon="4.68636">
        <ele>198.72056</ele>
        <time>2022-06-18T07:59:08.000Z</time>
      </trkpt>
      <trkpt lat="45.85801" lon="4.68634">
        <ele>198.68331</ele>
        <time>2022-06-18T07:59:09.000Z</time>
      </trkpt>
      <trkpt lat="45.85801" lon="4.6863">
        <ele>198.71292</ele>
        <time>2022-06-18T07:59:10.000Z</time>
      </trkpt>
      <trkpt lat="45.85806" lon="4.68624">
        <ele>198.61567</ele>
        <time>2022-06-18T07:59:11.000Z</time>
      </trkpt>
      <trkpt lat="45.85811" lon="4.68625">
        <ele>198.4653</ele>
        <time>2022-06-18T07:59:12.000Z</time>
      </trkpt>
      <trkpt lat="45.85816" lon="4.68623">
        <ele>198.28365</ele>
        <time>2022-06-18T07:59:13.000Z</time>
      </trkpt>
      <trkpt lat="45.85816" lon="4.68619">
        <ele>198.25215</ele>
        <time>2022-06-18T07:59:14.000Z</time>
      </trkpt>
      <trkpt lat="45.85814" lon="4.68613">
        <ele>198.27221</ele>
        <time>2022-06-18T07:59:15.000Z</time>
      </trkpt>
      <trkpt lat="45.85819" lon="4.68609">
        <ele>198.11605</ele>
        <time>2022-06-18T07:59:16.000Z</time>
      </trkpt>
      <trkpt lat="45.85814" lon="4.68602">
        <ele>198.22063</ele>
        <time>2022-06-18T07:59:17.000Z</time>
      </trkpt>
      <trkpt lat="45.85815" lon="4.68596">
        <ele>198.20281</ele>
        <time>2022-06-18T07:59:18.000Z</time>
      </trkpt>
      <trkpt lat="45.85812" lon="4.68588">
        <ele>198.23384</ele>
        <time>2022-06-18T07:59:19.000Z</time>
      </trkpt>
      <trkpt lat="45.8581" lon="4.68578">
        <ele>198.23408</ele>
        <time>2022-06-18T07:59:20.000Z</time>
      </trkpt>
      <trkpt lat="45.85808" lon="4.68571">
        <ele>198.21277</ele>
        <time>2022-06-18T07:59:21.000Z</time>
      </trkpt>
      <trkpt lat="45.85808" lon="4.68565">
        <ele>198.18433</ele>
        <time>2022-06-18T07:59:22.000Z</time>
      </trkpt>
      <trkpt lat="45.85805" lon="4.68557">
        <ele>198.1422</ele>
        <time>2022-06-18T07:59:23.000Z</time>
      </trkpt>
      <trkpt lat="45.85804" lon="4.68551">
        <ele>198.126</ele>
        <time>2022-06-18T07:59:24.000Z</time>
      </trkpt>
      <trkpt lat="45.85801" lon="4.68545">
        <ele>198.14802</ele>
        <time>2022-06-18T07:59:25.000Z</time>
      </trkpt>
      <trkpt lat="45.85798" lon="4.68539">
        <ele>198.24501</ele>
        <time>2022-06-18T07:59:26.000Z</time>
      </trkpt>
      <trkpt lat="45.85796" lon="4.68534">
        <ele>198.35756</ele>
        <time>2022-06-18T07:59:27.000Z</time>
      </trkpt>
      <trkpt lat="45.85794" lon="4.68528">
        <ele>198.48477</ele>
        <time>2022-06-18T07:59:28.000Z</time>
      </trkpt>
      <trkpt lat="45.85791" lon="4.68523">
        <ele>198.65903</ele>
        <time>2022-06-18T07:59:29.000Z</time>
      </trkpt>
      <trkpt lat="45.8579" lon="4.68516">
        <ele>198.77372</ele>
        <time>2022-06-18T07:59:30.000Z</time>
      </trkpt>
      <trkpt lat="45.85789" lon="4.6851">
        <ele>198.80927</ele>
        <time>2022-06-18T07:59:31.000Z</time>
      </trkpt>
      <trkpt lat="45.85788" lon="4.68504">
        <ele>198.79108</ele>
        <time>2022-06-18T07:59:32.000Z</time>
      </trkpt>
      <trkpt lat="45.85787" lon="4.68498">
        <ele>198.76283</ele>
        <time>2022-06-18T07:59:33.000Z</time>
      </trkpt>
      <trkpt lat="45.85786" lon="4.6849">
        <ele>198.70896</ele>
        <time>2022-06-18T07:59:34.000Z</time>
      </trkpt>
      <trkpt lat="45.85786" lon="4.68484">
        <ele>198.68689</ele>
        <time>2022-06-18T07:59:35.000Z</time>
      </trkpt>
      <trkpt lat="45.85781" lon="4.68472">
        <ele>198.46655</ele>
        <time>2022-06-18T07:59:36.000Z</time>
      </trkpt>
      <trkpt lat="45.85778" lon="4.68465">
        <ele>198.39355</ele>
        <time>2022-06-18T07:59:37.000Z</time>
      </trkpt>
      <trkpt lat="45.85778" lon="4.68457">
        <ele>198.49821</ele>
        <time>2022-06-18T07:59:38.000Z</time>
      </trkpt>
      <trkpt lat="45.85775" lon="4.68448">
        <ele>198.9124</ele>
        <time>2022-06-18T07:59:39.000Z</time>
      </trkpt>
      <trkpt lat="45.85773" lon="4.6844">
        <ele>199.50221</ele>
        <time>2022-06-18T07:59:40.000Z</time>
      </trkpt>
      <trkpt lat="45.85769" lon="4.68431">
        <ele>199.83742</ele>
        <time>2022-06-18T07:59:41.000Z</time>
      </trkpt>
      <trkpt lat="45.85767" lon="4.68423">
        <ele>199.81949</ele>
        <time>2022-06-18T07:59:42.000Z</time>
      </trkpt>
      <trkpt lat="45.85767" lon="4.68414">
        <ele>199.68772</ele>
        <time>2022-06-18T07:59:43.000Z</time>
      </trkpt>
      <trkpt lat="45.85766" lon="4.68407">
        <ele>199.46486</ele>
        <time>2022-06-18T07:59:44.000Z</time>
      </trkpt>
      <trkpt lat="45.85764" lon="4.684">
        <ele>199.2469</ele>
        <time>2022-06-18T07:59:45.000Z</time>
      </trkpt>
      <trkpt lat="45.8576" lon="4.68393">
        <ele>199.20651</ele>
        <time>2022-06-18T07:59:46.000Z</time>
      </trkpt>
      <trkpt lat="45.85756" lon="4.68386">
        <ele>199.41223</ele>
        <time>2022-06-18T07:59:47.000Z</time>
      </trkpt>
      <trkpt lat="45.85753" lon="4.68378">
        <ele>199.86155</ele>
        <time>2022-06-18T07:59:48.000Z</time>
      </trkpt>
      <trkpt lat="45.8575" lon="4.6837">
        <ele>200.17108</ele>
        <time>2022-06-18T07:59:49.000Z</time>
      </trkpt>
      <trkpt lat="45.85748" lon="4.68363">
        <ele>200.18869</ele>
        <time>2022-06-18T07:59:50.000Z</time>
      </trkpt>
      <trkpt lat="45.85744" lon="4.68356">
        <ele>199.83963</ele>
        <time>2022-06-18T07:59:51.000Z</time>
      </trkpt>
      <trkpt lat="45.85742" lon="4.68349">
        <ele>199.53406</ele>
        <time>2022-06-18T07:59:52.000Z</time>
      </trkpt>
      <trkpt lat="45.85738" lon="4.68342">
        <ele>199.54983</ele>
        <time>2022-06-18T07:59:53.000Z</time>
      </trkpt>
      <trkpt lat="45.85734" lon="4.68335">
        <ele>199.74527</ele>
        <time>2022-06-18T07:59:54.000Z</time>
      </trkpt>
      <trkpt lat="45.85731" lon="4.68327">
        <ele>199.69397</ele>
        <time>2022-06-18T07:59:55.000Z</time>
      </trkpt>
      <trkpt lat="45.85728" lon="4.6832">
        <ele>199.26106</ele>
        <time>2022-06-18T07:59:56.000Z</time>
      </trkpt>
      <trkpt lat="45.85725" lon="4.68314">
        <ele>198.74246</ele>
        <time>2022-06-18T07:59:57.000Z</time>
      </trkpt>
      <trkpt lat="45.85721" lon="4.68307">
        <ele>198.5486</ele>
        <time>2022-06-18T07:59:58.000Z</time>
      </trkpt>
      <trkpt lat="45.85716" lon="4.68298">
        <ele>198.6775</ele>
        <time>2022-06-18T07:59:59.000Z</time>
      </trkpt>
      <trkpt lat="45.85711" lon="4.68293">
        <ele>198.84356</ele>
        <time>2022-06-18T08:00:00.000Z</time>
      </trkpt>
      <trkpt lat="45.85707" lon="4.68289">
        <ele>198.77464</ele>
        <time>2022-06-18T08:00:01.000Z</time>
      </trkpt>
      <trkpt lat="45.85702" lon="4.6828">
        <ele>197.97871</ele>
        <time>2022-06-18T08:00:02.000Z</time>
      </trkpt>
      <trkpt lat="45.85697" lon="4.68276">
        <ele>197.73346</ele>
        <time>2022-06-18T08:00:03.000Z</time>
      </trkpt>
      <trkpt lat="45.85694" lon="4.6827">
        <ele>197.3818</ele>
        <time>2022-06-18T08:00:04.000Z</time>
      </trkpt>
      <trkpt lat="45.85689" lon="4.68263">
        <ele>197.34185</ele>
        <time>2022-06-18T08:00:05.000Z</time>
      </trkpt>
      <trkpt lat="45.85684" lon="4.68258">
        <ele>197.64575</ele>
        <time>2022-06-18T08:00:06.000Z</time>
      </trkpt>
      <trkpt lat="45.85679" lon="4.68252">
        <ele>197.71748</ele>
        <time>2022-06-18T08:00:07.000Z</time>
      </trkpt>
      <trkpt lat="45.85673" lon="4.68247">
        <ele>197.75213</ele>
        <time>2022-06-18T08:00:08.000Z</time>
      </trkpt>
      <trkpt lat="45.85668" lon="4.68241">
        <ele>197.38574</ele>
        <time>2022-06-18T08:00:09.000Z</time>
      </trkpt>
      <trkpt lat="45.85665" lon="4.68237">
        <ele>197.18828</ele>
        <time>2022-06-18T08:00:10.000Z</time>
      </trkpt>
      <trkpt lat="45.8566" lon="4.68234">
        <ele>197.63974</ele>
        <time>2022-06-18T08:00:11.000Z</time>
      </trkpt>
      <trkpt lat="45.85655" lon="4.68229">
        <ele>198.21483</ele>
        <time>2022-06-18T08:00:12.000Z</time>
      </trkpt>
      <trkpt lat="45.85651" lon="4.68226">
        <ele>198.68632</ele>
        <time>2022-06-18T08:00:13.000Z</time>
      </trkpt>
      <trkpt lat="45.85647" lon="4.68215">
        <ele>198.12841</ele>
        <time>2022-06-18T08:00:14.000Z</time>
      </trkpt>
      <trkpt lat="45.85644" lon="4.6821">
        <ele>197.73225</ele>
        <time>2022-06-18T08:00:15.000Z</time>
      </trkpt>
      <trkpt lat="45.8564" lon="4.68207">
        <ele>197.80758</ele>
        <time>2022-06-18T08:00:16.000Z</time>
      </trkpt>
      <trkpt lat="45.85637" lon="4.68203">
        <ele>197.90236</ele>
        <time>2022-06-18T08:00:17.000Z</time>
      </trkpt>
      <trkpt lat="45.85633" lon="4.68196">
        <ele>197.97196</ele>
        <time>2022-06-18T08:00:18.000Z</time>
      </trkpt>
      <trkpt lat="45.85631" lon="4.68193">
        <ele>198.25216</ele>
        <time>2022-06-18T08:00:19.000Z</time>
      </trkpt>
      <trkpt lat="45.85627" lon="4.68189">
        <ele>198.6777</ele>
        <time>2022-06-18T08:00:20.000Z</time>
      </trkpt>
      <trkpt lat="45.85623" lon="4.68183">
        <ele>198.59224</ele>
        <time>2022-06-18T08:00:21.000Z</time>
      </trkpt>
      <trkpt lat="45.85619" lon="4.68178">
        <ele>198.60902</ele>
        <time>2022-06-18T08:00:22.000Z</time>
      </trkpt>
      <trkpt lat="45.85615" lon="4.68176">
        <ele>199.02316</ele>
        <time>2022-06-18T08:00:23.000Z</time>
      </trkpt>
      <trkpt lat="45.85611" lon="4.68172">
        <ele>199.24904</ele>
        <time>2022-06-18T08:00:24.000Z</time>
      </trkpt>
      <trkpt lat="45.85613" lon="4.68168">
        <ele>198.65475</ele>
        <time>2022-06-18T08:00:26.000Z</time>
      </trkpt>
      <trkpt lat="45.85618" lon="4.68168">
        <ele>197.88599</ele>
        <time>2022-06-18T08:00:27.000Z</time>
      </trkpt>
      <trkpt lat="45.85619" lon="4.68172">
        <ele>198.06448</ele>
        <time>2022-06-18T08:00:28.000Z</time>
      </trkpt>
      <trkpt lat="45.85622" lon="4.68171">
        <ele>197.54521</ele>
        <time>2022-06-18T08:00:30.000Z</time>
      </trkpt>
      <trkpt lat="45.85625" lon="4.68169">
        <ele>196.94471</ele>
        <time>2022-06-18T08:00:31.000Z</time>
      </trkpt>
      <trkpt lat="45.85626" lon="4.68164">
        <ele>196.47913</ele>
        <time>2022-06-18T08:00:32.000Z</time>
      </trkpt>
      <trkpt lat="45.85629" lon="4.68159">
        <ele>196.09025</ele>
        <time>2022-06-18T08:00:33.000Z</time>
      </trkpt>
      <trkpt lat="45.85632" lon="4.68156">
        <ele>195.89016</ele>
        <time>2022-06-18T08:00:34.000Z</time>
      </trkpt>
      <trkpt lat="45.85634" lon="4.68152">
        <ele>195.90779</ele>
        <time>2022-06-18T08:00:35.000Z</time>
      </trkpt>
      <trkpt lat="45.85637" lon="4.68148">
        <ele>196.13265</ele>
        <time>2022-06-18T08:00:36.000Z</time>
      </trkpt>
      <trkpt lat="45.85639" lon="4.68144">
        <ele>196.52386</ele>
        <time>2022-06-18T08:00:37.000Z</time>
      </trkpt>
      <trkpt lat="45.85642" lon="4.6814">
        <ele>197.03139</ele>
        <time>2022-06-18T08:00:38.000Z</time>
      </trkpt>
      <trkpt lat="45.85643" lon="4.68138">
        <ele>197.35852</ele>
        <time>2022-06-18T08:00:39.000Z</time>
      </trkpt>
      <trkpt lat="45.85644" lon="4.68136">
        <ele>197.6227</ele>
        <time>2022-06-18T08:00:41.000Z</time>
      </trkpt>
      <trkpt lat="45.85644" lon="4.68136">
        <ele>197.6227</ele>
        <time>2022-06-18T08:00:41.000Z</time>
      </trkpt>
      <trkpt lat="45.85643" lon="4.68133">
        <ele>197.79491</ele>
        <time>2022-06-18T08:00:42.000Z</time>
      </trkpt>
      <trkpt lat="45.85642" lon="4.6813">
        <ele>197.84605</ele>
        <time>2022-06-18T08:00:43.000Z</time>
      </trkpt>
      <trkpt lat="45.85641" lon="4.68127">
        <ele>197.9148</ele>
        <time>2022-06-18T08:00:44.000Z</time>
      </trkpt>
      <trkpt lat="45.85641" lon="4.68123">
        <ele>198.12795</ele>
        <time>2022-06-18T08:00:45.000Z</time>
      </trkpt>
      <trkpt lat="45.85642" lon="4.6812">
        <ele>198.45243</ele>
        <time>2022-06-18T08:00:46.000Z</time>
      </trkpt>
      <trkpt lat="45.85644" lon="4.68117">
        <ele>198.94096</ele>
        <time>2022-06-18T08:00:47.000Z</time>
      </trkpt>
      <trkpt lat="45.85649" lon="4.68114">
        <ele>199.42752</ele>
        <time>2022-06-18T08:00:48.000Z</time>
      </trkpt>
      <trkpt lat="45.85653" lon="4.68113">
        <ele>199.70425</ele>
        <time>2022-06-18T08:00:49.000Z</time>
      </trkpt>
      <trkpt lat="45.85658" lon="4.68111">
        <ele>199.84316</ele>
        <time>2022-06-18T08:00:50.000Z</time>
      </trkpt>
      <trkpt lat="45.85661" lon="4.68108">
        <ele>199.88855</ele>
        <time>2022-06-18T08:00:51.000Z</time>
      </trkpt>
      <trkpt lat="45.85663" lon="4.68106">
        <ele>199.88909</ele>
        <time>2022-06-18T08:00:52.000Z</time>
      </trkpt>
      <trkpt lat="45.85665" lon="4.68103">
        <ele>199.86614</ele>
        <time>2022-06-18T08:00:53.000Z</time>
      </trkpt>
      <trkpt lat="45.85667" lon="4.68106">
        <ele>199.83696</ele>
        <time>2022-06-18T08:01:02.000Z</time>
      </trkpt>
      <trkpt lat="45.85668" lon="4.68107">
        <ele>199.82467</ele>
        <time>2022-06-18T08:01:03.000Z</time>
      </trkpt>
      <trkpt lat="45.8567" lon="4.68109">
        <ele>199.82938</ele>
        <time>2022-06-18T08:01:04.000Z</time>
      </trkpt>
      <trkpt lat="45.85673" lon="4.68112">
        <ele>199.85838</ele>
        <time>2022-06-18T08:01:05.000Z</time>
      </trkpt>
      <trkpt lat="45.85675" lon="4.68115">
        <ele>199.88447</ele>
        <time>2022-06-18T08:01:06.000Z</time>
      </trkpt>
      <trkpt lat="45.85678" lon="4.68119">
        <ele>199.88245</ele>
        <time>2022-06-18T08:01:07.000Z</time>
      </trkpt>
      <trkpt lat="45.85681" lon="4.68121">
        <ele>199.84451</ele>
        <time>2022-06-18T08:01:08.000Z</time>
      </trkpt>
      <trkpt lat="45.85684" lon="4.68125">
        <ele>199.75406</ele>
        <time>2022-06-18T08:01:09.000Z</time>
      </trkpt>
      <trkpt lat="45.85688" lon="4.6813">
        <ele>199.6146</ele>
        <time>2022-06-18T08:01:10.000Z</time>
      </trkpt>
      <trkpt lat="45.85691" lon="4.68135">
        <ele>199.4912</ele>
        <time>2022-06-18T08:01:11.000Z</time>
      </trkpt>
      <trkpt lat="45.85696" lon="4.68144">
        <ele>199.35912</ele>
        <time>2022-06-18T08:01:12.000Z</time>
      </trkpt>
      <trkpt lat="45.857" lon="4.68149">
        <ele>199.34264</ele>
        <time>2022-06-18T08:01:13.000Z</time>
      </trkpt>
      <trkpt lat="45.85705" lon="4.6815">
        <ele>199.42765</ele>
        <time>2022-06-18T08:01:14.000Z</time>
      </trkpt>
      <trkpt lat="45.85709" lon="4.68153">
        <ele>199.45334</ele>
        <time>2022-06-18T08:01:15.000Z</time>
      </trkpt>
      <trkpt lat="45.85712" lon="4.68152">
        <ele>199.53075</ele>
        <time>2022-06-18T08:01:16.000Z</time>
      </trkpt>
      <trkpt lat="45.85715" lon="4.6816">
        <ele>199.40694</ele>
        <time>2022-06-18T08:01:17.000Z</time>
      </trkpt>
      <trkpt lat="45.85718" lon="4.68165">
        <ele>199.38369</ele>
        <time>2022-06-18T08:01:18.000Z</time>
      </trkpt>
      <trkpt lat="45.85723" lon="4.68172">
        <ele>199.34215</ele>
        <time>2022-06-18T08:01:19.000Z</time>
      </trkpt>
      <trkpt lat="45.85727" lon="4.68181">
        <ele>199.31128</ele>
        <time>2022-06-18T08:01:20.000Z</time>
      </trkpt>
      <trkpt lat="45.85731" lon="4.68187">
        <ele>199.29212</ele>
        <time>2022-06-18T08:01:21.000Z</time>
      </trkpt>
      <trkpt lat="45.85735" lon="4.68193">
        <ele>199.26587</ele>
        <time>2022-06-18T08:01:22.000Z</time>
      </trkpt>
      <trkpt lat="45.8574" lon="4.68203">
        <ele>199.24228</ele>
        <time>2022-06-18T08:01:23.000Z</time>
      </trkpt>
      <trkpt lat="45.85744" lon="4.68206">
        <ele>199.22425</ele>
        <time>2022-06-18T08:01:24.000Z</time>
      </trkpt>
      <trkpt lat="45.85751" lon="4.68217">
        <ele>199.21069</ele>
        <time>2022-06-18T08:01:25.000Z</time>
      </trkpt>
      <trkpt lat="45.85757" lon="4.68227">
        <ele>199.07499</ele>
        <time>2022-06-18T08:01:26.000Z</time>
      </trkpt>
      <trkpt lat="45.8576" lon="4.68229">
        <ele>198.96189</ele>
        <time>2022-06-18T08:01:27.000Z</time>
      </trkpt>
      <trkpt lat="45.85764" lon="4.68232">
        <ele>198.68134</ele>
        <time>2022-06-18T08:01:28.000Z</time>
      </trkpt>
      <trkpt lat="45.85768" lon="4.68237">
        <ele>198.39846</ele>
        <time>2022-06-18T08:01:29.000Z</time>
      </trkpt>
      <trkpt lat="45.85771" lon="4.68238">
        <ele>198.20813</ele>
        <time>2022-06-18T08:01:30.000Z</time>
      </trkpt>
      <trkpt lat="45.85775" lon="4.68241">
        <ele>198.07095</ele>
        <time>2022-06-18T08:01:31.000Z</time>
      </trkpt>
      <trkpt lat="45.8578" lon="4.68247">
        <ele>198.20602</ele>
        <time>2022-06-18T08:01:32.000Z</time>
      </trkpt>
      <trkpt lat="45.85785" lon="4.68254">
        <ele>198.62902</ele>
        <time>2022-06-18T08:01:33.000Z</time>
      </trkpt>
      <trkpt lat="45.85788" lon="4.68259">
        <ele>198.85488</ele>
        <time>2022-06-18T08:01:34.000Z</time>
      </trkpt>
      <trkpt lat="45.85793" lon="4.68265">
        <ele>198.99891</ele>
        <time>2022-06-18T08:01:35.000Z</time>
      </trkpt>
      <trkpt lat="45.85799" lon="4.68271">
        <ele>198.99308</ele>
        <time>2022-06-18T08:01:36.000Z</time>
      </trkpt>
      <trkpt lat="45.85805" lon="4.68279">
        <ele>198.84413</ele>
        <time>2022-06-18T08:01:37.000Z</time>
      </trkpt>
      <trkpt lat="45.8581" lon="4.68284">
        <ele>198.86833</ele>
        <time>2022-06-18T08:01:38.000Z</time>
      </trkpt>
      <trkpt lat="45.85814" lon="4.68292">
        <ele>198.74476</ele>
        <time>2022-06-18T08:01:39.000Z</time>
      </trkpt>
      <trkpt lat="45.85817" lon="4.68296">
        <ele>198.73005</ele>
        <time>2022-06-18T08:01:40.000Z</time>
      </trkpt>
      <trkpt lat="45.85821" lon="4.68303">
        <ele>198.63682</ele>
        <time>2022-06-18T08:01:41.000Z</time>
      </trkpt>
      <trkpt lat="45.85825" lon="4.6831">
        <ele>198.49151</ele>
        <time>2022-06-18T08:01:42.000Z</time>
      </trkpt>
      <trkpt lat="45.85829" lon="4.68313">
        <ele>198.4499</ele>
        <time>2022-06-18T08:01:43.000Z</time>
      </trkpt>
      <trkpt lat="45.85832" lon="4.68321">
        <ele>198.17604</ele>
        <time>2022-06-18T08:01:44.000Z</time>
      </trkpt>
      <trkpt lat="45.85835" lon="4.68328">
        <ele>197.95851</ele>
        <time>2022-06-18T08:01:45.000Z</time>
      </trkpt>
      <trkpt lat="45.8584" lon="4.68336">
        <ele>197.97393</ele>
        <time>2022-06-18T08:01:46.000Z</time>
      </trkpt>
      <trkpt lat="45.85842" lon="4.68344">
        <ele>198.15999</ele>
        <time>2022-06-18T08:01:47.000Z</time>
      </trkpt>
      <trkpt lat="45.85845" lon="4.68348">
        <ele>198.44568</ele>
        <time>2022-06-18T08:01:48.000Z</time>
      </trkpt>
      <trkpt lat="45.85847" lon="4.68353">
        <ele>198.66884</ele>
        <time>2022-06-18T08:01:49.000Z</time>
      </trkpt>
      <trkpt lat="45.85851" lon="4.68363">
        <ele>198.92085</ele>
        <time>2022-06-18T08:01:50.000Z</time>
      </trkpt>
      <trkpt lat="45.85854" lon="4.68372">
        <ele>198.82513</ele>
        <time>2022-06-18T08:01:51.000Z</time>
      </trkpt>
      <trkpt lat="45.85857" lon="4.68377">
        <ele>198.75387</ele>
        <time>2022-06-18T08:01:52.000Z</time>
      </trkpt>
      <trkpt lat="45.85857" lon="4.68384">
        <ele>198.48829</ele>
        <time>2022-06-18T08:01:53.000Z</time>
      </trkpt>
      <trkpt lat="45.85857" lon="4.68391">
        <ele>198.22542</ele>
        <time>2022-06-18T08:01:54.000Z</time>
      </trkpt>
      <trkpt lat="45.85861" lon="4.68397">
        <ele>198.22325</ele>
        <time>2022-06-18T08:01:55.000Z</time>
      </trkpt>
      <trkpt lat="45.85865" lon="4.68411">
        <ele>198.43902</ele>
        <time>2022-06-18T08:01:56.000Z</time>
      </trkpt>
      <trkpt lat="45.85862" lon="4.68419">
        <ele>197.88971</ele>
        <time>2022-06-18T08:01:57.000Z</time>
      </trkpt>
      <trkpt lat="45.85863" lon="4.68427">
        <ele>198.03947</ele>
        <time>2022-06-18T08:01:58.000Z</time>
      </trkpt>
      <trkpt lat="45.85865" lon="4.68434">
        <ele>198.43228</ele>
        <time>2022-06-18T08:01:59.000Z</time>
      </trkpt>
      <trkpt lat="45.85865" lon="4.68443">
        <ele>198.37337</ele>
        <time>2022-06-18T08:02:00.000Z</time>
      </trkpt>
      <trkpt lat="45.85866" lon="4.68454">
        <ele>198.36248</ele>
        <time>2022-06-18T08:02:01.000Z</time>
      </trkpt>
      <trkpt lat="45.85866" lon="4.68462">
        <ele>198.38025</ele>
        <time>2022-06-18T08:02:02.000Z</time>
      </trkpt>
      <trkpt lat="45.85866" lon="4.68468">
        <ele>198.31008</ele>
        <time>2022-06-18T08:02:03.000Z</time>
      </trkpt>
      <trkpt lat="45.85865" lon="4.68478">
        <ele>198.18151</ele>
        <time>2022-06-18T08:02:04.000Z</time>
      </trkpt>
      <trkpt lat="45.85871" lon="4.68486">
        <ele>198.74466</ele>
        <time>2022-06-18T08:02:05.000Z</time>
      </trkpt>
      <trkpt lat="45.85869" lon="4.68496">
        <ele>198.31681</ele>
        <time>2022-06-18T08:02:06.000Z</time>
      </trkpt>
      <trkpt lat="45.85872" lon="4.68504">
        <ele>198.13354</ele>
        <time>2022-06-18T08:02:07.000Z</time>
      </trkpt>
      <trkpt lat="45.85871" lon="4.68514">
        <ele>197.47417</ele>
        <time>2022-06-18T08:02:08.000Z</time>
      </trkpt>
      <trkpt lat="45.85872" lon="4.68524">
        <ele>196.96664</ele>
        <time>2022-06-18T08:02:09.000Z</time>
      </trkpt>
      <trkpt lat="45.85875" lon="4.68532">
        <ele>196.90553</ele>
        <time>2022-06-18T08:02:10.000Z</time>
      </trkpt>
      <trkpt lat="45.8587" lon="4.68539">
        <ele>195.87907</ele>
        <time>2022-06-18T08:02:11.000Z</time>
      </trkpt>
      <trkpt lat="45.85874" lon="4.68546">
        <ele>195.93607</ele>
        <time>2022-06-18T08:02:12.000Z</time>
      </trkpt>
      <trkpt lat="45.8587" lon="4.68557">
        <ele>195.06311</ele>
        <time>2022-06-18T08:02:13.000Z</time>
      </trkpt>
      <trkpt lat="45.85873" lon="4.68568">
        <ele>195.30373</ele>
        <time>2022-06-18T08:02:14.000Z</time>
      </trkpt>
      <trkpt lat="45.85872" lon="4.68573">
        <ele>195.12955</ele>
        <time>2022-06-18T08:02:15.000Z</time>
      </trkpt>
      <trkpt lat="45.85882" lon="4.68579">
        <ele>197.45708</ele>
        <time>2022-06-18T08:02:16.000Z</time>
      </trkpt>
      <trkpt lat="45.85887" lon="4.68585">
        <ele>198.43387</ele>
        <time>2022-06-18T08:02:17.000Z</time>
      </trkpt>
      <trkpt lat="45.85883" lon="4.68595">
        <ele>197.69477</ele>
        <time>2022-06-18T08:02:18.000Z</time>
      </trkpt>
      <trkpt lat="45.8588" lon="4.68605">
        <ele>196.99092</ele>
        <time>2022-06-18T08:02:19.000Z</time>
      </trkpt>
      <trkpt lat="45.85886" lon="4.6861">
        <ele>198.12581</ele>
        <time>2022-06-18T08:02:20.000Z</time>
      </trkpt>
      <trkpt lat="45.85888" lon="4.68617">
        <ele>198.42681</ele>
        <time>2022-06-18T08:02:21.000Z</time>
      </trkpt>
      <trkpt lat="45.85887" lon="4.68628">
        <ele>198.30928</ele>
        <time>2022-06-18T08:02:22.000Z</time>
      </trkpt>
      <trkpt lat="45.85886" lon="4.68641">
        <ele>198.20267</ele>
        <time>2022-06-18T08:02:23.000Z</time>
      </trkpt>
      <trkpt lat="45.85884" lon="4.68647">
        <ele>197.8393</ele>
        <time>2022-06-18T08:02:24.000Z</time>
      </trkpt>
      <trkpt lat="45.85887" lon="4.68655">
        <ele>198.23629</ele>
        <time>2022-06-18T08:02:25.000Z</time>
      </trkpt>
      <trkpt lat="45.85875" lon="4.68656">
        <ele>195.97983</ele>
        <time>2022-06-18T08:02:26.000Z</time>
      </trkpt>
      <trkpt lat="45.85879" lon="4.68664">
        <ele>196.76052</ele>
        <time>2022-06-18T08:02:27.000Z</time>
      </trkpt>
      <trkpt lat="45.8587" lon="4.68673">
        <ele>195.01352</ele>
        <time>2022-06-18T08:02:28.000Z</time>
      </trkpt>
      <trkpt lat="45.85868" lon="4.68678">
        <ele>194.88808</ele>
        <time>2022-06-18T08:02:29.000Z</time>
      </trkpt>
      <trkpt lat="45.85877" lon="4.68682">
        <ele>196.34308</ele>
        <time>2022-06-18T08:02:30.000Z</time>
      </trkpt>
      <trkpt lat="45.85883" lon="4.68687">
        <ele>197.59657</ele>
        <time>2022-06-18T08:02:31.000Z</time>
      </trkpt>
      <trkpt lat="45.8588" lon="4.68697">
        <ele>197.07647</ele>
        <time>2022-06-18T08:02:32.000Z</time>
      </trkpt>
      <trkpt lat="45.85882" lon="4.68703">
        <ele>197.58223</ele>
        <time>2022-06-18T08:02:33.000Z</time>
      </trkpt>
      <trkpt lat="45.8588" lon="4.68711">
        <ele>197.2504</ele>
        <time>2022-06-18T08:02:34.000Z</time>
      </trkpt>
      <trkpt lat="45.85878" lon="4.68718">
        <ele>196.84597</ele>
        <time>2022-06-18T08:02:35.000Z</time>
      </trkpt>
      <trkpt lat="45.85879" lon="4.68725">
        <ele>196.9589</ele>
        <time>2022-06-18T08:02:36.000Z</time>
      </trkpt>
      <trkpt lat="45.85879" lon="4.68731">
        <ele>197.07783</ele>
        <time>2022-06-18T08:02:37.000Z</time>
      </trkpt>
      <trkpt lat="45.85879" lon="4.68736">
        <ele>197.07059</ele>
        <time>2022-06-18T08:02:38.000Z</time>
      </trkpt>
      <trkpt lat="45.85874" lon="4.68744">
        <ele>195.88864</ele>
        <time>2022-06-18T08:02:39.000Z</time>
      </trkpt>
      <trkpt lat="45.85867" lon="4.6875">
        <ele>194.7056</ele>
        <time>2022-06-18T08:02:40.000Z</time>
      </trkpt>
      <trkpt lat="45.85864" lon="4.68756">
        <ele>194.51038</ele>
        <time>2022-06-18T08:02:41.000Z</time>
      </trkpt>
      <trkpt lat="45.85865" lon="4.68761">
        <ele>194.51165</ele>
        <time>2022-06-18T08:02:42.000Z</time>
      </trkpt>
      <trkpt lat="45.85863" lon="4.6877">
        <ele>194.48861</ele>
        <time>2022-06-18T08:02:43.000Z</time>
      </trkpt>
      <trkpt lat="45.85871" lon="4.68775">
        <ele>195.09183</ele>
        <time>2022-06-18T08:02:44.000Z</time>
      </trkpt>
      <trkpt lat="45.85875" lon="4.68782">
        <ele>195.80888</ele>
        <time>2022-06-18T08:02:45.000Z</time>
      </trkpt>
      <trkpt lat="45.85876" lon="4.68788">
        <ele>196.08395</ele>
        <time>2022-06-18T08:02:46.000Z</time>
      </trkpt>
      <trkpt lat="45.85874" lon="4.6879">
        <ele>195.63334</ele>
        <time>2022-06-18T08:02:47.000Z</time>
      </trkpt>
      <trkpt lat="45.85864" lon="4.688">
        <ele>194.48308</ele>
        <time>2022-06-18T08:02:48.000Z</time>
      </trkpt>
      <trkpt lat="45.85862" lon="4.68807">
        <ele>194.4876</ele>
        <time>2022-06-18T08:02:49.000Z</time>
      </trkpt>
      <trkpt lat="45.85859" lon="4.68814">
        <ele>194.69139</ele>
        <time>2022-06-18T08:02:50.000Z</time>
      </trkpt>
      <trkpt lat="45.85854" lon="4.68821">
        <ele>195.05213</ele>
        <time>2022-06-18T08:02:51.000Z</time>
      </trkpt>
      <trkpt lat="45.85856" lon="4.6883">
        <ele>195.80848</ele>
        <time>2022-06-18T08:02:52.000Z</time>
      </trkpt>
      <trkpt lat="45.85862" lon="4.68836">
        <ele>197.06389</ele>
        <time>2022-06-18T08:02:53.000Z</time>
      </trkpt>
      <trkpt lat="45.85862" lon="4.68847">
        <ele>198.00385</ele>
        <time>2022-06-18T08:02:54.000Z</time>
      </trkpt>
      <trkpt lat="45.85857" lon="4.68854">
        <ele>197.3335</ele>
        <time>2022-06-18T08:02:55.000Z</time>
      </trkpt>
      <trkpt lat="45.8586" lon="4.68859">
        <ele>197.80667</ele>
        <time>2022-06-18T08:02:56.000Z</time>
      </trkpt>
      <trkpt lat="45.85861" lon="4.6887">
        <ele>197.84649</ele>
        <time>2022-06-18T08:02:57.000Z</time>
      </trkpt>
      <trkpt lat="45.85856" lon="4.68875">
        <ele>197.05883</ele>
        <time>2022-06-18T08:02:58.000Z</time>
      </trkpt>
      <trkpt lat="45.85856" lon="4.68884">
        <ele>197.00347</ele>
        <time>2022-06-18T08:02:59.000Z</time>
      </trkpt>
      <trkpt lat="45.85855" lon="4.68891">
        <ele>196.94338</ele>
        <time>2022-06-18T08:03:00.000Z</time>
      </trkpt>
      <trkpt lat="45.85862" lon="4.68895">
        <ele>197.90246</ele>
        <time>2022-06-18T08:03:01.000Z</time>
      </trkpt>
      <trkpt lat="45.85859" lon="4.68903">
        <ele>197.59097</ele>
        <time>2022-06-18T08:03:02.000Z</time>
      </trkpt>
      <trkpt lat="45.85854" lon="4.68911">
        <ele>196.69738</ele>
        <time>2022-06-18T08:03:03.000Z</time>
      </trkpt>
      <trkpt lat="45.8585" lon="4.68921">
        <ele>196.02308</ele>
        <time>2022-06-18T08:03:04.000Z</time>
      </trkpt>
      <trkpt lat="45.85851" lon="4.68927">
        <ele>196.36812</ele>
        <time>2022-06-18T08:03:05.000Z</time>
      </trkpt>
      <trkpt lat="45.85848" lon="4.68935">
        <ele>195.95806</ele>
        <time>2022-06-18T08:03:06.000Z</time>
      </trkpt>
      <trkpt lat="45.8585" lon="4.68942">
        <ele>196.44619</ele>
        <time>2022-06-18T08:03:07.000Z</time>
      </trkpt>
      <trkpt lat="45.85852" lon="4.68949">
        <ele>196.7999</ele>
        <time>2022-06-18T08:03:08.000Z</time>
      </trkpt>
      <trkpt lat="45.85848" lon="4.68957">
        <ele>196.3228</ele>
        <time>2022-06-18T08:03:09.000Z</time>
      </trkpt>
      <trkpt lat="45.8585" lon="4.68964">
        <ele>196.75358</ele>
        <time>2022-06-18T08:03:10.000Z</time>
      </trkpt>
      <trkpt lat="45.85853" lon="4.68968">
        <ele>197.26527</ele>
        <time>2022-06-18T08:03:11.000Z</time>
      </trkpt>
      <trkpt lat="45.85857" lon="4.68975">
        <ele>197.77051</ele>
        <time>2022-06-18T08:03:12.000Z</time>
      </trkpt>
      <trkpt lat="45.85864" lon="4.68982">
        <ele>198.05521</ele>
        <time>2022-06-18T08:03:13.000Z</time>
      </trkpt>
      <trkpt lat="45.85855" lon="4.68986">
        <ele>197.64491</ele>
        <time>2022-06-18T08:03:14.000Z</time>
      </trkpt>
      <trkpt lat="45.85848" lon="4.68994">
        <ele>197.01632</ele>
        <time>2022-06-18T08:03:15.000Z</time>
      </trkpt>
      <trkpt lat="45.85858" lon="4.69003">
        <ele>197.79884</ele>
        <time>2022-06-18T08:03:16.000Z</time>
      </trkpt>
      <trkpt lat="45.85862" lon="4.6901">
        <ele>197.88513</ele>
        <time>2022-06-18T08:03:17.000Z</time>
      </trkpt>
      <trkpt lat="45.85865" lon="4.69017">
        <ele>197.89631</ele>
        <time>2022-06-18T08:03:18.000Z</time>
      </trkpt>
      <trkpt lat="45.85869" lon="4.69025">
        <ele>197.8852</ele>
        <time>2022-06-18T08:03:19.000Z</time>
      </trkpt>
      <trkpt lat="45.85872" lon="4.69027">
        <ele>197.84752</ele>
        <time>2022-06-18T08:03:20.000Z</time>
      </trkpt>
      <trkpt lat="45.8587" lon="4.69033">
        <ele>197.87181</ele>
        <time>2022-06-18T08:03:21.000Z</time>
      </trkpt>
      <trkpt lat="45.85866" lon="4.69038">
        <ele>197.85717</ele>
        <time>2022-06-18T08:03:22.000Z</time>
      </trkpt>
      <trkpt lat="45.85862" lon="4.69045">
        <ele>197.708</ele>
        <time>2022-06-18T08:03:23.000Z</time>
      </trkpt>
      <trkpt lat="45.85861" lon="4.69049">
        <ele>197.61654</ele>
        <time>2022-06-18T08:03:24.000Z</time>
      </trkpt>
      <trkpt lat="45.85858" lon="4.69056">
        <ele>197.37879</ele>
        <time>2022-06-18T08:03:25.000Z</time>
      </trkpt>
      <trkpt lat="45.85855" lon="4.69062">
        <ele>197.22731</ele>
        <time>2022-06-18T08:03:26.000Z</time>
      </trkpt>
      <trkpt lat="45.85855" lon="4.69069">
        <ele>197.11095</ele>
        <time>2022-06-18T08:03:27.000Z</time>
      </trkpt>
      <trkpt lat="45.85851" lon="4.69076">
        <ele>197.04564</ele>
        <time>2022-06-18T08:03:28.000Z</time>
      </trkpt>
      <trkpt lat="45.85851" lon="4.69083">
        <ele>197.00122</ele>
        <time>2022-06-18T08:03:29.000Z</time>
      </trkpt>
      <trkpt lat="45.85847" lon="4.69092">
        <ele>196.96089</ele>
        <time>2022-06-18T08:03:30.000Z</time>
      </trkpt>
      <trkpt lat="45.85848" lon="4.69099">
        <ele>196.95871</ele>
        <time>2022-06-18T08:03:31.000Z</time>
      </trkpt>
      <trkpt lat="45.85848" lon="4.69106">
        <ele>196.98727</ele>
        <time>2022-06-18T08:03:32.000Z</time>
      </trkpt>
      <trkpt lat="45.85846" lon="4.69114">
        <ele>197.07295</ele>
        <time>2022-06-18T08:03:33.000Z</time>
      </trkpt>
      <trkpt lat="45.85843" lon="4.69122">
        <ele>197.09218</ele>
        <time>2022-06-18T08:03:34.000Z</time>
      </trkpt>
      <trkpt lat="45.85839" lon="4.69132">
        <ele>196.98296</ele>
        <time>2022-06-18T08:03:35.000Z</time>
      </trkpt>
      <trkpt lat="45.85842" lon="4.69136">
        <ele>197.1014</ele>
        <time>2022-06-18T08:03:36.000Z</time>
      </trkpt>
      <trkpt lat="45.85843" lon="4.69145">
        <ele>197.11647</ele>
        <time>2022-06-18T08:03:37.000Z</time>
      </trkpt>
      <trkpt lat="45.85846" lon="4.69154">
        <ele>197.06537</ele>
        <time>2022-06-18T08:03:38.000Z</time>
      </trkpt>
      <trkpt lat="45.85848" lon="4.69163">
        <ele>196.93972</ele>
        <time>2022-06-18T08:03:39.000Z</time>
      </trkpt>
      <trkpt lat="45.85848" lon="4.6917">
        <ele>196.87639</ele>
        <time>2022-06-18T08:03:40.000Z</time>
      </trkpt>
      <trkpt lat="45.85847" lon="4.69174">
        <ele>196.87369</ele>
        <time>2022-06-18T08:03:41.000Z</time>
      </trkpt>
      <trkpt lat="45.85846" lon="4.69179">
        <ele>196.86797</ele>
        <time>2022-06-18T08:03:42.000Z</time>
      </trkpt>
      <trkpt lat="45.85848" lon="4.69184">
        <ele>196.88344</ele>
        <time>2022-06-18T08:03:43.000Z</time>
      </trkpt>
      <trkpt lat="45.8585" lon="4.69179">
        <ele>196.86825</ele>
        <time>2022-06-18T08:03:44.000Z</time>
      </trkpt>
      <trkpt lat="45.85853" lon="4.69181">
        <ele>196.88532</ele>
        <time>2022-06-18T08:03:45.000Z</time>
      </trkpt>
      <trkpt lat="45.85849" lon="4.69179">
        <ele>196.87067</ele>
        <time>2022-06-18T08:03:46.000Z</time>
      </trkpt>
      <trkpt lat="45.85846" lon="4.69181">
        <ele>196.86658</ele>
        <time>2022-06-18T08:03:48.000Z</time>
      </trkpt>
      <trkpt lat="45.85844" lon="4.69179">
        <ele>196.86426</ele>
        <time>2022-06-18T08:03:50.000Z</time>
      </trkpt>
      <trkpt lat="45.85846" lon="4.69179">
        <ele>196.86818</ele>
        <time>2022-06-18T08:03:56.000Z</time>
      </trkpt>
      <trkpt lat="45.85847" lon="4.69187">
        <ele>196.89397</ele>
        <time>2022-06-18T08:04:15.000Z</time>
      </trkpt>
      <trkpt lat="45.85847" lon="4.69191">
        <ele>196.9065</ele>
        <time>2022-06-18T08:04:16.000Z</time>
      </trkpt>
      <trkpt lat="45.85847" lon="4.69194">
        <ele>196.92945</ele>
        <time>2022-06-18T08:04:17.000Z</time>
      </trkpt>
      <trkpt lat="45.85848" lon="4.69197">
        <ele>196.95849</ele>
        <time>2022-06-18T08:04:18.000Z</time>
      </trkpt>
      <trkpt lat="45.85847" lon="4.69201">
        <ele>196.98779</ele>
        <time>2022-06-18T08:04:19.000Z</time>
      </trkpt>
      <trkpt lat="45.85847" lon="4.69206">
        <ele>197.04439</ele>
        <time>2022-06-18T08:04:20.000Z</time>
      </trkpt>
      <trkpt lat="45.85846" lon="4.69212">
        <ele>197.12901</ele>
        <time>2022-06-18T08:04:21.000Z</time>
      </trkpt>
      <trkpt lat="45.85846" lon="4.69218">
        <ele>197.23315</ele>
        <time>2022-06-18T08:04:22.000Z</time>
      </trkpt>
      <trkpt lat="45.85845" lon="4.69225">
        <ele>197.35013</ele>
        <time>2022-06-18T08:04:23.000Z</time>
      </trkpt>
      <trkpt lat="45.85845" lon="4.69233">
        <ele>197.42589</ele>
        <time>2022-06-18T08:04:24.000Z</time>
      </trkpt>
      <trkpt lat="45.85843" lon="4.6924">
        <ele>197.45016</ele>
        <time>2022-06-18T08:04:25.000Z</time>
      </trkpt>
      <trkpt lat="45.85842" lon="4.69246">
        <ele>197.43347</ele>
        <time>2022-06-18T08:04:26.000Z</time>
      </trkpt>
      <trkpt lat="45.85841" lon="4.69254">
        <ele>197.38107</ele>
        <time>2022-06-18T08:04:27.000Z</time>
      </trkpt>
      <trkpt lat="45.8584" lon="4.69261">
        <ele>197.31581</ele>
        <time>2022-06-18T08:04:28.000Z</time>
      </trkpt>
      <trkpt lat="45.8584" lon="4.69268">
        <ele>197.24496</ele>
        <time>2022-06-18T08:04:29.000Z</time>
      </trkpt>
      <trkpt lat="45.8584" lon="4.69275">
        <ele>197.13633</ele>
        <time>2022-06-18T08:04:30.000Z</time>
      </trkpt>
      <trkpt lat="45.85841" lon="4.69282">
        <ele>197.02618</ele>
        <time>2022-06-18T08:04:31.000Z</time>
      </trkpt>
      <trkpt lat="45.85841" lon="4.69289">
        <ele>196.95315</ele>
        <time>2022-06-18T08:04:32.000Z</time>
      </trkpt>
      <trkpt lat="45.85842" lon="4.69296">
        <ele>196.94967</ele>
        <time>2022-06-18T08:04:33.000Z</time>
      </trkpt>
      <trkpt lat="45.85842" lon="4.69303">
        <ele>197.05454</ele>
        <time>2022-06-18T08:04:34.000Z</time>
      </trkpt>
      <trkpt lat="45.85843" lon="4.6931">
        <ele>197.22828</ele>
        <time>2022-06-18T08:04:35.000Z</time>
      </trkpt>
      <trkpt lat="45.85845" lon="4.69324">
        <ele>197.57493</ele>
        <time>2022-06-18T08:04:36.000Z</time>
      </trkpt>
      <trkpt lat="45.85844" lon="4.69341">
        <ele>197.51445</ele>
        <time>2022-06-18T08:04:38.000Z</time>
      </trkpt>
      <trkpt lat="45.8584" lon="4.69351">
        <ele>197.28368</ele>
        <time>2022-06-18T08:04:39.000Z</time>
      </trkpt>
      <trkpt lat="45.85835" lon="4.69355">
        <ele>197.04686</ele>
        <time>2022-06-18T08:04:40.000Z</time>
      </trkpt>
      <trkpt lat="45.85837" lon="4.69359">
        <ele>197.05087</ele>
        <time>2022-06-18T08:04:41.000Z</time>
      </trkpt>
      <trkpt lat="45.85839" lon="4.69363">
        <ele>197.06965</ele>
        <time>2022-06-18T08:04:42.000Z</time>
      </trkpt>
      <trkpt lat="45.85838" lon="4.69371">
        <ele>196.88077</ele>
        <time>2022-06-18T08:04:43.000Z</time>
      </trkpt>
      <trkpt lat="45.85835" lon="4.69376">
        <ele>196.70858</ele>
        <time>2022-06-18T08:04:44.000Z</time>
      </trkpt>
      <trkpt lat="45.85834" lon="4.6938">
        <ele>196.61243</ele>
        <time>2022-06-18T08:04:45.000Z</time>
      </trkpt>
      <trkpt lat="45.85832" lon="4.69384">
        <ele>196.52175</ele>
        <time>2022-06-18T08:04:46.000Z</time>
      </trkpt>
      <trkpt lat="45.85831" lon="4.69388">
        <ele>196.48541</ele>
        <time>2022-06-18T08:04:47.000Z</time>
      </trkpt>
      <trkpt lat="45.85828" lon="4.69392">
        <ele>196.4866</ele>
        <time>2022-06-18T08:04:48.000Z</time>
      </trkpt>
      <trkpt lat="45.85826" lon="4.69395">
        <ele>196.50291</ele>
        <time>2022-06-18T08:04:49.000Z</time>
      </trkpt>
      <trkpt lat="45.85823" lon="4.69399">
        <ele>196.45508</ele>
        <time>2022-06-18T08:04:50.000Z</time>
      </trkpt>
      <trkpt lat="45.85821" lon="4.69403">
        <ele>196.30059</ele>
        <time>2022-06-18T08:04:51.000Z</time>
      </trkpt>
      <trkpt lat="45.85818" lon="4.69407">
        <ele>195.98239</ele>
        <time>2022-06-18T08:04:52.000Z</time>
      </trkpt>
      <trkpt lat="45.85816" lon="4.69411">
        <ele>195.49121</ele>
        <time>2022-06-18T08:04:53.000Z</time>
      </trkpt>
      <trkpt lat="45.85813" lon="4.69415">
        <ele>194.82613</ele>
        <time>2022-06-18T08:04:54.000Z</time>
      </trkpt>
      <trkpt lat="45.85809" lon="4.69419">
        <ele>194.20414</ele>
        <time>2022-06-18T08:04:55.000Z</time>
      </trkpt>
      <trkpt lat="45.85807" lon="4.69423">
        <ele>193.80443</ele>
        <time>2022-06-18T08:04:56.000Z</time>
      </trkpt>
      <trkpt lat="45.85805" lon="4.69427">
        <ele>193.57842</ele>
        <time>2022-06-18T08:04:57.000Z</time>
      </trkpt>
      <trkpt lat="45.85806" lon="4.69438">
        <ele>193.62244</ele>
        <time>2022-06-18T08:04:58.000Z</time>
      </trkpt>
      <trkpt lat="45.85807" lon="4.69446">
        <ele>193.73403</ele>
        <time>2022-06-18T08:04:59.000Z</time>
      </trkpt>
      <trkpt lat="45.85805" lon="4.69452">
        <ele>193.79606</ele>
        <time>2022-06-18T08:05:00.000Z</time>
      </trkpt>
      <trkpt lat="45.85806" lon="4.6946">
        <ele>193.82431</ele>
        <time>2022-06-18T08:05:01.000Z</time>
      </trkpt>
      <trkpt lat="45.85809" lon="4.69469">
        <ele>193.86467</ele>
        <time>2022-06-18T08:05:02.000Z</time>
      </trkpt>
      <trkpt lat="45.85809" lon="4.69477">
        <ele>193.85434</ele>
        <time>2022-06-18T08:05:03.000Z</time>
      </trkpt>
      <trkpt lat="45.8581" lon="4.69484">
        <ele>193.94188</ele>
        <time>2022-06-18T08:05:04.000Z</time>
      </trkpt>
      <trkpt lat="45.8581" lon="4.69493">
        <ele>193.89064</ele>
        <time>2022-06-18T08:05:05.000Z</time>
      </trkpt>
      <trkpt lat="45.85811" lon="4.695">
        <ele>193.99193</ele>
        <time>2022-06-18T08:05:06.000Z</time>
      </trkpt>
      <trkpt lat="45.85812" lon="4.69505">
        <ele>194.07995</ele>
        <time>2022-06-18T08:05:07.000Z</time>
      </trkpt>
      <trkpt lat="45.85812" lon="4.69513">
        <ele>194.0263</ele>
        <time>2022-06-18T08:05:08.000Z</time>
      </trkpt>
      <trkpt lat="45.85818" lon="4.69523">
        <ele>194.74982</ele>
        <time>2022-06-18T08:05:09.000Z</time>
      </trkpt>
      <trkpt lat="45.8582" lon="4.69529">
        <ele>195.09867</ele>
        <time>2022-06-18T08:05:10.000Z</time>
      </trkpt>
      <trkpt lat="45.85822" lon="4.69539">
        <ele>195.34664</ele>
        <time>2022-06-18T08:05:11.000Z</time>
      </trkpt>
      <trkpt lat="45.85836" lon="4.69546">
        <ele>196.32714</ele>
        <time>2022-06-18T08:05:12.000Z</time>
      </trkpt>
      <trkpt lat="45.85854" lon="4.69553">
        <ele>196.17547</ele>
        <time>2022-06-18T08:05:13.000Z</time>
      </trkpt>
      <trkpt lat="45.85849" lon="4.6956">
        <ele>196.22477</ele>
        <time>2022-06-18T08:05:14.000Z</time>
      </trkpt>
      <trkpt lat="45.85839" lon="4.69568">
        <ele>196.31055</ele>
        <time>2022-06-18T08:05:15.000Z</time>
      </trkpt>
      <trkpt lat="45.85831" lon="4.69576">
        <ele>196.15254</ele>
        <time>2022-06-18T08:05:16.000Z</time>
      </trkpt>
      <trkpt lat="45.85833" lon="4.69583">
        <ele>196.2285</ele>
        <time>2022-06-18T08:05:17.000Z</time>
      </trkpt>
      <trkpt lat="45.85833" lon="4.69589">
        <ele>196.15532</ele>
        <time>2022-06-18T08:05:18.000Z</time>
      </trkpt>
      <trkpt lat="45.85836" lon="4.69598">
        <ele>196.1817</ele>
        <time>2022-06-18T08:05:19.000Z</time>
      </trkpt>
      <trkpt lat="45.85836" lon="4.69609">
        <ele>196.02032</ele>
        <time>2022-06-18T08:05:20.000Z</time>
      </trkpt>
      <trkpt lat="45.85837" lon="4.69615">
        <ele>195.95239</ele>
        <time>2022-06-18T08:05:21.000Z</time>
      </trkpt>
      <trkpt lat="45.85836" lon="4.69621">
        <ele>195.65891</ele>
        <time>2022-06-18T08:05:22.000Z</time>
      </trkpt>
      <trkpt lat="45.8584" lon="4.69629">
        <ele>195.51331</ele>
        <time>2022-06-18T08:05:23.000Z</time>
      </trkpt>
      <trkpt lat="45.85842" lon="4.69634">
        <ele>195.47583</ele>
        <time>2022-06-18T08:05:24.000Z</time>
      </trkpt>
      <trkpt lat="45.85844" lon="4.69644">
        <ele>195.22906</ele>
        <time>2022-06-18T08:05:25.000Z</time>
      </trkpt>
      <trkpt lat="45.85844" lon="4.69652">
        <ele>194.97508</ele>
        <time>2022-06-18T08:05:26.000Z</time>
      </trkpt>
      <trkpt lat="45.85851" lon="4.69659">
        <ele>195.43582</ele>
        <time>2022-06-18T08:05:27.000Z</time>
      </trkpt>
      <trkpt lat="45.85854" lon="4.69665">
        <ele>195.40058</ele>
        <time>2022-06-18T08:05:28.000Z</time>
      </trkpt>
      <trkpt lat="45.85863" lon="4.69673">
        <ele>195.64058</ele>
        <time>2022-06-18T08:05:29.000Z</time>
      </trkpt>
      <trkpt lat="45.85873" lon="4.69679">
        <ele>195.98681</ele>
        <time>2022-06-18T08:05:30.000Z</time>
      </trkpt>
      <trkpt lat="45.85875" lon="4.69685">
        <ele>196.0496</ele>
        <time>2022-06-18T08:05:31.000Z</time>
      </trkpt>
      <trkpt lat="45.85881" lon="4.69697">
        <ele>196.37199</ele>
        <time>2022-06-18T08:05:32.000Z</time>
      </trkpt>
      <trkpt lat="45.85873" lon="4.69704">
        <ele>196.44431</ele>
        <time>2022-06-18T08:05:33.000Z</time>
      </trkpt>
      <trkpt lat="45.85874" lon="4.69712">
        <ele>196.49084</ele>
        <time>2022-06-18T08:05:34.000Z</time>
      </trkpt>
      <trkpt lat="45.85881" lon="4.69718">
        <ele>196.27941</ele>
        <time>2022-06-18T08:05:35.000Z</time>
      </trkpt>
      <trkpt lat="45.85881" lon="4.69726">
        <ele>195.74095</ele>
        <time>2022-06-18T08:05:36.000Z</time>
      </trkpt>
      <trkpt lat="45.85885" lon="4.69734">
        <ele>195.33478</ele>
        <time>2022-06-18T08:05:37.000Z</time>
      </trkpt>
      <trkpt lat="45.85887" lon="4.69741">
        <ele>195.16233</ele>
        <time>2022-06-18T08:05:38.000Z</time>
      </trkpt>
      <trkpt lat="45.85891" lon="4.69747">
        <ele>195.3387</ele>
        <time>2022-06-18T08:05:39.000Z</time>
      </trkpt>
      <trkpt lat="45.85893" lon="4.69755">
        <ele>195.06483</ele>
        <time>2022-06-18T08:05:40.000Z</time>
      </trkpt>
      <trkpt lat="45.85896" lon="4.69763">
        <ele>194.59267</ele>
        <time>2022-06-18T08:05:41.000Z</time>
      </trkpt>
      <trkpt lat="45.85899" lon="4.69769">
        <ele>194.35577</ele>
        <time>2022-06-18T08:05:42.000Z</time>
      </trkpt>
      <trkpt lat="45.85901" lon="4.69775">
        <ele>194.26732</ele>
        <time>2022-06-18T08:05:43.000Z</time>
      </trkpt>
      <trkpt lat="45.85905" lon="4.69782">
        <ele>194.50128</ele>
        <time>2022-06-18T08:05:44.000Z</time>
      </trkpt>
      <trkpt lat="45.8591" lon="4.69788">
        <ele>194.80343</ele>
        <time>2022-06-18T08:05:45.000Z</time>
      </trkpt>
      <trkpt lat="45.85914" lon="4.69793">
        <ele>194.77803</ele>
        <time>2022-06-18T08:05:46.000Z</time>
      </trkpt>
      <trkpt lat="45.85916" lon="4.698">
        <ele>194.28474</ele>
        <time>2022-06-18T08:05:47.000Z</time>
      </trkpt>
      <trkpt lat="45.85919" lon="4.69806">
        <ele>193.90504</ele>
        <time>2022-06-18T08:05:48.000Z</time>
      </trkpt>
      <trkpt lat="45.85924" lon="4.69812">
        <ele>194.02613</ele>
        <time>2022-06-18T08:05:49.000Z</time>
      </trkpt>
      <trkpt lat="45.85929" lon="4.69818">
        <ele>194.37914</ele>
        <time>2022-06-18T08:05:50.000Z</time>
      </trkpt>
      <trkpt lat="45.85934" lon="4.69822">
        <ele>194.63087</ele>
        <time>2022-06-18T08:05:51.000Z</time>
      </trkpt>
      <trkpt lat="45.85938" lon="4.69828">
        <ele>194.46644</ele>
        <time>2022-06-18T08:05:52.000Z</time>
      </trkpt>
      <trkpt lat="45.85944" lon="4.6983">
        <ele>194.5997</ele>
        <time>2022-06-18T08:05:53.000Z</time>
      </trkpt>
      <trkpt lat="45.85948" lon="4.69836">
        <ele>194.66101</ele>
        <time>2022-06-18T08:05:54.000Z</time>
      </trkpt>
      <trkpt lat="45.85952" lon="4.69841">
        <ele>194.8617</ele>
        <time>2022-06-18T08:05:55.000Z</time>
      </trkpt>
      <trkpt lat="45.8596" lon="4.69846">
        <ele>195.50028</ele>
        <time>2022-06-18T08:05:56.000Z</time>
      </trkpt>
      <trkpt lat="45.85964" lon="4.6985">
        <ele>195.57446</ele>
        <time>2022-06-18T08:05:57.000Z</time>
      </trkpt>
      <trkpt lat="45.85969" lon="4.69854">
        <ele>195.48846</ele>
        <time>2022-06-18T08:05:58.000Z</time>
      </trkpt>
      <trkpt lat="45.85973" lon="4.69858">
        <ele>195.15352</ele>
        <time>2022-06-18T08:05:59.000Z</time>
      </trkpt>
      <trkpt lat="45.8598" lon="4.69861">
        <ele>195.10338</ele>
        <time>2022-06-18T08:06:00.000Z</time>
      </trkpt>
      <trkpt lat="45.85984" lon="4.69863">
        <ele>194.96724</ele>
        <time>2022-06-18T08:06:01.000Z</time>
      </trkpt>
      <trkpt lat="45.85988" lon="4.69871">
        <ele>194.55072</ele>
        <time>2022-06-18T08:06:02.000Z</time>
      </trkpt>
      <trkpt lat="45.85993" lon="4.69874">
        <ele>194.63526</ele>
        <time>2022-06-18T08:06:03.000Z</time>
      </trkpt>
      <trkpt lat="45.85997" lon="4.69877">
        <ele>194.85593</ele>
        <time>2022-06-18T08:06:04.000Z</time>
      </trkpt>
      <trkpt lat="45.86004" lon="4.69888">
        <ele>194.68905</ele>
        <time>2022-06-18T08:06:05.000Z</time>
      </trkpt>
      <trkpt lat="45.86011" lon="4.69886">
        <ele>195.14321</ele>
        <time>2022-06-18T08:06:06.000Z</time>
      </trkpt>
      <trkpt lat="45.86017" lon="4.69886">
        <ele>195.25742</ele>
        <time>2022-06-18T08:06:07.000Z</time>
      </trkpt>
      <trkpt lat="45.86023" lon="4.69889">
        <ele>195.00503</ele>
        <time>2022-06-18T08:06:08.000Z</time>
      </trkpt>
      <trkpt lat="45.86031" lon="4.69895">
        <ele>194.44864</ele>
        <time>2022-06-18T08:06:09.000Z</time>
      </trkpt>
      <trkpt lat="45.86038" lon="4.69896">
        <ele>194.38991</ele>
        <time>2022-06-18T08:06:10.000Z</time>
      </trkpt>
      <trkpt lat="45.86045" lon="4.69895">
        <ele>194.58981</ele>
        <time>2022-06-18T08:06:11.000Z</time>
      </trkpt>
      <trkpt lat="45.8605" lon="4.69895">
        <ele>194.5467</ele>
        <time>2022-06-18T08:06:12.000Z</time>
      </trkpt>
      <trkpt lat="45.86055" lon="4.69895">
        <ele>194.58453</ele>
        <time>2022-06-18T08:06:13.000Z</time>
      </trkpt>
      <trkpt lat="45.86061" lon="4.69898">
        <ele>194.29504</ele>
        <time>2022-06-18T08:06:14.000Z</time>
      </trkpt>
      <trkpt lat="45.86064" lon="4.69897">
        <ele>194.35698</ele>
        <time>2022-06-18T08:06:15.000Z</time>
      </trkpt>
      <trkpt lat="45.86071" lon="4.69893">
        <ele>194.6313</ele>
        <time>2022-06-18T08:06:16.000Z</time>
      </trkpt>
      <trkpt lat="45.86078" lon="4.69891">
        <ele>194.68139</ele>
        <time>2022-06-18T08:06:17.000Z</time>
      </trkpt>
      <trkpt lat="45.86083" lon="4.69891">
        <ele>194.55908</ele>
        <time>2022-06-18T08:06:18.000Z</time>
      </trkpt>
      <trkpt lat="45.86089" lon="4.69889">
        <ele>194.42564</ele>
        <time>2022-06-18T08:06:19.000Z</time>
      </trkpt>
      <trkpt lat="45.86096" lon="4.69888">
        <ele>194.25003</ele>
        <time>2022-06-18T08:06:20.000Z</time>
      </trkpt>
      <trkpt lat="45.86102" lon="4.69884">
        <ele>194.16258</ele>
        <time>2022-06-18T08:06:21.000Z</time>
      </trkpt>
      <trkpt lat="45.8611" lon="4.6988">
        <ele>193.90204</ele>
        <time>2022-06-18T08:06:22.000Z</time>
      </trkpt>
      <trkpt lat="45.86119" lon="4.69876">
        <ele>193.77492</ele>
        <time>2022-06-18T08:06:23.000Z</time>
      </trkpt>
      <trkpt lat="45.86128" lon="4.69872">
        <ele>194.01721</ele>
        <time>2022-06-18T08:06:24.000Z</time>
      </trkpt>
      <trkpt lat="45.86131" lon="4.69869">
        <ele>194.25644</ele>
        <time>2022-06-18T08:06:25.000Z</time>
      </trkpt>
      <trkpt lat="45.86134" lon="4.69862">
        <ele>194.90504</ele>
        <time>2022-06-18T08:06:26.000Z</time>
      </trkpt>
      <trkpt lat="45.86137" lon="4.69854">
        <ele>195.33462</ele>
        <time>2022-06-18T08:06:27.000Z</time>
      </trkpt>
      <trkpt lat="45.8614" lon="4.6985">
        <ele>195.32206</ele>
        <time>2022-06-18T08:06:28.000Z</time>
      </trkpt>
      <trkpt lat="45.86144" lon="4.69844">
        <ele>195.09877</ele>
        <time>2022-06-18T08:06:29.000Z</time>
      </trkpt>
      <trkpt lat="45.86152" lon="4.6984">
        <ele>194.55004</ele>
        <time>2022-06-18T08:06:30.000Z</time>
      </trkpt>
      <trkpt lat="45.86158" lon="4.69834">
        <ele>194.42457</ele>
        <time>2022-06-18T08:06:31.000Z</time>
      </trkpt>
      <trkpt lat="45.86163" lon="4.69828">
        <ele>194.56754</ele>
        <time>2022-06-18T08:06:32.000Z</time>
      </trkpt>
      <trkpt lat="45.86168" lon="4.69823">
        <ele>194.71107</ele>
        <time>2022-06-18T08:06:33.000Z</time>
      </trkpt>
      <trkpt lat="45.86172" lon="4.69817">
        <ele>194.82355</ele>
        <time>2022-06-18T08:06:34.000Z</time>
      </trkpt>
      <trkpt lat="45.86178" lon="4.69812">
        <ele>194.75708</ele>
        <time>2022-06-18T08:06:35.000Z</time>
      </trkpt>
      <trkpt lat="45.86184" lon="4.69808">
        <ele>194.56318</ele>
        <time>2022-06-18T08:06:36.000Z</time>
      </trkpt>
      <trkpt lat="45.86189" lon="4.69804">
        <ele>194.42274</ele>
        <time>2022-06-18T08:06:37.000Z</time>
      </trkpt>
      <trkpt lat="45.86195" lon="4.698">
        <ele>194.48024</ele>
        <time>2022-06-18T08:06:38.000Z</time>
      </trkpt>
      <trkpt lat="45.86202" lon="4.69796">
        <ele>194.68904</ele>
        <time>2022-06-18T08:06:39.000Z</time>
      </trkpt>
      <trkpt lat="45.86208" lon="4.69792">
        <ele>194.89839</ele>
        <time>2022-06-18T08:06:40.000Z</time>
      </trkpt>
      <trkpt lat="45.86213" lon="4.69786">
        <ele>194.6998</ele>
        <time>2022-06-18T08:06:41.000Z</time>
      </trkpt>
      <trkpt lat="45.86216" lon="4.69782">
        <ele>194.55038</ele>
        <time>2022-06-18T08:06:42.000Z</time>
      </trkpt>
      <trkpt lat="45.86219" lon="4.6978">
        <ele>194.16695</ele>
        <time>2022-06-18T08:06:43.000Z</time>
      </trkpt>
      <trkpt lat="45.86222" lon="4.69776">
        <ele>194.01794</ele>
        <time>2022-06-18T08:06:44.000Z</time>
      </trkpt>
      <trkpt lat="45.86226" lon="4.69772">
        <ele>194.07726</ele>
        <time>2022-06-18T08:06:45.000Z</time>
      </trkpt>
      <trkpt lat="45.86228" lon="4.69766">
        <ele>194.43849</ele>
        <time>2022-06-18T08:06:46.000Z</time>
      </trkpt>
      <trkpt lat="45.86231" lon="4.69763">
        <ele>194.6211</ele>
        <time>2022-06-18T08:06:47.000Z</time>
      </trkpt>
      <trkpt lat="45.86235" lon="4.69759">
        <ele>194.90151</ele>
        <time>2022-06-18T08:06:48.000Z</time>
      </trkpt>
      <trkpt lat="45.8624" lon="4.69757">
        <ele>195.0447</ele>
        <time>2022-06-18T08:06:49.000Z</time>
      </trkpt>
      <trkpt lat="45.86244" lon="4.69755">
        <ele>195.11736</ele>
        <time>2022-06-18T08:06:50.000Z</time>
      </trkpt>
      <trkpt lat="45.8625" lon="4.69754">
        <ele>195.09623</ele>
        <time>2022-06-18T08:06:51.000Z</time>
      </trkpt>
      <trkpt lat="45.86255" lon="4.69753">
        <ele>194.87434</ele>
        <time>2022-06-18T08:06:52.000Z</time>
      </trkpt>
      <trkpt lat="45.8626" lon="4.6975">
        <ele>194.53935</ele>
        <time>2022-06-18T08:06:53.000Z</time>
      </trkpt>
      <trkpt lat="45.86268" lon="4.69751">
        <ele>193.68583</ele>
        <time>2022-06-18T08:06:54.000Z</time>
      </trkpt>
      <trkpt lat="45.86272" lon="4.69749">
        <ele>193.32593</ele>
        <time>2022-06-18T08:06:55.000Z</time>
      </trkpt>
      <trkpt lat="45.86277" lon="4.6975">
        <ele>192.96949</ele>
        <time>2022-06-18T08:06:56.000Z</time>
      </trkpt>
      <trkpt lat="45.86282" lon="4.69749">
        <ele>192.90294</ele>
        <time>2022-06-18T08:06:57.000Z</time>
      </trkpt>
      <trkpt lat="45.86286" lon="4.69749">
        <ele>192.79629</ele>
        <time>2022-06-18T08:06:58.000Z</time>
      </trkpt>
      <trkpt lat="45.86291" lon="4.69747">
        <ele>192.95042</ele>
        <time>2022-06-18T08:06:59.000Z</time>
      </trkpt>
      <trkpt lat="45.86295" lon="4.69746">
        <ele>193.11875</ele>
        <time>2022-06-18T08:07:00.000Z</time>
      </trkpt>
      <trkpt lat="45.863" lon="4.69745">
        <ele>193.38381</ele>
        <time>2022-06-18T08:07:01.000Z</time>
      </trkpt>
      <trkpt lat="45.86307" lon="4.69746">
        <ele>193.96831</ele>
        <time>2022-06-18T08:07:02.000Z</time>
      </trkpt>
      <trkpt lat="45.86313" lon="4.69747">
        <ele>194.66737</ele>
        <time>2022-06-18T08:07:03.000Z</time>
      </trkpt>
      <trkpt lat="45.86317" lon="4.69749">
        <ele>195.10329</ele>
        <time>2022-06-18T08:07:04.000Z</time>
      </trkpt>
      <trkpt lat="45.8632" lon="4.6975">
        <ele>195.40402</ele>
        <time>2022-06-18T08:07:05.000Z</time>
      </trkpt>
      <trkpt lat="45.86319" lon="4.69754">
        <ele>195.28139</ele>
        <time>2022-06-18T08:07:06.000Z</time>
      </trkpt>
      <trkpt lat="45.86322" lon="4.69752">
        <ele>195.50883</ele>
        <time>2022-06-18T08:07:09.000Z</time>
      </trkpt>
      <trkpt lat="45.86322" lon="4.69757">
        <ele>195.44195</ele>
        <time>2022-06-18T08:07:11.000Z</time>
      </trkpt>
      <trkpt lat="45.86323" lon="4.69756">
        <ele>195.578</ele>
        <time>2022-06-18T08:07:15.000Z</time>
      </trkpt>
      <trkpt lat="45.86323" lon="4.69756">
        <ele>195.578</ele>
        <time>2022-06-18T08:07:15.000Z</time>
      </trkpt>
      <trkpt lat="45.86321" lon="4.69755">
        <ele>195.42113</ele>
        <time>2022-06-18T08:07:44.000Z</time>
      </trkpt>
      <trkpt lat="45.86319" lon="4.69757">
        <ele>195.21286</ele>
        <time>2022-06-18T08:07:55.000Z</time>
      </trkpt>
      <trkpt lat="45.86318" lon="4.69759">
        <ele>194.97198</ele>
        <time>2022-06-18T08:08:44.000Z</time>
      </trkpt>
      <trkpt lat="45.86319" lon="4.6976">
        <ele>195.15477</ele>
        <time>2022-06-18T08:08:54.000Z</time>
      </trkpt>
      <trkpt lat="45.86322" lon="4.69761">
        <ele>195.36532</ele>
        <time>2022-06-18T08:09:20.000Z</time>
      </trkpt>
      <trkpt lat="45.86325" lon="4.69761">
        <ele>195.49854</ele>
        <time>2022-06-18T08:09:22.000Z</time>
      </trkpt>
      <trkpt lat="45.86327" lon="4.69759">
        <ele>195.62476</ele>
        <time>2022-06-18T08:09:24.000Z</time>
      </trkpt>
      <trkpt lat="45.86329" lon="4.69759">
        <ele>195.67492</ele>
        <time>2022-06-18T08:09:25.000Z</time>
      </trkpt>
      <trkpt lat="45.86331" lon="4.69759">
        <ele>195.67266</ele>
        <time>2022-06-18T08:09:26.000Z</time>
      </trkpt>
      <trkpt lat="45.86339" lon="4.69753">
        <ele>195.64887</ele>
        <time>2022-06-18T08:09:32.000Z</time>
      </trkpt>
      <trkpt lat="45.86338" lon="4.6975">
        <ele>195.65565</ele>
        <time>2022-06-18T08:09:33.000Z</time>
      </trkpt>
      <trkpt lat="45.86336" lon="4.69747">
        <ele>195.62688</ele>
        <time>2022-06-18T08:09:34.000Z</time>
      </trkpt>
      <trkpt lat="45.86334" lon="4.69744">
        <ele>195.5617</ele>
        <time>2022-06-18T08:09:35.000Z</time>
      </trkpt>
      <trkpt lat="45.86331" lon="4.69739">
        <ele>195.43632</ele>
        <time>2022-06-18T08:09:36.000Z</time>
      </trkpt>
      <trkpt lat="45.86329" lon="4.69735">
        <ele>195.31599</ele>
        <time>2022-06-18T08:09:37.000Z</time>
      </trkpt>
      <trkpt lat="45.86327" lon="4.6973">
        <ele>195.25891</ele>
        <time>2022-06-18T08:09:38.000Z</time>
      </trkpt>
      <trkpt lat="45.86326" lon="4.69725">
        <ele>195.30539</ele>
        <time>2022-06-18T08:09:39.000Z</time>
      </trkpt>
      <trkpt lat="45.86325" lon="4.6972">
        <ele>195.41264</ele>
        <time>2022-06-18T08:09:40.000Z</time>
      </trkpt>
      <trkpt lat="45.86324" lon="4.69714">
        <ele>195.56684</ele>
        <time>2022-06-18T08:09:41.000Z</time>
      </trkpt>
      <trkpt lat="45.86325" lon="4.69709">
        <ele>195.71908</ele>
        <time>2022-06-18T08:09:42.000Z</time>
      </trkpt>
      <trkpt lat="45.86327" lon="4.69704">
        <ele>195.81535</ele>
        <time>2022-06-18T08:09:43.000Z</time>
      </trkpt>
      <trkpt lat="45.8633" lon="4.69699">
        <ele>195.82012</ele>
        <time>2022-06-18T08:09:44.000Z</time>
      </trkpt>
      <trkpt lat="45.86333" lon="4.69694">
        <ele>195.73451</ele>
        <time>2022-06-18T08:09:45.000Z</time>
      </trkpt>
      <trkpt lat="45.86338" lon="4.69689">
        <ele>195.58323</ele>
        <time>2022-06-18T08:09:46.000Z</time>
      </trkpt>
      <trkpt lat="45.86342" lon="4.69685">
        <ele>195.54035</ele>
        <time>2022-06-18T08:09:47.000Z</time>
      </trkpt>
      <trkpt lat="45.86345" lon="4.69679">
        <ele>195.56388</ele>
        <time>2022-06-18T08:09:48.000Z</time>
      </trkpt>
      <trkpt lat="45.86348" lon="4.69675">
        <ele>195.61733</ele>
        <time>2022-06-18T08:09:49.000Z</time>
      </trkpt>
      <trkpt lat="45.86352" lon="4.6967">
        <ele>195.66842</ele>
        <time>2022-06-18T08:09:50.000Z</time>
      </trkpt>
      <trkpt lat="45.86355" lon="4.69666">
        <ele>195.70524</ele>
        <time>2022-06-18T08:09:51.000Z</time>
      </trkpt>
      <trkpt lat="45.86359" lon="4.6966">
        <ele>195.78269</ele>
        <time>2022-06-18T08:09:52.000Z</time>
      </trkpt>
      <trkpt lat="45.86363" lon="4.69656">
        <ele>195.89381</ele>
        <time>2022-06-18T08:09:53.000Z</time>
      </trkpt>
      <trkpt lat="45.86366" lon="4.69651">
        <ele>196.08879</ele>
        <time>2022-06-18T08:09:54.000Z</time>
      </trkpt>
      <trkpt lat="45.8637" lon="4.69646">
        <ele>196.36139</ele>
        <time>2022-06-18T08:09:55.000Z</time>
      </trkpt>
      <trkpt lat="45.86373" lon="4.69641">
        <ele>196.71284</ele>
        <time>2022-06-18T08:09:56.000Z</time>
      </trkpt>
      <trkpt lat="45.86376" lon="4.69636">
        <ele>197.10194</ele>
        <time>2022-06-18T08:09:57.000Z</time>
      </trkpt>
      <trkpt lat="45.86378" lon="4.69631">
        <ele>197.53039</ele>
        <time>2022-06-18T08:09:58.000Z</time>
      </trkpt>
      <trkpt lat="45.86382" lon="4.69627">
        <ele>198.06732</ele>
        <time>2022-06-18T08:09:59.000Z</time>
      </trkpt>
      <trkpt lat="45.86385" lon="4.69623">
        <ele>198.61914</ele>
        <time>2022-06-18T08:10:00.000Z</time>
      </trkpt>
      <trkpt lat="45.86387" lon="4.69619">
        <ele>199.21236</ele>
        <time>2022-06-18T08:10:01.000Z</time>
      </trkpt>
      <trkpt lat="45.8639" lon="4.69614">
        <ele>199.89392</ele>
        <time>2022-06-18T08:10:02.000Z</time>
      </trkpt>
      <trkpt lat="45.8639" lon="4.6961">
        <ele>200.37176</ele>
        <time>2022-06-18T08:10:03.000Z</time>
      </trkpt>
      <trkpt lat="45.86391" lon="4.69604">
        <ele>200.91744</ele>
        <time>2022-06-18T08:10:04.000Z</time>
      </trkpt>
      <trkpt lat="45.86391" lon="4.69598">
        <ele>201.26463</ele>
        <time>2022-06-18T08:10:05.000Z</time>
      </trkpt>
      <trkpt lat="45.86391" lon="4.69592">
        <ele>201.68691</ele>
        <time>2022-06-18T08:10:06.000Z</time>
      </trkpt>
      <trkpt lat="45.86391" lon="4.69587">
        <ele>202.01369</ele>
        <time>2022-06-18T08:10:07.000Z</time>
      </trkpt>
      <trkpt lat="45.8639" lon="4.69583">
        <ele>202.11794</ele>
        <time>2022-06-18T08:10:08.000Z</time>
      </trkpt>
      <trkpt lat="45.8639" lon="4.69578">
        <ele>202.28502</ele>
        <time>2022-06-18T08:10:09.000Z</time>
      </trkpt>
      <trkpt lat="45.86389" lon="4.69572">
        <ele>202.49916</ele>
        <time>2022-06-18T08:10:10.000Z</time>
      </trkpt>
      <trkpt lat="45.86388" lon="4.69567">
        <ele>202.82805</ele>
        <time>2022-06-18T08:10:11.000Z</time>
      </trkpt>
      <trkpt lat="45.86388" lon="4.69562">
        <ele>203.21027</ele>
        <time>2022-06-18T08:10:12.000Z</time>
      </trkpt>
      <trkpt lat="45.86387" lon="4.69556">
        <ele>203.68283</ele>
        <time>2022-06-18T08:10:13.000Z</time>
      </trkpt>
      <trkpt lat="45.86387" lon="4.69551">
        <ele>204.22193</ele>
        <time>2022-06-18T08:10:14.000Z</time>
      </trkpt>
      <trkpt lat="45.86387" lon="4.69546">
        <ele>204.74496</ele>
        <time>2022-06-18T08:10:15.000Z</time>
      </trkpt>
      <trkpt lat="45.86387" lon="4.69542">
        <ele>205.23771</ele>
        <time>2022-06-18T08:10:16.000Z</time>
      </trkpt>
      <trkpt lat="45.86386" lon="4.69537">
        <ele>205.75159</ele>
        <time>2022-06-18T08:10:17.000Z</time>
      </trkpt>
      <trkpt lat="45.86386" lon="4.69533">
        <ele>206.30721</ele>
        <time>2022-06-18T08:10:18.000Z</time>
      </trkpt>
      <trkpt lat="45.86385" lon="4.69528">
        <ele>206.95267</ele>
        <time>2022-06-18T08:10:19.000Z</time>
      </trkpt>
      <trkpt lat="45.86385" lon="4.69523">
        <ele>207.62876</ele>
        <time>2022-06-18T08:10:20.000Z</time>
      </trkpt>
      <trkpt lat="45.86384" lon="4.69519">
        <ele>208.30394</ele>
        <time>2022-06-18T08:10:21.000Z</time>
      </trkpt>
      <trkpt lat="45.86383" lon="4.69515">
        <ele>208.98281</ele>
        <time>2022-06-18T08:10:22.000Z</time>
      </trkpt>
      <trkpt lat="45.86382" lon="4.69511">
        <ele>209.70049</ele>
        <time>2022-06-18T08:10:23.000Z</time>
      </trkpt>
      <trkpt lat="45.86381" lon="4.69507">
        <ele>210.35724</ele>
        <time>2022-06-18T08:10:24.000Z</time>
      </trkpt>
      <trkpt lat="45.8638" lon="4.69503">
        <ele>210.95287</ele>
        <time>2022-06-18T08:10:25.000Z</time>
      </trkpt>
      <trkpt lat="45.8638" lon="4.695">
        <ele>211.46421</ele>
        <time>2022-06-18T08:10:26.000Z</time>
      </trkpt>
      <trkpt lat="45.86379" lon="4.69496">
        <ele>211.90509</ele>
        <time>2022-06-18T08:10:27.000Z</time>
      </trkpt>
      <trkpt lat="45.86379" lon="4.69493">
        <ele>212.29775</ele>
        <time>2022-06-18T08:10:28.000Z</time>
      </trkpt>
      <trkpt lat="45.86378" lon="4.69489">
        <ele>212.69941</ele>
        <time>2022-06-18T08:10:29.000Z</time>
      </trkpt>
      <trkpt lat="45.86377" lon="4.69485">
        <ele>213.09347</ele>
        <time>2022-06-18T08:10:30.000Z</time>
      </trkpt>
      <trkpt lat="45.86377" lon="4.6948">
        <ele>213.51262</ele>
        <time>2022-06-18T08:10:31.000Z</time>
      </trkpt>
      <trkpt lat="45.86377" lon="4.69476">
        <ele>213.96247</ele>
        <time>2022-06-18T08:10:32.000Z</time>
      </trkpt>
      <trkpt lat="45.86377" lon="4.69471">
        <ele>214.46831</ele>
        <time>2022-06-18T08:10:33.000Z</time>
      </trkpt>
      <trkpt lat="45.86378" lon="4.69466">
        <ele>215.01141</ele>
        <time>2022-06-18T08:10:34.000Z</time>
      </trkpt>
      <trkpt lat="45.8638" lon="4.69462">
        <ele>215.56394</ele>
        <time>2022-06-18T08:10:35.000Z</time>
      </trkpt>
      <trkpt lat="45.86383" lon="4.69458">
        <ele>215.99134</ele>
        <time>2022-06-18T08:10:36.000Z</time>
      </trkpt>
      <trkpt lat="45.86386" lon="4.69457">
        <ele>216.26051</ele>
        <time>2022-06-18T08:10:37.000Z</time>
      </trkpt>
      <trkpt lat="45.8639" lon="4.69457">
        <ele>216.42807</ele>
        <time>2022-06-18T08:10:38.000Z</time>
      </trkpt>
      <trkpt lat="45.86394" lon="4.69458">
        <ele>216.52185</ele>
        <time>2022-06-18T08:10:39.000Z</time>
      </trkpt>
      <trkpt lat="45.86398" lon="4.6946">
        <ele>216.5788</ele>
        <time>2022-06-18T08:10:40.000Z</time>
      </trkpt>
      <trkpt lat="45.86403" lon="4.69461">
        <ele>216.59387</ele>
        <time>2022-06-18T08:10:41.000Z</time>
      </trkpt>
      <trkpt lat="45.86407" lon="4.69462">
        <ele>216.58245</ele>
        <time>2022-06-18T08:10:42.000Z</time>
      </trkpt>
      <trkpt lat="45.86411" lon="4.69462">
        <ele>216.55765</ele>
        <time>2022-06-18T08:10:43.000Z</time>
      </trkpt>
      <trkpt lat="45.86415" lon="4.69461">
        <ele>216.52739</ele>
        <time>2022-06-18T08:10:44.000Z</time>
      </trkpt>
      <trkpt lat="45.86419" lon="4.6946">
        <ele>216.46863</ele>
        <time>2022-06-18T08:10:45.000Z</time>
      </trkpt>
      <trkpt lat="45.86423" lon="4.69459">
        <ele>216.35566</ele>
        <time>2022-06-18T08:10:46.000Z</time>
      </trkpt>
      <trkpt lat="45.86427" lon="4.69457">
        <ele>216.22243</ele>
        <time>2022-06-18T08:10:47.000Z</time>
      </trkpt>
      <trkpt lat="45.86431" lon="4.69456">
        <ele>216.12421</ele>
        <time>2022-06-18T08:10:48.000Z</time>
      </trkpt>
      <trkpt lat="45.86435" lon="4.69455">
        <ele>216.07902</ele>
        <time>2022-06-18T08:10:49.000Z</time>
      </trkpt>
      <trkpt lat="45.86439" lon="4.69455">
        <ele>216.10189</ele>
        <time>2022-06-18T08:10:50.000Z</time>
      </trkpt>
      <trkpt lat="45.86443" lon="4.69454">
        <ele>216.20318</ele>
        <time>2022-06-18T08:10:51.000Z</time>
      </trkpt>
      <trkpt lat="45.86447" lon="4.69454">
        <ele>216.38082</ele>
        <time>2022-06-18T08:10:52.000Z</time>
      </trkpt>
      <trkpt lat="45.86451" lon="4.69454">
        <ele>216.59703</ele>
        <time>2022-06-18T08:10:53.000Z</time>
      </trkpt>
      <trkpt lat="45.86455" lon="4.69453">
        <ele>216.83686</ele>
        <time>2022-06-18T08:10:54.000Z</time>
      </trkpt>
      <trkpt lat="45.86459" lon="4.69453">
        <ele>217.07551</ele>
        <time>2022-06-18T08:10:55.000Z</time>
      </trkpt>
      <trkpt lat="45.86463" lon="4.69452">
        <ele>217.3056</ele>
        <time>2022-06-18T08:10:56.000Z</time>
      </trkpt>
      <trkpt lat="45.86466" lon="4.69452">
        <ele>217.56697</ele>
        <time>2022-06-18T08:10:57.000Z</time>
      </trkpt>
      <trkpt lat="45.86469" lon="4.69451">
        <ele>217.8433</ele>
        <time>2022-06-18T08:10:58.000Z</time>
      </trkpt>
      <trkpt lat="45.86472" lon="4.69451">
        <ele>218.12762</ele>
        <time>2022-06-18T08:10:59.000Z</time>
      </trkpt>
      <trkpt lat="45.86475" lon="4.6945">
        <ele>218.39382</ele>
        <time>2022-06-18T08:11:00.000Z</time>
      </trkpt>
      <trkpt lat="45.86478" lon="4.6945">
        <ele>218.63715</ele>
        <time>2022-06-18T08:11:01.000Z</time>
      </trkpt>
      <trkpt lat="45.8648" lon="4.69449">
        <ele>218.81861</ele>
        <time>2022-06-18T08:11:02.000Z</time>
      </trkpt>
      <trkpt lat="45.86482" lon="4.69448">
        <ele>218.96895</ele>
        <time>2022-06-18T08:11:03.000Z</time>
      </trkpt>
      <trkpt lat="45.86484" lon="4.69447">
        <ele>219.08386</ele>
        <time>2022-06-18T08:11:04.000Z</time>
      </trkpt>
      <trkpt lat="45.86486" lon="4.69444">
        <ele>219.15406</ele>
        <time>2022-06-18T08:11:05.000Z</time>
      </trkpt>
      <trkpt lat="45.86487" lon="4.6944">
        <ele>219.15669</ele>
        <time>2022-06-18T08:11:06.000Z</time>
      </trkpt>
      <trkpt lat="45.86487" lon="4.69434">
        <ele>219.08149</ele>
        <time>2022-06-18T08:11:07.000Z</time>
      </trkpt>
      <trkpt lat="45.86485" lon="4.69429">
        <ele>218.93976</ele>
        <time>2022-06-18T08:11:08.000Z</time>
      </trkpt>
      <trkpt lat="45.86482" lon="4.69423">
        <ele>218.79642</ele>
        <time>2022-06-18T08:11:09.000Z</time>
      </trkpt>
      <trkpt lat="45.86479" lon="4.69418">
        <ele>218.7619</ele>
        <time>2022-06-18T08:11:10.000Z</time>
      </trkpt>
      <trkpt lat="45.86472" lon="4.69414">
        <ele>218.8941</ele>
        <time>2022-06-18T08:11:11.000Z</time>
      </trkpt>
      <trkpt lat="45.86469" lon="4.69409">
        <ele>219.01164</ele>
        <time>2022-06-18T08:11:12.000Z</time>
      </trkpt>
      <trkpt lat="45.86467" lon="4.69404">
        <ele>219.05576</ele>
        <time>2022-06-18T08:11:13.000Z</time>
      </trkpt>
      <trkpt lat="45.86463" lon="4.69399">
        <ele>219.03859</ele>
        <time>2022-06-18T08:11:14.000Z</time>
      </trkpt>
      <trkpt lat="45.86461" lon="4.69396">
        <ele>218.99045</ele>
        <time>2022-06-18T08:11:15.000Z</time>
      </trkpt>
      <trkpt lat="45.86459" lon="4.69394">
        <ele>218.95221</ele>
        <time>2022-06-18T08:11:16.000Z</time>
      </trkpt>
      <trkpt lat="45.86458" lon="4.69391">
        <ele>218.90739</ele>
        <time>2022-06-18T08:11:17.000Z</time>
      </trkpt>
      <trkpt lat="45.86458" lon="4.69388">
        <ele>218.8825</ele>
        <time>2022-06-18T08:11:18.000Z</time>
      </trkpt>
      <trkpt lat="45.86459" lon="4.69386">
        <ele>218.85776</ele>
        <time>2022-06-18T08:11:19.000Z</time>
      </trkpt>
      <trkpt lat="45.86461" lon="4.69384">
        <ele>218.82944</ele>
        <time>2022-06-18T08:11:20.000Z</time>
      </trkpt>
      <trkpt lat="45.86465" lon="4.69383">
        <ele>218.79929</ele>
        <time>2022-06-18T08:11:21.000Z</time>
      </trkpt>
      <trkpt lat="45.86468" lon="4.69381">
        <ele>218.77908</ele>
        <time>2022-06-18T08:11:22.000Z</time>
      </trkpt>
      <trkpt lat="45.86471" lon="4.6938">
        <ele>218.77241</ele>
        <time>2022-06-18T08:11:23.000Z</time>
      </trkpt>
      <trkpt lat="45.86473" lon="4.69377">
        <ele>218.78077</ele>
        <time>2022-06-18T08:11:24.000Z</time>
      </trkpt>
      <trkpt lat="45.86476" lon="4.69374">
        <ele>218.80512</ele>
        <time>2022-06-18T08:11:25.000Z</time>
      </trkpt>
      <trkpt lat="45.86479" lon="4.69371">
        <ele>218.84412</ele>
        <time>2022-06-18T08:11:26.000Z</time>
      </trkpt>
      <trkpt lat="45.86482" lon="4.69367">
        <ele>218.88983</ele>
        <time>2022-06-18T08:11:27.000Z</time>
      </trkpt>
      <trkpt lat="45.86485" lon="4.69364">
        <ele>218.93825</ele>
        <time>2022-06-18T08:11:28.000Z</time>
      </trkpt>
      <trkpt lat="45.86488" lon="4.6936">
        <ele>218.98706</ele>
        <time>2022-06-18T08:11:29.000Z</time>
      </trkpt>
      <trkpt lat="45.86492" lon="4.69357">
        <ele>219.04171</ele>
        <time>2022-06-18T08:11:30.000Z</time>
      </trkpt>
      <trkpt lat="45.86495" lon="4.69353">
        <ele>219.0976</ele>
        <time>2022-06-18T08:11:31.000Z</time>
      </trkpt>
      <trkpt lat="45.86499" lon="4.6935">
        <ele>219.14906</ele>
        <time>2022-06-18T08:11:32.000Z</time>
      </trkpt>
      <trkpt lat="45.86502" lon="4.69347">
        <ele>219.19801</ele>
        <time>2022-06-18T08:11:33.000Z</time>
      </trkpt>
      <trkpt lat="45.86505" lon="4.69343">
        <ele>219.24919</ele>
        <time>2022-06-18T08:11:34.000Z</time>
      </trkpt>
      <trkpt lat="45.86507" lon="4.6934">
        <ele>219.30012</ele>
        <time>2022-06-18T08:11:35.000Z</time>
      </trkpt>
      <trkpt lat="45.86511" lon="4.69335">
        <ele>219.35732</ele>
        <time>2022-06-18T08:11:36.000Z</time>
      </trkpt>
      <trkpt lat="45.86514" lon="4.69332">
        <ele>219.38889</ele>
        <time>2022-06-18T08:11:37.000Z</time>
      </trkpt>
      <trkpt lat="45.86518" lon="4.69328">
        <ele>219.39139</ele>
        <time>2022-06-18T08:11:38.000Z</time>
      </trkpt>
      <trkpt lat="45.86521" lon="4.69324">
        <ele>219.38566</ele>
        <time>2022-06-18T08:11:39.000Z</time>
      </trkpt>
      <trkpt lat="45.86524" lon="4.6932">
        <ele>219.40382</ele>
        <time>2022-06-18T08:11:40.000Z</time>
      </trkpt>
      <trkpt lat="45.86531" lon="4.69314">
        <ele>219.66714</ele>
        <time>2022-06-18T08:11:42.000Z</time>
      </trkpt>
      <trkpt lat="45.86535" lon="4.69311">
        <ele>219.96653</ele>
        <time>2022-06-18T08:11:43.000Z</time>
      </trkpt>
      <trkpt lat="45.86538" lon="4.69308">
        <ele>220.31706</ele>
        <time>2022-06-18T08:11:44.000Z</time>
      </trkpt>
      <trkpt lat="45.86541" lon="4.69305">
        <ele>220.60116</ele>
        <time>2022-06-18T08:11:45.000Z</time>
      </trkpt>
      <trkpt lat="45.86545" lon="4.69302">
        <ele>220.79399</ele>
        <time>2022-06-18T08:11:46.000Z</time>
      </trkpt>
      <trkpt lat="45.86548" lon="4.69299">
        <ele>220.81316</ele>
        <time>2022-06-18T08:11:47.000Z</time>
      </trkpt>
      <trkpt lat="45.86551" lon="4.69296">
        <ele>220.70379</ele>
        <time>2022-06-18T08:11:48.000Z</time>
      </trkpt>
      <trkpt lat="45.86554" lon="4.69292">
        <ele>220.5054</ele>
        <time>2022-06-18T08:11:49.000Z</time>
      </trkpt>
      <trkpt lat="45.86557" lon="4.69288">
        <ele>220.30696</ele>
        <time>2022-06-18T08:11:50.000Z</time>
      </trkpt>
      <trkpt lat="45.8656" lon="4.69284">
        <ele>220.25158</ele>
        <time>2022-06-18T08:11:51.000Z</time>
      </trkpt>
      <trkpt lat="45.86563" lon="4.69281">
        <ele>220.29605</ele>
        <time>2022-06-18T08:11:52.000Z</time>
      </trkpt>
      <trkpt lat="45.86566" lon="4.69277">
        <ele>220.39867</ele>
        <time>2022-06-18T08:11:53.000Z</time>
      </trkpt>
      <trkpt lat="45.8657" lon="4.69273">
        <ele>220.52754</ele>
        <time>2022-06-18T08:11:54.000Z</time>
      </trkpt>
      <trkpt lat="45.86573" lon="4.6927">
        <ele>220.65917</ele>
        <time>2022-06-18T08:11:55.000Z</time>
      </trkpt>
      <trkpt lat="45.86576" lon="4.69267">
        <ele>220.77816</ele>
        <time>2022-06-18T08:11:56.000Z</time>
      </trkpt>
      <trkpt lat="45.86579" lon="4.69264">
        <ele>220.89447</ele>
        <time>2022-06-18T08:11:57.000Z</time>
      </trkpt>
      <trkpt lat="45.86583" lon="4.69261">
        <ele>221.02475</ele>
        <time>2022-06-18T08:11:58.000Z</time>
      </trkpt>
      <trkpt lat="45.86586" lon="4.69258">
        <ele>221.17397</ele>
        <time>2022-06-18T08:11:59.000Z</time>
      </trkpt>
      <trkpt lat="45.86589" lon="4.69255">
        <ele>221.33446</ele>
        <time>2022-06-18T08:12:00.000Z</time>
      </trkpt>
      <trkpt lat="45.86595" lon="4.69248">
        <ele>221.69222</ele>
        <time>2022-06-18T08:12:02.000Z</time>
      </trkpt>
      <trkpt lat="45.86598" lon="4.69244">
        <ele>221.88225</ele>
        <time>2022-06-18T08:12:03.000Z</time>
      </trkpt>
      <trkpt lat="45.86601" lon="4.69241">
        <ele>222.05872</ele>
        <time>2022-06-18T08:12:04.000Z</time>
      </trkpt>
      <trkpt lat="45.86604" lon="4.69237">
        <ele>222.21776</ele>
        <time>2022-06-18T08:12:05.000Z</time>
      </trkpt>
      <trkpt lat="45.86607" lon="4.69234">
        <ele>222.36167</ele>
        <time>2022-06-18T08:12:06.000Z</time>
      </trkpt>
      <trkpt lat="45.8661" lon="4.6923">
        <ele>222.49889</ele>
        <time>2022-06-18T08:12:07.000Z</time>
      </trkpt>
      <trkpt lat="45.86613" lon="4.69227">
        <ele>222.62939</ele>
        <time>2022-06-18T08:12:08.000Z</time>
      </trkpt>
      <trkpt lat="45.86616" lon="4.69223">
        <ele>222.75754</ele>
        <time>2022-06-18T08:12:09.000Z</time>
      </trkpt>
      <trkpt lat="45.8662" lon="4.6922">
        <ele>222.89447</ele>
        <time>2022-06-18T08:12:10.000Z</time>
      </trkpt>
      <trkpt lat="45.86623" lon="4.69216">
        <ele>223.05019</ele>
        <time>2022-06-18T08:12:11.000Z</time>
      </trkpt>
      <trkpt lat="45.86626" lon="4.69213">
        <ele>223.21591</ele>
        <time>2022-06-18T08:12:12.000Z</time>
      </trkpt>
      <trkpt lat="45.8663" lon="4.69209">
        <ele>223.38532</ele>
        <time>2022-06-18T08:12:13.000Z</time>
      </trkpt>
      <trkpt lat="45.86633" lon="4.69206">
        <ele>223.53553</ele>
        <time>2022-06-18T08:12:14.000Z</time>
      </trkpt>
      <trkpt lat="45.86635" lon="4.69203">
        <ele>223.67415</ele>
        <time>2022-06-18T08:12:15.000Z</time>
      </trkpt>
      <trkpt lat="45.86638" lon="4.692">
        <ele>223.81983</ele>
        <time>2022-06-18T08:12:16.000Z</time>
      </trkpt>
      <trkpt lat="45.86641" lon="4.69196">
        <ele>223.96282</ele>
        <time>2022-06-18T08:12:17.000Z</time>
      </trkpt>
      <trkpt lat="45.86644" lon="4.69193">
        <ele>224.1173</ele>
        <time>2022-06-18T08:12:18.000Z</time>
      </trkpt>
      <trkpt lat="45.86647" lon="4.69189">
        <ele>224.29028</ele>
        <time>2022-06-18T08:12:19.000Z</time>
      </trkpt>
      <trkpt lat="45.8665" lon="4.69186">
        <ele>224.47641</ele>
        <time>2022-06-18T08:12:20.000Z</time>
      </trkpt>
      <trkpt lat="45.86653" lon="4.69183">
        <ele>224.67556</ele>
        <time>2022-06-18T08:12:21.000Z</time>
      </trkpt>
      <trkpt lat="45.86656" lon="4.6918">
        <ele>224.87288</ele>
        <time>2022-06-18T08:12:22.000Z</time>
      </trkpt>
      <trkpt lat="45.86658" lon="4.69177">
        <ele>225.07439</ele>
        <time>2022-06-18T08:12:23.000Z</time>
      </trkpt>
      <trkpt lat="45.86661" lon="4.69174">
        <ele>225.27121</ele>
        <time>2022-06-18T08:12:24.000Z</time>
      </trkpt>
      <trkpt lat="45.86664" lon="4.69171">
        <ele>225.46256</ele>
        <time>2022-06-18T08:12:25.000Z</time>
      </trkpt>
      <trkpt lat="45.86667" lon="4.69168">
        <ele>225.64083</ele>
        <time>2022-06-18T08:12:26.000Z</time>
      </trkpt>
      <trkpt lat="45.8667" lon="4.69165">
        <ele>225.80204</ele>
        <time>2022-06-18T08:12:27.000Z</time>
      </trkpt>
      <trkpt lat="45.86672" lon="4.69162">
        <ele>225.93533</ele>
        <time>2022-06-18T08:12:28.000Z</time>
      </trkpt>
      <trkpt lat="45.86675" lon="4.69159">
        <ele>226.0585</ele>
        <time>2022-06-18T08:12:29.000Z</time>
      </trkpt>
      <trkpt lat="45.86678" lon="4.69156">
        <ele>226.19678</ele>
        <time>2022-06-18T08:12:30.000Z</time>
      </trkpt>
      <trkpt lat="45.86681" lon="4.69153">
        <ele>226.37696</ele>
        <time>2022-06-18T08:12:31.000Z</time>
      </trkpt>
      <trkpt lat="45.86684" lon="4.69151">
        <ele>226.60354</ele>
        <time>2022-06-18T08:12:32.000Z</time>
      </trkpt>
      <trkpt lat="45.86686" lon="4.69148">
        <ele>226.85349</ele>
        <time>2022-06-18T08:12:33.000Z</time>
      </trkpt>
      <trkpt lat="45.86688" lon="4.69146">
        <ele>227.11202</ele>
        <time>2022-06-18T08:12:34.000Z</time>
      </trkpt>
      <trkpt lat="45.86689" lon="4.69143">
        <ele>227.36277</ele>
        <time>2022-06-18T08:12:35.000Z</time>
      </trkpt>
      <trkpt lat="45.86689" lon="4.69139">
        <ele>227.59762</ele>
        <time>2022-06-18T08:12:36.000Z</time>
      </trkpt>
      <trkpt lat="45.86687" lon="4.69135">
        <ele>227.75762</ele>
        <time>2022-06-18T08:12:37.000Z</time>
      </trkpt>
      <trkpt lat="45.86686" lon="4.69131">
        <ele>227.88103</ele>
        <time>2022-06-18T08:12:38.000Z</time>
      </trkpt>
      <trkpt lat="45.86685" lon="4.69127">
        <ele>227.95997</ele>
        <time>2022-06-18T08:12:39.000Z</time>
      </trkpt>
      <trkpt lat="45.86684" lon="4.69123">
        <ele>228.01279</ele>
        <time>2022-06-18T08:12:40.000Z</time>
      </trkpt>
      <trkpt lat="45.86682" lon="4.69119">
        <ele>228.02733</ele>
        <time>2022-06-18T08:12:41.000Z</time>
      </trkpt>
      <trkpt lat="45.86681" lon="4.69115">
        <ele>227.99988</ele>
        <time>2022-06-18T08:12:42.000Z</time>
      </trkpt>
      <trkpt lat="45.86679" lon="4.69111">
        <ele>227.97533</ele>
        <time>2022-06-18T08:12:43.000Z</time>
      </trkpt>
      <trkpt lat="45.86678" lon="4.69107">
        <ele>227.96573</ele>
        <time>2022-06-18T08:12:44.000Z</time>
      </trkpt>
      <trkpt lat="45.86676" lon="4.69103">
        <ele>227.99549</ele>
        <time>2022-06-18T08:12:45.000Z</time>
      </trkpt>
      <trkpt lat="45.86675" lon="4.69098">
        <ele>228.07013</ele>
        <time>2022-06-18T08:12:46.000Z</time>
      </trkpt>
      <trkpt lat="45.86673" lon="4.69094">
        <ele>228.20778</ele>
        <time>2022-06-18T08:12:47.000Z</time>
      </trkpt>
      <trkpt lat="45.86672" lon="4.69089">
        <ele>228.40258</ele>
        <time>2022-06-18T08:12:48.000Z</time>
      </trkpt>
      <trkpt lat="45.86671" lon="4.69085">
        <ele>228.64738</ele>
        <time>2022-06-18T08:12:49.000Z</time>
      </trkpt>
      <trkpt lat="45.8667" lon="4.69081">
        <ele>228.89656</ele>
        <time>2022-06-18T08:12:50.000Z</time>
      </trkpt>
      <trkpt lat="45.86669" lon="4.69077">
        <ele>229.13272</ele>
        <time>2022-06-18T08:12:51.000Z</time>
      </trkpt>
      <trkpt lat="45.86667" lon="4.69074">
        <ele>229.30855</ele>
        <time>2022-06-18T08:12:52.000Z</time>
      </trkpt>
      <trkpt lat="45.86666" lon="4.6907">
        <ele>229.47575</ele>
        <time>2022-06-18T08:12:53.000Z</time>
      </trkpt>
      <trkpt lat="45.86665" lon="4.69067">
        <ele>229.62415</ele>
        <time>2022-06-18T08:12:54.000Z</time>
      </trkpt>
      <trkpt lat="45.86666" lon="4.69064">
        <ele>229.84757</ele>
        <time>2022-06-18T08:12:55.000Z</time>
      </trkpt>
      <trkpt lat="45.86668" lon="4.6906">
        <ele>230.32644</ele>
        <time>2022-06-18T08:12:57.000Z</time>
      </trkpt>
      <trkpt lat="45.8667" lon="4.69058">
        <ele>230.67225</ele>
        <time>2022-06-18T08:12:58.000Z</time>
      </trkpt>
      <trkpt lat="45.86673" lon="4.69056">
        <ele>231.03072</ele>
        <time>2022-06-18T08:12:59.000Z</time>
      </trkpt>
      <trkpt lat="45.86676" lon="4.69054">
        <ele>231.32012</ele>
        <time>2022-06-18T08:13:00.000Z</time>
      </trkpt>
      <trkpt lat="45.86678" lon="4.69053">
        <ele>231.55613</ele>
        <time>2022-06-18T08:13:01.000Z</time>
      </trkpt>
      <trkpt lat="45.8668" lon="4.69052">
        <ele>231.83261</ele>
        <time>2022-06-18T08:13:02.000Z</time>
      </trkpt>
      <trkpt lat="45.86683" lon="4.6905">
        <ele>232.15839</ele>
        <time>2022-06-18T08:13:03.000Z</time>
      </trkpt>
      <trkpt lat="45.86686" lon="4.69049">
        <ele>232.57072</ele>
        <time>2022-06-18T08:13:04.000Z</time>
      </trkpt>
      <trkpt lat="45.86689" lon="4.69047">
        <ele>233.0268</ele>
        <time>2022-06-18T08:13:05.000Z</time>
      </trkpt>
      <trkpt lat="45.86692" lon="4.69046">
        <ele>233.55479</ele>
        <time>2022-06-18T08:13:06.000Z</time>
      </trkpt>
      <trkpt lat="45.86695" lon="4.69044">
        <ele>234.18044</ele>
        <time>2022-06-18T08:13:07.000Z</time>
      </trkpt>
      <trkpt lat="45.86698" lon="4.69043">
        <ele>234.84547</ele>
        <time>2022-06-18T08:13:08.000Z</time>
      </trkpt>
      <trkpt lat="45.86701" lon="4.69042">
        <ele>235.50858</ele>
        <time>2022-06-18T08:13:09.000Z</time>
      </trkpt>
      <trkpt lat="45.86704" lon="4.6904">
        <ele>236.21288</ele>
        <time>2022-06-18T08:13:10.000Z</time>
      </trkpt>
      <trkpt lat="45.86706" lon="4.69039">
        <ele>236.88666</ele>
        <time>2022-06-18T08:13:11.000Z</time>
      </trkpt>
      <trkpt lat="45.86709" lon="4.69038">
        <ele>237.58496</ele>
        <time>2022-06-18T08:13:12.000Z</time>
      </trkpt>
      <trkpt lat="45.86712" lon="4.69037">
        <ele>238.27463</ele>
        <time>2022-06-18T08:13:13.000Z</time>
      </trkpt>
      <trkpt lat="45.86714" lon="4.69036">
        <ele>238.97463</ele>
        <time>2022-06-18T08:13:14.000Z</time>
      </trkpt>
      <trkpt lat="45.86717" lon="4.69035">
        <ele>239.65694</ele>
        <time>2022-06-18T08:13:15.000Z</time>
      </trkpt>
      <trkpt lat="45.86719" lon="4.69033">
        <ele>240.34596</ele>
        <time>2022-06-18T08:13:16.000Z</time>
      </trkpt>
      <trkpt lat="45.86721" lon="4.69031">
        <ele>240.90642</ele>
        <time>2022-06-18T08:13:17.000Z</time>
      </trkpt>
      <trkpt lat="45.86722" lon="4.69029">
        <ele>241.42719</ele>
        <time>2022-06-18T08:13:18.000Z</time>
      </trkpt>
      <trkpt lat="45.86723" lon="4.69025">
        <ele>241.87426</ele>
        <time>2022-06-18T08:13:19.000Z</time>
      </trkpt>
      <trkpt lat="45.86724" lon="4.69022">
        <ele>242.28346</ele>
        <time>2022-06-18T08:13:20.000Z</time>
      </trkpt>
      <trkpt lat="45.86725" lon="4.69019">
        <ele>242.56202</ele>
        <time>2022-06-18T08:13:21.000Z</time>
      </trkpt>
      <trkpt lat="45.86726" lon="4.69016">
        <ele>242.82257</ele>
        <time>2022-06-18T08:13:22.000Z</time>
      </trkpt>
      <trkpt lat="45.86727" lon="4.69013">
        <ele>243.06808</ele>
        <time>2022-06-18T08:13:23.000Z</time>
      </trkpt>
      <trkpt lat="45.86728" lon="4.6901">
        <ele>243.37408</ele>
        <time>2022-06-18T08:13:24.000Z</time>
      </trkpt>
      <trkpt lat="45.86729" lon="4.69007">
        <ele>243.79444</ele>
        <time>2022-06-18T08:13:25.000Z</time>
      </trkpt>
      <trkpt lat="45.86731" lon="4.69005">
        <ele>244.24978</ele>
        <time>2022-06-18T08:13:26.000Z</time>
      </trkpt>
      <trkpt lat="45.86732" lon="4.69003">
        <ele>244.69145</ele>
        <time>2022-06-18T08:13:27.000Z</time>
      </trkpt>
      <trkpt lat="45.86734" lon="4.69001">
        <ele>245.09519</ele>
        <time>2022-06-18T08:13:28.000Z</time>
      </trkpt>
      <trkpt lat="45.86736" lon="4.68999">
        <ele>245.45038</ele>
        <time>2022-06-18T08:13:29.000Z</time>
      </trkpt>
      <trkpt lat="45.86737" lon="4.68996">
        <ele>245.79274</ele>
        <time>2022-06-18T08:13:30.000Z</time>
      </trkpt>
      <trkpt lat="45.86739" lon="4.68994">
        <ele>246.12307</ele>
        <time>2022-06-18T08:13:31.000Z</time>
      </trkpt>
      <trkpt lat="45.8674" lon="4.68992">
        <ele>246.41207</ele>
        <time>2022-06-18T08:13:32.000Z</time>
      </trkpt>
      <trkpt lat="45.86742" lon="4.68989">
        <ele>246.68258</ele>
        <time>2022-06-18T08:13:33.000Z</time>
      </trkpt>
      <trkpt lat="45.86744" lon="4.68987">
        <ele>246.94122</ele>
        <time>2022-06-18T08:13:34.000Z</time>
      </trkpt>
      <trkpt lat="45.86745" lon="4.68984">
        <ele>247.15418</ele>
        <time>2022-06-18T08:13:35.000Z</time>
      </trkpt>
      <trkpt lat="45.86746" lon="4.68981">
        <ele>247.33595</ele>
        <time>2022-06-18T08:13:36.000Z</time>
      </trkpt>
      <trkpt lat="45.86747" lon="4.68979">
        <ele>247.50688</ele>
        <time>2022-06-18T08:13:37.000Z</time>
      </trkpt>
      <trkpt lat="45.86748" lon="4.68976">
        <ele>247.66203</ele>
        <time>2022-06-18T08:13:38.000Z</time>
      </trkpt>
      <trkpt lat="45.86749" lon="4.68972">
        <ele>247.79968</ele>
        <time>2022-06-18T08:13:39.000Z</time>
      </trkpt>
      <trkpt lat="45.8675" lon="4.68969">
        <ele>247.93794</ele>
        <time>2022-06-18T08:13:40.000Z</time>
      </trkpt>
      <trkpt lat="45.86751" lon="4.68966">
        <ele>248.03179</ele>
        <time>2022-06-18T08:13:41.000Z</time>
      </trkpt>
      <trkpt lat="45.86752" lon="4.68963">
        <ele>248.18681</ele>
        <time>2022-06-18T08:13:42.000Z</time>
      </trkpt>
      <trkpt lat="45.86753" lon="4.6896">
        <ele>248.35631</ele>
        <time>2022-06-18T08:13:43.000Z</time>
      </trkpt>
      <trkpt lat="45.86755" lon="4.68958">
        <ele>248.62237</ele>
        <time>2022-06-18T08:13:44.000Z</time>
      </trkpt>
      <trkpt lat="45.86756" lon="4.68955">
        <ele>248.93813</ele>
        <time>2022-06-18T08:13:45.000Z</time>
      </trkpt>
      <trkpt lat="45.86758" lon="4.68953">
        <ele>249.30267</ele>
        <time>2022-06-18T08:13:46.000Z</time>
      </trkpt>
      <trkpt lat="45.8676" lon="4.68951">
        <ele>249.71586</ele>
        <time>2022-06-18T08:13:47.000Z</time>
      </trkpt>
      <trkpt lat="45.86762" lon="4.6895">
        <ele>250.14915</ele>
        <time>2022-06-18T08:13:48.000Z</time>
      </trkpt>
      <trkpt lat="45.86764" lon="4.68948">
        <ele>250.56269</ele>
        <time>2022-06-18T08:13:49.000Z</time>
      </trkpt>
      <trkpt lat="45.86766" lon="4.68947">
        <ele>250.97456</ele>
        <time>2022-06-18T08:13:50.000Z</time>
      </trkpt>
      <trkpt lat="45.86768" lon="4.68946">
        <ele>251.43215</ele>
        <time>2022-06-18T08:13:51.000Z</time>
      </trkpt>
      <trkpt lat="45.8677" lon="4.68945">
        <ele>251.91024</ele>
        <time>2022-06-18T08:13:52.000Z</time>
      </trkpt>
      <trkpt lat="45.86772" lon="4.68943">
        <ele>252.37946</ele>
        <time>2022-06-18T08:13:53.000Z</time>
      </trkpt>
      <trkpt lat="45.86774" lon="4.68942">
        <ele>252.86121</ele>
        <time>2022-06-18T08:13:54.000Z</time>
      </trkpt>
      <trkpt lat="45.86775" lon="4.6894">
        <ele>253.35491</ele>
        <time>2022-06-18T08:13:55.000Z</time>
      </trkpt>
      <trkpt lat="45.86777" lon="4.68939">
        <ele>253.85757</ele>
        <time>2022-06-18T08:13:56.000Z</time>
      </trkpt>
      <trkpt lat="45.86779" lon="4.68937">
        <ele>254.36726</ele>
        <time>2022-06-18T08:13:57.000Z</time>
      </trkpt>
      <trkpt lat="45.86781" lon="4.68935">
        <ele>254.81867</ele>
        <time>2022-06-18T08:13:58.000Z</time>
      </trkpt>
      <trkpt lat="45.86782" lon="4.68933">
        <ele>255.26502</ele>
        <time>2022-06-18T08:13:59.000Z</time>
      </trkpt>
      <trkpt lat="45.86784" lon="4.68932">
        <ele>255.70518</ele>
        <time>2022-06-18T08:14:00.000Z</time>
      </trkpt>
      <trkpt lat="45.86786" lon="4.6893">
        <ele>256.19449</ele>
        <time>2022-06-18T08:14:01.000Z</time>
      </trkpt>
      <trkpt lat="45.86787" lon="4.68928">
        <ele>256.68713</ele>
        <time>2022-06-18T08:14:02.000Z</time>
      </trkpt>
      <trkpt lat="45.86789" lon="4.68926">
        <ele>257.24436</ele>
        <time>2022-06-18T08:14:03.000Z</time>
      </trkpt>
      <trkpt lat="45.86791" lon="4.68924">
        <ele>257.84453</ele>
        <time>2022-06-18T08:14:04.000Z</time>
      </trkpt>
      <trkpt lat="45.86793" lon="4.68922">
        <ele>258.4353</ele>
        <time>2022-06-18T08:14:05.000Z</time>
      </trkpt>
      <trkpt lat="45.86795" lon="4.6892">
        <ele>259.01476</ele>
        <time>2022-06-18T08:14:06.000Z</time>
      </trkpt>
      <trkpt lat="45.86797" lon="4.68918">
        <ele>259.60668</ele>
        <time>2022-06-18T08:14:07.000Z</time>
      </trkpt>
      <trkpt lat="45.86799" lon="4.68916">
        <ele>260.23687</ele>
        <time>2022-06-18T08:14:08.000Z</time>
      </trkpt>
      <trkpt lat="45.86801" lon="4.68914">
        <ele>260.71404</ele>
        <time>2022-06-18T08:14:09.000Z</time>
      </trkpt>
      <trkpt lat="45.86802" lon="4.68913">
        <ele>261.22543</ele>
        <time>2022-06-18T08:14:10.000Z</time>
      </trkpt>
      <trkpt lat="45.86804" lon="4.68911">
        <ele>261.70774</ele>
        <time>2022-06-18T08:14:11.000Z</time>
      </trkpt>
      <trkpt lat="45.86805" lon="4.68909">
        <ele>262.15641</ele>
        <time>2022-06-18T08:14:12.000Z</time>
      </trkpt>
      <trkpt lat="45.86807" lon="4.68907">
        <ele>262.68548</ele>
        <time>2022-06-18T08:14:13.000Z</time>
      </trkpt>
      <trkpt lat="45.86809" lon="4.68905">
        <ele>263.2283</ele>
        <time>2022-06-18T08:14:14.000Z</time>
      </trkpt>
      <trkpt lat="45.86811" lon="4.68904">
        <ele>263.76047</ele>
        <time>2022-06-18T08:14:15.000Z</time>
      </trkpt>
      <trkpt lat="45.86812" lon="4.68901">
        <ele>264.29805</ele>
        <time>2022-06-18T08:14:16.000Z</time>
      </trkpt>
      <trkpt lat="45.86814" lon="4.68899">
        <ele>264.72639</ele>
        <time>2022-06-18T08:14:17.000Z</time>
      </trkpt>
      <trkpt lat="45.86815" lon="4.68897">
        <ele>265.10763</ele>
        <time>2022-06-18T08:14:18.000Z</time>
      </trkpt>
      <trkpt lat="45.86816" lon="4.68894">
        <ele>265.47705</ele>
        <time>2022-06-18T08:14:19.000Z</time>
      </trkpt>
      <trkpt lat="45.86818" lon="4.68891">
        <ele>265.98597</ele>
        <time>2022-06-18T08:14:20.000Z</time>
      </trkpt>
      <trkpt lat="45.86819" lon="4.68889">
        <ele>266.51262</ele>
        <time>2022-06-18T08:14:21.000Z</time>
      </trkpt>
      <trkpt lat="45.8682" lon="4.68886">
        <ele>267.02276</ele>
        <time>2022-06-18T08:14:22.000Z</time>
      </trkpt>
      <trkpt lat="45.86822" lon="4.68883">
        <ele>267.54709</ele>
        <time>2022-06-18T08:14:23.000Z</time>
      </trkpt>
      <trkpt lat="45.86823" lon="4.68881">
        <ele>268.04027</ele>
        <time>2022-06-18T08:14:24.000Z</time>
      </trkpt>
      <trkpt lat="45.86824" lon="4.68878">
        <ele>268.52923</ele>
        <time>2022-06-18T08:14:25.000Z</time>
      </trkpt>
      <trkpt lat="45.86826" lon="4.68875">
        <ele>269.03917</ele>
        <time>2022-06-18T08:14:26.000Z</time>
      </trkpt>
      <trkpt lat="45.86827" lon="4.68873">
        <ele>269.52269</ele>
        <time>2022-06-18T08:14:27.000Z</time>
      </trkpt>
      <trkpt lat="45.86829" lon="4.68871">
        <ele>270.04605</ele>
        <time>2022-06-18T08:14:28.000Z</time>
      </trkpt>
      <trkpt lat="45.86831" lon="4.68869">
        <ele>270.57293</ele>
        <time>2022-06-18T08:14:29.000Z</time>
      </trkpt>
      <trkpt lat="45.86832" lon="4.68867">
        <ele>271.04315</ele>
        <time>2022-06-18T08:14:30.000Z</time>
      </trkpt>
      <trkpt lat="45.86834" lon="4.68865">
        <ele>271.46843</ele>
        <time>2022-06-18T08:14:31.000Z</time>
      </trkpt>
      <trkpt lat="45.86835" lon="4.68863">
        <ele>271.85595</ele>
        <time>2022-06-18T08:14:32.000Z</time>
      </trkpt>
      <trkpt lat="45.86837" lon="4.68861">
        <ele>272.29894</ele>
        <time>2022-06-18T08:14:33.000Z</time>
      </trkpt>
      <trkpt lat="45.86838" lon="4.6886">
        <ele>272.77247</ele>
        <time>2022-06-18T08:14:34.000Z</time>
      </trkpt>
      <trkpt lat="45.8684" lon="4.68858">
        <ele>273.19119</ele>
        <time>2022-06-18T08:14:35.000Z</time>
      </trkpt>
      <trkpt lat="45.86841" lon="4.68856">
        <ele>273.58405</ele>
        <time>2022-06-18T08:14:36.000Z</time>
      </trkpt>
      <trkpt lat="45.86843" lon="4.68854">
        <ele>273.95349</ele>
        <time>2022-06-18T08:14:37.000Z</time>
      </trkpt>
      <trkpt lat="45.86844" lon="4.68853">
        <ele>274.41591</ele>
        <time>2022-06-18T08:14:38.000Z</time>
      </trkpt>
      <trkpt lat="45.86846" lon="4.68851">
        <ele>274.97051</ele>
        <time>2022-06-18T08:14:39.000Z</time>
      </trkpt>
      <trkpt lat="45.86848" lon="4.6885">
        <ele>275.49712</ele>
        <time>2022-06-18T08:14:40.000Z</time>
      </trkpt>
      <trkpt lat="45.8685" lon="4.68848">
        <ele>275.99365</ele>
        <time>2022-06-18T08:14:41.000Z</time>
      </trkpt>
      <trkpt lat="45.86851" lon="4.68847">
        <ele>276.48467</ele>
        <time>2022-06-18T08:14:42.000Z</time>
      </trkpt>
      <trkpt lat="45.86853" lon="4.68845">
        <ele>276.9371</ele>
        <time>2022-06-18T08:14:43.000Z</time>
      </trkpt>
      <trkpt lat="45.86855" lon="4.68844">
        <ele>277.48863</ele>
        <time>2022-06-18T08:14:44.000Z</time>
      </trkpt>
      <trkpt lat="45.86857" lon="4.68842">
        <ele>278.05224</ele>
        <time>2022-06-18T08:14:45.000Z</time>
      </trkpt>
      <trkpt lat="45.86859" lon="4.68841">
        <ele>278.54596</ele>
        <time>2022-06-18T08:14:46.000Z</time>
      </trkpt>
      <trkpt lat="45.86861" lon="4.6884">
        <ele>278.97306</ele>
        <time>2022-06-18T08:14:47.000Z</time>
      </trkpt>
      <trkpt lat="45.86862" lon="4.68838">
        <ele>279.3606</ele>
        <time>2022-06-18T08:14:48.000Z</time>
      </trkpt>
      <trkpt lat="45.86864" lon="4.68836">
        <ele>279.7313</ele>
        <time>2022-06-18T08:14:49.000Z</time>
      </trkpt>
      <trkpt lat="45.86865" lon="4.68834">
        <ele>280.02793</ele>
        <time>2022-06-18T08:14:50.000Z</time>
      </trkpt>
      <trkpt lat="45.86866" lon="4.68832">
        <ele>280.34672</ele>
        <time>2022-06-18T08:14:51.000Z</time>
      </trkpt>
      <trkpt lat="45.86868" lon="4.6883">
        <ele>280.66635</ele>
        <time>2022-06-18T08:14:52.000Z</time>
      </trkpt>
      <trkpt lat="45.86869" lon="4.68828">
        <ele>280.96033</ele>
        <time>2022-06-18T08:14:53.000Z</time>
      </trkpt>
      <trkpt lat="45.86871" lon="4.68826">
        <ele>281.28483</ele>
        <time>2022-06-18T08:14:54.000Z</time>
      </trkpt>
      <trkpt lat="45.86872" lon="4.68824">
        <ele>281.64348</ele>
        <time>2022-06-18T08:14:55.000Z</time>
      </trkpt>
      <trkpt lat="45.86873" lon="4.68823">
        <ele>281.9866</ele>
        <time>2022-06-18T08:14:56.000Z</time>
      </trkpt>
      <trkpt lat="45.86875" lon="4.68821">
        <ele>282.32897</ele>
        <time>2022-06-18T08:14:57.000Z</time>
      </trkpt>
      <trkpt lat="45.86876" lon="4.68819">
        <ele>282.67143</ele>
        <time>2022-06-18T08:14:58.000Z</time>
      </trkpt>
      <trkpt lat="45.86878" lon="4.68817">
        <ele>283.018</ele>
        <time>2022-06-18T08:14:59.000Z</time>
      </trkpt>
      <trkpt lat="45.86879" lon="4.68815">
        <ele>283.34433</ele>
        <time>2022-06-18T08:15:00.000Z</time>
      </trkpt>
      <trkpt lat="45.8688" lon="4.68813">
        <ele>283.70011</ele>
        <time>2022-06-18T08:15:01.000Z</time>
      </trkpt>
      <trkpt lat="45.86882" lon="4.68811">
        <ele>284.13653</ele>
        <time>2022-06-18T08:15:02.000Z</time>
      </trkpt>
      <trkpt lat="45.86884" lon="4.68809">
        <ele>284.57955</ele>
        <time>2022-06-18T08:15:03.000Z</time>
      </trkpt>
      <trkpt lat="45.86885" lon="4.68807">
        <ele>285.02703</ele>
        <time>2022-06-18T08:15:04.000Z</time>
      </trkpt>
      <trkpt lat="45.86887" lon="4.68805">
        <ele>285.42319</ele>
        <time>2022-06-18T08:15:05.000Z</time>
      </trkpt>
      <trkpt lat="45.86888" lon="4.68804">
        <ele>285.81744</ele>
        <time>2022-06-18T08:15:06.000Z</time>
      </trkpt>
      <trkpt lat="45.8689" lon="4.68802">
        <ele>286.18552</ele>
        <time>2022-06-18T08:15:07.000Z</time>
      </trkpt>
      <trkpt lat="45.86891" lon="4.688">
        <ele>286.55028</ele>
        <time>2022-06-18T08:15:08.000Z</time>
      </trkpt>
      <trkpt lat="45.86893" lon="4.68799">
        <ele>286.90717</ele>
        <time>2022-06-18T08:15:09.000Z</time>
      </trkpt>
      <trkpt lat="45.86894" lon="4.68797">
        <ele>287.28323</ele>
        <time>2022-06-18T08:15:10.000Z</time>
      </trkpt>
      <trkpt lat="45.86896" lon="4.68795">
        <ele>287.65138</ele>
        <time>2022-06-18T08:15:11.000Z</time>
      </trkpt>
      <trkpt lat="45.86897" lon="4.68793">
        <ele>287.98589</ele>
        <time>2022-06-18T08:15:12.000Z</time>
      </trkpt>
      <trkpt lat="45.86898" lon="4.68791">
        <ele>288.28705</ele>
        <time>2022-06-18T08:15:13.000Z</time>
      </trkpt>
      <trkpt lat="45.86901" lon="4.68788">
        <ele>288.89191</ele>
        <time>2022-06-18T08:15:15.000Z</time>
      </trkpt>
      <trkpt lat="45.86903" lon="4.68786">
        <ele>289.21442</ele>
        <time>2022-06-18T08:15:16.000Z</time>
      </trkpt>
      <trkpt lat="45.86904" lon="4.68784">
        <ele>289.54241</ele>
        <time>2022-06-18T08:15:17.000Z</time>
      </trkpt>
      <trkpt lat="45.86906" lon="4.68782">
        <ele>289.83303</ele>
        <time>2022-06-18T08:15:18.000Z</time>
      </trkpt>
      <trkpt lat="45.86907" lon="4.6878">
        <ele>290.10288</ele>
        <time>2022-06-18T08:15:19.000Z</time>
      </trkpt>
      <trkpt lat="45.86909" lon="4.68778">
        <ele>290.35961</ele>
        <time>2022-06-18T08:15:20.000Z</time>
      </trkpt>
      <trkpt lat="45.8691" lon="4.68776">
        <ele>290.58994</ele>
        <time>2022-06-18T08:15:21.000Z</time>
      </trkpt>
      <trkpt lat="45.86912" lon="4.68774">
        <ele>290.86402</ele>
        <time>2022-06-18T08:15:22.000Z</time>
      </trkpt>
      <trkpt lat="45.86913" lon="4.68772">
        <ele>291.1145</ele>
        <time>2022-06-18T08:15:23.000Z</time>
      </trkpt>
      <trkpt lat="45.86915" lon="4.6877">
        <ele>291.34179</ele>
        <time>2022-06-18T08:15:24.000Z</time>
      </trkpt>
      <trkpt lat="45.86916" lon="4.68768">
        <ele>291.55524</ele>
        <time>2022-06-18T08:15:25.000Z</time>
      </trkpt>
      <trkpt lat="45.86917" lon="4.68766">
        <ele>291.83073</ele>
        <time>2022-06-18T08:15:26.000Z</time>
      </trkpt>
      <trkpt lat="45.86919" lon="4.68765">
        <ele>292.12653</ele>
        <time>2022-06-18T08:15:27.000Z</time>
      </trkpt>
      <trkpt lat="45.86921" lon="4.68763">
        <ele>292.44292</ele>
        <time>2022-06-18T08:15:28.000Z</time>
      </trkpt>
      <trkpt lat="45.86922" lon="4.68761">
        <ele>292.785</ele>
        <time>2022-06-18T08:15:29.000Z</time>
      </trkpt>
      <trkpt lat="45.86924" lon="4.68759">
        <ele>293.08074</ele>
        <time>2022-06-18T08:15:30.000Z</time>
      </trkpt>
      <trkpt lat="45.86925" lon="4.68758">
        <ele>293.32793</ele>
        <time>2022-06-18T08:15:31.000Z</time>
      </trkpt>
      <trkpt lat="45.86927" lon="4.68756">
        <ele>293.62382</ele>
        <time>2022-06-18T08:15:32.000Z</time>
      </trkpt>
      <trkpt lat="45.86929" lon="4.68754">
        <ele>293.92398</ele>
        <time>2022-06-18T08:15:33.000Z</time>
      </trkpt>
      <trkpt lat="45.8693" lon="4.68752">
        <ele>294.19603</ele>
        <time>2022-06-18T08:15:34.000Z</time>
      </trkpt>
      <trkpt lat="45.86932" lon="4.68751">
        <ele>294.48252</ele>
        <time>2022-06-18T08:15:35.000Z</time>
      </trkpt>
      <trkpt lat="45.86933" lon="4.68749">
        <ele>294.749</ele>
        <time>2022-06-18T08:15:36.000Z</time>
      </trkpt>
      <trkpt lat="45.86935" lon="4.68747">
        <ele>295.05091</ele>
        <time>2022-06-18T08:15:37.000Z</time>
      </trkpt>
      <trkpt lat="45.86937" lon="4.68745">
        <ele>295.40513</ele>
        <time>2022-06-18T08:15:38.000Z</time>
      </trkpt>
      <trkpt lat="45.86939" lon="4.68744">
        <ele>295.82053</ele>
        <time>2022-06-18T08:15:39.000Z</time>
      </trkpt>
      <trkpt lat="45.86941" lon="4.68742">
        <ele>296.26135</ele>
        <time>2022-06-18T08:15:40.000Z</time>
      </trkpt>
      <trkpt lat="45.86943" lon="4.68741">
        <ele>296.6494</ele>
        <time>2022-06-18T08:15:41.000Z</time>
      </trkpt>
      <trkpt lat="45.86945" lon="4.68739">
        <ele>297.08244</ele>
        <time>2022-06-18T08:15:42.000Z</time>
      </trkpt>
      <trkpt lat="45.86947" lon="4.68738">
        <ele>297.50059</ele>
        <time>2022-06-18T08:15:43.000Z</time>
      </trkpt>
      <trkpt lat="45.86949" lon="4.68736">
        <ele>297.8779</ele>
        <time>2022-06-18T08:15:44.000Z</time>
      </trkpt>
      <trkpt lat="45.86951" lon="4.68735">
        <ele>298.13566</ele>
        <time>2022-06-18T08:15:45.000Z</time>
      </trkpt>
      <trkpt lat="45.86952" lon="4.68733">
        <ele>298.43175</ele>
        <time>2022-06-18T08:15:46.000Z</time>
      </trkpt>
      <trkpt lat="45.86954" lon="4.68732">
        <ele>298.72264</ele>
        <time>2022-06-18T08:15:47.000Z</time>
      </trkpt>
      <trkpt lat="45.86956" lon="4.68731">
        <ele>299.07962</ele>
        <time>2022-06-18T08:15:48.000Z</time>
      </trkpt>
      <trkpt lat="45.86958" lon="4.68729">
        <ele>299.3875</ele>
        <time>2022-06-18T08:15:49.000Z</time>
      </trkpt>
      <trkpt lat="45.8696" lon="4.68728">
        <ele>299.64127</ele>
        <time>2022-06-18T08:15:50.000Z</time>
      </trkpt>
      <trkpt lat="45.86961" lon="4.68726">
        <ele>299.8322</ele>
        <time>2022-06-18T08:15:51.000Z</time>
      </trkpt>
      <trkpt lat="45.86963" lon="4.68724">
        <ele>300.07958</ele>
        <time>2022-06-18T08:15:52.000Z</time>
      </trkpt>
      <trkpt lat="45.86965" lon="4.68723">
        <ele>300.33887</ele>
        <time>2022-06-18T08:15:53.000Z</time>
      </trkpt>
      <trkpt lat="45.86967" lon="4.68721">
        <ele>300.63361</ele>
        <time>2022-06-18T08:15:54.000Z</time>
      </trkpt>
      <trkpt lat="45.86969" lon="4.6872">
        <ele>300.93772</ele>
        <time>2022-06-18T08:15:55.000Z</time>
      </trkpt>
      <trkpt lat="45.86971" lon="4.68719">
        <ele>301.27497</ele>
        <time>2022-06-18T08:15:56.000Z</time>
      </trkpt>
      <trkpt lat="45.86973" lon="4.68717">
        <ele>301.57338</ele>
        <time>2022-06-18T08:15:57.000Z</time>
      </trkpt>
      <trkpt lat="45.86975" lon="4.68717">
        <ele>301.87801</ele>
        <time>2022-06-18T08:15:58.000Z</time>
      </trkpt>
      <trkpt lat="45.86977" lon="4.68715">
        <ele>302.18157</ele>
        <time>2022-06-18T08:15:59.000Z</time>
      </trkpt>
      <trkpt lat="45.86979" lon="4.68714">
        <ele>302.47768</ele>
        <time>2022-06-18T08:16:00.000Z</time>
      </trkpt>
      <trkpt lat="45.86981" lon="4.68712">
        <ele>302.6987</ele>
        <time>2022-06-18T08:16:01.000Z</time>
      </trkpt>
      <trkpt lat="45.86982" lon="4.68711">
        <ele>302.8933</ele>
        <time>2022-06-18T08:16:02.000Z</time>
      </trkpt>
      <trkpt lat="45.86984" lon="4.68709">
        <ele>303.12555</ele>
        <time>2022-06-18T08:16:03.000Z</time>
      </trkpt>
      <trkpt lat="45.86985" lon="4.68708">
        <ele>303.45835</ele>
        <time>2022-06-18T08:16:04.000Z</time>
      </trkpt>
      <trkpt lat="45.86989" lon="4.68707">
        <ele>304.22132</ele>
        <time>2022-06-18T08:16:06.000Z</time>
      </trkpt>
      <trkpt lat="45.86991" lon="4.68707">
        <ele>304.6225</ele>
        <time>2022-06-18T08:16:07.000Z</time>
      </trkpt>
      <trkpt lat="45.86993" lon="4.68706">
        <ele>304.98873</ele>
        <time>2022-06-18T08:16:08.000Z</time>
      </trkpt>
      <trkpt lat="45.86995" lon="4.68705">
        <ele>305.30148</ele>
        <time>2022-06-18T08:16:09.000Z</time>
      </trkpt>
      <trkpt lat="45.86997" lon="4.68704">
        <ele>305.60308</ele>
        <time>2022-06-18T08:16:10.000Z</time>
      </trkpt>
      <trkpt lat="45.86999" lon="4.68703">
        <ele>305.86226</ele>
        <time>2022-06-18T08:16:11.000Z</time>
      </trkpt>
      <trkpt lat="45.87001" lon="4.68702">
        <ele>306.06453</ele>
        <time>2022-06-18T08:16:12.000Z</time>
      </trkpt>
      <trkpt lat="45.87004" lon="4.687">
        <ele>306.34134</ele>
        <time>2022-06-18T08:16:14.000Z</time>
      </trkpt>
      <trkpt lat="45.87007" lon="4.68698">
        <ele>306.62777</ele>
        <time>2022-06-18T08:16:16.000Z</time>
      </trkpt>
      <trkpt lat="45.8701" lon="4.68697">
        <ele>306.79704</ele>
        <time>2022-06-18T08:16:17.000Z</time>
      </trkpt>
      <trkpt lat="45.87012" lon="4.68696">
        <ele>306.96626</ele>
        <time>2022-06-18T08:16:18.000Z</time>
      </trkpt>
      <trkpt lat="45.87014" lon="4.68696">
        <ele>307.14457</ele>
        <time>2022-06-18T08:16:19.000Z</time>
      </trkpt>
      <trkpt lat="45.87016" lon="4.68695">
        <ele>307.30729</ele>
        <time>2022-06-18T08:16:20.000Z</time>
      </trkpt>
      <trkpt lat="45.87018" lon="4.68694">
        <ele>307.45836</ele>
        <time>2022-06-18T08:16:21.000Z</time>
      </trkpt>
      <trkpt lat="45.8702" lon="4.68693">
        <ele>307.70538</ele>
        <time>2022-06-18T08:16:23.000Z</time>
      </trkpt>
      <trkpt lat="45.87023" lon="4.68692">
        <ele>307.88259</ele>
        <time>2022-06-18T08:16:25.000Z</time>
      </trkpt>
      <trkpt lat="45.87025" lon="4.6869">
        <ele>307.99652</ele>
        <time>2022-06-18T08:16:27.000Z</time>
      </trkpt>
      <trkpt lat="45.87028" lon="4.68687">
        <ele>308.05012</ele>
        <time>2022-06-18T08:16:29.000Z</time>
      </trkpt>
      <trkpt lat="45.8703" lon="4.68684">
        <ele>308.04077</ele>
        <time>2022-06-18T08:16:31.000Z</time>
      </trkpt>
      <trkpt lat="45.87032" lon="4.68682">
        <ele>308.08074</ele>
        <time>2022-06-18T08:16:32.000Z</time>
      </trkpt>
      <trkpt lat="45.87034" lon="4.68681">
        <ele>308.12416</ele>
        <time>2022-06-18T08:16:33.000Z</time>
      </trkpt>
      <trkpt lat="45.87036" lon="4.6868">
        <ele>308.19521</ele>
        <time>2022-06-18T08:16:34.000Z</time>
      </trkpt>
      <trkpt lat="45.87038" lon="4.68678">
        <ele>308.28294</ele>
        <time>2022-06-18T08:16:35.000Z</time>
      </trkpt>
      <trkpt lat="45.87039" lon="4.68676">
        <ele>308.28284</ele>
        <time>2022-06-18T08:16:36.000Z</time>
      </trkpt>
      <trkpt lat="45.87041" lon="4.68675">
        <ele>308.29364</ele>
        <time>2022-06-18T08:16:37.000Z</time>
      </trkpt>
      <trkpt lat="45.87043" lon="4.68673">
        <ele>308.34772</ele>
        <time>2022-06-18T08:16:38.000Z</time>
      </trkpt>
      <trkpt lat="45.87045" lon="4.68672">
        <ele>308.43197</ele>
        <time>2022-06-18T08:16:39.000Z</time>
      </trkpt>
      <trkpt lat="45.87047" lon="4.6867">
        <ele>308.54396</ele>
        <time>2022-06-18T08:16:40.000Z</time>
      </trkpt>
      <trkpt lat="45.8705" lon="4.68669">
        <ele>308.69734</ele>
        <time>2022-06-18T08:16:41.000Z</time>
      </trkpt>
      <trkpt lat="45.87052" lon="4.68668">
        <ele>308.86234</ele>
        <time>2022-06-18T08:16:42.000Z</time>
      </trkpt>
      <trkpt lat="45.87054" lon="4.68666">
        <ele>309.0311</ele>
        <time>2022-06-18T08:16:43.000Z</time>
      </trkpt>
      <trkpt lat="45.87056" lon="4.68664">
        <ele>309.21119</ele>
        <time>2022-06-18T08:16:44.000Z</time>
      </trkpt>
      <trkpt lat="45.87058" lon="4.68662">
        <ele>309.39103</ele>
        <time>2022-06-18T08:16:45.000Z</time>
      </trkpt>
      <trkpt lat="45.8706" lon="4.68661">
        <ele>309.57899</ele>
        <time>2022-06-18T08:16:46.000Z</time>
      </trkpt>
      <trkpt lat="45.87062" lon="4.68659">
        <ele>309.83716</ele>
        <time>2022-06-18T08:16:47.000Z</time>
      </trkpt>
      <trkpt lat="45.87065" lon="4.68658">
        <ele>310.12936</ele>
        <time>2022-06-18T08:16:48.000Z</time>
      </trkpt>
      <trkpt lat="45.87067" lon="4.68657">
        <ele>310.42444</ele>
        <time>2022-06-18T08:16:49.000Z</time>
      </trkpt>
      <trkpt lat="45.87069" lon="4.68656">
        <ele>310.65794</ele>
        <time>2022-06-18T08:16:50.000Z</time>
      </trkpt>
      <trkpt lat="45.87087" lon="4.68647">
        <ele>312.63818</ele>
        <time>2022-06-18T08:16:58.000Z</time>
      </trkpt>
      <trkpt lat="45.8709" lon="4.68645">
        <ele>312.80573</ele>
        <time>2022-06-18T08:16:59.000Z</time>
      </trkpt>
      <trkpt lat="45.87092" lon="4.68643">
        <ele>312.95201</ele>
        <time>2022-06-18T08:17:00.000Z</time>
      </trkpt>
      <trkpt lat="45.87094" lon="4.68641">
        <ele>313.03993</ele>
        <time>2022-06-18T08:17:01.000Z</time>
      </trkpt>
      <trkpt lat="45.87095" lon="4.6864">
        <ele>313.19379</ele>
        <time>2022-06-18T08:17:02.000Z</time>
      </trkpt>
      <trkpt lat="45.87097" lon="4.6864">
        <ele>313.40989</ele>
        <time>2022-06-18T08:17:03.000Z</time>
      </trkpt>
      <trkpt lat="45.871" lon="4.6864">
        <ele>313.65773</ele>
        <time>2022-06-18T08:17:04.000Z</time>
      </trkpt>
      <trkpt lat="45.87101" lon="4.68639">
        <ele>313.87317</ele>
        <time>2022-06-18T08:17:05.000Z</time>
      </trkpt>
      <trkpt lat="45.87104" lon="4.68639">
        <ele>314.11253</ele>
        <time>2022-06-18T08:17:06.000Z</time>
      </trkpt>
      <trkpt lat="45.87106" lon="4.68638">
        <ele>314.36021</ele>
        <time>2022-06-18T08:17:07.000Z</time>
      </trkpt>
      <trkpt lat="45.87108" lon="4.68638">
        <ele>314.61728</ele>
        <time>2022-06-18T08:17:08.000Z</time>
      </trkpt>
      <trkpt lat="45.87111" lon="4.68637">
        <ele>314.87926</ele>
        <time>2022-06-18T08:17:09.000Z</time>
      </trkpt>
      <trkpt lat="45.87113" lon="4.68636">
        <ele>315.16804</ele>
        <time>2022-06-18T08:17:10.000Z</time>
      </trkpt>
      <trkpt lat="45.87116" lon="4.68635">
        <ele>315.43175</ele>
        <time>2022-06-18T08:17:11.000Z</time>
      </trkpt>
      <trkpt lat="45.87118" lon="4.68634">
        <ele>315.70378</ele>
        <time>2022-06-18T08:17:12.000Z</time>
      </trkpt>
      <trkpt lat="45.8712" lon="4.68633">
        <ele>315.97464</ele>
        <time>2022-06-18T08:17:13.000Z</time>
      </trkpt>
      <trkpt lat="45.87123" lon="4.68633">
        <ele>316.25454</ele>
        <time>2022-06-18T08:17:14.000Z</time>
      </trkpt>
      <trkpt lat="45.87125" lon="4.68632">
        <ele>316.55935</ele>
        <time>2022-06-18T08:17:15.000Z</time>
      </trkpt>
      <trkpt lat="45.87127" lon="4.68631">
        <ele>316.84209</ele>
        <time>2022-06-18T08:17:16.000Z</time>
      </trkpt>
      <trkpt lat="45.8713" lon="4.6863">
        <ele>317.14188</ele>
        <time>2022-06-18T08:17:17.000Z</time>
      </trkpt>
      <trkpt lat="45.87132" lon="4.68629">
        <ele>317.40644</ele>
        <time>2022-06-18T08:17:18.000Z</time>
      </trkpt>
      <trkpt lat="45.87134" lon="4.68628">
        <ele>317.61609</ele>
        <time>2022-06-18T08:17:19.000Z</time>
      </trkpt>
      <trkpt lat="45.87136" lon="4.68626">
        <ele>317.79627</ele>
        <time>2022-06-18T08:17:20.000Z</time>
      </trkpt>
      <trkpt lat="45.87137" lon="4.68624">
        <ele>317.93102</ele>
        <time>2022-06-18T08:17:21.000Z</time>
      </trkpt>
      <trkpt lat="45.87139" lon="4.68623">
        <ele>318.08914</ele>
        <time>2022-06-18T08:17:22.000Z</time>
      </trkpt>
      <trkpt lat="45.87141" lon="4.68622">
        <ele>318.24671</ele>
        <time>2022-06-18T08:17:23.000Z</time>
      </trkpt>
      <trkpt lat="45.87143" lon="4.68621">
        <ele>318.45871</ele>
        <time>2022-06-18T08:17:24.000Z</time>
      </trkpt>
      <trkpt lat="45.87145" lon="4.6862">
        <ele>318.63568</ele>
        <time>2022-06-18T08:17:25.000Z</time>
      </trkpt>
      <trkpt lat="45.87147" lon="4.68618">
        <ele>318.77114</ele>
        <time>2022-06-18T08:17:26.000Z</time>
      </trkpt>
      <trkpt lat="45.87149" lon="4.68617">
        <ele>318.88702</ele>
        <time>2022-06-18T08:17:27.000Z</time>
      </trkpt>
      <trkpt lat="45.87151" lon="4.68615">
        <ele>319.00424</ele>
        <time>2022-06-18T08:17:28.000Z</time>
      </trkpt>
      <trkpt lat="45.87153" lon="4.68614">
        <ele>319.15863</ele>
        <time>2022-06-18T08:17:29.000Z</time>
      </trkpt>
      <trkpt lat="45.87155" lon="4.68614">
        <ele>319.39262</ele>
        <time>2022-06-18T08:17:30.000Z</time>
      </trkpt>
      <trkpt lat="45.87158" lon="4.68613">
        <ele>319.67399</ele>
        <time>2022-06-18T08:17:31.000Z</time>
      </trkpt>
      <trkpt lat="45.8716" lon="4.68614">
        <ele>319.97085</ele>
        <time>2022-06-18T08:17:32.000Z</time>
      </trkpt>
      <trkpt lat="45.87162" lon="4.68614">
        <ele>320.24851</ele>
        <time>2022-06-18T08:17:33.000Z</time>
      </trkpt>
      <trkpt lat="45.87164" lon="4.68614">
        <ele>320.52051</ele>
        <time>2022-06-18T08:17:34.000Z</time>
      </trkpt>
      <trkpt lat="45.87167" lon="4.68614">
        <ele>320.7957</ele>
        <time>2022-06-18T08:17:35.000Z</time>
      </trkpt>
      <trkpt lat="45.87169" lon="4.68615">
        <ele>321.10239</ele>
        <time>2022-06-18T08:17:36.000Z</time>
      </trkpt>
      <trkpt lat="45.87172" lon="4.68615">
        <ele>321.4144</ele>
        <time>2022-06-18T08:17:37.000Z</time>
      </trkpt>
      <trkpt lat="45.87174" lon="4.68616">
        <ele>321.69539</ele>
        <time>2022-06-18T08:17:38.000Z</time>
      </trkpt>
      <trkpt lat="45.87177" lon="4.68616">
        <ele>321.93462</ele>
        <time>2022-06-18T08:17:39.000Z</time>
      </trkpt>
      <trkpt lat="45.87179" lon="4.68617">
        <ele>322.1496</ele>
        <time>2022-06-18T08:17:40.000Z</time>
      </trkpt>
      <trkpt lat="45.87181" lon="4.68617">
        <ele>322.3696</ele>
        <time>2022-06-18T08:17:41.000Z</time>
      </trkpt>
      <trkpt lat="45.87184" lon="4.68617">
        <ele>322.60938</ele>
        <time>2022-06-18T08:17:42.000Z</time>
      </trkpt>
      <trkpt lat="45.87186" lon="4.68618">
        <ele>322.86211</ele>
        <time>2022-06-18T08:17:43.000Z</time>
      </trkpt>
      <trkpt lat="45.87189" lon="4.68619">
        <ele>323.0997</ele>
        <time>2022-06-18T08:17:44.000Z</time>
      </trkpt>
      <trkpt lat="45.87191" lon="4.6862">
        <ele>323.31925</ele>
        <time>2022-06-18T08:17:45.000Z</time>
      </trkpt>
      <trkpt lat="45.87193" lon="4.68621">
        <ele>323.53632</ele>
        <time>2022-06-18T08:17:46.000Z</time>
      </trkpt>
      <trkpt lat="45.87195" lon="4.68621">
        <ele>323.7677</ele>
        <time>2022-06-18T08:17:47.000Z</time>
      </trkpt>
      <trkpt lat="45.87198" lon="4.68622">
        <ele>324.05268</ele>
        <time>2022-06-18T08:17:48.000Z</time>
      </trkpt>
      <trkpt lat="45.87201" lon="4.68621">
        <ele>324.3514</ele>
        <time>2022-06-18T08:17:49.000Z</time>
      </trkpt>
      <trkpt lat="45.87204" lon="4.68621">
        <ele>324.68615</ele>
        <time>2022-06-18T08:17:50.000Z</time>
      </trkpt>
      <trkpt lat="45.87207" lon="4.68621">
        <ele>325.00435</ele>
        <time>2022-06-18T08:17:51.000Z</time>
      </trkpt>
      <trkpt lat="45.87209" lon="4.6862">
        <ele>325.31044</ele>
        <time>2022-06-18T08:17:52.000Z</time>
      </trkpt>
      <trkpt lat="45.87212" lon="4.6862">
        <ele>325.5989</ele>
        <time>2022-06-18T08:17:53.000Z</time>
      </trkpt>
      <trkpt lat="45.87215" lon="4.68619">
        <ele>325.88067</ele>
        <time>2022-06-18T08:17:54.000Z</time>
      </trkpt>
      <trkpt lat="45.87217" lon="4.68618">
        <ele>326.13916</ele>
        <time>2022-06-18T08:17:55.000Z</time>
      </trkpt>
      <trkpt lat="45.8722" lon="4.68616">
        <ele>326.35429</ele>
        <time>2022-06-18T08:17:56.000Z</time>
      </trkpt>
      <trkpt lat="45.87222" lon="4.68614">
        <ele>326.57025</ele>
        <time>2022-06-18T08:17:57.000Z</time>
      </trkpt>
      <trkpt lat="45.87224" lon="4.68612">
        <ele>326.79565</ele>
        <time>2022-06-18T08:17:58.000Z</time>
      </trkpt>
      <trkpt lat="45.87227" lon="4.6861">
        <ele>327.01959</ele>
        <time>2022-06-18T08:17:59.000Z</time>
      </trkpt>
      <trkpt lat="45.87229" lon="4.68608">
        <ele>327.25212</ele>
        <time>2022-06-18T08:18:00.000Z</time>
      </trkpt>
      <trkpt lat="45.87231" lon="4.68606">
        <ele>327.48309</ele>
        <time>2022-06-18T08:18:01.000Z</time>
      </trkpt>
      <trkpt lat="45.87234" lon="4.68604">
        <ele>327.76641</ele>
        <time>2022-06-18T08:18:02.000Z</time>
      </trkpt>
      <trkpt lat="45.87236" lon="4.68601">
        <ele>328.05478</ele>
        <time>2022-06-18T08:18:03.000Z</time>
      </trkpt>
      <trkpt lat="45.87239" lon="4.68599">
        <ele>328.34746</ele>
        <time>2022-06-18T08:18:04.000Z</time>
      </trkpt>
      <trkpt lat="45.87242" lon="4.68597">
        <ele>328.65182</ele>
        <time>2022-06-18T08:18:05.000Z</time>
      </trkpt>
      <trkpt lat="45.87245" lon="4.68596">
        <ele>328.95966</ele>
        <time>2022-06-18T08:18:06.000Z</time>
      </trkpt>
      <trkpt lat="45.87247" lon="4.68594">
        <ele>329.29138</ele>
        <time>2022-06-18T08:18:07.000Z</time>
      </trkpt>
      <trkpt lat="45.8725" lon="4.68593">
        <ele>329.64056</ele>
        <time>2022-06-18T08:18:08.000Z</time>
      </trkpt>
      <trkpt lat="45.87253" lon="4.68591">
        <ele>329.96905</ele>
        <time>2022-06-18T08:18:09.000Z</time>
      </trkpt>
      <trkpt lat="45.87255" lon="4.68589">
        <ele>330.33955</ele>
        <time>2022-06-18T08:18:10.000Z</time>
      </trkpt>
      <trkpt lat="45.87258" lon="4.68587">
        <ele>330.76313</ele>
        <time>2022-06-18T08:18:11.000Z</time>
      </trkpt>
      <trkpt lat="45.87261" lon="4.68586">
        <ele>331.18675</ele>
        <time>2022-06-18T08:18:12.000Z</time>
      </trkpt>
      <trkpt lat="45.87264" lon="4.68585">
        <ele>331.59459</ele>
        <time>2022-06-18T08:18:13.000Z</time>
      </trkpt>
      <trkpt lat="45.87267" lon="4.68585">
        <ele>331.9752</ele>
        <time>2022-06-18T08:18:14.000Z</time>
      </trkpt>
      <trkpt lat="45.8727" lon="4.68584">
        <ele>332.3844</ele>
        <time>2022-06-18T08:18:15.000Z</time>
      </trkpt>
      <trkpt lat="45.87273" lon="4.68582">
        <ele>332.79879</ele>
        <time>2022-06-18T08:18:16.000Z</time>
      </trkpt>
      <trkpt lat="45.87276" lon="4.6858">
        <ele>333.21171</ele>
        <time>2022-06-18T08:18:17.000Z</time>
      </trkpt>
      <trkpt lat="45.87279" lon="4.68577">
        <ele>333.61677</ele>
        <time>2022-06-18T08:18:18.000Z</time>
      </trkpt>
      <trkpt lat="45.87282" lon="4.68575">
        <ele>333.98075</ele>
        <time>2022-06-18T08:18:19.000Z</time>
      </trkpt>
      <trkpt lat="45.87285" lon="4.68572">
        <ele>334.32602</ele>
        <time>2022-06-18T08:18:20.000Z</time>
      </trkpt>
      <trkpt lat="45.87287" lon="4.6857">
        <ele>334.68405</ele>
        <time>2022-06-18T08:18:21.000Z</time>
      </trkpt>
      <trkpt lat="45.8729" lon="4.68567">
        <ele>335.0288</ele>
        <time>2022-06-18T08:18:22.000Z</time>
      </trkpt>
      <trkpt lat="45.87293" lon="4.68565">
        <ele>335.34017</ele>
        <time>2022-06-18T08:18:23.000Z</time>
      </trkpt>
      <trkpt lat="45.87296" lon="4.68563">
        <ele>335.69213</ele>
        <time>2022-06-18T08:18:24.000Z</time>
      </trkpt>
      <trkpt lat="45.87298" lon="4.68561">
        <ele>336.06608</ele>
        <time>2022-06-18T08:18:25.000Z</time>
      </trkpt>
      <trkpt lat="45.87301" lon="4.68558">
        <ele>336.48056</ele>
        <time>2022-06-18T08:18:26.000Z</time>
      </trkpt>
      <trkpt lat="45.87303" lon="4.68556">
        <ele>336.95141</ele>
        <time>2022-06-18T08:18:27.000Z</time>
      </trkpt>
      <trkpt lat="45.87306" lon="4.68554">
        <ele>337.45123</ele>
        <time>2022-06-18T08:18:28.000Z</time>
      </trkpt>
      <trkpt lat="45.87309" lon="4.68552">
        <ele>337.94031</ele>
        <time>2022-06-18T08:18:29.000Z</time>
      </trkpt>
      <trkpt lat="45.87312" lon="4.6855">
        <ele>338.4171</ele>
        <time>2022-06-18T08:18:30.000Z</time>
      </trkpt>
      <trkpt lat="45.87315" lon="4.68547">
        <ele>338.83036</ele>
        <time>2022-06-18T08:18:31.000Z</time>
      </trkpt>
      <trkpt lat="45.87318" lon="4.68544">
        <ele>339.16207</ele>
        <time>2022-06-18T08:18:32.000Z</time>
      </trkpt>
      <trkpt lat="45.8732" lon="4.68542">
        <ele>339.46225</ele>
        <time>2022-06-18T08:18:33.000Z</time>
      </trkpt>
      <trkpt lat="45.87323" lon="4.68539">
        <ele>339.71942</ele>
        <time>2022-06-18T08:18:34.000Z</time>
      </trkpt>
      <trkpt lat="45.87326" lon="4.68536">
        <ele>339.94694</ele>
        <time>2022-06-18T08:18:35.000Z</time>
      </trkpt>
      <trkpt lat="45.87329" lon="4.68533">
        <ele>340.21066</ele>
        <time>2022-06-18T08:18:36.000Z</time>
      </trkpt>
      <trkpt lat="45.87332" lon="4.68531">
        <ele>340.56923</ele>
        <time>2022-06-18T08:18:37.000Z</time>
      </trkpt>
      <trkpt lat="45.87334" lon="4.68529">
        <ele>340.97864</ele>
        <time>2022-06-18T08:18:38.000Z</time>
      </trkpt>
      <trkpt lat="45.87337" lon="4.68526">
        <ele>341.4043</ele>
        <time>2022-06-18T08:18:39.000Z</time>
      </trkpt>
      <trkpt lat="45.87339" lon="4.68523">
        <ele>341.84329</ele>
        <time>2022-06-18T08:18:40.000Z</time>
      </trkpt>
      <trkpt lat="45.87341" lon="4.6852">
        <ele>342.27564</ele>
        <time>2022-06-18T08:18:41.000Z</time>
      </trkpt>
      <trkpt lat="45.87344" lon="4.68517">
        <ele>342.74871</ele>
        <time>2022-06-18T08:18:42.000Z</time>
      </trkpt>
      <trkpt lat="45.87346" lon="4.68514">
        <ele>343.22323</ele>
        <time>2022-06-18T08:18:43.000Z</time>
      </trkpt>
      <trkpt lat="45.87349" lon="4.68512">
        <ele>343.7104</ele>
        <time>2022-06-18T08:18:44.000Z</time>
      </trkpt>
      <trkpt lat="45.87352" lon="4.6851">
        <ele>344.22205</ele>
        <time>2022-06-18T08:18:45.000Z</time>
      </trkpt>
      <trkpt lat="45.87355" lon="4.68508">
        <ele>344.71784</ele>
        <time>2022-06-18T08:18:46.000Z</time>
      </trkpt>
      <trkpt lat="45.87358" lon="4.68507">
        <ele>345.14224</ele>
        <time>2022-06-18T08:18:47.000Z</time>
      </trkpt>
      <trkpt lat="45.87361" lon="4.68505">
        <ele>345.50359</ele>
        <time>2022-06-18T08:18:48.000Z</time>
      </trkpt>
      <trkpt lat="45.87363" lon="4.68503">
        <ele>345.81316</ele>
        <time>2022-06-18T08:18:49.000Z</time>
      </trkpt>
      <trkpt lat="45.87366" lon="4.68501">
        <ele>346.10545</ele>
        <time>2022-06-18T08:18:50.000Z</time>
      </trkpt>
      <trkpt lat="45.87369" lon="4.68499">
        <ele>346.45398</ele>
        <time>2022-06-18T08:18:51.000Z</time>
      </trkpt>
      <trkpt lat="45.87372" lon="4.68496">
        <ele>346.83552</ele>
        <time>2022-06-18T08:18:52.000Z</time>
      </trkpt>
      <trkpt lat="45.87375" lon="4.68494">
        <ele>347.25699</ele>
        <time>2022-06-18T08:18:53.000Z</time>
      </trkpt>
      <trkpt lat="45.87378" lon="4.68492">
        <ele>347.67362</ele>
        <time>2022-06-18T08:18:54.000Z</time>
      </trkpt>
      <trkpt lat="45.87381" lon="4.68489">
        <ele>348.07273</ele>
        <time>2022-06-18T08:18:55.000Z</time>
      </trkpt>
      <trkpt lat="45.87384" lon="4.68487">
        <ele>348.46809</ele>
        <time>2022-06-18T08:18:56.000Z</time>
      </trkpt>
      <trkpt lat="45.87387" lon="4.68485">
        <ele>348.82813</ele>
        <time>2022-06-18T08:18:57.000Z</time>
      </trkpt>
      <trkpt lat="45.8739" lon="4.68483">
        <ele>349.16223</ele>
        <time>2022-06-18T08:18:58.000Z</time>
      </trkpt>
      <trkpt lat="45.87393" lon="4.68481">
        <ele>349.43212</ele>
        <time>2022-06-18T08:18:59.000Z</time>
      </trkpt>
      <trkpt lat="45.87395" lon="4.6848">
        <ele>349.66926</ele>
        <time>2022-06-18T08:19:00.000Z</time>
      </trkpt>
      <trkpt lat="45.87398" lon="4.68478">
        <ele>349.91672</ele>
        <time>2022-06-18T08:19:01.000Z</time>
      </trkpt>
      <trkpt lat="45.874" lon="4.68478">
        <ele>350.23054</ele>
        <time>2022-06-18T08:19:02.000Z</time>
      </trkpt>
      <trkpt lat="45.87403" lon="4.68477">
        <ele>350.59846</ele>
        <time>2022-06-18T08:19:03.000Z</time>
      </trkpt>
      <trkpt lat="45.87406" lon="4.68477">
        <ele>350.95922</ele>
        <time>2022-06-18T08:19:04.000Z</time>
      </trkpt>
      <trkpt lat="45.87408" lon="4.68476">
        <ele>351.25091</ele>
        <time>2022-06-18T08:19:05.000Z</time>
      </trkpt>
      <trkpt lat="45.8741" lon="4.68474">
        <ele>351.5127</ele>
        <time>2022-06-18T08:19:06.000Z</time>
      </trkpt>
      <trkpt lat="45.87413" lon="4.68472">
        <ele>351.70827</ele>
        <time>2022-06-18T08:19:07.000Z</time>
      </trkpt>
      <trkpt lat="45.87415" lon="4.68469">
        <ele>351.84506</ele>
        <time>2022-06-18T08:19:08.000Z</time>
      </trkpt>
      <trkpt lat="45.87418" lon="4.68468">
        <ele>352.03205</ele>
        <time>2022-06-18T08:19:09.000Z</time>
      </trkpt>
      <trkpt lat="45.8742" lon="4.68466">
        <ele>352.22341</ele>
        <time>2022-06-18T08:19:10.000Z</time>
      </trkpt>
      <trkpt lat="45.87423" lon="4.68465">
        <ele>352.46821</ele>
        <time>2022-06-18T08:19:11.000Z</time>
      </trkpt>
      <trkpt lat="45.87425" lon="4.68464">
        <ele>352.67464</ele>
        <time>2022-06-18T08:19:12.000Z</time>
      </trkpt>
      <trkpt lat="45.87427" lon="4.68463">
        <ele>352.90536</ele>
        <time>2022-06-18T08:19:13.000Z</time>
      </trkpt>
      <trkpt lat="45.8743" lon="4.68461">
        <ele>353.14456</ele>
        <time>2022-06-18T08:19:14.000Z</time>
      </trkpt>
      <trkpt lat="45.87433" lon="4.6846">
        <ele>353.4195</ele>
        <time>2022-06-18T08:19:15.000Z</time>
      </trkpt>
      <trkpt lat="45.87435" lon="4.68459">
        <ele>353.7044</ele>
        <time>2022-06-18T08:19:16.000Z</time>
      </trkpt>
      <trkpt lat="45.87438" lon="4.68459">
        <ele>354.0212</ele>
        <time>2022-06-18T08:19:17.000Z</time>
      </trkpt>
      <trkpt lat="45.8744" lon="4.68458">
        <ele>354.33003</ele>
        <time>2022-06-18T08:19:18.000Z</time>
      </trkpt>
      <trkpt lat="45.87443" lon="4.68457">
        <ele>354.64266</ele>
        <time>2022-06-18T08:19:19.000Z</time>
      </trkpt>
      <trkpt lat="45.87445" lon="4.68456">
        <ele>354.91204</ele>
        <time>2022-06-18T08:19:20.000Z</time>
      </trkpt>
      <trkpt lat="45.87447" lon="4.68454">
        <ele>355.20976</ele>
        <time>2022-06-18T08:19:21.000Z</time>
      </trkpt>
      <trkpt lat="45.87449" lon="4.68453">
        <ele>355.55258</ele>
        <time>2022-06-18T08:19:22.000Z</time>
      </trkpt>
      <trkpt lat="45.87452" lon="4.68452">
        <ele>355.96107</ele>
        <time>2022-06-18T08:19:23.000Z</time>
      </trkpt>
      <trkpt lat="45.87454" lon="4.68452">
        <ele>356.40509</ele>
        <time>2022-06-18T08:19:24.000Z</time>
      </trkpt>
      <trkpt lat="45.87456" lon="4.68451">
        <ele>356.82809</ele>
        <time>2022-06-18T08:19:25.000Z</time>
      </trkpt>
      <trkpt lat="45.87458" lon="4.6845">
        <ele>357.22552</ele>
        <time>2022-06-18T08:19:26.000Z</time>
      </trkpt>
      <trkpt lat="45.87461" lon="4.68449">
        <ele>357.59201</ele>
        <time>2022-06-18T08:19:27.000Z</time>
      </trkpt>
      <trkpt lat="45.87463" lon="4.68447">
        <ele>357.95126</ele>
        <time>2022-06-18T08:19:28.000Z</time>
      </trkpt>
      <trkpt lat="45.87464" lon="4.68446">
        <ele>358.19746</ele>
        <time>2022-06-18T08:19:29.000Z</time>
      </trkpt>
      <trkpt lat="45.87467" lon="4.68444">
        <ele>358.58186</ele>
        <time>2022-06-18T08:19:31.000Z</time>
      </trkpt>
      <trkpt lat="45.8747" lon="4.68444">
        <ele>358.79857</ele>
        <time>2022-06-18T08:19:33.000Z</time>
      </trkpt>
      <trkpt lat="45.87472" lon="4.68442">
        <ele>358.92898</ele>
        <time>2022-06-18T08:19:35.000Z</time>
      </trkpt>
      <trkpt lat="45.87472" lon="4.68438">
        <ele>358.67477</ele>
        <time>2022-06-18T08:19:37.000Z</time>
      </trkpt>
      <trkpt lat="45.87471" lon="4.68436">
        <ele>358.30557</ele>
        <time>2022-06-18T08:19:39.000Z</time>
      </trkpt>
      <trkpt lat="45.8747" lon="4.68433">
        <ele>357.71614</ele>
        <time>2022-06-18T08:19:42.000Z</time>
      </trkpt>
      <trkpt lat="45.87472" lon="4.6843">
        <ele>357.41867</ele>
        <time>2022-06-18T08:19:46.000Z</time>
      </trkpt>
      <trkpt lat="45.87473" lon="4.68427">
        <ele>357.19809</ele>
        <time>2022-06-18T08:19:49.000Z</time>
      </trkpt>
      <trkpt lat="45.87474" lon="4.68425">
        <ele>356.92143</ele>
        <time>2022-06-18T08:19:51.000Z</time>
      </trkpt>
      <trkpt lat="45.87476" lon="4.68422">
        <ele>356.61655</ele>
        <time>2022-06-18T08:19:53.000Z</time>
      </trkpt>
      <trkpt lat="45.87477" lon="4.6842">
        <ele>356.37571</ele>
        <time>2022-06-18T08:19:55.000Z</time>
      </trkpt>
      <trkpt lat="45.87479" lon="4.68418">
        <ele>356.20471</ele>
        <time>2022-06-18T08:19:57.000Z</time>
      </trkpt>
      <trkpt lat="45.8748" lon="4.68417">
        <ele>356.21796</ele>
        <time>2022-06-18T08:19:59.000Z</time>
      </trkpt>
      <trkpt lat="45.87483" lon="4.68416">
        <ele>356.3541</ele>
        <time>2022-06-18T08:20:01.000Z</time>
      </trkpt>
      <trkpt lat="45.87485" lon="4.68415">
        <ele>356.49927</ele>
        <time>2022-06-18T08:20:03.000Z</time>
      </trkpt>
      <trkpt lat="45.87487" lon="4.68415">
        <ele>356.76774</ele>
        <time>2022-06-18T08:20:06.000Z</time>
      </trkpt>
      <trkpt lat="45.87486" lon="4.68417">
        <ele>357.01336</ele>
        <time>2022-06-18T08:24:16.000Z</time>
      </trkpt>
      <trkpt lat="45.87487" lon="4.68419">
        <ele>357.75916</ele>
        <time>2022-06-18T08:24:25.000Z</time>
      </trkpt>
      <trkpt lat="45.8749" lon="4.68419">
        <ele>358.02359</ele>
        <time>2022-06-18T08:24:27.000Z</time>
      </trkpt>
      <trkpt lat="45.87491" lon="4.68418">
        <ele>358.05584</ele>
        <time>2022-06-18T08:24:29.000Z</time>
      </trkpt>
      <trkpt lat="45.87492" lon="4.68415">
        <ele>357.68073</ele>
        <time>2022-06-18T08:24:33.000Z</time>
      </trkpt>
      <trkpt lat="45.87494" lon="4.68415">
        <ele>357.92755</ele>
        <time>2022-06-18T08:25:02.000Z</time>
      </trkpt>
      <trkpt lat="45.87496" lon="4.68414">
        <ele>358.15963</ele>
        <time>2022-06-18T08:25:04.000Z</time>
      </trkpt>
      <trkpt lat="45.87498" lon="4.68413">
        <ele>358.27001</ele>
        <time>2022-06-18T08:25:05.000Z</time>
      </trkpt>
      <trkpt lat="45.875" lon="4.68412">
        <ele>358.3517</ele>
        <time>2022-06-18T08:25:06.000Z</time>
      </trkpt>
      <trkpt lat="45.87503" lon="4.68411">
        <ele>358.48079</ele>
        <time>2022-06-18T08:25:07.000Z</time>
      </trkpt>
      <trkpt lat="45.87505" lon="4.68409">
        <ele>358.59016</ele>
        <time>2022-06-18T08:25:08.000Z</time>
      </trkpt>
      <trkpt lat="45.87508" lon="4.68408">
        <ele>358.63962</ele>
        <time>2022-06-18T08:25:09.000Z</time>
      </trkpt>
      <trkpt lat="45.8751" lon="4.68406">
        <ele>358.70023</ele>
        <time>2022-06-18T08:25:10.000Z</time>
      </trkpt>
      <trkpt lat="45.87512" lon="4.68405">
        <ele>358.79139</ele>
        <time>2022-06-18T08:25:11.000Z</time>
      </trkpt>
      <trkpt lat="45.87515" lon="4.68405">
        <ele>359.00393</ele>
        <time>2022-06-18T08:25:12.000Z</time>
      </trkpt>
      <trkpt lat="45.87515" lon="4.68405">
        <ele>359.00393</ele>
        <time>2022-06-18T08:25:12.000Z</time>
      </trkpt>
      <trkpt lat="45.87517" lon="4.68406">
        <ele>359.26214</ele>
        <time>2022-06-18T08:25:13.000Z</time>
      </trkpt>
      <trkpt lat="45.87519" lon="4.68407">
        <ele>359.54552</ele>
        <time>2022-06-18T08:25:14.000Z</time>
      </trkpt>
      <trkpt lat="45.87521" lon="4.68408">
        <ele>359.76972</ele>
        <time>2022-06-18T08:25:15.000Z</time>
      </trkpt>
      <trkpt lat="45.87524" lon="4.68408">
        <ele>359.97037</ele>
        <time>2022-06-18T08:25:16.000Z</time>
      </trkpt>
      <trkpt lat="45.87527" lon="4.68409">
        <ele>360.13885</ele>
        <time>2022-06-18T08:25:17.000Z</time>
      </trkpt>
      <trkpt lat="45.8753" lon="4.68409">
        <ele>360.25973</ele>
        <time>2022-06-18T08:25:18.000Z</time>
      </trkpt>
      <trkpt lat="45.87534" lon="4.68409">
        <ele>360.38445</ele>
        <time>2022-06-18T08:25:19.000Z</time>
      </trkpt>
      <trkpt lat="45.87538" lon="4.68408">
        <ele>360.59742</ele>
        <time>2022-06-18T08:25:20.000Z</time>
      </trkpt>
      <trkpt lat="45.87543" lon="4.68407">
        <ele>360.88951</ele>
        <time>2022-06-18T08:25:21.000Z</time>
      </trkpt>
      <trkpt lat="45.87547" lon="4.68407">
        <ele>361.2475</ele>
        <time>2022-06-18T08:25:22.000Z</time>
      </trkpt>
      <trkpt lat="45.87551" lon="4.68406">
        <ele>361.64245</ele>
        <time>2022-06-18T08:25:23.000Z</time>
      </trkpt>
      <trkpt lat="45.87555" lon="4.68406">
        <ele>362.01307</ele>
        <time>2022-06-18T08:25:24.000Z</time>
      </trkpt>
      <trkpt lat="45.87559" lon="4.68405">
        <ele>362.31156</ele>
        <time>2022-06-18T08:25:25.000Z</time>
      </trkpt>
      <trkpt lat="45.87563" lon="4.68404">
        <ele>362.60174</ele>
        <time>2022-06-18T08:25:26.000Z</time>
      </trkpt>
      <trkpt lat="45.87566" lon="4.68403">
        <ele>362.83802</ele>
        <time>2022-06-18T08:25:27.000Z</time>
      </trkpt>
      <trkpt lat="45.87569" lon="4.68403">
        <ele>363.04462</ele>
        <time>2022-06-18T08:25:28.000Z</time>
      </trkpt>
      <trkpt lat="45.87573" lon="4.68403">
        <ele>363.24595</ele>
        <time>2022-06-18T08:25:29.000Z</time>
      </trkpt>
      <trkpt lat="45.87576" lon="4.68403">
        <ele>363.42761</ele>
        <time>2022-06-18T08:25:30.000Z</time>
      </trkpt>
      <trkpt lat="45.8758" lon="4.68402">
        <ele>363.62239</ele>
        <time>2022-06-18T08:25:31.000Z</time>
      </trkpt>
      <trkpt lat="45.87584" lon="4.68402">
        <ele>363.82659</ele>
        <time>2022-06-18T08:25:32.000Z</time>
      </trkpt>
      <trkpt lat="45.87587" lon="4.68401">
        <ele>364.00944</ele>
        <time>2022-06-18T08:25:33.000Z</time>
      </trkpt>
      <trkpt lat="45.87591" lon="4.684">
        <ele>364.19755</ele>
        <time>2022-06-18T08:25:34.000Z</time>
      </trkpt>
      <trkpt lat="45.87594" lon="4.68399">
        <ele>364.38322</ele>
        <time>2022-06-18T08:25:35.000Z</time>
      </trkpt>
      <trkpt lat="45.87597" lon="4.68398">
        <ele>364.54345</ele>
        <time>2022-06-18T08:25:36.000Z</time>
      </trkpt>
      <trkpt lat="45.876" lon="4.68398">
        <ele>364.6631</ele>
        <time>2022-06-18T08:25:37.000Z</time>
      </trkpt>
      <trkpt lat="45.87602" lon="4.68398">
        <ele>364.757</ele>
        <time>2022-06-18T08:25:38.000Z</time>
      </trkpt>
      <trkpt lat="45.87605" lon="4.68397">
        <ele>364.85896</ele>
        <time>2022-06-18T08:25:39.000Z</time>
      </trkpt>
      <trkpt lat="45.87608" lon="4.68397">
        <ele>364.94451</ele>
        <time>2022-06-18T08:25:40.000Z</time>
      </trkpt>
      <trkpt lat="45.8761" lon="4.68396">
        <ele>365.02859</ele>
        <time>2022-06-18T08:25:41.000Z</time>
      </trkpt>
      <trkpt lat="45.87612" lon="4.68396">
        <ele>365.07497</ele>
        <time>2022-06-18T08:25:42.000Z</time>
      </trkpt>
      <trkpt lat="45.87615" lon="4.68396">
        <ele>365.1298</ele>
        <time>2022-06-18T08:25:44.000Z</time>
      </trkpt>
      <trkpt lat="45.87618" lon="4.68395">
        <ele>365.19576</ele>
        <time>2022-06-18T08:26:11.000Z</time>
      </trkpt>
      <trkpt lat="45.87621" lon="4.68396">
        <ele>365.14719</ele>
        <time>2022-06-18T08:26:12.000Z</time>
      </trkpt>
      <trkpt lat="45.87624" lon="4.68397">
        <ele>364.98246</ele>
        <time>2022-06-18T08:26:13.000Z</time>
      </trkpt>
      <trkpt lat="45.87627" lon="4.68399">
        <ele>364.77471</ele>
        <time>2022-06-18T08:26:14.000Z</time>
      </trkpt>
      <trkpt lat="45.87635" lon="4.68402">
        <ele>364.38727</ele>
        <time>2022-06-18T08:26:15.000Z</time>
      </trkpt>
      <trkpt lat="45.87643" lon="4.68402">
        <ele>364.22484</ele>
        <time>2022-06-18T08:26:16.000Z</time>
      </trkpt>
      <trkpt lat="45.8765" lon="4.68405">
        <ele>363.8604</ele>
        <time>2022-06-18T08:26:17.000Z</time>
      </trkpt>
      <trkpt lat="45.87656" lon="4.68409">
        <ele>363.27233</ele>
        <time>2022-06-18T08:26:18.000Z</time>
      </trkpt>
      <trkpt lat="45.87662" lon="4.68412">
        <ele>362.71782</ele>
        <time>2022-06-18T08:26:19.000Z</time>
      </trkpt>
      <trkpt lat="45.87668" lon="4.68416">
        <ele>362.06066</ele>
        <time>2022-06-18T08:26:20.000Z</time>
      </trkpt>
      <trkpt lat="45.87673" lon="4.68419">
        <ele>361.35317</ele>
        <time>2022-06-18T08:26:21.000Z</time>
      </trkpt>
      <trkpt lat="45.87679" lon="4.68423">
        <ele>360.51022</ele>
        <time>2022-06-18T08:26:22.000Z</time>
      </trkpt>
      <trkpt lat="45.87685" lon="4.68426">
        <ele>359.63118</ele>
        <time>2022-06-18T08:26:23.000Z</time>
      </trkpt>
      <trkpt lat="45.8769" lon="4.6843">
        <ele>358.77886</ele>
        <time>2022-06-18T08:26:24.000Z</time>
      </trkpt>
      <trkpt lat="45.87695" lon="4.68433">
        <ele>357.94387</ele>
        <time>2022-06-18T08:26:25.000Z</time>
      </trkpt>
      <trkpt lat="45.877" lon="4.68435">
        <ele>357.48702</ele>
        <time>2022-06-18T08:26:26.000Z</time>
      </trkpt>
      <trkpt lat="45.87705" lon="4.68436">
        <ele>357.22159</ele>
        <time>2022-06-18T08:26:27.000Z</time>
      </trkpt>
      <trkpt lat="45.87709" lon="4.68436">
        <ele>357.11899</ele>
        <time>2022-06-18T08:26:28.000Z</time>
      </trkpt>
      <trkpt lat="45.87714" lon="4.6844">
        <ele>356.43384</ele>
        <time>2022-06-18T08:26:29.000Z</time>
      </trkpt>
      <trkpt lat="45.8772" lon="4.68445">
        <ele>355.70362</ele>
        <time>2022-06-18T08:26:30.000Z</time>
      </trkpt>
      <trkpt lat="45.87726" lon="4.68446">
        <ele>355.39601</ele>
        <time>2022-06-18T08:26:31.000Z</time>
      </trkpt>
      <trkpt lat="45.87732" lon="4.6845">
        <ele>354.85339</ele>
        <time>2022-06-18T08:26:32.000Z</time>
      </trkpt>
      <trkpt lat="45.87738" lon="4.68455">
        <ele>353.96531</ele>
        <time>2022-06-18T08:26:33.000Z</time>
      </trkpt>
      <trkpt lat="45.87746" lon="4.6846">
        <ele>353.11208</ele>
        <time>2022-06-18T08:26:34.000Z</time>
      </trkpt>
      <trkpt lat="45.87753" lon="4.68464">
        <ele>352.54254</ele>
        <time>2022-06-18T08:26:35.000Z</time>
      </trkpt>
      <trkpt lat="45.87761" lon="4.68467">
        <ele>352.24555</ele>
        <time>2022-06-18T08:26:36.000Z</time>
      </trkpt>
      <trkpt lat="45.87768" lon="4.68471">
        <ele>351.97013</ele>
        <time>2022-06-18T08:26:37.000Z</time>
      </trkpt>
      <trkpt lat="45.87775" lon="4.68477">
        <ele>351.47439</ele>
        <time>2022-06-18T08:26:38.000Z</time>
      </trkpt>
      <trkpt lat="45.87782" lon="4.68482">
        <ele>350.91129</ele>
        <time>2022-06-18T08:26:39.000Z</time>
      </trkpt>
      <trkpt lat="45.87788" lon="4.68485">
        <ele>350.56119</ele>
        <time>2022-06-18T08:26:40.000Z</time>
      </trkpt>
      <trkpt lat="45.87795" lon="4.68489">
        <ele>350.15103</ele>
        <time>2022-06-18T08:26:41.000Z</time>
      </trkpt>
      <trkpt lat="45.87801" lon="4.68492">
        <ele>349.7924</ele>
        <time>2022-06-18T08:26:42.000Z</time>
      </trkpt>
      <trkpt lat="45.87807" lon="4.68494">
        <ele>349.55107</ele>
        <time>2022-06-18T08:26:43.000Z</time>
      </trkpt>
      <trkpt lat="45.87812" lon="4.68497">
        <ele>349.28098</ele>
        <time>2022-06-18T08:26:44.000Z</time>
      </trkpt>
      <trkpt lat="45.87818" lon="4.68498">
        <ele>349.27421</ele>
        <time>2022-06-18T08:26:45.000Z</time>
      </trkpt>
      <trkpt lat="45.87822" lon="4.68499">
        <ele>349.19748</ele>
        <time>2022-06-18T08:26:46.000Z</time>
      </trkpt>
      <trkpt lat="45.87828" lon="4.68503">
        <ele>348.82212</ele>
        <time>2022-06-18T08:26:47.000Z</time>
      </trkpt>
      <trkpt lat="45.87834" lon="4.68507">
        <ele>348.53812</ele>
        <time>2022-06-18T08:26:48.000Z</time>
      </trkpt>
      <trkpt lat="45.87838" lon="4.68508">
        <ele>348.55507</ele>
        <time>2022-06-18T08:26:49.000Z</time>
      </trkpt>
      <trkpt lat="45.87844" lon="4.68511">
        <ele>348.48259</ele>
        <time>2022-06-18T08:26:50.000Z</time>
      </trkpt>
      <trkpt lat="45.8785" lon="4.68513">
        <ele>348.30872</ele>
        <time>2022-06-18T08:26:51.000Z</time>
      </trkpt>
      <trkpt lat="45.87856" lon="4.68516">
        <ele>347.83053</ele>
        <time>2022-06-18T08:26:52.000Z</time>
      </trkpt>
      <trkpt lat="45.87863" lon="4.68518">
        <ele>347.22776</ele>
        <time>2022-06-18T08:26:53.000Z</time>
      </trkpt>
      <trkpt lat="45.87869" lon="4.68522">
        <ele>346.44279</ele>
        <time>2022-06-18T08:26:54.000Z</time>
      </trkpt>
      <trkpt lat="45.87876" lon="4.68525">
        <ele>345.55036</ele>
        <time>2022-06-18T08:26:55.000Z</time>
      </trkpt>
      <trkpt lat="45.87882" lon="4.6853">
        <ele>344.48766</ele>
        <time>2022-06-18T08:26:56.000Z</time>
      </trkpt>
      <trkpt lat="45.87889" lon="4.68531">
        <ele>343.99682</ele>
        <time>2022-06-18T08:26:57.000Z</time>
      </trkpt>
      <trkpt lat="45.87897" lon="4.68534">
        <ele>343.44794</ele>
        <time>2022-06-18T08:26:58.000Z</time>
      </trkpt>
      <trkpt lat="45.87904" lon="4.68537">
        <ele>343.1002</ele>
        <time>2022-06-18T08:26:59.000Z</time>
      </trkpt>
      <trkpt lat="45.87911" lon="4.68539">
        <ele>342.75879</ele>
        <time>2022-06-18T08:27:00.000Z</time>
      </trkpt>
      <trkpt lat="45.8792" lon="4.68538">
        <ele>342.63407</ele>
        <time>2022-06-18T08:27:01.000Z</time>
      </trkpt>
      <trkpt lat="45.87927" lon="4.68538">
        <ele>342.21912</ele>
        <time>2022-06-18T08:27:02.000Z</time>
      </trkpt>
      <trkpt lat="45.87935" lon="4.68536">
        <ele>342.05759</ele>
        <time>2022-06-18T08:27:03.000Z</time>
      </trkpt>
      <trkpt lat="45.87942" lon="4.68535">
        <ele>342.01852</ele>
        <time>2022-06-18T08:27:04.000Z</time>
      </trkpt>
      <trkpt lat="45.87948" lon="4.68534">
        <ele>342.29734</ele>
        <time>2022-06-18T08:27:05.000Z</time>
      </trkpt>
      <trkpt lat="45.87954" lon="4.68533">
        <ele>342.70225</ele>
        <time>2022-06-18T08:27:06.000Z</time>
      </trkpt>
      <trkpt lat="45.8796" lon="4.68531">
        <ele>343.15072</ele>
        <time>2022-06-18T08:27:07.000Z</time>
      </trkpt>
      <trkpt lat="45.87966" lon="4.68531">
        <ele>343.05957</ele>
        <time>2022-06-18T08:27:08.000Z</time>
      </trkpt>
      <trkpt lat="45.8797" lon="4.6853">
        <ele>343.11777</ele>
        <time>2022-06-18T08:27:09.000Z</time>
      </trkpt>
      <trkpt lat="45.87975" lon="4.68529">
        <ele>343.25662</ele>
        <time>2022-06-18T08:27:10.000Z</time>
      </trkpt>
      <trkpt lat="45.87981" lon="4.68531">
        <ele>342.66873</ele>
        <time>2022-06-18T08:27:11.000Z</time>
      </trkpt>
      <trkpt lat="45.87987" lon="4.68531">
        <ele>342.46307</ele>
        <time>2022-06-18T08:27:12.000Z</time>
      </trkpt>
      <trkpt lat="45.87992" lon="4.68532">
        <ele>342.28029</ele>
        <time>2022-06-18T08:27:13.000Z</time>
      </trkpt>
      <trkpt lat="45.87997" lon="4.68532">
        <ele>341.95081</ele>
        <time>2022-06-18T08:27:14.000Z</time>
      </trkpt>
      <trkpt lat="45.88003" lon="4.68533">
        <ele>341.69937</ele>
        <time>2022-06-18T08:27:15.000Z</time>
      </trkpt>
      <trkpt lat="45.88009" lon="4.68533">
        <ele>341.41383</ele>
        <time>2022-06-18T08:27:16.000Z</time>
      </trkpt>
      <trkpt lat="45.88015" lon="4.68533">
        <ele>341.25254</ele>
        <time>2022-06-18T08:27:17.000Z</time>
      </trkpt>
      <trkpt lat="45.88021" lon="4.68534">
        <ele>341.0457</ele>
        <time>2022-06-18T08:27:18.000Z</time>
      </trkpt>
      <trkpt lat="45.88027" lon="4.68534">
        <ele>340.74803</ele>
        <time>2022-06-18T08:27:19.000Z</time>
      </trkpt>
      <trkpt lat="45.88033" lon="4.68536">
        <ele>340.20634</ele>
        <time>2022-06-18T08:27:20.000Z</time>
      </trkpt>
      <trkpt lat="45.8804" lon="4.68537">
        <ele>339.73466</ele>
        <time>2022-06-18T08:27:21.000Z</time>
      </trkpt>
      <trkpt lat="45.88048" lon="4.68537">
        <ele>339.2994</ele>
        <time>2022-06-18T08:27:22.000Z</time>
      </trkpt>
      <trkpt lat="45.88055" lon="4.68538">
        <ele>338.78168</ele>
        <time>2022-06-18T08:27:23.000Z</time>
      </trkpt>
      <trkpt lat="45.88061" lon="4.68541">
        <ele>337.87575</ele>
        <time>2022-06-18T08:27:24.000Z</time>
      </trkpt>
      <trkpt lat="45.88067" lon="4.68543">
        <ele>337.09879</ele>
        <time>2022-06-18T08:27:25.000Z</time>
      </trkpt>
      <trkpt lat="45.88074" lon="4.68544">
        <ele>336.38292</ele>
        <time>2022-06-18T08:27:26.000Z</time>
      </trkpt>
      <trkpt lat="45.88081" lon="4.68544">
        <ele>335.95189</ele>
        <time>2022-06-18T08:27:27.000Z</time>
      </trkpt>
      <trkpt lat="45.88088" lon="4.68546">
        <ele>335.31203</ele>
        <time>2022-06-18T08:27:28.000Z</time>
      </trkpt>
      <trkpt lat="45.88095" lon="4.68549">
        <ele>334.48558</ele>
        <time>2022-06-18T08:27:29.000Z</time>
      </trkpt>
      <trkpt lat="45.88103" lon="4.68552">
        <ele>333.83907</ele>
        <time>2022-06-18T08:27:30.000Z</time>
      </trkpt>
      <trkpt lat="45.88109" lon="4.68554">
        <ele>333.39564</ele>
        <time>2022-06-18T08:27:31.000Z</time>
      </trkpt>
      <trkpt lat="45.88118" lon="4.68559">
        <ele>332.50572</ele>
        <time>2022-06-18T08:27:32.000Z</time>
      </trkpt>
      <trkpt lat="45.88129" lon="4.68564">
        <ele>331.26779</ele>
        <time>2022-06-18T08:27:33.000Z</time>
      </trkpt>
      <trkpt lat="45.88137" lon="4.68566">
        <ele>330.70192</ele>
        <time>2022-06-18T08:27:34.000Z</time>
      </trkpt>
      <trkpt lat="45.88145" lon="4.68568">
        <ele>330.10388</ele>
        <time>2022-06-18T08:27:35.000Z</time>
      </trkpt>
      <trkpt lat="45.88154" lon="4.68569">
        <ele>329.671</ele>
        <time>2022-06-18T08:27:36.000Z</time>
      </trkpt>
      <trkpt lat="45.88162" lon="4.68574">
        <ele>328.82739</ele>
        <time>2022-06-18T08:27:37.000Z</time>
      </trkpt>
      <trkpt lat="45.8817" lon="4.68577">
        <ele>328.16167</ele>
        <time>2022-06-18T08:27:38.000Z</time>
      </trkpt>
      <trkpt lat="45.88178" lon="4.68579">
        <ele>327.5803</ele>
        <time>2022-06-18T08:27:39.000Z</time>
      </trkpt>
      <trkpt lat="45.88185" lon="4.68581">
        <ele>327.06333</ele>
        <time>2022-06-18T08:27:40.000Z</time>
      </trkpt>
      <trkpt lat="45.88192" lon="4.68583">
        <ele>326.51984</ele>
        <time>2022-06-18T08:27:41.000Z</time>
      </trkpt>
      <trkpt lat="45.88199" lon="4.68585">
        <ele>326.06732</ele>
        <time>2022-06-18T08:27:42.000Z</time>
      </trkpt>
      <trkpt lat="45.88207" lon="4.68586">
        <ele>325.79233</ele>
        <time>2022-06-18T08:27:43.000Z</time>
      </trkpt>
      <trkpt lat="45.88213" lon="4.68588">
        <ele>325.33462</ele>
        <time>2022-06-18T08:27:44.000Z</time>
      </trkpt>
      <trkpt lat="45.88219" lon="4.68591">
        <ele>325.01271</ele>
        <time>2022-06-18T08:27:45.000Z</time>
      </trkpt>
      <trkpt lat="45.88226" lon="4.68595">
        <ele>324.3818</ele>
        <time>2022-06-18T08:27:46.000Z</time>
      </trkpt>
      <trkpt lat="45.88232" lon="4.68598">
        <ele>323.81048</ele>
        <time>2022-06-18T08:27:47.000Z</time>
      </trkpt>
      <trkpt lat="45.88238" lon="4.68601">
        <ele>323.08288</ele>
        <time>2022-06-18T08:27:48.000Z</time>
      </trkpt>
      <trkpt lat="45.88244" lon="4.68603">
        <ele>322.4119</ele>
        <time>2022-06-18T08:27:49.000Z</time>
      </trkpt>
      <trkpt lat="45.8825" lon="4.68607">
        <ele>321.47358</ele>
        <time>2022-06-18T08:27:50.000Z</time>
      </trkpt>
      <trkpt lat="45.88256" lon="4.68609">
        <ele>320.83266</ele>
        <time>2022-06-18T08:27:51.000Z</time>
      </trkpt>
      <trkpt lat="45.88263" lon="4.68613">
        <ele>319.85896</ele>
        <time>2022-06-18T08:27:52.000Z</time>
      </trkpt>
      <trkpt lat="45.88269" lon="4.68617">
        <ele>318.77741</ele>
        <time>2022-06-18T08:27:53.000Z</time>
      </trkpt>
      <trkpt lat="45.88275" lon="4.68622">
        <ele>317.74814</ele>
        <time>2022-06-18T08:27:54.000Z</time>
      </trkpt>
      <trkpt lat="45.88281" lon="4.68629">
        <ele>316.54279</ele>
        <time>2022-06-18T08:27:55.000Z</time>
      </trkpt>
      <trkpt lat="45.88288" lon="4.68634">
        <ele>315.53335</ele>
        <time>2022-06-18T08:27:56.000Z</time>
      </trkpt>
      <trkpt lat="45.88295" lon="4.68641">
        <ele>314.41724</ele>
        <time>2022-06-18T08:27:57.000Z</time>
      </trkpt>
      <trkpt lat="45.88301" lon="4.68645">
        <ele>313.53843</ele>
        <time>2022-06-18T08:27:58.000Z</time>
      </trkpt>
      <trkpt lat="45.88308" lon="4.68652">
        <ele>312.41421</ele>
        <time>2022-06-18T08:27:59.000Z</time>
      </trkpt>
      <trkpt lat="45.88314" lon="4.68659">
        <ele>311.33041</ele>
        <time>2022-06-18T08:28:00.000Z</time>
      </trkpt>
      <trkpt lat="45.8837" lon="4.68716">
        <ele>305.43394</ele>
        <time>2022-06-18T08:28:08.000Z</time>
      </trkpt>
      <trkpt lat="45.88376" lon="4.68724">
        <ele>304.84901</ele>
        <time>2022-06-18T08:28:09.000Z</time>
      </trkpt>
      <trkpt lat="45.88382" lon="4.68729">
        <ele>304.45</ele>
        <time>2022-06-18T08:28:10.000Z</time>
      </trkpt>
      <trkpt lat="45.88387" lon="4.68734">
        <ele>303.94328</ele>
        <time>2022-06-18T08:28:11.000Z</time>
      </trkpt>
      <trkpt lat="45.88391" lon="4.68739">
        <ele>303.40669</ele>
        <time>2022-06-18T08:28:12.000Z</time>
      </trkpt>
      <trkpt lat="45.88393" lon="4.68745">
        <ele>302.77522</ele>
        <time>2022-06-18T08:28:13.000Z</time>
      </trkpt>
      <trkpt lat="45.88394" lon="4.68752">
        <ele>302.09008</ele>
        <time>2022-06-18T08:28:14.000Z</time>
      </trkpt>
      <trkpt lat="45.88392" lon="4.68761">
        <ele>301.32794</ele>
        <time>2022-06-18T08:28:15.000Z</time>
      </trkpt>
      <trkpt lat="45.88392" lon="4.68769">
        <ele>300.67874</ele>
        <time>2022-06-18T08:28:16.000Z</time>
      </trkpt>
      <trkpt lat="45.88391" lon="4.68776">
        <ele>300.09241</ele>
        <time>2022-06-18T08:28:17.000Z</time>
      </trkpt>
      <trkpt lat="45.88391" lon="4.68781">
        <ele>299.6275</ele>
        <time>2022-06-18T08:28:18.000Z</time>
      </trkpt>
      <trkpt lat="45.88391" lon="4.68786">
        <ele>299.24028</ele>
        <time>2022-06-18T08:28:19.000Z</time>
      </trkpt>
      <trkpt lat="45.88392" lon="4.68789">
        <ele>298.92532</ele>
        <time>2022-06-18T08:28:20.000Z</time>
      </trkpt>
      <trkpt lat="45.88395" lon="4.68792">
        <ele>298.59949</ele>
        <time>2022-06-18T08:28:21.000Z</time>
      </trkpt>
      <trkpt lat="45.884" lon="4.68789">
        <ele>298.5292</ele>
        <time>2022-06-18T08:28:23.000Z</time>
      </trkpt>
      <trkpt lat="45.88402" lon="4.68787">
        <ele>298.5582</ele>
        <time>2022-06-18T08:28:24.000Z</time>
      </trkpt>
      <trkpt lat="45.88405" lon="4.68784">
        <ele>298.73368</ele>
        <time>2022-06-18T08:28:25.000Z</time>
      </trkpt>
      <trkpt lat="45.88409" lon="4.68781">
        <ele>298.88545</ele>
        <time>2022-06-18T08:28:26.000Z</time>
      </trkpt>
      <trkpt lat="45.88412" lon="4.68778">
        <ele>299.11694</ele>
        <time>2022-06-18T08:28:27.000Z</time>
      </trkpt>
      <trkpt lat="45.88415" lon="4.68775">
        <ele>299.386</ele>
        <time>2022-06-18T08:28:28.000Z</time>
      </trkpt>
      <trkpt lat="45.88418" lon="4.68773">
        <ele>299.64265</ele>
        <time>2022-06-18T08:28:29.000Z</time>
      </trkpt>
      <trkpt lat="45.88421" lon="4.68771">
        <ele>299.84921</ele>
        <time>2022-06-18T08:28:30.000Z</time>
      </trkpt>
      <trkpt lat="45.88424" lon="4.68769">
        <ele>300.05162</ele>
        <time>2022-06-18T08:28:31.000Z</time>
      </trkpt>
      <trkpt lat="45.88428" lon="4.68768">
        <ele>300.16079</ele>
        <time>2022-06-18T08:28:32.000Z</time>
      </trkpt>
      <trkpt lat="45.88431" lon="4.68767">
        <ele>300.18907</ele>
        <time>2022-06-18T08:28:33.000Z</time>
      </trkpt>
      <trkpt lat="45.88434" lon="4.68766">
        <ele>300.14883</ele>
        <time>2022-06-18T08:28:34.000Z</time>
      </trkpt>
      <trkpt lat="45.88438" lon="4.68766">
        <ele>300.03068</ele>
        <time>2022-06-18T08:28:35.000Z</time>
      </trkpt>
      <trkpt lat="45.88442" lon="4.68766">
        <ele>299.79064</ele>
        <time>2022-06-18T08:28:36.000Z</time>
      </trkpt>
      <trkpt lat="45.88447" lon="4.68767">
        <ele>299.44952</ele>
        <time>2022-06-18T08:28:37.000Z</time>
      </trkpt>
      <trkpt lat="45.88452" lon="4.68774">
        <ele>298.58211</ele>
        <time>2022-06-18T08:28:38.000Z</time>
      </trkpt>
      <trkpt lat="45.88455" lon="4.68781">
        <ele>297.96054</ele>
        <time>2022-06-18T08:28:39.000Z</time>
      </trkpt>
      <trkpt lat="45.88456" lon="4.68791">
        <ele>297.16737</ele>
        <time>2022-06-18T08:28:40.000Z</time>
      </trkpt>
      <trkpt lat="45.88456" lon="4.68796">
        <ele>296.73922</ele>
        <time>2022-06-18T08:28:41.000Z</time>
      </trkpt>
      <trkpt lat="45.88457" lon="4.68803">
        <ele>296.22513</ele>
        <time>2022-06-18T08:28:42.000Z</time>
      </trkpt>
      <trkpt lat="45.88458" lon="4.68806">
        <ele>295.99518</ele>
        <time>2022-06-18T08:28:43.000Z</time>
      </trkpt>
      <trkpt lat="45.8846" lon="4.68809">
        <ele>295.74421</ele>
        <time>2022-06-18T08:28:44.000Z</time>
      </trkpt>
      <trkpt lat="45.8846" lon="4.68812">
        <ele>295.48647</ele>
        <time>2022-06-18T08:28:46.000Z</time>
      </trkpt>
      <trkpt lat="45.88462" lon="4.68813">
        <ele>295.38574</ele>
        <time>2022-06-18T08:28:50.000Z</time>
      </trkpt>
      <trkpt lat="45.88463" lon="4.68815">
        <ele>295.21277</ele>
        <time>2022-06-18T08:29:02.000Z</time>
      </trkpt>
      <trkpt lat="45.88464" lon="4.68819">
        <ele>294.86671</ele>
        <time>2022-06-18T08:29:03.000Z</time>
      </trkpt>
      <trkpt lat="45.88465" lon="4.68823">
        <ele>294.51525</ele>
        <time>2022-06-18T08:29:04.000Z</time>
      </trkpt>
      <trkpt lat="45.88467" lon="4.68828">
        <ele>294.08788</ele>
        <time>2022-06-18T08:29:05.000Z</time>
      </trkpt>
      <trkpt lat="45.88469" lon="4.68834">
        <ele>293.60184</ele>
        <time>2022-06-18T08:29:06.000Z</time>
      </trkpt>
      <trkpt lat="45.88473" lon="4.68843">
        <ele>292.84904</ele>
        <time>2022-06-18T08:29:07.000Z</time>
      </trkpt>
      <trkpt lat="45.88476" lon="4.6885">
        <ele>292.33236</ele>
        <time>2022-06-18T08:29:08.000Z</time>
      </trkpt>
      <trkpt lat="45.8848" lon="4.68856">
        <ele>291.84441</ele>
        <time>2022-06-18T08:29:09.000Z</time>
      </trkpt>
      <trkpt lat="45.88484" lon="4.68863">
        <ele>291.31402</ele>
        <time>2022-06-18T08:29:10.000Z</time>
      </trkpt>
      <trkpt lat="45.88488" lon="4.68871">
        <ele>290.75679</ele>
        <time>2022-06-18T08:29:11.000Z</time>
      </trkpt>
      <trkpt lat="45.88492" lon="4.68879">
        <ele>290.13835</ele>
        <time>2022-06-18T08:29:12.000Z</time>
      </trkpt>
      <trkpt lat="45.88496" lon="4.68888">
        <ele>289.44929</ele>
        <time>2022-06-18T08:29:13.000Z</time>
      </trkpt>
      <trkpt lat="45.885" lon="4.68897">
        <ele>288.66073</ele>
        <time>2022-06-18T08:29:14.000Z</time>
      </trkpt>
      <trkpt lat="45.88504" lon="4.68907">
        <ele>287.83837</ele>
        <time>2022-06-18T08:29:15.000Z</time>
      </trkpt>
      <trkpt lat="45.88508" lon="4.68917">
        <ele>286.9996</ele>
        <time>2022-06-18T08:29:16.000Z</time>
      </trkpt>
      <trkpt lat="45.88512" lon="4.68927">
        <ele>286.10332</ele>
        <time>2022-06-18T08:29:17.000Z</time>
      </trkpt>
      <trkpt lat="45.88516" lon="4.68937">
        <ele>285.28917</ele>
        <time>2022-06-18T08:29:18.000Z</time>
      </trkpt>
      <trkpt lat="45.88521" lon="4.68946">
        <ele>284.43216</ele>
        <time>2022-06-18T08:29:19.000Z</time>
      </trkpt>
      <trkpt lat="45.88528" lon="4.68954">
        <ele>283.55719</ele>
        <time>2022-06-18T08:29:20.000Z</time>
      </trkpt>
      <trkpt lat="45.88534" lon="4.68962">
        <ele>282.77587</ele>
        <time>2022-06-18T08:29:21.000Z</time>
      </trkpt>
      <trkpt lat="45.88541" lon="4.68968">
        <ele>282.08214</ele>
        <time>2022-06-18T08:29:22.000Z</time>
      </trkpt>
      <trkpt lat="45.88549" lon="4.68977">
        <ele>281.34758</ele>
        <time>2022-06-18T08:29:23.000Z</time>
      </trkpt>
      <trkpt lat="45.88555" lon="4.68987">
        <ele>280.58928</ele>
        <time>2022-06-18T08:29:24.000Z</time>
      </trkpt>
      <trkpt lat="45.88562" lon="4.68997">
        <ele>279.88023</ele>
        <time>2022-06-18T08:29:25.000Z</time>
      </trkpt>
      <trkpt lat="45.88569" lon="4.69006">
        <ele>279.16381</ele>
        <time>2022-06-18T08:29:26.000Z</time>
      </trkpt>
      <trkpt lat="45.88576" lon="4.69015">
        <ele>278.50897</ele>
        <time>2022-06-18T08:29:27.000Z</time>
      </trkpt>
      <trkpt lat="45.88582" lon="4.69024">
        <ele>277.92052</ele>
        <time>2022-06-18T08:29:28.000Z</time>
      </trkpt>
      <trkpt lat="45.88587" lon="4.69033">
        <ele>277.42219</ele>
        <time>2022-06-18T08:29:29.000Z</time>
      </trkpt>
      <trkpt lat="45.88593" lon="4.69042">
        <ele>276.95661</ele>
        <time>2022-06-18T08:29:30.000Z</time>
      </trkpt>
      <trkpt lat="45.88599" lon="4.6905">
        <ele>276.5834</ele>
        <time>2022-06-18T08:29:31.000Z</time>
      </trkpt>
      <trkpt lat="45.88603" lon="4.69058">
        <ele>276.24214</ele>
        <time>2022-06-18T08:29:32.000Z</time>
      </trkpt>
      <trkpt lat="45.88608" lon="4.69067">
        <ele>275.81384</ele>
        <time>2022-06-18T08:29:33.000Z</time>
      </trkpt>
      <trkpt lat="45.88614" lon="4.69075">
        <ele>275.45602</ele>
        <time>2022-06-18T08:29:34.000Z</time>
      </trkpt>
      <trkpt lat="45.8862" lon="4.69084">
        <ele>275.27466</ele>
        <time>2022-06-18T08:29:35.000Z</time>
      </trkpt>
      <trkpt lat="45.88625" lon="4.69092">
        <ele>275.12355</ele>
        <time>2022-06-18T08:29:36.000Z</time>
      </trkpt>
      <trkpt lat="45.88629" lon="4.69097">
        <ele>274.96798</ele>
        <time>2022-06-18T08:29:37.000Z</time>
      </trkpt>
      <trkpt lat="45.88632" lon="4.69099">
        <ele>274.85627</ele>
        <time>2022-06-18T08:29:38.000Z</time>
      </trkpt>
      <trkpt lat="45.88631" lon="4.69102">
        <ele>274.71119</ele>
        <time>2022-06-18T08:29:50.000Z</time>
      </trkpt>
      <trkpt lat="45.88633" lon="4.69106">
        <ele>274.51172</ele>
        <time>2022-06-18T08:30:02.000Z</time>
      </trkpt>
      <trkpt lat="45.88635" lon="4.69109">
        <ele>274.39928</ele>
        <time>2022-06-18T08:30:03.000Z</time>
      </trkpt>
      <trkpt lat="45.88637" lon="4.69113">
        <ele>274.20891</ele>
        <time>2022-06-18T08:30:04.000Z</time>
      </trkpt>
      <trkpt lat="45.88639" lon="4.69118">
        <ele>274.05344</ele>
        <time>2022-06-18T08:30:05.000Z</time>
      </trkpt>
      <trkpt lat="45.88641" lon="4.69124">
        <ele>273.90514</ele>
        <time>2022-06-18T08:30:06.000Z</time>
      </trkpt>
      <trkpt lat="45.88643" lon="4.6913">
        <ele>273.76355</ele>
        <time>2022-06-18T08:30:07.000Z</time>
      </trkpt>
      <trkpt lat="45.88645" lon="4.69136">
        <ele>273.61308</ele>
        <time>2022-06-18T08:30:08.000Z</time>
      </trkpt>
      <trkpt lat="45.88646" lon="4.69142">
        <ele>273.46559</ele>
        <time>2022-06-18T08:30:09.000Z</time>
      </trkpt>
      <trkpt lat="45.88646" lon="4.69148">
        <ele>273.26975</ele>
        <time>2022-06-18T08:30:10.000Z</time>
      </trkpt>
      <trkpt lat="45.88646" lon="4.69157">
        <ele>273.00186</ele>
        <time>2022-06-18T08:30:11.000Z</time>
      </trkpt>
      <trkpt lat="45.8865" lon="4.69163">
        <ele>272.87897</ele>
        <time>2022-06-18T08:30:12.000Z</time>
      </trkpt>
      <trkpt lat="45.88652" lon="4.69171">
        <ele>272.7106</ele>
        <time>2022-06-18T08:30:13.000Z</time>
      </trkpt>
      <trkpt lat="45.88653" lon="4.69179">
        <ele>272.50747</ele>
        <time>2022-06-18T08:30:14.000Z</time>
      </trkpt>
      <trkpt lat="45.88654" lon="4.69186">
        <ele>272.31742</ele>
        <time>2022-06-18T08:30:15.000Z</time>
      </trkpt>
      <trkpt lat="45.88655" lon="4.69191">
        <ele>272.1651</ele>
        <time>2022-06-18T08:30:16.000Z</time>
      </trkpt>
      <trkpt lat="45.88657" lon="4.69196">
        <ele>272.03359</ele>
        <time>2022-06-18T08:30:17.000Z</time>
      </trkpt>
      <trkpt lat="45.88661" lon="4.69199">
        <ele>271.9309</ele>
        <time>2022-06-18T08:30:18.000Z</time>
      </trkpt>
      <trkpt lat="45.88665" lon="4.69202">
        <ele>271.83799</ele>
        <time>2022-06-18T08:30:19.000Z</time>
      </trkpt>
      <trkpt lat="45.8867" lon="4.69205">
        <ele>271.67093</ele>
        <time>2022-06-18T08:30:20.000Z</time>
      </trkpt>
      <trkpt lat="45.88676" lon="4.69207">
        <ele>271.60797</ele>
        <time>2022-06-18T08:30:21.000Z</time>
      </trkpt>
      <trkpt lat="45.88681" lon="4.69211">
        <ele>271.44527</ele>
        <time>2022-06-18T08:30:22.000Z</time>
      </trkpt>
      <trkpt lat="45.88686" lon="4.69215">
        <ele>271.28084</ele>
        <time>2022-06-18T08:30:23.000Z</time>
      </trkpt>
      <trkpt lat="45.88691" lon="4.6922">
        <ele>271.07141</ele>
        <time>2022-06-18T08:30:24.000Z</time>
      </trkpt>
      <trkpt lat="45.88695" lon="4.69227">
        <ele>270.78856</ele>
        <time>2022-06-18T08:30:25.000Z</time>
      </trkpt>
      <trkpt lat="45.88698" lon="4.69234">
        <ele>270.43242</ele>
        <time>2022-06-18T08:30:26.000Z</time>
      </trkpt>
      <trkpt lat="45.88702" lon="4.69241">
        <ele>270.06924</ele>
        <time>2022-06-18T08:30:27.000Z</time>
      </trkpt>
      <trkpt lat="45.88707" lon="4.6925">
        <ele>269.79898</ele>
        <time>2022-06-18T08:30:28.000Z</time>
      </trkpt>
      <trkpt lat="45.88712" lon="4.69257">
        <ele>269.70715</ele>
        <time>2022-06-18T08:30:29.000Z</time>
      </trkpt>
      <trkpt lat="45.88717" lon="4.69266">
        <ele>269.56769</ele>
        <time>2022-06-18T08:30:30.000Z</time>
      </trkpt>
      <trkpt lat="45.88721" lon="4.69273">
        <ele>269.43531</ele>
        <time>2022-06-18T08:30:31.000Z</time>
      </trkpt>
      <trkpt lat="45.88725" lon="4.6928">
        <ele>269.32579</ele>
        <time>2022-06-18T08:30:32.000Z</time>
      </trkpt>
      <trkpt lat="45.88729" lon="4.69287">
        <ele>269.29919</ele>
        <time>2022-06-18T08:30:33.000Z</time>
      </trkpt>
      <trkpt lat="45.88734" lon="4.69293">
        <ele>269.35935</ele>
        <time>2022-06-18T08:30:34.000Z</time>
      </trkpt>
      <trkpt lat="45.88739" lon="4.69298">
        <ele>269.55523</ele>
        <time>2022-06-18T08:30:35.000Z</time>
      </trkpt>
      <trkpt lat="45.88744" lon="4.69302">
        <ele>269.81051</ele>
        <time>2022-06-18T08:30:36.000Z</time>
      </trkpt>
      <trkpt lat="45.88749" lon="4.69305">
        <ele>270.09694</ele>
        <time>2022-06-18T08:30:37.000Z</time>
      </trkpt>
      <trkpt lat="45.88754" lon="4.69309">
        <ele>270.34409</ele>
        <time>2022-06-18T08:30:38.000Z</time>
      </trkpt>
      <trkpt lat="45.88759" lon="4.69311">
        <ele>270.61191</ele>
        <time>2022-06-18T08:30:39.000Z</time>
      </trkpt>
      <trkpt lat="45.88764" lon="4.69311">
        <ele>270.90249</ele>
        <time>2022-06-18T08:30:40.000Z</time>
      </trkpt>
      <trkpt lat="45.88768" lon="4.69312">
        <ele>271.11768</ele>
        <time>2022-06-18T08:30:41.000Z</time>
      </trkpt>
      <trkpt lat="45.88772" lon="4.69312">
        <ele>271.29318</ele>
        <time>2022-06-18T08:30:42.000Z</time>
      </trkpt>
      <trkpt lat="45.88776" lon="4.69312">
        <ele>271.49387</ele>
        <time>2022-06-18T08:30:43.000Z</time>
      </trkpt>
      <trkpt lat="45.8878" lon="4.69312">
        <ele>271.65572</ele>
        <time>2022-06-18T08:30:44.000Z</time>
      </trkpt>
      <trkpt lat="45.88784" lon="4.69312">
        <ele>271.80857</ele>
        <time>2022-06-18T08:30:45.000Z</time>
      </trkpt>
      <trkpt lat="45.88788" lon="4.69311">
        <ele>272.01569</ele>
        <time>2022-06-18T08:30:46.000Z</time>
      </trkpt>
      <trkpt lat="45.88792" lon="4.6931">
        <ele>272.14158</ele>
        <time>2022-06-18T08:30:47.000Z</time>
      </trkpt>
      <trkpt lat="45.88795" lon="4.69311">
        <ele>272.23954</ele>
        <time>2022-06-18T08:30:48.000Z</time>
      </trkpt>
      <trkpt lat="45.88799" lon="4.6931">
        <ele>272.37709</ele>
        <time>2022-06-18T08:30:49.000Z</time>
      </trkpt>
      <trkpt lat="45.88802" lon="4.6931">
        <ele>272.46592</ele>
        <time>2022-06-18T08:30:50.000Z</time>
      </trkpt>
      <trkpt lat="45.88804" lon="4.6931">
        <ele>272.54519</ele>
        <time>2022-06-18T08:30:51.000Z</time>
      </trkpt>
      <trkpt lat="45.88802" lon="4.6931">
        <ele>272.4675</ele>
        <time>2022-06-18T08:30:56.000Z</time>
      </trkpt>
      <trkpt lat="45.88804" lon="4.69311">
        <ele>272.50462</ele>
        <time>2022-06-18T08:31:04.000Z</time>
      </trkpt>
      <trkpt lat="45.88809" lon="4.69311">
        <ele>272.65044</ele>
        <time>2022-06-18T08:31:06.000Z</time>
      </trkpt>
      <trkpt lat="45.88812" lon="4.6931">
        <ele>272.75203</ele>
        <time>2022-06-18T08:31:07.000Z</time>
      </trkpt>
      <trkpt lat="45.88815" lon="4.6931">
        <ele>272.85514</ele>
        <time>2022-06-18T08:31:08.000Z</time>
      </trkpt>
      <trkpt lat="45.88817" lon="4.6931">
        <ele>272.93569</ele>
        <time>2022-06-18T08:31:09.000Z</time>
      </trkpt>
      <trkpt lat="45.8882" lon="4.69309">
        <ele>273.0044</ele>
        <time>2022-06-18T08:31:10.000Z</time>
      </trkpt>
      <trkpt lat="45.88822" lon="4.69309">
        <ele>273.07802</ele>
        <time>2022-06-18T08:31:11.000Z</time>
      </trkpt>
      <trkpt lat="45.88825" lon="4.69309">
        <ele>273.15175</ele>
        <time>2022-06-18T08:31:12.000Z</time>
      </trkpt>
      <trkpt lat="45.88828" lon="4.69309">
        <ele>273.23665</ele>
        <time>2022-06-18T08:31:13.000Z</time>
      </trkpt>
      <trkpt lat="45.8883" lon="4.69308">
        <ele>273.32797</ele>
        <time>2022-06-18T08:31:14.000Z</time>
      </trkpt>
      <trkpt lat="45.88832" lon="4.69307">
        <ele>273.44375</ele>
        <time>2022-06-18T08:31:16.000Z</time>
      </trkpt>
      <trkpt lat="45.88834" lon="4.69304">
        <ele>273.56933</ele>
        <time>2022-06-18T08:31:18.000Z</time>
      </trkpt>
      <trkpt lat="45.88836" lon="4.69302">
        <ele>273.6857</ele>
        <time>2022-06-18T08:31:20.000Z</time>
      </trkpt>
      <trkpt lat="45.88838" lon="4.693">
        <ele>273.81828</ele>
        <time>2022-06-18T08:31:22.000Z</time>
      </trkpt>
      <trkpt lat="45.88841" lon="4.69299">
        <ele>273.99475</ele>
        <time>2022-06-18T08:31:24.000Z</time>
      </trkpt>
      <trkpt lat="45.88843" lon="4.69297">
        <ele>274.13155</ele>
        <time>2022-06-18T08:31:26.000Z</time>
      </trkpt>
      <trkpt lat="45.88841" lon="4.69295">
        <ele>274.08516</ele>
        <time>2022-06-18T08:31:29.000Z</time>
      </trkpt>
      <trkpt lat="45.88839" lon="4.69297">
        <ele>273.94399</ele>
        <time>2022-06-18T08:31:31.000Z</time>
      </trkpt>
      <trkpt lat="45.88836" lon="4.69301">
        <ele>273.71554</ele>
        <time>2022-06-18T08:31:33.000Z</time>
      </trkpt>
      <trkpt lat="45.88834" lon="4.69303">
        <ele>273.59213</ele>
        <time>2022-06-18T08:31:34.000Z</time>
      </trkpt>
      <trkpt lat="45.88832" lon="4.69304">
        <ele>273.48923</ele>
        <time>2022-06-18T08:31:35.000Z</time>
      </trkpt>
      <trkpt lat="45.8883" lon="4.69306">
        <ele>273.39251</ele>
        <time>2022-06-18T08:31:36.000Z</time>
      </trkpt>
      <trkpt lat="45.88828" lon="4.69307">
        <ele>273.29217</ele>
        <time>2022-06-18T08:31:37.000Z</time>
      </trkpt>
      <trkpt lat="45.88825" lon="4.69308">
        <ele>273.20054</ele>
        <time>2022-06-18T08:31:38.000Z</time>
      </trkpt>
      <trkpt lat="45.88825" lon="4.69308">
        <ele>273.20054</ele>
        <time>2022-06-18T08:31:38.000Z</time>
      </trkpt>
      <trkpt lat="45.88822" lon="4.69309">
        <ele>273.10288</ele>
        <time>2022-06-18T08:31:39.000Z</time>
      </trkpt>
      <trkpt lat="45.88819" lon="4.69309">
        <ele>273.00018</ele>
        <time>2022-06-18T08:31:40.000Z</time>
      </trkpt>
      <trkpt lat="45.88816" lon="4.6931">
        <ele>272.89411</ele>
        <time>2022-06-18T08:31:41.000Z</time>
      </trkpt>
      <trkpt lat="45.88813" lon="4.6931">
        <ele>272.78711</ele>
        <time>2022-06-18T08:31:42.000Z</time>
      </trkpt>
      <trkpt lat="45.8881" lon="4.6931">
        <ele>272.72023</ele>
        <time>2022-06-18T08:31:43.000Z</time>
      </trkpt>
      <trkpt lat="45.88808" lon="4.6931">
        <ele>272.6586</ele>
        <time>2022-06-18T08:31:44.000Z</time>
      </trkpt>
      <trkpt lat="45.88806" lon="4.69309">
        <ele>272.59772</ele>
        <time>2022-06-18T08:31:45.000Z</time>
      </trkpt>
      <trkpt lat="45.88804" lon="4.69308">
        <ele>272.57041</ele>
        <time>2022-06-18T08:31:46.000Z</time>
      </trkpt>
      <trkpt lat="45.88803" lon="4.69305">
        <ele>272.59824</ele>
        <time>2022-06-18T08:31:47.000Z</time>
      </trkpt>
      <trkpt lat="45.88803" lon="4.69301">
        <ele>272.67886</ele>
        <time>2022-06-18T08:31:48.000Z</time>
      </trkpt>
      <trkpt lat="45.88803" lon="4.69295">
        <ele>272.79719</ele>
        <time>2022-06-18T08:31:49.000Z</time>
      </trkpt>
      <trkpt lat="45.88803" lon="4.69289">
        <ele>272.92942</ele>
        <time>2022-06-18T08:31:50.000Z</time>
      </trkpt>
      <trkpt lat="45.88804" lon="4.69283">
        <ele>273.0702</ele>
        <time>2022-06-18T08:31:51.000Z</time>
      </trkpt>
      <trkpt lat="45.88804" lon="4.69276">
        <ele>273.2023</ele>
        <time>2022-06-18T08:31:52.000Z</time>
      </trkpt>
      <trkpt lat="45.88804" lon="4.6927">
        <ele>273.33241</ele>
        <time>2022-06-18T08:31:53.000Z</time>
      </trkpt>
      <trkpt lat="45.88805" lon="4.69263">
        <ele>273.44206</ele>
        <time>2022-06-18T08:31:54.000Z</time>
      </trkpt>
      <trkpt lat="45.88805" lon="4.69257">
        <ele>273.54339</ele>
        <time>2022-06-18T08:31:55.000Z</time>
      </trkpt>
      <trkpt lat="45.88805" lon="4.69251">
        <ele>273.62576</ele>
        <time>2022-06-18T08:31:56.000Z</time>
      </trkpt>
      <trkpt lat="45.88805" lon="4.69245">
        <ele>273.69106</ele>
        <time>2022-06-18T08:31:57.000Z</time>
      </trkpt>
      <trkpt lat="45.88805" lon="4.69238">
        <ele>273.75418</ele>
        <time>2022-06-18T08:31:58.000Z</time>
      </trkpt>
      <trkpt lat="45.88804" lon="4.69231">
        <ele>273.81545</ele>
        <time>2022-06-18T08:31:59.000Z</time>
      </trkpt>
      <trkpt lat="45.88804" lon="4.69225">
        <ele>273.88057</ele>
        <time>2022-06-18T08:32:00.000Z</time>
      </trkpt>
      <trkpt lat="45.88804" lon="4.69218">
        <ele>273.95388</ele>
        <time>2022-06-18T08:32:01.000Z</time>
      </trkpt>
      <trkpt lat="45.88804" lon="4.69212">
        <ele>274.03962</ele>
        <time>2022-06-18T08:32:02.000Z</time>
      </trkpt>
      <trkpt lat="45.88803" lon="4.69204">
        <ele>274.14194</ele>
        <time>2022-06-18T08:32:03.000Z</time>
      </trkpt>
      <trkpt lat="45.88803" lon="4.69198">
        <ele>274.23325</ele>
        <time>2022-06-18T08:32:04.000Z</time>
      </trkpt>
      <trkpt lat="45.88803" lon="4.69192">
        <ele>274.38041</ele>
        <time>2022-06-18T08:32:05.000Z</time>
      </trkpt>
      <trkpt lat="45.88804" lon="4.69183">
        <ele>274.66056</ele>
        <time>2022-06-18T08:32:06.000Z</time>
      </trkpt>
      <trkpt lat="45.88805" lon="4.69177">
        <ele>274.96193</ele>
        <time>2022-06-18T08:32:07.000Z</time>
      </trkpt>
      <trkpt lat="45.88806" lon="4.69171">
        <ele>275.23363</ele>
        <time>2022-06-18T08:32:08.000Z</time>
      </trkpt>
      <trkpt lat="45.88805" lon="4.69164">
        <ele>275.32919</ele>
        <time>2022-06-18T08:32:09.000Z</time>
      </trkpt>
      <trkpt lat="45.88805" lon="4.69157">
        <ele>275.37566</ele>
        <time>2022-06-18T08:32:10.000Z</time>
      </trkpt>
      <trkpt lat="45.88806" lon="4.69151">
        <ele>275.29631</ele>
        <time>2022-06-18T08:32:11.000Z</time>
      </trkpt>
      <trkpt lat="45.88806" lon="4.69141">
        <ele>275.07149</ele>
        <time>2022-06-18T08:32:12.000Z</time>
      </trkpt>
      <trkpt lat="45.88806" lon="4.69133">
        <ele>274.8876</ele>
        <time>2022-06-18T08:32:13.000Z</time>
      </trkpt>
      <trkpt lat="45.88807" lon="4.69126">
        <ele>274.84269</ele>
        <time>2022-06-18T08:32:14.000Z</time>
      </trkpt>
      <trkpt lat="45.88805" lon="4.69118">
        <ele>274.79352</ele>
        <time>2022-06-18T08:32:15.000Z</time>
      </trkpt>
      <trkpt lat="45.88806" lon="4.69109">
        <ele>274.87295</ele>
        <time>2022-06-18T08:32:16.000Z</time>
      </trkpt>
      <trkpt lat="45.88807" lon="4.691">
        <ele>275.02044</ele>
        <time>2022-06-18T08:32:17.000Z</time>
      </trkpt>
      <trkpt lat="45.88808" lon="4.69093">
        <ele>275.09193</ele>
        <time>2022-06-18T08:32:18.000Z</time>
      </trkpt>
      <trkpt lat="45.88808" lon="4.69085">
        <ele>275.15701</ele>
        <time>2022-06-18T08:32:19.000Z</time>
      </trkpt>
      <trkpt lat="45.88809" lon="4.69077">
        <ele>275.24118</ele>
        <time>2022-06-18T08:32:20.000Z</time>
      </trkpt>
      <trkpt lat="45.88811" lon="4.6907">
        <ele>275.34936</ele>
        <time>2022-06-18T08:32:21.000Z</time>
      </trkpt>
      <trkpt lat="45.88811" lon="4.69064">
        <ele>275.45075</ele>
        <time>2022-06-18T08:32:22.000Z</time>
      </trkpt>
      <trkpt lat="45.88813" lon="4.69055">
        <ele>275.67588</ele>
        <time>2022-06-18T08:32:23.000Z</time>
      </trkpt>
      <trkpt lat="45.88815" lon="4.69047">
        <ele>275.93677</ele>
        <time>2022-06-18T08:32:24.000Z</time>
      </trkpt>
      <trkpt lat="45.88816" lon="4.69038">
        <ele>276.17781</ele>
        <time>2022-06-18T08:32:25.000Z</time>
      </trkpt>
      <trkpt lat="45.88816" lon="4.69029">
        <ele>276.43634</ele>
        <time>2022-06-18T08:32:26.000Z</time>
      </trkpt>
      <trkpt lat="45.88815" lon="4.69022">
        <ele>276.61188</ele>
        <time>2022-06-18T08:32:27.000Z</time>
      </trkpt>
      <trkpt lat="45.88817" lon="4.69015">
        <ele>276.86926</ele>
        <time>2022-06-18T08:32:28.000Z</time>
      </trkpt>
      <trkpt lat="45.88818" lon="4.69007">
        <ele>277.16289</ele>
        <time>2022-06-18T08:32:29.000Z</time>
      </trkpt>
      <trkpt lat="45.88818" lon="4.68998">
        <ele>277.45077</ele>
        <time>2022-06-18T08:32:30.000Z</time>
      </trkpt>
      <trkpt lat="45.8882" lon="4.68988">
        <ele>277.80078</ele>
        <time>2022-06-18T08:32:31.000Z</time>
      </trkpt>
      <trkpt lat="45.88821" lon="4.68982">
        <ele>278.04701</ele>
        <time>2022-06-18T08:32:32.000Z</time>
      </trkpt>
      <trkpt lat="45.88824" lon="4.68975">
        <ele>278.33512</ele>
        <time>2022-06-18T08:32:33.000Z</time>
      </trkpt>
      <trkpt lat="45.88826" lon="4.68968">
        <ele>278.62491</ele>
        <time>2022-06-18T08:32:34.000Z</time>
      </trkpt>
      <trkpt lat="45.88829" lon="4.68962">
        <ele>278.92716</ele>
        <time>2022-06-18T08:32:35.000Z</time>
      </trkpt>
      <trkpt lat="45.88832" lon="4.68956">
        <ele>279.22795</ele>
        <time>2022-06-18T08:32:36.000Z</time>
      </trkpt>
      <trkpt lat="45.88835" lon="4.68949">
        <ele>279.49887</ele>
        <time>2022-06-18T08:32:37.000Z</time>
      </trkpt>
      <trkpt lat="45.88838" lon="4.68943">
        <ele>279.69288</ele>
        <time>2022-06-18T08:32:38.000Z</time>
      </trkpt>
      <trkpt lat="45.88841" lon="4.68938">
        <ele>279.81971</ele>
        <time>2022-06-18T08:32:39.000Z</time>
      </trkpt>
      <trkpt lat="45.88845" lon="4.68933">
        <ele>279.92463</ele>
        <time>2022-06-18T08:32:40.000Z</time>
      </trkpt>
      <trkpt lat="45.88849" lon="4.68928">
        <ele>280.0347</ele>
        <time>2022-06-18T08:32:41.000Z</time>
      </trkpt>
      <trkpt lat="45.88853" lon="4.68924">
        <ele>280.16493</ele>
        <time>2022-06-18T08:32:42.000Z</time>
      </trkpt>
      <trkpt lat="45.88857" lon="4.68921">
        <ele>280.29473</ele>
        <time>2022-06-18T08:32:43.000Z</time>
      </trkpt>
      <trkpt lat="45.8886" lon="4.68917">
        <ele>280.5026</ele>
        <time>2022-06-18T08:32:44.000Z</time>
      </trkpt>
      <trkpt lat="45.88863" lon="4.68913">
        <ele>280.68814</ele>
        <time>2022-06-18T08:32:45.000Z</time>
      </trkpt>
      <trkpt lat="45.88866" lon="4.68909">
        <ele>280.86354</ele>
        <time>2022-06-18T08:32:46.000Z</time>
      </trkpt>
      <trkpt lat="45.88869" lon="4.68905">
        <ele>281.0075</ele>
        <time>2022-06-18T08:32:47.000Z</time>
      </trkpt>
      <trkpt lat="45.88873" lon="4.68899">
        <ele>281.2111</ele>
        <time>2022-06-18T08:32:48.000Z</time>
      </trkpt>
      <trkpt lat="45.88876" lon="4.68896">
        <ele>281.31984</ele>
        <time>2022-06-18T08:32:49.000Z</time>
      </trkpt>
      <trkpt lat="45.8888" lon="4.68892">
        <ele>281.44958</ele>
        <time>2022-06-18T08:32:50.000Z</time>
      </trkpt>
      <trkpt lat="45.88883" lon="4.68888">
        <ele>281.5799</ele>
        <time>2022-06-18T08:32:51.000Z</time>
      </trkpt>
      <trkpt lat="45.88887" lon="4.68885">
        <ele>281.68446</ele>
        <time>2022-06-18T08:32:52.000Z</time>
      </trkpt>
      <trkpt lat="45.88891" lon="4.68882">
        <ele>281.76838</ele>
        <time>2022-06-18T08:32:53.000Z</time>
      </trkpt>
      <trkpt lat="45.88894" lon="4.68878">
        <ele>281.89079</ele>
        <time>2022-06-18T08:32:54.000Z</time>
      </trkpt>
      <trkpt lat="45.88898" lon="4.68876">
        <ele>281.99868</ele>
        <time>2022-06-18T08:32:55.000Z</time>
      </trkpt>
      <trkpt lat="45.88903" lon="4.68872">
        <ele>282.15393</ele>
        <time>2022-06-18T08:32:56.000Z</time>
      </trkpt>
      <trkpt lat="45.88907" lon="4.68869">
        <ele>282.32826</ele>
        <time>2022-06-18T08:32:57.000Z</time>
      </trkpt>
      <trkpt lat="45.88911" lon="4.68866">
        <ele>282.51605</ele>
        <time>2022-06-18T08:32:58.000Z</time>
      </trkpt>
      <trkpt lat="45.88915" lon="4.68862">
        <ele>282.73081</ele>
        <time>2022-06-18T08:32:59.000Z</time>
      </trkpt>
      <trkpt lat="45.88918" lon="4.68859">
        <ele>282.91699</ele>
        <time>2022-06-18T08:33:00.000Z</time>
      </trkpt>
      <trkpt lat="45.88921" lon="4.68856">
        <ele>283.08798</ele>
        <time>2022-06-18T08:33:01.000Z</time>
      </trkpt>
      <trkpt lat="45.88925" lon="4.68853">
        <ele>283.28889</ele>
        <time>2022-06-18T08:33:02.000Z</time>
      </trkpt>
      <trkpt lat="45.8893" lon="4.6885">
        <ele>283.4668</ele>
        <time>2022-06-18T08:33:03.000Z</time>
      </trkpt>
      <trkpt lat="45.88933" lon="4.68848">
        <ele>283.60239</ele>
        <time>2022-06-18T08:33:04.000Z</time>
      </trkpt>
      <trkpt lat="45.88937" lon="4.68844">
        <ele>283.80158</ele>
        <time>2022-06-18T08:33:05.000Z</time>
      </trkpt>
      <trkpt lat="45.88939" lon="4.68839">
        <ele>284.02966</ele>
        <time>2022-06-18T08:33:06.000Z</time>
      </trkpt>
      <trkpt lat="45.88944" lon="4.68835">
        <ele>284.24792</ele>
        <time>2022-06-18T08:33:07.000Z</time>
      </trkpt>
      <trkpt lat="45.88947" lon="4.68832">
        <ele>284.39961</ele>
        <time>2022-06-18T08:33:08.000Z</time>
      </trkpt>
      <trkpt lat="45.8895" lon="4.68829">
        <ele>284.54498</ele>
        <time>2022-06-18T08:33:09.000Z</time>
      </trkpt>
      <trkpt lat="45.88954" lon="4.68825">
        <ele>284.70285</ele>
        <time>2022-06-18T08:33:10.000Z</time>
      </trkpt>
      <trkpt lat="45.88958" lon="4.68821">
        <ele>284.80486</ele>
        <time>2022-06-18T08:33:11.000Z</time>
      </trkpt>
      <trkpt lat="45.88962" lon="4.68817">
        <ele>284.87815</ele>
        <time>2022-06-18T08:33:12.000Z</time>
      </trkpt>
      <trkpt lat="45.88966" lon="4.68813">
        <ele>284.95683</ele>
        <time>2022-06-18T08:33:13.000Z</time>
      </trkpt>
      <trkpt lat="45.8897" lon="4.68809">
        <ele>285.07237</ele>
        <time>2022-06-18T08:33:14.000Z</time>
      </trkpt>
      <trkpt lat="45.88973" lon="4.68806">
        <ele>285.21996</ele>
        <time>2022-06-18T08:33:15.000Z</time>
      </trkpt>
      <trkpt lat="45.88977" lon="4.68804">
        <ele>285.32963</ele>
        <time>2022-06-18T08:33:16.000Z</time>
      </trkpt>
      <trkpt lat="45.88981" lon="4.68803">
        <ele>285.43037</ele>
        <time>2022-06-18T08:33:17.000Z</time>
      </trkpt>
      <trkpt lat="45.88984" lon="4.688">
        <ele>285.53159</ele>
        <time>2022-06-18T08:33:18.000Z</time>
      </trkpt>
      <trkpt lat="45.88988" lon="4.68796">
        <ele>285.63998</ele>
        <time>2022-06-18T08:33:19.000Z</time>
      </trkpt>
      <trkpt lat="45.88991" lon="4.68794">
        <ele>285.6821</ele>
        <time>2022-06-18T08:33:20.000Z</time>
      </trkpt>
      <trkpt lat="45.88995" lon="4.6879">
        <ele>285.75804</ele>
        <time>2022-06-18T08:33:21.000Z</time>
      </trkpt>
      <trkpt lat="45.88999" lon="4.68787">
        <ele>285.84653</ele>
        <time>2022-06-18T08:33:22.000Z</time>
      </trkpt>
      <trkpt lat="45.89003" lon="4.68784">
        <ele>285.98067</ele>
        <time>2022-06-18T08:33:23.000Z</time>
      </trkpt>
      <trkpt lat="45.89007" lon="4.68779">
        <ele>286.22545</ele>
        <time>2022-06-18T08:33:24.000Z</time>
      </trkpt>
      <trkpt lat="45.8901" lon="4.68777">
        <ele>286.37044</ele>
        <time>2022-06-18T08:33:25.000Z</time>
      </trkpt>
      <trkpt lat="45.89015" lon="4.68774">
        <ele>286.50118</ele>
        <time>2022-06-18T08:33:26.000Z</time>
      </trkpt>
      <trkpt lat="45.8902" lon="4.6877">
        <ele>286.58448</ele>
        <time>2022-06-18T08:33:27.000Z</time>
      </trkpt>
      <trkpt lat="45.89045" lon="4.68748">
        <ele>286.86543</ele>
        <time>2022-06-18T08:33:33.000Z</time>
      </trkpt>
      <trkpt lat="45.89048" lon="4.68746">
        <ele>286.93257</ele>
        <time>2022-06-18T08:33:34.000Z</time>
      </trkpt>
      <trkpt lat="45.89052" lon="4.68743">
        <ele>286.98622</ele>
        <time>2022-06-18T08:33:35.000Z</time>
      </trkpt>
      <trkpt lat="45.89056" lon="4.6874">
        <ele>287.07522</ele>
        <time>2022-06-18T08:33:36.000Z</time>
      </trkpt>
      <trkpt lat="45.89059" lon="4.68738">
        <ele>287.09728</ele>
        <time>2022-06-18T08:33:37.000Z</time>
      </trkpt>
      <trkpt lat="45.89064" lon="4.68736">
        <ele>287.07458</ele>
        <time>2022-06-18T08:33:38.000Z</time>
      </trkpt>
      <trkpt lat="45.89068" lon="4.68735">
        <ele>286.98029</ele>
        <time>2022-06-18T08:33:39.000Z</time>
      </trkpt>
      <trkpt lat="45.89072" lon="4.68735">
        <ele>286.86308</ele>
        <time>2022-06-18T08:33:40.000Z</time>
      </trkpt>
      <trkpt lat="45.89075" lon="4.68735">
        <ele>286.71894</ele>
        <time>2022-06-18T08:33:41.000Z</time>
      </trkpt>
      <trkpt lat="45.8908" lon="4.68735">
        <ele>286.51955</ele>
        <time>2022-06-18T08:33:42.000Z</time>
      </trkpt>
      <trkpt lat="45.89086" lon="4.68736">
        <ele>286.31099</ele>
        <time>2022-06-18T08:33:43.000Z</time>
      </trkpt>
      <trkpt lat="45.8909" lon="4.68736">
        <ele>286.16438</ele>
        <time>2022-06-18T08:33:44.000Z</time>
      </trkpt>
      <trkpt lat="45.89095" lon="4.68735">
        <ele>285.99984</ele>
        <time>2022-06-18T08:33:45.000Z</time>
      </trkpt>
      <trkpt lat="45.89099" lon="4.68737">
        <ele>285.81592</ele>
        <time>2022-06-18T08:33:46.000Z</time>
      </trkpt>
      <trkpt lat="45.89104" lon="4.68737">
        <ele>285.60624</ele>
        <time>2022-06-18T08:33:47.000Z</time>
      </trkpt>
      <trkpt lat="45.89109" lon="4.68737">
        <ele>285.41507</ele>
        <time>2022-06-18T08:33:48.000Z</time>
      </trkpt>
      <trkpt lat="45.8911" lon="4.68735">
        <ele>285.39011</ele>
        <time>2022-06-18T08:33:49.000Z</time>
      </trkpt>
      <trkpt lat="45.89115" lon="4.68739">
        <ele>285.11813</ele>
        <time>2022-06-18T08:33:50.000Z</time>
      </trkpt>
      <trkpt lat="45.89121" lon="4.68738">
        <ele>284.84279</ele>
        <time>2022-06-18T08:33:51.000Z</time>
      </trkpt>
      <trkpt lat="45.89124" lon="4.68745">
        <ele>284.55542</ele>
        <time>2022-06-18T08:33:52.000Z</time>
      </trkpt>
      <trkpt lat="45.89126" lon="4.68747">
        <ele>284.45852</ele>
        <time>2022-06-18T08:33:53.000Z</time>
      </trkpt>
      <trkpt lat="45.89126" lon="4.6875">
        <ele>284.39087</ele>
        <time>2022-06-18T08:33:54.000Z</time>
      </trkpt>
      <trkpt lat="45.89128" lon="4.68754">
        <ele>284.25226</ele>
        <time>2022-06-18T08:33:55.000Z</time>
      </trkpt>
      <trkpt lat="45.8913" lon="4.6876">
        <ele>284.0805</ele>
        <time>2022-06-18T08:33:56.000Z</time>
      </trkpt>
      <trkpt lat="45.89132" lon="4.68764">
        <ele>283.93065</ele>
        <time>2022-06-18T08:33:57.000Z</time>
      </trkpt>
      <trkpt lat="45.89134" lon="4.68768">
        <ele>283.78832</ele>
        <time>2022-06-18T08:33:58.000Z</time>
      </trkpt>
      <trkpt lat="45.89137" lon="4.68771">
        <ele>283.6469</ele>
        <time>2022-06-18T08:33:59.000Z</time>
      </trkpt>
      <trkpt lat="45.89139" lon="4.68775">
        <ele>283.528</ele>
        <time>2022-06-18T08:34:00.000Z</time>
      </trkpt>
      <trkpt lat="45.89141" lon="4.68778">
        <ele>283.4246</ele>
        <time>2022-06-18T08:34:01.000Z</time>
      </trkpt>
      <trkpt lat="45.89142" lon="4.68779">
        <ele>283.35425</ele>
        <time>2022-06-18T08:34:02.000Z</time>
      </trkpt>
      <trkpt lat="45.89144" lon="4.68779">
        <ele>283.20802</ele>
        <time>2022-06-18T08:34:10.000Z</time>
      </trkpt>
      <trkpt lat="45.89147" lon="4.68778">
        <ele>283.05709</ele>
        <time>2022-06-18T08:34:11.000Z</time>
      </trkpt>
      <trkpt lat="45.8915" lon="4.68777">
        <ele>282.83729</ele>
        <time>2022-06-18T08:34:12.000Z</time>
      </trkpt>
      <trkpt lat="45.89153" lon="4.68777">
        <ele>282.57167</ele>
        <time>2022-06-18T08:34:13.000Z</time>
      </trkpt>
      <trkpt lat="45.89156" lon="4.68778">
        <ele>282.2372</ele>
        <time>2022-06-18T08:34:14.000Z</time>
      </trkpt>
      <trkpt lat="45.8916" lon="4.6878">
        <ele>281.82575</ele>
        <time>2022-06-18T08:34:15.000Z</time>
      </trkpt>
      <trkpt lat="45.89165" lon="4.68781">
        <ele>281.40319</ele>
        <time>2022-06-18T08:34:16.000Z</time>
      </trkpt>
      <trkpt lat="45.89168" lon="4.68782">
        <ele>281.00758</ele>
        <time>2022-06-18T08:34:17.000Z</time>
      </trkpt>
      <trkpt lat="45.89173" lon="4.68784">
        <ele>280.69207</ele>
        <time>2022-06-18T08:34:18.000Z</time>
      </trkpt>
      <trkpt lat="45.89178" lon="4.68784">
        <ele>280.33382</ele>
        <time>2022-06-18T08:34:19.000Z</time>
      </trkpt>
      <trkpt lat="45.89181" lon="4.68786">
        <ele>280.26698</ele>
        <time>2022-06-18T08:34:20.000Z</time>
      </trkpt>
      <trkpt lat="45.89185" lon="4.68787">
        <ele>280.10818</ele>
        <time>2022-06-18T08:34:21.000Z</time>
      </trkpt>
      <trkpt lat="45.89191" lon="4.68787">
        <ele>279.85343</ele>
        <time>2022-06-18T08:34:22.000Z</time>
      </trkpt>
      <trkpt lat="45.89194" lon="4.6879">
        <ele>279.8036</ele>
        <time>2022-06-18T08:34:23.000Z</time>
      </trkpt>
      <trkpt lat="45.892" lon="4.68789">
        <ele>279.41428</ele>
        <time>2022-06-18T08:34:24.000Z</time>
      </trkpt>
      <trkpt lat="45.89206" lon="4.68789">
        <ele>279.04231</ele>
        <time>2022-06-18T08:34:25.000Z</time>
      </trkpt>
      <trkpt lat="45.89212" lon="4.6879">
        <ele>278.68925</ele>
        <time>2022-06-18T08:34:26.000Z</time>
      </trkpt>
      <trkpt lat="45.89219" lon="4.68792">
        <ele>278.3869</ele>
        <time>2022-06-18T08:34:27.000Z</time>
      </trkpt>
      <trkpt lat="45.89225" lon="4.68798">
        <ele>278.29638</ele>
        <time>2022-06-18T08:34:28.000Z</time>
      </trkpt>
      <trkpt lat="45.89227" lon="4.68805">
        <ele>278.40931</ele>
        <time>2022-06-18T08:34:29.000Z</time>
      </trkpt>
      <trkpt lat="45.89229" lon="4.68809">
        <ele>278.35178</ele>
        <time>2022-06-18T08:34:30.000Z</time>
      </trkpt>
      <trkpt lat="45.8923" lon="4.68811">
        <ele>278.35559</ele>
        <time>2022-06-18T08:34:31.000Z</time>
      </trkpt>
      <trkpt lat="45.89232" lon="4.68814">
        <ele>278.26257</ele>
        <time>2022-06-18T08:34:32.000Z</time>
      </trkpt>
      <trkpt lat="45.89234" lon="4.68817">
        <ele>278.17986</ele>
        <time>2022-06-18T08:34:33.000Z</time>
      </trkpt>
      <trkpt lat="45.89236" lon="4.68819">
        <ele>278.04813</ele>
        <time>2022-06-18T08:34:34.000Z</time>
      </trkpt>
      <trkpt lat="45.89239" lon="4.68822">
        <ele>277.83768</ele>
        <time>2022-06-18T08:34:35.000Z</time>
      </trkpt>
      <trkpt lat="45.89242" lon="4.68823">
        <ele>277.62796</ele>
        <time>2022-06-18T08:34:36.000Z</time>
      </trkpt>
      <trkpt lat="45.89245" lon="4.68824">
        <ele>277.43293</ele>
        <time>2022-06-18T08:34:37.000Z</time>
      </trkpt>
      <trkpt lat="45.89247" lon="4.68825">
        <ele>277.27035</ele>
        <time>2022-06-18T08:34:38.000Z</time>
      </trkpt>
      <trkpt lat="45.89251" lon="4.68827">
        <ele>277.04213</ele>
        <time>2022-06-18T08:34:39.000Z</time>
      </trkpt>
      <trkpt lat="45.89255" lon="4.68829">
        <ele>276.78717</ele>
        <time>2022-06-18T08:34:40.000Z</time>
      </trkpt>
      <trkpt lat="45.89259" lon="4.6883">
        <ele>276.50445</ele>
        <time>2022-06-18T08:34:41.000Z</time>
      </trkpt>
      <trkpt lat="45.89262" lon="4.6883">
        <ele>276.26624</ele>
        <time>2022-06-18T08:34:42.000Z</time>
      </trkpt>
      <trkpt lat="45.89265" lon="4.6883">
        <ele>276.03875</ele>
        <time>2022-06-18T08:34:43.000Z</time>
      </trkpt>
      <trkpt lat="45.89268" lon="4.6883">
        <ele>275.82608</ele>
        <time>2022-06-18T08:34:44.000Z</time>
      </trkpt>
      <trkpt lat="45.89271" lon="4.68829">
        <ele>275.57668</ele>
        <time>2022-06-18T08:34:45.000Z</time>
      </trkpt>
      <trkpt lat="45.89274" lon="4.68827">
        <ele>275.25287</ele>
        <time>2022-06-18T08:34:46.000Z</time>
      </trkpt>
      <trkpt lat="45.89278" lon="4.68825">
        <ele>274.8975</ele>
        <time>2022-06-18T08:34:47.000Z</time>
      </trkpt>
      <trkpt lat="45.89281" lon="4.68821">
        <ele>274.5089</ele>
        <time>2022-06-18T08:34:48.000Z</time>
      </trkpt>
      <trkpt lat="45.89284" lon="4.68817">
        <ele>274.02789</ele>
        <time>2022-06-18T08:34:49.000Z</time>
      </trkpt>
      <trkpt lat="45.89285" lon="4.68809">
        <ele>273.43908</ele>
        <time>2022-06-18T08:34:50.000Z</time>
      </trkpt>
      <trkpt lat="45.89285" lon="4.68802">
        <ele>272.79388</ele>
        <time>2022-06-18T08:34:51.000Z</time>
      </trkpt>
      <trkpt lat="45.89287" lon="4.68795">
        <ele>272.14627</ele>
        <time>2022-06-18T08:34:52.000Z</time>
      </trkpt>
      <trkpt lat="45.89288" lon="4.68789">
        <ele>271.66527</ele>
        <time>2022-06-18T08:34:53.000Z</time>
      </trkpt>
      <trkpt lat="45.89289" lon="4.68783">
        <ele>271.42743</ele>
        <time>2022-06-18T08:34:54.000Z</time>
      </trkpt>
      <trkpt lat="45.8929" lon="4.68776">
        <ele>271.19666</ele>
        <time>2022-06-18T08:34:55.000Z</time>
      </trkpt>
      <trkpt lat="45.89292" lon="4.68769">
        <ele>271.04839</ele>
        <time>2022-06-18T08:34:56.000Z</time>
      </trkpt>
      <trkpt lat="45.89295" lon="4.68764">
        <ele>270.90946</ele>
        <time>2022-06-18T08:34:57.000Z</time>
      </trkpt>
      <trkpt lat="45.89297" lon="4.68759">
        <ele>270.94674</ele>
        <time>2022-06-18T08:34:58.000Z</time>
      </trkpt>
      <trkpt lat="45.89299" lon="4.68754">
        <ele>271.1149</ele>
        <time>2022-06-18T08:34:59.000Z</time>
      </trkpt>
      <trkpt lat="45.89303" lon="4.68748">
        <ele>271.41159</ele>
        <time>2022-06-18T08:35:00.000Z</time>
      </trkpt>
      <trkpt lat="45.89305" lon="4.68745">
        <ele>271.68897</ele>
        <time>2022-06-18T08:35:01.000Z</time>
      </trkpt>
      <trkpt lat="45.89307" lon="4.68741">
        <ele>272.18021</ele>
        <time>2022-06-18T08:35:02.000Z</time>
      </trkpt>
      <trkpt lat="45.89309" lon="4.68737">
        <ele>272.6902</ele>
        <time>2022-06-18T08:35:03.000Z</time>
      </trkpt>
      <trkpt lat="45.89312" lon="4.68734">
        <ele>273.2095</ele>
        <time>2022-06-18T08:35:04.000Z</time>
      </trkpt>
      <trkpt lat="45.89315" lon="4.68732">
        <ele>273.5187</ele>
        <time>2022-06-18T08:35:06.000Z</time>
      </trkpt>
      <trkpt lat="45.89318" lon="4.6873">
        <ele>273.89271</ele>
        <time>2022-06-18T08:35:07.000Z</time>
      </trkpt>
      <trkpt lat="45.8932" lon="4.68729">
        <ele>274.03014</ele>
        <time>2022-06-18T08:35:08.000Z</time>
      </trkpt>
      <trkpt lat="45.89323" lon="4.68727">
        <ele>274.28495</ele>
        <time>2022-06-18T08:35:09.000Z</time>
      </trkpt>
      <trkpt lat="45.89325" lon="4.68725">
        <ele>274.76004</ele>
        <time>2022-06-18T08:35:10.000Z</time>
      </trkpt>
      <trkpt lat="45.89328" lon="4.68723">
        <ele>275.26271</ele>
        <time>2022-06-18T08:35:11.000Z</time>
      </trkpt>
      <trkpt lat="45.89332" lon="4.68721">
        <ele>275.69865</ele>
        <time>2022-06-18T08:35:12.000Z</time>
      </trkpt>
      <trkpt lat="45.89335" lon="4.68719">
        <ele>276.17867</ele>
        <time>2022-06-18T08:35:13.000Z</time>
      </trkpt>
      <trkpt lat="45.89338" lon="4.68717">
        <ele>276.63941</ele>
        <time>2022-06-18T08:35:14.000Z</time>
      </trkpt>
      <trkpt lat="45.89341" lon="4.68716">
        <ele>277.01504</ele>
        <time>2022-06-18T08:35:15.000Z</time>
      </trkpt>
      <trkpt lat="45.89343" lon="4.68716">
        <ele>277.2287</ele>
        <time>2022-06-18T08:35:16.000Z</time>
      </trkpt>
      <trkpt lat="45.89346" lon="4.68716">
        <ele>277.40138</ele>
        <time>2022-06-18T08:35:17.000Z</time>
      </trkpt>
      <trkpt lat="45.89348" lon="4.68715">
        <ele>277.59629</ele>
        <time>2022-06-18T08:35:18.000Z</time>
      </trkpt>
      <trkpt lat="45.8935" lon="4.68715">
        <ele>277.70231</ele>
        <time>2022-06-18T08:35:19.000Z</time>
      </trkpt>
      <trkpt lat="45.89352" lon="4.68715">
        <ele>277.88843</ele>
        <time>2022-06-18T08:35:20.000Z</time>
      </trkpt>
      <trkpt lat="45.89355" lon="4.68714">
        <ele>278.26481</ele>
        <time>2022-06-18T08:35:22.000Z</time>
      </trkpt>
      <trkpt lat="45.89356" lon="4.68712">
        <ele>278.90233</ele>
        <time>2022-06-18T08:35:32.000Z</time>
      </trkpt>
      <trkpt lat="45.89358" lon="4.68713">
        <ele>278.88301</ele>
        <time>2022-06-18T08:35:46.000Z</time>
      </trkpt>
      <trkpt lat="45.89361" lon="4.68713">
        <ele>279.21069</ele>
        <time>2022-06-18T08:35:47.000Z</time>
      </trkpt>
      <trkpt lat="45.89364" lon="4.68712">
        <ele>279.46186</ele>
        <time>2022-06-18T08:35:48.000Z</time>
      </trkpt>
      <trkpt lat="45.89367" lon="4.68712">
        <ele>279.72466</ele>
        <time>2022-06-18T08:35:49.000Z</time>
      </trkpt>
      <trkpt lat="45.8937" lon="4.68712">
        <ele>280.10793</ele>
        <time>2022-06-18T08:35:50.000Z</time>
      </trkpt>
      <trkpt lat="45.89372" lon="4.68711">
        <ele>280.49123</ele>
        <time>2022-06-18T08:35:51.000Z</time>
      </trkpt>
      <trkpt lat="45.89374" lon="4.6871">
        <ele>280.88229</ele>
        <time>2022-06-18T08:35:52.000Z</time>
      </trkpt>
      <trkpt lat="45.89377" lon="4.6871">
        <ele>281.23412</ele>
        <time>2022-06-18T08:35:53.000Z</time>
      </trkpt>
      <trkpt lat="45.89379" lon="4.68709">
        <ele>281.53532</ele>
        <time>2022-06-18T08:35:54.000Z</time>
      </trkpt>
      <trkpt lat="45.89381" lon="4.68709">
        <ele>281.833</ele>
        <time>2022-06-18T08:35:55.000Z</time>
      </trkpt>
      <trkpt lat="45.89383" lon="4.68708">
        <ele>282.3096</ele>
        <time>2022-06-18T08:35:56.000Z</time>
      </trkpt>
      <trkpt lat="45.89384" lon="4.68707">
        <ele>282.80022</ele>
        <time>2022-06-18T08:35:57.000Z</time>
      </trkpt>
      <trkpt lat="45.89387" lon="4.68706">
        <ele>283.25661</ele>
        <time>2022-06-18T08:35:58.000Z</time>
      </trkpt>
      <trkpt lat="45.8939" lon="4.68705">
        <ele>283.7314</ele>
        <time>2022-06-18T08:35:59.000Z</time>
      </trkpt>
      <trkpt lat="45.89392" lon="4.68705">
        <ele>284.12199</ele>
        <time>2022-06-18T08:36:00.000Z</time>
      </trkpt>
      <trkpt lat="45.89395" lon="4.68705">
        <ele>284.43071</ele>
        <time>2022-06-18T08:36:01.000Z</time>
      </trkpt>
      <trkpt lat="45.89397" lon="4.68704">
        <ele>284.86864</ele>
        <time>2022-06-18T08:36:02.000Z</time>
      </trkpt>
      <trkpt lat="45.894" lon="4.68703">
        <ele>285.32631</ele>
        <time>2022-06-18T08:36:03.000Z</time>
      </trkpt>
      <trkpt lat="45.89403" lon="4.68703">
        <ele>285.75489</ele>
        <time>2022-06-18T08:36:04.000Z</time>
      </trkpt>
      <trkpt lat="45.89405" lon="4.68702">
        <ele>286.09068</ele>
        <time>2022-06-18T08:36:05.000Z</time>
      </trkpt>
      <trkpt lat="45.89407" lon="4.68701">
        <ele>286.43209</ele>
        <time>2022-06-18T08:36:06.000Z</time>
      </trkpt>
      <trkpt lat="45.89409" lon="4.68701">
        <ele>286.80663</ele>
        <time>2022-06-18T08:36:07.000Z</time>
      </trkpt>
      <trkpt lat="45.8941" lon="4.687">
        <ele>287.16861</ele>
        <time>2022-06-18T08:36:08.000Z</time>
      </trkpt>
      <trkpt lat="45.89413" lon="4.68699">
        <ele>287.52806</ele>
        <time>2022-06-18T08:36:10.000Z</time>
      </trkpt>
      <trkpt lat="45.89416" lon="4.68697">
        <ele>288.11546</ele>
        <time>2022-06-18T08:36:12.000Z</time>
      </trkpt>
      <trkpt lat="45.89419" lon="4.68696">
        <ele>288.40625</ele>
        <time>2022-06-18T08:36:13.000Z</time>
      </trkpt>
      <trkpt lat="45.89421" lon="4.68696">
        <ele>288.59114</ele>
        <time>2022-06-18T08:36:14.000Z</time>
      </trkpt>
      <trkpt lat="45.89424" lon="4.68695">
        <ele>288.72227</ele>
        <time>2022-06-18T08:36:15.000Z</time>
      </trkpt>
      <trkpt lat="45.89426" lon="4.68695">
        <ele>288.77752</ele>
        <time>2022-06-18T08:36:16.000Z</time>
      </trkpt>
      <trkpt lat="45.89428" lon="4.68695">
        <ele>288.78886</ele>
        <time>2022-06-18T08:36:17.000Z</time>
      </trkpt>
      <trkpt lat="45.8943" lon="4.68695">
        <ele>288.80569</ele>
        <time>2022-06-18T08:36:19.000Z</time>
      </trkpt>
      <trkpt lat="45.89432" lon="4.68696">
        <ele>288.71911</ele>
        <time>2022-06-18T08:36:32.000Z</time>
      </trkpt>
      <trkpt lat="45.89434" lon="4.68695">
        <ele>288.73577</ele>
        <time>2022-06-18T08:36:34.000Z</time>
      </trkpt>
      <trkpt lat="45.89438" lon="4.68695">
        <ele>288.62583</ele>
        <time>2022-06-18T08:36:36.000Z</time>
      </trkpt>
      <trkpt lat="45.8944" lon="4.68695">
        <ele>288.56616</ele>
        <time>2022-06-18T08:36:37.000Z</time>
      </trkpt>
      <trkpt lat="45.89443" lon="4.68695">
        <ele>288.48807</ele>
        <time>2022-06-18T08:36:38.000Z</time>
      </trkpt>
      <trkpt lat="45.89446" lon="4.68695">
        <ele>288.40763</ele>
        <time>2022-06-18T08:36:39.000Z</time>
      </trkpt>
      <trkpt lat="45.89449" lon="4.68696">
        <ele>288.27731</ele>
        <time>2022-06-18T08:36:40.000Z</time>
      </trkpt>
      <trkpt lat="45.89452" lon="4.68699">
        <ele>287.99571</ele>
        <time>2022-06-18T08:36:41.000Z</time>
      </trkpt>
      <trkpt lat="45.89454" lon="4.68704">
        <ele>287.6625</ele>
        <time>2022-06-18T08:36:42.000Z</time>
      </trkpt>
      <trkpt lat="45.89454" lon="4.68711">
        <ele>287.30891</ele>
        <time>2022-06-18T08:36:43.000Z</time>
      </trkpt>
      <trkpt lat="45.89453" lon="4.68721">
        <ele>286.62817</ele>
        <time>2022-06-18T08:36:44.000Z</time>
      </trkpt>
      <trkpt lat="45.89454" lon="4.68729">
        <ele>285.90813</ele>
        <time>2022-06-18T08:36:45.000Z</time>
      </trkpt>
      <trkpt lat="45.89454" lon="4.68738">
        <ele>284.85342</ele>
        <time>2022-06-18T08:36:46.000Z</time>
      </trkpt>
      <trkpt lat="45.89454" lon="4.68747">
        <ele>283.5907</ele>
        <time>2022-06-18T08:36:47.000Z</time>
      </trkpt>
      <trkpt lat="45.89455" lon="4.68755">
        <ele>282.32964</ele>
        <time>2022-06-18T08:36:48.000Z</time>
      </trkpt>
      <trkpt lat="45.89456" lon="4.68764">
        <ele>280.99837</ele>
        <time>2022-06-18T08:36:49.000Z</time>
      </trkpt>
      <trkpt lat="45.89458" lon="4.68773">
        <ele>279.77461</ele>
        <time>2022-06-18T08:36:50.000Z</time>
      </trkpt>
      <trkpt lat="45.8946" lon="4.68781">
        <ele>278.50155</ele>
        <time>2022-06-18T08:36:51.000Z</time>
      </trkpt>
      <trkpt lat="45.89464" lon="4.68792">
        <ele>277.6089</ele>
        <time>2022-06-18T08:36:52.000Z</time>
      </trkpt>
      <trkpt lat="45.89468" lon="4.688">
        <ele>276.94699</ele>
        <time>2022-06-18T08:36:53.000Z</time>
      </trkpt>
      <trkpt lat="45.89473" lon="4.68808">
        <ele>276.73107</ele>
        <time>2022-06-18T08:36:54.000Z</time>
      </trkpt>
      <trkpt lat="45.89476" lon="4.68814">
        <ele>276.50227</ele>
        <time>2022-06-18T08:36:55.000Z</time>
      </trkpt>
      <trkpt lat="45.89478" lon="4.68819">
        <ele>276.34543</ele>
        <time>2022-06-18T08:36:56.000Z</time>
      </trkpt>
      <trkpt lat="45.89481" lon="4.68821">
        <ele>276.74087</ele>
        <time>2022-06-18T08:36:57.000Z</time>
      </trkpt>
      <trkpt lat="45.89484" lon="4.68821">
        <ele>277.17692</ele>
        <time>2022-06-18T08:36:58.000Z</time>
      </trkpt>
      <trkpt lat="45.89486" lon="4.68821">
        <ele>277.5851</ele>
        <time>2022-06-18T08:36:59.000Z</time>
      </trkpt>
      <trkpt lat="45.89489" lon="4.68824">
        <ele>277.64449</ele>
        <time>2022-06-18T08:37:01.000Z</time>
      </trkpt>
      <trkpt lat="45.89492" lon="4.68826">
        <ele>277.94015</ele>
        <time>2022-06-18T08:37:02.000Z</time>
      </trkpt>
      <trkpt lat="45.89495" lon="4.68828">
        <ele>278.17128</ele>
        <time>2022-06-18T08:37:03.000Z</time>
      </trkpt>
      <trkpt lat="45.89497" lon="4.68828">
        <ele>278.5366</ele>
        <time>2022-06-18T08:37:04.000Z</time>
      </trkpt>
      <trkpt lat="45.89499" lon="4.6883">
        <ele>278.58043</ele>
        <time>2022-06-18T08:37:05.000Z</time>
      </trkpt>
      <trkpt lat="45.89502" lon="4.6883">
        <ele>278.91084</ele>
        <time>2022-06-18T08:37:06.000Z</time>
      </trkpt>
      <trkpt lat="45.89505" lon="4.6883">
        <ele>279.157</ele>
        <time>2022-06-18T08:37:07.000Z</time>
      </trkpt>
      <trkpt lat="45.89508" lon="4.68832">
        <ele>279.3063</ele>
        <time>2022-06-18T08:37:08.000Z</time>
      </trkpt>
      <trkpt lat="45.89511" lon="4.68834">
        <ele>279.38223</ele>
        <time>2022-06-18T08:37:09.000Z</time>
      </trkpt>
      <trkpt lat="45.89514" lon="4.68837">
        <ele>279.36979</ele>
        <time>2022-06-18T08:37:10.000Z</time>
      </trkpt>
      <trkpt lat="45.89517" lon="4.6884">
        <ele>279.31209</ele>
        <time>2022-06-18T08:37:11.000Z</time>
      </trkpt>
      <trkpt lat="45.89521" lon="4.68842">
        <ele>279.27985</ele>
        <time>2022-06-18T08:37:12.000Z</time>
      </trkpt>
      <trkpt lat="45.89524" lon="4.68844">
        <ele>279.28436</ele>
        <time>2022-06-18T08:37:13.000Z</time>
      </trkpt>
      <trkpt lat="45.89528" lon="4.68843">
        <ele>279.34456</ele>
        <time>2022-06-18T08:37:14.000Z</time>
      </trkpt>
      <trkpt lat="45.8953" lon="4.68842">
        <ele>279.40286</ele>
        <time>2022-06-18T08:37:15.000Z</time>
      </trkpt>
      <trkpt lat="45.89532" lon="4.68841">
        <ele>279.46261</ele>
        <time>2022-06-18T08:37:16.000Z</time>
      </trkpt>
      <trkpt lat="45.89534" lon="4.6884">
        <ele>279.5129</ele>
        <time>2022-06-18T08:37:17.000Z</time>
      </trkpt>
      <trkpt lat="45.89536" lon="4.68839">
        <ele>279.5468</ele>
        <time>2022-06-18T08:37:18.000Z</time>
      </trkpt>
      <trkpt lat="45.89538" lon="4.68837">
        <ele>279.5746</ele>
        <time>2022-06-18T08:37:19.000Z</time>
      </trkpt>
      <trkpt lat="45.8954" lon="4.68835">
        <ele>279.57061</ele>
        <time>2022-06-18T08:37:20.000Z</time>
      </trkpt>
      <trkpt lat="45.89543" lon="4.68834">
        <ele>279.53617</ele>
        <time>2022-06-18T08:37:21.000Z</time>
      </trkpt>
      <trkpt lat="45.89545" lon="4.68832">
        <ele>279.45643</ele>
        <time>2022-06-18T08:37:22.000Z</time>
      </trkpt>
      <trkpt lat="45.89548" lon="4.6883">
        <ele>279.36901</ele>
        <time>2022-06-18T08:37:23.000Z</time>
      </trkpt>
      <trkpt lat="45.89551" lon="4.68829">
        <ele>279.24707</ele>
        <time>2022-06-18T08:37:24.000Z</time>
      </trkpt>
      <trkpt lat="45.89554" lon="4.68827">
        <ele>279.08371</ele>
        <time>2022-06-18T08:37:25.000Z</time>
      </trkpt>
      <trkpt lat="45.89557" lon="4.68825">
        <ele>278.91111</ele>
        <time>2022-06-18T08:37:26.000Z</time>
      </trkpt>
      <trkpt lat="45.89561" lon="4.68823">
        <ele>278.71018</ele>
        <time>2022-06-18T08:37:27.000Z</time>
      </trkpt>
      <trkpt lat="45.89565" lon="4.68822">
        <ele>278.45083</ele>
        <time>2022-06-18T08:37:28.000Z</time>
      </trkpt>
      <trkpt lat="45.89568" lon="4.6882">
        <ele>278.22158</ele>
        <time>2022-06-18T08:37:29.000Z</time>
      </trkpt>
      <trkpt lat="45.89571" lon="4.68819">
        <ele>277.95796</ele>
        <time>2022-06-18T08:37:30.000Z</time>
      </trkpt>
      <trkpt lat="45.89575" lon="4.68817">
        <ele>277.62814</ele>
        <time>2022-06-18T08:37:31.000Z</time>
      </trkpt>
      <trkpt lat="45.89579" lon="4.68816">
        <ele>277.26381</ele>
        <time>2022-06-18T08:37:32.000Z</time>
      </trkpt>
      <trkpt lat="45.89582" lon="4.68814">
        <ele>276.83793</ele>
        <time>2022-06-18T08:37:33.000Z</time>
      </trkpt>
      <trkpt lat="45.89586" lon="4.68813">
        <ele>276.35818</ele>
        <time>2022-06-18T08:37:34.000Z</time>
      </trkpt>
      <trkpt lat="45.89589" lon="4.68812">
        <ele>275.84944</ele>
        <time>2022-06-18T08:37:35.000Z</time>
      </trkpt>
      <trkpt lat="45.89592" lon="4.68811">
        <ele>275.3765</ele>
        <time>2022-06-18T08:37:36.000Z</time>
      </trkpt>
      <trkpt lat="45.89594" lon="4.68808">
        <ele>274.92167</ele>
        <time>2022-06-18T08:37:37.000Z</time>
      </trkpt>
      <trkpt lat="45.89595" lon="4.68805">
        <ele>274.48977</ele>
        <time>2022-06-18T08:37:38.000Z</time>
      </trkpt>
      <trkpt lat="45.89597" lon="4.688">
        <ele>274.09717</ele>
        <time>2022-06-18T08:37:39.000Z</time>
      </trkpt>
      <trkpt lat="45.89597" lon="4.68795">
        <ele>273.77115</ele>
        <time>2022-06-18T08:37:40.000Z</time>
      </trkpt>
      <trkpt lat="45.89598" lon="4.6879">
        <ele>273.52175</ele>
        <time>2022-06-18T08:37:41.000Z</time>
      </trkpt>
      <trkpt lat="45.89598" lon="4.68784">
        <ele>273.30245</ele>
        <time>2022-06-18T08:37:42.000Z</time>
      </trkpt>
      <trkpt lat="45.89598" lon="4.68779">
        <ele>273.18427</ele>
        <time>2022-06-18T08:37:43.000Z</time>
      </trkpt>
      <trkpt lat="45.89598" lon="4.68774">
        <ele>273.06238</ele>
        <time>2022-06-18T08:37:44.000Z</time>
      </trkpt>
      <trkpt lat="45.89598" lon="4.68768">
        <ele>272.88415</ele>
        <time>2022-06-18T08:37:45.000Z</time>
      </trkpt>
      <trkpt lat="45.89598" lon="4.68762">
        <ele>272.68273</ele>
        <time>2022-06-18T08:37:46.000Z</time>
      </trkpt>
      <trkpt lat="45.89598" lon="4.68756">
        <ele>272.35247</ele>
        <time>2022-06-18T08:37:47.000Z</time>
      </trkpt>
      <trkpt lat="45.89599" lon="4.6875">
        <ele>272.08576</ele>
        <time>2022-06-18T08:37:48.000Z</time>
      </trkpt>
      <trkpt lat="45.89599" lon="4.68741">
        <ele>271.78047</ele>
        <time>2022-06-18T08:37:49.000Z</time>
      </trkpt>
      <trkpt lat="45.89601" lon="4.68735">
        <ele>271.09404</ele>
        <time>2022-06-18T08:37:50.000Z</time>
      </trkpt>
      <trkpt lat="45.89603" lon="4.68725">
        <ele>270.53397</ele>
        <time>2022-06-18T08:37:51.000Z</time>
      </trkpt>
      <trkpt lat="45.89607" lon="4.68717">
        <ele>269.78917</ele>
        <time>2022-06-18T08:37:52.000Z</time>
      </trkpt>
      <trkpt lat="45.89611" lon="4.68709">
        <ele>269.00275</ele>
        <time>2022-06-18T08:37:53.000Z</time>
      </trkpt>
      <trkpt lat="45.89614" lon="4.68701">
        <ele>268.66279</ele>
        <time>2022-06-18T08:37:54.000Z</time>
      </trkpt>
      <trkpt lat="45.89617" lon="4.68694">
        <ele>268.47286</ele>
        <time>2022-06-18T08:37:55.000Z</time>
      </trkpt>
      <trkpt lat="45.8962" lon="4.68687">
        <ele>268.67171</ele>
        <time>2022-06-18T08:37:56.000Z</time>
      </trkpt>
      <trkpt lat="45.89623" lon="4.68681">
        <ele>268.89841</ele>
        <time>2022-06-18T08:37:57.000Z</time>
      </trkpt>
      <trkpt lat="45.89624" lon="4.68675">
        <ele>269.25482</ele>
        <time>2022-06-18T08:37:58.000Z</time>
      </trkpt>
      <trkpt lat="45.89626" lon="4.6867">
        <ele>269.46059</ele>
        <time>2022-06-18T08:37:59.000Z</time>
      </trkpt>
      <trkpt lat="45.8963" lon="4.68667">
        <ele>269.42762</ele>
        <time>2022-06-18T08:38:00.000Z</time>
      </trkpt>
      <trkpt lat="45.89632" lon="4.68663">
        <ele>269.45976</ele>
        <time>2022-06-18T08:38:01.000Z</time>
      </trkpt>
      <trkpt lat="45.89636" lon="4.68659">
        <ele>269.36485</ele>
        <time>2022-06-18T08:38:02.000Z</time>
      </trkpt>
      <trkpt lat="45.8964" lon="4.68657">
        <ele>269.25692</ele>
        <time>2022-06-18T08:38:03.000Z</time>
      </trkpt>
      <trkpt lat="45.89643" lon="4.68656">
        <ele>269.11761</ele>
        <time>2022-06-18T08:38:04.000Z</time>
      </trkpt>
      <trkpt lat="45.89646" lon="4.68655">
        <ele>269.00603</ele>
        <time>2022-06-18T08:38:05.000Z</time>
      </trkpt>
      <trkpt lat="45.89649" lon="4.68654">
        <ele>268.97424</ele>
        <time>2022-06-18T08:38:06.000Z</time>
      </trkpt>
      <trkpt lat="45.89653" lon="4.68654">
        <ele>268.88864</ele>
        <time>2022-06-18T08:38:07.000Z</time>
      </trkpt>
      <trkpt lat="45.89656" lon="4.68652">
        <ele>268.92013</ele>
        <time>2022-06-18T08:38:08.000Z</time>
      </trkpt>
      <trkpt lat="45.89659" lon="4.68651">
        <ele>268.98013</ele>
        <time>2022-06-18T08:38:09.000Z</time>
      </trkpt>
      <trkpt lat="45.89663" lon="4.68649">
        <ele>269.06404</ele>
        <time>2022-06-18T08:38:10.000Z</time>
      </trkpt>
      <trkpt lat="45.89666" lon="4.68648">
        <ele>269.17935</ele>
        <time>2022-06-18T08:38:11.000Z</time>
      </trkpt>
      <trkpt lat="45.8967" lon="4.68646">
        <ele>269.30326</ele>
        <time>2022-06-18T08:38:12.000Z</time>
      </trkpt>
      <trkpt lat="45.89673" lon="4.68645">
        <ele>269.4407</ele>
        <time>2022-06-18T08:38:13.000Z</time>
      </trkpt>
      <trkpt lat="45.89675" lon="4.68643">
        <ele>269.55051</ele>
        <time>2022-06-18T08:38:14.000Z</time>
      </trkpt>
      <trkpt lat="45.89676" lon="4.68642">
        <ele>269.64826</ele>
        <time>2022-06-18T08:38:15.000Z</time>
      </trkpt>
      <trkpt lat="45.89678" lon="4.6864">
        <ele>269.7553</ele>
        <time>2022-06-18T08:38:45.000Z</time>
      </trkpt>
      <trkpt lat="45.89677" lon="4.68642">
        <ele>269.61629</ele>
        <time>2022-06-18T08:38:54.000Z</time>
      </trkpt>
      <trkpt lat="45.89679" lon="4.68647">
        <ele>269.38167</ele>
        <time>2022-06-18T08:39:50.000Z</time>
      </trkpt>
      <trkpt lat="45.89682" lon="4.68652">
        <ele>269.03474</ele>
        <time>2022-06-18T08:39:51.000Z</time>
      </trkpt>
      <trkpt lat="45.89685" lon="4.68656">
        <ele>268.84654</ele>
        <time>2022-06-18T08:39:52.000Z</time>
      </trkpt>
      <trkpt lat="45.89689" lon="4.6866">
        <ele>268.76154</ele>
        <time>2022-06-18T08:39:53.000Z</time>
      </trkpt>
      <trkpt lat="45.89693" lon="4.68664">
        <ele>268.80862</ele>
        <time>2022-06-18T08:39:54.000Z</time>
      </trkpt>
      <trkpt lat="45.89697" lon="4.68667">
        <ele>268.99166</ele>
        <time>2022-06-18T08:39:55.000Z</time>
      </trkpt>
      <trkpt lat="45.897" lon="4.68671">
        <ele>269.23617</ele>
        <time>2022-06-18T08:39:56.000Z</time>
      </trkpt>
      <trkpt lat="45.89701" lon="4.68674">
        <ele>269.36466</ele>
        <time>2022-06-18T08:39:57.000Z</time>
      </trkpt>
      <trkpt lat="45.89703" lon="4.68677">
        <ele>269.45881</ele>
        <time>2022-06-18T08:39:58.000Z</time>
      </trkpt>
      <trkpt lat="45.89704" lon="4.68679">
        <ele>269.65583</ele>
        <time>2022-06-18T08:39:59.000Z</time>
      </trkpt>
      <trkpt lat="45.89706" lon="4.68681">
        <ele>269.89411</ele>
        <time>2022-06-18T08:40:00.000Z</time>
      </trkpt>
      <trkpt lat="45.89707" lon="4.68683">
        <ele>270.17742</ele>
        <time>2022-06-18T08:40:01.000Z</time>
      </trkpt>
      <trkpt lat="45.8971" lon="4.68683">
        <ele>270.6024</ele>
        <time>2022-06-18T08:40:04.000Z</time>
      </trkpt>
      <trkpt lat="45.89712" lon="4.68684">
        <ele>271.10677</ele>
        <time>2022-06-18T08:40:05.000Z</time>
      </trkpt>
      <trkpt lat="45.89714" lon="4.68686">
        <ele>271.61155</ele>
        <time>2022-06-18T08:40:06.000Z</time>
      </trkpt>
      <trkpt lat="45.89717" lon="4.68688">
        <ele>272.11928</ele>
        <time>2022-06-18T08:40:07.000Z</time>
      </trkpt>
      <trkpt lat="45.89719" lon="4.68691">
        <ele>272.56371</ele>
        <time>2022-06-18T08:40:08.000Z</time>
      </trkpt>
      <trkpt lat="45.89722" lon="4.68691">
        <ele>273.2928</ele>
        <time>2022-06-18T08:40:10.000Z</time>
      </trkpt>
      <trkpt lat="45.89723" lon="4.68693">
        <ele>273.58863</ele>
        <time>2022-06-18T08:40:13.000Z</time>
      </trkpt>
      <trkpt lat="45.89724" lon="4.68696">
        <ele>273.85797</ele>
        <time>2022-06-18T08:40:16.000Z</time>
      </trkpt>
      <trkpt lat="45.89724" lon="4.68699">
        <ele>273.86052</ele>
        <time>2022-06-18T08:40:18.000Z</time>
      </trkpt>
      <trkpt lat="45.89723" lon="4.68703">
        <ele>273.49364</ele>
        <time>2022-06-18T08:40:20.000Z</time>
      </trkpt>
      <trkpt lat="45.89725" lon="4.68704">
        <ele>274.13312</ele>
        <time>2022-06-18T08:40:24.000Z</time>
      </trkpt>
      <trkpt lat="45.89728" lon="4.68703">
        <ele>274.8456</ele>
        <time>2022-06-18T08:40:25.000Z</time>
      </trkpt>
      <trkpt lat="45.8973" lon="4.68702">
        <ele>275.55811</ele>
        <time>2022-06-18T08:40:26.000Z</time>
      </trkpt>
      <trkpt lat="45.89732" lon="4.68701">
        <ele>276.20787</ele>
        <time>2022-06-18T08:40:27.000Z</time>
      </trkpt>
      <trkpt lat="45.89735" lon="4.68701">
        <ele>276.96045</ele>
        <time>2022-06-18T08:40:28.000Z</time>
      </trkpt>
      <trkpt lat="45.89739" lon="4.68701">
        <ele>277.90956</ele>
        <time>2022-06-18T08:40:29.000Z</time>
      </trkpt>
      <trkpt lat="45.89743" lon="4.68701">
        <ele>279.06973</ele>
        <time>2022-06-18T08:40:30.000Z</time>
      </trkpt>
      <trkpt lat="45.89747" lon="4.68702">
        <ele>280.27451</ele>
        <time>2022-06-18T08:40:31.000Z</time>
      </trkpt>
      <trkpt lat="45.89751" lon="4.68703">
        <ele>281.41218</ele>
        <time>2022-06-18T08:40:32.000Z</time>
      </trkpt>
      <trkpt lat="45.89756" lon="4.68704">
        <ele>282.5632</ele>
        <time>2022-06-18T08:40:33.000Z</time>
      </trkpt>
      <trkpt lat="45.8976" lon="4.68705">
        <ele>283.52159</ele>
        <time>2022-06-18T08:40:34.000Z</time>
      </trkpt>
      <trkpt lat="45.89764" lon="4.68706">
        <ele>284.13839</ele>
        <time>2022-06-18T08:40:35.000Z</time>
      </trkpt>
      <trkpt lat="45.89766" lon="4.68706">
        <ele>284.60676</ele>
        <time>2022-06-18T08:40:36.000Z</time>
      </trkpt>
      <trkpt lat="45.89769" lon="4.68706">
        <ele>285.02669</ele>
        <time>2022-06-18T08:40:37.000Z</time>
      </trkpt>
      <trkpt lat="45.89772" lon="4.68707">
        <ele>285.38762</ele>
        <time>2022-06-18T08:40:38.000Z</time>
      </trkpt>
      <trkpt lat="45.89774" lon="4.68707">
        <ele>285.72771</ele>
        <time>2022-06-18T08:40:39.000Z</time>
      </trkpt>
      <trkpt lat="45.89777" lon="4.68708">
        <ele>286.05441</ele>
        <time>2022-06-18T08:40:40.000Z</time>
      </trkpt>
      <trkpt lat="45.8978" lon="4.68709">
        <ele>286.34063</ele>
        <time>2022-06-18T08:40:41.000Z</time>
      </trkpt>
      <trkpt lat="45.89783" lon="4.6871">
        <ele>286.58271</ele>
        <time>2022-06-18T08:40:42.000Z</time>
      </trkpt>
      <trkpt lat="45.89786" lon="4.68711">
        <ele>286.8007</ele>
        <time>2022-06-18T08:40:43.000Z</time>
      </trkpt>
      <trkpt lat="45.89788" lon="4.68712">
        <ele>286.97016</ele>
        <time>2022-06-18T08:40:44.000Z</time>
      </trkpt>
      <trkpt lat="45.89792" lon="4.68713">
        <ele>287.10097</ele>
        <time>2022-06-18T08:40:45.000Z</time>
      </trkpt>
      <trkpt lat="45.89795" lon="4.68715">
        <ele>287.19996</ele>
        <time>2022-06-18T08:40:46.000Z</time>
      </trkpt>
      <trkpt lat="45.89799" lon="4.68718">
        <ele>287.23395</ele>
        <time>2022-06-18T08:40:47.000Z</time>
      </trkpt>
      <trkpt lat="45.89802" lon="4.68722">
        <ele>287.21654</ele>
        <time>2022-06-18T08:40:48.000Z</time>
      </trkpt>
      <trkpt lat="45.89805" lon="4.68726">
        <ele>287.18999</ele>
        <time>2022-06-18T08:40:49.000Z</time>
      </trkpt>
      <trkpt lat="45.89809" lon="4.6873">
        <ele>287.15414</ele>
        <time>2022-06-18T08:40:50.000Z</time>
      </trkpt>
      <trkpt lat="45.89812" lon="4.68734">
        <ele>287.07942</ele>
        <time>2022-06-18T08:40:51.000Z</time>
      </trkpt>
      <trkpt lat="45.89815" lon="4.68738">
        <ele>286.99974</ele>
        <time>2022-06-18T08:40:52.000Z</time>
      </trkpt>
      <trkpt lat="45.89821" lon="4.68747">
        <ele>286.75776</ele>
        <time>2022-06-18T08:40:53.000Z</time>
      </trkpt>
      <trkpt lat="45.89826" lon="4.68749">
        <ele>286.72819</ele>
        <time>2022-06-18T08:40:54.000Z</time>
      </trkpt>
      <trkpt lat="45.89829" lon="4.68751">
        <ele>286.67687</ele>
        <time>2022-06-18T08:40:55.000Z</time>
      </trkpt>
      <trkpt lat="45.89834" lon="4.68755">
        <ele>286.56107</ele>
        <time>2022-06-18T08:40:56.000Z</time>
      </trkpt>
      <trkpt lat="45.89839" lon="4.68757">
        <ele>286.52062</ele>
        <time>2022-06-18T08:40:57.000Z</time>
      </trkpt>
      <trkpt lat="45.89845" lon="4.68758">
        <ele>286.53475</ele>
        <time>2022-06-18T08:40:58.000Z</time>
      </trkpt>
      <trkpt lat="45.89849" lon="4.68761">
        <ele>286.50232</ele>
        <time>2022-06-18T08:40:59.000Z</time>
      </trkpt>
      <trkpt lat="45.89852" lon="4.68764">
        <ele>286.45209</ele>
        <time>2022-06-18T08:41:00.000Z</time>
      </trkpt>
      <trkpt lat="45.89858" lon="4.68767">
        <ele>286.49617</ele>
        <time>2022-06-18T08:41:01.000Z</time>
      </trkpt>
      <trkpt lat="45.89861" lon="4.68772">
        <ele>286.35905</ele>
        <time>2022-06-18T08:41:02.000Z</time>
      </trkpt>
      <trkpt lat="45.89866" lon="4.68781">
        <ele>286.12078</ele>
        <time>2022-06-18T08:41:03.000Z</time>
      </trkpt>
      <trkpt lat="45.89875" lon="4.68782">
        <ele>286.35057</ele>
        <time>2022-06-18T08:41:04.000Z</time>
      </trkpt>
      <trkpt lat="45.89877" lon="4.68784">
        <ele>286.36871</ele>
        <time>2022-06-18T08:41:05.000Z</time>
      </trkpt>
      <trkpt lat="45.89884" lon="4.6879">
        <ele>286.30262</ele>
        <time>2022-06-18T08:41:06.000Z</time>
      </trkpt>
      <trkpt lat="45.89887" lon="4.68796">
        <ele>286.09727</ele>
        <time>2022-06-18T08:41:07.000Z</time>
      </trkpt>
      <trkpt lat="45.89891" lon="4.68802">
        <ele>285.91574</ele>
        <time>2022-06-18T08:41:08.000Z</time>
      </trkpt>
      <trkpt lat="45.89896" lon="4.68809">
        <ele>285.70573</ele>
        <time>2022-06-18T08:41:09.000Z</time>
      </trkpt>
      <trkpt lat="45.89902" lon="4.68814">
        <ele>285.61555</ele>
        <time>2022-06-18T08:41:10.000Z</time>
      </trkpt>
      <trkpt lat="45.89908" lon="4.68822">
        <ele>285.39355</ele>
        <time>2022-06-18T08:41:11.000Z</time>
      </trkpt>
      <trkpt lat="45.89913" lon="4.6883">
        <ele>285.39</ele>
        <time>2022-06-18T08:41:12.000Z</time>
      </trkpt>
      <trkpt lat="45.89917" lon="4.68839">
        <ele>285.43393</ele>
        <time>2022-06-18T08:41:13.000Z</time>
      </trkpt>
      <trkpt lat="45.89922" lon="4.68849">
        <ele>285.63347</ele>
        <time>2022-06-18T08:41:14.000Z</time>
      </trkpt>
      <trkpt lat="45.89927" lon="4.68853">
        <ele>285.96866</ele>
        <time>2022-06-18T08:41:15.000Z</time>
      </trkpt>
      <trkpt lat="45.89933" lon="4.68858">
        <ele>286.3554</ele>
        <time>2022-06-18T08:41:16.000Z</time>
      </trkpt>
      <trkpt lat="45.89938" lon="4.68863">
        <ele>286.67828</ele>
        <time>2022-06-18T08:41:17.000Z</time>
      </trkpt>
      <trkpt lat="45.89944" lon="4.68866">
        <ele>286.92789</ele>
        <time>2022-06-18T08:41:18.000Z</time>
      </trkpt>
      <trkpt lat="45.89945" lon="4.68869">
        <ele>286.82742</ele>
        <time>2022-06-18T08:41:19.000Z</time>
      </trkpt>
      <trkpt lat="45.89948" lon="4.68873">
        <ele>286.80918</ele>
        <time>2022-06-18T08:41:20.000Z</time>
      </trkpt>
      <trkpt lat="45.89952" lon="4.68876">
        <ele>286.84888</ele>
        <time>2022-06-18T08:41:21.000Z</time>
      </trkpt>
      <trkpt lat="45.89954" lon="4.68883">
        <ele>286.63669</ele>
        <time>2022-06-18T08:41:22.000Z</time>
      </trkpt>
      <trkpt lat="45.89957" lon="4.68891">
        <ele>286.47973</ele>
        <time>2022-06-18T08:41:23.000Z</time>
      </trkpt>
      <trkpt lat="45.89961" lon="4.68897">
        <ele>286.41233</ele>
        <time>2022-06-18T08:41:24.000Z</time>
      </trkpt>
      <trkpt lat="45.89964" lon="4.68899">
        <ele>286.41859</ele>
        <time>2022-06-18T08:41:25.000Z</time>
      </trkpt>
      <trkpt lat="45.89968" lon="4.689">
        <ele>286.54241</ele>
        <time>2022-06-18T08:41:26.000Z</time>
      </trkpt>
      <trkpt lat="45.89972" lon="4.68899">
        <ele>286.70869</ele>
        <time>2022-06-18T08:41:27.000Z</time>
      </trkpt>
      <trkpt lat="45.89974" lon="4.68899">
        <ele>286.77778</ele>
        <time>2022-06-18T08:41:28.000Z</time>
      </trkpt>
      <trkpt lat="45.89978" lon="4.68891">
        <ele>287.23729</ele>
        <time>2022-06-18T08:41:29.000Z</time>
      </trkpt>
      <trkpt lat="45.89982" lon="4.68888">
        <ele>287.52575</ele>
        <time>2022-06-18T08:41:30.000Z</time>
      </trkpt>
      <trkpt lat="45.89986" lon="4.68884">
        <ele>287.88421</ele>
        <time>2022-06-18T08:41:31.000Z</time>
      </trkpt>
      <trkpt lat="45.89989" lon="4.68881">
        <ele>288.13398</ele>
        <time>2022-06-18T08:41:32.000Z</time>
      </trkpt>
      <trkpt lat="45.89993" lon="4.68876">
        <ele>288.46301</ele>
        <time>2022-06-18T08:41:33.000Z</time>
      </trkpt>
      <trkpt lat="45.89996" lon="4.68876">
        <ele>288.52252</ele>
        <time>2022-06-18T08:41:34.000Z</time>
      </trkpt>
      <trkpt lat="45.89999" lon="4.68872">
        <ele>288.78481</ele>
        <time>2022-06-18T08:41:35.000Z</time>
      </trkpt>
      <trkpt lat="45.90003" lon="4.68869">
        <ele>288.97578</ele>
        <time>2022-06-18T08:41:36.000Z</time>
      </trkpt>
      <trkpt lat="45.90006" lon="4.68866">
        <ele>289.16585</ele>
        <time>2022-06-18T08:41:37.000Z</time>
      </trkpt>
      <trkpt lat="45.90009" lon="4.68863">
        <ele>289.37265</ele>
        <time>2022-06-18T08:41:38.000Z</time>
      </trkpt>
      <trkpt lat="45.90011" lon="4.6886">
        <ele>289.5542</ele>
        <time>2022-06-18T08:41:39.000Z</time>
      </trkpt>
      <trkpt lat="45.90013" lon="4.68856">
        <ele>289.75201</ele>
        <time>2022-06-18T08:41:40.000Z</time>
      </trkpt>
      <trkpt lat="45.90016" lon="4.68854">
        <ele>289.92024</ele>
        <time>2022-06-18T08:41:41.000Z</time>
      </trkpt>
      <trkpt lat="45.90017" lon="4.68853">
        <ele>290.03277</ele>
        <time>2022-06-18T08:41:42.000Z</time>
      </trkpt>
      <trkpt lat="45.90018" lon="4.68851">
        <ele>290.16261</ele>
        <time>2022-06-18T08:41:43.000Z</time>
      </trkpt>
      <trkpt lat="45.9002" lon="4.68847">
        <ele>290.39898</ele>
        <time>2022-06-18T08:41:44.000Z</time>
      </trkpt>
      <trkpt lat="45.90021" lon="4.68843">
        <ele>290.65504</ele>
        <time>2022-06-18T08:41:45.000Z</time>
      </trkpt>
      <trkpt lat="45.90022" lon="4.68838">
        <ele>290.93867</ele>
        <time>2022-06-18T08:41:46.000Z</time>
      </trkpt>
      <trkpt lat="45.90022" lon="4.68833">
        <ele>291.26954</ele>
        <time>2022-06-18T08:41:47.000Z</time>
      </trkpt>
      <trkpt lat="45.90023" lon="4.68827">
        <ele>291.58851</ele>
        <time>2022-06-18T08:41:48.000Z</time>
      </trkpt>
      <trkpt lat="45.90024" lon="4.68821">
        <ele>291.93874</ele>
        <time>2022-06-18T08:41:49.000Z</time>
      </trkpt>
      <trkpt lat="45.90026" lon="4.68815">
        <ele>292.3127</ele>
        <time>2022-06-18T08:41:50.000Z</time>
      </trkpt>
      <trkpt lat="45.90028" lon="4.6881">
        <ele>292.64328</ele>
        <time>2022-06-18T08:41:51.000Z</time>
      </trkpt>
      <trkpt lat="45.9003" lon="4.68804">
        <ele>292.94875</ele>
        <time>2022-06-18T08:41:52.000Z</time>
      </trkpt>
      <trkpt lat="45.90032" lon="4.68799">
        <ele>293.27827</ele>
        <time>2022-06-18T08:41:53.000Z</time>
      </trkpt>
      <trkpt lat="45.90034" lon="4.68794">
        <ele>293.57633</ele>
        <time>2022-06-18T08:41:54.000Z</time>
      </trkpt>
      <trkpt lat="45.90035" lon="4.6879">
        <ele>293.84847</ele>
        <time>2022-06-18T08:41:55.000Z</time>
      </trkpt>
      <trkpt lat="45.90037" lon="4.68787">
        <ele>294.07796</ele>
        <time>2022-06-18T08:41:56.000Z</time>
      </trkpt>
      <trkpt lat="45.90038" lon="4.68786">
        <ele>294.26544</ele>
        <time>2022-06-18T08:41:57.000Z</time>
      </trkpt>
      <trkpt lat="45.9004" lon="4.68783">
        <ele>294.50535</ele>
        <time>2022-06-18T08:41:58.000Z</time>
      </trkpt>
      <trkpt lat="45.90043" lon="4.68782">
        <ele>294.72903</ele>
        <time>2022-06-18T08:41:59.000Z</time>
      </trkpt>
      <trkpt lat="45.90045" lon="4.6878">
        <ele>294.98354</ele>
        <time>2022-06-18T08:42:00.000Z</time>
      </trkpt>
      <trkpt lat="45.90049" lon="4.68779">
        <ele>295.22579</ele>
        <time>2022-06-18T08:42:01.000Z</time>
      </trkpt>
      <trkpt lat="45.90052" lon="4.68778">
        <ele>295.43863</ele>
        <time>2022-06-18T08:42:02.000Z</time>
      </trkpt>
      <trkpt lat="45.90055" lon="4.68776">
        <ele>295.61553</ele>
        <time>2022-06-18T08:42:03.000Z</time>
      </trkpt>
      <trkpt lat="45.90058" lon="4.68776">
        <ele>295.73217</ele>
        <time>2022-06-18T08:42:04.000Z</time>
      </trkpt>
      <trkpt lat="45.90062" lon="4.68775">
        <ele>295.8198</ele>
        <time>2022-06-18T08:42:05.000Z</time>
      </trkpt>
      <trkpt lat="45.90066" lon="4.68776">
        <ele>295.85596</ele>
        <time>2022-06-18T08:42:06.000Z</time>
      </trkpt>
      <trkpt lat="45.90069" lon="4.68776">
        <ele>295.85105</ele>
        <time>2022-06-18T08:42:07.000Z</time>
      </trkpt>
      <trkpt lat="45.90073" lon="4.68777">
        <ele>295.83887</ele>
        <time>2022-06-18T08:42:08.000Z</time>
      </trkpt>
      <trkpt lat="45.90076" lon="4.68777">
        <ele>295.82091</ele>
        <time>2022-06-18T08:42:09.000Z</time>
      </trkpt>
      <trkpt lat="45.90079" lon="4.68777">
        <ele>295.78899</ele>
        <time>2022-06-18T08:42:10.000Z</time>
      </trkpt>
      <trkpt lat="45.90083" lon="4.68778">
        <ele>295.74318</ele>
        <time>2022-06-18T08:42:11.000Z</time>
      </trkpt>
      <trkpt lat="45.90086" lon="4.68777">
        <ele>295.7389</ele>
        <time>2022-06-18T08:42:12.000Z</time>
      </trkpt>
      <trkpt lat="45.9009" lon="4.68776">
        <ele>295.76435</ele>
        <time>2022-06-18T08:42:13.000Z</time>
      </trkpt>
      <trkpt lat="45.90093" lon="4.68774">
        <ele>295.7874</ele>
        <time>2022-06-18T08:42:14.000Z</time>
      </trkpt>
      <trkpt lat="45.90097" lon="4.68773">
        <ele>295.84474</ele>
        <time>2022-06-18T08:42:15.000Z</time>
      </trkpt>
      <trkpt lat="45.901" lon="4.68771">
        <ele>295.89832</ele>
        <time>2022-06-18T08:42:16.000Z</time>
      </trkpt>
      <trkpt lat="45.90104" lon="4.6877">
        <ele>295.92234</ele>
        <time>2022-06-18T08:42:17.000Z</time>
      </trkpt>
      <trkpt lat="45.90107" lon="4.6877">
        <ele>295.93547</ele>
        <time>2022-06-18T08:42:18.000Z</time>
      </trkpt>
      <trkpt lat="45.90111" lon="4.68769">
        <ele>295.9665</ele>
        <time>2022-06-18T08:42:19.000Z</time>
      </trkpt>
      <trkpt lat="45.90114" lon="4.68767">
        <ele>296.03642</ele>
        <time>2022-06-18T08:42:20.000Z</time>
      </trkpt>
      <trkpt lat="45.90118" lon="4.68765">
        <ele>296.14745</ele>
        <time>2022-06-18T08:42:21.000Z</time>
      </trkpt>
      <trkpt lat="45.90121" lon="4.68763">
        <ele>296.25932</ele>
        <time>2022-06-18T08:42:22.000Z</time>
      </trkpt>
      <trkpt lat="45.90124" lon="4.68761">
        <ele>296.39361</ele>
        <time>2022-06-18T08:42:23.000Z</time>
      </trkpt>
      <trkpt lat="45.90127" lon="4.68759">
        <ele>296.53858</ele>
        <time>2022-06-18T08:42:24.000Z</time>
      </trkpt>
      <trkpt lat="45.9013" lon="4.68756">
        <ele>296.68009</ele>
        <time>2022-06-18T08:42:25.000Z</time>
      </trkpt>
      <trkpt lat="45.90133" lon="4.68754">
        <ele>296.83057</ele>
        <time>2022-06-18T08:42:26.000Z</time>
      </trkpt>
      <trkpt lat="45.90136" lon="4.6875">
        <ele>297.01566</ele>
        <time>2022-06-18T08:42:27.000Z</time>
      </trkpt>
      <trkpt lat="45.9014" lon="4.68747">
        <ele>297.19844</ele>
        <time>2022-06-18T08:42:28.000Z</time>
      </trkpt>
      <trkpt lat="45.90142" lon="4.68744">
        <ele>297.4101</ele>
        <time>2022-06-18T08:42:29.000Z</time>
      </trkpt>
      <trkpt lat="45.90145" lon="4.6874">
        <ele>297.61982</ele>
        <time>2022-06-18T08:42:30.000Z</time>
      </trkpt>
      <trkpt lat="45.90147" lon="4.68737">
        <ele>297.84496</ele>
        <time>2022-06-18T08:42:31.000Z</time>
      </trkpt>
      <trkpt lat="45.90149" lon="4.68733">
        <ele>298.08809</ele>
        <time>2022-06-18T08:42:32.000Z</time>
      </trkpt>
      <trkpt lat="45.90152" lon="4.68729">
        <ele>298.31735</ele>
        <time>2022-06-18T08:42:33.000Z</time>
      </trkpt>
      <trkpt lat="45.90154" lon="4.68726">
        <ele>298.57453</ele>
        <time>2022-06-18T08:42:34.000Z</time>
      </trkpt>
      <trkpt lat="45.90156" lon="4.68721">
        <ele>298.84905</ele>
        <time>2022-06-18T08:42:35.000Z</time>
      </trkpt>
      <trkpt lat="45.90158" lon="4.68717">
        <ele>299.11851</ele>
        <time>2022-06-18T08:42:36.000Z</time>
      </trkpt>
      <trkpt lat="45.9016" lon="4.68713">
        <ele>299.3953</ele>
        <time>2022-06-18T08:42:37.000Z</time>
      </trkpt>
      <trkpt lat="45.90161" lon="4.68708">
        <ele>299.65596</ele>
        <time>2022-06-18T08:42:38.000Z</time>
      </trkpt>
      <trkpt lat="45.90162" lon="4.68704">
        <ele>299.90487</ele>
        <time>2022-06-18T08:42:39.000Z</time>
      </trkpt>
      <trkpt lat="45.90163" lon="4.68699">
        <ele>300.14898</ele>
        <time>2022-06-18T08:42:40.000Z</time>
      </trkpt>
      <trkpt lat="45.90164" lon="4.68696">
        <ele>300.33786</ele>
        <time>2022-06-18T08:42:41.000Z</time>
      </trkpt>
      <trkpt lat="45.90164" lon="4.68692">
        <ele>300.52245</ele>
        <time>2022-06-18T08:42:42.000Z</time>
      </trkpt>
      <trkpt lat="45.90165" lon="4.68688">
        <ele>300.72448</ele>
        <time>2022-06-18T08:42:43.000Z</time>
      </trkpt>
      <trkpt lat="45.90166" lon="4.68684">
        <ele>300.93062</ele>
        <time>2022-06-18T08:42:44.000Z</time>
      </trkpt>
      <trkpt lat="45.90167" lon="4.6868">
        <ele>301.11929</ele>
        <time>2022-06-18T08:42:45.000Z</time>
      </trkpt>
      <trkpt lat="45.90169" lon="4.68677">
        <ele>301.27228</ele>
        <time>2022-06-18T08:42:46.000Z</time>
      </trkpt>
      <trkpt lat="45.90169" lon="4.68674">
        <ele>301.40562</ele>
        <time>2022-06-18T08:42:47.000Z</time>
      </trkpt>
      <trkpt lat="45.9017" lon="4.68671">
        <ele>301.52657</ele>
        <time>2022-06-18T08:42:48.000Z</time>
      </trkpt>
      <trkpt lat="45.9017" lon="4.68668">
        <ele>301.65639</ele>
        <time>2022-06-18T08:42:49.000Z</time>
      </trkpt>
      <trkpt lat="45.9017" lon="4.68664">
        <ele>301.80034</ele>
        <time>2022-06-18T08:42:50.000Z</time>
      </trkpt>
      <trkpt lat="45.90169" lon="4.68661">
        <ele>301.93752</ele>
        <time>2022-06-18T08:42:51.000Z</time>
      </trkpt>
      <trkpt lat="45.90167" lon="4.68658">
        <ele>302.07843</ele>
        <time>2022-06-18T08:42:52.000Z</time>
      </trkpt>
      <trkpt lat="45.90166" lon="4.68654">
        <ele>302.23584</ele>
        <time>2022-06-18T08:42:53.000Z</time>
      </trkpt>
      <trkpt lat="45.90164" lon="4.6865">
        <ele>302.38624</ele>
        <time>2022-06-18T08:42:54.000Z</time>
      </trkpt>
      <trkpt lat="45.90164" lon="4.68646">
        <ele>302.52757</ele>
        <time>2022-06-18T08:42:55.000Z</time>
      </trkpt>
      <trkpt lat="45.90164" lon="4.68646">
        <ele>302.52757</ele>
        <time>2022-06-18T08:42:55.000Z</time>
      </trkpt>
      <trkpt lat="45.90164" lon="4.68642">
        <ele>302.6807</ele>
        <time>2022-06-18T08:42:56.000Z</time>
      </trkpt>
      <trkpt lat="45.90164" lon="4.68639">
        <ele>302.79855</ele>
        <time>2022-06-18T08:42:57.000Z</time>
      </trkpt>
      <trkpt lat="45.90165" lon="4.68637">
        <ele>302.90598</ele>
        <time>2022-06-18T08:42:58.000Z</time>
      </trkpt>
      <trkpt lat="45.90166" lon="4.68633">
        <ele>303.05281</ele>
        <time>2022-06-18T08:42:59.000Z</time>
      </trkpt>
      <trkpt lat="45.90167" lon="4.68629">
        <ele>303.19421</ele>
        <time>2022-06-18T08:43:00.000Z</time>
      </trkpt>
      <trkpt lat="45.90168" lon="4.68625">
        <ele>303.36148</ele>
        <time>2022-06-18T08:43:01.000Z</time>
      </trkpt>
      <trkpt lat="45.90168" lon="4.68622">
        <ele>303.52459</ele>
        <time>2022-06-18T08:43:02.000Z</time>
      </trkpt>
      <trkpt lat="45.90168" lon="4.68619">
        <ele>303.66402</ele>
        <time>2022-06-18T08:43:03.000Z</time>
      </trkpt>
      <trkpt lat="45.90168" lon="4.68615">
        <ele>303.81876</ele>
        <time>2022-06-18T08:43:04.000Z</time>
      </trkpt>
      <trkpt lat="45.90167" lon="4.68612">
        <ele>303.9804</ele>
        <time>2022-06-18T08:43:05.000Z</time>
      </trkpt>
      <trkpt lat="45.90167" lon="4.68608">
        <ele>304.1404</ele>
        <time>2022-06-18T08:43:06.000Z</time>
      </trkpt>
      <trkpt lat="45.90166" lon="4.68606">
        <ele>304.27502</ele>
        <time>2022-06-18T08:43:07.000Z</time>
      </trkpt>
      <trkpt lat="45.90167" lon="4.68602">
        <ele>304.44333</ele>
        <time>2022-06-18T08:43:08.000Z</time>
      </trkpt>
      <trkpt lat="45.90169" lon="4.68598">
        <ele>304.65444</ele>
        <time>2022-06-18T08:43:10.000Z</time>
      </trkpt>
      <trkpt lat="45.9017" lon="4.68595">
        <ele>304.83739</ele>
        <time>2022-06-18T08:43:12.000Z</time>
      </trkpt>
      <trkpt lat="45.90171" lon="4.68592">
        <ele>304.96594</ele>
        <time>2022-06-18T08:43:13.000Z</time>
      </trkpt>
      <trkpt lat="45.90173" lon="4.68589">
        <ele>305.17557</ele>
        <time>2022-06-18T08:43:14.000Z</time>
      </trkpt>
      <trkpt lat="45.90176" lon="4.68585">
        <ele>305.39672</ele>
        <time>2022-06-18T08:43:15.000Z</time>
      </trkpt>
      <trkpt lat="45.90177" lon="4.68582">
        <ele>305.56932</ele>
        <time>2022-06-18T08:43:16.000Z</time>
      </trkpt>
      <trkpt lat="45.90179" lon="4.6858">
        <ele>305.71298</ele>
        <time>2022-06-18T08:43:17.000Z</time>
      </trkpt>
      <trkpt lat="45.90181" lon="4.68576">
        <ele>306.03673</ele>
        <time>2022-06-18T08:43:19.000Z</time>
      </trkpt>
      <trkpt lat="45.90181" lon="4.68572">
        <ele>306.2735</ele>
        <time>2022-06-18T08:43:20.000Z</time>
      </trkpt>
      <trkpt lat="45.90182" lon="4.68569">
        <ele>306.54458</ele>
        <time>2022-06-18T08:43:21.000Z</time>
      </trkpt>
      <trkpt lat="45.90183" lon="4.68565">
        <ele>306.82952</ele>
        <time>2022-06-18T08:43:22.000Z</time>
      </trkpt>
      <trkpt lat="45.90183" lon="4.68561">
        <ele>307.08115</ele>
        <time>2022-06-18T08:43:23.000Z</time>
      </trkpt>
      <trkpt lat="45.90184" lon="4.68558">
        <ele>307.38377</ele>
        <time>2022-06-18T08:43:24.000Z</time>
      </trkpt>
      <trkpt lat="45.90184" lon="4.68554">
        <ele>307.69716</ele>
        <time>2022-06-18T08:43:25.000Z</time>
      </trkpt>
      <trkpt lat="45.90184" lon="4.68549">
        <ele>308.04648</ele>
        <time>2022-06-18T08:43:26.000Z</time>
      </trkpt>
      <trkpt lat="45.90184" lon="4.68545">
        <ele>308.39518</ele>
        <time>2022-06-18T08:43:27.000Z</time>
      </trkpt>
      <trkpt lat="45.90184" lon="4.68541">
        <ele>308.76375</ele>
        <time>2022-06-18T08:43:28.000Z</time>
      </trkpt>
      <trkpt lat="45.90184" lon="4.68537">
        <ele>309.12555</ele>
        <time>2022-06-18T08:43:29.000Z</time>
      </trkpt>
      <trkpt lat="45.90184" lon="4.68534">
        <ele>309.41297</ele>
        <time>2022-06-18T08:43:30.000Z</time>
      </trkpt>
      <trkpt lat="45.90184" lon="4.68531">
        <ele>309.65031</ele>
        <time>2022-06-18T08:43:31.000Z</time>
      </trkpt>
      <trkpt lat="45.90185" lon="4.68527">
        <ele>309.95433</ele>
        <time>2022-06-18T08:43:33.000Z</time>
      </trkpt>
      <trkpt lat="45.90185" lon="4.68523">
        <ele>310.27809</ele>
        <time>2022-06-18T08:43:34.000Z</time>
      </trkpt>
      <trkpt lat="45.90184" lon="4.68519">
        <ele>310.59007</ele>
        <time>2022-06-18T08:43:35.000Z</time>
      </trkpt>
      <trkpt lat="45.90182" lon="4.68516">
        <ele>310.85358</ele>
        <time>2022-06-18T08:43:36.000Z</time>
      </trkpt>
      <trkpt lat="45.90181" lon="4.68512">
        <ele>311.10755</ele>
        <time>2022-06-18T08:43:37.000Z</time>
      </trkpt>
      <trkpt lat="45.9018" lon="4.68509">
        <ele>311.29904</ele>
        <time>2022-06-18T08:43:38.000Z</time>
      </trkpt>
      <trkpt lat="45.90179" lon="4.68506">
        <ele>311.49358</ele>
        <time>2022-06-18T08:43:39.000Z</time>
      </trkpt>
      <trkpt lat="45.90179" lon="4.68503">
        <ele>311.6961</ele>
        <time>2022-06-18T08:43:40.000Z</time>
      </trkpt>
      <trkpt lat="45.90179" lon="4.68499">
        <ele>312.02742</ele>
        <time>2022-06-18T08:43:42.000Z</time>
      </trkpt>
      <trkpt lat="45.90179" lon="4.68497">
        <ele>312.25002</ele>
        <time>2022-06-18T08:43:43.000Z</time>
      </trkpt>
      <trkpt lat="45.9018" lon="4.68494">
        <ele>312.49365</ele>
        <time>2022-06-18T08:43:44.000Z</time>
      </trkpt>
      <trkpt lat="45.9018" lon="4.6849">
        <ele>312.76136</ele>
        <time>2022-06-18T08:43:45.000Z</time>
      </trkpt>
      <trkpt lat="45.9018" lon="4.68487">
        <ele>313.01801</ele>
        <time>2022-06-18T08:43:46.000Z</time>
      </trkpt>
      <trkpt lat="45.90179" lon="4.68484">
        <ele>313.25417</ele>
        <time>2022-06-18T08:43:47.000Z</time>
      </trkpt>
      <trkpt lat="45.90179" lon="4.68481">
        <ele>313.46655</ele>
        <time>2022-06-18T08:43:48.000Z</time>
      </trkpt>
      <trkpt lat="45.90178" lon="4.68477">
        <ele>313.71007</ele>
        <time>2022-06-18T08:43:49.000Z</time>
      </trkpt>
      <trkpt lat="45.90178" lon="4.68474">
        <ele>313.94247</ele>
        <time>2022-06-18T08:43:50.000Z</time>
      </trkpt>
      <trkpt lat="45.90177" lon="4.68472">
        <ele>314.10813</ele>
        <time>2022-06-18T08:43:51.000Z</time>
      </trkpt>
      <trkpt lat="45.90177" lon="4.68469">
        <ele>314.29009</ele>
        <time>2022-06-18T08:43:52.000Z</time>
      </trkpt>
      <trkpt lat="45.90176" lon="4.68464">
        <ele>314.62211</ele>
        <time>2022-06-18T08:43:54.000Z</time>
      </trkpt>
      <trkpt lat="45.90177" lon="4.68462">
        <ele>314.85537</ele>
        <time>2022-06-18T08:43:55.000Z</time>
      </trkpt>
      <trkpt lat="45.90179" lon="4.68459">
        <ele>315.17412</ele>
        <time>2022-06-18T08:43:56.000Z</time>
      </trkpt>
      <trkpt lat="45.9018" lon="4.68456">
        <ele>315.42545</ele>
        <time>2022-06-18T08:43:57.000Z</time>
      </trkpt>
      <trkpt lat="45.90181" lon="4.68454">
        <ele>315.65651</ele>
        <time>2022-06-18T08:43:58.000Z</time>
      </trkpt>
      <trkpt lat="45.90181" lon="4.6845">
        <ele>315.97532</ele>
        <time>2022-06-18T08:43:59.000Z</time>
      </trkpt>
      <trkpt lat="45.9018" lon="4.68447">
        <ele>316.19422</ele>
        <time>2022-06-18T08:44:00.000Z</time>
      </trkpt>
      <trkpt lat="45.90179" lon="4.68443">
        <ele>316.39203</ele>
        <time>2022-06-18T08:44:01.000Z</time>
      </trkpt>
      <trkpt lat="45.90177" lon="4.68442">
        <ele>316.46841</ele>
        <time>2022-06-18T08:44:02.000Z</time>
      </trkpt>
      <trkpt lat="45.90176" lon="4.68439">
        <ele>316.61077</ele>
        <time>2022-06-18T08:44:04.000Z</time>
      </trkpt>
      <trkpt lat="45.90175" lon="4.68435">
        <ele>316.90191</ele>
        <time>2022-06-18T08:44:06.000Z</time>
      </trkpt>
      <trkpt lat="45.90176" lon="4.68433">
        <ele>317.1389</ele>
        <time>2022-06-18T08:44:09.000Z</time>
      </trkpt>
      <trkpt lat="45.90178" lon="4.68429">
        <ele>317.51672</ele>
        <time>2022-06-18T08:44:22.000Z</time>
      </trkpt>
      <trkpt lat="45.90178" lon="4.68425">
        <ele>317.85246</ele>
        <time>2022-06-18T08:44:23.000Z</time>
      </trkpt>
      <trkpt lat="45.90178" lon="4.68421">
        <ele>318.15525</ele>
        <time>2022-06-18T08:44:24.000Z</time>
      </trkpt>
      <trkpt lat="45.90177" lon="4.68418">
        <ele>318.37772</ele>
        <time>2022-06-18T08:44:25.000Z</time>
      </trkpt>
      <trkpt lat="45.90176" lon="4.68415">
        <ele>318.59098</ele>
        <time>2022-06-18T08:44:26.000Z</time>
      </trkpt>
      <trkpt lat="45.90175" lon="4.68411">
        <ele>318.87434</ele>
        <time>2022-06-18T08:44:27.000Z</time>
      </trkpt>
      <trkpt lat="45.90175" lon="4.68408">
        <ele>319.16059</ele>
        <time>2022-06-18T08:44:28.000Z</time>
      </trkpt>
      <trkpt lat="45.90175" lon="4.68404">
        <ele>319.46916</ele>
        <time>2022-06-18T08:44:29.000Z</time>
      </trkpt>
      <trkpt lat="45.90175" lon="4.68399">
        <ele>319.93028</ele>
        <time>2022-06-18T08:44:30.000Z</time>
      </trkpt>
      <trkpt lat="45.90176" lon="4.68392">
        <ele>320.558</ele>
        <time>2022-06-18T08:44:31.000Z</time>
      </trkpt>
      <trkpt lat="45.90176" lon="4.68386">
        <ele>321.17553</ele>
        <time>2022-06-18T08:44:32.000Z</time>
      </trkpt>
      <trkpt lat="45.90175" lon="4.68379">
        <ele>321.81208</ele>
        <time>2022-06-18T08:44:33.000Z</time>
      </trkpt>
      <trkpt lat="45.90175" lon="4.68372">
        <ele>322.4666</ele>
        <time>2022-06-18T08:44:34.000Z</time>
      </trkpt>
      <trkpt lat="45.90174" lon="4.68366">
        <ele>323.14546</ele>
        <time>2022-06-18T08:44:35.000Z</time>
      </trkpt>
      <trkpt lat="45.90173" lon="4.68359">
        <ele>323.83509</ele>
        <time>2022-06-18T08:44:36.000Z</time>
      </trkpt>
      <trkpt lat="45.90173" lon="4.68352">
        <ele>324.48312</ele>
        <time>2022-06-18T08:44:37.000Z</time>
      </trkpt>
      <trkpt lat="45.90171" lon="4.68346">
        <ele>325.14446</ele>
        <time>2022-06-18T08:44:38.000Z</time>
      </trkpt>
      <trkpt lat="45.9017" lon="4.6834">
        <ele>325.78535</ele>
        <time>2022-06-18T08:44:39.000Z</time>
      </trkpt>
      <trkpt lat="45.90169" lon="4.68335">
        <ele>326.37141</ele>
        <time>2022-06-18T08:44:40.000Z</time>
      </trkpt>
      <trkpt lat="45.90168" lon="4.6833">
        <ele>326.93243</ele>
        <time>2022-06-18T08:44:41.000Z</time>
      </trkpt>
      <trkpt lat="45.90167" lon="4.68325">
        <ele>327.59675</ele>
        <time>2022-06-18T08:44:42.000Z</time>
      </trkpt>
      <trkpt lat="45.90166" lon="4.68319">
        <ele>328.28103</ele>
        <time>2022-06-18T08:44:43.000Z</time>
      </trkpt>
      <trkpt lat="45.90166" lon="4.68315">
        <ele>328.8508</ele>
        <time>2022-06-18T08:44:44.000Z</time>
      </trkpt>
      <trkpt lat="45.90166" lon="4.68311">
        <ele>329.38851</ele>
        <time>2022-06-18T08:44:45.000Z</time>
      </trkpt>
      <trkpt lat="45.90167" lon="4.68306">
        <ele>329.9868</ele>
        <time>2022-06-18T08:44:46.000Z</time>
      </trkpt>
      <trkpt lat="45.90169" lon="4.68301">
        <ele>330.59302</ele>
        <time>2022-06-18T08:44:47.000Z</time>
      </trkpt>
      <trkpt lat="45.9017" lon="4.68297">
        <ele>331.06956</ele>
        <time>2022-06-18T08:44:48.000Z</time>
      </trkpt>
      <trkpt lat="45.90172" lon="4.68293">
        <ele>331.5736</ele>
        <time>2022-06-18T08:44:49.000Z</time>
      </trkpt>
      <trkpt lat="45.90175" lon="4.68289">
        <ele>332.14329</ele>
        <time>2022-06-18T08:44:50.000Z</time>
      </trkpt>
      <trkpt lat="45.90176" lon="4.68285">
        <ele>332.59645</ele>
        <time>2022-06-18T08:44:51.000Z</time>
      </trkpt>
      <trkpt lat="45.90178" lon="4.68282">
        <ele>333.03627</ele>
        <time>2022-06-18T08:44:52.000Z</time>
      </trkpt>
      <trkpt lat="45.90179" lon="4.68278">
        <ele>333.45305</ele>
        <time>2022-06-18T08:44:53.000Z</time>
      </trkpt>
      <trkpt lat="45.90181" lon="4.68275">
        <ele>333.83128</ele>
        <time>2022-06-18T08:44:54.000Z</time>
      </trkpt>
      <trkpt lat="45.90184" lon="4.68272">
        <ele>334.19586</ele>
        <time>2022-06-18T08:44:55.000Z</time>
      </trkpt>
      <trkpt lat="45.90186" lon="4.68269">
        <ele>334.52043</ele>
        <time>2022-06-18T08:44:56.000Z</time>
      </trkpt>
      <trkpt lat="45.90189" lon="4.68266">
        <ele>334.76529</ele>
        <time>2022-06-18T08:44:57.000Z</time>
      </trkpt>
      <trkpt lat="45.90192" lon="4.68264">
        <ele>335.00791</ele>
        <time>2022-06-18T08:44:58.000Z</time>
      </trkpt>
      <trkpt lat="45.90194" lon="4.68261">
        <ele>335.33138</ele>
        <time>2022-06-18T08:44:59.000Z</time>
      </trkpt>
      <trkpt lat="45.90195" lon="4.68259">
        <ele>335.611</ele>
        <time>2022-06-18T08:45:00.000Z</time>
      </trkpt>
      <trkpt lat="45.90197" lon="4.68256">
        <ele>335.91153</ele>
        <time>2022-06-18T08:45:01.000Z</time>
      </trkpt>
      <trkpt lat="45.90198" lon="4.68254">
        <ele>336.11456</ele>
        <time>2022-06-18T08:45:02.000Z</time>
      </trkpt>
      <trkpt lat="45.90201" lon="4.68253">
        <ele>336.24765</ele>
        <time>2022-06-18T08:45:03.000Z</time>
      </trkpt>
      <trkpt lat="45.90203" lon="4.68251">
        <ele>336.39368</ele>
        <time>2022-06-18T08:45:04.000Z</time>
      </trkpt>
      <trkpt lat="45.90205" lon="4.6825">
        <ele>336.55496</ele>
        <time>2022-06-18T08:45:05.000Z</time>
      </trkpt>
      <trkpt lat="45.90207" lon="4.68247">
        <ele>336.77495</ele>
        <time>2022-06-18T08:45:06.000Z</time>
      </trkpt>
      <trkpt lat="45.9021" lon="4.68244">
        <ele>337.16084</ele>
        <time>2022-06-18T08:45:08.000Z</time>
      </trkpt>
      <trkpt lat="45.90212" lon="4.68241">
        <ele>337.43265</ele>
        <time>2022-06-18T08:45:09.000Z</time>
      </trkpt>
      <trkpt lat="45.90215" lon="4.68238">
        <ele>337.77798</ele>
        <time>2022-06-18T08:45:10.000Z</time>
      </trkpt>
      <trkpt lat="45.90218" lon="4.68235">
        <ele>338.1217</ele>
        <time>2022-06-18T08:45:11.000Z</time>
      </trkpt>
      <trkpt lat="45.9022" lon="4.68233">
        <ele>338.41429</ele>
        <time>2022-06-18T08:45:12.000Z</time>
      </trkpt>
      <trkpt lat="45.90222" lon="4.6823">
        <ele>338.7231</ele>
        <time>2022-06-18T08:45:13.000Z</time>
      </trkpt>
      <trkpt lat="45.90224" lon="4.68228">
        <ele>338.99516</ele>
        <time>2022-06-18T08:45:14.000Z</time>
      </trkpt>
      <trkpt lat="45.90226" lon="4.68226">
        <ele>339.23783</ele>
        <time>2022-06-18T08:45:15.000Z</time>
      </trkpt>
      <trkpt lat="45.90229" lon="4.68224">
        <ele>339.50586</ele>
        <time>2022-06-18T08:45:16.000Z</time>
      </trkpt>
      <trkpt lat="45.90231" lon="4.68221">
        <ele>339.79761</ele>
        <time>2022-06-18T08:45:17.000Z</time>
      </trkpt>
      <trkpt lat="45.90234" lon="4.68218">
        <ele>340.11133</ele>
        <time>2022-06-18T08:45:18.000Z</time>
      </trkpt>
      <trkpt lat="45.90237" lon="4.68215">
        <ele>340.43473</ele>
        <time>2022-06-18T08:45:19.000Z</time>
      </trkpt>
      <trkpt lat="45.9024" lon="4.68211">
        <ele>340.77785</ele>
        <time>2022-06-18T08:45:20.000Z</time>
      </trkpt>
      <trkpt lat="45.90242" lon="4.68207">
        <ele>341.16007</ele>
        <time>2022-06-18T08:45:21.000Z</time>
      </trkpt>
      <trkpt lat="45.90243" lon="4.68203">
        <ele>341.5157</ele>
        <time>2022-06-18T08:45:22.000Z</time>
      </trkpt>
      <trkpt lat="45.90245" lon="4.68199">
        <ele>341.8787</ele>
        <time>2022-06-18T08:45:23.000Z</time>
      </trkpt>
      <trkpt lat="45.90246" lon="4.68196">
        <ele>342.23752</ele>
        <time>2022-06-18T08:45:24.000Z</time>
      </trkpt>
      <trkpt lat="45.90247" lon="4.68193">
        <ele>342.4913</ele>
        <time>2022-06-18T08:45:25.000Z</time>
      </trkpt>
      <trkpt lat="45.90249" lon="4.68189">
        <ele>342.72632</ele>
        <time>2022-06-18T08:45:26.000Z</time>
      </trkpt>
      <trkpt lat="45.9025" lon="4.68186">
        <ele>342.92081</ele>
        <time>2022-06-18T08:45:27.000Z</time>
      </trkpt>
      <trkpt lat="45.90252" lon="4.68184">
        <ele>342.99875</ele>
        <time>2022-06-18T08:45:28.000Z</time>
      </trkpt>
      <trkpt lat="45.90254" lon="4.68182">
        <ele>343.03186</ele>
        <time>2022-06-18T08:45:29.000Z</time>
      </trkpt>
      <trkpt lat="45.90256" lon="4.68179">
        <ele>343.06381</ele>
        <time>2022-06-18T08:45:30.000Z</time>
      </trkpt>
      <trkpt lat="45.90259" lon="4.68175">
        <ele>343.16351</ele>
        <time>2022-06-18T08:45:31.000Z</time>
      </trkpt>
      <trkpt lat="45.90262" lon="4.68172">
        <ele>343.32882</ele>
        <time>2022-06-18T08:45:32.000Z</time>
      </trkpt>
      <trkpt lat="45.90264" lon="4.68169">
        <ele>343.58951</ele>
        <time>2022-06-18T08:45:33.000Z</time>
      </trkpt>
      <trkpt lat="45.90266" lon="4.68165">
        <ele>343.93258</ele>
        <time>2022-06-18T08:45:34.000Z</time>
      </trkpt>
      <trkpt lat="45.90269" lon="4.68161">
        <ele>344.31091</ele>
        <time>2022-06-18T08:45:35.000Z</time>
      </trkpt>
      <trkpt lat="45.90272" lon="4.68157">
        <ele>344.6885</ele>
        <time>2022-06-18T08:45:36.000Z</time>
      </trkpt>
      <trkpt lat="45.90275" lon="4.68153">
        <ele>344.99935</ele>
        <time>2022-06-18T08:45:37.000Z</time>
      </trkpt>
      <trkpt lat="45.90277" lon="4.68149">
        <ele>345.24238</ele>
        <time>2022-06-18T08:45:38.000Z</time>
      </trkpt>
      <trkpt lat="45.90279" lon="4.68146">
        <ele>345.4795</ele>
        <time>2022-06-18T08:45:39.000Z</time>
      </trkpt>
      <trkpt lat="45.90282" lon="4.68142">
        <ele>345.72423</ele>
        <time>2022-06-18T08:45:40.000Z</time>
      </trkpt>
      <trkpt lat="45.90284" lon="4.68137">
        <ele>346.02142</ele>
        <time>2022-06-18T08:45:41.000Z</time>
      </trkpt>
      <trkpt lat="45.90286" lon="4.68134">
        <ele>346.32965</ele>
        <time>2022-06-18T08:45:42.000Z</time>
      </trkpt>
      <trkpt lat="45.90288" lon="4.6813">
        <ele>346.60679</ele>
        <time>2022-06-18T08:45:43.000Z</time>
      </trkpt>
      <trkpt lat="45.9029" lon="4.68127">
        <ele>346.90195</ele>
        <time>2022-06-18T08:45:44.000Z</time>
      </trkpt>
      <trkpt lat="45.90292" lon="4.68124">
        <ele>347.17559</ele>
        <time>2022-06-18T08:45:45.000Z</time>
      </trkpt>
      <trkpt lat="45.90294" lon="4.68121">
        <ele>347.50358</ele>
        <time>2022-06-18T08:45:46.000Z</time>
      </trkpt>
      <trkpt lat="45.90296" lon="4.68116">
        <ele>347.97158</ele>
        <time>2022-06-18T08:45:47.000Z</time>
      </trkpt>
      <trkpt lat="45.90298" lon="4.68112">
        <ele>348.45007</ele>
        <time>2022-06-18T08:45:48.000Z</time>
      </trkpt>
      <trkpt lat="45.90301" lon="4.68107">
        <ele>348.83205</ele>
        <time>2022-06-18T08:45:49.000Z</time>
      </trkpt>
      <trkpt lat="45.90303" lon="4.68103">
        <ele>349.11767</ele>
        <time>2022-06-18T08:45:50.000Z</time>
      </trkpt>
      <trkpt lat="45.90305" lon="4.68099">
        <ele>349.36267</ele>
        <time>2022-06-18T08:45:51.000Z</time>
      </trkpt>
      <trkpt lat="45.90306" lon="4.68095">
        <ele>349.56871</ele>
        <time>2022-06-18T08:45:52.000Z</time>
      </trkpt>
      <trkpt lat="45.90308" lon="4.68091">
        <ele>349.76392</ele>
        <time>2022-06-18T08:45:53.000Z</time>
      </trkpt>
      <trkpt lat="45.90309" lon="4.68086">
        <ele>350.00964</ele>
        <time>2022-06-18T08:45:54.000Z</time>
      </trkpt>
      <trkpt lat="45.90311" lon="4.68082">
        <ele>350.30794</ele>
        <time>2022-06-18T08:45:55.000Z</time>
      </trkpt>
      <trkpt lat="45.90312" lon="4.68077">
        <ele>350.70801</ele>
        <time>2022-06-18T08:45:56.000Z</time>
      </trkpt>
      <trkpt lat="45.90313" lon="4.68073">
        <ele>351.19687</ele>
        <time>2022-06-18T08:45:57.000Z</time>
      </trkpt>
      <trkpt lat="45.90314" lon="4.68068">
        <ele>351.68691</ele>
        <time>2022-06-18T08:45:58.000Z</time>
      </trkpt>
      <trkpt lat="45.90315" lon="4.68064">
        <ele>352.16278</ele>
        <time>2022-06-18T08:45:59.000Z</time>
      </trkpt>
      <trkpt lat="45.90317" lon="4.6806">
        <ele>352.63048</ele>
        <time>2022-06-18T08:46:00.000Z</time>
      </trkpt>
      <trkpt lat="45.90318" lon="4.68056">
        <ele>353.06482</ele>
        <time>2022-06-18T08:46:01.000Z</time>
      </trkpt>
      <trkpt lat="45.90319" lon="4.68053">
        <ele>353.44726</ele>
        <time>2022-06-18T08:46:02.000Z</time>
      </trkpt>
      <trkpt lat="45.9032" lon="4.6805">
        <ele>353.82372</ele>
        <time>2022-06-18T08:46:03.000Z</time>
      </trkpt>
      <trkpt lat="45.90322" lon="4.68045">
        <ele>354.28314</ele>
        <time>2022-06-18T08:46:04.000Z</time>
      </trkpt>
      <trkpt lat="45.90323" lon="4.68041">
        <ele>354.75671</ele>
        <time>2022-06-18T08:46:05.000Z</time>
      </trkpt>
      <trkpt lat="45.90323" lon="4.68037">
        <ele>355.22473</ele>
        <time>2022-06-18T08:46:06.000Z</time>
      </trkpt>
      <trkpt lat="45.90323" lon="4.68033">
        <ele>355.72403</ele>
        <time>2022-06-18T08:46:07.000Z</time>
      </trkpt>
      <trkpt lat="45.90323" lon="4.68029">
        <ele>356.16095</ele>
        <time>2022-06-18T08:46:08.000Z</time>
      </trkpt>
      <trkpt lat="45.90323" lon="4.68026">
        <ele>356.61201</ele>
        <time>2022-06-18T08:46:09.000Z</time>
      </trkpt>
      <trkpt lat="45.90323" lon="4.68022">
        <ele>357.12115</ele>
        <time>2022-06-18T08:46:10.000Z</time>
      </trkpt>
      <trkpt lat="45.90323" lon="4.68018">
        <ele>357.62552</ele>
        <time>2022-06-18T08:46:11.000Z</time>
      </trkpt>
      <trkpt lat="45.90323" lon="4.68015">
        <ele>358.04059</ele>
        <time>2022-06-18T08:46:12.000Z</time>
      </trkpt>
      <trkpt lat="45.90323" lon="4.68011">
        <ele>358.45001</ele>
        <time>2022-06-18T08:46:13.000Z</time>
      </trkpt>
      <trkpt lat="45.90323" lon="4.68008">
        <ele>358.86121</ele>
        <time>2022-06-18T08:46:14.000Z</time>
      </trkpt>
      <trkpt lat="45.90323" lon="4.68004">
        <ele>359.23692</ele>
        <time>2022-06-18T08:46:15.000Z</time>
      </trkpt>
      <trkpt lat="45.90323" lon="4.67999">
        <ele>359.63248</ele>
        <time>2022-06-18T08:46:16.000Z</time>
      </trkpt>
      <trkpt lat="45.90323" lon="4.67995">
        <ele>360.02286</ele>
        <time>2022-06-18T08:46:17.000Z</time>
      </trkpt>
      <trkpt lat="45.90323" lon="4.67991">
        <ele>360.40116</ele>
        <time>2022-06-18T08:46:18.000Z</time>
      </trkpt>
      <trkpt lat="45.90323" lon="4.67987">
        <ele>360.765</ele>
        <time>2022-06-18T08:46:19.000Z</time>
      </trkpt>
      <trkpt lat="45.90323" lon="4.67983">
        <ele>361.24256</ele>
        <time>2022-06-18T08:46:20.000Z</time>
      </trkpt>
      <trkpt lat="45.90323" lon="4.67978">
        <ele>361.78526</ele>
        <time>2022-06-18T08:46:21.000Z</time>
      </trkpt>
      <trkpt lat="45.90324" lon="4.67973">
        <ele>362.34987</ele>
        <time>2022-06-18T08:46:22.000Z</time>
      </trkpt>
      <trkpt lat="45.90324" lon="4.67969">
        <ele>362.93428</ele>
        <time>2022-06-18T08:46:23.000Z</time>
      </trkpt>
      <trkpt lat="45.90324" lon="4.67965">
        <ele>363.55359</ele>
        <time>2022-06-18T08:46:24.000Z</time>
      </trkpt>
      <trkpt lat="45.90324" lon="4.6796">
        <ele>364.17005</ele>
        <time>2022-06-18T08:46:25.000Z</time>
      </trkpt>
      <trkpt lat="45.90324" lon="4.67957">
        <ele>364.72576</ele>
        <time>2022-06-18T08:46:26.000Z</time>
      </trkpt>
      <trkpt lat="45.90324" lon="4.67953">
        <ele>365.18699</ele>
        <time>2022-06-18T08:46:27.000Z</time>
      </trkpt>
      <trkpt lat="45.90323" lon="4.67949">
        <ele>365.74921</ele>
        <time>2022-06-18T08:46:28.000Z</time>
      </trkpt>
      <trkpt lat="45.90322" lon="4.67946">
        <ele>366.28677</ele>
        <time>2022-06-18T08:46:29.000Z</time>
      </trkpt>
      <trkpt lat="45.90321" lon="4.67943">
        <ele>366.78857</ele>
        <time>2022-06-18T08:46:30.000Z</time>
      </trkpt>
      <trkpt lat="45.9032" lon="4.6794">
        <ele>367.28627</ele>
        <time>2022-06-18T08:46:31.000Z</time>
      </trkpt>
      <trkpt lat="45.90319" lon="4.67937">
        <ele>367.76777</ele>
        <time>2022-06-18T08:46:32.000Z</time>
      </trkpt>
      <trkpt lat="45.90319" lon="4.67935">
        <ele>368.18652</ele>
        <time>2022-06-18T08:46:33.000Z</time>
      </trkpt>
      <trkpt lat="45.90318" lon="4.6793">
        <ele>368.83319</ele>
        <time>2022-06-18T08:46:35.000Z</time>
      </trkpt>
      <trkpt lat="45.90317" lon="4.67927">
        <ele>369.16327</ele>
        <time>2022-06-18T08:46:36.000Z</time>
      </trkpt>
      <trkpt lat="45.90318" lon="4.67923">
        <ele>369.43602</ele>
        <time>2022-06-18T08:46:37.000Z</time>
      </trkpt>
      <trkpt lat="45.90318" lon="4.67919">
        <ele>369.65997</ele>
        <time>2022-06-18T08:46:38.000Z</time>
      </trkpt>
      <trkpt lat="45.90319" lon="4.67915">
        <ele>369.75667</ele>
        <time>2022-06-18T08:46:39.000Z</time>
      </trkpt>
      <trkpt lat="45.9032" lon="4.67912">
        <ele>369.7088</ele>
        <time>2022-06-18T08:46:40.000Z</time>
      </trkpt>
      <trkpt lat="45.90321" lon="4.67908">
        <ele>369.62531</ele>
        <time>2022-06-18T08:46:41.000Z</time>
      </trkpt>
      <trkpt lat="45.90322" lon="4.67905">
        <ele>369.6001</ele>
        <time>2022-06-18T08:46:42.000Z</time>
      </trkpt>
      <trkpt lat="45.90322" lon="4.67902">
        <ele>369.62481</ele>
        <time>2022-06-18T08:46:43.000Z</time>
      </trkpt>
      <trkpt lat="45.90322" lon="4.67899">
        <ele>369.7098</ele>
        <time>2022-06-18T08:46:44.000Z</time>
      </trkpt>
      <trkpt lat="45.90322" lon="4.67897">
        <ele>369.78824</ele>
        <time>2022-06-18T08:46:45.000Z</time>
      </trkpt>
      <trkpt lat="45.90322" lon="4.67893">
        <ele>369.85176</ele>
        <time>2022-06-18T08:46:46.000Z</time>
      </trkpt>
      <trkpt lat="45.90323" lon="4.6789">
        <ele>369.91238</ele>
        <time>2022-06-18T08:46:47.000Z</time>
      </trkpt>
      <trkpt lat="45.90323" lon="4.67885">
        <ele>369.97779</ele>
        <time>2022-06-18T08:46:48.000Z</time>
      </trkpt>
      <trkpt lat="45.90324" lon="4.67881">
        <ele>370.06301</ele>
        <time>2022-06-18T08:46:49.000Z</time>
      </trkpt>
      <trkpt lat="45.90324" lon="4.67877">
        <ele>370.16969</ele>
        <time>2022-06-18T08:46:50.000Z</time>
      </trkpt>
      <trkpt lat="45.90324" lon="4.67874">
        <ele>370.46351</ele>
        <time>2022-06-18T08:46:51.000Z</time>
      </trkpt>
      <trkpt lat="45.90323" lon="4.6787">
        <ele>370.82814</ele>
        <time>2022-06-18T08:46:52.000Z</time>
      </trkpt>
      <trkpt lat="45.90323" lon="4.67866">
        <ele>371.23949</ele>
        <time>2022-06-18T08:46:53.000Z</time>
      </trkpt>
      <trkpt lat="45.90323" lon="4.67862">
        <ele>371.55238</ele>
        <time>2022-06-18T08:46:54.000Z</time>
      </trkpt>
      <trkpt lat="45.90323" lon="4.67857">
        <ele>371.72249</ele>
        <time>2022-06-18T08:46:55.000Z</time>
      </trkpt>
      <trkpt lat="45.90323" lon="4.67853">
        <ele>371.86579</ele>
        <time>2022-06-18T08:46:56.000Z</time>
      </trkpt>
      <trkpt lat="45.90323" lon="4.6785">
        <ele>371.96753</ele>
        <time>2022-06-18T08:46:57.000Z</time>
      </trkpt>
      <trkpt lat="45.90323" lon="4.67846">
        <ele>372.17274</ele>
        <time>2022-06-18T08:46:58.000Z</time>
      </trkpt>
      <trkpt lat="45.90323" lon="4.67842">
        <ele>372.37813</ele>
        <time>2022-06-18T08:46:59.000Z</time>
      </trkpt>
      <trkpt lat="45.90323" lon="4.67839">
        <ele>372.43572</ele>
        <time>2022-06-18T08:47:00.000Z</time>
      </trkpt>
      <trkpt lat="45.90323" lon="4.67833">
        <ele>372.54102</ele>
        <time>2022-06-18T08:47:02.000Z</time>
      </trkpt>
      <trkpt lat="45.90323" lon="4.6783">
        <ele>372.69389</ele>
        <time>2022-06-18T08:47:03.000Z</time>
      </trkpt>
      <trkpt lat="45.90324" lon="4.67825">
        <ele>372.58223</ele>
        <time>2022-06-18T08:47:04.000Z</time>
      </trkpt>
      <trkpt lat="45.90324" lon="4.6782">
        <ele>372.49093</ele>
        <time>2022-06-18T08:47:05.000Z</time>
      </trkpt>
      <trkpt lat="45.90325" lon="4.67816">
        <ele>372.42041</ele>
        <time>2022-06-18T08:47:06.000Z</time>
      </trkpt>
      <trkpt lat="45.90325" lon="4.67812">
        <ele>372.25495</ele>
        <time>2022-06-18T08:47:07.000Z</time>
      </trkpt>
      <trkpt lat="45.90326" lon="4.67807">
        <ele>372.13186</ele>
        <time>2022-06-18T08:47:08.000Z</time>
      </trkpt>
      <trkpt lat="45.90326" lon="4.67803">
        <ele>372.09737</ele>
        <time>2022-06-18T08:47:09.000Z</time>
      </trkpt>
      <trkpt lat="45.90326" lon="4.67798">
        <ele>372.0679</ele>
        <time>2022-06-18T08:47:10.000Z</time>
      </trkpt>
      <trkpt lat="45.90326" lon="4.67795">
        <ele>372.07097</ele>
        <time>2022-06-18T08:47:11.000Z</time>
      </trkpt>
      <trkpt lat="45.90326" lon="4.67792">
        <ele>372.06674</ele>
        <time>2022-06-18T08:47:12.000Z</time>
      </trkpt>
      <trkpt lat="45.90327" lon="4.67788">
        <ele>372.02118</ele>
        <time>2022-06-18T08:47:13.000Z</time>
      </trkpt>
      <trkpt lat="45.90327" lon="4.67784">
        <ele>372.01021</ele>
        <time>2022-06-18T08:47:14.000Z</time>
      </trkpt>
      <trkpt lat="45.90328" lon="4.6778">
        <ele>372.00361</ele>
        <time>2022-06-18T08:47:15.000Z</time>
      </trkpt>
      <trkpt lat="45.90329" lon="4.67776">
        <ele>371.97098</ele>
        <time>2022-06-18T08:47:16.000Z</time>
      </trkpt>
      <trkpt lat="45.9033" lon="4.67771">
        <ele>371.95181</ele>
        <time>2022-06-18T08:47:17.000Z</time>
      </trkpt>
      <trkpt lat="45.90331" lon="4.67766">
        <ele>371.94668</ele>
        <time>2022-06-18T08:47:18.000Z</time>
      </trkpt>
      <trkpt lat="45.90332" lon="4.67762">
        <ele>371.98003</ele>
        <time>2022-06-18T08:47:19.000Z</time>
      </trkpt>
      <trkpt lat="45.90333" lon="4.67758">
        <ele>372.02453</ele>
        <time>2022-06-18T08:47:20.000Z</time>
      </trkpt>
      <trkpt lat="45.90334" lon="4.67753">
        <ele>372.08068</ele>
        <time>2022-06-18T08:47:21.000Z</time>
      </trkpt>
      <trkpt lat="45.90336" lon="4.67749">
        <ele>372.11826</ele>
        <time>2022-06-18T08:47:22.000Z</time>
      </trkpt>
      <trkpt lat="45.90337" lon="4.67746">
        <ele>372.16533</ele>
        <time>2022-06-18T08:47:23.000Z</time>
      </trkpt>
      <trkpt lat="45.90338" lon="4.67742">
        <ele>372.21368</ele>
        <time>2022-06-18T08:47:24.000Z</time>
      </trkpt>
      <trkpt lat="45.90339" lon="4.67739">
        <ele>372.26902</ele>
        <time>2022-06-18T08:47:25.000Z</time>
      </trkpt>
      <trkpt lat="45.9034" lon="4.67735">
        <ele>372.35203</ele>
        <time>2022-06-18T08:47:27.000Z</time>
      </trkpt>
      <trkpt lat="45.9034" lon="4.67731">
        <ele>372.40554</ele>
        <time>2022-06-18T08:47:29.000Z</time>
      </trkpt>
      <trkpt lat="45.90342" lon="4.67729">
        <ele>372.31395</ele>
        <time>2022-06-18T08:47:33.000Z</time>
      </trkpt>
      <trkpt lat="45.90342" lon="4.67727">
        <ele>372.4653</ele>
        <time>2022-06-18T08:47:49.000Z</time>
      </trkpt>
      <trkpt lat="45.90342" lon="4.67723">
        <ele>372.59197</ele>
        <time>2022-06-18T08:47:58.000Z</time>
      </trkpt>
      <trkpt lat="45.90342" lon="4.67718">
        <ele>372.76588</ele>
        <time>2022-06-18T08:47:59.000Z</time>
      </trkpt>
      <trkpt lat="45.90343" lon="4.67713">
        <ele>372.84277</ele>
        <time>2022-06-18T08:48:00.000Z</time>
      </trkpt>
      <trkpt lat="45.90344" lon="4.67707">
        <ele>372.91143</ele>
        <time>2022-06-18T08:48:01.000Z</time>
      </trkpt>
      <trkpt lat="45.90345" lon="4.67701">
        <ele>373.07355</ele>
        <time>2022-06-18T08:48:02.000Z</time>
      </trkpt>
      <trkpt lat="45.90345" lon="4.67696">
        <ele>373.36191</ele>
        <time>2022-06-18T08:48:03.000Z</time>
      </trkpt>
      <trkpt lat="45.90344" lon="4.6769">
        <ele>373.76452</ele>
        <time>2022-06-18T08:48:04.000Z</time>
      </trkpt>
      <trkpt lat="45.90344" lon="4.67684">
        <ele>374.21929</ele>
        <time>2022-06-18T08:48:05.000Z</time>
      </trkpt>
      <trkpt lat="45.90343" lon="4.67678">
        <ele>374.68417</ele>
        <time>2022-06-18T08:48:06.000Z</time>
      </trkpt>
      <trkpt lat="45.90343" lon="4.67672">
        <ele>375.14164</ele>
        <time>2022-06-18T08:48:07.000Z</time>
      </trkpt>
      <trkpt lat="45.90343" lon="4.67667">
        <ele>375.61132</ele>
        <time>2022-06-18T08:48:08.000Z</time>
      </trkpt>
      <trkpt lat="45.90343" lon="4.67661">
        <ele>376.07379</ele>
        <time>2022-06-18T08:48:09.000Z</time>
      </trkpt>
      <trkpt lat="45.90342" lon="4.67655">
        <ele>376.56922</ele>
        <time>2022-06-18T08:48:10.000Z</time>
      </trkpt>
      <trkpt lat="45.90342" lon="4.67648">
        <ele>377.12356</ele>
        <time>2022-06-18T08:48:11.000Z</time>
      </trkpt>
      <trkpt lat="45.90341" lon="4.67642">
        <ele>377.67907</ele>
        <time>2022-06-18T08:48:12.000Z</time>
      </trkpt>
      <trkpt lat="45.90341" lon="4.67635">
        <ele>378.25069</ele>
        <time>2022-06-18T08:48:13.000Z</time>
      </trkpt>
      <trkpt lat="45.90341" lon="4.67629">
        <ele>378.84245</ele>
        <time>2022-06-18T08:48:14.000Z</time>
      </trkpt>
      <trkpt lat="45.90341" lon="4.67623">
        <ele>379.48464</ele>
        <time>2022-06-18T08:48:15.000Z</time>
      </trkpt>
      <trkpt lat="45.90341" lon="4.67617">
        <ele>380.15241</ele>
        <time>2022-06-18T08:48:16.000Z</time>
      </trkpt>
      <trkpt lat="45.9034" lon="4.67611">
        <ele>380.89992</ele>
        <time>2022-06-18T08:48:17.000Z</time>
      </trkpt>
      <trkpt lat="45.90338" lon="4.67603">
        <ele>381.86415</ele>
        <time>2022-06-18T08:48:18.000Z</time>
      </trkpt>
      <trkpt lat="45.90337" lon="4.67597">
        <ele>382.82485</ele>
        <time>2022-06-18T08:48:19.000Z</time>
      </trkpt>
      <trkpt lat="45.90336" lon="4.67591">
        <ele>383.70666</ele>
        <time>2022-06-18T08:48:20.000Z</time>
      </trkpt>
      <trkpt lat="45.90337" lon="4.67584">
        <ele>384.78771</ele>
        <time>2022-06-18T08:48:21.000Z</time>
      </trkpt>
      <trkpt lat="45.90337" lon="4.67577">
        <ele>385.98275</ele>
        <time>2022-06-18T08:48:22.000Z</time>
      </trkpt>
      <trkpt lat="45.90336" lon="4.67572">
        <ele>386.89142</ele>
        <time>2022-06-18T08:48:23.000Z</time>
      </trkpt>
      <trkpt lat="45.90335" lon="4.67567">
        <ele>387.81163</ele>
        <time>2022-06-18T08:48:24.000Z</time>
      </trkpt>
      <trkpt lat="45.90333" lon="4.67564">
        <ele>388.52142</ele>
        <time>2022-06-18T08:48:25.000Z</time>
      </trkpt>
      <trkpt lat="45.90331" lon="4.6756">
        <ele>389.22697</ele>
        <time>2022-06-18T08:48:26.000Z</time>
      </trkpt>
      <trkpt lat="45.9033" lon="4.67556">
        <ele>389.93812</ele>
        <time>2022-06-18T08:48:27.000Z</time>
      </trkpt>
      <trkpt lat="45.90328" lon="4.67552">
        <ele>390.60436</ele>
        <time>2022-06-18T08:48:28.000Z</time>
      </trkpt>
      <trkpt lat="45.90329" lon="4.67556">
        <ele>389.8554</ele>
        <time>2022-06-18T08:48:29.000Z</time>
      </trkpt>
      <trkpt lat="45.90331" lon="4.67553">
        <ele>390.34421</ele>
        <time>2022-06-18T08:48:32.000Z</time>
      </trkpt>
      <trkpt lat="45.90334" lon="4.67552">
        <ele>390.46336</ele>
        <time>2022-06-18T08:48:34.000Z</time>
      </trkpt>
      <trkpt lat="45.90336" lon="4.67551">
        <ele>390.69926</ele>
        <time>2022-06-18T08:48:35.000Z</time>
      </trkpt>
      <trkpt lat="45.90338" lon="4.67548">
        <ele>391.03419</ele>
        <time>2022-06-18T08:48:36.000Z</time>
      </trkpt>
      <trkpt lat="45.90339" lon="4.67546">
        <ele>391.42237</ele>
        <time>2022-06-18T08:48:37.000Z</time>
      </trkpt>
      <trkpt lat="45.90341" lon="4.67545">
        <ele>391.63615</ele>
        <time>2022-06-18T08:48:38.000Z</time>
      </trkpt>
      <trkpt lat="45.90344" lon="4.67544">
        <ele>391.67746</ele>
        <time>2022-06-18T08:48:40.000Z</time>
      </trkpt>
      <trkpt lat="45.90346" lon="4.67543">
        <ele>391.75449</ele>
        <time>2022-06-18T08:48:41.000Z</time>
      </trkpt>
      <trkpt lat="45.90349" lon="4.67541">
        <ele>391.85019</ele>
        <time>2022-06-18T08:48:42.000Z</time>
      </trkpt>
      <trkpt lat="45.9035" lon="4.6754">
        <ele>391.9947</ele>
        <time>2022-06-18T08:48:43.000Z</time>
      </trkpt>
      <trkpt lat="45.90352" lon="4.67538">
        <ele>392.15723</ele>
        <time>2022-06-18T08:48:44.000Z</time>
      </trkpt>
      <trkpt lat="45.90353" lon="4.67536">
        <ele>392.3004</ele>
        <time>2022-06-18T08:48:45.000Z</time>
      </trkpt>
      <trkpt lat="45.90355" lon="4.67533">
        <ele>392.67288</ele>
        <time>2022-06-18T08:48:47.000Z</time>
      </trkpt>
      <trkpt lat="45.90357" lon="4.67531">
        <ele>392.82171</ele>
        <time>2022-06-18T08:48:48.000Z</time>
      </trkpt>
      <trkpt lat="45.9036" lon="4.67529">
        <ele>392.92</ele>
        <time>2022-06-18T08:48:50.000Z</time>
      </trkpt>
      <trkpt lat="45.90363" lon="4.67528">
        <ele>392.94261</ele>
        <time>2022-06-18T08:48:52.000Z</time>
      </trkpt>
      <trkpt lat="45.90365" lon="4.67526">
        <ele>393.11669</ele>
        <time>2022-06-18T08:48:53.000Z</time>
      </trkpt>
      <trkpt lat="45.90367" lon="4.67522">
        <ele>393.69983</ele>
        <time>2022-06-18T08:48:55.000Z</time>
      </trkpt>
      <trkpt lat="45.90368" lon="4.67519">
        <ele>394.10241</ele>
        <time>2022-06-18T08:48:56.000Z</time>
      </trkpt>
      <trkpt lat="45.9037" lon="4.67517">
        <ele>394.48824</ele>
        <time>2022-06-18T08:48:57.000Z</time>
      </trkpt>
      <trkpt lat="45.90372" lon="4.67514">
        <ele>394.78262</ele>
        <time>2022-06-18T08:48:58.000Z</time>
      </trkpt>
      <trkpt lat="45.90373" lon="4.67513">
        <ele>395.0013</ele>
        <time>2022-06-18T08:48:59.000Z</time>
      </trkpt>
      <trkpt lat="45.90375" lon="4.67511">
        <ele>395.23542</ele>
        <time>2022-06-18T08:49:00.000Z</time>
      </trkpt>
      <trkpt lat="45.90376" lon="4.67509">
        <ele>395.47527</ele>
        <time>2022-06-18T08:49:01.000Z</time>
      </trkpt>
      <trkpt lat="45.90378" lon="4.67508">
        <ele>395.6226</ele>
        <time>2022-06-18T08:49:02.000Z</time>
      </trkpt>
      <trkpt lat="45.90379" lon="4.67507">
        <ele>395.72517</ele>
        <time>2022-06-18T08:49:03.000Z</time>
      </trkpt>
      <trkpt lat="45.90381" lon="4.67506">
        <ele>395.80721</ele>
        <time>2022-06-18T08:49:04.000Z</time>
      </trkpt>
      <trkpt lat="45.90383" lon="4.67504">
        <ele>395.95971</ele>
        <time>2022-06-18T08:49:05.000Z</time>
      </trkpt>
      <trkpt lat="45.90385" lon="4.67502">
        <ele>396.13618</ele>
        <time>2022-06-18T08:49:06.000Z</time>
      </trkpt>
      <trkpt lat="45.90386" lon="4.675">
        <ele>396.344</ele>
        <time>2022-06-18T08:49:07.000Z</time>
      </trkpt>
      <trkpt lat="45.90387" lon="4.67498">
        <ele>396.56499</ele>
        <time>2022-06-18T08:49:08.000Z</time>
      </trkpt>
      <trkpt lat="45.90388" lon="4.67496">
        <ele>396.75318</ele>
        <time>2022-06-18T08:49:09.000Z</time>
      </trkpt>
      <trkpt lat="45.90389" lon="4.67494">
        <ele>396.96018</ele>
        <time>2022-06-18T08:49:10.000Z</time>
      </trkpt>
      <trkpt lat="45.90391" lon="4.67492">
        <ele>397.13764</ele>
        <time>2022-06-18T08:49:11.000Z</time>
      </trkpt>
      <trkpt lat="45.90393" lon="4.6749">
        <ele>397.3314</ele>
        <time>2022-06-18T08:49:12.000Z</time>
      </trkpt>
      <trkpt lat="45.90395" lon="4.67487">
        <ele>397.5784</ele>
        <time>2022-06-18T08:49:13.000Z</time>
      </trkpt>
      <trkpt lat="45.90396" lon="4.67484">
        <ele>397.85033</ele>
        <time>2022-06-18T08:49:14.000Z</time>
      </trkpt>
      <trkpt lat="45.90398" lon="4.67482">
        <ele>398.09832</ele>
        <time>2022-06-18T08:49:15.000Z</time>
      </trkpt>
      <trkpt lat="45.90399" lon="4.67479">
        <ele>398.43245</ele>
        <time>2022-06-18T08:49:16.000Z</time>
      </trkpt>
      <trkpt lat="45.904" lon="4.67476">
        <ele>398.80213</ele>
        <time>2022-06-18T08:49:17.000Z</time>
      </trkpt>
      <trkpt lat="45.90402" lon="4.67473">
        <ele>399.15708</ele>
        <time>2022-06-18T08:49:18.000Z</time>
      </trkpt>
      <trkpt lat="45.90403" lon="4.6747">
        <ele>399.44032</ele>
        <time>2022-06-18T08:49:19.000Z</time>
      </trkpt>
      <trkpt lat="45.90405" lon="4.67467">
        <ele>399.64857</ele>
        <time>2022-06-18T08:49:20.000Z</time>
      </trkpt>
      <trkpt lat="45.90407" lon="4.67464">
        <ele>399.7993</ele>
        <time>2022-06-18T08:49:21.000Z</time>
      </trkpt>
      <trkpt lat="45.90409" lon="4.67461">
        <ele>399.87952</ele>
        <time>2022-06-18T08:49:22.000Z</time>
      </trkpt>
      <trkpt lat="45.9041" lon="4.67459">
        <ele>399.93328</ele>
        <time>2022-06-18T08:49:23.000Z</time>
      </trkpt>
      <trkpt lat="45.90412" lon="4.67456">
        <ele>399.9919</ele>
        <time>2022-06-18T08:49:24.000Z</time>
      </trkpt>
      <trkpt lat="45.90414" lon="4.67453">
        <ele>400.01446</ele>
        <time>2022-06-18T08:49:25.000Z</time>
      </trkpt>
      <trkpt lat="45.90416" lon="4.67452">
        <ele>399.9664</ele>
        <time>2022-06-18T08:49:26.000Z</time>
      </trkpt>
      <trkpt lat="45.90418" lon="4.67451">
        <ele>399.84969</ele>
        <time>2022-06-18T08:49:27.000Z</time>
      </trkpt>
      <trkpt lat="45.90421" lon="4.6745">
        <ele>399.66919</ele>
        <time>2022-06-18T08:49:28.000Z</time>
      </trkpt>
      <trkpt lat="45.90423" lon="4.6745">
        <ele>399.51758</ele>
        <time>2022-06-18T08:49:29.000Z</time>
      </trkpt>
      <trkpt lat="45.90425" lon="4.6745">
        <ele>399.38769</ele>
        <time>2022-06-18T08:49:30.000Z</time>
      </trkpt>
      <trkpt lat="45.90428" lon="4.67449">
        <ele>399.26345</ele>
        <time>2022-06-18T08:49:32.000Z</time>
      </trkpt>
      <trkpt lat="45.9043" lon="4.67446">
        <ele>399.37098</ele>
        <time>2022-06-18T08:49:34.000Z</time>
      </trkpt>
      <trkpt lat="45.90431" lon="4.67443">
        <ele>399.62737</ele>
        <time>2022-06-18T08:49:36.000Z</time>
      </trkpt>
      <trkpt lat="45.90433" lon="4.6744">
        <ele>399.8307</ele>
        <time>2022-06-18T08:49:38.000Z</time>
      </trkpt>
      <trkpt lat="45.90432" lon="4.67442">
        <ele>399.76361</ele>
        <time>2022-06-18T08:49:45.000Z</time>
      </trkpt>
      <trkpt lat="45.9043" lon="4.6744">
        <ele>400.01634</ele>
        <time>2022-06-18T08:49:51.000Z</time>
      </trkpt>
      <trkpt lat="45.90429" lon="4.67438">
        <ele>400.25131</ele>
        <time>2022-06-18T08:50:06.000Z</time>
      </trkpt>
      <trkpt lat="45.90429" lon="4.67434">
        <ele>400.51682</ele>
        <time>2022-06-18T08:52:00.000Z</time>
      </trkpt>
      <trkpt lat="45.90431" lon="4.67431">
        <ele>400.66498</ele>
        <time>2022-06-18T08:52:01.000Z</time>
      </trkpt>
      <trkpt lat="45.90433" lon="4.67427">
        <ele>400.84064</ele>
        <time>2022-06-18T08:52:02.000Z</time>
      </trkpt>
      <trkpt lat="45.90435" lon="4.67422">
        <ele>401.04344</ele>
        <time>2022-06-18T08:52:03.000Z</time>
      </trkpt>
      <trkpt lat="45.90437" lon="4.67417">
        <ele>401.24423</ele>
        <time>2022-06-18T08:52:04.000Z</time>
      </trkpt>
      <trkpt lat="45.90439" lon="4.67412">
        <ele>401.44408</ele>
        <time>2022-06-18T08:52:05.000Z</time>
      </trkpt>
      <trkpt lat="45.90439" lon="4.67407">
        <ele>401.62641</ele>
        <time>2022-06-18T08:52:06.000Z</time>
      </trkpt>
      <trkpt lat="45.9044" lon="4.67402">
        <ele>401.77261</ele>
        <time>2022-06-18T08:52:07.000Z</time>
      </trkpt>
      <trkpt lat="45.9044" lon="4.67396">
        <ele>401.84974</ele>
        <time>2022-06-18T08:52:08.000Z</time>
      </trkpt>
      <trkpt lat="45.90441" lon="4.6739">
        <ele>401.86108</ele>
        <time>2022-06-18T08:52:09.000Z</time>
      </trkpt>
      <trkpt lat="45.90439" lon="4.67382">
        <ele>401.95998</ele>
        <time>2022-06-18T08:52:10.000Z</time>
      </trkpt>
      <trkpt lat="45.90439" lon="4.67376">
        <ele>402.0328</ele>
        <time>2022-06-18T08:52:11.000Z</time>
      </trkpt>
      <trkpt lat="45.9044" lon="4.67369">
        <ele>402.00002</ele>
        <time>2022-06-18T08:52:12.000Z</time>
      </trkpt>
      <trkpt lat="45.90442" lon="4.67363">
        <ele>401.97721</ele>
        <time>2022-06-18T08:52:13.000Z</time>
      </trkpt>
      <trkpt lat="45.90443" lon="4.67356">
        <ele>401.99954</ele>
        <time>2022-06-18T08:52:14.000Z</time>
      </trkpt>
      <trkpt lat="45.90444" lon="4.6735">
        <ele>402.18045</ele>
        <time>2022-06-18T08:52:15.000Z</time>
      </trkpt>
      <trkpt lat="45.90445" lon="4.67343">
        <ele>402.3196</ele>
        <time>2022-06-18T08:52:16.000Z</time>
      </trkpt>
      <trkpt lat="45.90446" lon="4.67335">
        <ele>402.47506</ele>
        <time>2022-06-18T08:52:17.000Z</time>
      </trkpt>
      <trkpt lat="45.90449" lon="4.67328">
        <ele>402.6073</ele>
        <time>2022-06-18T08:52:18.000Z</time>
      </trkpt>
      <trkpt lat="45.90451" lon="4.67321">
        <ele>402.77287</ele>
        <time>2022-06-18T08:52:19.000Z</time>
      </trkpt>
      <trkpt lat="45.90452" lon="4.67313">
        <ele>403.00699</ele>
        <time>2022-06-18T08:52:20.000Z</time>
      </trkpt>
      <trkpt lat="45.90453" lon="4.67307">
        <ele>403.16131</ele>
        <time>2022-06-18T08:52:21.000Z</time>
      </trkpt>
      <trkpt lat="45.90456" lon="4.673">
        <ele>403.14387</ele>
        <time>2022-06-18T08:52:22.000Z</time>
      </trkpt>
      <trkpt lat="45.90458" lon="4.67293">
        <ele>403.10497</ele>
        <time>2022-06-18T08:52:23.000Z</time>
      </trkpt>
      <trkpt lat="45.90458" lon="4.67287">
        <ele>403.13138</ele>
        <time>2022-06-18T08:52:24.000Z</time>
      </trkpt>
      <trkpt lat="45.90459" lon="4.67281">
        <ele>403.20962</ele>
        <time>2022-06-18T08:52:25.000Z</time>
      </trkpt>
      <trkpt lat="45.90461" lon="4.67274">
        <ele>403.28177</ele>
        <time>2022-06-18T08:52:26.000Z</time>
      </trkpt>
      <trkpt lat="45.90463" lon="4.67268">
        <ele>403.5055</ele>
        <time>2022-06-18T08:52:27.000Z</time>
      </trkpt>
      <trkpt lat="45.90464" lon="4.67261">
        <ele>403.74726</ele>
        <time>2022-06-18T08:52:28.000Z</time>
      </trkpt>
      <trkpt lat="45.90466" lon="4.67256">
        <ele>403.97945</ele>
        <time>2022-06-18T08:52:29.000Z</time>
      </trkpt>
      <trkpt lat="45.90467" lon="4.67249">
        <ele>404.32269</ele>
        <time>2022-06-18T08:52:30.000Z</time>
      </trkpt>
      <trkpt lat="45.90469" lon="4.67242">
        <ele>404.54395</ele>
        <time>2022-06-18T08:52:31.000Z</time>
      </trkpt>
      <trkpt lat="45.9047" lon="4.67235">
        <ele>404.7355</ele>
        <time>2022-06-18T08:52:32.000Z</time>
      </trkpt>
      <trkpt lat="45.90473" lon="4.67228">
        <ele>404.87172</ele>
        <time>2022-06-18T08:52:33.000Z</time>
      </trkpt>
      <trkpt lat="45.90475" lon="4.67222">
        <ele>405.01525</ele>
        <time>2022-06-18T08:52:34.000Z</time>
      </trkpt>
      <trkpt lat="45.90477" lon="4.67216">
        <ele>405.19421</ele>
        <time>2022-06-18T08:52:35.000Z</time>
      </trkpt>
      <trkpt lat="45.9048" lon="4.6721">
        <ele>405.38474</ele>
        <time>2022-06-18T08:52:36.000Z</time>
      </trkpt>
      <trkpt lat="45.90483" lon="4.67204">
        <ele>405.55699</ele>
        <time>2022-06-18T08:52:37.000Z</time>
      </trkpt>
      <trkpt lat="45.90484" lon="4.67197">
        <ele>405.85085</ele>
        <time>2022-06-18T08:52:38.000Z</time>
      </trkpt>
      <trkpt lat="45.90487" lon="4.67192">
        <ele>406.07424</ele>
        <time>2022-06-18T08:52:39.000Z</time>
      </trkpt>
      <trkpt lat="45.90488" lon="4.67186">
        <ele>406.30355</ele>
        <time>2022-06-18T08:52:40.000Z</time>
      </trkpt>
      <trkpt lat="45.9049" lon="4.67181">
        <ele>406.50725</ele>
        <time>2022-06-18T08:52:41.000Z</time>
      </trkpt>
      <trkpt lat="45.90492" lon="4.67174">
        <ele>406.69823</ele>
        <time>2022-06-18T08:52:42.000Z</time>
      </trkpt>
      <trkpt lat="45.90492" lon="4.67168">
        <ele>406.95391</ele>
        <time>2022-06-18T08:52:43.000Z</time>
      </trkpt>
      <trkpt lat="45.90494" lon="4.67162">
        <ele>407.05894</ele>
        <time>2022-06-18T08:52:44.000Z</time>
      </trkpt>
      <trkpt lat="45.90496" lon="4.67155">
        <ele>407.13113</ele>
        <time>2022-06-18T08:52:45.000Z</time>
      </trkpt>
      <trkpt lat="45.90498" lon="4.6715">
        <ele>407.21554</ele>
        <time>2022-06-18T08:52:46.000Z</time>
      </trkpt>
      <trkpt lat="45.905" lon="4.67142">
        <ele>407.31726</ele>
        <time>2022-06-18T08:52:47.000Z</time>
      </trkpt>
      <trkpt lat="45.90502" lon="4.67136">
        <ele>407.40675</ele>
        <time>2022-06-18T08:52:48.000Z</time>
      </trkpt>
      <trkpt lat="45.90503" lon="4.67128">
        <ele>407.59185</ele>
        <time>2022-06-18T08:52:49.000Z</time>
      </trkpt>
      <trkpt lat="45.90506" lon="4.67122">
        <ele>407.67429</ele>
        <time>2022-06-18T08:52:50.000Z</time>
      </trkpt>
      <trkpt lat="45.90509" lon="4.67117">
        <ele>407.71067</ele>
        <time>2022-06-18T08:52:51.000Z</time>
      </trkpt>
      <trkpt lat="45.90511" lon="4.6711">
        <ele>407.86396</ele>
        <time>2022-06-18T08:52:52.000Z</time>
      </trkpt>
      <trkpt lat="45.90513" lon="4.67104">
        <ele>407.94797</ele>
        <time>2022-06-18T08:52:53.000Z</time>
      </trkpt>
      <trkpt lat="45.90516" lon="4.67098">
        <ele>408.06151</ele>
        <time>2022-06-18T08:52:54.000Z</time>
      </trkpt>
      <trkpt lat="45.90518" lon="4.67092">
        <ele>408.13464</ele>
        <time>2022-06-18T08:52:55.000Z</time>
      </trkpt>
      <trkpt lat="45.90521" lon="4.67086">
        <ele>408.22013</ele>
        <time>2022-06-18T08:52:56.000Z</time>
      </trkpt>
      <trkpt lat="45.90523" lon="4.67079">
        <ele>408.33405</ele>
        <time>2022-06-18T08:52:57.000Z</time>
      </trkpt>
      <trkpt lat="45.90526" lon="4.67073">
        <ele>408.43951</ele>
        <time>2022-06-18T08:52:58.000Z</time>
      </trkpt>
      <trkpt lat="45.90528" lon="4.67067">
        <ele>408.58307</ele>
        <time>2022-06-18T08:52:59.000Z</time>
      </trkpt>
      <trkpt lat="45.90529" lon="4.6706">
        <ele>408.74302</ele>
        <time>2022-06-18T08:53:00.000Z</time>
      </trkpt>
      <trkpt lat="45.90531" lon="4.67055">
        <ele>408.81508</ele>
        <time>2022-06-18T08:53:01.000Z</time>
      </trkpt>
      <trkpt lat="45.90532" lon="4.6705">
        <ele>408.86493</ele>
        <time>2022-06-18T08:53:02.000Z</time>
      </trkpt>
      <trkpt lat="45.90534" lon="4.67045">
        <ele>408.89862</ele>
        <time>2022-06-18T08:53:03.000Z</time>
      </trkpt>
      <trkpt lat="45.90534" lon="4.67039">
        <ele>408.92683</ele>
        <time>2022-06-18T08:53:04.000Z</time>
      </trkpt>
      <trkpt lat="45.90534" lon="4.67035">
        <ele>408.92982</ele>
        <time>2022-06-18T08:53:05.000Z</time>
      </trkpt>
      <trkpt lat="45.90532" lon="4.67031">
        <ele>408.9203</ele>
        <time>2022-06-18T08:53:06.000Z</time>
      </trkpt>
      <trkpt lat="45.9053" lon="4.6703">
        <ele>408.93349</ele>
        <time>2022-06-18T08:53:07.000Z</time>
      </trkpt>
      <trkpt lat="45.90527" lon="4.6703">
        <ele>408.9817</ele>
        <time>2022-06-18T08:53:08.000Z</time>
      </trkpt>
      <trkpt lat="45.90525" lon="4.67029">
        <ele>409.0305</ele>
        <time>2022-06-18T08:53:09.000Z</time>
      </trkpt>
      <trkpt lat="45.90523" lon="4.67027">
        <ele>409.07879</ele>
        <time>2022-06-18T08:53:11.000Z</time>
      </trkpt>
      <trkpt lat="45.90519" lon="4.67027">
        <ele>409.20995</ele>
        <time>2022-06-18T08:54:02.000Z</time>
      </trkpt>
      <trkpt lat="45.90516" lon="4.67027">
        <ele>409.30472</ele>
        <time>2022-06-18T08:54:03.000Z</time>
      </trkpt>
      <trkpt lat="45.90514" lon="4.67026">
        <ele>409.40323</ele>
        <time>2022-06-18T08:54:04.000Z</time>
      </trkpt>
      <trkpt lat="45.90511" lon="4.67025">
        <ele>409.5178</ele>
        <time>2022-06-18T08:54:05.000Z</time>
      </trkpt>
      <trkpt lat="45.90509" lon="4.67024">
        <ele>409.63612</ele>
        <time>2022-06-18T08:54:06.000Z</time>
      </trkpt>
      <trkpt lat="45.90506" lon="4.67023">
        <ele>409.74509</ele>
        <time>2022-06-18T08:54:07.000Z</time>
      </trkpt>
      <trkpt lat="45.90506" lon="4.67023">
        <ele>409.74509</ele>
        <time>2022-06-18T08:54:07.000Z</time>
      </trkpt>
      <trkpt lat="45.90505" lon="4.67022">
        <ele>409.82601</ele>
        <time>2022-06-18T08:54:08.000Z</time>
      </trkpt>
      <trkpt lat="45.90503" lon="4.67022">
        <ele>409.911</ele>
        <time>2022-06-18T08:54:09.000Z</time>
      </trkpt>
      <trkpt lat="45.90501" lon="4.67023">
        <ele>410.0014</ele>
        <time>2022-06-18T08:54:10.000Z</time>
      </trkpt>
      <trkpt lat="45.90499" lon="4.67023">
        <ele>410.09202</ele>
        <time>2022-06-18T08:54:11.000Z</time>
      </trkpt>
      <trkpt lat="45.90496" lon="4.67024">
        <ele>410.19884</ele>
        <time>2022-06-18T08:54:12.000Z</time>
      </trkpt>
      <trkpt lat="45.90494" lon="4.67025">
        <ele>410.31416</ele>
        <time>2022-06-18T08:54:13.000Z</time>
      </trkpt>
      <trkpt lat="45.90492" lon="4.67025">
        <ele>410.41592</ele>
        <time>2022-06-18T08:54:14.000Z</time>
      </trkpt>
      <trkpt lat="45.90488" lon="4.67023">
        <ele>410.62665</ele>
        <time>2022-06-18T08:54:16.000Z</time>
      </trkpt>
      <trkpt lat="45.90485" lon="4.67021">
        <ele>410.77184</ele>
        <time>2022-06-18T08:54:17.000Z</time>
      </trkpt>
      <trkpt lat="45.90482" lon="4.67021">
        <ele>410.89638</ele>
        <time>2022-06-18T08:54:18.000Z</time>
      </trkpt>
      <trkpt lat="45.9048" lon="4.67021">
        <ele>411.00065</ele>
        <time>2022-06-18T08:54:19.000Z</time>
      </trkpt>
      <trkpt lat="45.90478" lon="4.67022">
        <ele>411.10864</ele>
        <time>2022-06-18T08:54:20.000Z</time>
      </trkpt>
      <trkpt lat="45.90474" lon="4.67023">
        <ele>411.25944</ele>
        <time>2022-06-18T08:54:21.000Z</time>
      </trkpt>
      <trkpt lat="45.9047" lon="4.67023">
        <ele>411.43639</ele>
        <time>2022-06-18T08:54:22.000Z</time>
      </trkpt>
      <trkpt lat="45.90466" lon="4.67022">
        <ele>411.64973</ele>
        <time>2022-06-18T08:54:23.000Z</time>
      </trkpt>
      <trkpt lat="45.90461" lon="4.6702">
        <ele>411.8609</ele>
        <time>2022-06-18T08:54:24.000Z</time>
      </trkpt>
      <trkpt lat="45.90457" lon="4.67018">
        <ele>412.08406</ele>
        <time>2022-06-18T08:54:25.000Z</time>
      </trkpt>
      <trkpt lat="45.90453" lon="4.67016">
        <ele>412.32605</ele>
        <time>2022-06-18T08:54:26.000Z</time>
      </trkpt>
      <trkpt lat="45.9045" lon="4.67015">
        <ele>412.54051</ele>
        <time>2022-06-18T08:54:27.000Z</time>
      </trkpt>
      <trkpt lat="45.90447" lon="4.67013">
        <ele>412.74541</ele>
        <time>2022-06-18T08:54:28.000Z</time>
      </trkpt>
      <trkpt lat="45.90444" lon="4.67011">
        <ele>412.98863</ele>
        <time>2022-06-18T08:54:29.000Z</time>
      </trkpt>
      <trkpt lat="45.90441" lon="4.67009">
        <ele>413.24794</ele>
        <time>2022-06-18T08:54:30.000Z</time>
      </trkpt>
      <trkpt lat="45.90438" lon="4.67008">
        <ele>413.47178</ele>
        <time>2022-06-18T08:54:31.000Z</time>
      </trkpt>
      <trkpt lat="45.90436" lon="4.67006">
        <ele>413.64591</ele>
        <time>2022-06-18T08:54:32.000Z</time>
      </trkpt>
      <trkpt lat="45.90434" lon="4.67004">
        <ele>413.76966</ele>
        <time>2022-06-18T08:54:33.000Z</time>
      </trkpt>
      <trkpt lat="45.90431" lon="4.67003">
        <ele>413.8564</ele>
        <time>2022-06-18T08:54:34.000Z</time>
      </trkpt>
      <trkpt lat="45.90429" lon="4.67002">
        <ele>413.90314</ele>
        <time>2022-06-18T08:54:35.000Z</time>
      </trkpt>
      <trkpt lat="45.90426" lon="4.67">
        <ele>413.92337</ele>
        <time>2022-06-18T08:54:36.000Z</time>
      </trkpt>
      <trkpt lat="45.90424" lon="4.66999">
        <ele>413.91568</ele>
        <time>2022-06-18T08:54:37.000Z</time>
      </trkpt>
      <trkpt lat="45.90422" lon="4.66998">
        <ele>413.90595</ele>
        <time>2022-06-18T08:54:38.000Z</time>
      </trkpt>
      <trkpt lat="45.90419" lon="4.66998">
        <ele>413.90925</ele>
        <time>2022-06-18T08:54:39.000Z</time>
      </trkpt>
      <trkpt lat="45.90417" lon="4.66997">
        <ele>413.94117</ele>
        <time>2022-06-18T08:54:40.000Z</time>
      </trkpt>
      <trkpt lat="45.90414" lon="4.66996">
        <ele>414.00792</ele>
        <time>2022-06-18T08:54:41.000Z</time>
      </trkpt>
      <trkpt lat="45.90411" lon="4.66994">
        <ele>414.09509</ele>
        <time>2022-06-18T08:54:42.000Z</time>
      </trkpt>
      <trkpt lat="45.90408" lon="4.66993">
        <ele>414.21669</ele>
        <time>2022-06-18T08:54:43.000Z</time>
      </trkpt>
      <trkpt lat="45.90406" lon="4.66992">
        <ele>414.37019</ele>
        <time>2022-06-18T08:54:44.000Z</time>
      </trkpt>
      <trkpt lat="45.90403" lon="4.66991">
        <ele>414.51714</ele>
        <time>2022-06-18T08:54:45.000Z</time>
      </trkpt>
      <trkpt lat="45.904" lon="4.6699">
        <ele>414.69599</ele>
        <time>2022-06-18T08:54:46.000Z</time>
      </trkpt>
      <trkpt lat="45.90397" lon="4.66989">
        <ele>414.85937</ele>
        <time>2022-06-18T08:54:47.000Z</time>
      </trkpt>
      <trkpt lat="45.90394" lon="4.66989">
        <ele>415.00156</ele>
        <time>2022-06-18T08:54:48.000Z</time>
      </trkpt>
      <trkpt lat="45.9039" lon="4.66988">
        <ele>415.11726</ele>
        <time>2022-06-18T08:54:49.000Z</time>
      </trkpt>
      <trkpt lat="45.90387" lon="4.66987">
        <ele>415.2216</ele>
        <time>2022-06-18T08:54:50.000Z</time>
      </trkpt>
      <trkpt lat="45.90383" lon="4.66986">
        <ele>415.31391</ele>
        <time>2022-06-18T08:54:51.000Z</time>
      </trkpt>
      <trkpt lat="45.90379" lon="4.66985">
        <ele>415.40275</ele>
        <time>2022-06-18T08:54:52.000Z</time>
      </trkpt>
      <trkpt lat="45.90375" lon="4.66984">
        <ele>415.49172</ele>
        <time>2022-06-18T08:54:53.000Z</time>
      </trkpt>
      <trkpt lat="45.90372" lon="4.66983">
        <ele>415.59633</ele>
        <time>2022-06-18T08:54:54.000Z</time>
      </trkpt>
      <trkpt lat="45.90369" lon="4.66982">
        <ele>415.713</ele>
        <time>2022-06-18T08:54:55.000Z</time>
      </trkpt>
      <trkpt lat="45.90365" lon="4.66981">
        <ele>415.85112</ele>
        <time>2022-06-18T08:54:56.000Z</time>
      </trkpt>
      <trkpt lat="45.90362" lon="4.66981">
        <ele>416.0046</ele>
        <time>2022-06-18T08:54:57.000Z</time>
      </trkpt>
      <trkpt lat="45.90359" lon="4.66981">
        <ele>416.16799</ele>
        <time>2022-06-18T08:54:58.000Z</time>
      </trkpt>
      <trkpt lat="45.90356" lon="4.6698">
        <ele>416.28424</ele>
        <time>2022-06-18T08:54:59.000Z</time>
      </trkpt>
      <trkpt lat="45.90354" lon="4.6698">
        <ele>416.37076</ele>
        <time>2022-06-18T08:55:00.000Z</time>
      </trkpt>
      <trkpt lat="45.90352" lon="4.66981">
        <ele>416.53415</ele>
        <time>2022-06-18T08:55:02.000Z</time>
      </trkpt>
      <trkpt lat="45.90349" lon="4.66983">
        <ele>416.69734</ele>
        <time>2022-06-18T08:55:04.000Z</time>
      </trkpt>
      <trkpt lat="45.90347" lon="4.6698">
        <ele>416.72988</ele>
        <time>2022-06-18T08:55:07.000Z</time>
      </trkpt>
      <trkpt lat="45.90343" lon="4.6698">
        <ele>416.86231</ele>
        <time>2022-06-18T08:55:09.000Z</time>
      </trkpt>
      <trkpt lat="45.90341" lon="4.6698">
        <ele>416.96649</ele>
        <time>2022-06-18T08:55:10.000Z</time>
      </trkpt>
      <trkpt lat="45.90339" lon="4.66981">
        <ele>417.0472</ele>
        <time>2022-06-18T08:55:11.000Z</time>
      </trkpt>
      <trkpt lat="45.90337" lon="4.66981">
        <ele>417.12745</ele>
        <time>2022-06-18T08:55:12.000Z</time>
      </trkpt>
      <trkpt lat="45.90335" lon="4.66981">
        <ele>417.21753</ele>
        <time>2022-06-18T08:55:13.000Z</time>
      </trkpt>
      <trkpt lat="45.90333" lon="4.66982">
        <ele>417.33609</ele>
        <time>2022-06-18T08:55:14.000Z</time>
      </trkpt>
      <trkpt lat="45.90331" lon="4.66984">
        <ele>417.48908</ele>
        <time>2022-06-18T08:55:15.000Z</time>
      </trkpt>
      <trkpt lat="45.90329" lon="4.66985">
        <ele>417.65037</ele>
        <time>2022-06-18T08:55:16.000Z</time>
      </trkpt>
      <trkpt lat="45.90327" lon="4.66987">
        <ele>417.81009</ele>
        <time>2022-06-18T08:55:17.000Z</time>
      </trkpt>
      <trkpt lat="45.90325" lon="4.66988">
        <ele>417.95917</ele>
        <time>2022-06-18T08:55:18.000Z</time>
      </trkpt>
      <trkpt lat="45.90324" lon="4.66989">
        <ele>418.13451</ele>
        <time>2022-06-18T08:55:19.000Z</time>
      </trkpt>
      <trkpt lat="45.90322" lon="4.6699">
        <ele>418.3299</ele>
        <time>2022-06-18T08:55:20.000Z</time>
      </trkpt>
      <trkpt lat="45.9032" lon="4.66992">
        <ele>418.52874</ele>
        <time>2022-06-18T08:55:21.000Z</time>
      </trkpt>
      <trkpt lat="45.90318" lon="4.66993">
        <ele>418.71469</ele>
        <time>2022-06-18T08:55:22.000Z</time>
      </trkpt>
      <trkpt lat="45.90316" lon="4.66996">
        <ele>418.86356</ele>
        <time>2022-06-18T08:55:23.000Z</time>
      </trkpt>
      <trkpt lat="45.90315" lon="4.66998">
        <ele>418.94747</ele>
        <time>2022-06-18T08:55:24.000Z</time>
      </trkpt>
      <trkpt lat="45.90313" lon="4.67001">
        <ele>418.9769</ele>
        <time>2022-06-18T08:55:26.000Z</time>
      </trkpt>
      <trkpt lat="45.90312" lon="4.67005">
        <ele>418.94586</ele>
        <time>2022-06-18T08:55:28.000Z</time>
      </trkpt>
      <trkpt lat="45.9031" lon="4.67008">
        <ele>418.95463</ele>
        <time>2022-06-18T08:55:29.000Z</time>
      </trkpt>
      <trkpt lat="45.90308" lon="4.6701">
        <ele>418.98824</ele>
        <time>2022-06-18T08:55:30.000Z</time>
      </trkpt>
      <trkpt lat="45.90306" lon="4.67012">
        <ele>419.02762</ele>
        <time>2022-06-18T08:55:31.000Z</time>
      </trkpt>
      <trkpt lat="45.90304" lon="4.67013">
        <ele>419.07654</ele>
        <time>2022-06-18T08:55:32.000Z</time>
      </trkpt>
      <trkpt lat="45.90302" lon="4.67015">
        <ele>419.12867</ele>
        <time>2022-06-18T08:55:33.000Z</time>
      </trkpt>
      <trkpt lat="45.903" lon="4.67017">
        <ele>419.19274</ele>
        <time>2022-06-18T08:55:34.000Z</time>
      </trkpt>
      <trkpt lat="45.90297" lon="4.67019">
        <ele>419.27885</ele>
        <time>2022-06-18T08:55:35.000Z</time>
      </trkpt>
      <trkpt lat="45.90294" lon="4.6702">
        <ele>419.39917</ele>
        <time>2022-06-18T08:55:36.000Z</time>
      </trkpt>
      <trkpt lat="45.90291" lon="4.6702">
        <ele>419.52101</ele>
        <time>2022-06-18T08:55:37.000Z</time>
      </trkpt>
      <trkpt lat="45.90289" lon="4.67022">
        <ele>419.65074</ele>
        <time>2022-06-18T08:55:38.000Z</time>
      </trkpt>
      <trkpt lat="45.90285" lon="4.67024">
        <ele>419.7968</ele>
        <time>2022-06-18T08:55:39.000Z</time>
      </trkpt>
      <trkpt lat="45.90282" lon="4.67026">
        <ele>419.9326</ele>
        <time>2022-06-18T08:55:40.000Z</time>
      </trkpt>
      <trkpt lat="45.90279" lon="4.67027">
        <ele>420.06501</ele>
        <time>2022-06-18T08:55:41.000Z</time>
      </trkpt>
      <trkpt lat="45.90276" lon="4.67029">
        <ele>420.19443</ele>
        <time>2022-06-18T08:55:42.000Z</time>
      </trkpt>
      <trkpt lat="45.90273" lon="4.67031">
        <ele>420.30218</ele>
        <time>2022-06-18T08:55:43.000Z</time>
      </trkpt>
      <trkpt lat="45.90271" lon="4.67032">
        <ele>420.38679</ele>
        <time>2022-06-18T08:55:44.000Z</time>
      </trkpt>
      <trkpt lat="45.90268" lon="4.67034">
        <ele>420.4747</ele>
        <time>2022-06-18T08:55:45.000Z</time>
      </trkpt>
      <trkpt lat="45.90266" lon="4.67035">
        <ele>420.5596</ele>
        <time>2022-06-18T08:55:46.000Z</time>
      </trkpt>
      <trkpt lat="45.90263" lon="4.67036">
        <ele>420.66029</ele>
        <time>2022-06-18T08:55:47.000Z</time>
      </trkpt>
      <trkpt lat="45.90259" lon="4.67037">
        <ele>420.78555</ele>
        <time>2022-06-18T08:55:48.000Z</time>
      </trkpt>
      <trkpt lat="45.90255" lon="4.67038">
        <ele>420.93402</ele>
        <time>2022-06-18T08:55:49.000Z</time>
      </trkpt>
      <trkpt lat="45.9025" lon="4.67038">
        <ele>421.07911</ele>
        <time>2022-06-18T08:55:50.000Z</time>
      </trkpt>
      <trkpt lat="45.90246" lon="4.67039">
        <ele>421.21796</ele>
        <time>2022-06-18T08:55:51.000Z</time>
      </trkpt>
      <trkpt lat="45.90242" lon="4.6704">
        <ele>421.34301</ele>
        <time>2022-06-18T08:55:52.000Z</time>
      </trkpt>
      <trkpt lat="45.90238" lon="4.6704">
        <ele>421.47426</ele>
        <time>2022-06-18T08:55:53.000Z</time>
      </trkpt>
      <trkpt lat="45.90234" lon="4.6704">
        <ele>421.59852</ele>
        <time>2022-06-18T08:55:54.000Z</time>
      </trkpt>
      <trkpt lat="45.90231" lon="4.6704">
        <ele>421.69786</ele>
        <time>2022-06-18T08:55:55.000Z</time>
      </trkpt>
      <trkpt lat="45.90228" lon="4.6704">
        <ele>421.79283</ele>
        <time>2022-06-18T08:55:56.000Z</time>
      </trkpt>
      <trkpt lat="45.90225" lon="4.67039">
        <ele>421.88079</ele>
        <time>2022-06-18T08:55:57.000Z</time>
      </trkpt>
      <trkpt lat="45.90222" lon="4.67038">
        <ele>421.96732</ele>
        <time>2022-06-18T08:55:58.000Z</time>
      </trkpt>
      <trkpt lat="45.90218" lon="4.67037">
        <ele>422.09115</ele>
        <time>2022-06-18T08:55:59.000Z</time>
      </trkpt>
      <trkpt lat="45.90214" lon="4.67036">
        <ele>422.22414</ele>
        <time>2022-06-18T08:56:00.000Z</time>
      </trkpt>
      <trkpt lat="45.9021" lon="4.67035">
        <ele>422.33181</ele>
        <time>2022-06-18T08:56:01.000Z</time>
      </trkpt>
      <trkpt lat="45.90208" lon="4.67034">
        <ele>422.43995</ele>
        <time>2022-06-18T08:56:02.000Z</time>
      </trkpt>
      <trkpt lat="45.90205" lon="4.67033">
        <ele>422.55894</ele>
        <time>2022-06-18T08:56:03.000Z</time>
      </trkpt>
      <trkpt lat="45.90202" lon="4.6703">
        <ele>422.68326</ele>
        <time>2022-06-18T08:56:04.000Z</time>
      </trkpt>
      <trkpt lat="45.90198" lon="4.67027">
        <ele>422.81186</ele>
        <time>2022-06-18T08:56:05.000Z</time>
      </trkpt>
      <trkpt lat="45.90195" lon="4.67024">
        <ele>422.93298</ele>
        <time>2022-06-18T08:56:06.000Z</time>
      </trkpt>
      <trkpt lat="45.90193" lon="4.67022">
        <ele>423.03978</ele>
        <time>2022-06-18T08:56:07.000Z</time>
      </trkpt>
      <trkpt lat="45.9019" lon="4.67019">
        <ele>423.1345</ele>
        <time>2022-06-18T08:56:08.000Z</time>
      </trkpt>
      <trkpt lat="45.90187" lon="4.67017">
        <ele>423.22696</ele>
        <time>2022-06-18T08:56:09.000Z</time>
      </trkpt>
      <trkpt lat="45.90184" lon="4.67015">
        <ele>423.30728</ele>
        <time>2022-06-18T08:56:10.000Z</time>
      </trkpt>
      <trkpt lat="45.90181" lon="4.67013">
        <ele>423.38406</ele>
        <time>2022-06-18T08:56:11.000Z</time>
      </trkpt>
      <trkpt lat="45.90179" lon="4.67011">
        <ele>423.45523</ele>
        <time>2022-06-18T08:56:12.000Z</time>
      </trkpt>
      <trkpt lat="45.90176" lon="4.67008">
        <ele>423.5195</ele>
        <time>2022-06-18T08:56:13.000Z</time>
      </trkpt>
      <trkpt lat="45.90174" lon="4.67007">
        <ele>423.56628</ele>
        <time>2022-06-18T08:56:14.000Z</time>
      </trkpt>
      <trkpt lat="45.90172" lon="4.67005">
        <ele>423.61095</ele>
        <time>2022-06-18T08:56:15.000Z</time>
      </trkpt>
      <trkpt lat="45.90169" lon="4.67004">
        <ele>423.67517</ele>
        <time>2022-06-18T08:56:16.000Z</time>
      </trkpt>
      <trkpt lat="45.90167" lon="4.67003">
        <ele>423.76433</ele>
        <time>2022-06-18T08:56:17.000Z</time>
      </trkpt>
      <trkpt lat="45.90164" lon="4.67002">
        <ele>423.87049</ele>
        <time>2022-06-18T08:56:18.000Z</time>
      </trkpt>
      <trkpt lat="45.90162" lon="4.67001">
        <ele>423.96587</ele>
        <time>2022-06-18T08:56:19.000Z</time>
      </trkpt>
      <trkpt lat="45.90159" lon="4.67">
        <ele>424.08683</ele>
        <time>2022-06-18T08:56:20.000Z</time>
      </trkpt>
      <trkpt lat="45.90157" lon="4.66999">
        <ele>424.18021</ele>
        <time>2022-06-18T08:56:21.000Z</time>
      </trkpt>
      <trkpt lat="45.90155" lon="4.66997">
        <ele>424.25101</ele>
        <time>2022-06-18T08:56:22.000Z</time>
      </trkpt>
      <trkpt lat="45.90152" lon="4.66995">
        <ele>424.32227</ele>
        <time>2022-06-18T08:56:23.000Z</time>
      </trkpt>
      <trkpt lat="45.9015" lon="4.66993">
        <ele>424.38903</ele>
        <time>2022-06-18T08:56:24.000Z</time>
      </trkpt>
      <trkpt lat="45.90148" lon="4.66992">
        <ele>424.45191</ele>
        <time>2022-06-18T08:56:25.000Z</time>
      </trkpt>
      <trkpt lat="45.90146" lon="4.6699">
        <ele>424.50632</ele>
        <time>2022-06-18T08:56:26.000Z</time>
      </trkpt>
      <trkpt lat="45.90145" lon="4.66989">
        <ele>424.56022</ele>
        <time>2022-06-18T08:56:27.000Z</time>
      </trkpt>
      <trkpt lat="45.90141" lon="4.66988">
        <ele>424.66222</ele>
        <time>2022-06-18T08:56:29.000Z</time>
      </trkpt>
      <trkpt lat="45.90139" lon="4.66986">
        <ele>424.72024</ele>
        <time>2022-06-18T08:56:31.000Z</time>
      </trkpt>
      <trkpt lat="45.90137" lon="4.66985">
        <ele>424.7579</ele>
        <time>2022-06-18T08:56:32.000Z</time>
      </trkpt>
      <trkpt lat="45.90135" lon="4.66981">
        <ele>424.75126</ele>
        <time>2022-06-18T08:56:34.000Z</time>
      </trkpt>
      <trkpt lat="45.90135" lon="4.66979">
        <ele>424.69873</ele>
        <time>2022-06-18T08:56:36.000Z</time>
      </trkpt>
      <trkpt lat="45.90136" lon="4.66982">
        <ele>424.74445</ele>
        <time>2022-06-18T08:56:40.000Z</time>
      </trkpt>
      <trkpt lat="45.90135" lon="4.66984">
        <ele>424.82855</ele>
        <time>2022-06-18T08:56:46.000Z</time>
      </trkpt>
      <trkpt lat="45.90133" lon="4.66983">
        <ele>424.85284</ele>
        <time>2022-06-18T08:58:19.000Z</time>
      </trkpt>
      <trkpt lat="45.90135" lon="4.66981">
        <ele>424.74973</ele>
        <time>2022-06-18T08:59:42.000Z</time>
      </trkpt>
      <trkpt lat="45.90138" lon="4.66982">
        <ele>424.67894</ele>
        <time>2022-06-18T08:59:44.000Z</time>
      </trkpt>
      <trkpt lat="45.9014" lon="4.66985">
        <ele>424.66632</ele>
        <time>2022-06-18T08:59:46.000Z</time>
      </trkpt>
      <trkpt lat="45.90142" lon="4.66989">
        <ele>424.65706</ele>
        <time>2022-06-18T08:59:48.000Z</time>
      </trkpt>
      <trkpt lat="45.90144" lon="4.66991">
        <ele>424.62644</ele>
        <time>2022-06-18T08:59:49.000Z</time>
      </trkpt>
      <trkpt lat="45.90147" lon="4.66993">
        <ele>424.54768</ele>
        <time>2022-06-18T08:59:51.000Z</time>
      </trkpt>
      <trkpt lat="45.90149" lon="4.66994">
        <ele>424.48862</ele>
        <time>2022-06-18T08:59:52.000Z</time>
      </trkpt>
      <trkpt lat="45.90151" lon="4.66996">
        <ele>424.41648</ele>
        <time>2022-06-18T08:59:53.000Z</time>
      </trkpt>
      <trkpt lat="45.90153" lon="4.66998">
        <ele>424.33632</ele>
        <time>2022-06-18T08:59:54.000Z</time>
      </trkpt>
      <trkpt lat="45.90155" lon="4.66999">
        <ele>424.2706</ele>
        <time>2022-06-18T08:59:55.000Z</time>
      </trkpt>
      <trkpt lat="45.90157" lon="4.67">
        <ele>424.19277</ele>
        <time>2022-06-18T08:59:56.000Z</time>
      </trkpt>
      <trkpt lat="45.90159" lon="4.67002">
        <ele>424.09924</ele>
        <time>2022-06-18T08:59:57.000Z</time>
      </trkpt>
      <trkpt lat="45.90162" lon="4.67003">
        <ele>423.99791</ele>
        <time>2022-06-18T08:59:58.000Z</time>
      </trkpt>
      <trkpt lat="45.90165" lon="4.67005">
        <ele>423.88761</ele>
        <time>2022-06-18T08:59:59.000Z</time>
      </trkpt>
      <trkpt lat="45.90167" lon="4.67007">
        <ele>423.79588</ele>
        <time>2022-06-18T09:00:00.000Z</time>
      </trkpt>
      <trkpt lat="45.9017" lon="4.6701">
        <ele>423.7314</ele>
        <time>2022-06-18T09:00:01.000Z</time>
      </trkpt>
      <trkpt lat="45.90173" lon="4.67013">
        <ele>423.66016</ele>
        <time>2022-06-18T09:00:02.000Z</time>
      </trkpt>
      <trkpt lat="45.90175" lon="4.67016">
        <ele>423.5811</ele>
        <time>2022-06-18T09:00:03.000Z</time>
      </trkpt>
      <trkpt lat="45.90178" lon="4.67019">
        <ele>423.49411</ele>
        <time>2022-06-18T09:00:04.000Z</time>
      </trkpt>
      <trkpt lat="45.90181" lon="4.67021">
        <ele>423.40754</ele>
        <time>2022-06-18T09:00:05.000Z</time>
      </trkpt>
      <trkpt lat="45.90184" lon="4.67024">
        <ele>423.31171</ele>
        <time>2022-06-18T09:00:06.000Z</time>
      </trkpt>
      <trkpt lat="45.90187" lon="4.67026">
        <ele>423.21385</ele>
        <time>2022-06-18T09:00:07.000Z</time>
      </trkpt>
      <trkpt lat="45.9019" lon="4.67028">
        <ele>423.10826</ele>
        <time>2022-06-18T09:00:08.000Z</time>
      </trkpt>
      <trkpt lat="45.90193" lon="4.6703">
        <ele>422.9893</ele>
        <time>2022-06-18T09:00:09.000Z</time>
      </trkpt>
      <trkpt lat="45.90196" lon="4.67032">
        <ele>422.86715</ele>
        <time>2022-06-18T09:00:10.000Z</time>
      </trkpt>
      <trkpt lat="45.90198" lon="4.67034">
        <ele>422.79031</ele>
        <time>2022-06-18T09:00:11.000Z</time>
      </trkpt>
      <trkpt lat="45.90201" lon="4.67036">
        <ele>422.69163</ele>
        <time>2022-06-18T09:00:13.000Z</time>
      </trkpt>
      <trkpt lat="45.90203" lon="4.67037">
        <ele>422.61038</ele>
        <time>2022-06-18T09:00:14.000Z</time>
      </trkpt>
      <trkpt lat="45.90205" lon="4.67038">
        <ele>422.49712</ele>
        <time>2022-06-18T09:00:15.000Z</time>
      </trkpt>
      <trkpt lat="45.90209" lon="4.67039">
        <ele>422.34905</ele>
        <time>2022-06-18T09:00:16.000Z</time>
      </trkpt>
      <trkpt lat="45.90214" lon="4.6704">
        <ele>422.201</ele>
        <time>2022-06-18T09:00:17.000Z</time>
      </trkpt>
      <trkpt lat="45.90217" lon="4.6704">
        <ele>422.09505</ele>
        <time>2022-06-18T09:00:18.000Z</time>
      </trkpt>
      <trkpt lat="45.90219" lon="4.6704">
        <ele>422.0296</ele>
        <time>2022-06-18T09:00:20.000Z</time>
      </trkpt>
      <trkpt lat="45.90222" lon="4.67039">
        <ele>421.96545</ele>
        <time>2022-06-18T09:00:23.000Z</time>
      </trkpt>
      <trkpt lat="45.90223" lon="4.67038">
        <ele>421.92529</ele>
        <time>2022-06-18T09:00:26.000Z</time>
      </trkpt>
      <trkpt lat="45.90221" lon="4.67035">
        <ele>422.004</ele>
        <time>2022-06-18T09:00:40.000Z</time>
      </trkpt>
      <trkpt lat="45.90219" lon="4.67034">
        <ele>422.06235</ele>
        <time>2022-06-18T09:00:41.000Z</time>
      </trkpt>
      <trkpt lat="45.90216" lon="4.67034">
        <ele>422.15822</ele>
        <time>2022-06-18T09:00:43.000Z</time>
      </trkpt>
      <trkpt lat="45.90213" lon="4.67032">
        <ele>422.25458</ele>
        <time>2022-06-18T09:00:45.000Z</time>
      </trkpt>
      <trkpt lat="45.9021" lon="4.67031">
        <ele>422.37152</ele>
        <time>2022-06-18T09:00:47.000Z</time>
      </trkpt>
      <trkpt lat="45.90206" lon="4.6703">
        <ele>422.50051</ele>
        <time>2022-06-18T09:00:49.000Z</time>
      </trkpt>
      <trkpt lat="45.90204" lon="4.6703">
        <ele>422.57669</ele>
        <time>2022-06-18T09:00:50.000Z</time>
      </trkpt>
      <trkpt lat="45.90201" lon="4.67028">
        <ele>422.69817</ele>
        <time>2022-06-18T09:00:52.000Z</time>
      </trkpt>
      <trkpt lat="45.90199" lon="4.67025">
        <ele>422.78061</ele>
        <time>2022-06-18T09:00:54.000Z</time>
      </trkpt>
      <trkpt lat="45.90198" lon="4.67027">
        <ele>422.83912</ele>
        <time>2022-06-18T09:00:56.000Z</time>
      </trkpt>
      <trkpt lat="45.90199" lon="4.6703">
        <ele>422.76795</ele>
        <time>2022-06-18T09:00:58.000Z</time>
      </trkpt>
      <trkpt lat="45.90202" lon="4.67031">
        <ele>422.6619</ele>
        <time>2022-06-18T09:01:00.000Z</time>
      </trkpt>
      <trkpt lat="45.90205" lon="4.67029">
        <ele>422.56383</ele>
        <time>2022-06-18T09:01:03.000Z</time>
      </trkpt>
      <trkpt lat="45.90206" lon="4.67027">
        <ele>422.51205</ele>
        <time>2022-06-18T09:01:05.000Z</time>
      </trkpt>
      <trkpt lat="45.90208" lon="4.67028">
        <ele>422.42943</ele>
        <time>2022-06-18T09:01:07.000Z</time>
      </trkpt>
      <trkpt lat="45.90211" lon="4.6703">
        <ele>422.33798</ele>
        <time>2022-06-18T09:01:09.000Z</time>
      </trkpt>
      <trkpt lat="45.90213" lon="4.67032">
        <ele>422.26393</ele>
        <time>2022-06-18T09:01:10.000Z</time>
      </trkpt>
      <trkpt lat="45.90215" lon="4.67032">
        <ele>422.20061</ele>
        <time>2022-06-18T09:01:11.000Z</time>
      </trkpt>
      <trkpt lat="45.90217" lon="4.67033">
        <ele>422.14195</ele>
        <time>2022-06-18T09:01:12.000Z</time>
      </trkpt>
      <trkpt lat="45.90219" lon="4.67033">
        <ele>422.08928</ele>
        <time>2022-06-18T09:01:13.000Z</time>
      </trkpt>
      <trkpt lat="45.90221" lon="4.67033">
        <ele>422.02946</ele>
        <time>2022-06-18T09:01:14.000Z</time>
      </trkpt>
      <trkpt lat="45.90223" lon="4.67034">
        <ele>421.95975</ele>
        <time>2022-06-18T09:01:15.000Z</time>
      </trkpt>
      <trkpt lat="45.90226" lon="4.67035">
        <ele>421.88848</ele>
        <time>2022-06-18T09:01:16.000Z</time>
      </trkpt>
      <trkpt lat="45.90228" lon="4.67035">
        <ele>421.82557</ele>
        <time>2022-06-18T09:01:17.000Z</time>
      </trkpt>
      <trkpt lat="45.9023" lon="4.67034">
        <ele>421.76841</ele>
        <time>2022-06-18T09:01:18.000Z</time>
      </trkpt>
      <trkpt lat="45.90232" lon="4.67034">
        <ele>421.71166</ele>
        <time>2022-06-18T09:01:19.000Z</time>
      </trkpt>
      <trkpt lat="45.90235" lon="4.67033">
        <ele>421.64767</ele>
        <time>2022-06-18T09:01:20.000Z</time>
      </trkpt>
      <trkpt lat="45.90238" lon="4.67033">
        <ele>421.5522</ele>
        <time>2022-06-18T09:01:21.000Z</time>
      </trkpt>
      <trkpt lat="45.90241" lon="4.67032">
        <ele>421.46516</ele>
        <time>2022-06-18T09:01:22.000Z</time>
      </trkpt>
      <trkpt lat="45.90243" lon="4.67032">
        <ele>421.38073</ele>
        <time>2022-06-18T09:01:23.000Z</time>
      </trkpt>
      <trkpt lat="45.90246" lon="4.67031">
        <ele>421.27881</ele>
        <time>2022-06-18T09:01:24.000Z</time>
      </trkpt>
      <trkpt lat="45.9025" lon="4.67031">
        <ele>421.15285</ele>
        <time>2022-06-18T09:01:25.000Z</time>
      </trkpt>
      <trkpt lat="45.90254" lon="4.67029">
        <ele>420.99693</ele>
        <time>2022-06-18T09:01:26.000Z</time>
      </trkpt>
      <trkpt lat="45.90259" lon="4.67028">
        <ele>420.83712</ele>
        <time>2022-06-18T09:01:27.000Z</time>
      </trkpt>
      <trkpt lat="45.90263" lon="4.67027">
        <ele>420.69151</ele>
        <time>2022-06-18T09:01:28.000Z</time>
      </trkpt>
      <trkpt lat="45.90267" lon="4.67025">
        <ele>420.53982</ele>
        <time>2022-06-18T09:01:29.000Z</time>
      </trkpt>
      <trkpt lat="45.90271" lon="4.67023">
        <ele>420.37772</ele>
        <time>2022-06-18T09:01:30.000Z</time>
      </trkpt>
      <trkpt lat="45.90275" lon="4.6702">
        <ele>420.21025</ele>
        <time>2022-06-18T09:01:31.000Z</time>
      </trkpt>
      <trkpt lat="45.90278" lon="4.67017">
        <ele>420.06031</ele>
        <time>2022-06-18T09:01:32.000Z</time>
      </trkpt>
      <trkpt lat="45.90282" lon="4.67014">
        <ele>419.92254</ele>
        <time>2022-06-18T09:01:33.000Z</time>
      </trkpt>
      <trkpt lat="45.90285" lon="4.67011">
        <ele>419.78825</ele>
        <time>2022-06-18T09:01:34.000Z</time>
      </trkpt>
      <trkpt lat="45.90289" lon="4.67007">
        <ele>419.70111</ele>
        <time>2022-06-18T09:01:35.000Z</time>
      </trkpt>
      <trkpt lat="45.90293" lon="4.67004">
        <ele>419.68128</ele>
        <time>2022-06-18T09:01:36.000Z</time>
      </trkpt>
      <trkpt lat="45.903" lon="4.66999">
        <ele>419.75038</ele>
        <time>2022-06-18T09:01:37.000Z</time>
      </trkpt>
      <trkpt lat="45.90302" lon="4.66995">
        <ele>419.86236</ele>
        <time>2022-06-18T09:01:38.000Z</time>
      </trkpt>
      <trkpt lat="45.90305" lon="4.66991">
        <ele>419.86841</ele>
        <time>2022-06-18T09:01:39.000Z</time>
      </trkpt>
      <trkpt lat="45.90311" lon="4.66988">
        <ele>419.46284</ele>
        <time>2022-06-18T09:01:40.000Z</time>
      </trkpt>
      <trkpt lat="45.90316" lon="4.66983">
        <ele>418.85754</ele>
        <time>2022-06-18T09:01:41.000Z</time>
      </trkpt>
      <trkpt lat="45.90323" lon="4.66983">
        <ele>418.02759</ele>
        <time>2022-06-18T09:01:42.000Z</time>
      </trkpt>
      <trkpt lat="45.90329" lon="4.66981">
        <ele>417.54211</ele>
        <time>2022-06-18T09:01:43.000Z</time>
      </trkpt>
      <trkpt lat="45.90334" lon="4.6698">
        <ele>417.23582</ele>
        <time>2022-06-18T09:01:44.000Z</time>
      </trkpt>
      <trkpt lat="45.90339" lon="4.66981">
        <ele>417.05445</ele>
        <time>2022-06-18T09:01:45.000Z</time>
      </trkpt>
      <trkpt lat="45.90343" lon="4.6698">
        <ele>416.91019</ele>
        <time>2022-06-18T09:01:46.000Z</time>
      </trkpt>
      <trkpt lat="45.90345" lon="4.66984">
        <ele>416.90698</ele>
        <time>2022-06-18T09:01:47.000Z</time>
      </trkpt>
      <trkpt lat="45.90349" lon="4.66988">
        <ele>416.84223</ele>
        <time>2022-06-18T09:01:48.000Z</time>
      </trkpt>
      <trkpt lat="45.90348" lon="4.66994">
        <ele>416.91033</ele>
        <time>2022-06-18T09:01:49.000Z</time>
      </trkpt>
      <trkpt lat="45.90347" lon="4.66998">
        <ele>416.98415</ele>
        <time>2022-06-18T09:01:50.000Z</time>
      </trkpt>
      <trkpt lat="45.90344" lon="4.67">
        <ele>417.16352</ele>
        <time>2022-06-18T09:01:51.000Z</time>
      </trkpt>
      <trkpt lat="45.9034" lon="4.67005">
        <ele>417.33139</ele>
        <time>2022-06-18T09:01:52.000Z</time>
      </trkpt>
      <trkpt lat="45.90338" lon="4.67011">
        <ele>417.5016</ele>
        <time>2022-06-18T09:01:53.000Z</time>
      </trkpt>
      <trkpt lat="45.90336" lon="4.67018">
        <ele>417.63951</ele>
        <time>2022-06-18T09:01:54.000Z</time>
      </trkpt>
      <trkpt lat="45.90334" lon="4.67024">
        <ele>417.76143</ele>
        <time>2022-06-18T09:01:55.000Z</time>
      </trkpt>
      <trkpt lat="45.90331" lon="4.67031">
        <ele>417.91446</ele>
        <time>2022-06-18T09:01:56.000Z</time>
      </trkpt>
      <trkpt lat="45.90329" lon="4.67038">
        <ele>417.94881</ele>
        <time>2022-06-18T09:01:57.000Z</time>
      </trkpt>
      <trkpt lat="45.90327" lon="4.67044">
        <ele>417.9856</ele>
        <time>2022-06-18T09:01:58.000Z</time>
      </trkpt>
      <trkpt lat="45.90326" lon="4.67053">
        <ele>417.95155</ele>
        <time>2022-06-18T09:01:59.000Z</time>
      </trkpt>
      <trkpt lat="45.90324" lon="4.67059">
        <ele>417.90062</ele>
        <time>2022-06-18T09:02:00.000Z</time>
      </trkpt>
      <trkpt lat="45.90324" lon="4.67066">
        <ele>417.79703</ele>
        <time>2022-06-18T09:02:01.000Z</time>
      </trkpt>
      <trkpt lat="45.90322" lon="4.67075">
        <ele>417.70194</ele>
        <time>2022-06-18T09:02:02.000Z</time>
      </trkpt>
      <trkpt lat="45.90321" lon="4.67083">
        <ele>417.60253</ele>
        <time>2022-06-18T09:02:03.000Z</time>
      </trkpt>
      <trkpt lat="45.90318" lon="4.67091">
        <ele>417.59766</ele>
        <time>2022-06-18T09:02:04.000Z</time>
      </trkpt>
      <trkpt lat="45.90318" lon="4.67098">
        <ele>417.49527</ele>
        <time>2022-06-18T09:02:05.000Z</time>
      </trkpt>
      <trkpt lat="45.90317" lon="4.67105">
        <ele>417.42373</ele>
        <time>2022-06-18T09:02:06.000Z</time>
      </trkpt>
      <trkpt lat="45.90315" lon="4.67111">
        <ele>417.34444</ele>
        <time>2022-06-18T09:02:07.000Z</time>
      </trkpt>
      <trkpt lat="45.90314" lon="4.67118">
        <ele>417.23534</ele>
        <time>2022-06-18T09:02:08.000Z</time>
      </trkpt>
      <trkpt lat="45.90314" lon="4.67125">
        <ele>417.0062</ele>
        <time>2022-06-18T09:02:09.000Z</time>
      </trkpt>
      <trkpt lat="45.90313" lon="4.67132">
        <ele>416.77613</ele>
        <time>2022-06-18T09:02:10.000Z</time>
      </trkpt>
      <trkpt lat="45.90313" lon="4.67139">
        <ele>416.53799</ele>
        <time>2022-06-18T09:02:11.000Z</time>
      </trkpt>
      <trkpt lat="45.90308" lon="4.67143">
        <ele>416.5266</ele>
        <time>2022-06-18T09:02:12.000Z</time>
      </trkpt>
      <trkpt lat="45.90308" lon="4.67149">
        <ele>416.27832</ele>
        <time>2022-06-18T09:02:13.000Z</time>
      </trkpt>
      <trkpt lat="45.90304" lon="4.67153">
        <ele>416.19634</ele>
        <time>2022-06-18T09:02:14.000Z</time>
      </trkpt>
      <trkpt lat="45.90304" lon="4.67157">
        <ele>416.01253</ele>
        <time>2022-06-18T09:02:15.000Z</time>
      </trkpt>
      <trkpt lat="45.90301" lon="4.6716">
        <ele>415.88192</ele>
        <time>2022-06-18T09:02:18.000Z</time>
      </trkpt>
      <trkpt lat="45.903" lon="4.67163">
        <ele>415.77665</ele>
        <time>2022-06-18T09:02:19.000Z</time>
      </trkpt>
      <trkpt lat="45.90298" lon="4.67166">
        <ele>415.64032</ele>
        <time>2022-06-18T09:02:21.000Z</time>
      </trkpt>
      <trkpt lat="45.90297" lon="4.67171">
        <ele>415.44859</ele>
        <time>2022-06-18T09:02:23.000Z</time>
      </trkpt>
      <trkpt lat="45.90297" lon="4.67174">
        <ele>415.28748</ele>
        <time>2022-06-18T09:02:24.000Z</time>
      </trkpt>
      <trkpt lat="45.90298" lon="4.67178">
        <ele>415.12601</ele>
        <time>2022-06-18T09:02:25.000Z</time>
      </trkpt>
      <trkpt lat="45.90298" lon="4.67181">
        <ele>415.00435</ele>
        <time>2022-06-18T09:02:26.000Z</time>
      </trkpt>
      <trkpt lat="45.90297" lon="4.67183">
        <ele>414.92564</ele>
        <time>2022-06-18T09:02:27.000Z</time>
      </trkpt>
      <trkpt lat="45.90295" lon="4.67184">
        <ele>414.91554</ele>
        <time>2022-06-18T09:02:28.000Z</time>
      </trkpt>
      <trkpt lat="45.90293" lon="4.67184">
        <ele>414.97247</ele>
        <time>2022-06-18T09:02:29.000Z</time>
      </trkpt>
      <trkpt lat="45.90292" lon="4.67181">
        <ele>415.07452</ele>
        <time>2022-06-18T09:02:30.000Z</time>
      </trkpt>
      <trkpt lat="45.90292" lon="4.67177">
        <ele>415.23403</ele>
        <time>2022-06-18T09:02:31.000Z</time>
      </trkpt>
      <trkpt lat="45.90293" lon="4.67173">
        <ele>415.40388</ele>
        <time>2022-06-18T09:02:32.000Z</time>
      </trkpt>
      <trkpt lat="45.90294" lon="4.67169">
        <ele>415.58296</ele>
        <time>2022-06-18T09:02:33.000Z</time>
      </trkpt>
      <trkpt lat="45.90294" lon="4.67164">
        <ele>415.79706</ele>
        <time>2022-06-18T09:02:34.000Z</time>
      </trkpt>
      <trkpt lat="45.90294" lon="4.6716">
        <ele>416.03208</ele>
        <time>2022-06-18T09:02:35.000Z</time>
      </trkpt>
      <trkpt lat="45.90294" lon="4.67156">
        <ele>416.25653</ele>
        <time>2022-06-18T09:02:36.000Z</time>
      </trkpt>
      <trkpt lat="45.90293" lon="4.67153">
        <ele>416.41985</ele>
        <time>2022-06-18T09:02:37.000Z</time>
      </trkpt>
      <trkpt lat="45.90291" lon="4.67148">
        <ele>416.69586</ele>
        <time>2022-06-18T09:02:39.000Z</time>
      </trkpt>
      <trkpt lat="45.9029" lon="4.67146">
        <ele>416.84733</ele>
        <time>2022-06-18T09:02:40.000Z</time>
      </trkpt>
      <trkpt lat="45.90289" lon="4.67143">
        <ele>417.00555</ele>
        <time>2022-06-18T09:02:41.000Z</time>
      </trkpt>
      <trkpt lat="45.90287" lon="4.6714">
        <ele>417.16603</ele>
        <time>2022-06-18T09:02:42.000Z</time>
      </trkpt>
      <trkpt lat="45.90285" lon="4.67137">
        <ele>417.33557</ele>
        <time>2022-06-18T09:02:43.000Z</time>
      </trkpt>
      <trkpt lat="45.90283" lon="4.67135">
        <ele>417.48897</ele>
        <time>2022-06-18T09:02:44.000Z</time>
      </trkpt>
      <trkpt lat="45.90282" lon="4.67133">
        <ele>417.62369</ele>
        <time>2022-06-18T09:02:45.000Z</time>
      </trkpt>
      <trkpt lat="45.9028" lon="4.6713">
        <ele>417.81058</ele>
        <time>2022-06-18T09:02:46.000Z</time>
      </trkpt>
      <trkpt lat="45.90278" lon="4.67126">
        <ele>418.04434</ele>
        <time>2022-06-18T09:02:47.000Z</time>
      </trkpt>
      <trkpt lat="45.90276" lon="4.67122">
        <ele>418.28762</ele>
        <time>2022-06-18T09:02:48.000Z</time>
      </trkpt>
      <trkpt lat="45.90274" lon="4.67119">
        <ele>418.47899</ele>
        <time>2022-06-18T09:02:49.000Z</time>
      </trkpt>
      <trkpt lat="45.90268" lon="4.67112">
        <ele>418.80545</ele>
        <time>2022-06-18T09:02:51.000Z</time>
      </trkpt>
      <trkpt lat="45.90264" lon="4.67108">
        <ele>418.99006</ele>
        <time>2022-06-18T09:02:52.000Z</time>
      </trkpt>
      <trkpt lat="45.90261" lon="4.67104">
        <ele>419.16173</ele>
        <time>2022-06-18T09:02:53.000Z</time>
      </trkpt>
      <trkpt lat="45.90258" lon="4.671">
        <ele>419.34179</ele>
        <time>2022-06-18T09:02:54.000Z</time>
      </trkpt>
      <trkpt lat="45.90255" lon="4.67096">
        <ele>419.56161</ele>
        <time>2022-06-18T09:02:55.000Z</time>
      </trkpt>
      <trkpt lat="45.90251" lon="4.67092">
        <ele>419.80771</ele>
        <time>2022-06-18T09:02:56.000Z</time>
      </trkpt>
      <trkpt lat="45.90247" lon="4.67088">
        <ele>420.04035</ele>
        <time>2022-06-18T09:02:57.000Z</time>
      </trkpt>
      <trkpt lat="45.90245" lon="4.67085">
        <ele>420.24986</ele>
        <time>2022-06-18T09:02:58.000Z</time>
      </trkpt>
      <trkpt lat="45.90242" lon="4.67082">
        <ele>420.45385</ele>
        <time>2022-06-18T09:02:59.000Z</time>
      </trkpt>
      <trkpt lat="45.90239" lon="4.6708">
        <ele>420.65639</ele>
        <time>2022-06-18T09:03:00.000Z</time>
      </trkpt>
      <trkpt lat="45.90235" lon="4.67077">
        <ele>420.89645</ele>
        <time>2022-06-18T09:03:01.000Z</time>
      </trkpt>
      <trkpt lat="45.9023" lon="4.67074">
        <ele>421.13426</ele>
        <time>2022-06-18T09:03:02.000Z</time>
      </trkpt>
      <trkpt lat="45.90226" lon="4.67072">
        <ele>421.33501</ele>
        <time>2022-06-18T09:03:03.000Z</time>
      </trkpt>
      <trkpt lat="45.90223" lon="4.67071">
        <ele>421.49435</ele>
        <time>2022-06-18T09:03:04.000Z</time>
      </trkpt>
      <trkpt lat="45.9022" lon="4.6707">
        <ele>421.62712</ele>
        <time>2022-06-18T09:03:05.000Z</time>
      </trkpt>
      <trkpt lat="45.90217" lon="4.67069">
        <ele>421.75044</ele>
        <time>2022-06-18T09:03:06.000Z</time>
      </trkpt>
      <trkpt lat="45.90214" lon="4.67068">
        <ele>421.86995</ele>
        <time>2022-06-18T09:03:07.000Z</time>
      </trkpt>
      <trkpt lat="45.90211" lon="4.67066">
        <ele>422.01326</ele>
        <time>2022-06-18T09:03:08.000Z</time>
      </trkpt>
      <trkpt lat="45.90208" lon="4.67065">
        <ele>422.13506</ele>
        <time>2022-06-18T09:03:09.000Z</time>
      </trkpt>
      <trkpt lat="45.90206" lon="4.67064">
        <ele>422.22694</ele>
        <time>2022-06-18T09:03:10.000Z</time>
      </trkpt>
      <trkpt lat="45.90203" lon="4.67064">
        <ele>422.30758</ele>
        <time>2022-06-18T09:03:11.000Z</time>
      </trkpt>
      <trkpt lat="45.90201" lon="4.67065">
        <ele>422.37118</ele>
        <time>2022-06-18T09:03:12.000Z</time>
      </trkpt>
      <trkpt lat="45.90199" lon="4.67067">
        <ele>422.40159</ele>
        <time>2022-06-18T09:03:13.000Z</time>
      </trkpt>
      <trkpt lat="45.90197" lon="4.67069">
        <ele>422.41831</ele>
        <time>2022-06-18T09:03:14.000Z</time>
      </trkpt>
      <trkpt lat="45.90195" lon="4.67072">
        <ele>422.43535</ele>
        <time>2022-06-18T09:03:15.000Z</time>
      </trkpt>
      <trkpt lat="45.90193" lon="4.67073">
        <ele>422.45782</ele>
        <time>2022-06-18T09:03:16.000Z</time>
      </trkpt>
      <trkpt lat="45.90191" lon="4.67075">
        <ele>422.49312</ele>
        <time>2022-06-18T09:03:18.000Z</time>
      </trkpt>
      <trkpt lat="45.90188" lon="4.6708">
        <ele>422.44739</ele>
        <time>2022-06-18T09:03:20.000Z</time>
      </trkpt>
      <trkpt lat="45.90187" lon="4.67084">
        <ele>422.38512</ele>
        <time>2022-06-18T09:03:21.000Z</time>
      </trkpt>
      <trkpt lat="45.90185" lon="4.67087">
        <ele>422.33721</ele>
        <time>2022-06-18T09:03:22.000Z</time>
      </trkpt>
      <trkpt lat="45.90183" lon="4.6709">
        <ele>422.33606</ele>
        <time>2022-06-18T09:03:23.000Z</time>
      </trkpt>
      <trkpt lat="45.9018" lon="4.67091">
        <ele>422.36336</ele>
        <time>2022-06-18T09:03:24.000Z</time>
      </trkpt>
      <trkpt lat="45.90177" lon="4.67093">
        <ele>422.37864</ele>
        <time>2022-06-18T09:03:25.000Z</time>
      </trkpt>
      <trkpt lat="45.90174" lon="4.67095">
        <ele>422.38748</ele>
        <time>2022-06-18T09:03:26.000Z</time>
      </trkpt>
      <trkpt lat="45.90172" lon="4.67097">
        <ele>422.3958</ele>
        <time>2022-06-18T09:03:27.000Z</time>
      </trkpt>
      <trkpt lat="45.9017" lon="4.67098">
        <ele>422.4045</ele>
        <time>2022-06-18T09:03:28.000Z</time>
      </trkpt>
      <trkpt lat="45.90168" lon="4.67099">
        <ele>422.43788</ele>
        <time>2022-06-18T09:03:29.000Z</time>
      </trkpt>
      <trkpt lat="45.90164" lon="4.671">
        <ele>422.5213</ele>
        <time>2022-06-18T09:03:30.000Z</time>
      </trkpt>
      <trkpt lat="45.9016" lon="4.67101">
        <ele>422.60627</ele>
        <time>2022-06-18T09:03:31.000Z</time>
      </trkpt>
      <trkpt lat="45.90157" lon="4.67103">
        <ele>422.65756</ele>
        <time>2022-06-18T09:03:32.000Z</time>
      </trkpt>
      <trkpt lat="45.90153" lon="4.67105">
        <ele>422.70703</ele>
        <time>2022-06-18T09:03:33.000Z</time>
      </trkpt>
      <trkpt lat="45.90148" lon="4.67106">
        <ele>422.7571</ele>
        <time>2022-06-18T09:03:34.000Z</time>
      </trkpt>
      <trkpt lat="45.90145" lon="4.67107">
        <ele>422.79518</ele>
        <time>2022-06-18T09:03:35.000Z</time>
      </trkpt>
      <trkpt lat="45.90142" lon="4.67108">
        <ele>422.82751</ele>
        <time>2022-06-18T09:03:36.000Z</time>
      </trkpt>
      <trkpt lat="45.90139" lon="4.67109">
        <ele>422.8467</ele>
        <time>2022-06-18T09:03:37.000Z</time>
      </trkpt>
      <trkpt lat="45.90136" lon="4.67109">
        <ele>422.87406</ele>
        <time>2022-06-18T09:03:38.000Z</time>
      </trkpt>
      <trkpt lat="45.90133" lon="4.67109">
        <ele>422.93449</ele>
        <time>2022-06-18T09:03:39.000Z</time>
      </trkpt>
      <trkpt lat="45.9013" lon="4.67109">
        <ele>423.01574</ele>
        <time>2022-06-18T09:03:40.000Z</time>
      </trkpt>
      <trkpt lat="45.90127" lon="4.67109">
        <ele>423.07197</ele>
        <time>2022-06-18T09:03:41.000Z</time>
      </trkpt>
      <trkpt lat="45.90125" lon="4.67109">
        <ele>423.0988</ele>
        <time>2022-06-18T09:03:42.000Z</time>
      </trkpt>
      <trkpt lat="45.90122" lon="4.6711">
        <ele>423.10419</ele>
        <time>2022-06-18T09:03:43.000Z</time>
      </trkpt>
      <trkpt lat="45.90119" lon="4.67112">
        <ele>423.09865</ele>
        <time>2022-06-18T09:03:44.000Z</time>
      </trkpt>
      <trkpt lat="45.90116" lon="4.67114">
        <ele>423.09485</ele>
        <time>2022-06-18T09:03:45.000Z</time>
      </trkpt>
      <trkpt lat="45.90112" lon="4.67116">
        <ele>423.08879</ele>
        <time>2022-06-18T09:03:46.000Z</time>
      </trkpt>
      <trkpt lat="45.90109" lon="4.67118">
        <ele>423.09314</ele>
        <time>2022-06-18T09:03:47.000Z</time>
      </trkpt>
      <trkpt lat="45.90106" lon="4.67119">
        <ele>423.14079</ele>
        <time>2022-06-18T09:03:48.000Z</time>
      </trkpt>
      <trkpt lat="45.90102" lon="4.67119">
        <ele>423.24025</ele>
        <time>2022-06-18T09:03:49.000Z</time>
      </trkpt>
      <trkpt lat="45.90099" lon="4.67119">
        <ele>423.38347</ele>
        <time>2022-06-18T09:03:50.000Z</time>
      </trkpt>
      <trkpt lat="45.90096" lon="4.67119">
        <ele>423.48729</ele>
        <time>2022-06-18T09:03:51.000Z</time>
      </trkpt>
      <trkpt lat="45.90092" lon="4.67119">
        <ele>423.5715</ele>
        <time>2022-06-18T09:03:53.000Z</time>
      </trkpt>
      <trkpt lat="45.90089" lon="4.6712">
        <ele>423.62298</ele>
        <time>2022-06-18T09:03:54.000Z</time>
      </trkpt>
      <trkpt lat="45.90085" lon="4.67121">
        <ele>423.68989</ele>
        <time>2022-06-18T09:03:55.000Z</time>
      </trkpt>
      <trkpt lat="45.90081" lon="4.67121">
        <ele>423.78139</ele>
        <time>2022-06-18T09:03:56.000Z</time>
      </trkpt>
      <trkpt lat="45.90078" lon="4.67122">
        <ele>423.85596</ele>
        <time>2022-06-18T09:03:57.000Z</time>
      </trkpt>
      <trkpt lat="45.90075" lon="4.67123">
        <ele>423.93371</ele>
        <time>2022-06-18T09:03:58.000Z</time>
      </trkpt>
      <trkpt lat="45.90072" lon="4.67124">
        <ele>424.02187</ele>
        <time>2022-06-18T09:03:59.000Z</time>
      </trkpt>
      <trkpt lat="45.90069" lon="4.67124">
        <ele>424.11733</ele>
        <time>2022-06-18T09:04:00.000Z</time>
      </trkpt>
      <trkpt lat="45.90067" lon="4.67125">
        <ele>424.20528</ele>
        <time>2022-06-18T09:04:01.000Z</time>
      </trkpt>
      <trkpt lat="45.90064" lon="4.67126">
        <ele>424.29201</ele>
        <time>2022-06-18T09:04:02.000Z</time>
      </trkpt>
      <trkpt lat="45.90061" lon="4.67127">
        <ele>424.40752</ele>
        <time>2022-06-18T09:04:03.000Z</time>
      </trkpt>
      <trkpt lat="45.90058" lon="4.67128">
        <ele>424.52557</ele>
        <time>2022-06-18T09:04:04.000Z</time>
      </trkpt>
      <trkpt lat="45.90055" lon="4.67128">
        <ele>424.66599</ele>
        <time>2022-06-18T09:04:05.000Z</time>
      </trkpt>
      <trkpt lat="45.90052" lon="4.67129">
        <ele>424.79206</ele>
        <time>2022-06-18T09:04:06.000Z</time>
      </trkpt>
      <trkpt lat="45.9005" lon="4.67129">
        <ele>424.89811</ele>
        <time>2022-06-18T09:04:07.000Z</time>
      </trkpt>
      <trkpt lat="45.90046" lon="4.67129">
        <ele>425.18953</ele>
        <time>2022-06-18T09:04:09.000Z</time>
      </trkpt>
      <trkpt lat="45.90042" lon="4.67129">
        <ele>425.42107</ele>
        <time>2022-06-18T09:04:10.000Z</time>
      </trkpt>
      <trkpt lat="45.90038" lon="4.67129">
        <ele>425.68735</ele>
        <time>2022-06-18T09:04:11.000Z</time>
      </trkpt>
      <trkpt lat="45.90035" lon="4.6713">
        <ele>425.90234</ele>
        <time>2022-06-18T09:04:12.000Z</time>
      </trkpt>
      <trkpt lat="45.90032" lon="4.6713">
        <ele>426.07438</ele>
        <time>2022-06-18T09:04:13.000Z</time>
      </trkpt>
      <trkpt lat="45.90029" lon="4.67131">
        <ele>426.23576</ele>
        <time>2022-06-18T09:04:14.000Z</time>
      </trkpt>
      <trkpt lat="45.90027" lon="4.67132">
        <ele>426.38806</ele>
        <time>2022-06-18T09:04:15.000Z</time>
      </trkpt>
      <trkpt lat="45.90024" lon="4.67134">
        <ele>426.55372</ele>
        <time>2022-06-18T09:04:16.000Z</time>
      </trkpt>
      <trkpt lat="45.90021" lon="4.67135">
        <ele>426.73031</ele>
        <time>2022-06-18T09:04:17.000Z</time>
      </trkpt>
      <trkpt lat="45.90018" lon="4.67136">
        <ele>426.97473</ele>
        <time>2022-06-18T09:04:18.000Z</time>
      </trkpt>
      <trkpt lat="45.90015" lon="4.67135">
        <ele>427.28392</ele>
        <time>2022-06-18T09:04:19.000Z</time>
      </trkpt>
      <trkpt lat="45.90012" lon="4.67133">
        <ele>427.76339</ele>
        <time>2022-06-18T09:04:20.000Z</time>
      </trkpt>
      <trkpt lat="45.90009" lon="4.67131">
        <ele>428.23975</ele>
        <time>2022-06-18T09:04:21.000Z</time>
      </trkpt>
      <trkpt lat="45.90006" lon="4.67129">
        <ele>428.633</ele>
        <time>2022-06-18T09:04:22.000Z</time>
      </trkpt>
      <trkpt lat="45.90003" lon="4.67127">
        <ele>429.07093</ele>
        <time>2022-06-18T09:04:23.000Z</time>
      </trkpt>
      <trkpt lat="45.89999" lon="4.67126">
        <ele>429.49642</ele>
        <time>2022-06-18T09:04:24.000Z</time>
      </trkpt>
      <trkpt lat="45.89995" lon="4.67126">
        <ele>429.88964</ele>
        <time>2022-06-18T09:04:25.000Z</time>
      </trkpt>
      <trkpt lat="45.89992" lon="4.67125">
        <ele>430.18998</ele>
        <time>2022-06-18T09:04:26.000Z</time>
      </trkpt>
      <trkpt lat="45.89989" lon="4.67126">
        <ele>430.41234</ele>
        <time>2022-06-18T09:04:27.000Z</time>
      </trkpt>
      <trkpt lat="45.89987" lon="4.67126">
        <ele>430.57447</ele>
        <time>2022-06-18T09:04:28.000Z</time>
      </trkpt>
      <trkpt lat="45.89984" lon="4.67126">
        <ele>430.73158</ele>
        <time>2022-06-18T09:04:29.000Z</time>
      </trkpt>
      <trkpt lat="45.89982" lon="4.67127">
        <ele>430.88854</ele>
        <time>2022-06-18T09:04:30.000Z</time>
      </trkpt>
      <trkpt lat="45.89979" lon="4.67127">
        <ele>431.05456</ele>
        <time>2022-06-18T09:04:31.000Z</time>
      </trkpt>
      <trkpt lat="45.89975" lon="4.67127">
        <ele>431.21186</ele>
        <time>2022-06-18T09:04:32.000Z</time>
      </trkpt>
      <trkpt lat="45.89973" lon="4.67127">
        <ele>431.35008</ele>
        <time>2022-06-18T09:04:33.000Z</time>
      </trkpt>
      <trkpt lat="45.89971" lon="4.67126">
        <ele>431.46673</ele>
        <time>2022-06-18T09:04:34.000Z</time>
      </trkpt>
      <trkpt lat="45.89968" lon="4.67126">
        <ele>431.57883</ele>
        <time>2022-06-18T09:04:35.000Z</time>
      </trkpt>
      <trkpt lat="45.89966" lon="4.67126">
        <ele>431.65154</ele>
        <time>2022-06-18T09:04:36.000Z</time>
      </trkpt>
      <trkpt lat="45.89963" lon="4.67126">
        <ele>431.71168</ele>
        <time>2022-06-18T09:04:37.000Z</time>
      </trkpt>
      <trkpt lat="45.8996" lon="4.67126">
        <ele>431.74053</ele>
        <time>2022-06-18T09:04:38.000Z</time>
      </trkpt>
      <trkpt lat="45.89956" lon="4.67125">
        <ele>431.73087</ele>
        <time>2022-06-18T09:04:39.000Z</time>
      </trkpt>
      <trkpt lat="45.8995" lon="4.67126">
        <ele>431.63154</ele>
        <time>2022-06-18T09:04:40.000Z</time>
      </trkpt>
      <trkpt lat="45.89944" lon="4.67126">
        <ele>431.51021</ele>
        <time>2022-06-18T09:04:41.000Z</time>
      </trkpt>
      <trkpt lat="45.89938" lon="4.67127">
        <ele>431.40513</ele>
        <time>2022-06-18T09:04:42.000Z</time>
      </trkpt>
      <trkpt lat="45.89924" lon="4.67127">
        <ele>431.19469</ele>
        <time>2022-06-18T09:04:43.000Z</time>
      </trkpt>
      <trkpt lat="45.8992" lon="4.67127">
        <ele>431.10616</ele>
        <time>2022-06-18T09:04:44.000Z</time>
      </trkpt>
      <trkpt lat="45.89915" lon="4.67127">
        <ele>431.08384</ele>
        <time>2022-06-18T09:04:45.000Z</time>
      </trkpt>
      <trkpt lat="45.89911" lon="4.67127">
        <ele>431.02437</ele>
        <time>2022-06-18T09:04:46.000Z</time>
      </trkpt>
      <trkpt lat="45.89908" lon="4.67127">
        <ele>431.06241</ele>
        <time>2022-06-18T09:04:47.000Z</time>
      </trkpt>
      <trkpt lat="45.89905" lon="4.67125">
        <ele>431.12676</ele>
        <time>2022-06-18T09:04:48.000Z</time>
      </trkpt>
      <trkpt lat="45.899" lon="4.67122">
        <ele>431.27358</ele>
        <time>2022-06-18T09:04:49.000Z</time>
      </trkpt>
      <trkpt lat="45.89896" lon="4.67123">
        <ele>431.1523</ele>
        <time>2022-06-18T09:04:50.000Z</time>
      </trkpt>
      <trkpt lat="45.89891" lon="4.67123">
        <ele>431.07121</ele>
        <time>2022-06-18T09:04:51.000Z</time>
      </trkpt>
      <trkpt lat="45.89888" lon="4.67123">
        <ele>430.96182</ele>
        <time>2022-06-18T09:04:52.000Z</time>
      </trkpt>
      <trkpt lat="45.89884" lon="4.67122">
        <ele>430.93168</ele>
        <time>2022-06-18T09:04:53.000Z</time>
      </trkpt>
      <trkpt lat="45.8988" lon="4.67125">
        <ele>430.67642</ele>
        <time>2022-06-18T09:04:55.000Z</time>
      </trkpt>
      <trkpt lat="45.89877" lon="4.67125">
        <ele>430.56684</ele>
        <time>2022-06-18T09:04:56.000Z</time>
      </trkpt>
      <trkpt lat="45.89874" lon="4.67127">
        <ele>430.44693</ele>
        <time>2022-06-18T09:04:57.000Z</time>
      </trkpt>
      <trkpt lat="45.89871" lon="4.67127">
        <ele>430.40716</ele>
        <time>2022-06-18T09:04:58.000Z</time>
      </trkpt>
      <trkpt lat="45.89868" lon="4.67127">
        <ele>430.36819</ele>
        <time>2022-06-18T09:04:59.000Z</time>
      </trkpt>
      <trkpt lat="45.89865" lon="4.67127">
        <ele>430.32595</ele>
        <time>2022-06-18T09:05:00.000Z</time>
      </trkpt>
      <trkpt lat="45.89863" lon="4.67127">
        <ele>430.30104</ele>
        <time>2022-06-18T09:05:01.000Z</time>
      </trkpt>
      <trkpt lat="45.89859" lon="4.67128">
        <ele>430.27008</ele>
        <time>2022-06-18T09:05:02.000Z</time>
      </trkpt>
      <trkpt lat="45.89856" lon="4.67128">
        <ele>430.26697</ele>
        <time>2022-06-18T09:05:03.000Z</time>
      </trkpt>
      <trkpt lat="45.89853" lon="4.67128">
        <ele>430.28764</ele>
        <time>2022-06-18T09:05:04.000Z</time>
      </trkpt>
      <trkpt lat="45.89851" lon="4.67128">
        <ele>430.33144</ele>
        <time>2022-06-18T09:05:05.000Z</time>
      </trkpt>
      <trkpt lat="45.89847" lon="4.67127">
        <ele>430.41793</ele>
        <time>2022-06-18T09:05:06.000Z</time>
      </trkpt>
      <trkpt lat="45.89844" lon="4.67127">
        <ele>430.52316</ele>
        <time>2022-06-18T09:05:07.000Z</time>
      </trkpt>
      <trkpt lat="45.89841" lon="4.67127">
        <ele>430.63711</ele>
        <time>2022-06-18T09:05:08.000Z</time>
      </trkpt>
      <trkpt lat="45.89838" lon="4.67127">
        <ele>430.73072</ele>
        <time>2022-06-18T09:05:09.000Z</time>
      </trkpt>
      <trkpt lat="45.89834" lon="4.67127">
        <ele>430.84115</ele>
        <time>2022-06-18T09:05:10.000Z</time>
      </trkpt>
      <trkpt lat="45.8983" lon="4.67127">
        <ele>430.96006</ele>
        <time>2022-06-18T09:05:11.000Z</time>
      </trkpt>
      <trkpt lat="45.89826" lon="4.67128">
        <ele>431.07936</ele>
        <time>2022-06-18T09:05:12.000Z</time>
      </trkpt>
      <trkpt lat="45.89822" lon="4.67128">
        <ele>431.21658</ele>
        <time>2022-06-18T09:05:13.000Z</time>
      </trkpt>
      <trkpt lat="45.89818" lon="4.67128">
        <ele>431.37948</ele>
        <time>2022-06-18T09:05:14.000Z</time>
      </trkpt>
      <trkpt lat="45.89815" lon="4.67128">
        <ele>431.5558</ele>
        <time>2022-06-18T09:05:15.000Z</time>
      </trkpt>
      <trkpt lat="45.89812" lon="4.67128">
        <ele>431.71869</ele>
        <time>2022-06-18T09:05:16.000Z</time>
      </trkpt>
      <trkpt lat="45.89808" lon="4.67128">
        <ele>431.87016</ele>
        <time>2022-06-18T09:05:17.000Z</time>
      </trkpt>
      <trkpt lat="45.89805" lon="4.67129">
        <ele>431.99509</ele>
        <time>2022-06-18T09:05:18.000Z</time>
      </trkpt>
      <trkpt lat="45.89802" lon="4.67129">
        <ele>432.1527</ele>
        <time>2022-06-18T09:05:19.000Z</time>
      </trkpt>
      <trkpt lat="45.89798" lon="4.67129">
        <ele>432.30919</ele>
        <time>2022-06-18T09:05:20.000Z</time>
      </trkpt>
      <trkpt lat="45.89795" lon="4.67129">
        <ele>432.48727</ele>
        <time>2022-06-18T09:05:21.000Z</time>
      </trkpt>
      <trkpt lat="45.89792" lon="4.67128">
        <ele>432.70545</ele>
        <time>2022-06-18T09:05:22.000Z</time>
      </trkpt>
      <trkpt lat="45.89789" lon="4.67128">
        <ele>432.93193</ele>
        <time>2022-06-18T09:05:23.000Z</time>
      </trkpt>
      <trkpt lat="45.89784" lon="4.67127">
        <ele>433.19674</ele>
        <time>2022-06-18T09:05:24.000Z</time>
      </trkpt>
      <trkpt lat="45.89779" lon="4.67128">
        <ele>433.4318</ele>
        <time>2022-06-18T09:05:25.000Z</time>
      </trkpt>
      <trkpt lat="45.89775" lon="4.67127">
        <ele>433.63277</ele>
        <time>2022-06-18T09:05:26.000Z</time>
      </trkpt>
      <trkpt lat="45.89771" lon="4.67128">
        <ele>433.80038</ele>
        <time>2022-06-18T09:05:27.000Z</time>
      </trkpt>
      <trkpt lat="45.89767" lon="4.67128">
        <ele>433.95183</ele>
        <time>2022-06-18T09:05:28.000Z</time>
      </trkpt>
      <trkpt lat="45.89764" lon="4.67128">
        <ele>434.13144</ele>
        <time>2022-06-18T09:05:29.000Z</time>
      </trkpt>
      <trkpt lat="45.89761" lon="4.67127">
        <ele>434.29051</ele>
        <time>2022-06-18T09:05:30.000Z</time>
      </trkpt>
      <trkpt lat="45.89758" lon="4.67126">
        <ele>434.50347</ele>
        <time>2022-06-18T09:05:31.000Z</time>
      </trkpt>
      <trkpt lat="45.89754" lon="4.67125">
        <ele>434.72518</ele>
        <time>2022-06-18T09:05:32.000Z</time>
      </trkpt>
      <trkpt lat="45.89749" lon="4.67125">
        <ele>434.90723</ele>
        <time>2022-06-18T09:05:33.000Z</time>
      </trkpt>
      <trkpt lat="45.89745" lon="4.67125">
        <ele>435.05803</ele>
        <time>2022-06-18T09:05:34.000Z</time>
      </trkpt>
      <trkpt lat="45.89741" lon="4.67125">
        <ele>435.22099</ele>
        <time>2022-06-18T09:05:35.000Z</time>
      </trkpt>
      <trkpt lat="45.89737" lon="4.67124">
        <ele>435.37434</ele>
        <time>2022-06-18T09:05:36.000Z</time>
      </trkpt>
      <trkpt lat="45.89733" lon="4.67124">
        <ele>435.51272</ele>
        <time>2022-06-18T09:05:37.000Z</time>
      </trkpt>
      <trkpt lat="45.8973" lon="4.67124">
        <ele>435.62082</ele>
        <time>2022-06-18T09:05:38.000Z</time>
      </trkpt>
      <trkpt lat="45.89726" lon="4.67124">
        <ele>435.7402</ele>
        <time>2022-06-18T09:05:39.000Z</time>
      </trkpt>
      <trkpt lat="45.89723" lon="4.67124">
        <ele>435.86984</ele>
        <time>2022-06-18T09:05:40.000Z</time>
      </trkpt>
      <trkpt lat="45.8972" lon="4.67124">
        <ele>435.98504</ele>
        <time>2022-06-18T09:05:41.000Z</time>
      </trkpt>
      <trkpt lat="45.89717" lon="4.67123">
        <ele>436.09908</ele>
        <time>2022-06-18T09:05:42.000Z</time>
      </trkpt>
      <trkpt lat="45.89715" lon="4.67123">
        <ele>436.20671</ele>
        <time>2022-06-18T09:05:43.000Z</time>
      </trkpt>
      <trkpt lat="45.89712" lon="4.67122">
        <ele>436.3483</ele>
        <time>2022-06-18T09:05:44.000Z</time>
      </trkpt>
      <trkpt lat="45.89709" lon="4.67122">
        <ele>436.49104</ele>
        <time>2022-06-18T09:05:45.000Z</time>
      </trkpt>
      <trkpt lat="45.89706" lon="4.67121">
        <ele>436.61519</ele>
        <time>2022-06-18T09:05:46.000Z</time>
      </trkpt>
      <trkpt lat="45.89702" lon="4.67121">
        <ele>436.7876</ele>
        <time>2022-06-18T09:05:47.000Z</time>
      </trkpt>
      <trkpt lat="45.89698" lon="4.67121">
        <ele>436.95519</ele>
        <time>2022-06-18T09:05:48.000Z</time>
      </trkpt>
      <trkpt lat="45.89694" lon="4.67121">
        <ele>437.11029</ele>
        <time>2022-06-18T09:05:49.000Z</time>
      </trkpt>
      <trkpt lat="45.8969" lon="4.6712">
        <ele>437.2985</ele>
        <time>2022-06-18T09:05:50.000Z</time>
      </trkpt>
      <trkpt lat="45.89686" lon="4.67119">
        <ele>437.51989</ele>
        <time>2022-06-18T09:05:51.000Z</time>
      </trkpt>
      <trkpt lat="45.89682" lon="4.67117">
        <ele>437.73777</ele>
        <time>2022-06-18T09:05:52.000Z</time>
      </trkpt>
      <trkpt lat="45.89679" lon="4.67114">
        <ele>437.98255</ele>
        <time>2022-06-18T09:05:53.000Z</time>
      </trkpt>
      <trkpt lat="45.89676" lon="4.67112">
        <ele>438.20964</ele>
        <time>2022-06-18T09:05:54.000Z</time>
      </trkpt>
      <trkpt lat="45.89672" lon="4.6711">
        <ele>438.43495</ele>
        <time>2022-06-18T09:05:55.000Z</time>
      </trkpt>
      <trkpt lat="45.89669" lon="4.67107">
        <ele>438.65292</ele>
        <time>2022-06-18T09:05:56.000Z</time>
      </trkpt>
      <trkpt lat="45.89667" lon="4.67105">
        <ele>438.84674</ele>
        <time>2022-06-18T09:05:57.000Z</time>
      </trkpt>
      <trkpt lat="45.89664" lon="4.67103">
        <ele>439.0083</ele>
        <time>2022-06-18T09:05:58.000Z</time>
      </trkpt>
      <trkpt lat="45.89662" lon="4.67101">
        <ele>439.14162</ele>
        <time>2022-06-18T09:05:59.000Z</time>
      </trkpt>
      <trkpt lat="45.89661" lon="4.67099">
        <ele>439.25889</ele>
        <time>2022-06-18T09:06:00.000Z</time>
      </trkpt>
      <trkpt lat="45.89659" lon="4.67098">
        <ele>439.35812</ele>
        <time>2022-06-18T09:06:01.000Z</time>
      </trkpt>
      <trkpt lat="45.89658" lon="4.67096">
        <ele>439.45932</ele>
        <time>2022-06-18T09:06:02.000Z</time>
      </trkpt>
      <trkpt lat="45.89656" lon="4.67094">
        <ele>439.55485</ele>
        <time>2022-06-18T09:06:03.000Z</time>
      </trkpt>
      <trkpt lat="45.89654" lon="4.67093">
        <ele>439.64072</ele>
        <time>2022-06-18T09:06:04.000Z</time>
      </trkpt>
      <trkpt lat="45.89652" lon="4.67091">
        <ele>439.74624</ele>
        <time>2022-06-18T09:06:05.000Z</time>
      </trkpt>
      <trkpt lat="45.89651" lon="4.67089">
        <ele>439.8419</ele>
        <time>2022-06-18T09:06:06.000Z</time>
      </trkpt>
      <trkpt lat="45.89649" lon="4.67087">
        <ele>439.94105</ele>
        <time>2022-06-18T09:06:07.000Z</time>
      </trkpt>
      <trkpt lat="45.89647" lon="4.67085">
        <ele>440.03033</ele>
        <time>2022-06-18T09:06:08.000Z</time>
      </trkpt>
      <trkpt lat="45.89645" lon="4.67084">
        <ele>440.11008</ele>
        <time>2022-06-18T09:06:09.000Z</time>
      </trkpt>
      <trkpt lat="45.89643" lon="4.67082">
        <ele>440.18781</ele>
        <time>2022-06-18T09:06:10.000Z</time>
      </trkpt>
      <trkpt lat="45.89641" lon="4.67081">
        <ele>440.24409</ele>
        <time>2022-06-18T09:06:11.000Z</time>
      </trkpt>
      <trkpt lat="45.89637" lon="4.6708">
        <ele>440.32198</ele>
        <time>2022-06-18T09:06:13.000Z</time>
      </trkpt>
      <trkpt lat="45.89634" lon="4.67079">
        <ele>440.3984</ele>
        <time>2022-06-18T09:06:15.000Z</time>
      </trkpt>
      <trkpt lat="45.89632" lon="4.67078">
        <ele>440.43931</ele>
        <time>2022-06-18T09:06:16.000Z</time>
      </trkpt>
      <trkpt lat="45.89631" lon="4.67077">
        <ele>440.47862</ele>
        <time>2022-06-18T09:06:17.000Z</time>
      </trkpt>
      <trkpt lat="45.89628" lon="4.67076">
        <ele>440.52805</ele>
        <time>2022-06-18T09:06:18.000Z</time>
      </trkpt>
      <trkpt lat="45.89626" lon="4.67074">
        <ele>440.57571</ele>
        <time>2022-06-18T09:06:19.000Z</time>
      </trkpt>
      <trkpt lat="45.89623" lon="4.67073">
        <ele>440.6209</ele>
        <time>2022-06-18T09:06:20.000Z</time>
      </trkpt>
      <trkpt lat="45.89621" lon="4.67071">
        <ele>440.66614</ele>
        <time>2022-06-18T09:06:21.000Z</time>
      </trkpt>
      <trkpt lat="45.89618" lon="4.67069">
        <ele>440.70711</ele>
        <time>2022-06-18T09:06:22.000Z</time>
      </trkpt>
      <trkpt lat="45.89615" lon="4.67068">
        <ele>440.74642</ele>
        <time>2022-06-18T09:06:23.000Z</time>
      </trkpt>
      <trkpt lat="45.89612" lon="4.67066">
        <ele>440.78445</ele>
        <time>2022-06-18T09:06:24.000Z</time>
      </trkpt>
      <trkpt lat="45.89609" lon="4.67064">
        <ele>440.82187</ele>
        <time>2022-06-18T09:06:25.000Z</time>
      </trkpt>
      <trkpt lat="45.89606" lon="4.67063">
        <ele>440.84548</ele>
        <time>2022-06-18T09:06:26.000Z</time>
      </trkpt>
      <trkpt lat="45.89604" lon="4.67062">
        <ele>440.86017</ele>
        <time>2022-06-18T09:06:27.000Z</time>
      </trkpt>
      <trkpt lat="45.89602" lon="4.67061">
        <ele>440.87717</ele>
        <time>2022-06-18T09:06:28.000Z</time>
      </trkpt>
      <trkpt lat="45.896" lon="4.67059">
        <ele>440.90446</ele>
        <time>2022-06-18T09:06:29.000Z</time>
      </trkpt>
      <trkpt lat="45.89598" lon="4.67057">
        <ele>440.93391</ele>
        <time>2022-06-18T09:06:30.000Z</time>
      </trkpt>
      <trkpt lat="45.89598" lon="4.67057">
        <ele>440.93391</ele>
        <time>2022-06-18T09:06:30.000Z</time>
      </trkpt>
      <trkpt lat="45.89597" lon="4.67055">
        <ele>440.9596</ele>
        <time>2022-06-18T09:06:31.000Z</time>
      </trkpt>
      <trkpt lat="45.89595" lon="4.67054">
        <ele>440.98189</ele>
        <time>2022-06-18T09:06:32.000Z</time>
      </trkpt>
      <trkpt lat="45.89594" lon="4.67052">
        <ele>441.00691</ele>
        <time>2022-06-18T09:06:34.000Z</time>
      </trkpt>
      <trkpt lat="45.89592" lon="4.6705">
        <ele>441.03412</ele>
        <time>2022-06-18T09:06:37.000Z</time>
      </trkpt>
      <trkpt lat="45.8959" lon="4.67048">
        <ele>441.05926</ele>
        <time>2022-06-18T09:06:40.000Z</time>
      </trkpt>
      <trkpt lat="45.89589" lon="4.67044">
        <ele>441.10147</ele>
        <time>2022-06-18T09:06:43.000Z</time>
      </trkpt>
      <trkpt lat="45.89589" lon="4.67042">
        <ele>441.13155</ele>
        <time>2022-06-18T09:06:47.000Z</time>
      </trkpt>
      <trkpt lat="45.89589" lon="4.67039">
        <ele>441.16228</ele>
        <time>2022-06-18T09:06:54.000Z</time>
      </trkpt>
      <trkpt lat="45.8957" lon="4.67056">
        <ele>440.77524</ele>
        <time>2022-06-18T09:07:04.000Z</time>
      </trkpt>
      <trkpt lat="45.89568" lon="4.67058">
        <ele>440.70726</ele>
        <time>2022-06-18T09:07:05.000Z</time>
      </trkpt>
      <trkpt lat="45.89566" lon="4.6706">
        <ele>440.64981</ele>
        <time>2022-06-18T09:07:06.000Z</time>
      </trkpt>
      <trkpt lat="45.89564" lon="4.67061">
        <ele>440.59666</ele>
        <time>2022-06-18T09:07:07.000Z</time>
      </trkpt>
      <trkpt lat="45.89562" lon="4.67062">
        <ele>440.54736</ele>
        <time>2022-06-18T09:07:08.000Z</time>
      </trkpt>
      <trkpt lat="45.89559" lon="4.67065">
        <ele>440.44295</ele>
        <time>2022-06-18T09:07:09.000Z</time>
      </trkpt>
      <trkpt lat="45.89555" lon="4.67068">
        <ele>440.29974</ele>
        <time>2022-06-18T09:07:10.000Z</time>
      </trkpt>
      <trkpt lat="45.89552" lon="4.67072">
        <ele>440.15552</ele>
        <time>2022-06-18T09:07:11.000Z</time>
      </trkpt>
      <trkpt lat="45.89549" lon="4.67075">
        <ele>440.00806</ele>
        <time>2022-06-18T09:07:12.000Z</time>
      </trkpt>
      <trkpt lat="45.89546" lon="4.67078">
        <ele>439.86166</ele>
        <time>2022-06-18T09:07:13.000Z</time>
      </trkpt>
      <trkpt lat="45.89543" lon="4.6708">
        <ele>439.732</ele>
        <time>2022-06-18T09:07:14.000Z</time>
      </trkpt>
      <trkpt lat="45.89541" lon="4.67082">
        <ele>439.6008</ele>
        <time>2022-06-18T09:07:15.000Z</time>
      </trkpt>
      <trkpt lat="45.89538" lon="4.67082">
        <ele>439.49587</ele>
        <time>2022-06-18T09:07:16.000Z</time>
      </trkpt>
      <trkpt lat="45.89535" lon="4.67081">
        <ele>439.4492</ele>
        <time>2022-06-18T09:07:17.000Z</time>
      </trkpt>
      <trkpt lat="45.89534" lon="4.6708">
        <ele>439.44555</ele>
        <time>2022-06-18T09:07:18.000Z</time>
      </trkpt>
      <trkpt lat="45.89532" lon="4.67079">
        <ele>439.40969</ele>
        <time>2022-06-18T09:07:19.000Z</time>
      </trkpt>
      <trkpt lat="45.89529" lon="4.67079">
        <ele>439.34189</ele>
        <time>2022-06-18T09:07:20.000Z</time>
      </trkpt>
      <trkpt lat="45.89527" lon="4.6708">
        <ele>439.24491</ele>
        <time>2022-06-18T09:07:21.000Z</time>
      </trkpt>
      <trkpt lat="45.89525" lon="4.67081">
        <ele>439.11765</ele>
        <time>2022-06-18T09:07:23.000Z</time>
      </trkpt>
      <trkpt lat="45.89523" lon="4.67083">
        <ele>439.0124</ele>
        <time>2022-06-18T09:07:26.000Z</time>
      </trkpt>
      <trkpt lat="45.89519" lon="4.67086">
        <ele>438.74083</ele>
        <time>2022-06-18T09:07:44.000Z</time>
      </trkpt>
      <trkpt lat="45.89515" lon="4.67089">
        <ele>438.48023</ele>
        <time>2022-06-18T09:07:45.000Z</time>
      </trkpt>
      <trkpt lat="45.89511" lon="4.67091">
        <ele>438.21948</ele>
        <time>2022-06-18T09:07:46.000Z</time>
      </trkpt>
      <trkpt lat="45.89508" lon="4.67092">
        <ele>438.02612</ele>
        <time>2022-06-18T09:07:47.000Z</time>
      </trkpt>
      <trkpt lat="45.89505" lon="4.67093">
        <ele>437.87328</ele>
        <time>2022-06-18T09:07:48.000Z</time>
      </trkpt>
      <trkpt lat="45.89502" lon="4.67093">
        <ele>437.72298</ele>
        <time>2022-06-18T09:07:49.000Z</time>
      </trkpt>
      <trkpt lat="45.89498" lon="4.67092">
        <ele>437.62963</ele>
        <time>2022-06-18T09:07:50.000Z</time>
      </trkpt>
      <trkpt lat="45.89494" lon="4.67089">
        <ele>437.62785</ele>
        <time>2022-06-18T09:07:51.000Z</time>
      </trkpt>
      <trkpt lat="45.89491" lon="4.67086">
        <ele>437.70711</ele>
        <time>2022-06-18T09:07:52.000Z</time>
      </trkpt>
      <trkpt lat="45.89488" lon="4.67082">
        <ele>437.81971</ele>
        <time>2022-06-18T09:07:53.000Z</time>
      </trkpt>
      <trkpt lat="45.89486" lon="4.67078">
        <ele>437.94943</ele>
        <time>2022-06-18T09:07:54.000Z</time>
      </trkpt>
      <trkpt lat="45.89484" lon="4.67075">
        <ele>438.07304</ele>
        <time>2022-06-18T09:07:55.000Z</time>
      </trkpt>
      <trkpt lat="45.89482" lon="4.67072">
        <ele>438.18008</ele>
        <time>2022-06-18T09:07:56.000Z</time>
      </trkpt>
      <trkpt lat="45.8948" lon="4.67069">
        <ele>438.2746</ele>
        <time>2022-06-18T09:07:57.000Z</time>
      </trkpt>
      <trkpt lat="45.89478" lon="4.67066">
        <ele>438.33628</ele>
        <time>2022-06-18T09:07:58.000Z</time>
      </trkpt>
      <trkpt lat="45.89475" lon="4.67064">
        <ele>438.35992</ele>
        <time>2022-06-18T09:07:59.000Z</time>
      </trkpt>
      <trkpt lat="45.89473" lon="4.67061">
        <ele>438.37885</ele>
        <time>2022-06-18T09:08:00.000Z</time>
      </trkpt>
      <trkpt lat="45.89469" lon="4.67058">
        <ele>438.39409</ele>
        <time>2022-06-18T09:08:01.000Z</time>
      </trkpt>
      <trkpt lat="45.89466" lon="4.67056">
        <ele>438.39691</ele>
        <time>2022-06-18T09:08:02.000Z</time>
      </trkpt>
      <trkpt lat="45.89463" lon="4.67053">
        <ele>438.42339</ele>
        <time>2022-06-18T09:08:03.000Z</time>
      </trkpt>
      <trkpt lat="45.8946" lon="4.6705">
        <ele>438.43915</ele>
        <time>2022-06-18T09:08:04.000Z</time>
      </trkpt>
      <trkpt lat="45.89457" lon="4.67048">
        <ele>438.44759</ele>
        <time>2022-06-18T09:08:05.000Z</time>
      </trkpt>
      <trkpt lat="45.89454" lon="4.67045">
        <ele>438.447</ele>
        <time>2022-06-18T09:08:06.000Z</time>
      </trkpt>
      <trkpt lat="45.89451" lon="4.67042">
        <ele>438.4611</ele>
        <time>2022-06-18T09:08:07.000Z</time>
      </trkpt>
      <trkpt lat="45.89448" lon="4.6704">
        <ele>438.46138</ele>
        <time>2022-06-18T09:08:08.000Z</time>
      </trkpt>
      <trkpt lat="45.89445" lon="4.67038">
        <ele>438.43837</ele>
        <time>2022-06-18T09:08:09.000Z</time>
      </trkpt>
      <trkpt lat="45.89441" lon="4.67035">
        <ele>438.43839</ele>
        <time>2022-06-18T09:08:10.000Z</time>
      </trkpt>
      <trkpt lat="45.89438" lon="4.67033">
        <ele>438.49441</ele>
        <time>2022-06-18T09:08:11.000Z</time>
      </trkpt>
      <trkpt lat="45.89436" lon="4.67031">
        <ele>438.58929</ele>
        <time>2022-06-18T09:08:12.000Z</time>
      </trkpt>
      <trkpt lat="45.89432" lon="4.67028">
        <ele>438.67864</ele>
        <time>2022-06-18T09:08:13.000Z</time>
      </trkpt>
      <trkpt lat="45.89429" lon="4.67026">
        <ele>438.76458</ele>
        <time>2022-06-18T09:08:14.000Z</time>
      </trkpt>
      <trkpt lat="45.89426" lon="4.67023">
        <ele>438.81258</ele>
        <time>2022-06-18T09:08:15.000Z</time>
      </trkpt>
      <trkpt lat="45.89423" lon="4.67021">
        <ele>438.77102</ele>
        <time>2022-06-18T09:08:16.000Z</time>
      </trkpt>
      <trkpt lat="45.89421" lon="4.67019">
        <ele>438.69705</ele>
        <time>2022-06-18T09:08:17.000Z</time>
      </trkpt>
      <trkpt lat="45.89418" lon="4.67016">
        <ele>438.60473</ele>
        <time>2022-06-18T09:08:18.000Z</time>
      </trkpt>
      <trkpt lat="45.89415" lon="4.67014">
        <ele>438.52464</ele>
        <time>2022-06-18T09:08:19.000Z</time>
      </trkpt>
      <trkpt lat="45.89412" lon="4.67011">
        <ele>438.47075</ele>
        <time>2022-06-18T09:08:20.000Z</time>
      </trkpt>
      <trkpt lat="45.89409" lon="4.67008">
        <ele>438.44728</ele>
        <time>2022-06-18T09:08:21.000Z</time>
      </trkpt>
      <trkpt lat="45.89406" lon="4.67005">
        <ele>438.48664</ele>
        <time>2022-06-18T09:08:22.000Z</time>
      </trkpt>
      <trkpt lat="45.89403" lon="4.67002">
        <ele>438.51769</ele>
        <time>2022-06-18T09:08:23.000Z</time>
      </trkpt>
      <trkpt lat="45.894" lon="4.66999">
        <ele>438.52902</ele>
        <time>2022-06-18T09:08:24.000Z</time>
      </trkpt>
      <trkpt lat="45.89397" lon="4.66996">
        <ele>438.49567</ele>
        <time>2022-06-18T09:08:25.000Z</time>
      </trkpt>
      <trkpt lat="45.89394" lon="4.66992">
        <ele>438.40545</ele>
        <time>2022-06-18T09:08:26.000Z</time>
      </trkpt>
      <trkpt lat="45.89391" lon="4.66989">
        <ele>438.25954</ele>
        <time>2022-06-18T09:08:27.000Z</time>
      </trkpt>
      <trkpt lat="45.89388" lon="4.66985">
        <ele>438.01106</ele>
        <time>2022-06-18T09:08:28.000Z</time>
      </trkpt>
      <trkpt lat="45.89385" lon="4.66981">
        <ele>437.71997</ele>
        <time>2022-06-18T09:08:29.000Z</time>
      </trkpt>
      <trkpt lat="45.89382" lon="4.66977">
        <ele>437.45382</ele>
        <time>2022-06-18T09:08:30.000Z</time>
      </trkpt>
      <trkpt lat="45.89379" lon="4.66974">
        <ele>437.23668</ele>
        <time>2022-06-18T09:08:31.000Z</time>
      </trkpt>
      <trkpt lat="45.89375" lon="4.66971">
        <ele>437.06752</ele>
        <time>2022-06-18T09:08:32.000Z</time>
      </trkpt>
      <trkpt lat="45.89372" lon="4.66967">
        <ele>436.93151</ele>
        <time>2022-06-18T09:08:33.000Z</time>
      </trkpt>
      <trkpt lat="45.89369" lon="4.66965">
        <ele>436.79933</ele>
        <time>2022-06-18T09:08:34.000Z</time>
      </trkpt>
      <trkpt lat="45.89366" lon="4.66961">
        <ele>436.69276</ele>
        <time>2022-06-18T09:08:35.000Z</time>
      </trkpt>
      <trkpt lat="45.89364" lon="4.66958">
        <ele>436.617</ele>
        <time>2022-06-18T09:08:36.000Z</time>
      </trkpt>
      <trkpt lat="45.89362" lon="4.66954">
        <ele>436.58546</ele>
        <time>2022-06-18T09:08:37.000Z</time>
      </trkpt>
      <trkpt lat="45.89359" lon="4.6695">
        <ele>436.46765</ele>
        <time>2022-06-18T09:08:38.000Z</time>
      </trkpt>
      <trkpt lat="45.89356" lon="4.66948">
        <ele>436.23216</ele>
        <time>2022-06-18T09:08:39.000Z</time>
      </trkpt>
      <trkpt lat="45.89352" lon="4.66947">
        <ele>435.94289</ele>
        <time>2022-06-18T09:08:40.000Z</time>
      </trkpt>
      <trkpt lat="45.89349" lon="4.66946">
        <ele>435.65626</ele>
        <time>2022-06-18T09:08:41.000Z</time>
      </trkpt>
      <trkpt lat="45.89346" lon="4.66945">
        <ele>435.38885</ele>
        <time>2022-06-18T09:08:42.000Z</time>
      </trkpt>
      <trkpt lat="45.89343" lon="4.66944">
        <ele>435.14121</ele>
        <time>2022-06-18T09:08:43.000Z</time>
      </trkpt>
      <trkpt lat="45.89341" lon="4.66942">
        <ele>434.93371</ele>
        <time>2022-06-18T09:08:44.000Z</time>
      </trkpt>
      <trkpt lat="45.89338" lon="4.66941">
        <ele>434.71215</ele>
        <time>2022-06-18T09:08:45.000Z</time>
      </trkpt>
      <trkpt lat="45.89336" lon="4.6694">
        <ele>434.44821</ele>
        <time>2022-06-18T09:08:46.000Z</time>
      </trkpt>
      <trkpt lat="45.89332" lon="4.66938">
        <ele>434.13494</ele>
        <time>2022-06-18T09:08:47.000Z</time>
      </trkpt>
      <trkpt lat="45.89329" lon="4.66936">
        <ele>433.73064</ele>
        <time>2022-06-18T09:08:48.000Z</time>
      </trkpt>
      <trkpt lat="45.89325" lon="4.66934">
        <ele>433.25061</ele>
        <time>2022-06-18T09:08:49.000Z</time>
      </trkpt>
      <trkpt lat="45.89322" lon="4.66933">
        <ele>432.82035</ele>
        <time>2022-06-18T09:08:50.000Z</time>
      </trkpt>
      <trkpt lat="45.8932" lon="4.66932">
        <ele>432.35493</ele>
        <time>2022-06-18T09:08:51.000Z</time>
      </trkpt>
      <trkpt lat="45.89317" lon="4.6693">
        <ele>431.9164</ele>
        <time>2022-06-18T09:08:52.000Z</time>
      </trkpt>
      <trkpt lat="45.89315" lon="4.66929">
        <ele>431.54938</ele>
        <time>2022-06-18T09:08:53.000Z</time>
      </trkpt>
      <trkpt lat="45.89312" lon="4.66928">
        <ele>431.13393</ele>
        <time>2022-06-18T09:08:54.000Z</time>
      </trkpt>
      <trkpt lat="45.8931" lon="4.66927">
        <ele>430.81859</ele>
        <time>2022-06-18T09:08:55.000Z</time>
      </trkpt>
      <trkpt lat="45.89309" lon="4.66927">
        <ele>430.52115</ele>
        <time>2022-06-18T09:08:56.000Z</time>
      </trkpt>
      <trkpt lat="45.89306" lon="4.66926">
        <ele>430.16843</ele>
        <time>2022-06-18T09:08:57.000Z</time>
      </trkpt>
      <trkpt lat="45.89304" lon="4.66924">
        <ele>429.83844</ele>
        <time>2022-06-18T09:08:58.000Z</time>
      </trkpt>
      <trkpt lat="45.89303" lon="4.66923">
        <ele>429.56263</ele>
        <time>2022-06-18T09:08:59.000Z</time>
      </trkpt>
      <trkpt lat="45.893" lon="4.66922">
        <ele>429.08518</ele>
        <time>2022-06-18T09:09:01.000Z</time>
      </trkpt>
      <trkpt lat="45.89297" lon="4.66921">
        <ele>428.76444</ele>
        <time>2022-06-18T09:09:02.000Z</time>
      </trkpt>
      <trkpt lat="45.89295" lon="4.66921">
        <ele>428.42046</ele>
        <time>2022-06-18T09:09:03.000Z</time>
      </trkpt>
      <trkpt lat="45.89293" lon="4.6692">
        <ele>428.07177</ele>
        <time>2022-06-18T09:09:04.000Z</time>
      </trkpt>
      <trkpt lat="45.8929" lon="4.6692">
        <ele>427.68914</ele>
        <time>2022-06-18T09:09:05.000Z</time>
      </trkpt>
      <trkpt lat="45.89288" lon="4.66919">
        <ele>427.31947</ele>
        <time>2022-06-18T09:09:06.000Z</time>
      </trkpt>
      <trkpt lat="45.89286" lon="4.66918">
        <ele>426.90758</ele>
        <time>2022-06-18T09:09:08.000Z</time>
      </trkpt>
      <trkpt lat="45.89283" lon="4.6692">
        <ele>426.59435</ele>
        <time>2022-06-18T09:09:10.000Z</time>
      </trkpt>
      <trkpt lat="45.89285" lon="4.66923">
        <ele>427.04385</ele>
        <time>2022-06-18T09:09:12.000Z</time>
      </trkpt>
      <trkpt lat="45.89288" lon="4.66922">
        <ele>427.47756</ele>
        <time>2022-06-18T09:09:13.000Z</time>
      </trkpt>
      <trkpt lat="45.89291" lon="4.6692">
        <ele>427.84501</ele>
        <time>2022-06-18T09:09:14.000Z</time>
      </trkpt>
      <trkpt lat="45.89294" lon="4.66919">
        <ele>428.20033</ele>
        <time>2022-06-18T09:09:15.000Z</time>
      </trkpt>
      <trkpt lat="45.89297" lon="4.66918">
        <ele>428.60738</ele>
        <time>2022-06-18T09:09:16.000Z</time>
      </trkpt>
      <trkpt lat="45.89301" lon="4.66919">
        <ele>429.10314</ele>
        <time>2022-06-18T09:09:17.000Z</time>
      </trkpt>
      <trkpt lat="45.89304" lon="4.66922">
        <ele>429.60805</ele>
        <time>2022-06-18T09:09:18.000Z</time>
      </trkpt>
      <trkpt lat="45.89306" lon="4.66925">
        <ele>430.02466</ele>
        <time>2022-06-18T09:09:19.000Z</time>
      </trkpt>
      <trkpt lat="45.89306" lon="4.66929">
        <ele>430.3511</ele>
        <time>2022-06-18T09:09:20.000Z</time>
      </trkpt>
      <trkpt lat="45.89306" lon="4.66934">
        <ele>430.56947</ele>
        <time>2022-06-18T09:09:21.000Z</time>
      </trkpt>
      <trkpt lat="45.89306" lon="4.66938">
        <ele>430.66404</ele>
        <time>2022-06-18T09:09:22.000Z</time>
      </trkpt>
      <trkpt lat="45.89305" lon="4.66943">
        <ele>430.68515</ele>
        <time>2022-06-18T09:09:23.000Z</time>
      </trkpt>
      <trkpt lat="45.89304" lon="4.66948">
        <ele>430.65962</ele>
        <time>2022-06-18T09:09:24.000Z</time>
      </trkpt>
      <trkpt lat="45.89303" lon="4.66953">
        <ele>430.59841</ele>
        <time>2022-06-18T09:09:25.000Z</time>
      </trkpt>
      <trkpt lat="45.89302" lon="4.66958">
        <ele>430.48657</ele>
        <time>2022-06-18T09:09:26.000Z</time>
      </trkpt>
      <trkpt lat="45.89301" lon="4.66963">
        <ele>430.38432</ele>
        <time>2022-06-18T09:09:27.000Z</time>
      </trkpt>
      <trkpt lat="45.893" lon="4.66968">
        <ele>430.2897</ele>
        <time>2022-06-18T09:09:28.000Z</time>
      </trkpt>
      <trkpt lat="45.89299" lon="4.66972">
        <ele>430.18821</ele>
        <time>2022-06-18T09:09:29.000Z</time>
      </trkpt>
      <trkpt lat="45.89299" lon="4.66977">
        <ele>430.08835</ele>
        <time>2022-06-18T09:09:30.000Z</time>
      </trkpt>
      <trkpt lat="45.89298" lon="4.66982">
        <ele>429.95935</ele>
        <time>2022-06-18T09:09:31.000Z</time>
      </trkpt>
      <trkpt lat="45.89297" lon="4.66987">
        <ele>429.77866</ele>
        <time>2022-06-18T09:09:32.000Z</time>
      </trkpt>
      <trkpt lat="45.89297" lon="4.66991">
        <ele>429.56616</ele>
        <time>2022-06-18T09:09:33.000Z</time>
      </trkpt>
      <trkpt lat="45.89296" lon="4.66995">
        <ele>429.33554</ele>
        <time>2022-06-18T09:09:34.000Z</time>
      </trkpt>
      <trkpt lat="45.89296" lon="4.66999">
        <ele>429.08624</ele>
        <time>2022-06-18T09:09:35.000Z</time>
      </trkpt>
      <trkpt lat="45.89295" lon="4.67003">
        <ele>428.82756</ele>
        <time>2022-06-18T09:09:36.000Z</time>
      </trkpt>
      <trkpt lat="45.89295" lon="4.67007">
        <ele>428.55684</ele>
        <time>2022-06-18T09:09:37.000Z</time>
      </trkpt>
      <trkpt lat="45.89295" lon="4.67011">
        <ele>428.28364</ele>
        <time>2022-06-18T09:09:38.000Z</time>
      </trkpt>
      <trkpt lat="45.89295" lon="4.67016">
        <ele>427.99399</ele>
        <time>2022-06-18T09:09:39.000Z</time>
      </trkpt>
      <trkpt lat="45.89294" lon="4.6702">
        <ele>427.67714</ele>
        <time>2022-06-18T09:09:40.000Z</time>
      </trkpt>
      <trkpt lat="45.89294" lon="4.67025">
        <ele>427.30005</ele>
        <time>2022-06-18T09:09:41.000Z</time>
      </trkpt>
      <trkpt lat="45.89294" lon="4.67029">
        <ele>426.9448</ele>
        <time>2022-06-18T09:09:42.000Z</time>
      </trkpt>
      <trkpt lat="45.89293" lon="4.67033">
        <ele>426.60148</ele>
        <time>2022-06-18T09:09:43.000Z</time>
      </trkpt>
      <trkpt lat="45.89293" lon="4.67037">
        <ele>426.28203</ele>
        <time>2022-06-18T09:09:44.000Z</time>
      </trkpt>
      <trkpt lat="45.89293" lon="4.67041">
        <ele>425.91608</ele>
        <time>2022-06-18T09:09:45.000Z</time>
      </trkpt>
      <trkpt lat="45.89292" lon="4.67046">
        <ele>425.53794</ele>
        <time>2022-06-18T09:09:46.000Z</time>
      </trkpt>
      <trkpt lat="45.89292" lon="4.67051">
        <ele>425.15266</ele>
        <time>2022-06-18T09:09:47.000Z</time>
      </trkpt>
      <trkpt lat="45.89291" lon="4.67056">
        <ele>424.82335</ele>
        <time>2022-06-18T09:09:48.000Z</time>
      </trkpt>
      <trkpt lat="45.89291" lon="4.67061">
        <ele>424.53002</ele>
        <time>2022-06-18T09:09:49.000Z</time>
      </trkpt>
      <trkpt lat="45.89291" lon="4.67066">
        <ele>424.25715</ele>
        <time>2022-06-18T09:09:50.000Z</time>
      </trkpt>
      <trkpt lat="45.89291" lon="4.6707">
        <ele>424.03982</ele>
        <time>2022-06-18T09:09:51.000Z</time>
      </trkpt>
      <trkpt lat="45.89292" lon="4.67075">
        <ele>423.86212</ele>
        <time>2022-06-18T09:09:52.000Z</time>
      </trkpt>
      <trkpt lat="45.89294" lon="4.6708">
        <ele>423.67694</ele>
        <time>2022-06-18T09:09:53.000Z</time>
      </trkpt>
      <trkpt lat="45.89297" lon="4.67086">
        <ele>423.53895</ele>
        <time>2022-06-18T09:09:54.000Z</time>
      </trkpt>
      <trkpt lat="45.89298" lon="4.67092">
        <ele>423.25395</ele>
        <time>2022-06-18T09:09:55.000Z</time>
      </trkpt>
      <trkpt lat="45.89299" lon="4.67096">
        <ele>423.0764</ele>
        <time>2022-06-18T09:09:56.000Z</time>
      </trkpt>
      <trkpt lat="45.893" lon="4.67101">
        <ele>422.87544</ele>
        <time>2022-06-18T09:09:57.000Z</time>
      </trkpt>
      <trkpt lat="45.89302" lon="4.67106">
        <ele>422.61668</ele>
        <time>2022-06-18T09:09:58.000Z</time>
      </trkpt>
      <trkpt lat="45.89303" lon="4.67112">
        <ele>422.30667</ele>
        <time>2022-06-18T09:09:59.000Z</time>
      </trkpt>
      <trkpt lat="45.893" lon="4.67115">
        <ele>421.7872</ele>
        <time>2022-06-18T09:10:00.000Z</time>
      </trkpt>
      <trkpt lat="45.89299" lon="4.67119">
        <ele>421.37255</ele>
        <time>2022-06-18T09:10:01.000Z</time>
      </trkpt>
      <trkpt lat="45.89298" lon="4.67124">
        <ele>420.89031</ele>
        <time>2022-06-18T09:10:02.000Z</time>
      </trkpt>
      <trkpt lat="45.89297" lon="4.67129">
        <ele>420.27809</ele>
        <time>2022-06-18T09:10:03.000Z</time>
      </trkpt>
      <trkpt lat="45.89297" lon="4.67133">
        <ele>419.88911</ele>
        <time>2022-06-18T09:10:04.000Z</time>
      </trkpt>
      <trkpt lat="45.89296" lon="4.67139">
        <ele>419.33193</ele>
        <time>2022-06-18T09:10:05.000Z</time>
      </trkpt>
      <trkpt lat="45.89296" lon="4.67144">
        <ele>418.72769</ele>
        <time>2022-06-18T09:10:06.000Z</time>
      </trkpt>
      <trkpt lat="45.89296" lon="4.6715">
        <ele>418.11055</ele>
        <time>2022-06-18T09:10:07.000Z</time>
      </trkpt>
      <trkpt lat="45.89296" lon="4.67155">
        <ele>417.45355</ele>
        <time>2022-06-18T09:10:08.000Z</time>
      </trkpt>
      <trkpt lat="45.89295" lon="4.6716">
        <ele>416.87673</ele>
        <time>2022-06-18T09:10:09.000Z</time>
      </trkpt>
      <trkpt lat="45.89295" lon="4.67163">
        <ele>416.41323</ele>
        <time>2022-06-18T09:10:10.000Z</time>
      </trkpt>
      <trkpt lat="45.89294" lon="4.67167">
        <ele>415.91694</ele>
        <time>2022-06-18T09:10:11.000Z</time>
      </trkpt>
      <trkpt lat="45.89294" lon="4.67171">
        <ele>415.42497</ele>
        <time>2022-06-18T09:10:12.000Z</time>
      </trkpt>
      <trkpt lat="45.89293" lon="4.67173">
        <ele>415.0643</ele>
        <time>2022-06-18T09:10:13.000Z</time>
      </trkpt>
      <trkpt lat="45.89293" lon="4.67176">
        <ele>414.71707</ele>
        <time>2022-06-18T09:10:14.000Z</time>
      </trkpt>
      <trkpt lat="45.89293" lon="4.6718">
        <ele>414.3225</ele>
        <time>2022-06-18T09:10:15.000Z</time>
      </trkpt>
      <trkpt lat="45.89294" lon="4.67182">
        <ele>414.05391</ele>
        <time>2022-06-18T09:10:16.000Z</time>
      </trkpt>
      <trkpt lat="45.89292" lon="4.67186">
        <ele>413.49269</ele>
        <time>2022-06-18T09:10:22.000Z</time>
      </trkpt>
      <trkpt lat="45.89289" lon="4.67188">
        <ele>413.12782</ele>
        <time>2022-06-18T09:10:23.000Z</time>
      </trkpt>
      <trkpt lat="45.89287" lon="4.67188">
        <ele>413.01238</ele>
        <time>2022-06-18T09:10:24.000Z</time>
      </trkpt>
      <trkpt lat="45.89284" lon="4.67186">
        <ele>413.06775</ele>
        <time>2022-06-18T09:10:25.000Z</time>
      </trkpt>
      <trkpt lat="45.89281" lon="4.67184">
        <ele>413.17746</ele>
        <time>2022-06-18T09:10:26.000Z</time>
      </trkpt>
      <trkpt lat="45.89277" lon="4.67182">
        <ele>413.15219</ele>
        <time>2022-06-18T09:10:27.000Z</time>
      </trkpt>
      <trkpt lat="45.89274" lon="4.67181">
        <ele>413.05756</ele>
        <time>2022-06-18T09:10:28.000Z</time>
      </trkpt>
      <trkpt lat="45.89271" lon="4.6718">
        <ele>412.95514</ele>
        <time>2022-06-18T09:10:29.000Z</time>
      </trkpt>
      <trkpt lat="45.89268" lon="4.67179">
        <ele>412.90441</ele>
        <time>2022-06-18T09:10:30.000Z</time>
      </trkpt>
      <trkpt lat="45.89265" lon="4.67178">
        <ele>412.84762</ele>
        <time>2022-06-18T09:10:31.000Z</time>
      </trkpt>
      <trkpt lat="45.89262" lon="4.67176">
        <ele>412.81808</ele>
        <time>2022-06-18T09:10:32.000Z</time>
      </trkpt>
      <trkpt lat="45.8926" lon="4.67174">
        <ele>412.83236</ele>
        <time>2022-06-18T09:10:33.000Z</time>
      </trkpt>
      <trkpt lat="45.89257" lon="4.67171">
        <ele>412.9155</ele>
        <time>2022-06-18T09:10:34.000Z</time>
      </trkpt>
      <trkpt lat="45.89255" lon="4.67168">
        <ele>413.02323</ele>
        <time>2022-06-18T09:10:35.000Z</time>
      </trkpt>
      <trkpt lat="45.89253" lon="4.67165">
        <ele>413.10803</ele>
        <time>2022-06-18T09:10:36.000Z</time>
      </trkpt>
      <trkpt lat="45.8925" lon="4.6716">
        <ele>413.21794</ele>
        <time>2022-06-18T09:10:37.000Z</time>
      </trkpt>
      <trkpt lat="45.89247" lon="4.67153">
        <ele>413.47116</ele>
        <time>2022-06-18T09:10:38.000Z</time>
      </trkpt>
      <trkpt lat="45.89244" lon="4.67148">
        <ele>413.54366</ele>
        <time>2022-06-18T09:10:39.000Z</time>
      </trkpt>
      <trkpt lat="45.89241" lon="4.67143">
        <ele>413.65488</ele>
        <time>2022-06-18T09:10:40.000Z</time>
      </trkpt>
      <trkpt lat="45.89238" lon="4.67138">
        <ele>413.7308</ele>
        <time>2022-06-18T09:10:41.000Z</time>
      </trkpt>
      <trkpt lat="45.89235" lon="4.67131">
        <ele>413.85427</ele>
        <time>2022-06-18T09:10:42.000Z</time>
      </trkpt>
      <trkpt lat="45.89231" lon="4.67125">
        <ele>413.9524</ele>
        <time>2022-06-18T09:10:43.000Z</time>
      </trkpt>
      <trkpt lat="45.89228" lon="4.67117">
        <ele>414.05489</ele>
        <time>2022-06-18T09:10:44.000Z</time>
      </trkpt>
      <trkpt lat="45.89223" lon="4.6711">
        <ele>413.99921</ele>
        <time>2022-06-18T09:10:45.000Z</time>
      </trkpt>
      <trkpt lat="45.8922" lon="4.67104">
        <ele>414.08952</ele>
        <time>2022-06-18T09:10:46.000Z</time>
      </trkpt>
      <trkpt lat="45.89217" lon="4.67096">
        <ele>414.15099</ele>
        <time>2022-06-18T09:10:47.000Z</time>
      </trkpt>
      <trkpt lat="45.89214" lon="4.6709">
        <ele>414.26406</ele>
        <time>2022-06-18T09:10:48.000Z</time>
      </trkpt>
      <trkpt lat="45.89212" lon="4.67085">
        <ele>414.26681</ele>
        <time>2022-06-18T09:10:49.000Z</time>
      </trkpt>
      <trkpt lat="45.89209" lon="4.67077">
        <ele>414.32105</ele>
        <time>2022-06-18T09:10:50.000Z</time>
      </trkpt>
      <trkpt lat="45.89206" lon="4.67071">
        <ele>414.2148</ele>
        <time>2022-06-18T09:10:51.000Z</time>
      </trkpt>
      <trkpt lat="45.89204" lon="4.67063">
        <ele>414.18681</ele>
        <time>2022-06-18T09:10:52.000Z</time>
      </trkpt>
      <trkpt lat="45.89201" lon="4.67056">
        <ele>414.06547</ele>
        <time>2022-06-18T09:10:53.000Z</time>
      </trkpt>
      <trkpt lat="45.89199" lon="4.67048">
        <ele>413.97853</ele>
        <time>2022-06-18T09:10:54.000Z</time>
      </trkpt>
      <trkpt lat="45.89195" lon="4.67041">
        <ele>413.63708</ele>
        <time>2022-06-18T09:10:55.000Z</time>
      </trkpt>
      <trkpt lat="45.89192" lon="4.67033">
        <ele>413.47743</ele>
        <time>2022-06-18T09:10:56.000Z</time>
      </trkpt>
      <trkpt lat="45.89189" lon="4.67025">
        <ele>413.3504</ele>
        <time>2022-06-18T09:10:57.000Z</time>
      </trkpt>
      <trkpt lat="45.89187" lon="4.67017">
        <ele>413.25268</ele>
        <time>2022-06-18T09:10:58.000Z</time>
      </trkpt>
      <trkpt lat="45.89185" lon="4.67008">
        <ele>413.17579</ele>
        <time>2022-06-18T09:10:59.000Z</time>
      </trkpt>
      <trkpt lat="45.89183" lon="4.66999">
        <ele>413.22321</ele>
        <time>2022-06-18T09:11:00.000Z</time>
      </trkpt>
      <trkpt lat="45.89181" lon="4.66991">
        <ele>413.28603</ele>
        <time>2022-06-18T09:11:01.000Z</time>
      </trkpt>
      <trkpt lat="45.89179" lon="4.66982">
        <ele>413.28937</ele>
        <time>2022-06-18T09:11:02.000Z</time>
      </trkpt>
      <trkpt lat="45.89177" lon="4.66974">
        <ele>413.24856</ele>
        <time>2022-06-18T09:11:03.000Z</time>
      </trkpt>
      <trkpt lat="45.89176" lon="4.66967">
        <ele>413.20021</ele>
        <time>2022-06-18T09:11:04.000Z</time>
      </trkpt>
      <trkpt lat="45.89173" lon="4.66958">
        <ele>413.07391</ele>
        <time>2022-06-18T09:11:05.000Z</time>
      </trkpt>
      <trkpt lat="45.89171" lon="4.66951">
        <ele>412.88227</ele>
        <time>2022-06-18T09:11:06.000Z</time>
      </trkpt>
      <trkpt lat="45.89169" lon="4.66943">
        <ele>412.73341</ele>
        <time>2022-06-18T09:11:07.000Z</time>
      </trkpt>
      <trkpt lat="45.89167" lon="4.66936">
        <ele>412.60557</ele>
        <time>2022-06-18T09:11:08.000Z</time>
      </trkpt>
      <trkpt lat="45.89167" lon="4.66928">
        <ele>412.63014</ele>
        <time>2022-06-18T09:11:09.000Z</time>
      </trkpt>
      <trkpt lat="45.89165" lon="4.66921">
        <ele>412.54004</ele>
        <time>2022-06-18T09:11:10.000Z</time>
      </trkpt>
      <trkpt lat="45.89163" lon="4.66914">
        <ele>412.4412</ele>
        <time>2022-06-18T09:11:11.000Z</time>
      </trkpt>
      <trkpt lat="45.89162" lon="4.66905">
        <ele>412.37459</ele>
        <time>2022-06-18T09:11:12.000Z</time>
      </trkpt>
      <trkpt lat="45.89159" lon="4.66897">
        <ele>412.29259</ele>
        <time>2022-06-18T09:11:13.000Z</time>
      </trkpt>
      <trkpt lat="45.89157" lon="4.66889">
        <ele>412.28394</ele>
        <time>2022-06-18T09:11:14.000Z</time>
      </trkpt>
      <trkpt lat="45.89156" lon="4.66881">
        <ele>412.34048</ele>
        <time>2022-06-18T09:11:15.000Z</time>
      </trkpt>
      <trkpt lat="45.89156" lon="4.66875">
        <ele>412.43587</ele>
        <time>2022-06-18T09:11:16.000Z</time>
      </trkpt>
      <trkpt lat="45.89157" lon="4.66871">
        <ele>412.52312</ele>
        <time>2022-06-18T09:11:17.000Z</time>
      </trkpt>
      <trkpt lat="45.89158" lon="4.66869">
        <ele>412.57396</ele>
        <time>2022-06-18T09:11:18.000Z</time>
      </trkpt>
      <trkpt lat="45.89157" lon="4.66866">
        <ele>412.63316</ele>
        <time>2022-06-18T09:11:24.000Z</time>
      </trkpt>
      <trkpt lat="45.89157" lon="4.66862">
        <ele>412.71499</ele>
        <time>2022-06-18T09:11:26.000Z</time>
      </trkpt>
      <trkpt lat="45.89156" lon="4.66858">
        <ele>412.77556</ele>
        <time>2022-06-18T09:11:27.000Z</time>
      </trkpt>
      <trkpt lat="45.89155" lon="4.66853">
        <ele>412.81613</ele>
        <time>2022-06-18T09:11:28.000Z</time>
      </trkpt>
      <trkpt lat="45.89155" lon="4.66848">
        <ele>412.77461</ele>
        <time>2022-06-18T09:11:29.000Z</time>
      </trkpt>
      <trkpt lat="45.89155" lon="4.66844">
        <ele>412.72269</ele>
        <time>2022-06-18T09:11:30.000Z</time>
      </trkpt>
      <trkpt lat="45.89155" lon="4.66839">
        <ele>412.65094</ele>
        <time>2022-06-18T09:11:31.000Z</time>
      </trkpt>
      <trkpt lat="45.89155" lon="4.66834">
        <ele>412.53013</ele>
        <time>2022-06-18T09:11:32.000Z</time>
      </trkpt>
      <trkpt lat="45.89155" lon="4.6683">
        <ele>412.37294</ele>
        <time>2022-06-18T09:11:33.000Z</time>
      </trkpt>
      <trkpt lat="45.89155" lon="4.66826">
        <ele>412.18925</ele>
        <time>2022-06-18T09:11:34.000Z</time>
      </trkpt>
      <trkpt lat="45.89155" lon="4.66823">
        <ele>411.98296</ele>
        <time>2022-06-18T09:11:35.000Z</time>
      </trkpt>
      <trkpt lat="45.89155" lon="4.6682">
        <ele>411.75182</ele>
        <time>2022-06-18T09:11:36.000Z</time>
      </trkpt>
      <trkpt lat="45.89155" lon="4.66816">
        <ele>411.35027</ele>
        <time>2022-06-18T09:11:38.000Z</time>
      </trkpt>
      <trkpt lat="45.89153" lon="4.66813">
        <ele>411.07918</ele>
        <time>2022-06-18T09:11:39.000Z</time>
      </trkpt>
      <trkpt lat="45.89152" lon="4.66809">
        <ele>410.66087</ele>
        <time>2022-06-18T09:11:40.000Z</time>
      </trkpt>
      <trkpt lat="45.8915" lon="4.66804">
        <ele>410.1804</ele>
        <time>2022-06-18T09:11:41.000Z</time>
      </trkpt>
      <trkpt lat="45.89147" lon="4.66799">
        <ele>409.68414</ele>
        <time>2022-06-18T09:11:42.000Z</time>
      </trkpt>
      <trkpt lat="45.89142" lon="4.66796">
        <ele>409.7939</ele>
        <time>2022-06-18T09:11:43.000Z</time>
      </trkpt>
      <trkpt lat="45.89138" lon="4.66793">
        <ele>409.67593</ele>
        <time>2022-06-18T09:11:44.000Z</time>
      </trkpt>
      <trkpt lat="45.89134" lon="4.66791">
        <ele>409.75575</ele>
        <time>2022-06-18T09:11:45.000Z</time>
      </trkpt>
      <trkpt lat="45.89128" lon="4.66789">
        <ele>409.83942</ele>
        <time>2022-06-18T09:11:46.000Z</time>
      </trkpt>
      <trkpt lat="45.89124" lon="4.66787">
        <ele>409.84224</ele>
        <time>2022-06-18T09:11:47.000Z</time>
      </trkpt>
      <trkpt lat="45.89119" lon="4.66783">
        <ele>409.61431</ele>
        <time>2022-06-18T09:11:48.000Z</time>
      </trkpt>
      <trkpt lat="45.89116" lon="4.66778">
        <ele>409.24871</ele>
        <time>2022-06-18T09:11:49.000Z</time>
      </trkpt>
      <trkpt lat="45.89108" lon="4.6677">
        <ele>408.79747</ele>
        <time>2022-06-18T09:11:51.000Z</time>
      </trkpt>
      <trkpt lat="45.89102" lon="4.6677">
        <ele>409.22319</ele>
        <time>2022-06-18T09:11:52.000Z</time>
      </trkpt>
      <trkpt lat="45.89095" lon="4.66767">
        <ele>409.35328</ele>
        <time>2022-06-18T09:11:53.000Z</time>
      </trkpt>
      <trkpt lat="45.89089" lon="4.66765">
        <ele>409.57433</ele>
        <time>2022-06-18T09:11:54.000Z</time>
      </trkpt>
      <trkpt lat="45.89083" lon="4.66763">
        <ele>409.76885</ele>
        <time>2022-06-18T09:11:55.000Z</time>
      </trkpt>
      <trkpt lat="45.89081" lon="4.66762">
        <ele>409.713</ele>
        <time>2022-06-18T09:11:56.000Z</time>
      </trkpt>
      <trkpt lat="45.89078" lon="4.66759">
        <ele>409.55754</ele>
        <time>2022-06-18T09:11:57.000Z</time>
      </trkpt>
      <trkpt lat="45.89061" lon="4.66748">
        <ele>409.36678</ele>
        <time>2022-06-18T09:12:05.000Z</time>
      </trkpt>
      <trkpt lat="45.89059" lon="4.66746">
        <ele>409.26606</ele>
        <time>2022-06-18T09:12:07.000Z</time>
      </trkpt>
      <trkpt lat="45.89057" lon="4.66743">
        <ele>409.0641</ele>
        <time>2022-06-18T09:12:08.000Z</time>
      </trkpt>
      <trkpt lat="45.89054" lon="4.66739">
        <ele>408.79097</ele>
        <time>2022-06-18T09:12:09.000Z</time>
      </trkpt>
      <trkpt lat="45.89051" lon="4.66735">
        <ele>408.56021</ele>
        <time>2022-06-18T09:12:10.000Z</time>
      </trkpt>
      <trkpt lat="45.89046" lon="4.66735">
        <ele>408.84144</ele>
        <time>2022-06-18T09:12:11.000Z</time>
      </trkpt>
      <trkpt lat="45.89039" lon="4.66728">
        <ele>408.44716</ele>
        <time>2022-06-18T09:12:12.000Z</time>
      </trkpt>
      <trkpt lat="45.89035" lon="4.66726">
        <ele>408.42101</ele>
        <time>2022-06-18T09:12:13.000Z</time>
      </trkpt>
      <trkpt lat="45.89032" lon="4.66724">
        <ele>408.39537</ele>
        <time>2022-06-18T09:12:14.000Z</time>
      </trkpt>
      <trkpt lat="45.89028" lon="4.66723">
        <ele>408.3952</ele>
        <time>2022-06-18T09:12:15.000Z</time>
      </trkpt>
      <trkpt lat="45.89025" lon="4.66722">
        <ele>408.43522</ele>
        <time>2022-06-18T09:12:17.000Z</time>
      </trkpt>
      <trkpt lat="45.89023" lon="4.66724">
        <ele>408.86845</ele>
        <time>2022-06-18T09:12:18.000Z</time>
      </trkpt>
      <trkpt lat="45.8902" lon="4.66725">
        <ele>409.18515</ele>
        <time>2022-06-18T09:12:19.000Z</time>
      </trkpt>
      <trkpt lat="45.89018" lon="4.66731">
        <ele>410.04781</ele>
        <time>2022-06-18T09:12:20.000Z</time>
      </trkpt>
      <trkpt lat="45.89016" lon="4.66743">
        <ele>411.65171</ele>
        <time>2022-06-18T09:12:22.000Z</time>
      </trkpt>
      <trkpt lat="45.89014" lon="4.66751">
        <ele>412.53755</ele>
        <time>2022-06-18T09:12:23.000Z</time>
      </trkpt>
      <trkpt lat="45.89016" lon="4.66758">
        <ele>413.2006</ele>
        <time>2022-06-18T09:12:24.000Z</time>
      </trkpt>
      <trkpt lat="45.89015" lon="4.66765">
        <ele>413.93999</ele>
        <time>2022-06-18T09:12:25.000Z</time>
      </trkpt>
      <trkpt lat="45.89015" lon="4.66771">
        <ele>414.52992</ele>
        <time>2022-06-18T09:12:26.000Z</time>
      </trkpt>
      <trkpt lat="45.89013" lon="4.66777">
        <ele>415.07492</ele>
        <time>2022-06-18T09:12:27.000Z</time>
      </trkpt>
      <trkpt lat="45.89011" lon="4.66785">
        <ele>415.69758</ele>
        <time>2022-06-18T09:12:29.000Z</time>
      </trkpt>
      <trkpt lat="45.8901" lon="4.66789">
        <ele>416.03762</ele>
        <time>2022-06-18T09:12:30.000Z</time>
      </trkpt>
      <trkpt lat="45.89009" lon="4.66794">
        <ele>416.29742</ele>
        <time>2022-06-18T09:12:31.000Z</time>
      </trkpt>
      <trkpt lat="45.89008" lon="4.66798">
        <ele>416.51458</ele>
        <time>2022-06-18T09:12:32.000Z</time>
      </trkpt>
      <trkpt lat="45.89012" lon="4.668">
        <ele>416.4825</ele>
        <time>2022-06-18T09:12:33.000Z</time>
      </trkpt>
      <trkpt lat="45.89013" lon="4.66801">
        <ele>416.50829</ele>
        <time>2022-06-18T09:12:34.000Z</time>
      </trkpt>
      <trkpt lat="45.89016" lon="4.66802">
        <ele>416.47699</ele>
        <time>2022-06-18T09:12:35.000Z</time>
      </trkpt>
      <trkpt lat="45.89018" lon="4.66801">
        <ele>416.38239</ele>
        <time>2022-06-18T09:12:36.000Z</time>
      </trkpt>
      <trkpt lat="45.89021" lon="4.66801">
        <ele>416.30695</ele>
        <time>2022-06-18T09:12:37.000Z</time>
      </trkpt>
      <trkpt lat="45.89025" lon="4.66802">
        <ele>416.22433</ele>
        <time>2022-06-18T09:12:38.000Z</time>
      </trkpt>
      <trkpt lat="45.89029" lon="4.66802">
        <ele>416.12367</ele>
        <time>2022-06-18T09:12:39.000Z</time>
      </trkpt>
      <trkpt lat="45.89033" lon="4.66802">
        <ele>416.01918</ele>
        <time>2022-06-18T09:12:40.000Z</time>
      </trkpt>
      <trkpt lat="45.89037" lon="4.66802">
        <ele>415.93327</ele>
        <time>2022-06-18T09:12:41.000Z</time>
      </trkpt>
      <trkpt lat="45.89039" lon="4.66802">
        <ele>415.82237</ele>
        <time>2022-06-18T09:12:42.000Z</time>
      </trkpt>
      <trkpt lat="45.89042" lon="4.66801">
        <ele>415.63838</ele>
        <time>2022-06-18T09:12:43.000Z</time>
      </trkpt>
      <trkpt lat="45.89045" lon="4.66798">
        <ele>415.36306</ele>
        <time>2022-06-18T09:12:44.000Z</time>
      </trkpt>
      <trkpt lat="45.89047" lon="4.66795">
        <ele>415.0047</ele>
        <time>2022-06-18T09:12:45.000Z</time>
      </trkpt>
      <trkpt lat="45.8905" lon="4.66792">
        <ele>414.59935</ele>
        <time>2022-06-18T09:12:46.000Z</time>
      </trkpt>
      <trkpt lat="45.89052" lon="4.66788">
        <ele>414.13005</ele>
        <time>2022-06-18T09:12:47.000Z</time>
      </trkpt>
      <trkpt lat="45.89055" lon="4.66784">
        <ele>413.65871</ele>
        <time>2022-06-18T09:12:48.000Z</time>
      </trkpt>
      <trkpt lat="45.89058" lon="4.6678">
        <ele>413.17685</ele>
        <time>2022-06-18T09:12:49.000Z</time>
      </trkpt>
      <trkpt lat="45.89061" lon="4.66777">
        <ele>412.72637</ele>
        <time>2022-06-18T09:12:50.000Z</time>
      </trkpt>
      <trkpt lat="45.89063" lon="4.66775">
        <ele>412.41237</ele>
        <time>2022-06-18T09:12:51.000Z</time>
      </trkpt>
      <trkpt lat="45.89066" lon="4.66772">
        <ele>411.90303</ele>
        <time>2022-06-18T09:12:53.000Z</time>
      </trkpt>
      <trkpt lat="45.89067" lon="4.6677">
        <ele>411.61202</ele>
        <time>2022-06-18T09:12:54.000Z</time>
      </trkpt>
      <trkpt lat="45.89069" lon="4.66771">
        <ele>411.57017</ele>
        <time>2022-06-18T09:12:55.000Z</time>
      </trkpt>
      <trkpt lat="45.89071" lon="4.66775">
        <ele>411.90666</ele>
        <time>2022-06-18T09:12:56.000Z</time>
      </trkpt>
      <trkpt lat="45.89073" lon="4.66781">
        <ele>412.45977</ele>
        <time>2022-06-18T09:12:57.000Z</time>
      </trkpt>
      <trkpt lat="45.89074" lon="4.66786">
        <ele>412.98529</ele>
        <time>2022-06-18T09:12:58.000Z</time>
      </trkpt>
      <trkpt lat="45.89075" lon="4.66792">
        <ele>413.46767</ele>
        <time>2022-06-18T09:12:59.000Z</time>
      </trkpt>
      <trkpt lat="45.89075" lon="4.66796">
        <ele>413.86557</ele>
        <time>2022-06-18T09:13:00.000Z</time>
      </trkpt>
      <trkpt lat="45.89076" lon="4.66801">
        <ele>414.21721</ele>
        <time>2022-06-18T09:13:01.000Z</time>
      </trkpt>
      <trkpt lat="45.89076" lon="4.66804">
        <ele>414.53179</ele>
        <time>2022-06-18T09:13:02.000Z</time>
      </trkpt>
      <trkpt lat="45.89076" lon="4.66808">
        <ele>414.81265</ele>
        <time>2022-06-18T09:13:03.000Z</time>
      </trkpt>
      <trkpt lat="45.89076" lon="4.66811">
        <ele>415.02498</ele>
        <time>2022-06-18T09:13:04.000Z</time>
      </trkpt>
      <trkpt lat="45.89076" lon="4.66814">
        <ele>415.20894</ele>
        <time>2022-06-18T09:13:05.000Z</time>
      </trkpt>
      <trkpt lat="45.89077" lon="4.66818">
        <ele>415.3588</ele>
        <time>2022-06-18T09:13:07.000Z</time>
      </trkpt>
      <trkpt lat="45.89079" lon="4.6682">
        <ele>415.34443</ele>
        <time>2022-06-18T09:13:08.000Z</time>
      </trkpt>
      <trkpt lat="45.89082" lon="4.6682">
        <ele>415.24232</ele>
        <time>2022-06-18T09:13:09.000Z</time>
      </trkpt>
      <trkpt lat="45.89085" lon="4.66819">
        <ele>415.02912</ele>
        <time>2022-06-18T09:13:10.000Z</time>
      </trkpt>
      <trkpt lat="45.89088" lon="4.66815">
        <ele>414.69148</ele>
        <time>2022-06-18T09:13:11.000Z</time>
      </trkpt>
      <trkpt lat="45.89091" lon="4.6681">
        <ele>414.18116</ele>
        <time>2022-06-18T09:13:12.000Z</time>
      </trkpt>
      <trkpt lat="45.89094" lon="4.66804">
        <ele>413.59068</ele>
        <time>2022-06-18T09:13:13.000Z</time>
      </trkpt>
      <trkpt lat="45.89096" lon="4.66799">
        <ele>412.98188</ele>
        <time>2022-06-18T09:13:14.000Z</time>
      </trkpt>
      <trkpt lat="45.89098" lon="4.66795">
        <ele>412.39607</ele>
        <time>2022-06-18T09:13:15.000Z</time>
      </trkpt>
      <trkpt lat="45.89101" lon="4.66792">
        <ele>411.84706</ele>
        <time>2022-06-18T09:13:16.000Z</time>
      </trkpt>
      <trkpt lat="45.89105" lon="4.66791">
        <ele>411.5289</ele>
        <time>2022-06-18T09:13:17.000Z</time>
      </trkpt>
      <trkpt lat="45.89108" lon="4.66792">
        <ele>411.483</ele>
        <time>2022-06-18T09:13:18.000Z</time>
      </trkpt>
      <trkpt lat="45.8911" lon="4.66794">
        <ele>411.59941</ele>
        <time>2022-06-18T09:13:19.000Z</time>
      </trkpt>
      <trkpt lat="45.89112" lon="4.66797">
        <ele>411.81818</ele>
        <time>2022-06-18T09:13:20.000Z</time>
      </trkpt>
      <trkpt lat="45.89113" lon="4.668">
        <ele>412.06425</ele>
        <time>2022-06-18T09:13:21.000Z</time>
      </trkpt>
      <trkpt lat="45.89114" lon="4.66802">
        <ele>412.30589</ele>
        <time>2022-06-18T09:13:22.000Z</time>
      </trkpt>
      <trkpt lat="45.89114" lon="4.66805">
        <ele>412.55939</ele>
        <time>2022-06-18T09:13:23.000Z</time>
      </trkpt>
      <trkpt lat="45.89113" lon="4.66808">
        <ele>412.82638</ele>
        <time>2022-06-18T09:13:24.000Z</time>
      </trkpt>
      <trkpt lat="45.89113" lon="4.6681">
        <ele>413.08268</ele>
        <time>2022-06-18T09:13:25.000Z</time>
      </trkpt>
      <trkpt lat="45.89112" lon="4.66813">
        <ele>413.33149</ele>
        <time>2022-06-18T09:13:26.000Z</time>
      </trkpt>
      <trkpt lat="45.89111" lon="4.66816">
        <ele>413.56678</ele>
        <time>2022-06-18T09:13:27.000Z</time>
      </trkpt>
      <trkpt lat="45.8911" lon="4.66819">
        <ele>413.75423</ele>
        <time>2022-06-18T09:13:28.000Z</time>
      </trkpt>
      <trkpt lat="45.89109" lon="4.66823">
        <ele>414.02358</ele>
        <time>2022-06-18T09:13:30.000Z</time>
      </trkpt>
      <trkpt lat="45.89107" lon="4.66825">
        <ele>414.20191</ele>
        <time>2022-06-18T09:13:32.000Z</time>
      </trkpt>
      <trkpt lat="45.89105" lon="4.66825">
        <ele>414.32139</ele>
        <time>2022-06-18T09:13:34.000Z</time>
      </trkpt>
      <trkpt lat="45.89103" lon="4.66826">
        <ele>414.4255</ele>
        <time>2022-06-18T09:13:36.000Z</time>
      </trkpt>
      <trkpt lat="45.89102" lon="4.66823">
        <ele>414.38184</ele>
        <time>2022-06-18T09:13:39.000Z</time>
      </trkpt>
      <trkpt lat="45.89102" lon="4.66821">
        <ele>414.26504</ele>
        <time>2022-06-18T09:13:41.000Z</time>
      </trkpt>
      <trkpt lat="45.89103" lon="4.66819">
        <ele>414.0887</ele>
        <time>2022-06-18T09:13:46.000Z</time>
      </trkpt>
      <trkpt lat="45.89101" lon="4.66816">
        <ele>413.99901</ele>
        <time>2022-06-18T09:14:20.000Z</time>
      </trkpt>
      <trkpt lat="45.89099" lon="4.66813">
        <ele>413.93599</ele>
        <time>2022-06-18T09:14:22.000Z</time>
      </trkpt>
      <trkpt lat="45.89098" lon="4.6681">
        <ele>413.7662</ele>
        <time>2022-06-18T09:14:23.000Z</time>
      </trkpt>
      <trkpt lat="45.89097" lon="4.66805">
        <ele>413.47004</ele>
        <time>2022-06-18T09:14:24.000Z</time>
      </trkpt>
      <trkpt lat="45.89097" lon="4.66801">
        <ele>413.09404</ele>
        <time>2022-06-18T09:14:25.000Z</time>
      </trkpt>
      <trkpt lat="45.89098" lon="4.66798">
        <ele>412.68656</ele>
        <time>2022-06-18T09:14:26.000Z</time>
      </trkpt>
      <trkpt lat="45.891" lon="4.66795">
        <ele>412.30784</ele>
        <time>2022-06-18T09:14:27.000Z</time>
      </trkpt>
      <trkpt lat="45.89103" lon="4.66794">
        <ele>412.01089</ele>
        <time>2022-06-18T09:14:28.000Z</time>
      </trkpt>
      <trkpt lat="45.89106" lon="4.66794">
        <ele>411.77792</ele>
        <time>2022-06-18T09:14:29.000Z</time>
      </trkpt>
      <trkpt lat="45.89109" lon="4.66793">
        <ele>411.51705</ele>
        <time>2022-06-18T09:14:30.000Z</time>
      </trkpt>
      <trkpt lat="45.89113" lon="4.66794">
        <ele>411.42729</ele>
        <time>2022-06-18T09:14:32.000Z</time>
      </trkpt>
      <trkpt lat="45.89114" lon="4.66798">
        <ele>411.77269</ele>
        <time>2022-06-18T09:14:33.000Z</time>
      </trkpt>
      <trkpt lat="45.89114" lon="4.66802">
        <ele>412.2173</ele>
        <time>2022-06-18T09:14:34.000Z</time>
      </trkpt>
      <trkpt lat="45.89114" lon="4.66805">
        <ele>412.58018</ele>
        <time>2022-06-18T09:14:35.000Z</time>
      </trkpt>
      <trkpt lat="45.89114" lon="4.66808">
        <ele>412.85371</ele>
        <time>2022-06-18T09:14:36.000Z</time>
      </trkpt>
      <trkpt lat="45.89114" lon="4.66811">
        <ele>413.08223</ele>
        <time>2022-06-18T09:14:37.000Z</time>
      </trkpt>
      <trkpt lat="45.89114" lon="4.66816">
        <ele>413.44388</ele>
        <time>2022-06-18T09:14:39.000Z</time>
      </trkpt>
      <trkpt lat="45.89111" lon="4.66817">
        <ele>413.65638</ele>
        <time>2022-06-18T09:14:41.000Z</time>
      </trkpt>
      <trkpt lat="45.89109" lon="4.66815">
        <ele>413.57069</ele>
        <time>2022-06-18T09:14:42.000Z</time>
      </trkpt>
      <trkpt lat="45.89109" lon="4.66812">
        <ele>413.3672</ele>
        <time>2022-06-18T09:14:43.000Z</time>
      </trkpt>
      <trkpt lat="45.89109" lon="4.66809">
        <ele>413.12844</ele>
        <time>2022-06-18T09:14:44.000Z</time>
      </trkpt>
      <trkpt lat="45.8911" lon="4.66806">
        <ele>412.7657</ele>
        <time>2022-06-18T09:14:46.000Z</time>
      </trkpt>
      <trkpt lat="45.89112" lon="4.66801">
        <ele>412.24126</ele>
        <time>2022-06-18T09:14:48.000Z</time>
      </trkpt>
      <trkpt lat="45.89114" lon="4.66799">
        <ele>411.98913</ele>
        <time>2022-06-18T09:14:49.000Z</time>
      </trkpt>
      <trkpt lat="45.89116" lon="4.66799">
        <ele>411.85651</ele>
        <time>2022-06-18T09:14:50.000Z</time>
      </trkpt>
      <trkpt lat="45.89118" lon="4.668">
        <ele>411.90126</ele>
        <time>2022-06-18T09:14:51.000Z</time>
      </trkpt>
      <trkpt lat="45.8912" lon="4.66802">
        <ele>412.08742</ele>
        <time>2022-06-18T09:14:52.000Z</time>
      </trkpt>
      <trkpt lat="45.89123" lon="4.66804">
        <ele>412.3368</ele>
        <time>2022-06-18T09:14:53.000Z</time>
      </trkpt>
      <trkpt lat="45.89125" lon="4.66806">
        <ele>412.59216</ele>
        <time>2022-06-18T09:14:54.000Z</time>
      </trkpt>
      <trkpt lat="45.89128" lon="4.66808">
        <ele>412.74508</ele>
        <time>2022-06-18T09:14:55.000Z</time>
      </trkpt>
      <trkpt lat="45.89131" lon="4.66809">
        <ele>412.86721</ele>
        <time>2022-06-18T09:14:56.000Z</time>
      </trkpt>
      <trkpt lat="45.89134" lon="4.66811">
        <ele>412.94834</ele>
        <time>2022-06-18T09:14:57.000Z</time>
      </trkpt>
      <trkpt lat="45.89137" lon="4.66812">
        <ele>412.96482</ele>
        <time>2022-06-18T09:14:58.000Z</time>
      </trkpt>
      <trkpt lat="45.89141" lon="4.66815">
        <ele>412.87907</ele>
        <time>2022-06-18T09:14:59.000Z</time>
      </trkpt>
      <trkpt lat="45.89144" lon="4.66816">
        <ele>412.63321</ele>
        <time>2022-06-18T09:15:00.000Z</time>
      </trkpt>
      <trkpt lat="45.89148" lon="4.66817">
        <ele>412.36412</ele>
        <time>2022-06-18T09:15:01.000Z</time>
      </trkpt>
      <trkpt lat="45.89151" lon="4.6682">
        <ele>412.2727</ele>
        <time>2022-06-18T09:15:02.000Z</time>
      </trkpt>
      <trkpt lat="45.89154" lon="4.66831">
        <ele>412.49672</ele>
        <time>2022-06-18T09:15:04.000Z</time>
      </trkpt>
      <trkpt lat="45.89154" lon="4.66837">
        <ele>412.65129</ele>
        <time>2022-06-18T09:15:05.000Z</time>
      </trkpt>
      <trkpt lat="45.89154" lon="4.66843">
        <ele>412.74992</ele>
        <time>2022-06-18T09:15:06.000Z</time>
      </trkpt>
      <trkpt lat="45.89154" lon="4.66849">
        <ele>412.82154</ele>
        <time>2022-06-18T09:15:07.000Z</time>
      </trkpt>
      <trkpt lat="45.89153" lon="4.66855">
        <ele>412.84775</ele>
        <time>2022-06-18T09:15:08.000Z</time>
      </trkpt>
      <trkpt lat="45.89153" lon="4.66862">
        <ele>412.77402</ele>
        <time>2022-06-18T09:15:09.000Z</time>
      </trkpt>
      <trkpt lat="45.89152" lon="4.66868">
        <ele>412.64441</ele>
        <time>2022-06-18T09:15:10.000Z</time>
      </trkpt>
      <trkpt lat="45.89152" lon="4.66874">
        <ele>412.49152</ele>
        <time>2022-06-18T09:15:11.000Z</time>
      </trkpt>
      <trkpt lat="45.89153" lon="4.66886">
        <ele>412.27384</ele>
        <time>2022-06-18T09:15:13.000Z</time>
      </trkpt>
      <trkpt lat="45.89154" lon="4.66891">
        <ele>412.23075</ele>
        <time>2022-06-18T09:15:14.000Z</time>
      </trkpt>
      <trkpt lat="45.89155" lon="4.66896">
        <ele>412.20404</ele>
        <time>2022-06-18T09:15:15.000Z</time>
      </trkpt>
      <trkpt lat="45.89155" lon="4.66901">
        <ele>412.17576</ele>
        <time>2022-06-18T09:15:16.000Z</time>
      </trkpt>
      <trkpt lat="45.89155" lon="4.66905">
        <ele>412.13791</ele>
        <time>2022-06-18T09:15:17.000Z</time>
      </trkpt>
      <trkpt lat="45.89154" lon="4.6691">
        <ele>412.08713</ele>
        <time>2022-06-18T09:15:18.000Z</time>
      </trkpt>
      <trkpt lat="45.89153" lon="4.66915">
        <ele>412.01458</ele>
        <time>2022-06-18T09:15:19.000Z</time>
      </trkpt>
      <trkpt lat="45.89152" lon="4.66919">
        <ele>411.9378</ele>
        <time>2022-06-18T09:15:20.000Z</time>
      </trkpt>
      <trkpt lat="45.89152" lon="4.66924">
        <ele>411.86071</ele>
        <time>2022-06-18T09:15:21.000Z</time>
      </trkpt>
      <trkpt lat="45.89151" lon="4.66929">
        <ele>411.78794</ele>
        <time>2022-06-18T09:15:22.000Z</time>
      </trkpt>
      <trkpt lat="45.89152" lon="4.66934">
        <ele>411.72483</ele>
        <time>2022-06-18T09:15:23.000Z</time>
      </trkpt>
      <trkpt lat="45.89155" lon="4.66948">
        <ele>411.78609</ele>
        <time>2022-06-18T09:15:25.000Z</time>
      </trkpt>
      <trkpt lat="45.89152" lon="4.66953">
        <ele>411.55431</ele>
        <time>2022-06-18T09:15:26.000Z</time>
      </trkpt>
      <trkpt lat="45.89155" lon="4.66957">
        <ele>411.71629</ele>
        <time>2022-06-18T09:15:27.000Z</time>
      </trkpt>
      <trkpt lat="45.8915" lon="4.6696">
        <ele>411.38939</ele>
        <time>2022-06-18T09:15:28.000Z</time>
      </trkpt>
      <trkpt lat="45.89146" lon="4.66961">
        <ele>411.00687</ele>
        <time>2022-06-18T09:15:29.000Z</time>
      </trkpt>
      <trkpt lat="45.89144" lon="4.66962">
        <ele>410.80474</ele>
        <time>2022-06-18T09:15:30.000Z</time>
      </trkpt>
      <trkpt lat="45.89142" lon="4.66964">
        <ele>410.567</ele>
        <time>2022-06-18T09:15:31.000Z</time>
      </trkpt>
      <trkpt lat="45.89139" lon="4.66966">
        <ele>410.25854</ele>
        <time>2022-06-18T09:15:32.000Z</time>
      </trkpt>
      <trkpt lat="45.89133" lon="4.66967">
        <ele>409.7113</ele>
        <time>2022-06-18T09:15:33.000Z</time>
      </trkpt>
      <trkpt lat="45.89131" lon="4.66969">
        <ele>409.42862</ele>
        <time>2022-06-18T09:15:34.000Z</time>
      </trkpt>
      <trkpt lat="45.89127" lon="4.66969">
        <ele>409.05963</ele>
        <time>2022-06-18T09:15:35.000Z</time>
      </trkpt>
      <trkpt lat="45.89124" lon="4.66971">
        <ele>408.74123</ele>
        <time>2022-06-18T09:15:36.000Z</time>
      </trkpt>
      <trkpt lat="45.89121" lon="4.66971">
        <ele>408.48779</ele>
        <time>2022-06-18T09:15:37.000Z</time>
      </trkpt>
      <trkpt lat="45.89118" lon="4.66972">
        <ele>408.23008</ele>
        <time>2022-06-18T09:15:38.000Z</time>
      </trkpt>
      <trkpt lat="45.89116" lon="4.66974">
        <ele>407.9337</ele>
        <time>2022-06-18T09:15:39.000Z</time>
      </trkpt>
      <trkpt lat="45.89113" lon="4.66977">
        <ele>407.54677</ele>
        <time>2022-06-18T09:15:40.000Z</time>
      </trkpt>
      <trkpt lat="45.89111" lon="4.66981">
        <ele>407.09318</ele>
        <time>2022-06-18T09:15:41.000Z</time>
      </trkpt>
      <trkpt lat="45.8911" lon="4.66987">
        <ele>406.53565</ele>
        <time>2022-06-18T09:15:42.000Z</time>
      </trkpt>
      <trkpt lat="45.89108" lon="4.66993">
        <ele>405.9394</ele>
        <time>2022-06-18T09:15:43.000Z</time>
      </trkpt>
      <trkpt lat="45.89108" lon="4.66999">
        <ele>405.3996</ele>
        <time>2022-06-18T09:15:44.000Z</time>
      </trkpt>
      <trkpt lat="45.89108" lon="4.67004">
        <ele>405.0068</ele>
        <time>2022-06-18T09:15:45.000Z</time>
      </trkpt>
      <trkpt lat="45.89109" lon="4.67007">
        <ele>404.8739</ele>
        <time>2022-06-18T09:15:49.000Z</time>
      </trkpt>
      <trkpt lat="45.89107" lon="4.67009">
        <ele>404.59787</ele>
        <time>2022-06-18T09:16:27.000Z</time>
      </trkpt>
      <trkpt lat="45.89105" lon="4.67009">
        <ele>404.43235</ele>
        <time>2022-06-18T09:16:28.000Z</time>
      </trkpt>
      <trkpt lat="45.89103" lon="4.67009">
        <ele>404.29052</ele>
        <time>2022-06-18T09:16:29.000Z</time>
      </trkpt>
      <trkpt lat="45.891" lon="4.6701">
        <ele>404.17122</ele>
        <time>2022-06-18T09:16:30.000Z</time>
      </trkpt>
      <trkpt lat="45.89098" lon="4.67009">
        <ele>404.06126</ele>
        <time>2022-06-18T09:16:31.000Z</time>
      </trkpt>
      <trkpt lat="45.89094" lon="4.67009">
        <ele>403.95229</ele>
        <time>2022-06-18T09:16:32.000Z</time>
      </trkpt>
      <trkpt lat="45.89089" lon="4.67009">
        <ele>403.84411</ele>
        <time>2022-06-18T09:16:33.000Z</time>
      </trkpt>
      <trkpt lat="45.89085" lon="4.67008">
        <ele>403.74655</ele>
        <time>2022-06-18T09:16:34.000Z</time>
      </trkpt>
      <trkpt lat="45.89079" lon="4.67007">
        <ele>403.70214</ele>
        <time>2022-06-18T09:16:35.000Z</time>
      </trkpt>
      <trkpt lat="45.89074" lon="4.67007">
        <ele>403.66719</ele>
        <time>2022-06-18T09:16:36.000Z</time>
      </trkpt>
      <trkpt lat="45.8907" lon="4.67006">
        <ele>403.72333</ele>
        <time>2022-06-18T09:16:37.000Z</time>
      </trkpt>
      <trkpt lat="45.89065" lon="4.67005">
        <ele>403.70916</ele>
        <time>2022-06-18T09:16:38.000Z</time>
      </trkpt>
      <trkpt lat="45.89061" lon="4.67004">
        <ele>403.75159</ele>
        <time>2022-06-18T09:16:39.000Z</time>
      </trkpt>
      <trkpt lat="45.89056" lon="4.67003">
        <ele>403.83897</ele>
        <time>2022-06-18T09:16:40.000Z</time>
      </trkpt>
      <trkpt lat="45.89051" lon="4.67001">
        <ele>403.89051</ele>
        <time>2022-06-18T09:16:41.000Z</time>
      </trkpt>
      <trkpt lat="45.89047" lon="4.67001">
        <ele>403.82664</ele>
        <time>2022-06-18T09:16:42.000Z</time>
      </trkpt>
      <trkpt lat="45.89042" lon="4.67">
        <ele>403.96661</ele>
        <time>2022-06-18T09:16:43.000Z</time>
      </trkpt>
      <trkpt lat="45.89038" lon="4.66999">
        <ele>404.15891</ele>
        <time>2022-06-18T09:16:44.000Z</time>
      </trkpt>
      <trkpt lat="45.89034" lon="4.66997">
        <ele>404.33286</ele>
        <time>2022-06-18T09:16:45.000Z</time>
      </trkpt>
      <trkpt lat="45.89029" lon="4.66996">
        <ele>404.50211</ele>
        <time>2022-06-18T09:16:46.000Z</time>
      </trkpt>
      <trkpt lat="45.89021" lon="4.66997">
        <ele>404.40372</ele>
        <time>2022-06-18T09:16:48.000Z</time>
      </trkpt>
      <trkpt lat="45.89018" lon="4.66999">
        <ele>404.25782</ele>
        <time>2022-06-18T09:16:49.000Z</time>
      </trkpt>
      <trkpt lat="45.89014" lon="4.66999">
        <ele>404.30848</ele>
        <time>2022-06-18T09:16:50.000Z</time>
      </trkpt>
      <trkpt lat="45.8901" lon="4.66998">
        <ele>404.5475</ele>
        <time>2022-06-18T09:16:51.000Z</time>
      </trkpt>
      <trkpt lat="45.89005" lon="4.66997">
        <ele>404.66007</ele>
        <time>2022-06-18T09:16:52.000Z</time>
      </trkpt>
      <trkpt lat="45.89001" lon="4.66996">
        <ele>404.90108</ele>
        <time>2022-06-18T09:16:53.000Z</time>
      </trkpt>
      <trkpt lat="45.88997" lon="4.66996">
        <ele>405.02953</ele>
        <time>2022-06-18T09:16:54.000Z</time>
      </trkpt>
      <trkpt lat="45.88993" lon="4.66994">
        <ele>405.43633</ele>
        <time>2022-06-18T09:16:55.000Z</time>
      </trkpt>
      <trkpt lat="45.88988" lon="4.66992">
        <ele>405.79159</ele>
        <time>2022-06-18T09:16:56.000Z</time>
      </trkpt>
      <trkpt lat="45.88984" lon="4.66991">
        <ele>405.79376</ele>
        <time>2022-06-18T09:16:57.000Z</time>
      </trkpt>
      <trkpt lat="45.88978" lon="4.66988">
        <ele>406.25825</ele>
        <time>2022-06-18T09:16:58.000Z</time>
      </trkpt>
      <trkpt lat="45.88975" lon="4.66987">
        <ele>406.51761</ele>
        <time>2022-06-18T09:16:59.000Z</time>
      </trkpt>
      <trkpt lat="45.88971" lon="4.66986">
        <ele>406.70894</ele>
        <time>2022-06-18T09:17:00.000Z</time>
      </trkpt>
      <trkpt lat="45.88967" lon="4.66984">
        <ele>407.09927</ele>
        <time>2022-06-18T09:17:01.000Z</time>
      </trkpt>
      <trkpt lat="45.88965" lon="4.66986">
        <ele>406.8455</ele>
        <time>2022-06-18T09:17:03.000Z</time>
      </trkpt>
      <trkpt lat="45.88962" lon="4.66985">
        <ele>407.01334</ele>
        <time>2022-06-18T09:17:05.000Z</time>
      </trkpt>
      <trkpt lat="45.8896" lon="4.66983">
        <ele>407.47521</ele>
        <time>2022-06-18T09:17:07.000Z</time>
      </trkpt>
      <trkpt lat="45.88958" lon="4.6698">
        <ele>407.88484</ele>
        <time>2022-06-18T09:17:09.000Z</time>
      </trkpt>
      <trkpt lat="45.88956" lon="4.6698">
        <ele>408.04634</ele>
        <time>2022-06-18T09:17:16.000Z</time>
      </trkpt>
      <trkpt lat="45.88955" lon="4.66982">
        <ele>407.67929</ele>
        <time>2022-06-18T09:17:22.000Z</time>
      </trkpt>
      <trkpt lat="45.88953" lon="4.66983">
        <ele>407.50256</ele>
        <time>2022-06-18T09:17:55.000Z</time>
      </trkpt>
      <trkpt lat="45.88953" lon="4.66987">
        <ele>406.88622</ele>
        <time>2022-06-18T09:18:01.000Z</time>
      </trkpt>
      <trkpt lat="45.88951" lon="4.66991">
        <ele>406.18528</ele>
        <time>2022-06-18T09:18:02.000Z</time>
      </trkpt>
      <trkpt lat="45.88951" lon="4.66997">
        <ele>405.24326</ele>
        <time>2022-06-18T09:18:03.000Z</time>
      </trkpt>
      <trkpt lat="45.8895" lon="4.67004">
        <ele>404.22212</ele>
        <time>2022-06-18T09:18:04.000Z</time>
      </trkpt>
      <trkpt lat="45.88949" lon="4.67009">
        <ele>403.3946</ele>
        <time>2022-06-18T09:18:05.000Z</time>
      </trkpt>
      <trkpt lat="45.88949" lon="4.67015">
        <ele>402.63784</ele>
        <time>2022-06-18T09:18:06.000Z</time>
      </trkpt>
      <trkpt lat="45.88949" lon="4.6702">
        <ele>401.9309</ele>
        <time>2022-06-18T09:18:07.000Z</time>
      </trkpt>
      <trkpt lat="45.88949" lon="4.67025">
        <ele>401.25088</ele>
        <time>2022-06-18T09:18:08.000Z</time>
      </trkpt>
      <trkpt lat="45.88948" lon="4.67031">
        <ele>400.54416</ele>
        <time>2022-06-18T09:18:09.000Z</time>
      </trkpt>
      <trkpt lat="45.88947" lon="4.67035">
        <ele>399.90866</ele>
        <time>2022-06-18T09:18:10.000Z</time>
      </trkpt>
      <trkpt lat="45.88947" lon="4.67039">
        <ele>399.42435</ele>
        <time>2022-06-18T09:18:11.000Z</time>
      </trkpt>
      <trkpt lat="45.88947" lon="4.67042">
        <ele>398.98013</ele>
        <time>2022-06-18T09:18:15.000Z</time>
      </trkpt>
      <trkpt lat="45.88946" lon="4.67046">
        <ele>398.36916</ele>
        <time>2022-06-18T09:18:16.000Z</time>
      </trkpt>
      <trkpt lat="45.88946" lon="4.6705">
        <ele>397.73961</ele>
        <time>2022-06-18T09:18:17.000Z</time>
      </trkpt>
      <trkpt lat="45.88946" lon="4.67054">
        <ele>397.27246</ele>
        <time>2022-06-18T09:18:18.000Z</time>
      </trkpt>
      <trkpt lat="45.88946" lon="4.67058">
        <ele>396.63591</ele>
        <time>2022-06-18T09:18:20.000Z</time>
      </trkpt>
      <trkpt lat="45.88945" lon="4.67062">
        <ele>396.10535</ele>
        <time>2022-06-18T09:18:22.000Z</time>
      </trkpt>
      <trkpt lat="45.88944" lon="4.67067">
        <ele>395.46311</ele>
        <time>2022-06-18T09:18:24.000Z</time>
      </trkpt>
      <trkpt lat="45.88943" lon="4.67071">
        <ele>394.9204</ele>
        <time>2022-06-18T09:18:26.000Z</time>
      </trkpt>
      <trkpt lat="45.88941" lon="4.67073">
        <ele>394.754</ele>
        <time>2022-06-18T09:18:27.000Z</time>
      </trkpt>
      <trkpt lat="45.88939" lon="4.67075">
        <ele>394.68102</ele>
        <time>2022-06-18T09:18:28.000Z</time>
      </trkpt>
      <trkpt lat="45.88936" lon="4.67075">
        <ele>394.69836</ele>
        <time>2022-06-18T09:18:29.000Z</time>
      </trkpt>
      <trkpt lat="45.88933" lon="4.67076">
        <ele>394.73332</ele>
        <time>2022-06-18T09:18:30.000Z</time>
      </trkpt>
      <trkpt lat="45.88929" lon="4.67076">
        <ele>394.79618</ele>
        <time>2022-06-18T09:18:31.000Z</time>
      </trkpt>
      <trkpt lat="45.88926" lon="4.67076">
        <ele>394.84261</ele>
        <time>2022-06-18T09:18:32.000Z</time>
      </trkpt>
      <trkpt lat="45.88923" lon="4.67077">
        <ele>394.87906</ele>
        <time>2022-06-18T09:18:33.000Z</time>
      </trkpt>
      <trkpt lat="45.8892" lon="4.67077">
        <ele>394.89653</ele>
        <time>2022-06-18T09:18:34.000Z</time>
      </trkpt>
      <trkpt lat="45.88917" lon="4.67078">
        <ele>394.86849</ele>
        <time>2022-06-18T09:18:35.000Z</time>
      </trkpt>
      <trkpt lat="45.88914" lon="4.67079">
        <ele>394.79325</ele>
        <time>2022-06-18T09:18:36.000Z</time>
      </trkpt>
      <trkpt lat="45.88911" lon="4.6708">
        <ele>394.74978</ele>
        <time>2022-06-18T09:18:37.000Z</time>
      </trkpt>
      <trkpt lat="45.88908" lon="4.67081">
        <ele>394.74015</ele>
        <time>2022-06-18T09:18:38.000Z</time>
      </trkpt>
      <trkpt lat="45.88905" lon="4.67082">
        <ele>394.74657</ele>
        <time>2022-06-18T09:18:39.000Z</time>
      </trkpt>
      <trkpt lat="45.88902" lon="4.67083">
        <ele>394.75884</ele>
        <time>2022-06-18T09:18:40.000Z</time>
      </trkpt>
      <trkpt lat="45.88898" lon="4.67085">
        <ele>394.77803</ele>
        <time>2022-06-18T09:18:41.000Z</time>
      </trkpt>
      <trkpt lat="45.88895" lon="4.67086">
        <ele>394.82503</ele>
        <time>2022-06-18T09:18:42.000Z</time>
      </trkpt>
      <trkpt lat="45.88891" lon="4.67088">
        <ele>394.8974</ele>
        <time>2022-06-18T09:18:43.000Z</time>
      </trkpt>
      <trkpt lat="45.88888" lon="4.67089">
        <ele>394.98417</ele>
        <time>2022-06-18T09:18:44.000Z</time>
      </trkpt>
      <trkpt lat="45.88885" lon="4.6709">
        <ele>395.064</ele>
        <time>2022-06-18T09:18:45.000Z</time>
      </trkpt>
      <trkpt lat="45.88882" lon="4.67092">
        <ele>395.16964</ele>
        <time>2022-06-18T09:18:46.000Z</time>
      </trkpt>
      <trkpt lat="45.88879" lon="4.67093">
        <ele>395.30819</ele>
        <time>2022-06-18T09:18:47.000Z</time>
      </trkpt>
      <trkpt lat="45.88876" lon="4.67095">
        <ele>395.47133</ele>
        <time>2022-06-18T09:18:48.000Z</time>
      </trkpt>
      <trkpt lat="45.88873" lon="4.67096">
        <ele>395.65608</ele>
        <time>2022-06-18T09:18:49.000Z</time>
      </trkpt>
      <trkpt lat="45.8887" lon="4.67097">
        <ele>395.83975</ele>
        <time>2022-06-18T09:18:50.000Z</time>
      </trkpt>
      <trkpt lat="45.88867" lon="4.67099">
        <ele>395.97578</ele>
        <time>2022-06-18T09:18:51.000Z</time>
      </trkpt>
      <trkpt lat="45.88864" lon="4.671">
        <ele>396.1118</ele>
        <time>2022-06-18T09:18:52.000Z</time>
      </trkpt>
      <trkpt lat="45.88861" lon="4.67101">
        <ele>396.27194</ele>
        <time>2022-06-18T09:18:53.000Z</time>
      </trkpt>
      <trkpt lat="45.88857" lon="4.67101">
        <ele>396.48821</ele>
        <time>2022-06-18T09:18:54.000Z</time>
      </trkpt>
      <trkpt lat="45.88854" lon="4.671">
        <ele>396.7722</ele>
        <time>2022-06-18T09:18:55.000Z</time>
      </trkpt>
      <trkpt lat="45.88851" lon="4.67097">
        <ele>397.14234</ele>
        <time>2022-06-18T09:18:56.000Z</time>
      </trkpt>
      <trkpt lat="45.8885" lon="4.67092">
        <ele>397.58373</ele>
        <time>2022-06-18T09:18:57.000Z</time>
      </trkpt>
      <trkpt lat="45.88849" lon="4.67087">
        <ele>398.05288</ele>
        <time>2022-06-18T09:18:58.000Z</time>
      </trkpt>
      <trkpt lat="45.88849" lon="4.67081">
        <ele>398.50507</ele>
        <time>2022-06-18T09:18:59.000Z</time>
      </trkpt>
      <trkpt lat="45.88848" lon="4.67076">
        <ele>398.9668</ele>
        <time>2022-06-18T09:19:00.000Z</time>
      </trkpt>
      <trkpt lat="45.88845" lon="4.67072">
        <ele>399.41955</ele>
        <time>2022-06-18T09:19:01.000Z</time>
      </trkpt>
      <trkpt lat="45.88841" lon="4.6707">
        <ele>399.73135</ele>
        <time>2022-06-18T09:19:02.000Z</time>
      </trkpt>
      <trkpt lat="45.88837" lon="4.6707">
        <ele>399.82654</ele>
        <time>2022-06-18T09:19:03.000Z</time>
      </trkpt>
      <trkpt lat="45.88833" lon="4.67072">
        <ele>399.7841</ele>
        <time>2022-06-18T09:19:04.000Z</time>
      </trkpt>
      <trkpt lat="45.88829" lon="4.67074">
        <ele>399.70408</ele>
        <time>2022-06-18T09:19:05.000Z</time>
      </trkpt>
      <trkpt lat="45.88824" lon="4.67076">
        <ele>399.63251</ele>
        <time>2022-06-18T09:19:06.000Z</time>
      </trkpt>
      <trkpt lat="45.8882" lon="4.67077">
        <ele>399.5793</ele>
        <time>2022-06-18T09:19:07.000Z</time>
      </trkpt>
      <trkpt lat="45.88816" lon="4.67079">
        <ele>399.53534</ele>
        <time>2022-06-18T09:19:08.000Z</time>
      </trkpt>
      <trkpt lat="45.88812" lon="4.6708">
        <ele>399.48625</ele>
        <time>2022-06-18T09:19:09.000Z</time>
      </trkpt>
      <trkpt lat="45.88809" lon="4.67081">
        <ele>399.42413</ele>
        <time>2022-06-18T09:19:10.000Z</time>
      </trkpt>
      <trkpt lat="45.88805" lon="4.67082">
        <ele>399.34681</ele>
        <time>2022-06-18T09:19:11.000Z</time>
      </trkpt>
      <trkpt lat="45.88801" lon="4.67083">
        <ele>399.25484</ele>
        <time>2022-06-18T09:19:12.000Z</time>
      </trkpt>
      <trkpt lat="45.88797" lon="4.67084">
        <ele>399.15668</ele>
        <time>2022-06-18T09:19:13.000Z</time>
      </trkpt>
      <trkpt lat="45.88794" lon="4.67086">
        <ele>399.0767</ele>
        <time>2022-06-18T09:19:14.000Z</time>
      </trkpt>
      <trkpt lat="45.8879" lon="4.67087">
        <ele>399.04445</ele>
        <time>2022-06-18T09:19:15.000Z</time>
      </trkpt>
      <trkpt lat="45.88786" lon="4.67088">
        <ele>399.05367</ele>
        <time>2022-06-18T09:19:16.000Z</time>
      </trkpt>
      <trkpt lat="45.88782" lon="4.67089">
        <ele>399.06655</ele>
        <time>2022-06-18T09:19:17.000Z</time>
      </trkpt>
      <trkpt lat="45.88779" lon="4.6709">
        <ele>399.05415</ele>
        <time>2022-06-18T09:19:18.000Z</time>
      </trkpt>
      <trkpt lat="45.88775" lon="4.67091">
        <ele>398.97776</ele>
        <time>2022-06-18T09:19:19.000Z</time>
      </trkpt>
      <trkpt lat="45.88772" lon="4.67093">
        <ele>398.81603</ele>
        <time>2022-06-18T09:19:20.000Z</time>
      </trkpt>
      <trkpt lat="45.8877" lon="4.67096">
        <ele>398.5836</ele>
        <time>2022-06-18T09:19:21.000Z</time>
      </trkpt>
      <trkpt lat="45.88769" lon="4.67101">
        <ele>398.34186</ele>
        <time>2022-06-18T09:19:22.000Z</time>
      </trkpt>
      <trkpt lat="45.88768" lon="4.67107">
        <ele>398.07999</ele>
        <time>2022-06-18T09:19:23.000Z</time>
      </trkpt>
      <trkpt lat="45.88768" lon="4.67114">
        <ele>397.82144</ele>
        <time>2022-06-18T09:19:24.000Z</time>
      </trkpt>
      <trkpt lat="45.88768" lon="4.67123">
        <ele>397.46697</ele>
        <time>2022-06-18T09:19:25.000Z</time>
      </trkpt>
      <trkpt lat="45.88768" lon="4.6713">
        <ele>397.12886</ele>
        <time>2022-06-18T09:19:26.000Z</time>
      </trkpt>
      <trkpt lat="45.88768" lon="4.67138">
        <ele>396.68146</ele>
        <time>2022-06-18T09:19:27.000Z</time>
      </trkpt>
      <trkpt lat="45.88767" lon="4.67147">
        <ele>396.11278</ele>
        <time>2022-06-18T09:19:28.000Z</time>
      </trkpt>
      <trkpt lat="45.88765" lon="4.67153">
        <ele>395.57407</ele>
        <time>2022-06-18T09:19:29.000Z</time>
      </trkpt>
      <trkpt lat="45.88761" lon="4.67159">
        <ele>394.97036</ele>
        <time>2022-06-18T09:19:30.000Z</time>
      </trkpt>
      <trkpt lat="45.88755" lon="4.6716">
        <ele>394.48808</ele>
        <time>2022-06-18T09:19:31.000Z</time>
      </trkpt>
      <trkpt lat="45.88749" lon="4.67158">
        <ele>394.1074</ele>
        <time>2022-06-18T09:19:32.000Z</time>
      </trkpt>
      <trkpt lat="45.88743" lon="4.67155">
        <ele>393.62329</ele>
        <time>2022-06-18T09:19:33.000Z</time>
      </trkpt>
      <trkpt lat="45.88737" lon="4.67152">
        <ele>393.03563</ele>
        <time>2022-06-18T09:19:34.000Z</time>
      </trkpt>
      <trkpt lat="45.88731" lon="4.67149">
        <ele>392.4095</ele>
        <time>2022-06-18T09:19:35.000Z</time>
      </trkpt>
      <trkpt lat="45.88725" lon="4.67146">
        <ele>391.6295</ele>
        <time>2022-06-18T09:19:36.000Z</time>
      </trkpt>
      <trkpt lat="45.88719" lon="4.67144">
        <ele>391.07797</ele>
        <time>2022-06-18T09:19:37.000Z</time>
      </trkpt>
      <trkpt lat="45.88713" lon="4.67141">
        <ele>390.62455</ele>
        <time>2022-06-18T09:19:38.000Z</time>
      </trkpt>
      <trkpt lat="45.88707" lon="4.6714">
        <ele>390.0691</ele>
        <time>2022-06-18T09:19:39.000Z</time>
      </trkpt>
      <trkpt lat="45.88701" lon="4.67139">
        <ele>389.35504</ele>
        <time>2022-06-18T09:19:40.000Z</time>
      </trkpt>
      <trkpt lat="45.88695" lon="4.67138">
        <ele>388.66036</ele>
        <time>2022-06-18T09:19:41.000Z</time>
      </trkpt>
      <trkpt lat="45.88691" lon="4.67138">
        <ele>387.92701</ele>
        <time>2022-06-18T09:19:42.000Z</time>
      </trkpt>
      <trkpt lat="45.88685" lon="4.67137">
        <ele>387.08942</ele>
        <time>2022-06-18T09:19:43.000Z</time>
      </trkpt>
      <trkpt lat="45.8868" lon="4.67139">
        <ele>386.10945</ele>
        <time>2022-06-18T09:19:44.000Z</time>
      </trkpt>
      <trkpt lat="45.88674" lon="4.6714">
        <ele>385.07396</ele>
        <time>2022-06-18T09:19:45.000Z</time>
      </trkpt>
      <trkpt lat="45.88669" lon="4.67141">
        <ele>384.03821</ele>
        <time>2022-06-18T09:19:46.000Z</time>
      </trkpt>
      <trkpt lat="45.88665" lon="4.67141">
        <ele>383.15978</ele>
        <time>2022-06-18T09:19:47.000Z</time>
      </trkpt>
      <trkpt lat="45.88661" lon="4.67142">
        <ele>382.28499</ele>
        <time>2022-06-18T09:19:48.000Z</time>
      </trkpt>
      <trkpt lat="45.88657" lon="4.67143">
        <ele>381.42971</ele>
        <time>2022-06-18T09:19:49.000Z</time>
      </trkpt>
      <trkpt lat="45.88654" lon="4.67145">
        <ele>380.61763</ele>
        <time>2022-06-18T09:19:50.000Z</time>
      </trkpt>
      <trkpt lat="45.88652" lon="4.67148">
        <ele>379.87264</ele>
        <time>2022-06-18T09:19:51.000Z</time>
      </trkpt>
      <trkpt lat="45.88648" lon="4.67153">
        <ele>378.48578</ele>
        <time>2022-06-18T09:19:53.000Z</time>
      </trkpt>
      <trkpt lat="45.88645" lon="4.67153">
        <ele>377.96677</ele>
        <time>2022-06-18T09:19:54.000Z</time>
      </trkpt>
      <trkpt lat="45.88643" lon="4.67155">
        <ele>377.3424</ele>
        <time>2022-06-18T09:19:55.000Z</time>
      </trkpt>
      <trkpt lat="45.88641" lon="4.67158">
        <ele>376.72648</ele>
        <time>2022-06-18T09:19:56.000Z</time>
      </trkpt>
      <trkpt lat="45.88641" lon="4.67163">
        <ele>376.10126</ele>
        <time>2022-06-18T09:19:57.000Z</time>
      </trkpt>
      <trkpt lat="45.8864" lon="4.67167">
        <ele>375.63923</ele>
        <time>2022-06-18T09:19:58.000Z</time>
      </trkpt>
      <trkpt lat="45.8864" lon="4.67172">
        <ele>375.16132</ele>
        <time>2022-06-18T09:19:59.000Z</time>
      </trkpt>
      <trkpt lat="45.8864" lon="4.67176">
        <ele>374.64492</ele>
        <time>2022-06-18T09:20:00.000Z</time>
      </trkpt>
      <trkpt lat="45.8864" lon="4.67179">
        <ele>374.2645</ele>
        <time>2022-06-18T09:20:01.000Z</time>
      </trkpt>
      <trkpt lat="45.8864" lon="4.67183">
        <ele>373.87585</ele>
        <time>2022-06-18T09:20:02.000Z</time>
      </trkpt>
      <trkpt lat="45.8864" lon="4.67186">
        <ele>373.46716</ele>
        <time>2022-06-18T09:20:03.000Z</time>
      </trkpt>
      <trkpt lat="45.8864" lon="4.67189">
        <ele>373.07802</ele>
        <time>2022-06-18T09:20:04.000Z</time>
      </trkpt>
      <trkpt lat="45.88639" lon="4.67192">
        <ele>372.60661</ele>
        <time>2022-06-18T09:20:05.000Z</time>
      </trkpt>
      <trkpt lat="45.88639" lon="4.67196">
        <ele>371.98697</ele>
        <time>2022-06-18T09:20:06.000Z</time>
      </trkpt>
      <trkpt lat="45.88638" lon="4.67201">
        <ele>371.39095</ele>
        <time>2022-06-18T09:20:07.000Z</time>
      </trkpt>
      <trkpt lat="45.88639" lon="4.67204">
        <ele>371.01395</ele>
        <time>2022-06-18T09:20:09.000Z</time>
      </trkpt>
      <trkpt lat="45.88639" lon="4.67206">
        <ele>370.65966</ele>
        <time>2022-06-18T09:20:12.000Z</time>
      </trkpt>
      <trkpt lat="45.88639" lon="4.67211">
        <ele>370.0204</ele>
        <time>2022-06-18T09:20:13.000Z</time>
      </trkpt>
      <trkpt lat="45.88639" lon="4.67216">
        <ele>369.35606</ele>
        <time>2022-06-18T09:20:14.000Z</time>
      </trkpt>
      <trkpt lat="45.88638" lon="4.67221">
        <ele>368.68874</ele>
        <time>2022-06-18T09:20:15.000Z</time>
      </trkpt>
      <trkpt lat="45.88638" lon="4.67224">
        <ele>368.17897</ele>
        <time>2022-06-18T09:20:16.000Z</time>
      </trkpt>
      <trkpt lat="45.88638" lon="4.67229">
        <ele>367.63202</ele>
        <time>2022-06-18T09:20:17.000Z</time>
      </trkpt>
      <trkpt lat="45.88638" lon="4.67233">
        <ele>367.1615</ele>
        <time>2022-06-18T09:20:18.000Z</time>
      </trkpt>
      <trkpt lat="45.88639" lon="4.67236">
        <ele>366.75588</ele>
        <time>2022-06-18T09:20:19.000Z</time>
      </trkpt>
      <trkpt lat="45.88639" lon="4.6724">
        <ele>366.39539</ele>
        <time>2022-06-18T09:20:20.000Z</time>
      </trkpt>
      <trkpt lat="45.8864" lon="4.67243">
        <ele>366.12489</ele>
        <time>2022-06-18T09:20:21.000Z</time>
      </trkpt>
      <trkpt lat="45.8864" lon="4.67247">
        <ele>365.79981</ele>
        <time>2022-06-18T09:20:43.000Z</time>
      </trkpt>
      <trkpt lat="45.8864" lon="4.6725">
        <ele>365.21775</ele>
        <time>2022-06-18T09:20:44.000Z</time>
      </trkpt>
      <trkpt lat="45.8864" lon="4.67258">
        <ele>364.30038</ele>
        <time>2022-06-18T09:20:45.000Z</time>
      </trkpt>
      <trkpt lat="45.88642" lon="4.67265">
        <ele>363.69852</ele>
        <time>2022-06-18T09:20:46.000Z</time>
      </trkpt>
      <trkpt lat="45.88642" lon="4.67275">
        <ele>362.62788</ele>
        <time>2022-06-18T09:20:47.000Z</time>
      </trkpt>
      <trkpt lat="45.88644" lon="4.67281">
        <ele>362.30513</ele>
        <time>2022-06-18T09:20:48.000Z</time>
      </trkpt>
      <trkpt lat="45.88644" lon="4.6729">
        <ele>361.18335</ele>
        <time>2022-06-18T09:20:49.000Z</time>
      </trkpt>
      <trkpt lat="45.88644" lon="4.67298">
        <ele>360.24802</ele>
        <time>2022-06-18T09:20:50.000Z</time>
      </trkpt>
      <trkpt lat="45.88645" lon="4.67304">
        <ele>359.60791</ele>
        <time>2022-06-18T09:20:51.000Z</time>
      </trkpt>
      <trkpt lat="45.88644" lon="4.6731">
        <ele>358.86312</ele>
        <time>2022-06-18T09:20:52.000Z</time>
      </trkpt>
      <trkpt lat="45.88645" lon="4.67314">
        <ele>358.52292</ele>
        <time>2022-06-18T09:20:53.000Z</time>
      </trkpt>
      <trkpt lat="45.88644" lon="4.6732">
        <ele>357.83603</ele>
        <time>2022-06-18T09:20:54.000Z</time>
      </trkpt>
      <trkpt lat="45.88643" lon="4.67326">
        <ele>356.92736</ele>
        <time>2022-06-18T09:20:55.000Z</time>
      </trkpt>
      <trkpt lat="45.88642" lon="4.67332">
        <ele>356.27334</ele>
        <time>2022-06-18T09:20:56.000Z</time>
      </trkpt>
      <trkpt lat="45.88642" lon="4.67339">
        <ele>355.69019</ele>
        <time>2022-06-18T09:20:57.000Z</time>
      </trkpt>
      <trkpt lat="45.88643" lon="4.67346">
        <ele>355.06255</ele>
        <time>2022-06-18T09:20:58.000Z</time>
      </trkpt>
      <trkpt lat="45.88643" lon="4.67355">
        <ele>354.36043</ele>
        <time>2022-06-18T09:20:59.000Z</time>
      </trkpt>
      <trkpt lat="45.88644" lon="4.67364">
        <ele>353.74212</ele>
        <time>2022-06-18T09:21:00.000Z</time>
      </trkpt>
      <trkpt lat="45.88645" lon="4.67374">
        <ele>352.96721</ele>
        <time>2022-06-18T09:21:01.000Z</time>
      </trkpt>
      <trkpt lat="45.88647" lon="4.67387">
        <ele>351.98908</ele>
        <time>2022-06-18T09:21:02.000Z</time>
      </trkpt>
      <trkpt lat="45.88648" lon="4.67397">
        <ele>350.99132</ele>
        <time>2022-06-18T09:21:03.000Z</time>
      </trkpt>
      <trkpt lat="45.88648" lon="4.67407">
        <ele>349.99979</ele>
        <time>2022-06-18T09:21:04.000Z</time>
      </trkpt>
      <trkpt lat="45.88648" lon="4.67416">
        <ele>348.99344</ele>
        <time>2022-06-18T09:21:05.000Z</time>
      </trkpt>
      <trkpt lat="45.88647" lon="4.67425">
        <ele>348.04967</ele>
        <time>2022-06-18T09:21:06.000Z</time>
      </trkpt>
      <trkpt lat="45.88647" lon="4.67434">
        <ele>347.19044</ele>
        <time>2022-06-18T09:21:07.000Z</time>
      </trkpt>
      <trkpt lat="45.88647" lon="4.67439">
        <ele>346.62071</ele>
        <time>2022-06-18T09:21:08.000Z</time>
      </trkpt>
      <trkpt lat="45.88646" lon="4.67446">
        <ele>345.98193</ele>
        <time>2022-06-18T09:21:09.000Z</time>
      </trkpt>
      <trkpt lat="45.88645" lon="4.6745">
        <ele>345.5087</ele>
        <time>2022-06-18T09:21:10.000Z</time>
      </trkpt>
      <trkpt lat="45.88644" lon="4.67454">
        <ele>345.13363</ele>
        <time>2022-06-18T09:21:11.000Z</time>
      </trkpt>
      <trkpt lat="45.88644" lon="4.67458">
        <ele>344.76325</ele>
        <time>2022-06-18T09:21:12.000Z</time>
      </trkpt>
      <trkpt lat="45.88641" lon="4.67462">
        <ele>344.14611</ele>
        <time>2022-06-18T09:21:13.000Z</time>
      </trkpt>
      <trkpt lat="45.88638" lon="4.67467">
        <ele>343.47456</ele>
        <time>2022-06-18T09:21:14.000Z</time>
      </trkpt>
      <trkpt lat="45.88635" lon="4.67468">
        <ele>343.21328</ele>
        <time>2022-06-18T09:21:15.000Z</time>
      </trkpt>
      <trkpt lat="45.88633" lon="4.6747">
        <ele>342.75978</ele>
        <time>2022-06-18T09:21:16.000Z</time>
      </trkpt>
      <trkpt lat="45.88631" lon="4.67474">
        <ele>342.25417</ele>
        <time>2022-06-18T09:21:17.000Z</time>
      </trkpt>
      <trkpt lat="45.8863" lon="4.67477">
        <ele>341.86136</ele>
        <time>2022-06-18T09:21:18.000Z</time>
      </trkpt>
      <trkpt lat="45.88629" lon="4.67481">
        <ele>341.4693</ele>
        <time>2022-06-18T09:21:19.000Z</time>
      </trkpt>
      <trkpt lat="45.88629" lon="4.67485">
        <ele>341.0338</ele>
        <time>2022-06-18T09:21:20.000Z</time>
      </trkpt>
      <trkpt lat="45.88628" lon="4.67489">
        <ele>340.54429</ele>
        <time>2022-06-18T09:21:21.000Z</time>
      </trkpt>
      <trkpt lat="45.88627" lon="4.67493">
        <ele>340.1236</ele>
        <time>2022-06-18T09:21:22.000Z</time>
      </trkpt>
      <trkpt lat="45.88626" lon="4.67495">
        <ele>339.62752</ele>
        <time>2022-06-18T09:21:24.000Z</time>
      </trkpt>
      <trkpt lat="45.88623" lon="4.67498">
        <ele>339.01848</ele>
        <time>2022-06-18T09:21:26.000Z</time>
      </trkpt>
      <trkpt lat="45.88623" lon="4.67503">
        <ele>338.48011</ele>
        <time>2022-06-18T09:21:28.000Z</time>
      </trkpt>
      <trkpt lat="45.88624" lon="4.67507">
        <ele>338.23458</ele>
        <time>2022-06-18T09:21:30.000Z</time>
      </trkpt>
      <trkpt lat="45.88627" lon="4.67511">
        <ele>338.13337</ele>
        <time>2022-06-18T09:21:32.000Z</time>
      </trkpt>
      <trkpt lat="45.88629" lon="4.67513">
        <ele>338.13286</ele>
        <time>2022-06-18T09:21:33.000Z</time>
      </trkpt>
      <trkpt lat="45.88632" lon="4.67516">
        <ele>338.17554</ele>
        <time>2022-06-18T09:21:34.000Z</time>
      </trkpt>
      <trkpt lat="45.88635" lon="4.67518">
        <ele>338.19823</ele>
        <time>2022-06-18T09:21:35.000Z</time>
      </trkpt>
      <trkpt lat="45.88637" lon="4.67521">
        <ele>338.18909</ele>
        <time>2022-06-18T09:21:36.000Z</time>
      </trkpt>
      <trkpt lat="45.88639" lon="4.67523">
        <ele>338.17156</ele>
        <time>2022-06-18T09:21:37.000Z</time>
      </trkpt>
      <trkpt lat="45.88641" lon="4.67525">
        <ele>338.16676</ele>
        <time>2022-06-18T09:21:38.000Z</time>
      </trkpt>
      <trkpt lat="45.88643" lon="4.67527">
        <ele>338.14351</ele>
        <time>2022-06-18T09:21:39.000Z</time>
      </trkpt>
      <trkpt lat="45.88646" lon="4.6753">
        <ele>338.12264</ele>
        <time>2022-06-18T09:21:40.000Z</time>
      </trkpt>
      <trkpt lat="45.88648" lon="4.67533">
        <ele>338.02544</ele>
        <time>2022-06-18T09:21:41.000Z</time>
      </trkpt>
      <trkpt lat="45.8865" lon="4.67535">
        <ele>337.96994</ele>
        <time>2022-06-18T09:21:42.000Z</time>
      </trkpt>
      <trkpt lat="45.88651" lon="4.67537">
        <ele>337.89338</ele>
        <time>2022-06-18T09:21:43.000Z</time>
      </trkpt>
      <trkpt lat="45.88652" lon="4.6754">
        <ele>337.76287</ele>
        <time>2022-06-18T09:21:44.000Z</time>
      </trkpt>
      <trkpt lat="45.88654" lon="4.67542">
        <ele>337.66847</ele>
        <time>2022-06-18T09:21:45.000Z</time>
      </trkpt>
      <trkpt lat="45.88656" lon="4.67544">
        <ele>337.56943</ele>
        <time>2022-06-18T09:21:46.000Z</time>
      </trkpt>
      <trkpt lat="45.88657" lon="4.67546">
        <ele>337.54436</ele>
        <time>2022-06-18T09:21:47.000Z</time>
      </trkpt>
      <trkpt lat="45.8866" lon="4.67548">
        <ele>337.54154</ele>
        <time>2022-06-18T09:21:48.000Z</time>
      </trkpt>
      <trkpt lat="45.88666" lon="4.67553">
        <ele>337.57962</ele>
        <time>2022-06-18T09:21:50.000Z</time>
      </trkpt>
      <trkpt lat="45.8867" lon="4.67556">
        <ele>337.54872</ele>
        <time>2022-06-18T09:21:51.000Z</time>
      </trkpt>
      <trkpt lat="45.88673" lon="4.67559">
        <ele>337.43214</ele>
        <time>2022-06-18T09:21:52.000Z</time>
      </trkpt>
      <trkpt lat="45.88676" lon="4.67562">
        <ele>337.2942</ele>
        <time>2022-06-18T09:21:53.000Z</time>
      </trkpt>
      <trkpt lat="45.88678" lon="4.67564">
        <ele>337.19277</ele>
        <time>2022-06-18T09:21:54.000Z</time>
      </trkpt>
      <trkpt lat="45.8868" lon="4.67567">
        <ele>337.0542</ele>
        <time>2022-06-18T09:21:55.000Z</time>
      </trkpt>
      <trkpt lat="45.88683" lon="4.6757">
        <ele>336.87483</ele>
        <time>2022-06-18T09:21:56.000Z</time>
      </trkpt>
      <trkpt lat="45.88686" lon="4.67573">
        <ele>336.67732</ele>
        <time>2022-06-18T09:21:57.000Z</time>
      </trkpt>
      <trkpt lat="45.88689" lon="4.67577">
        <ele>336.50495</ele>
        <time>2022-06-18T09:21:58.000Z</time>
      </trkpt>
      <trkpt lat="45.88693" lon="4.67579">
        <ele>336.51211</ele>
        <time>2022-06-18T09:21:59.000Z</time>
      </trkpt>
      <trkpt lat="45.88697" lon="4.6758">
        <ele>336.6328</ele>
        <time>2022-06-18T09:22:00.000Z</time>
      </trkpt>
      <trkpt lat="45.887" lon="4.67579">
        <ele>336.83845</ele>
        <time>2022-06-18T09:22:01.000Z</time>
      </trkpt>
      <trkpt lat="45.88702" lon="4.67579">
        <ele>337.03615</ele>
        <time>2022-06-18T09:22:02.000Z</time>
      </trkpt>
      <trkpt lat="45.88706" lon="4.6758">
        <ele>337.15669</ele>
        <time>2022-06-18T09:22:03.000Z</time>
      </trkpt>
      <trkpt lat="45.88709" lon="4.67581">
        <ele>337.12787</ele>
        <time>2022-06-18T09:22:04.000Z</time>
      </trkpt>
      <trkpt lat="45.88712" lon="4.67584">
        <ele>336.99849</ele>
        <time>2022-06-18T09:22:05.000Z</time>
      </trkpt>
      <trkpt lat="45.88715" lon="4.67586">
        <ele>336.81645</ele>
        <time>2022-06-18T09:22:06.000Z</time>
      </trkpt>
      <trkpt lat="45.88718" lon="4.67589">
        <ele>336.61828</ele>
        <time>2022-06-18T09:22:07.000Z</time>
      </trkpt>
      <trkpt lat="45.88721" lon="4.67592">
        <ele>336.38002</ele>
        <time>2022-06-18T09:22:08.000Z</time>
      </trkpt>
      <trkpt lat="45.88724" lon="4.67594">
        <ele>336.20456</ele>
        <time>2022-06-18T09:22:09.000Z</time>
      </trkpt>
      <trkpt lat="45.88726" lon="4.67596">
        <ele>336.03951</ele>
        <time>2022-06-18T09:22:10.000Z</time>
      </trkpt>
      <trkpt lat="45.88729" lon="4.67598">
        <ele>335.93695</ele>
        <time>2022-06-18T09:22:11.000Z</time>
      </trkpt>
      <trkpt lat="45.88732" lon="4.67599">
        <ele>335.90322</ele>
        <time>2022-06-18T09:22:12.000Z</time>
      </trkpt>
      <trkpt lat="45.88735" lon="4.676">
        <ele>335.9087</ele>
        <time>2022-06-18T09:22:13.000Z</time>
      </trkpt>
      <trkpt lat="45.88738" lon="4.676">
        <ele>335.96576</ele>
        <time>2022-06-18T09:22:14.000Z</time>
      </trkpt>
      <trkpt lat="45.8874" lon="4.676">
        <ele>336.04568</ele>
        <time>2022-06-18T09:22:15.000Z</time>
      </trkpt>
      <trkpt lat="45.88743" lon="4.67599">
        <ele>336.18984</ele>
        <time>2022-06-18T09:22:16.000Z</time>
      </trkpt>
      <trkpt lat="45.88746" lon="4.67599">
        <ele>336.36543</ele>
        <time>2022-06-18T09:22:17.000Z</time>
      </trkpt>
      <trkpt lat="45.88749" lon="4.67598">
        <ele>336.54123</ele>
        <time>2022-06-18T09:22:18.000Z</time>
      </trkpt>
      <trkpt lat="45.88753" lon="4.67598">
        <ele>336.77902</ele>
        <time>2022-06-18T09:22:19.000Z</time>
      </trkpt>
      <trkpt lat="45.88756" lon="4.67597">
        <ele>336.9627</ele>
        <time>2022-06-18T09:22:20.000Z</time>
      </trkpt>
      <trkpt lat="45.88759" lon="4.67597">
        <ele>337.10998</ele>
        <time>2022-06-18T09:22:21.000Z</time>
      </trkpt>
      <trkpt lat="45.88762" lon="4.67597">
        <ele>337.16486</ele>
        <time>2022-06-18T09:22:23.000Z</time>
      </trkpt>
      <trkpt lat="45.88764" lon="4.67597">
        <ele>337.23998</ele>
        <time>2022-06-18T09:22:25.000Z</time>
      </trkpt>
      <trkpt lat="45.88766" lon="4.67598">
        <ele>337.12871</ele>
        <time>2022-06-18T09:22:27.000Z</time>
      </trkpt>
      <trkpt lat="45.88769" lon="4.67601">
        <ele>336.80981</ele>
        <time>2022-06-18T09:22:28.000Z</time>
      </trkpt>
      <trkpt lat="45.8877" lon="4.67604">
        <ele>336.40771</ele>
        <time>2022-06-18T09:22:29.000Z</time>
      </trkpt>
      <trkpt lat="45.88771" lon="4.67607">
        <ele>336.06655</ele>
        <time>2022-06-18T09:22:30.000Z</time>
      </trkpt>
      <trkpt lat="45.88769" lon="4.67611">
        <ele>335.48358</ele>
        <time>2022-06-18T09:22:34.000Z</time>
      </trkpt>
      <trkpt lat="45.88768" lon="4.67614">
        <ele>334.99514</ele>
        <time>2022-06-18T09:22:35.000Z</time>
      </trkpt>
      <trkpt lat="45.88767" lon="4.6762">
        <ele>334.25552</ele>
        <time>2022-06-18T09:22:36.000Z</time>
      </trkpt>
      <trkpt lat="45.88767" lon="4.67626">
        <ele>333.41436</ele>
        <time>2022-06-18T09:22:37.000Z</time>
      </trkpt>
      <trkpt lat="45.88767" lon="4.67632">
        <ele>332.60886</ele>
        <time>2022-06-18T09:22:38.000Z</time>
      </trkpt>
      <trkpt lat="45.88766" lon="4.67637">
        <ele>331.9225</ele>
        <time>2022-06-18T09:22:39.000Z</time>
      </trkpt>
      <trkpt lat="45.88766" lon="4.67642">
        <ele>331.2909</ele>
        <time>2022-06-18T09:22:40.000Z</time>
      </trkpt>
      <trkpt lat="45.88766" lon="4.67647">
        <ele>330.64304</ele>
        <time>2022-06-18T09:22:41.000Z</time>
      </trkpt>
      <trkpt lat="45.88765" lon="4.67653">
        <ele>329.97643</ele>
        <time>2022-06-18T09:22:42.000Z</time>
      </trkpt>
      <trkpt lat="45.88765" lon="4.67659">
        <ele>329.23493</ele>
        <time>2022-06-18T09:22:43.000Z</time>
      </trkpt>
      <trkpt lat="45.88764" lon="4.67665">
        <ele>328.50044</ele>
        <time>2022-06-18T09:22:44.000Z</time>
      </trkpt>
      <trkpt lat="45.88764" lon="4.6767">
        <ele>327.81371</ele>
        <time>2022-06-18T09:22:45.000Z</time>
      </trkpt>
      <trkpt lat="45.88763" lon="4.67674">
        <ele>327.25785</ele>
        <time>2022-06-18T09:22:46.000Z</time>
      </trkpt>
      <trkpt lat="45.88763" lon="4.67677">
        <ele>326.91969</ele>
        <time>2022-06-18T09:22:47.000Z</time>
      </trkpt>
      <trkpt lat="45.88764" lon="4.6768">
        <ele>326.5156</ele>
        <time>2022-06-18T09:22:49.000Z</time>
      </trkpt>
      <trkpt lat="45.88766" lon="4.67683">
        <ele>326.15805</ele>
        <time>2022-06-18T09:23:46.000Z</time>
      </trkpt>
      <trkpt lat="45.88768" lon="4.67687">
        <ele>325.81911</ele>
        <time>2022-06-18T09:23:47.000Z</time>
      </trkpt>
      <trkpt lat="45.88771" lon="4.67689">
        <ele>325.55493</ele>
        <time>2022-06-18T09:23:48.000Z</time>
      </trkpt>
      <trkpt lat="45.88774" lon="4.67692">
        <ele>325.40847</ele>
        <time>2022-06-18T09:23:49.000Z</time>
      </trkpt>
      <trkpt lat="45.88777" lon="4.67694">
        <ele>325.28482</ele>
        <time>2022-06-18T09:23:50.000Z</time>
      </trkpt>
      <trkpt lat="45.88781" lon="4.67696">
        <ele>325.20737</ele>
        <time>2022-06-18T09:23:51.000Z</time>
      </trkpt>
      <trkpt lat="45.88786" lon="4.67698">
        <ele>325.2081</ele>
        <time>2022-06-18T09:23:52.000Z</time>
      </trkpt>
      <trkpt lat="45.8879" lon="4.67701">
        <ele>325.25613</ele>
        <time>2022-06-18T09:23:53.000Z</time>
      </trkpt>
      <trkpt lat="45.88794" lon="4.67702">
        <ele>325.41063</ele>
        <time>2022-06-18T09:23:54.000Z</time>
      </trkpt>
      <trkpt lat="45.88809" lon="4.67707">
        <ele>326.29569</ele>
        <time>2022-06-18T09:23:56.000Z</time>
      </trkpt>
      <trkpt lat="45.88813" lon="4.6771">
        <ele>326.45245</ele>
        <time>2022-06-18T09:23:57.000Z</time>
      </trkpt>
      <trkpt lat="45.88819" lon="4.67711">
        <ele>326.88812</ele>
        <time>2022-06-18T09:23:58.000Z</time>
      </trkpt>
      <trkpt lat="45.88824" lon="4.67711">
        <ele>327.21688</ele>
        <time>2022-06-18T09:23:59.000Z</time>
      </trkpt>
      <trkpt lat="45.88828" lon="4.67712">
        <ele>327.4553</ele>
        <time>2022-06-18T09:24:00.000Z</time>
      </trkpt>
      <trkpt lat="45.88831" lon="4.67713">
        <ele>327.52785</ele>
        <time>2022-06-18T09:24:01.000Z</time>
      </trkpt>
      <trkpt lat="45.88835" lon="4.67713">
        <ele>327.67952</ele>
        <time>2022-06-18T09:24:02.000Z</time>
      </trkpt>
      <trkpt lat="45.88839" lon="4.67713">
        <ele>327.83112</ele>
        <time>2022-06-18T09:24:03.000Z</time>
      </trkpt>
      <trkpt lat="45.88843" lon="4.67713">
        <ele>328.04747</ele>
        <time>2022-06-18T09:24:04.000Z</time>
      </trkpt>
      <trkpt lat="45.88848" lon="4.67713">
        <ele>328.11321</ele>
        <time>2022-06-18T09:24:05.000Z</time>
      </trkpt>
      <trkpt lat="45.88851" lon="4.67713">
        <ele>328.24531</ele>
        <time>2022-06-18T09:24:06.000Z</time>
      </trkpt>
      <trkpt lat="45.88856" lon="4.67713">
        <ele>328.3637</ele>
        <time>2022-06-18T09:24:07.000Z</time>
      </trkpt>
      <trkpt lat="45.88861" lon="4.67714">
        <ele>328.40575</ele>
        <time>2022-06-18T09:24:08.000Z</time>
      </trkpt>
      <trkpt lat="45.88864" lon="4.67715">
        <ele>328.41719</ele>
        <time>2022-06-18T09:24:09.000Z</time>
      </trkpt>
      <trkpt lat="45.88866" lon="4.67714">
        <ele>328.50655</ele>
        <time>2022-06-18T09:24:11.000Z</time>
      </trkpt>
      <trkpt lat="45.88866" lon="4.67718">
        <ele>328.16291</ele>
        <time>2022-06-18T09:24:18.000Z</time>
      </trkpt>
      <trkpt lat="45.88868" lon="4.6772">
        <ele>327.92198</ele>
        <time>2022-06-18T09:24:20.000Z</time>
      </trkpt>
      <trkpt lat="45.8887" lon="4.67722">
        <ele>327.80308</ele>
        <time>2022-06-18T09:24:21.000Z</time>
      </trkpt>
      <trkpt lat="45.88873" lon="4.67723">
        <ele>327.72602</ele>
        <time>2022-06-18T09:24:22.000Z</time>
      </trkpt>
      <trkpt lat="45.88876" lon="4.67724">
        <ele>327.62878</ele>
        <time>2022-06-18T09:24:23.000Z</time>
      </trkpt>
      <trkpt lat="45.88878" lon="4.67724">
        <ele>327.57334</ele>
        <time>2022-06-18T09:24:24.000Z</time>
      </trkpt>
      <trkpt lat="45.8888" lon="4.67724">
        <ele>327.54051</ele>
        <time>2022-06-18T09:24:25.000Z</time>
      </trkpt>
      <trkpt lat="45.88882" lon="4.67725">
        <ele>327.49296</ele>
        <time>2022-06-18T09:24:26.000Z</time>
      </trkpt>
      <trkpt lat="45.88885" lon="4.67725">
        <ele>327.44815</ele>
        <time>2022-06-18T09:24:27.000Z</time>
      </trkpt>
      <trkpt lat="45.88887" lon="4.67725">
        <ele>327.41379</ele>
        <time>2022-06-18T09:24:28.000Z</time>
      </trkpt>
      <trkpt lat="45.8889" lon="4.67725">
        <ele>327.379</ele>
        <time>2022-06-18T09:24:29.000Z</time>
      </trkpt>
      <trkpt lat="45.88892" lon="4.67725">
        <ele>327.3243</ele>
        <time>2022-06-18T09:24:30.000Z</time>
      </trkpt>
      <trkpt lat="45.88895" lon="4.67726">
        <ele>327.19559</ele>
        <time>2022-06-18T09:24:31.000Z</time>
      </trkpt>
      <trkpt lat="45.88898" lon="4.67727">
        <ele>327.06737</ele>
        <time>2022-06-18T09:24:32.000Z</time>
      </trkpt>
      <trkpt lat="45.889" lon="4.67728">
        <ele>326.94884</ele>
        <time>2022-06-18T09:24:33.000Z</time>
      </trkpt>
      <trkpt lat="45.88903" lon="4.67728">
        <ele>326.87332</ele>
        <time>2022-06-18T09:24:34.000Z</time>
      </trkpt>
      <trkpt lat="45.88905" lon="4.67728">
        <ele>326.85592</ele>
        <time>2022-06-18T09:24:35.000Z</time>
      </trkpt>
      <trkpt lat="45.88909" lon="4.67728">
        <ele>326.75836</ele>
        <time>2022-06-18T09:24:36.000Z</time>
      </trkpt>
      <trkpt lat="45.88912" lon="4.67729">
        <ele>326.5986</ele>
        <time>2022-06-18T09:24:37.000Z</time>
      </trkpt>
      <trkpt lat="45.88916" lon="4.6773">
        <ele>326.41749</ele>
        <time>2022-06-18T09:24:38.000Z</time>
      </trkpt>
      <trkpt lat="45.8892" lon="4.67732">
        <ele>326.23606</ele>
        <time>2022-06-18T09:24:39.000Z</time>
      </trkpt>
      <trkpt lat="45.88924" lon="4.67733">
        <ele>326.08459</ele>
        <time>2022-06-18T09:24:40.000Z</time>
      </trkpt>
      <trkpt lat="45.88929" lon="4.67733">
        <ele>325.96348</ele>
        <time>2022-06-18T09:24:41.000Z</time>
      </trkpt>
      <trkpt lat="45.88933" lon="4.67733">
        <ele>325.84667</ele>
        <time>2022-06-18T09:24:42.000Z</time>
      </trkpt>
      <trkpt lat="45.88938" lon="4.67733">
        <ele>325.71069</ele>
        <time>2022-06-18T09:24:43.000Z</time>
      </trkpt>
      <trkpt lat="45.88942" lon="4.67733">
        <ele>325.53748</ele>
        <time>2022-06-18T09:24:44.000Z</time>
      </trkpt>
      <trkpt lat="45.88947" lon="4.67732">
        <ele>325.27315</ele>
        <time>2022-06-18T09:24:45.000Z</time>
      </trkpt>
      <trkpt lat="45.88952" lon="4.67731">
        <ele>324.99414</ele>
        <time>2022-06-18T09:24:46.000Z</time>
      </trkpt>
      <trkpt lat="45.88956" lon="4.6773">
        <ele>324.74962</ele>
        <time>2022-06-18T09:24:47.000Z</time>
      </trkpt>
      <trkpt lat="45.8896" lon="4.67729">
        <ele>324.57091</ele>
        <time>2022-06-18T09:24:48.000Z</time>
      </trkpt>
      <trkpt lat="45.88963" lon="4.67729">
        <ele>324.46714</ele>
        <time>2022-06-18T09:24:49.000Z</time>
      </trkpt>
      <trkpt lat="45.88967" lon="4.67728">
        <ele>324.39622</ele>
        <time>2022-06-18T09:24:50.000Z</time>
      </trkpt>
      <trkpt lat="45.88969" lon="4.67729">
        <ele>324.32115</ele>
        <time>2022-06-18T09:24:51.000Z</time>
      </trkpt>
      <trkpt lat="45.88972" lon="4.67732">
        <ele>324.08863</ele>
        <time>2022-06-18T09:24:52.000Z</time>
      </trkpt>
      <trkpt lat="45.88974" lon="4.67737">
        <ele>323.66241</ele>
        <time>2022-06-18T09:24:53.000Z</time>
      </trkpt>
      <trkpt lat="45.88973" lon="4.6775">
        <ele>322.59898</ele>
        <time>2022-06-18T09:24:54.000Z</time>
      </trkpt>
      <trkpt lat="45.88972" lon="4.67758">
        <ele>322.04145</ele>
        <time>2022-06-18T09:24:55.000Z</time>
      </trkpt>
      <trkpt lat="45.88973" lon="4.67767">
        <ele>321.36873</ele>
        <time>2022-06-18T09:24:56.000Z</time>
      </trkpt>
      <trkpt lat="45.88974" lon="4.67776">
        <ele>320.6853</ele>
        <time>2022-06-18T09:24:57.000Z</time>
      </trkpt>
      <trkpt lat="45.88974" lon="4.67787">
        <ele>319.91829</ele>
        <time>2022-06-18T09:24:58.000Z</time>
      </trkpt>
      <trkpt lat="45.88974" lon="4.67795">
        <ele>319.36073</ele>
        <time>2022-06-18T09:24:59.000Z</time>
      </trkpt>
      <trkpt lat="45.88974" lon="4.67801">
        <ele>319.02272</ele>
        <time>2022-06-18T09:25:00.000Z</time>
      </trkpt>
      <trkpt lat="45.88974" lon="4.67806">
        <ele>318.6386</ele>
        <time>2022-06-18T09:25:01.000Z</time>
      </trkpt>
      <trkpt lat="45.88975" lon="4.67812">
        <ele>318.30356</ele>
        <time>2022-06-18T09:25:02.000Z</time>
      </trkpt>
      <trkpt lat="45.88976" lon="4.67817">
        <ele>318.06845</ele>
        <time>2022-06-18T09:25:03.000Z</time>
      </trkpt>
      <trkpt lat="45.88977" lon="4.67821">
        <ele>317.8597</ele>
        <time>2022-06-18T09:25:04.000Z</time>
      </trkpt>
      <trkpt lat="45.88976" lon="4.67824">
        <ele>317.6484</ele>
        <time>2022-06-18T09:25:05.000Z</time>
      </trkpt>
      <trkpt lat="45.88975" lon="4.67827">
        <ele>317.37803</ele>
        <time>2022-06-18T09:25:06.000Z</time>
      </trkpt>
      <trkpt lat="45.88972" lon="4.67828">
        <ele>317.15805</ele>
        <time>2022-06-18T09:25:08.000Z</time>
      </trkpt>
      <trkpt lat="45.8897" lon="4.67828">
        <ele>317.03159</ele>
        <time>2022-06-18T09:25:09.000Z</time>
      </trkpt>
      <trkpt lat="45.88968" lon="4.67827">
        <ele>316.89924</ele>
        <time>2022-06-18T09:25:11.000Z</time>
      </trkpt>
      <trkpt lat="45.88965" lon="4.67826">
        <ele>316.76632</ele>
        <time>2022-06-18T09:25:14.000Z</time>
      </trkpt>
      <trkpt lat="45.88964" lon="4.67824">
        <ele>316.82475</ele>
        <time>2022-06-18T09:25:26.000Z</time>
      </trkpt>
      <trkpt lat="45.88962" lon="4.67823">
        <ele>316.70575</ele>
        <time>2022-06-18T09:25:28.000Z</time>
      </trkpt>
      <trkpt lat="45.8896" lon="4.67825">
        <ele>316.4253</ele>
        <time>2022-06-18T09:25:30.000Z</time>
      </trkpt>
      <trkpt lat="45.88958" lon="4.67825">
        <ele>316.1639</ele>
        <time>2022-06-18T09:25:31.000Z</time>
      </trkpt>
      <trkpt lat="45.88955" lon="4.67826">
        <ele>315.85886</ele>
        <time>2022-06-18T09:25:32.000Z</time>
      </trkpt>
      <trkpt lat="45.88952" lon="4.67827">
        <ele>315.43243</ele>
        <time>2022-06-18T09:25:33.000Z</time>
      </trkpt>
      <trkpt lat="45.88949" lon="4.67828">
        <ele>314.91218</ele>
        <time>2022-06-18T09:25:34.000Z</time>
      </trkpt>
      <trkpt lat="45.88945" lon="4.67829">
        <ele>314.33206</ele>
        <time>2022-06-18T09:25:35.000Z</time>
      </trkpt>
      <trkpt lat="45.88941" lon="4.67831">
        <ele>313.77706</ele>
        <time>2022-06-18T09:25:36.000Z</time>
      </trkpt>
      <trkpt lat="45.88936" lon="4.67831">
        <ele>313.26167</ele>
        <time>2022-06-18T09:25:37.000Z</time>
      </trkpt>
      <trkpt lat="45.88933" lon="4.67833">
        <ele>312.70174</ele>
        <time>2022-06-18T09:25:38.000Z</time>
      </trkpt>
      <trkpt lat="45.88929" lon="4.67835">
        <ele>312.11254</ele>
        <time>2022-06-18T09:25:39.000Z</time>
      </trkpt>
      <trkpt lat="45.88926" lon="4.67836">
        <ele>311.55022</ele>
        <time>2022-06-18T09:25:40.000Z</time>
      </trkpt>
      <trkpt lat="45.88922" lon="4.67838">
        <ele>310.95564</ele>
        <time>2022-06-18T09:25:41.000Z</time>
      </trkpt>
      <trkpt lat="45.88918" lon="4.6784">
        <ele>310.31774</ele>
        <time>2022-06-18T09:25:42.000Z</time>
      </trkpt>
      <trkpt lat="45.88914" lon="4.67841">
        <ele>309.76424</ele>
        <time>2022-06-18T09:25:43.000Z</time>
      </trkpt>
      <trkpt lat="45.8891" lon="4.67842">
        <ele>309.24909</ele>
        <time>2022-06-18T09:25:44.000Z</time>
      </trkpt>
      <trkpt lat="45.88906" lon="4.67844">
        <ele>308.72419</ele>
        <time>2022-06-18T09:25:45.000Z</time>
      </trkpt>
      <trkpt lat="45.88902" lon="4.67846">
        <ele>308.08365</ele>
        <time>2022-06-18T09:25:46.000Z</time>
      </trkpt>
      <trkpt lat="45.88898" lon="4.67848">
        <ele>307.30867</ele>
        <time>2022-06-18T09:25:47.000Z</time>
      </trkpt>
      <trkpt lat="45.88894" lon="4.67852">
        <ele>306.34045</ele>
        <time>2022-06-18T09:25:48.000Z</time>
      </trkpt>
      <trkpt lat="45.88891" lon="4.67857">
        <ele>305.20136</ele>
        <time>2022-06-18T09:25:49.000Z</time>
      </trkpt>
      <trkpt lat="45.88887" lon="4.6786">
        <ele>304.57241</ele>
        <time>2022-06-18T09:25:50.000Z</time>
      </trkpt>
      <trkpt lat="45.88882" lon="4.67863">
        <ele>304.10379</ele>
        <time>2022-06-18T09:25:51.000Z</time>
      </trkpt>
      <trkpt lat="45.88878" lon="4.67865">
        <ele>303.93927</ele>
        <time>2022-06-18T09:25:52.000Z</time>
      </trkpt>
      <trkpt lat="45.88873" lon="4.67867">
        <ele>303.81071</ele>
        <time>2022-06-18T09:25:53.000Z</time>
      </trkpt>
      <trkpt lat="45.88868" lon="4.67868">
        <ele>303.74124</ele>
        <time>2022-06-18T09:25:54.000Z</time>
      </trkpt>
      <trkpt lat="45.88864" lon="4.67869">
        <ele>303.71028</ele>
        <time>2022-06-18T09:25:55.000Z</time>
      </trkpt>
      <trkpt lat="45.88858" lon="4.67871">
        <ele>303.57161</ele>
        <time>2022-06-18T09:25:56.000Z</time>
      </trkpt>
      <trkpt lat="45.88853" lon="4.67871">
        <ele>303.64269</ele>
        <time>2022-06-18T09:25:57.000Z</time>
      </trkpt>
      <trkpt lat="45.88849" lon="4.67875">
        <ele>303.27446</ele>
        <time>2022-06-18T09:25:58.000Z</time>
      </trkpt>
      <trkpt lat="45.88841" lon="4.67878">
        <ele>302.86989</ele>
        <time>2022-06-18T09:26:00.000Z</time>
      </trkpt>
      <trkpt lat="45.88838" lon="4.67877">
        <ele>302.88979</ele>
        <time>2022-06-18T09:26:01.000Z</time>
      </trkpt>
      <trkpt lat="45.88836" lon="4.67877">
        <ele>302.84594</ele>
        <time>2022-06-18T09:26:02.000Z</time>
      </trkpt>
      <trkpt lat="45.88834" lon="4.67878">
        <ele>302.71158</ele>
        <time>2022-06-18T09:26:03.000Z</time>
      </trkpt>
      <trkpt lat="45.88831" lon="4.67878">
        <ele>302.65656</ele>
        <time>2022-06-18T09:26:05.000Z</time>
      </trkpt>
      <trkpt lat="45.88829" lon="4.67879">
        <ele>302.57224</ele>
        <time>2022-06-18T09:26:06.000Z</time>
      </trkpt>
      <trkpt lat="45.88827" lon="4.6788">
        <ele>302.48258</ele>
        <time>2022-06-18T09:26:07.000Z</time>
      </trkpt>
      <trkpt lat="45.88825" lon="4.67881">
        <ele>302.38457</ele>
        <time>2022-06-18T09:26:08.000Z</time>
      </trkpt>
      <trkpt lat="45.88823" lon="4.67883">
        <ele>302.25067</ele>
        <time>2022-06-18T09:26:09.000Z</time>
      </trkpt>
      <trkpt lat="45.88821" lon="4.67886">
        <ele>302.16601</ele>
        <time>2022-06-18T09:26:10.000Z</time>
      </trkpt>
      <trkpt lat="45.8882" lon="4.67888">
        <ele>302.08951</ele>
        <time>2022-06-18T09:26:11.000Z</time>
      </trkpt>
      <trkpt lat="45.88818" lon="4.67891">
        <ele>302.04148</ele>
        <time>2022-06-18T09:26:12.000Z</time>
      </trkpt>
      <trkpt lat="45.88817" lon="4.67893">
        <ele>302.01986</ele>
        <time>2022-06-18T09:26:13.000Z</time>
      </trkpt>
      <trkpt lat="45.88815" lon="4.67897">
        <ele>302.01548</ele>
        <time>2022-06-18T09:26:14.000Z</time>
      </trkpt>
      <trkpt lat="45.88814" lon="4.67901">
        <ele>302.071</ele>
        <time>2022-06-18T09:26:15.000Z</time>
      </trkpt>
      <trkpt lat="45.88812" lon="4.67905">
        <ele>302.16151</ele>
        <time>2022-06-18T09:26:16.000Z</time>
      </trkpt>
      <trkpt lat="45.8881" lon="4.67909">
        <ele>302.29188</ele>
        <time>2022-06-18T09:26:17.000Z</time>
      </trkpt>
      <trkpt lat="45.88807" lon="4.67913">
        <ele>302.48465</ele>
        <time>2022-06-18T09:26:18.000Z</time>
      </trkpt>
      <trkpt lat="45.88804" lon="4.67916">
        <ele>302.74155</ele>
        <time>2022-06-18T09:26:19.000Z</time>
      </trkpt>
      <trkpt lat="45.88801" lon="4.67917">
        <ele>303.01961</ele>
        <time>2022-06-18T09:26:20.000Z</time>
      </trkpt>
      <trkpt lat="45.88798" lon="4.67917">
        <ele>303.28688</ele>
        <time>2022-06-18T09:26:21.000Z</time>
      </trkpt>
      <trkpt lat="45.88794" lon="4.67916">
        <ele>303.5097</ele>
        <time>2022-06-18T09:26:22.000Z</time>
      </trkpt>
      <trkpt lat="45.8879" lon="4.67913">
        <ele>303.62662</ele>
        <time>2022-06-18T09:26:23.000Z</time>
      </trkpt>
      <trkpt lat="45.88786" lon="4.67911">
        <ele>303.67932</ele>
        <time>2022-06-18T09:26:24.000Z</time>
      </trkpt>
      <trkpt lat="45.88781" lon="4.67905">
        <ele>303.57055</ele>
        <time>2022-06-18T09:26:25.000Z</time>
      </trkpt>
      <trkpt lat="45.88777" lon="4.67903">
        <ele>303.82783</ele>
        <time>2022-06-18T09:26:26.000Z</time>
      </trkpt>
      <trkpt lat="45.88774" lon="4.67901">
        <ele>303.99208</ele>
        <time>2022-06-18T09:26:27.000Z</time>
      </trkpt>
      <trkpt lat="45.8877" lon="4.67898">
        <ele>304.37373</ele>
        <time>2022-06-18T09:26:28.000Z</time>
      </trkpt>
      <trkpt lat="45.88767" lon="4.67895">
        <ele>304.57771</ele>
        <time>2022-06-18T09:26:29.000Z</time>
      </trkpt>
      <trkpt lat="45.88763" lon="4.67893">
        <ele>304.80575</ele>
        <time>2022-06-18T09:26:30.000Z</time>
      </trkpt>
      <trkpt lat="45.8876" lon="4.67891">
        <ele>304.98338</ele>
        <time>2022-06-18T09:26:31.000Z</time>
      </trkpt>
      <trkpt lat="45.88758" lon="4.6789">
        <ele>305.08893</ele>
        <time>2022-06-18T09:26:32.000Z</time>
      </trkpt>
      <trkpt lat="45.88755" lon="4.67888">
        <ele>305.18905</ele>
        <time>2022-06-18T09:26:33.000Z</time>
      </trkpt>
      <trkpt lat="45.88752" lon="4.67885">
        <ele>305.23546</ele>
        <time>2022-06-18T09:26:34.000Z</time>
      </trkpt>
      <trkpt lat="45.88748" lon="4.67884">
        <ele>305.63169</ele>
        <time>2022-06-18T09:26:35.000Z</time>
      </trkpt>
      <trkpt lat="45.88744" lon="4.67882">
        <ele>305.8778</ele>
        <time>2022-06-18T09:26:36.000Z</time>
      </trkpt>
      <trkpt lat="45.88741" lon="4.6788">
        <ele>306.16208</ele>
        <time>2022-06-18T09:26:37.000Z</time>
      </trkpt>
      <trkpt lat="45.88737" lon="4.67878">
        <ele>306.45857</ele>
        <time>2022-06-18T09:26:38.000Z</time>
      </trkpt>
      <trkpt lat="45.88733" lon="4.67876">
        <ele>306.75586</ele>
        <time>2022-06-18T09:26:39.000Z</time>
      </trkpt>
      <trkpt lat="45.88729" lon="4.67874">
        <ele>307.12501</ele>
        <time>2022-06-18T09:26:40.000Z</time>
      </trkpt>
      <trkpt lat="45.88725" lon="4.67872">
        <ele>307.4716</ele>
        <time>2022-06-18T09:26:41.000Z</time>
      </trkpt>
      <trkpt lat="45.8872" lon="4.67871">
        <ele>307.8216</ele>
        <time>2022-06-18T09:26:42.000Z</time>
      </trkpt>
      <trkpt lat="45.88718" lon="4.67868">
        <ele>307.89976</ele>
        <time>2022-06-18T09:26:43.000Z</time>
      </trkpt>
      <trkpt lat="45.88715" lon="4.67865">
        <ele>307.95234</ele>
        <time>2022-06-18T09:26:44.000Z</time>
      </trkpt>
      <trkpt lat="45.88711" lon="4.67863">
        <ele>308.03695</ele>
        <time>2022-06-18T09:26:45.000Z</time>
      </trkpt>
      <trkpt lat="45.88706" lon="4.67861">
        <ele>308.07076</ele>
        <time>2022-06-18T09:26:46.000Z</time>
      </trkpt>
      <trkpt lat="45.88702" lon="4.6786">
        <ele>308.10439</ele>
        <time>2022-06-18T09:26:47.000Z</time>
      </trkpt>
      <trkpt lat="45.88697" lon="4.67858">
        <ele>308.19486</ele>
        <time>2022-06-18T09:26:48.000Z</time>
      </trkpt>
      <trkpt lat="45.88693" lon="4.67856">
        <ele>308.21344</ele>
        <time>2022-06-18T09:26:49.000Z</time>
      </trkpt>
      <trkpt lat="45.88688" lon="4.67854">
        <ele>308.35538</ele>
        <time>2022-06-18T09:26:50.000Z</time>
      </trkpt>
      <trkpt lat="45.88684" lon="4.67852">
        <ele>308.46447</ele>
        <time>2022-06-18T09:26:51.000Z</time>
      </trkpt>
      <trkpt lat="45.8868" lon="4.67849">
        <ele>308.51458</ele>
        <time>2022-06-18T09:26:52.000Z</time>
      </trkpt>
      <trkpt lat="45.88674" lon="4.67847">
        <ele>308.7069</ele>
        <time>2022-06-18T09:26:53.000Z</time>
      </trkpt>
      <trkpt lat="45.88669" lon="4.67845">
        <ele>308.85847</ele>
        <time>2022-06-18T09:26:54.000Z</time>
      </trkpt>
      <trkpt lat="45.88665" lon="4.67842">
        <ele>308.92459</ele>
        <time>2022-06-18T09:26:55.000Z</time>
      </trkpt>
      <trkpt lat="45.88662" lon="4.67839">
        <ele>308.90185</ele>
        <time>2022-06-18T09:26:56.000Z</time>
      </trkpt>
      <trkpt lat="45.88658" lon="4.67836">
        <ele>308.97126</ele>
        <time>2022-06-18T09:26:57.000Z</time>
      </trkpt>
      <trkpt lat="45.88651" lon="4.67834">
        <ele>309.37065</ele>
        <time>2022-06-18T09:26:58.000Z</time>
      </trkpt>
      <trkpt lat="45.88646" lon="4.67832">
        <ele>309.64713</ele>
        <time>2022-06-18T09:26:59.000Z</time>
      </trkpt>
      <trkpt lat="45.88641" lon="4.6783">
        <ele>309.96853</ele>
        <time>2022-06-18T09:27:00.000Z</time>
      </trkpt>
      <trkpt lat="45.88635" lon="4.6783">
        <ele>310.3456</ele>
        <time>2022-06-18T09:27:01.000Z</time>
      </trkpt>
      <trkpt lat="45.88632" lon="4.67829">
        <ele>310.50198</ele>
        <time>2022-06-18T09:27:02.000Z</time>
      </trkpt>
      <trkpt lat="45.88628" lon="4.67828">
        <ele>310.7416</ele>
        <time>2022-06-18T09:27:03.000Z</time>
      </trkpt>
      <trkpt lat="45.88624" lon="4.67827">
        <ele>310.99286</ele>
        <time>2022-06-18T09:27:04.000Z</time>
      </trkpt>
      <trkpt lat="45.88618" lon="4.67825">
        <ele>311.27344</ele>
        <time>2022-06-18T09:27:05.000Z</time>
      </trkpt>
      <trkpt lat="45.88615" lon="4.67823">
        <ele>311.46542</ele>
        <time>2022-06-18T09:27:06.000Z</time>
      </trkpt>
      <trkpt lat="45.88611" lon="4.6782">
        <ele>311.55853</ele>
        <time>2022-06-18T09:27:07.000Z</time>
      </trkpt>
      <trkpt lat="45.88607" lon="4.67815">
        <ele>311.51059</ele>
        <time>2022-06-18T09:27:08.000Z</time>
      </trkpt>
      <trkpt lat="45.88597" lon="4.67808">
        <ele>312.19937</ele>
        <time>2022-06-18T09:27:10.000Z</time>
      </trkpt>
      <trkpt lat="45.88593" lon="4.67804">
        <ele>312.63625</ele>
        <time>2022-06-18T09:27:11.000Z</time>
      </trkpt>
      <trkpt lat="45.8859" lon="4.67801">
        <ele>313.02907</ele>
        <time>2022-06-18T09:27:12.000Z</time>
      </trkpt>
      <trkpt lat="45.88587" lon="4.67798">
        <ele>313.38729</ele>
        <time>2022-06-18T09:27:13.000Z</time>
      </trkpt>
      <trkpt lat="45.88583" lon="4.67793">
        <ele>313.68579</ele>
        <time>2022-06-18T09:27:14.000Z</time>
      </trkpt>
      <trkpt lat="45.88579" lon="4.67788">
        <ele>313.70413</ele>
        <time>2022-06-18T09:27:15.000Z</time>
      </trkpt>
      <trkpt lat="45.88575" lon="4.67784">
        <ele>313.90223</ele>
        <time>2022-06-18T09:27:16.000Z</time>
      </trkpt>
      <trkpt lat="45.88567" lon="4.67775">
        <ele>314.32987</ele>
        <time>2022-06-18T09:27:18.000Z</time>
      </trkpt>
      <trkpt lat="45.88563" lon="4.67772">
        <ele>314.73872</ele>
        <time>2022-06-18T09:27:19.000Z</time>
      </trkpt>
      <trkpt lat="45.88559" lon="4.67769">
        <ele>315.06793</ele>
        <time>2022-06-18T09:27:20.000Z</time>
      </trkpt>
      <trkpt lat="45.88556" lon="4.67763">
        <ele>315.22449</ele>
        <time>2022-06-18T09:27:21.000Z</time>
      </trkpt>
      <trkpt lat="45.88552" lon="4.67759">
        <ele>315.47147</ele>
        <time>2022-06-18T09:27:22.000Z</time>
      </trkpt>
      <trkpt lat="45.88547" lon="4.67753">
        <ele>315.70911</ele>
        <time>2022-06-18T09:27:23.000Z</time>
      </trkpt>
      <trkpt lat="45.88543" lon="4.6775">
        <ele>315.98738</ele>
        <time>2022-06-18T09:27:24.000Z</time>
      </trkpt>
      <trkpt lat="45.8854" lon="4.67746">
        <ele>316.20155</ele>
        <time>2022-06-18T09:27:25.000Z</time>
      </trkpt>
      <trkpt lat="45.88537" lon="4.67743">
        <ele>316.41816</ele>
        <time>2022-06-18T09:27:26.000Z</time>
      </trkpt>
      <trkpt lat="45.88535" lon="4.67739">
        <ele>316.49257</ele>
        <time>2022-06-18T09:27:28.000Z</time>
      </trkpt>
      <trkpt lat="45.88533" lon="4.67737">
        <ele>316.6732</ele>
        <time>2022-06-18T09:27:30.000Z</time>
      </trkpt>
      <trkpt lat="45.88531" lon="4.67735">
        <ele>316.79142</ele>
        <time>2022-06-18T09:27:33.000Z</time>
      </trkpt>
      <trkpt lat="45.8853" lon="4.67733">
        <ele>316.81231</ele>
        <time>2022-06-18T09:27:34.000Z</time>
      </trkpt>
      <trkpt lat="45.88528" lon="4.6773">
        <ele>316.849</ele>
        <time>2022-06-18T09:27:35.000Z</time>
      </trkpt>
      <trkpt lat="45.88527" lon="4.67728">
        <ele>316.85827</ele>
        <time>2022-06-18T09:27:36.000Z</time>
      </trkpt>
      <trkpt lat="45.88525" lon="4.67723">
        <ele>316.76777</ele>
        <time>2022-06-18T09:27:38.000Z</time>
      </trkpt>
      <trkpt lat="45.88524" lon="4.6772">
        <ele>316.69771</ele>
        <time>2022-06-18T09:27:39.000Z</time>
      </trkpt>
      <trkpt lat="45.88522" lon="4.67716">
        <ele>316.66449</ele>
        <time>2022-06-18T09:27:40.000Z</time>
      </trkpt>
      <trkpt lat="45.8852" lon="4.67713">
        <ele>316.67562</ele>
        <time>2022-06-18T09:27:41.000Z</time>
      </trkpt>
      <trkpt lat="45.88517" lon="4.67711">
        <ele>316.73314</ele>
        <time>2022-06-18T09:27:42.000Z</time>
      </trkpt>
      <trkpt lat="45.88515" lon="4.67709">
        <ele>316.84857</ele>
        <time>2022-06-18T09:27:43.000Z</time>
      </trkpt>
      <trkpt lat="45.88513" lon="4.67709">
        <ele>317.02864</ele>
        <time>2022-06-18T09:27:44.000Z</time>
      </trkpt>
      <trkpt lat="45.88512" lon="4.67711">
        <ele>317.26891</ele>
        <time>2022-06-18T09:27:45.000Z</time>
      </trkpt>
      <trkpt lat="45.88512" lon="4.67715">
        <ele>317.42093</ele>
        <time>2022-06-18T09:27:46.000Z</time>
      </trkpt>
      <trkpt lat="45.88515" lon="4.67718">
        <ele>317.40068</ele>
        <time>2022-06-18T09:27:47.000Z</time>
      </trkpt>
      <trkpt lat="45.88519" lon="4.67721">
        <ele>317.16699</ele>
        <time>2022-06-18T09:27:48.000Z</time>
      </trkpt>
      <trkpt lat="45.88523" lon="4.67723">
        <ele>316.91639</ele>
        <time>2022-06-18T09:27:49.000Z</time>
      </trkpt>
      <trkpt lat="45.88527" lon="4.67725">
        <ele>316.75368</ele>
        <time>2022-06-18T09:27:50.000Z</time>
      </trkpt>
      <trkpt lat="45.8853" lon="4.67729">
        <ele>316.62173</ele>
        <time>2022-06-18T09:27:51.000Z</time>
      </trkpt>
      <trkpt lat="45.88533" lon="4.67735">
        <ele>316.53611</ele>
        <time>2022-06-18T09:27:52.000Z</time>
      </trkpt>
      <trkpt lat="45.88535" lon="4.67741">
        <ele>316.54989</ele>
        <time>2022-06-18T09:27:53.000Z</time>
      </trkpt>
      <trkpt lat="45.88535" lon="4.67746">
        <ele>316.74447</ele>
        <time>2022-06-18T09:27:54.000Z</time>
      </trkpt>
      <trkpt lat="45.88533" lon="4.67751">
        <ele>317.09342</ele>
        <time>2022-06-18T09:27:55.000Z</time>
      </trkpt>
      <trkpt lat="45.8853" lon="4.67754">
        <ele>317.48926</ele>
        <time>2022-06-18T09:27:56.000Z</time>
      </trkpt>
      <trkpt lat="45.88527" lon="4.67756">
        <ele>317.88365</ele>
        <time>2022-06-18T09:27:57.000Z</time>
      </trkpt>
      <trkpt lat="45.88524" lon="4.67759">
        <ele>318.2713</ele>
        <time>2022-06-18T09:27:58.000Z</time>
      </trkpt>
      <trkpt lat="45.88521" lon="4.67761">
        <ele>318.67611</ele>
        <time>2022-06-18T09:27:59.000Z</time>
      </trkpt>
      <trkpt lat="45.88518" lon="4.67764">
        <ele>319.08685</ele>
        <time>2022-06-18T09:28:00.000Z</time>
      </trkpt>
      <trkpt lat="45.88515" lon="4.67767">
        <ele>319.4707</ele>
        <time>2022-06-18T09:28:01.000Z</time>
      </trkpt>
      <trkpt lat="45.88513" lon="4.67769">
        <ele>319.78988</ele>
        <time>2022-06-18T09:28:02.000Z</time>
      </trkpt>
      <trkpt lat="45.8851" lon="4.67772">
        <ele>320.07872</ele>
        <time>2022-06-18T09:28:03.000Z</time>
      </trkpt>
      <trkpt lat="45.88508" lon="4.67774">
        <ele>320.355</ele>
        <time>2022-06-18T09:28:04.000Z</time>
      </trkpt>
      <trkpt lat="45.88506" lon="4.67777">
        <ele>320.62405</ele>
        <time>2022-06-18T09:28:05.000Z</time>
      </trkpt>
      <trkpt lat="45.88503" lon="4.67779">
        <ele>320.88696</ele>
        <time>2022-06-18T09:28:06.000Z</time>
      </trkpt>
      <trkpt lat="45.88501" lon="4.67781">
        <ele>321.14329</ele>
        <time>2022-06-18T09:28:07.000Z</time>
      </trkpt>
      <trkpt lat="45.88499" lon="4.67782">
        <ele>321.4081</ele>
        <time>2022-06-18T09:28:08.000Z</time>
      </trkpt>
      <trkpt lat="45.88496" lon="4.67784">
        <ele>321.66809</ele>
        <time>2022-06-18T09:28:09.000Z</time>
      </trkpt>
      <trkpt lat="45.88494" lon="4.67786">
        <ele>321.95111</ele>
        <time>2022-06-18T09:28:10.000Z</time>
      </trkpt>
      <trkpt lat="45.88492" lon="4.67788">
        <ele>322.24191</ele>
        <time>2022-06-18T09:28:11.000Z</time>
      </trkpt>
      <trkpt lat="45.8849" lon="4.6779">
        <ele>322.53963</ele>
        <time>2022-06-18T09:28:12.000Z</time>
      </trkpt>
      <trkpt lat="45.88488" lon="4.67792">
        <ele>322.93946</ele>
        <time>2022-06-18T09:28:13.000Z</time>
      </trkpt>
      <trkpt lat="45.88485" lon="4.67793">
        <ele>323.33761</ele>
        <time>2022-06-18T09:28:14.000Z</time>
      </trkpt>
      <trkpt lat="45.88483" lon="4.67795">
        <ele>323.74669</ele>
        <time>2022-06-18T09:28:15.000Z</time>
      </trkpt>
      <trkpt lat="45.8848" lon="4.67797">
        <ele>324.1557</ele>
        <time>2022-06-18T09:28:16.000Z</time>
      </trkpt>
      <trkpt lat="45.88478" lon="4.67799">
        <ele>324.58847</ele>
        <time>2022-06-18T09:28:17.000Z</time>
      </trkpt>
      <trkpt lat="45.88475" lon="4.67801">
        <ele>325.02465</ele>
        <time>2022-06-18T09:28:18.000Z</time>
      </trkpt>
      <trkpt lat="45.88473" lon="4.67804">
        <ele>325.42735</ele>
        <time>2022-06-18T09:28:19.000Z</time>
      </trkpt>
      <trkpt lat="45.8847" lon="4.67807">
        <ele>325.84323</ele>
        <time>2022-06-18T09:28:20.000Z</time>
      </trkpt>
      <trkpt lat="45.88468" lon="4.67809">
        <ele>326.18575</ele>
        <time>2022-06-18T09:28:21.000Z</time>
      </trkpt>
      <trkpt lat="45.88466" lon="4.67811">
        <ele>326.54347</ele>
        <time>2022-06-18T09:28:22.000Z</time>
      </trkpt>
      <trkpt lat="45.88464" lon="4.67813">
        <ele>326.95376</ele>
        <time>2022-06-18T09:28:23.000Z</time>
      </trkpt>
      <trkpt lat="45.88461" lon="4.67816">
        <ele>327.34539</ele>
        <time>2022-06-18T09:28:24.000Z</time>
      </trkpt>
      <trkpt lat="45.88459" lon="4.67818">
        <ele>327.6964</ele>
        <time>2022-06-18T09:28:25.000Z</time>
      </trkpt>
      <trkpt lat="45.88458" lon="4.6782">
        <ele>328.0197</ele>
        <time>2022-06-18T09:28:26.000Z</time>
      </trkpt>
      <trkpt lat="45.88456" lon="4.67823">
        <ele>328.38353</ele>
        <time>2022-06-18T09:28:27.000Z</time>
      </trkpt>
      <trkpt lat="45.88453" lon="4.67826">
        <ele>328.78199</ele>
        <time>2022-06-18T09:28:28.000Z</time>
      </trkpt>
      <trkpt lat="45.88451" lon="4.67829">
        <ele>329.18086</ele>
        <time>2022-06-18T09:28:29.000Z</time>
      </trkpt>
      <trkpt lat="45.88449" lon="4.6783">
        <ele>329.52306</ele>
        <time>2022-06-18T09:28:30.000Z</time>
      </trkpt>
      <trkpt lat="45.88448" lon="4.67832">
        <ele>329.81031</ele>
        <time>2022-06-18T09:28:31.000Z</time>
      </trkpt>
      <trkpt lat="45.88444" lon="4.67836">
        <ele>330.44084</ele>
        <time>2022-06-18T09:28:33.000Z</time>
      </trkpt>
      <trkpt lat="45.88441" lon="4.67838">
        <ele>330.83488</ele>
        <time>2022-06-18T09:28:34.000Z</time>
      </trkpt>
      <trkpt lat="45.88439" lon="4.6784">
        <ele>331.24876</ele>
        <time>2022-06-18T09:28:35.000Z</time>
      </trkpt>
      <trkpt lat="45.88436" lon="4.67842">
        <ele>331.65459</ele>
        <time>2022-06-18T09:28:36.000Z</time>
      </trkpt>
      <trkpt lat="45.88434" lon="4.67844">
        <ele>332.03897</ele>
        <time>2022-06-18T09:28:37.000Z</time>
      </trkpt>
      <trkpt lat="45.88432" lon="4.67846">
        <ele>332.4015</ele>
        <time>2022-06-18T09:28:38.000Z</time>
      </trkpt>
      <trkpt lat="45.8843" lon="4.67848">
        <ele>332.73929</ele>
        <time>2022-06-18T09:28:39.000Z</time>
      </trkpt>
      <trkpt lat="45.88428" lon="4.67851">
        <ele>333.28521</ele>
        <time>2022-06-18T09:28:41.000Z</time>
      </trkpt>
      <trkpt lat="45.88426" lon="4.67853">
        <ele>333.62364</ele>
        <time>2022-06-18T09:28:42.000Z</time>
      </trkpt>
      <trkpt lat="45.88424" lon="4.67856">
        <ele>333.95614</ele>
        <time>2022-06-18T09:28:43.000Z</time>
      </trkpt>
      <trkpt lat="45.88422" lon="4.67858">
        <ele>334.29161</ele>
        <time>2022-06-18T09:28:44.000Z</time>
      </trkpt>
      <trkpt lat="45.8842" lon="4.6786">
        <ele>334.64236</ele>
        <time>2022-06-18T09:28:45.000Z</time>
      </trkpt>
      <trkpt lat="45.88418" lon="4.67863">
        <ele>334.98425</ele>
        <time>2022-06-18T09:28:46.000Z</time>
      </trkpt>
      <trkpt lat="45.88415" lon="4.67866">
        <ele>335.33474</ele>
        <time>2022-06-18T09:28:47.000Z</time>
      </trkpt>
      <trkpt lat="45.88413" lon="4.67868">
        <ele>335.64183</ele>
        <time>2022-06-18T09:28:48.000Z</time>
      </trkpt>
      <trkpt lat="45.88411" lon="4.67871">
        <ele>335.94493</ele>
        <time>2022-06-18T09:28:49.000Z</time>
      </trkpt>
      <trkpt lat="45.88409" lon="4.67873">
        <ele>336.23454</ele>
        <time>2022-06-18T09:28:50.000Z</time>
      </trkpt>
      <trkpt lat="45.88407" lon="4.67876">
        <ele>336.54441</ele>
        <time>2022-06-18T09:28:51.000Z</time>
      </trkpt>
      <trkpt lat="45.88402" lon="4.6788">
        <ele>337.14945</ele>
        <time>2022-06-18T09:28:53.000Z</time>
      </trkpt>
      <trkpt lat="45.884" lon="4.67883">
        <ele>337.50741</ele>
        <time>2022-06-18T09:28:54.000Z</time>
      </trkpt>
      <trkpt lat="45.88398" lon="4.67886">
        <ele>337.8572</ele>
        <time>2022-06-18T09:28:55.000Z</time>
      </trkpt>
      <trkpt lat="45.88395" lon="4.67888">
        <ele>338.23875</ele>
        <time>2022-06-18T09:28:56.000Z</time>
      </trkpt>
      <trkpt lat="45.88393" lon="4.6789">
        <ele>338.58977</ele>
        <time>2022-06-18T09:28:57.000Z</time>
      </trkpt>
      <trkpt lat="45.88391" lon="4.67893">
        <ele>338.94458</ele>
        <time>2022-06-18T09:28:58.000Z</time>
      </trkpt>
      <trkpt lat="45.88389" lon="4.67895">
        <ele>339.30441</ele>
        <time>2022-06-18T09:28:59.000Z</time>
      </trkpt>
      <trkpt lat="45.88388" lon="4.67897">
        <ele>339.66836</ele>
        <time>2022-06-18T09:29:00.000Z</time>
      </trkpt>
      <trkpt lat="45.88386" lon="4.67898">
        <ele>340.04788</ele>
        <time>2022-06-18T09:29:01.000Z</time>
      </trkpt>
      <trkpt lat="45.88384" lon="4.679">
        <ele>340.53708</ele>
        <time>2022-06-18T09:29:02.000Z</time>
      </trkpt>
      <trkpt lat="45.88381" lon="4.67902">
        <ele>341.04969</ele>
        <time>2022-06-18T09:29:03.000Z</time>
      </trkpt>
      <trkpt lat="45.88379" lon="4.67903">
        <ele>341.5449</ele>
        <time>2022-06-18T09:29:04.000Z</time>
      </trkpt>
      <trkpt lat="45.88377" lon="4.67904">
        <ele>341.99474</ele>
        <time>2022-06-18T09:29:05.000Z</time>
      </trkpt>
      <trkpt lat="45.88374" lon="4.67905">
        <ele>342.37309</ele>
        <time>2022-06-18T09:29:06.000Z</time>
      </trkpt>
      <trkpt lat="45.88372" lon="4.67906">
        <ele>342.73249</ele>
        <time>2022-06-18T09:29:07.000Z</time>
      </trkpt>
      <trkpt lat="45.8837" lon="4.67906">
        <ele>343.06139</ele>
        <time>2022-06-18T09:29:08.000Z</time>
      </trkpt>
      <trkpt lat="45.88367" lon="4.67906">
        <ele>343.32261</ele>
        <time>2022-06-18T09:29:09.000Z</time>
      </trkpt>
      <trkpt lat="45.88365" lon="4.67905">
        <ele>343.5057</ele>
        <time>2022-06-18T09:29:10.000Z</time>
      </trkpt>
      <trkpt lat="45.88364" lon="4.67904">
        <ele>343.60455</ele>
        <time>2022-06-18T09:29:11.000Z</time>
      </trkpt>
      <trkpt lat="45.88362" lon="4.67901">
        <ele>343.69973</ele>
        <time>2022-06-18T09:29:12.000Z</time>
      </trkpt>
      <trkpt lat="45.88359" lon="4.67895">
        <ele>343.9476</ele>
        <time>2022-06-18T09:29:14.000Z</time>
      </trkpt>
      <trkpt lat="45.88357" lon="4.67893">
        <ele>344.13719</ele>
        <time>2022-06-18T09:29:15.000Z</time>
      </trkpt>
      <trkpt lat="45.88355" lon="4.6789">
        <ele>344.42868</ele>
        <time>2022-06-18T09:29:16.000Z</time>
      </trkpt>
      <trkpt lat="45.88354" lon="4.67887">
        <ele>344.70174</ele>
        <time>2022-06-18T09:29:17.000Z</time>
      </trkpt>
      <trkpt lat="45.88352" lon="4.67885">
        <ele>344.95858</ele>
        <time>2022-06-18T09:29:18.000Z</time>
      </trkpt>
      <trkpt lat="45.8835" lon="4.67883">
        <ele>345.23747</ele>
        <time>2022-06-18T09:29:19.000Z</time>
      </trkpt>
      <trkpt lat="45.88348" lon="4.6788">
        <ele>345.54658</ele>
        <time>2022-06-18T09:29:20.000Z</time>
      </trkpt>
      <trkpt lat="45.88344" lon="4.67876">
        <ele>346.15815</ele>
        <time>2022-06-18T09:29:22.000Z</time>
      </trkpt>
      <trkpt lat="45.88343" lon="4.67874">
        <ele>346.42075</ele>
        <time>2022-06-18T09:29:23.000Z</time>
      </trkpt>
      <trkpt lat="45.88341" lon="4.67872">
        <ele>346.64308</ele>
        <time>2022-06-18T09:29:24.000Z</time>
      </trkpt>
      <trkpt lat="45.88339" lon="4.6787">
        <ele>346.8558</ele>
        <time>2022-06-18T09:29:25.000Z</time>
      </trkpt>
      <trkpt lat="45.88338" lon="4.67868">
        <ele>347.08414</ele>
        <time>2022-06-18T09:29:26.000Z</time>
      </trkpt>
      <trkpt lat="45.88336" lon="4.67866">
        <ele>347.31572</ele>
        <time>2022-06-18T09:29:27.000Z</time>
      </trkpt>
      <trkpt lat="45.88334" lon="4.67863">
        <ele>347.52777</ele>
        <time>2022-06-18T09:29:28.000Z</time>
      </trkpt>
      <trkpt lat="45.88332" lon="4.67861">
        <ele>347.73605</ele>
        <time>2022-06-18T09:29:29.000Z</time>
      </trkpt>
      <trkpt lat="45.8833" lon="4.67859">
        <ele>347.94128</ele>
        <time>2022-06-18T09:29:30.000Z</time>
      </trkpt>
      <trkpt lat="45.88328" lon="4.67856">
        <ele>348.17932</ele>
        <time>2022-06-18T09:29:31.000Z</time>
      </trkpt>
      <trkpt lat="45.88326" lon="4.67854">
        <ele>348.46429</ele>
        <time>2022-06-18T09:29:32.000Z</time>
      </trkpt>
      <trkpt lat="45.88322" lon="4.6785">
        <ele>348.90177</ele>
        <time>2022-06-18T09:29:34.000Z</time>
      </trkpt>
      <trkpt lat="45.88319" lon="4.67848">
        <ele>349.09968</ele>
        <time>2022-06-18T09:29:35.000Z</time>
      </trkpt>
      <trkpt lat="45.88317" lon="4.67846">
        <ele>349.29616</ele>
        <time>2022-06-18T09:29:36.000Z</time>
      </trkpt>
      <trkpt lat="45.88315" lon="4.67844">
        <ele>349.4653</ele>
        <time>2022-06-18T09:29:37.000Z</time>
      </trkpt>
      <trkpt lat="45.88313" lon="4.67843">
        <ele>349.61585</ele>
        <time>2022-06-18T09:29:38.000Z</time>
      </trkpt>
      <trkpt lat="45.8831" lon="4.67842">
        <ele>349.86672</ele>
        <time>2022-06-18T09:29:40.000Z</time>
      </trkpt>
      <trkpt lat="45.88308" lon="4.67843">
        <ele>350.08991</ele>
        <time>2022-06-18T09:29:41.000Z</time>
      </trkpt>
      <trkpt lat="45.88306" lon="4.67845">
        <ele>350.37381</ele>
        <time>2022-06-18T09:29:42.000Z</time>
      </trkpt>
      <trkpt lat="45.88305" lon="4.67848">
        <ele>350.61888</ele>
        <time>2022-06-18T09:29:43.000Z</time>
      </trkpt>
      <trkpt lat="45.88304" lon="4.67852">
        <ele>350.8106</ele>
        <time>2022-06-18T09:29:44.000Z</time>
      </trkpt>
      <trkpt lat="45.88304" lon="4.67857">
        <ele>350.95163</ele>
        <time>2022-06-18T09:29:45.000Z</time>
      </trkpt>
      <trkpt lat="45.88303" lon="4.6786">
        <ele>351.07119</ele>
        <time>2022-06-18T09:29:46.000Z</time>
      </trkpt>
      <trkpt lat="45.88303" lon="4.67864">
        <ele>351.19653</ele>
        <time>2022-06-18T09:29:47.000Z</time>
      </trkpt>
      <trkpt lat="45.88302" lon="4.67868">
        <ele>351.29794</ele>
        <time>2022-06-18T09:29:48.000Z</time>
      </trkpt>
      <trkpt lat="45.88301" lon="4.67871">
        <ele>351.40383</ele>
        <time>2022-06-18T09:29:49.000Z</time>
      </trkpt>
      <trkpt lat="45.883" lon="4.67878">
        <ele>351.57259</ele>
        <time>2022-06-18T09:29:51.000Z</time>
      </trkpt>
      <trkpt lat="45.88299" lon="4.67881">
        <ele>351.63699</ele>
        <time>2022-06-18T09:29:52.000Z</time>
      </trkpt>
      <trkpt lat="45.88299" lon="4.67884">
        <ele>351.67933</ele>
        <time>2022-06-18T09:29:53.000Z</time>
      </trkpt>
      <trkpt lat="45.88298" lon="4.67887">
        <ele>351.7204</ele>
        <time>2022-06-18T09:29:54.000Z</time>
      </trkpt>
      <trkpt lat="45.88297" lon="4.6789">
        <ele>351.77736</ele>
        <time>2022-06-18T09:29:55.000Z</time>
      </trkpt>
      <trkpt lat="45.88296" lon="4.67893">
        <ele>351.83517</ele>
        <time>2022-06-18T09:29:56.000Z</time>
      </trkpt>
      <trkpt lat="45.88294" lon="4.67896">
        <ele>351.89318</ele>
        <time>2022-06-18T09:29:57.000Z</time>
      </trkpt>
      <trkpt lat="45.88292" lon="4.67899">
        <ele>351.93927</ele>
        <time>2022-06-18T09:29:58.000Z</time>
      </trkpt>
      <trkpt lat="45.88291" lon="4.67902">
        <ele>351.99612</ele>
        <time>2022-06-18T09:29:59.000Z</time>
      </trkpt>
      <trkpt lat="45.88289" lon="4.67904">
        <ele>352.06863</ele>
        <time>2022-06-18T09:30:00.000Z</time>
      </trkpt>
      <trkpt lat="45.88287" lon="4.67906">
        <ele>352.15822</ele>
        <time>2022-06-18T09:30:01.000Z</time>
      </trkpt>
      <trkpt lat="45.88285" lon="4.67909">
        <ele>352.23514</ele>
        <time>2022-06-18T09:30:02.000Z</time>
      </trkpt>
      <trkpt lat="45.88283" lon="4.67911">
        <ele>352.30645</ele>
        <time>2022-06-18T09:30:03.000Z</time>
      </trkpt>
      <trkpt lat="45.88281" lon="4.67914">
        <ele>352.3512</ele>
        <time>2022-06-18T09:30:04.000Z</time>
      </trkpt>
      <trkpt lat="45.8828" lon="4.67916">
        <ele>352.40428</ele>
        <time>2022-06-18T09:30:05.000Z</time>
      </trkpt>
      <trkpt lat="45.88278" lon="4.67919">
        <ele>352.4646</ele>
        <time>2022-06-18T09:30:06.000Z</time>
      </trkpt>
      <trkpt lat="45.88276" lon="4.67921">
        <ele>352.53535</ele>
        <time>2022-06-18T09:30:07.000Z</time>
      </trkpt>
      <trkpt lat="45.88275" lon="4.67924">
        <ele>352.57436</ele>
        <time>2022-06-18T09:30:08.000Z</time>
      </trkpt>
      <trkpt lat="45.88273" lon="4.67926">
        <ele>352.60479</ele>
        <time>2022-06-18T09:30:09.000Z</time>
      </trkpt>
      <trkpt lat="45.88271" lon="4.67929">
        <ele>352.62696</ele>
        <time>2022-06-18T09:30:10.000Z</time>
      </trkpt>
      <trkpt lat="45.88269" lon="4.67931">
        <ele>352.60606</ele>
        <time>2022-06-18T09:30:11.000Z</time>
      </trkpt>
      <trkpt lat="45.88267" lon="4.67934">
        <ele>352.55829</ele>
        <time>2022-06-18T09:30:12.000Z</time>
      </trkpt>
      <trkpt lat="45.88263" lon="4.67939">
        <ele>352.34549</ele>
        <time>2022-06-18T09:30:14.000Z</time>
      </trkpt>
      <trkpt lat="45.88261" lon="4.67942">
        <ele>352.17179</ele>
        <time>2022-06-18T09:30:15.000Z</time>
      </trkpt>
      <trkpt lat="45.88259" lon="4.67945">
        <ele>352.01183</ele>
        <time>2022-06-18T09:30:16.000Z</time>
      </trkpt>
      <trkpt lat="45.88257" lon="4.67948">
        <ele>351.90365</ele>
        <time>2022-06-18T09:30:17.000Z</time>
      </trkpt>
      <trkpt lat="45.88256" lon="4.67949">
        <ele>351.81971</ele>
        <time>2022-06-18T09:30:18.000Z</time>
      </trkpt>
      <trkpt lat="45.88254" lon="4.67952">
        <ele>351.73662</ele>
        <time>2022-06-18T09:30:19.000Z</time>
      </trkpt>
      <trkpt lat="45.88252" lon="4.67954">
        <ele>351.65701</ele>
        <time>2022-06-18T09:30:20.000Z</time>
      </trkpt>
      <trkpt lat="45.88251" lon="4.67956">
        <ele>351.58656</ele>
        <time>2022-06-18T09:30:21.000Z</time>
      </trkpt>
      <trkpt lat="45.8825" lon="4.67958">
        <ele>351.49881</ele>
        <time>2022-06-18T09:30:22.000Z</time>
      </trkpt>
      <trkpt lat="45.88249" lon="4.67962">
        <ele>351.25703</ele>
        <time>2022-06-18T09:30:24.000Z</time>
      </trkpt>
      <trkpt lat="45.88249" lon="4.67965">
        <ele>351.04192</ele>
        <time>2022-06-18T09:30:25.000Z</time>
      </trkpt>
      <trkpt lat="45.88251" lon="4.67968">
        <ele>350.77741</ele>
        <time>2022-06-18T09:30:26.000Z</time>
      </trkpt>
      <trkpt lat="45.88255" lon="4.6797">
        <ele>350.50297</ele>
        <time>2022-06-18T09:30:27.000Z</time>
      </trkpt>
      <trkpt lat="45.88258" lon="4.67971">
        <ele>350.28725</ele>
        <time>2022-06-18T09:30:28.000Z</time>
      </trkpt>
      <trkpt lat="45.88261" lon="4.67971">
        <ele>350.09192</ele>
        <time>2022-06-18T09:30:29.000Z</time>
      </trkpt>
      <trkpt lat="45.88263" lon="4.67971">
        <ele>349.9547</ele>
        <time>2022-06-18T09:30:30.000Z</time>
      </trkpt>
      <trkpt lat="45.88266" lon="4.67971">
        <ele>349.77254</ele>
        <time>2022-06-18T09:30:32.000Z</time>
      </trkpt>
      <trkpt lat="45.88268" lon="4.67974">
        <ele>349.46448</ele>
        <time>2022-06-18T09:30:34.000Z</time>
      </trkpt>
      <trkpt lat="45.8827" lon="4.67977">
        <ele>349.21428</ele>
        <time>2022-06-18T09:30:35.000Z</time>
      </trkpt>
      <trkpt lat="45.8827" lon="4.67981">
        <ele>348.92156</ele>
        <time>2022-06-18T09:30:36.000Z</time>
      </trkpt>
      <trkpt lat="45.88271" lon="4.67987">
        <ele>348.66661</ele>
        <time>2022-06-18T09:30:37.000Z</time>
      </trkpt>
      <trkpt lat="45.8827" lon="4.67993">
        <ele>348.49192</ele>
        <time>2022-06-18T09:30:38.000Z</time>
      </trkpt>
      <trkpt lat="45.8827" lon="4.67999">
        <ele>348.35814</ele>
        <time>2022-06-18T09:30:39.000Z</time>
      </trkpt>
      <trkpt lat="45.8827" lon="4.68005">
        <ele>348.25599</ele>
        <time>2022-06-18T09:30:40.000Z</time>
      </trkpt>
      <trkpt lat="45.8827" lon="4.68011">
        <ele>348.18162</ele>
        <time>2022-06-18T09:30:41.000Z</time>
      </trkpt>
      <trkpt lat="45.8827" lon="4.68016">
        <ele>348.11222</ele>
        <time>2022-06-18T09:30:42.000Z</time>
      </trkpt>
      <trkpt lat="45.88269" lon="4.68021">
        <ele>348.08348</ele>
        <time>2022-06-18T09:30:43.000Z</time>
      </trkpt>
      <trkpt lat="45.88269" lon="4.68026">
        <ele>348.07088</ele>
        <time>2022-06-18T09:30:44.000Z</time>
      </trkpt>
      <trkpt lat="45.88269" lon="4.6803">
        <ele>348.07873</ele>
        <time>2022-06-18T09:30:45.000Z</time>
      </trkpt>
      <trkpt lat="45.88269" lon="4.68035">
        <ele>348.07985</ele>
        <time>2022-06-18T09:30:46.000Z</time>
      </trkpt>
      <trkpt lat="45.88269" lon="4.6804">
        <ele>348.079</ele>
        <time>2022-06-18T09:30:47.000Z</time>
      </trkpt>
      <trkpt lat="45.88269" lon="4.68045">
        <ele>348.09691</ele>
        <time>2022-06-18T09:30:48.000Z</time>
      </trkpt>
      <trkpt lat="45.88269" lon="4.6805">
        <ele>348.13366</ele>
        <time>2022-06-18T09:30:49.000Z</time>
      </trkpt>
      <trkpt lat="45.88268" lon="4.68059">
        <ele>348.26341</ele>
        <time>2022-06-18T09:30:51.000Z</time>
      </trkpt>
      <trkpt lat="45.88268" lon="4.68064">
        <ele>348.34472</ele>
        <time>2022-06-18T09:30:52.000Z</time>
      </trkpt>
      <trkpt lat="45.88268" lon="4.68069">
        <ele>348.41958</ele>
        <time>2022-06-18T09:30:53.000Z</time>
      </trkpt>
      <trkpt lat="45.88269" lon="4.68073">
        <ele>348.50899</ele>
        <time>2022-06-18T09:30:54.000Z</time>
      </trkpt>
      <trkpt lat="45.88269" lon="4.68078">
        <ele>348.64082</ele>
        <time>2022-06-18T09:30:55.000Z</time>
      </trkpt>
      <trkpt lat="45.88269" lon="4.68082">
        <ele>348.7961</ele>
        <time>2022-06-18T09:30:56.000Z</time>
      </trkpt>
      <trkpt lat="45.88269" lon="4.68086">
        <ele>348.98502</ele>
        <time>2022-06-18T09:30:57.000Z</time>
      </trkpt>
      <trkpt lat="45.88268" lon="4.6809">
        <ele>349.21365</ele>
        <time>2022-06-18T09:30:58.000Z</time>
      </trkpt>
      <trkpt lat="45.88268" lon="4.68095">
        <ele>349.47789</ele>
        <time>2022-06-18T09:30:59.000Z</time>
      </trkpt>
      <trkpt lat="45.88268" lon="4.68099">
        <ele>349.75649</ele>
        <time>2022-06-18T09:31:00.000Z</time>
      </trkpt>
      <trkpt lat="45.88268" lon="4.68104">
        <ele>350.06802</ele>
        <time>2022-06-18T09:31:01.000Z</time>
      </trkpt>
      <trkpt lat="45.88268" lon="4.68109">
        <ele>350.41763</ele>
        <time>2022-06-18T09:31:02.000Z</time>
      </trkpt>
      <trkpt lat="45.88268" lon="4.68121">
        <ele>351.24105</ele>
        <time>2022-06-18T09:31:04.000Z</time>
      </trkpt>
      <trkpt lat="45.88268" lon="4.68126">
        <ele>351.6431</ele>
        <time>2022-06-18T09:31:05.000Z</time>
      </trkpt>
      <trkpt lat="45.88268" lon="4.68131">
        <ele>352.02428</ele>
        <time>2022-06-18T09:31:06.000Z</time>
      </trkpt>
      <trkpt lat="45.88268" lon="4.68136">
        <ele>352.39917</ele>
        <time>2022-06-18T09:31:07.000Z</time>
      </trkpt>
      <trkpt lat="45.88268" lon="4.68141">
        <ele>352.79966</ele>
        <time>2022-06-18T09:31:08.000Z</time>
      </trkpt>
      <trkpt lat="45.88268" lon="4.68147">
        <ele>353.20064</ele>
        <time>2022-06-18T09:31:09.000Z</time>
      </trkpt>
      <trkpt lat="45.88269" lon="4.68152">
        <ele>353.59673</ele>
        <time>2022-06-18T09:31:10.000Z</time>
      </trkpt>
      <trkpt lat="45.88268" lon="4.68157">
        <ele>354.01375</ele>
        <time>2022-06-18T09:31:11.000Z</time>
      </trkpt>
      <trkpt lat="45.88269" lon="4.68163">
        <ele>354.422</ele>
        <time>2022-06-18T09:31:12.000Z</time>
      </trkpt>
      <trkpt lat="45.88269" lon="4.68168">
        <ele>354.8386</ele>
        <time>2022-06-18T09:31:13.000Z</time>
      </trkpt>
      <trkpt lat="45.88269" lon="4.68173">
        <ele>355.22646</ele>
        <time>2022-06-18T09:31:14.000Z</time>
      </trkpt>
      <trkpt lat="45.88269" lon="4.68178">
        <ele>355.63046</ele>
        <time>2022-06-18T09:31:15.000Z</time>
      </trkpt>
      <trkpt lat="45.88269" lon="4.68183">
        <ele>356.04224</ele>
        <time>2022-06-18T09:31:16.000Z</time>
      </trkpt>
      <trkpt lat="45.88269" lon="4.68187">
        <ele>356.46063</ele>
        <time>2022-06-18T09:31:17.000Z</time>
      </trkpt>
      <trkpt lat="45.88269" lon="4.68192">
        <ele>356.86102</ele>
        <time>2022-06-18T09:31:18.000Z</time>
      </trkpt>
      <trkpt lat="45.8827" lon="4.68197">
        <ele>357.25537</ele>
        <time>2022-06-18T09:31:19.000Z</time>
      </trkpt>
      <trkpt lat="45.8827" lon="4.68201">
        <ele>357.64512</ele>
        <time>2022-06-18T09:31:20.000Z</time>
      </trkpt>
      <trkpt lat="45.8827" lon="4.68205">
        <ele>358.03523</ele>
        <time>2022-06-18T09:31:21.000Z</time>
      </trkpt>
      <trkpt lat="45.88269" lon="4.68209">
        <ele>358.43576</ele>
        <time>2022-06-18T09:31:22.000Z</time>
      </trkpt>
      <trkpt lat="45.88269" lon="4.68213">
        <ele>358.87657</ele>
        <time>2022-06-18T09:31:23.000Z</time>
      </trkpt>
      <trkpt lat="45.88269" lon="4.68217">
        <ele>359.3309</ele>
        <time>2022-06-18T09:31:24.000Z</time>
      </trkpt>
      <trkpt lat="45.88269" lon="4.68221">
        <ele>359.79529</ele>
        <time>2022-06-18T09:31:25.000Z</time>
      </trkpt>
      <trkpt lat="45.8827" lon="4.68224">
        <ele>360.21977</ele>
        <time>2022-06-18T09:31:26.000Z</time>
      </trkpt>
      <trkpt lat="45.8827" lon="4.68227">
        <ele>360.59081</ele>
        <time>2022-06-18T09:31:27.000Z</time>
      </trkpt>
      <trkpt lat="45.88271" lon="4.68232">
        <ele>361.1243</ele>
        <time>2022-06-18T09:31:29.000Z</time>
      </trkpt>
      <trkpt lat="45.88273" lon="4.68234">
        <ele>361.27643</ele>
        <time>2022-06-18T09:31:30.000Z</time>
      </trkpt>
      <trkpt lat="45.88275" lon="4.68235">
        <ele>361.31451</ele>
        <time>2022-06-18T09:31:31.000Z</time>
      </trkpt>
      <trkpt lat="45.88278" lon="4.68236">
        <ele>361.23221</ele>
        <time>2022-06-18T09:31:32.000Z</time>
      </trkpt>
      <trkpt lat="45.88281" lon="4.68236">
        <ele>361.08757</ele>
        <time>2022-06-18T09:31:33.000Z</time>
      </trkpt>
      <trkpt lat="45.88284" lon="4.68235">
        <ele>360.84236</ele>
        <time>2022-06-18T09:31:34.000Z</time>
      </trkpt>
      <trkpt lat="45.88287" lon="4.68235">
        <ele>360.54059</ele>
        <time>2022-06-18T09:31:35.000Z</time>
      </trkpt>
      <trkpt lat="45.8829" lon="4.68234">
        <ele>360.25698</ele>
        <time>2022-06-18T09:31:36.000Z</time>
      </trkpt>
      <trkpt lat="45.88293" lon="4.68233">
        <ele>359.99533</ele>
        <time>2022-06-18T09:31:37.000Z</time>
      </trkpt>
      <trkpt lat="45.88296" lon="4.68233">
        <ele>359.77733</ele>
        <time>2022-06-18T09:31:38.000Z</time>
      </trkpt>
      <trkpt lat="45.88299" lon="4.68234">
        <ele>359.58958</ele>
        <time>2022-06-18T09:31:39.000Z</time>
      </trkpt>
      <trkpt lat="45.88302" lon="4.68234">
        <ele>359.40146</ele>
        <time>2022-06-18T09:31:40.000Z</time>
      </trkpt>
      <trkpt lat="45.88305" lon="4.68234">
        <ele>359.19186</ele>
        <time>2022-06-18T09:31:41.000Z</time>
      </trkpt>
      <trkpt lat="45.88309" lon="4.68234">
        <ele>358.94836</ele>
        <time>2022-06-18T09:31:42.000Z</time>
      </trkpt>
      <trkpt lat="45.88312" lon="4.68234">
        <ele>358.69413</ele>
        <time>2022-06-18T09:31:43.000Z</time>
      </trkpt>
      <trkpt lat="45.88316" lon="4.68233">
        <ele>358.45599</ele>
        <time>2022-06-18T09:31:44.000Z</time>
      </trkpt>
      <trkpt lat="45.88319" lon="4.68234">
        <ele>358.2858</ele>
        <time>2022-06-18T09:31:45.000Z</time>
      </trkpt>
      <trkpt lat="45.88322" lon="4.68234">
        <ele>358.11299</ele>
        <time>2022-06-18T09:31:46.000Z</time>
      </trkpt>
      <trkpt lat="45.88325" lon="4.68234">
        <ele>357.91169</ele>
        <time>2022-06-18T09:31:47.000Z</time>
      </trkpt>
      <trkpt lat="45.88328" lon="4.68233">
        <ele>357.69601</ele>
        <time>2022-06-18T09:31:48.000Z</time>
      </trkpt>
      <trkpt lat="45.88331" lon="4.68233">
        <ele>357.46577</ele>
        <time>2022-06-18T09:31:49.000Z</time>
      </trkpt>
      <trkpt lat="45.88334" lon="4.68233">
        <ele>357.28408</ele>
        <time>2022-06-18T09:31:51.000Z</time>
      </trkpt>
      <trkpt lat="45.88336" lon="4.68233">
        <ele>357.18518</ele>
        <time>2022-06-18T09:31:53.000Z</time>
      </trkpt>
      <trkpt lat="45.88338" lon="4.68231">
        <ele>356.75062</ele>
        <time>2022-06-18T09:31:55.000Z</time>
      </trkpt>
      <trkpt lat="45.88337" lon="4.68227">
        <ele>356.30657</ele>
        <time>2022-06-18T09:31:59.000Z</time>
      </trkpt>
      <trkpt lat="45.88341" lon="4.68228">
        <ele>356.23538</ele>
        <time>2022-06-18T09:32:59.000Z</time>
      </trkpt>
      <trkpt lat="45.88342" lon="4.6823">
        <ele>356.46461</ele>
        <time>2022-06-18T09:33:03.000Z</time>
      </trkpt>
      <trkpt lat="45.88343" lon="4.68232">
        <ele>356.71338</ele>
        <time>2022-06-18T09:33:09.000Z</time>
      </trkpt>
      <trkpt lat="45.88344" lon="4.68236">
        <ele>357.18048</ele>
        <time>2022-06-18T09:33:13.000Z</time>
      </trkpt>
      <trkpt lat="45.88343" lon="4.68239">
        <ele>357.71895</ele>
        <time>2022-06-18T09:33:16.000Z</time>
      </trkpt>
      <trkpt lat="45.88342" lon="4.68243">
        <ele>358.27876</ele>
        <time>2022-06-18T09:33:21.000Z</time>
      </trkpt>
      <trkpt lat="45.88342" lon="4.68246">
        <ele>358.72483</ele>
        <time>2022-06-18T09:33:24.000Z</time>
      </trkpt>
      <trkpt lat="45.88343" lon="4.68248">
        <ele>359.03612</ele>
        <time>2022-06-18T09:33:26.000Z</time>
      </trkpt>
      <trkpt lat="45.88344" lon="4.6825">
        <ele>359.37163</ele>
        <time>2022-06-18T09:33:28.000Z</time>
      </trkpt>
      <trkpt lat="45.88346" lon="4.68252">
        <ele>359.63807</ele>
        <time>2022-06-18T09:33:30.000Z</time>
      </trkpt>
      <trkpt lat="45.88348" lon="4.68253">
        <ele>359.68113</ele>
        <time>2022-06-18T09:33:39.000Z</time>
      </trkpt>
      <trkpt lat="45.88351" lon="4.68254">
        <ele>359.61123</ele>
        <time>2022-06-18T09:33:41.000Z</time>
      </trkpt>
      <trkpt lat="45.88355" lon="4.68255">
        <ele>359.47595</ele>
        <time>2022-06-18T09:33:43.000Z</time>
      </trkpt>
      <trkpt lat="45.88357" lon="4.68255">
        <ele>359.33275</ele>
        <time>2022-06-18T09:33:44.000Z</time>
      </trkpt>
      <trkpt lat="45.8836" lon="4.68254">
        <ele>359.11556</ele>
        <time>2022-06-18T09:33:45.000Z</time>
      </trkpt>
      <trkpt lat="45.88362" lon="4.68254">
        <ele>358.8744</ele>
        <time>2022-06-18T09:33:46.000Z</time>
      </trkpt>
      <trkpt lat="45.88364" lon="4.68253">
        <ele>358.62559</ele>
        <time>2022-06-18T09:33:47.000Z</time>
      </trkpt>
      <trkpt lat="45.88366" lon="4.68252">
        <ele>358.39209</ele>
        <time>2022-06-18T09:33:48.000Z</time>
      </trkpt>
      <trkpt lat="45.88369" lon="4.68251">
        <ele>358.10401</ele>
        <time>2022-06-18T09:33:49.000Z</time>
      </trkpt>
      <trkpt lat="45.88371" lon="4.68251">
        <ele>357.85046</ele>
        <time>2022-06-18T09:33:50.000Z</time>
      </trkpt>
      <trkpt lat="45.88374" lon="4.68251">
        <ele>357.66174</ele>
        <time>2022-06-18T09:33:51.000Z</time>
      </trkpt>
      <trkpt lat="45.88377" lon="4.68251">
        <ele>357.45738</ele>
        <time>2022-06-18T09:33:52.000Z</time>
      </trkpt>
      <trkpt lat="45.8838" lon="4.68252">
        <ele>357.30776</ele>
        <time>2022-06-18T09:33:53.000Z</time>
      </trkpt>
      <trkpt lat="45.88382" lon="4.68253">
        <ele>357.21923</ele>
        <time>2022-06-18T09:33:54.000Z</time>
      </trkpt>
      <trkpt lat="45.88385" lon="4.68254">
        <ele>357.14199</ele>
        <time>2022-06-18T09:33:56.000Z</time>
      </trkpt>
      <trkpt lat="45.88385" lon="4.68251">
        <ele>356.78132</ele>
        <time>2022-06-18T09:34:08.000Z</time>
      </trkpt>
      <trkpt lat="45.88382" lon="4.68252">
        <ele>357.05338</ele>
        <time>2022-06-18T09:34:10.000Z</time>
      </trkpt>
      <trkpt lat="45.88378" lon="4.68252">
        <ele>357.4659</ele>
        <time>2022-06-18T09:34:13.000Z</time>
      </trkpt>
      <trkpt lat="45.88377" lon="4.68253">
        <ele>357.75123</ele>
        <time>2022-06-18T09:34:16.000Z</time>
      </trkpt>
      <trkpt lat="45.88376" lon="4.68256">
        <ele>358.14031</ele>
        <time>2022-06-18T09:34:51.000Z</time>
      </trkpt>
      <trkpt lat="45.88375" lon="4.68258">
        <ele>358.5207</ele>
        <time>2022-06-18T09:34:55.000Z</time>
      </trkpt>
      <trkpt lat="45.88375" lon="4.68261">
        <ele>358.86633</ele>
        <time>2022-06-18T09:35:05.000Z</time>
      </trkpt>
      <trkpt lat="45.88375" lon="4.68264">
        <ele>359.19133</ele>
        <time>2022-06-18T09:35:48.000Z</time>
      </trkpt>
      <trkpt lat="45.88374" lon="4.68267">
        <ele>359.49243</ele>
        <time>2022-06-18T09:35:50.000Z</time>
      </trkpt>
      <trkpt lat="45.88373" lon="4.68265">
        <ele>359.43089</ele>
        <time>2022-06-18T09:35:57.000Z</time>
      </trkpt>
      <trkpt lat="45.88371" lon="4.68265">
        <ele>359.66288</ele>
        <time>2022-06-18T09:36:03.000Z</time>
      </trkpt>
      <trkpt lat="45.88369" lon="4.68265">
        <ele>359.86816</ele>
        <time>2022-06-18T09:36:04.000Z</time>
      </trkpt>
      <trkpt lat="45.88367" lon="4.68265">
        <ele>360.06418</ele>
        <time>2022-06-18T09:36:05.000Z</time>
      </trkpt>
      <trkpt lat="45.88365" lon="4.68266">
        <ele>360.27651</ele>
        <time>2022-06-18T09:36:06.000Z</time>
      </trkpt>
      <trkpt lat="45.88363" lon="4.68266">
        <ele>360.45944</ele>
        <time>2022-06-18T09:36:07.000Z</time>
      </trkpt>
      <trkpt lat="45.88361" lon="4.68266">
        <ele>360.65017</ele>
        <time>2022-06-18T09:36:08.000Z</time>
      </trkpt>
      <trkpt lat="45.88359" lon="4.68266">
        <ele>360.88377</ele>
        <time>2022-06-18T09:36:09.000Z</time>
      </trkpt>
      <trkpt lat="45.88356" lon="4.68266">
        <ele>361.08409</ele>
        <time>2022-06-18T09:36:10.000Z</time>
      </trkpt>
      <trkpt lat="45.88354" lon="4.68266">
        <ele>361.218</ele>
        <time>2022-06-18T09:36:11.000Z</time>
      </trkpt>
      <trkpt lat="45.88352" lon="4.68265">
        <ele>361.34021</ele>
        <time>2022-06-18T09:36:12.000Z</time>
      </trkpt>
      <trkpt lat="45.8835" lon="4.68265">
        <ele>361.45868</ele>
        <time>2022-06-18T09:36:13.000Z</time>
      </trkpt>
      <trkpt lat="45.88348" lon="4.68265">
        <ele>361.59051</ele>
        <time>2022-06-18T09:36:14.000Z</time>
      </trkpt>
      <trkpt lat="45.88345" lon="4.68266">
        <ele>361.75878</ele>
        <time>2022-06-18T09:36:15.000Z</time>
      </trkpt>
      <trkpt lat="45.88343" lon="4.68267">
        <ele>361.90561</ele>
        <time>2022-06-18T09:36:16.000Z</time>
      </trkpt>
      <trkpt lat="45.88341" lon="4.68268">
        <ele>362.06345</ele>
        <time>2022-06-18T09:36:17.000Z</time>
      </trkpt>
      <trkpt lat="45.88339" lon="4.68269">
        <ele>362.28972</ele>
        <time>2022-06-18T09:36:18.000Z</time>
      </trkpt>
      <trkpt lat="45.88337" lon="4.68272">
        <ele>362.55796</ele>
        <time>2022-06-18T09:36:19.000Z</time>
      </trkpt>
      <trkpt lat="45.88336" lon="4.68274">
        <ele>362.77058</ele>
        <time>2022-06-18T09:36:20.000Z</time>
      </trkpt>
      <trkpt lat="45.88334" lon="4.68276">
        <ele>362.87157</ele>
        <time>2022-06-18T09:36:21.000Z</time>
      </trkpt>
      <trkpt lat="45.88332" lon="4.68276">
        <ele>362.89119</ele>
        <time>2022-06-18T09:36:22.000Z</time>
      </trkpt>
      <trkpt lat="45.8833" lon="4.68277">
        <ele>362.89098</ele>
        <time>2022-06-18T09:36:23.000Z</time>
      </trkpt>
      <trkpt lat="45.88327" lon="4.68277">
        <ele>362.93191</ele>
        <time>2022-06-18T09:36:24.000Z</time>
      </trkpt>
      <trkpt lat="45.88325" lon="4.68278">
        <ele>363.02104</ele>
        <time>2022-06-18T09:36:25.000Z</time>
      </trkpt>
      <trkpt lat="45.88323" lon="4.68279">
        <ele>363.10572</ele>
        <time>2022-06-18T09:36:26.000Z</time>
      </trkpt>
      <trkpt lat="45.8832" lon="4.6828">
        <ele>363.1884</ele>
        <time>2022-06-18T09:36:27.000Z</time>
      </trkpt>
      <trkpt lat="45.88318" lon="4.68281">
        <ele>363.26279</ele>
        <time>2022-06-18T09:36:28.000Z</time>
      </trkpt>
      <trkpt lat="45.88315" lon="4.68282">
        <ele>363.3218</ele>
        <time>2022-06-18T09:36:29.000Z</time>
      </trkpt>
      <trkpt lat="45.88313" lon="4.68283">
        <ele>363.38671</ele>
        <time>2022-06-18T09:36:30.000Z</time>
      </trkpt>
      <trkpt lat="45.8831" lon="4.68283">
        <ele>363.4541</ele>
        <time>2022-06-18T09:36:31.000Z</time>
      </trkpt>
      <trkpt lat="45.88307" lon="4.68284">
        <ele>363.53375</ele>
        <time>2022-06-18T09:36:32.000Z</time>
      </trkpt>
      <trkpt lat="45.88304" lon="4.68284">
        <ele>363.60893</ele>
        <time>2022-06-18T09:36:33.000Z</time>
      </trkpt>
      <trkpt lat="45.88301" lon="4.68284">
        <ele>363.69436</ele>
        <time>2022-06-18T09:36:34.000Z</time>
      </trkpt>
      <trkpt lat="45.88299" lon="4.68284">
        <ele>363.79952</ele>
        <time>2022-06-18T09:36:35.000Z</time>
      </trkpt>
      <trkpt lat="45.88296" lon="4.68284">
        <ele>363.91533</ele>
        <time>2022-06-18T09:36:36.000Z</time>
      </trkpt>
      <trkpt lat="45.88293" lon="4.68284">
        <ele>364.0417</ele>
        <time>2022-06-18T09:36:37.000Z</time>
      </trkpt>
      <trkpt lat="45.8829" lon="4.68285">
        <ele>364.18319</ele>
        <time>2022-06-18T09:36:38.000Z</time>
      </trkpt>
      <trkpt lat="45.88286" lon="4.68285">
        <ele>364.37025</ele>
        <time>2022-06-18T09:36:39.000Z</time>
      </trkpt>
      <trkpt lat="45.88283" lon="4.68286">
        <ele>364.58481</ele>
        <time>2022-06-18T09:36:40.000Z</time>
      </trkpt>
      <trkpt lat="45.88279" lon="4.68287">
        <ele>364.8381</ele>
        <time>2022-06-18T09:36:41.000Z</time>
      </trkpt>
      <trkpt lat="45.88276" lon="4.68288">
        <ele>365.10577</ele>
        <time>2022-06-18T09:36:42.000Z</time>
      </trkpt>
      <trkpt lat="45.88272" lon="4.6829">
        <ele>365.41281</ele>
        <time>2022-06-18T09:36:43.000Z</time>
      </trkpt>
      <trkpt lat="45.88269" lon="4.68291">
        <ele>365.71588</ele>
        <time>2022-06-18T09:36:44.000Z</time>
      </trkpt>
      <trkpt lat="45.88265" lon="4.68292">
        <ele>366.0075</ele>
        <time>2022-06-18T09:36:45.000Z</time>
      </trkpt>
      <trkpt lat="45.88262" lon="4.68292">
        <ele>366.28117</ele>
        <time>2022-06-18T09:36:46.000Z</time>
      </trkpt>
      <trkpt lat="45.88258" lon="4.68291">
        <ele>366.56982</ele>
        <time>2022-06-18T09:36:47.000Z</time>
      </trkpt>
      <trkpt lat="45.88254" lon="4.68291">
        <ele>366.88871</ele>
        <time>2022-06-18T09:36:48.000Z</time>
      </trkpt>
      <trkpt lat="45.8825" lon="4.6829">
        <ele>367.26497</ele>
        <time>2022-06-18T09:36:49.000Z</time>
      </trkpt>
      <trkpt lat="45.88246" lon="4.68289">
        <ele>367.61743</ele>
        <time>2022-06-18T09:36:50.000Z</time>
      </trkpt>
      <trkpt lat="45.88243" lon="4.68287">
        <ele>367.90765</ele>
        <time>2022-06-18T09:36:51.000Z</time>
      </trkpt>
      <trkpt lat="45.88239" lon="4.68286">
        <ele>368.21842</ele>
        <time>2022-06-18T09:36:52.000Z</time>
      </trkpt>
      <trkpt lat="45.88235" lon="4.68284">
        <ele>368.5246</ele>
        <time>2022-06-18T09:36:53.000Z</time>
      </trkpt>
      <trkpt lat="45.88232" lon="4.68284">
        <ele>368.80249</ele>
        <time>2022-06-18T09:36:54.000Z</time>
      </trkpt>
      <trkpt lat="45.88229" lon="4.68284">
        <ele>369.04952</ele>
        <time>2022-06-18T09:36:55.000Z</time>
      </trkpt>
      <trkpt lat="45.88225" lon="4.68286">
        <ele>369.37945</ele>
        <time>2022-06-18T09:36:56.000Z</time>
      </trkpt>
      <trkpt lat="45.8822" lon="4.6829">
        <ele>369.67677</ele>
        <time>2022-06-18T09:36:57.000Z</time>
      </trkpt>
      <trkpt lat="45.88215" lon="4.68291">
        <ele>369.85176</ele>
        <time>2022-06-18T09:36:58.000Z</time>
      </trkpt>
      <trkpt lat="45.88212" lon="4.68291">
        <ele>369.95787</ele>
        <time>2022-06-18T09:36:59.000Z</time>
      </trkpt>
      <trkpt lat="45.88209" lon="4.68292">
        <ele>369.93496</ele>
        <time>2022-06-18T09:37:00.000Z</time>
      </trkpt>
      <trkpt lat="45.88205" lon="4.68292">
        <ele>369.89139</ele>
        <time>2022-06-18T09:37:02.000Z</time>
      </trkpt>
      <trkpt lat="45.88202" lon="4.68292">
        <ele>369.85171</ele>
        <time>2022-06-18T09:37:03.000Z</time>
      </trkpt>
      <trkpt lat="45.882" lon="4.68292">
        <ele>369.79317</ele>
        <time>2022-06-18T09:37:04.000Z</time>
      </trkpt>
      <trkpt lat="45.88198" lon="4.68292">
        <ele>369.76067</ele>
        <time>2022-06-18T09:37:05.000Z</time>
      </trkpt>
      <trkpt lat="45.88195" lon="4.68292">
        <ele>369.68836</ele>
        <time>2022-06-18T09:37:07.000Z</time>
      </trkpt>
      <trkpt lat="45.88191" lon="4.68293">
        <ele>369.62327</ele>
        <time>2022-06-18T09:37:09.000Z</time>
      </trkpt>
      <trkpt lat="45.88188" lon="4.68295">
        <ele>369.58069</ele>
        <time>2022-06-18T09:37:11.000Z</time>
      </trkpt>
      <trkpt lat="45.88186" lon="4.68295">
        <ele>369.55718</ele>
        <time>2022-06-18T09:37:12.000Z</time>
      </trkpt>
      <trkpt lat="45.88184" lon="4.68296">
        <ele>369.54246</ele>
        <time>2022-06-18T09:37:13.000Z</time>
      </trkpt>
      <trkpt lat="45.88181" lon="4.68297">
        <ele>369.53309</ele>
        <time>2022-06-18T09:37:14.000Z</time>
      </trkpt>
      <trkpt lat="45.88178" lon="4.68297">
        <ele>369.54093</ele>
        <time>2022-06-18T09:37:15.000Z</time>
      </trkpt>
      <trkpt lat="45.88174" lon="4.68297">
        <ele>369.58039</ele>
        <time>2022-06-18T09:37:16.000Z</time>
      </trkpt>
      <trkpt lat="45.8817" lon="4.68297">
        <ele>369.65108</ele>
        <time>2022-06-18T09:37:17.000Z</time>
      </trkpt>
      <trkpt lat="45.88167" lon="4.68297">
        <ele>369.7698</ele>
        <time>2022-06-18T09:37:18.000Z</time>
      </trkpt>
      <trkpt lat="45.88163" lon="4.68296">
        <ele>369.93504</ele>
        <time>2022-06-18T09:37:19.000Z</time>
      </trkpt>
      <trkpt lat="45.88159" lon="4.68296">
        <ele>370.13546</ele>
        <time>2022-06-18T09:37:20.000Z</time>
      </trkpt>
      <trkpt lat="45.88155" lon="4.68296">
        <ele>370.35453</ele>
        <time>2022-06-18T09:37:21.000Z</time>
      </trkpt>
      <trkpt lat="45.88151" lon="4.68295">
        <ele>370.59651</ele>
        <time>2022-06-18T09:37:22.000Z</time>
      </trkpt>
      <trkpt lat="45.88147" lon="4.68294">
        <ele>370.87104</ele>
        <time>2022-06-18T09:37:23.000Z</time>
      </trkpt>
      <trkpt lat="45.88143" lon="4.68294">
        <ele>371.08784</ele>
        <time>2022-06-18T09:37:24.000Z</time>
      </trkpt>
      <trkpt lat="45.88138" lon="4.68292">
        <ele>371.41961</ele>
        <time>2022-06-18T09:37:25.000Z</time>
      </trkpt>
      <trkpt lat="45.88134" lon="4.6829">
        <ele>371.66997</ele>
        <time>2022-06-18T09:37:26.000Z</time>
      </trkpt>
      <trkpt lat="45.88129" lon="4.68288">
        <ele>371.94705</ele>
        <time>2022-06-18T09:37:27.000Z</time>
      </trkpt>
      <trkpt lat="45.88125" lon="4.68287">
        <ele>372.17092</ele>
        <time>2022-06-18T09:37:28.000Z</time>
      </trkpt>
      <trkpt lat="45.88121" lon="4.68285">
        <ele>372.38698</ele>
        <time>2022-06-18T09:37:29.000Z</time>
      </trkpt>
      <trkpt lat="45.88115" lon="4.68283">
        <ele>372.62236</ele>
        <time>2022-06-18T09:37:30.000Z</time>
      </trkpt>
      <trkpt lat="45.8811" lon="4.68282">
        <ele>372.79773</ele>
        <time>2022-06-18T09:37:31.000Z</time>
      </trkpt>
      <trkpt lat="45.88104" lon="4.6828">
        <ele>372.99136</ele>
        <time>2022-06-18T09:37:32.000Z</time>
      </trkpt>
      <trkpt lat="45.88099" lon="4.6828">
        <ele>373.16202</ele>
        <time>2022-06-18T09:37:33.000Z</time>
      </trkpt>
      <trkpt lat="45.88095" lon="4.68277">
        <ele>373.32239</ele>
        <time>2022-06-18T09:37:34.000Z</time>
      </trkpt>
      <trkpt lat="45.88091" lon="4.68276">
        <ele>373.48556</ele>
        <time>2022-06-18T09:37:35.000Z</time>
      </trkpt>
      <trkpt lat="45.88085" lon="4.68274">
        <ele>373.67689</ele>
        <time>2022-06-18T09:37:36.000Z</time>
      </trkpt>
      <trkpt lat="45.88081" lon="4.68273">
        <ele>373.81028</ele>
        <time>2022-06-18T09:37:37.000Z</time>
      </trkpt>
      <trkpt lat="45.88076" lon="4.68272">
        <ele>373.96871</ele>
        <time>2022-06-18T09:37:38.000Z</time>
      </trkpt>
      <trkpt lat="45.88072" lon="4.68271">
        <ele>374.14874</ele>
        <time>2022-06-18T09:37:39.000Z</time>
      </trkpt>
      <trkpt lat="45.88067" lon="4.6827">
        <ele>374.36884</ele>
        <time>2022-06-18T09:37:40.000Z</time>
      </trkpt>
      <trkpt lat="45.88062" lon="4.68269">
        <ele>374.55034</ele>
        <time>2022-06-18T09:37:41.000Z</time>
      </trkpt>
      <trkpt lat="45.88058" lon="4.68266">
        <ele>374.69056</ele>
        <time>2022-06-18T09:37:42.000Z</time>
      </trkpt>
      <trkpt lat="45.88054" lon="4.68264">
        <ele>374.76275</ele>
        <time>2022-06-18T09:37:43.000Z</time>
      </trkpt>
      <trkpt lat="45.88048" lon="4.68264">
        <ele>374.76228</ele>
        <time>2022-06-18T09:37:44.000Z</time>
      </trkpt>
      <trkpt lat="45.88043" lon="4.68262">
        <ele>374.70342</ele>
        <time>2022-06-18T09:37:45.000Z</time>
      </trkpt>
      <trkpt lat="45.88037" lon="4.6826">
        <ele>374.65025</ele>
        <time>2022-06-18T09:37:46.000Z</time>
      </trkpt>
      <trkpt lat="45.88031" lon="4.68258">
        <ele>374.67739</ele>
        <time>2022-06-18T09:37:47.000Z</time>
      </trkpt>
      <trkpt lat="45.88025" lon="4.68258">
        <ele>374.76998</ele>
        <time>2022-06-18T09:37:48.000Z</time>
      </trkpt>
      <trkpt lat="45.8802" lon="4.68256">
        <ele>374.87098</ele>
        <time>2022-06-18T09:37:49.000Z</time>
      </trkpt>
      <trkpt lat="45.88014" lon="4.68255">
        <ele>375.01257</ele>
        <time>2022-06-18T09:37:50.000Z</time>
      </trkpt>
      <trkpt lat="45.88008" lon="4.68254">
        <ele>375.17142</ele>
        <time>2022-06-18T09:37:51.000Z</time>
      </trkpt>
      <trkpt lat="45.88004" lon="4.68252">
        <ele>375.30175</ele>
        <time>2022-06-18T09:37:52.000Z</time>
      </trkpt>
      <trkpt lat="45.87999" lon="4.68252">
        <ele>375.51486</ele>
        <time>2022-06-18T09:37:53.000Z</time>
      </trkpt>
      <trkpt lat="45.87996" lon="4.6825">
        <ele>375.65354</ele>
        <time>2022-06-18T09:37:54.000Z</time>
      </trkpt>
      <trkpt lat="45.87992" lon="4.68249">
        <ele>375.85552</ele>
        <time>2022-06-18T09:37:55.000Z</time>
      </trkpt>
      <trkpt lat="45.87988" lon="4.68248">
        <ele>376.1248</ele>
        <time>2022-06-18T09:37:56.000Z</time>
      </trkpt>
      <trkpt lat="45.87985" lon="4.68246">
        <ele>376.32393</ele>
        <time>2022-06-18T09:37:57.000Z</time>
      </trkpt>
      <trkpt lat="45.8798" lon="4.68244">
        <ele>376.70519</ele>
        <time>2022-06-18T09:37:58.000Z</time>
      </trkpt>
      <trkpt lat="45.87976" lon="4.68242">
        <ele>377.08893</ele>
        <time>2022-06-18T09:37:59.000Z</time>
      </trkpt>
      <trkpt lat="45.8797" lon="4.68242">
        <ele>377.59</ele>
        <time>2022-06-18T09:38:00.000Z</time>
      </trkpt>
      <trkpt lat="45.87967" lon="4.68241">
        <ele>377.91502</ele>
        <time>2022-06-18T09:38:01.000Z</time>
      </trkpt>
      <trkpt lat="45.87962" lon="4.68241">
        <ele>378.23799</ele>
        <time>2022-06-18T09:38:02.000Z</time>
      </trkpt>
      <trkpt lat="45.87957" lon="4.68242">
        <ele>378.4842</ele>
        <time>2022-06-18T09:38:03.000Z</time>
      </trkpt>
      <trkpt lat="45.87953" lon="4.68242">
        <ele>378.73156</ele>
        <time>2022-06-18T09:38:04.000Z</time>
      </trkpt>
      <trkpt lat="45.87949" lon="4.68242">
        <ele>378.9328</ele>
        <time>2022-06-18T09:38:05.000Z</time>
      </trkpt>
      <trkpt lat="45.87943" lon="4.68245">
        <ele>379.16215</ele>
        <time>2022-06-18T09:38:06.000Z</time>
      </trkpt>
      <trkpt lat="45.87939" lon="4.68246">
        <ele>379.40252</ele>
        <time>2022-06-18T09:38:07.000Z</time>
      </trkpt>
      <trkpt lat="45.87935" lon="4.68249">
        <ele>379.56036</ele>
        <time>2022-06-18T09:38:08.000Z</time>
      </trkpt>
      <trkpt lat="45.87931" lon="4.68252">
        <ele>379.62576</ele>
        <time>2022-06-18T09:38:09.000Z</time>
      </trkpt>
      <trkpt lat="45.87929" lon="4.68255">
        <ele>379.57319</ele>
        <time>2022-06-18T09:38:10.000Z</time>
      </trkpt>
      <trkpt lat="45.87926" lon="4.68259">
        <ele>379.5136</ele>
        <time>2022-06-18T09:38:11.000Z</time>
      </trkpt>
      <trkpt lat="45.87922" lon="4.68264">
        <ele>379.38214</ele>
        <time>2022-06-18T09:38:12.000Z</time>
      </trkpt>
      <trkpt lat="45.87919" lon="4.68268">
        <ele>379.28003</ele>
        <time>2022-06-18T09:38:13.000Z</time>
      </trkpt>
      <trkpt lat="45.87915" lon="4.68272">
        <ele>379.23458</ele>
        <time>2022-06-18T09:38:14.000Z</time>
      </trkpt>
      <trkpt lat="45.8791" lon="4.68275">
        <ele>379.30065</ele>
        <time>2022-06-18T09:38:15.000Z</time>
      </trkpt>
      <trkpt lat="45.87906" lon="4.68278">
        <ele>379.30837</ele>
        <time>2022-06-18T09:38:16.000Z</time>
      </trkpt>
      <trkpt lat="45.87902" lon="4.6828">
        <ele>379.38853</ele>
        <time>2022-06-18T09:38:17.000Z</time>
      </trkpt>
      <trkpt lat="45.87893" lon="4.68281">
        <ele>379.62072</ele>
        <time>2022-06-18T09:38:19.000Z</time>
      </trkpt>
      <trkpt lat="45.87889" lon="4.68282">
        <ele>379.67152</ele>
        <time>2022-06-18T09:38:20.000Z</time>
      </trkpt>
      <trkpt lat="45.87885" lon="4.68283">
        <ele>379.5776</ele>
        <time>2022-06-18T09:38:21.000Z</time>
      </trkpt>
      <trkpt lat="45.87881" lon="4.68285">
        <ele>379.37337</ele>
        <time>2022-06-18T09:38:22.000Z</time>
      </trkpt>
      <trkpt lat="45.87877" lon="4.68287">
        <ele>379.23356</ele>
        <time>2022-06-18T09:38:23.000Z</time>
      </trkpt>
      <trkpt lat="45.87873" lon="4.68289">
        <ele>379.01526</ele>
        <time>2022-06-18T09:38:24.000Z</time>
      </trkpt>
      <trkpt lat="45.87869" lon="4.68293">
        <ele>378.63099</ele>
        <time>2022-06-18T09:38:25.000Z</time>
      </trkpt>
      <trkpt lat="45.87865" lon="4.68295">
        <ele>378.33027</ele>
        <time>2022-06-18T09:38:26.000Z</time>
      </trkpt>
      <trkpt lat="45.8786" lon="4.68297">
        <ele>378.0346</ele>
        <time>2022-06-18T09:38:27.000Z</time>
      </trkpt>
      <trkpt lat="45.87856" lon="4.68299">
        <ele>377.74696</ele>
        <time>2022-06-18T09:38:28.000Z</time>
      </trkpt>
      <trkpt lat="45.87852" lon="4.68301">
        <ele>377.48898</ele>
        <time>2022-06-18T09:38:29.000Z</time>
      </trkpt>
      <trkpt lat="45.87847" lon="4.68304">
        <ele>377.23377</ele>
        <time>2022-06-18T09:38:30.000Z</time>
      </trkpt>
      <trkpt lat="45.87845" lon="4.68307">
        <ele>376.90177</ele>
        <time>2022-06-18T09:38:31.000Z</time>
      </trkpt>
      <trkpt lat="45.87841" lon="4.68308">
        <ele>376.76697</ele>
        <time>2022-06-18T09:38:32.000Z</time>
      </trkpt>
      <trkpt lat="45.87838" lon="4.68309">
        <ele>376.74276</ele>
        <time>2022-06-18T09:38:33.000Z</time>
      </trkpt>
      <trkpt lat="45.87835" lon="4.68311">
        <ele>376.43909</ele>
        <time>2022-06-18T09:38:34.000Z</time>
      </trkpt>
      <trkpt lat="45.87832" lon="4.68313">
        <ele>376.10161</ele>
        <time>2022-06-18T09:38:35.000Z</time>
      </trkpt>
      <trkpt lat="45.87827" lon="4.68317">
        <ele>375.57852</ele>
        <time>2022-06-18T09:38:36.000Z</time>
      </trkpt>
      <trkpt lat="45.87823" lon="4.68319">
        <ele>375.21941</ele>
        <time>2022-06-18T09:38:37.000Z</time>
      </trkpt>
      <trkpt lat="45.8782" lon="4.68321">
        <ele>374.99775</ele>
        <time>2022-06-18T09:38:38.000Z</time>
      </trkpt>
      <trkpt lat="45.87816" lon="4.68321">
        <ele>374.94503</ele>
        <time>2022-06-18T09:38:39.000Z</time>
      </trkpt>
      <trkpt lat="45.8781" lon="4.68322">
        <ele>374.93859</ele>
        <time>2022-06-18T09:38:40.000Z</time>
      </trkpt>
      <trkpt lat="45.87807" lon="4.68321">
        <ele>375.19007</ele>
        <time>2022-06-18T09:38:41.000Z</time>
      </trkpt>
      <trkpt lat="45.87802" lon="4.68322">
        <ele>375.18396</ele>
        <time>2022-06-18T09:38:42.000Z</time>
      </trkpt>
      <trkpt lat="45.87799" lon="4.68324">
        <ele>374.98026</ele>
        <time>2022-06-18T09:38:44.000Z</time>
      </trkpt>
      <trkpt lat="45.87797" lon="4.68328">
        <ele>374.3404</ele>
        <time>2022-06-18T09:38:45.000Z</time>
      </trkpt>
      <trkpt lat="45.87795" lon="4.68331">
        <ele>373.80799</ele>
        <time>2022-06-18T09:38:46.000Z</time>
      </trkpt>
      <trkpt lat="45.87791" lon="4.68334">
        <ele>373.35106</ele>
        <time>2022-06-18T09:38:47.000Z</time>
      </trkpt>
      <trkpt lat="45.87787" lon="4.68336">
        <ele>373.0559</ele>
        <time>2022-06-18T09:38:48.000Z</time>
      </trkpt>
      <trkpt lat="45.87783" lon="4.68338">
        <ele>372.67358</ele>
        <time>2022-06-18T09:38:49.000Z</time>
      </trkpt>
      <trkpt lat="45.87778" lon="4.68341">
        <ele>372.14679</ele>
        <time>2022-06-18T09:38:50.000Z</time>
      </trkpt>
      <trkpt lat="45.87773" lon="4.68343">
        <ele>371.56464</ele>
        <time>2022-06-18T09:38:51.000Z</time>
      </trkpt>
      <trkpt lat="45.87767" lon="4.68345">
        <ele>371.07187</ele>
        <time>2022-06-18T09:38:52.000Z</time>
      </trkpt>
      <trkpt lat="45.87759" lon="4.68349">
        <ele>370.45254</ele>
        <time>2022-06-18T09:38:53.000Z</time>
      </trkpt>
      <trkpt lat="45.87754" lon="4.68352">
        <ele>370.26982</ele>
        <time>2022-06-18T09:38:54.000Z</time>
      </trkpt>
      <trkpt lat="45.87748" lon="4.68356">
        <ele>369.92523</ele>
        <time>2022-06-18T09:38:55.000Z</time>
      </trkpt>
      <trkpt lat="45.87743" lon="4.68359">
        <ele>369.65658</ele>
        <time>2022-06-18T09:38:56.000Z</time>
      </trkpt>
      <trkpt lat="45.8773" lon="4.68365">
        <ele>369.07175</ele>
        <time>2022-06-18T09:38:58.000Z</time>
      </trkpt>
      <trkpt lat="45.87723" lon="4.68366">
        <ele>369.13708</ele>
        <time>2022-06-18T09:38:59.000Z</time>
      </trkpt>
      <trkpt lat="45.87716" lon="4.68366">
        <ele>369.33771</ele>
        <time>2022-06-18T09:39:00.000Z</time>
      </trkpt>
      <trkpt lat="45.87705" lon="4.68367">
        <ele>369.56635</ele>
        <time>2022-06-18T09:39:02.000Z</time>
      </trkpt>
      <trkpt lat="45.87699" lon="4.68369">
        <ele>369.37651</ele>
        <time>2022-06-18T09:39:03.000Z</time>
      </trkpt>
      <trkpt lat="45.87693" lon="4.6837">
        <ele>369.25656</ele>
        <time>2022-06-18T09:39:04.000Z</time>
      </trkpt>
      <trkpt lat="45.87686" lon="4.68372">
        <ele>368.7649</ele>
        <time>2022-06-18T09:39:05.000Z</time>
      </trkpt>
      <trkpt lat="45.87681" lon="4.68374">
        <ele>368.38347</ele>
        <time>2022-06-18T09:39:06.000Z</time>
      </trkpt>
      <trkpt lat="45.87676" lon="4.68374">
        <ele>368.19809</ele>
        <time>2022-06-18T09:39:07.000Z</time>
      </trkpt>
      <trkpt lat="45.87671" lon="4.68375">
        <ele>367.84208</ele>
        <time>2022-06-18T09:39:08.000Z</time>
      </trkpt>
      <trkpt lat="45.87666" lon="4.68377">
        <ele>367.50275</ele>
        <time>2022-06-18T09:39:09.000Z</time>
      </trkpt>
      <trkpt lat="45.87661" lon="4.6838">
        <ele>367.00876</ele>
        <time>2022-06-18T09:39:10.000Z</time>
      </trkpt>
      <trkpt lat="45.87654" lon="4.68379">
        <ele>366.86406</ele>
        <time>2022-06-18T09:39:11.000Z</time>
      </trkpt>
      <trkpt lat="45.87649" lon="4.68379">
        <ele>366.80105</ele>
        <time>2022-06-18T09:39:12.000Z</time>
      </trkpt>
      <trkpt lat="45.87645" lon="4.68381">
        <ele>366.56404</ele>
        <time>2022-06-18T09:39:13.000Z</time>
      </trkpt>
      <trkpt lat="45.87639" lon="4.68383">
        <ele>366.33394</ele>
        <time>2022-06-18T09:39:14.000Z</time>
      </trkpt>
      <trkpt lat="45.87632" lon="4.68385">
        <ele>366.19911</ele>
        <time>2022-06-18T09:39:15.000Z</time>
      </trkpt>
      <trkpt lat="45.87625" lon="4.68388">
        <ele>365.86994</ele>
        <time>2022-06-18T09:39:16.000Z</time>
      </trkpt>
      <trkpt lat="45.87619" lon="4.68389">
        <ele>365.73372</ele>
        <time>2022-06-18T09:39:17.000Z</time>
      </trkpt>
      <trkpt lat="45.87612" lon="4.68389">
        <ele>365.55571</ele>
        <time>2022-06-18T09:39:18.000Z</time>
      </trkpt>
      <trkpt lat="45.87607" lon="4.6839">
        <ele>365.32306</ele>
        <time>2022-06-18T09:39:19.000Z</time>
      </trkpt>
      <trkpt lat="45.87601" lon="4.68391">
        <ele>365.02831</ele>
        <time>2022-06-18T09:39:20.000Z</time>
      </trkpt>
      <trkpt lat="45.87595" lon="4.68391">
        <ele>364.66575</ele>
        <time>2022-06-18T09:39:21.000Z</time>
      </trkpt>
      <trkpt lat="45.87588" lon="4.68393">
        <ele>364.20398</ele>
        <time>2022-06-18T09:39:22.000Z</time>
      </trkpt>
      <trkpt lat="45.87582" lon="4.68394">
        <ele>363.74328</ele>
        <time>2022-06-18T09:39:23.000Z</time>
      </trkpt>
      <trkpt lat="45.87575" lon="4.68394">
        <ele>363.3821</ele>
        <time>2022-06-18T09:39:24.000Z</time>
      </trkpt>
      <trkpt lat="45.87569" lon="4.68395">
        <ele>363.06279</ele>
        <time>2022-06-18T09:39:25.000Z</time>
      </trkpt>
      <trkpt lat="45.87561" lon="4.68395">
        <ele>362.42447</ele>
        <time>2022-06-18T09:39:26.000Z</time>
      </trkpt>
      <trkpt lat="45.87552" lon="4.68396">
        <ele>361.3801</ele>
        <time>2022-06-18T09:39:27.000Z</time>
      </trkpt>
      <trkpt lat="45.87544" lon="4.68397">
        <ele>360.27358</ele>
        <time>2022-06-18T09:39:28.000Z</time>
      </trkpt>
      <trkpt lat="45.87536" lon="4.68398">
        <ele>359.30162</ele>
        <time>2022-06-18T09:39:29.000Z</time>
      </trkpt>
      <trkpt lat="45.87529" lon="4.68399">
        <ele>358.97304</ele>
        <time>2022-06-18T09:39:30.000Z</time>
      </trkpt>
      <trkpt lat="45.87523" lon="4.68401">
        <ele>358.8373</ele>
        <time>2022-06-18T09:39:31.000Z</time>
      </trkpt>
      <trkpt lat="45.87518" lon="4.68401">
        <ele>358.59821</ele>
        <time>2022-06-18T09:39:32.000Z</time>
      </trkpt>
      <trkpt lat="45.87513" lon="4.68401">
        <ele>358.13246</ele>
        <time>2022-06-18T09:39:33.000Z</time>
      </trkpt>
      <trkpt lat="45.8751" lon="4.68404">
        <ele>358.25954</ele>
        <time>2022-06-18T09:39:34.000Z</time>
      </trkpt>
      <trkpt lat="45.87507" lon="4.68407">
        <ele>358.45315</ele>
        <time>2022-06-18T09:39:35.000Z</time>
      </trkpt>
      <trkpt lat="45.87503" lon="4.6841">
        <ele>358.33665</ele>
        <time>2022-06-18T09:39:36.000Z</time>
      </trkpt>
      <trkpt lat="45.87498" lon="4.68412">
        <ele>358.05395</ele>
        <time>2022-06-18T09:39:37.000Z</time>
      </trkpt>
      <trkpt lat="45.87496" lon="4.68413">
        <ele>357.94269</ele>
        <time>2022-06-18T09:39:38.000Z</time>
      </trkpt>
      <trkpt lat="45.87494" lon="4.68413">
        <ele>357.60858</ele>
        <time>2022-06-18T09:39:46.000Z</time>
      </trkpt>
      <trkpt lat="45.87493" lon="4.68415">
        <ele>357.83484</ele>
        <time>2022-06-18T09:39:54.000Z</time>
      </trkpt>
      <trkpt lat="45.87492" lon="4.68417">
        <ele>358.11564</ele>
        <time>2022-06-18T09:39:58.000Z</time>
      </trkpt>
      <trkpt lat="45.87495" lon="4.68421">
        <ele>358.84277</ele>
        <time>2022-06-18T09:40:30.000Z</time>
      </trkpt>
      <trkpt lat="45.87495" lon="4.68425">
        <ele>359.27538</ele>
        <time>2022-06-18T09:40:33.000Z</time>
      </trkpt>
      <trkpt lat="45.87495" lon="4.68428">
        <ele>359.56236</ele>
        <time>2022-06-18T09:40:35.000Z</time>
      </trkpt>
      <trkpt lat="45.87496" lon="4.68432">
        <ele>359.7896</ele>
        <time>2022-06-18T09:40:40.000Z</time>
      </trkpt>
      <trkpt lat="45.87495" lon="4.68435">
        <ele>359.87389</ele>
        <time>2022-06-18T09:41:22.000Z</time>
      </trkpt>
      <trkpt lat="45.87493" lon="4.68434">
        <ele>359.76657</ele>
        <time>2022-06-18T09:44:07.000Z</time>
      </trkpt>
      <trkpt lat="45.87494" lon="4.68431">
        <ele>359.66615</ele>
        <time>2022-06-18T09:44:51.000Z</time>
      </trkpt>
      <trkpt lat="45.87494" lon="4.68428">
        <ele>359.48501</ele>
        <time>2022-06-18T09:44:53.000Z</time>
      </trkpt>
      <trkpt lat="45.87493" lon="4.68425">
        <ele>359.13994</ele>
        <time>2022-06-18T09:44:55.000Z</time>
      </trkpt>
      <trkpt lat="45.87489" lon="4.68427">
        <ele>359.00639</ele>
        <time>2022-06-18T09:44:57.000Z</time>
      </trkpt>
      <trkpt lat="45.87489" lon="4.68427">
        <ele>359.00639</ele>
        <time>2022-06-18T09:44:57.000Z</time>
      </trkpt>
      <trkpt lat="45.87487" lon="4.68429">
        <ele>358.97002</ele>
        <time>2022-06-18T09:44:58.000Z</time>
      </trkpt>
      <trkpt lat="45.87486" lon="4.6843">
        <ele>359.0176</ele>
        <time>2022-06-18T09:44:59.000Z</time>
      </trkpt>
      <trkpt lat="45.87483" lon="4.68432">
        <ele>358.9797</ele>
        <time>2022-06-18T09:45:01.000Z</time>
      </trkpt>
      <trkpt lat="45.87482" lon="4.68434">
        <ele>359.10285</ele>
        <time>2022-06-18T09:45:03.000Z</time>
      </trkpt>
      <trkpt lat="45.87481" lon="4.68438">
        <ele>359.34128</ele>
        <time>2022-06-18T09:45:04.000Z</time>
      </trkpt>
      <trkpt lat="45.87482" lon="4.68441">
        <ele>359.53541</ele>
        <time>2022-06-18T09:45:05.000Z</time>
      </trkpt>
      <trkpt lat="45.87482" lon="4.68445">
        <ele>359.62561</ele>
        <time>2022-06-18T09:45:06.000Z</time>
      </trkpt>
      <trkpt lat="45.87483" lon="4.6845">
        <ele>359.49418</ele>
        <time>2022-06-18T09:45:07.000Z</time>
      </trkpt>
      <trkpt lat="45.87483" lon="4.68454">
        <ele>359.18554</ele>
        <time>2022-06-18T09:45:08.000Z</time>
      </trkpt>
      <trkpt lat="45.8748" lon="4.68458">
        <ele>358.7464</ele>
        <time>2022-06-18T09:45:09.000Z</time>
      </trkpt>
      <trkpt lat="45.87468" lon="4.68455">
        <ele>358.33001</ele>
        <time>2022-06-18T09:45:10.000Z</time>
      </trkpt>
      <trkpt lat="45.87462" lon="4.68457">
        <ele>357.58163</ele>
        <time>2022-06-18T09:45:11.000Z</time>
      </trkpt>
      <trkpt lat="45.87455" lon="4.68458">
        <ele>356.54175</ele>
        <time>2022-06-18T09:45:12.000Z</time>
      </trkpt>
      <trkpt lat="45.87449" lon="4.6846">
        <ele>355.57094</ele>
        <time>2022-06-18T09:45:13.000Z</time>
      </trkpt>
      <trkpt lat="45.87444" lon="4.68462">
        <ele>354.95006</ele>
        <time>2022-06-18T09:45:14.000Z</time>
      </trkpt>
      <trkpt lat="45.87439" lon="4.68462">
        <ele>354.3793</ele>
        <time>2022-06-18T09:45:15.000Z</time>
      </trkpt>
      <trkpt lat="45.87435" lon="4.6846">
        <ele>353.71047</ele>
        <time>2022-06-18T09:45:16.000Z</time>
      </trkpt>
      <trkpt lat="45.8743" lon="4.6846">
        <ele>353.00432</ele>
        <time>2022-06-18T09:45:17.000Z</time>
      </trkpt>
      <trkpt lat="45.87425" lon="4.68463">
        <ele>352.66558</ele>
        <time>2022-06-18T09:45:18.000Z</time>
      </trkpt>
      <trkpt lat="45.8742" lon="4.68468">
        <ele>352.42903</ele>
        <time>2022-06-18T09:45:19.000Z</time>
      </trkpt>
      <trkpt lat="45.87414" lon="4.68473">
        <ele>351.97053</ele>
        <time>2022-06-18T09:45:20.000Z</time>
      </trkpt>
      <trkpt lat="45.87408" lon="4.68476">
        <ele>351.31855</ele>
        <time>2022-06-18T09:45:21.000Z</time>
      </trkpt>
      <trkpt lat="45.87402" lon="4.68477">
        <ele>350.52587</ele>
        <time>2022-06-18T09:45:22.000Z</time>
      </trkpt>
      <trkpt lat="45.87397" lon="4.6848">
        <ele>349.89584</ele>
        <time>2022-06-18T09:45:23.000Z</time>
      </trkpt>
      <trkpt lat="45.87391" lon="4.68484">
        <ele>349.30101</ele>
        <time>2022-06-18T09:45:24.000Z</time>
      </trkpt>
      <trkpt lat="45.87386" lon="4.68486">
        <ele>348.66789</ele>
        <time>2022-06-18T09:45:25.000Z</time>
      </trkpt>
      <trkpt lat="45.8738" lon="4.68488">
        <ele>347.93474</ele>
        <time>2022-06-18T09:45:26.000Z</time>
      </trkpt>
      <trkpt lat="45.87376" lon="4.68491">
        <ele>347.35492</ele>
        <time>2022-06-18T09:45:27.000Z</time>
      </trkpt>
      <trkpt lat="45.87373" lon="4.68492">
        <ele>346.85879</ele>
        <time>2022-06-18T09:45:28.000Z</time>
      </trkpt>
      <trkpt lat="45.8737" lon="4.68496">
        <ele>346.4622</ele>
        <time>2022-06-18T09:45:29.000Z</time>
      </trkpt>
      <trkpt lat="45.8737" lon="4.685">
        <ele>346.61244</ele>
        <time>2022-06-18T09:45:30.000Z</time>
      </trkpt>
      <trkpt lat="45.8737" lon="4.68505">
        <ele>346.62295</ele>
        <time>2022-06-18T09:45:31.000Z</time>
      </trkpt>
      <trkpt lat="45.87368" lon="4.68512">
        <ele>346.22564</ele>
        <time>2022-06-18T09:45:32.000Z</time>
      </trkpt>
      <trkpt lat="45.87365" lon="4.68517">
        <ele>345.5862</ele>
        <time>2022-06-18T09:45:33.000Z</time>
      </trkpt>
      <trkpt lat="45.87362" lon="4.68521">
        <ele>345.0339</ele>
        <time>2022-06-18T09:45:34.000Z</time>
      </trkpt>
      <trkpt lat="45.87361" lon="4.68524">
        <ele>344.55369</ele>
        <time>2022-06-18T09:45:35.000Z</time>
      </trkpt>
      <trkpt lat="45.87359" lon="4.68526">
        <ele>344.25615</ele>
        <time>2022-06-18T09:45:36.000Z</time>
      </trkpt>
      <trkpt lat="45.87359" lon="4.6853">
        <ele>343.89429</ele>
        <time>2022-06-18T09:45:38.000Z</time>
      </trkpt>
      <trkpt lat="45.87358" lon="4.68532">
        <ele>343.58361</ele>
        <time>2022-06-18T09:45:39.000Z</time>
      </trkpt>
      <trkpt lat="45.87357" lon="4.68536">
        <ele>343.21537</ele>
        <time>2022-06-18T09:45:40.000Z</time>
      </trkpt>
      <trkpt lat="45.87356" lon="4.6854">
        <ele>342.78746</ele>
        <time>2022-06-18T09:45:41.000Z</time>
      </trkpt>
      <trkpt lat="45.87355" lon="4.68545">
        <ele>342.23557</ele>
        <time>2022-06-18T09:45:42.000Z</time>
      </trkpt>
      <trkpt lat="45.87354" lon="4.68551">
        <ele>341.56976</ele>
        <time>2022-06-18T09:45:43.000Z</time>
      </trkpt>
      <trkpt lat="45.87354" lon="4.68556">
        <ele>340.93432</ele>
        <time>2022-06-18T09:45:44.000Z</time>
      </trkpt>
      <trkpt lat="45.87353" lon="4.68561">
        <ele>340.30954</ele>
        <time>2022-06-18T09:45:45.000Z</time>
      </trkpt>
      <trkpt lat="45.87354" lon="4.68566">
        <ele>339.72483</ele>
        <time>2022-06-18T09:45:46.000Z</time>
      </trkpt>
      <trkpt lat="45.87355" lon="4.68572">
        <ele>339.1702</ele>
        <time>2022-06-18T09:45:47.000Z</time>
      </trkpt>
      <trkpt lat="45.87358" lon="4.68578">
        <ele>338.58597</ele>
        <time>2022-06-18T09:45:48.000Z</time>
      </trkpt>
      <trkpt lat="45.8736" lon="4.68583">
        <ele>338.0769</ele>
        <time>2022-06-18T09:45:49.000Z</time>
      </trkpt>
      <trkpt lat="45.87363" lon="4.68588">
        <ele>337.58932</ele>
        <time>2022-06-18T09:45:50.000Z</time>
      </trkpt>
      <trkpt lat="45.87365" lon="4.68592">
        <ele>337.09842</ele>
        <time>2022-06-18T09:45:51.000Z</time>
      </trkpt>
      <trkpt lat="45.87367" lon="4.68597">
        <ele>336.59986</ele>
        <time>2022-06-18T09:45:52.000Z</time>
      </trkpt>
      <trkpt lat="45.87388" lon="4.68626">
        <ele>332.35268</ele>
        <time>2022-06-18T09:45:58.000Z</time>
      </trkpt>
      <trkpt lat="45.8739" lon="4.6863">
        <ele>331.58511</ele>
        <time>2022-06-18T09:45:59.000Z</time>
      </trkpt>
      <trkpt lat="45.87392" lon="4.68628">
        <ele>331.96548</ele>
        <time>2022-06-18T09:46:00.000Z</time>
      </trkpt>
      <trkpt lat="45.87395" lon="4.68633">
        <ele>331.18285</ele>
        <time>2022-06-18T09:46:01.000Z</time>
      </trkpt>
      <trkpt lat="45.87398" lon="4.68637">
        <ele>330.40378</ele>
        <time>2022-06-18T09:46:02.000Z</time>
      </trkpt>
      <trkpt lat="45.87401" lon="4.68642">
        <ele>329.66939</ele>
        <time>2022-06-18T09:46:04.000Z</time>
      </trkpt>
      <trkpt lat="45.87405" lon="4.68643">
        <ele>329.4903</ele>
        <time>2022-06-18T09:46:05.000Z</time>
      </trkpt>
      <trkpt lat="45.87407" lon="4.68646">
        <ele>329.11425</ele>
        <time>2022-06-18T09:46:06.000Z</time>
      </trkpt>
      <trkpt lat="45.87409" lon="4.68649">
        <ele>328.51286</ele>
        <time>2022-06-18T09:46:07.000Z</time>
      </trkpt>
      <trkpt lat="45.87409" lon="4.68652">
        <ele>328.15411</ele>
        <time>2022-06-18T09:46:08.000Z</time>
      </trkpt>
      <trkpt lat="45.87411" lon="4.68656">
        <ele>327.51337</ele>
        <time>2022-06-18T09:46:09.000Z</time>
      </trkpt>
      <trkpt lat="45.87413" lon="4.68658">
        <ele>327.15635</ele>
        <time>2022-06-18T09:46:11.000Z</time>
      </trkpt>
      <trkpt lat="45.87412" lon="4.68662">
        <ele>326.62016</ele>
        <time>2022-06-18T09:46:15.000Z</time>
      </trkpt>
      <trkpt lat="45.87412" lon="4.68666">
        <ele>326.13542</ele>
        <time>2022-06-18T09:46:17.000Z</time>
      </trkpt>
      <trkpt lat="45.87409" lon="4.68668">
        <ele>325.84751</ele>
        <time>2022-06-18T09:46:19.000Z</time>
      </trkpt>
      <trkpt lat="45.87408" lon="4.68671">
        <ele>325.45031</ele>
        <time>2022-06-18T09:46:48.000Z</time>
      </trkpt>
      <trkpt lat="45.87408" lon="4.68676">
        <ele>324.87322</ele>
        <time>2022-06-18T09:46:49.000Z</time>
      </trkpt>
      <trkpt lat="45.87408" lon="4.68681">
        <ele>324.33632</ele>
        <time>2022-06-18T09:46:50.000Z</time>
      </trkpt>
      <trkpt lat="45.87409" lon="4.68688">
        <ele>323.65456</ele>
        <time>2022-06-18T09:46:51.000Z</time>
      </trkpt>
      <trkpt lat="45.87412" lon="4.68701">
        <ele>322.19386</ele>
        <time>2022-06-18T09:46:52.000Z</time>
      </trkpt>
      <trkpt lat="45.87412" lon="4.68709">
        <ele>321.17295</ele>
        <time>2022-06-18T09:46:53.000Z</time>
      </trkpt>
      <trkpt lat="45.87412" lon="4.68719">
        <ele>319.96698</ele>
        <time>2022-06-18T09:46:54.000Z</time>
      </trkpt>
      <trkpt lat="45.87412" lon="4.68731">
        <ele>318.53586</ele>
        <time>2022-06-18T09:46:55.000Z</time>
      </trkpt>
      <trkpt lat="45.87413" lon="4.68744">
        <ele>317.12814</ele>
        <time>2022-06-18T09:46:56.000Z</time>
      </trkpt>
      <trkpt lat="45.87415" lon="4.68759">
        <ele>315.61278</ele>
        <time>2022-06-18T09:46:57.000Z</time>
      </trkpt>
      <trkpt lat="45.87417" lon="4.68772">
        <ele>314.2491</ele>
        <time>2022-06-18T09:46:58.000Z</time>
      </trkpt>
      <trkpt lat="45.87419" lon="4.68786">
        <ele>312.81618</ele>
        <time>2022-06-18T09:46:59.000Z</time>
      </trkpt>
      <trkpt lat="45.87421" lon="4.688">
        <ele>311.19072</ele>
        <time>2022-06-18T09:47:00.000Z</time>
      </trkpt>
      <trkpt lat="45.87423" lon="4.68815">
        <ele>309.41335</ele>
        <time>2022-06-18T09:47:01.000Z</time>
      </trkpt>
      <trkpt lat="45.87425" lon="4.68832">
        <ele>307.57447</ele>
        <time>2022-06-18T09:47:02.000Z</time>
      </trkpt>
      <trkpt lat="45.87426" lon="4.68848">
        <ele>306.14555</ele>
        <time>2022-06-18T09:47:03.000Z</time>
      </trkpt>
      <trkpt lat="45.8743" lon="4.68867">
        <ele>304.66805</ele>
        <time>2022-06-18T09:47:04.000Z</time>
      </trkpt>
      <trkpt lat="45.87431" lon="4.68881">
        <ele>303.68</ele>
        <time>2022-06-18T09:47:05.000Z</time>
      </trkpt>
      <trkpt lat="45.87435" lon="4.68897">
        <ele>302.5477</ele>
        <time>2022-06-18T09:47:06.000Z</time>
      </trkpt>
      <trkpt lat="45.87437" lon="4.68911">
        <ele>301.47307</ele>
        <time>2022-06-18T09:47:07.000Z</time>
      </trkpt>
      <trkpt lat="45.87434" lon="4.68929">
        <ele>300.04527</ele>
        <time>2022-06-18T09:47:08.000Z</time>
      </trkpt>
      <trkpt lat="45.87433" lon="4.68942">
        <ele>298.92891</ele>
        <time>2022-06-18T09:47:09.000Z</time>
      </trkpt>
      <trkpt lat="45.87434" lon="4.68957">
        <ele>297.66429</ele>
        <time>2022-06-18T09:47:10.000Z</time>
      </trkpt>
      <trkpt lat="45.87436" lon="4.68975">
        <ele>296.35162</ele>
        <time>2022-06-18T09:47:11.000Z</time>
      </trkpt>
      <trkpt lat="45.87439" lon="4.68978">
        <ele>296.15591</ele>
        <time>2022-06-18T09:47:12.000Z</time>
      </trkpt>
      <trkpt lat="45.8744" lon="4.68985">
        <ele>295.66684</ele>
        <time>2022-06-18T09:47:13.000Z</time>
      </trkpt>
      <trkpt lat="45.87442" lon="4.68993">
        <ele>295.14713</ele>
        <time>2022-06-18T09:47:14.000Z</time>
      </trkpt>
      <trkpt lat="45.87445" lon="4.69001">
        <ele>294.62684</ele>
        <time>2022-06-18T09:47:15.000Z</time>
      </trkpt>
      <trkpt lat="45.87448" lon="4.69007">
        <ele>294.22921</ele>
        <time>2022-06-18T09:47:16.000Z</time>
      </trkpt>
      <trkpt lat="45.87446" lon="4.69004">
        <ele>294.43323</ele>
        <time>2022-06-18T09:47:17.000Z</time>
      </trkpt>
      <trkpt lat="45.87444" lon="4.69007">
        <ele>294.15606</ele>
        <time>2022-06-18T09:47:21.000Z</time>
      </trkpt>
      <trkpt lat="45.87443" lon="4.69008">
        <ele>294.08605</ele>
        <time>2022-06-18T09:47:22.000Z</time>
      </trkpt>
      <trkpt lat="45.87445" lon="4.69006">
        <ele>294.24487</ele>
        <time>2022-06-18T09:47:23.000Z</time>
      </trkpt>
      <trkpt lat="45.87441" lon="4.6901">
        <ele>293.99932</ele>
        <time>2022-06-18T09:47:24.000Z</time>
      </trkpt>
      <trkpt lat="45.87443" lon="4.69007">
        <ele>294.17931</ele>
        <time>2022-06-18T09:47:25.000Z</time>
      </trkpt>
      <trkpt lat="45.87445" lon="4.69009">
        <ele>294.0441</ele>
        <time>2022-06-18T09:47:30.000Z</time>
      </trkpt>
      <trkpt lat="45.87445" lon="4.69012">
        <ele>293.81851</ele>
        <time>2022-06-18T09:47:31.000Z</time>
      </trkpt>
      <trkpt lat="45.87446" lon="4.69017">
        <ele>293.46138</ele>
        <time>2022-06-18T09:47:32.000Z</time>
      </trkpt>
      <trkpt lat="45.87449" lon="4.69027">
        <ele>292.7892</ele>
        <time>2022-06-18T09:47:33.000Z</time>
      </trkpt>
      <trkpt lat="45.8745" lon="4.69033">
        <ele>292.29187</ele>
        <time>2022-06-18T09:47:34.000Z</time>
      </trkpt>
      <trkpt lat="45.87452" lon="4.69041">
        <ele>291.76297</ele>
        <time>2022-06-18T09:47:35.000Z</time>
      </trkpt>
      <trkpt lat="45.87453" lon="4.6905">
        <ele>291.12194</ele>
        <time>2022-06-18T09:47:36.000Z</time>
      </trkpt>
      <trkpt lat="45.87455" lon="4.69058">
        <ele>290.51192</ele>
        <time>2022-06-18T09:47:37.000Z</time>
      </trkpt>
      <trkpt lat="45.87456" lon="4.69067">
        <ele>289.93291</ele>
        <time>2022-06-18T09:47:38.000Z</time>
      </trkpt>
      <trkpt lat="45.87458" lon="4.69077">
        <ele>289.22205</ele>
        <time>2022-06-18T09:47:39.000Z</time>
      </trkpt>
      <trkpt lat="45.8746" lon="4.69089">
        <ele>288.3685</ele>
        <time>2022-06-18T09:47:40.000Z</time>
      </trkpt>
      <trkpt lat="45.87462" lon="4.691">
        <ele>287.60335</ele>
        <time>2022-06-18T09:47:41.000Z</time>
      </trkpt>
      <trkpt lat="45.87464" lon="4.69112">
        <ele>286.76104</ele>
        <time>2022-06-18T09:47:42.000Z</time>
      </trkpt>
      <trkpt lat="45.87465" lon="4.69126">
        <ele>285.83482</ele>
        <time>2022-06-18T09:47:43.000Z</time>
      </trkpt>
      <trkpt lat="45.87468" lon="4.69137">
        <ele>285.01631</ele>
        <time>2022-06-18T09:47:44.000Z</time>
      </trkpt>
      <trkpt lat="45.87469" lon="4.69149">
        <ele>284.21058</ele>
        <time>2022-06-18T09:47:45.000Z</time>
      </trkpt>
      <trkpt lat="45.87469" lon="4.69164">
        <ele>283.18839</ele>
        <time>2022-06-18T09:47:46.000Z</time>
      </trkpt>
      <trkpt lat="45.87469" lon="4.69174">
        <ele>282.45134</ele>
        <time>2022-06-18T09:47:47.000Z</time>
      </trkpt>
      <trkpt lat="45.87468" lon="4.69184">
        <ele>281.77348</ele>
        <time>2022-06-18T09:47:48.000Z</time>
      </trkpt>
      <trkpt lat="45.87469" lon="4.69194">
        <ele>281.00167</ele>
        <time>2022-06-18T09:47:49.000Z</time>
      </trkpt>
      <trkpt lat="45.87474" lon="4.69202">
        <ele>280.34045</ele>
        <time>2022-06-18T09:47:50.000Z</time>
      </trkpt>
      <trkpt lat="45.87477" lon="4.69212">
        <ele>279.57666</ele>
        <time>2022-06-18T09:47:51.000Z</time>
      </trkpt>
      <trkpt lat="45.87483" lon="4.69222">
        <ele>278.76156</ele>
        <time>2022-06-18T09:47:52.000Z</time>
      </trkpt>
      <trkpt lat="45.87488" lon="4.69231">
        <ele>277.85188</ele>
        <time>2022-06-18T09:47:53.000Z</time>
      </trkpt>
      <trkpt lat="45.87494" lon="4.6924">
        <ele>276.98505</ele>
        <time>2022-06-18T09:47:54.000Z</time>
      </trkpt>
      <trkpt lat="45.87495" lon="4.69253">
        <ele>276.03077</ele>
        <time>2022-06-18T09:47:55.000Z</time>
      </trkpt>
      <trkpt lat="45.87496" lon="4.69267">
        <ele>275.03869</ele>
        <time>2022-06-18T09:47:56.000Z</time>
      </trkpt>
      <trkpt lat="45.87494" lon="4.6928">
        <ele>274.11504</ele>
        <time>2022-06-18T09:47:57.000Z</time>
      </trkpt>
      <trkpt lat="45.87492" lon="4.69296">
        <ele>273.03559</ele>
        <time>2022-06-18T09:47:58.000Z</time>
      </trkpt>
      <trkpt lat="45.87492" lon="4.69312">
        <ele>271.87562</ele>
        <time>2022-06-18T09:47:59.000Z</time>
      </trkpt>
      <trkpt lat="45.87492" lon="4.69328">
        <ele>270.53762</ele>
        <time>2022-06-18T09:48:00.000Z</time>
      </trkpt>
      <trkpt lat="45.87493" lon="4.69341">
        <ele>269.49601</ele>
        <time>2022-06-18T09:48:01.000Z</time>
      </trkpt>
      <trkpt lat="45.87495" lon="4.69353">
        <ele>268.59372</ele>
        <time>2022-06-18T09:48:02.000Z</time>
      </trkpt>
      <trkpt lat="45.87496" lon="4.69363">
        <ele>267.90734</ele>
        <time>2022-06-18T09:48:03.000Z</time>
      </trkpt>
      <trkpt lat="45.87497" lon="4.69373">
        <ele>267.25915</ele>
        <time>2022-06-18T09:48:04.000Z</time>
      </trkpt>
      <trkpt lat="45.87499" lon="4.69382">
        <ele>266.58863</ele>
        <time>2022-06-18T09:48:05.000Z</time>
      </trkpt>
      <trkpt lat="45.87499" lon="4.6939">
        <ele>266.09887</ele>
        <time>2022-06-18T09:48:06.000Z</time>
      </trkpt>
      <trkpt lat="45.875" lon="4.69396">
        <ele>265.69887</ele>
        <time>2022-06-18T09:48:07.000Z</time>
      </trkpt>
      <trkpt lat="45.87502" lon="4.69398">
        <ele>265.53533</ele>
        <time>2022-06-18T09:48:08.000Z</time>
      </trkpt>
      <trkpt lat="45.87503" lon="4.69399">
        <ele>265.46276</ele>
        <time>2022-06-18T09:48:09.000Z</time>
      </trkpt>
      <trkpt lat="45.87504" lon="4.69403">
        <ele>265.26859</ele>
        <time>2022-06-18T09:48:11.000Z</time>
      </trkpt>
      <trkpt lat="45.87505" lon="4.69406">
        <ele>265.04941</ele>
        <time>2022-06-18T09:48:12.000Z</time>
      </trkpt>
      <trkpt lat="45.87506" lon="4.69411">
        <ele>264.74014</ele>
        <time>2022-06-18T09:48:13.000Z</time>
      </trkpt>
      <trkpt lat="45.87506" lon="4.69417">
        <ele>264.32127</ele>
        <time>2022-06-18T09:48:14.000Z</time>
      </trkpt>
      <trkpt lat="45.87508" lon="4.69422">
        <ele>263.89907</ele>
        <time>2022-06-18T09:48:15.000Z</time>
      </trkpt>
      <trkpt lat="45.8751" lon="4.69426">
        <ele>263.51631</ele>
        <time>2022-06-18T09:48:16.000Z</time>
      </trkpt>
      <trkpt lat="45.87512" lon="4.69432">
        <ele>262.90418</ele>
        <time>2022-06-18T09:48:17.000Z</time>
      </trkpt>
      <trkpt lat="45.87516" lon="4.69446">
        <ele>261.70686</ele>
        <time>2022-06-18T09:48:18.000Z</time>
      </trkpt>
      <trkpt lat="45.87519" lon="4.6945">
        <ele>261.39447</ele>
        <time>2022-06-18T09:48:19.000Z</time>
      </trkpt>
      <trkpt lat="45.87524" lon="4.69461">
        <ele>260.80449</ele>
        <time>2022-06-18T09:48:20.000Z</time>
      </trkpt>
      <trkpt lat="45.87528" lon="4.69472">
        <ele>260.30148</ele>
        <time>2022-06-18T09:48:21.000Z</time>
      </trkpt>
      <trkpt lat="45.87528" lon="4.69477">
        <ele>260.04134</ele>
        <time>2022-06-18T09:48:22.000Z</time>
      </trkpt>
      <trkpt lat="45.87531" lon="4.69487">
        <ele>259.59084</ele>
        <time>2022-06-18T09:48:23.000Z</time>
      </trkpt>
      <trkpt lat="45.87534" lon="4.69491">
        <ele>259.48224</ele>
        <time>2022-06-18T09:48:24.000Z</time>
      </trkpt>
      <trkpt lat="45.87537" lon="4.69511">
        <ele>258.5538</ele>
        <time>2022-06-18T09:48:25.000Z</time>
      </trkpt>
      <trkpt lat="45.8754" lon="4.69517">
        <ele>258.43574</ele>
        <time>2022-06-18T09:48:26.000Z</time>
      </trkpt>
      <trkpt lat="45.87542" lon="4.69525">
        <ele>258.19026</ele>
        <time>2022-06-18T09:48:27.000Z</time>
      </trkpt>
      <trkpt lat="45.87545" lon="4.69534">
        <ele>257.89752</ele>
        <time>2022-06-18T09:48:28.000Z</time>
      </trkpt>
      <trkpt lat="45.87548" lon="4.69544">
        <ele>257.58511</ele>
        <time>2022-06-18T09:48:29.000Z</time>
      </trkpt>
      <trkpt lat="45.87549" lon="4.69553">
        <ele>257.31305</ele>
        <time>2022-06-18T09:48:30.000Z</time>
      </trkpt>
      <trkpt lat="45.87551" lon="4.69564">
        <ele>257.05132</ele>
        <time>2022-06-18T09:48:31.000Z</time>
      </trkpt>
      <trkpt lat="45.87552" lon="4.69573">
        <ele>256.77593</ele>
        <time>2022-06-18T09:48:32.000Z</time>
      </trkpt>
      <trkpt lat="45.87552" lon="4.69583">
        <ele>256.36557</ele>
        <time>2022-06-18T09:48:33.000Z</time>
      </trkpt>
      <trkpt lat="45.87553" lon="4.69593">
        <ele>255.96406</ele>
        <time>2022-06-18T09:48:34.000Z</time>
      </trkpt>
      <trkpt lat="45.87554" lon="4.69601">
        <ele>255.68903</ele>
        <time>2022-06-18T09:48:35.000Z</time>
      </trkpt>
      <trkpt lat="45.87555" lon="4.69609">
        <ele>255.51732</ele>
        <time>2022-06-18T09:48:36.000Z</time>
      </trkpt>
      <trkpt lat="45.87555" lon="4.6962">
        <ele>255.30527</ele>
        <time>2022-06-18T09:48:37.000Z</time>
      </trkpt>
      <trkpt lat="45.87553" lon="4.69629">
        <ele>255.12294</ele>
        <time>2022-06-18T09:48:38.000Z</time>
      </trkpt>
      <trkpt lat="45.87553" lon="4.69635">
        <ele>255.09397</ele>
        <time>2022-06-18T09:48:39.000Z</time>
      </trkpt>
      <trkpt lat="45.87552" lon="4.69643">
        <ele>254.99547</ele>
        <time>2022-06-18T09:48:40.000Z</time>
      </trkpt>
      <trkpt lat="45.87551" lon="4.69651">
        <ele>254.93516</ele>
        <time>2022-06-18T09:48:41.000Z</time>
      </trkpt>
      <trkpt lat="45.87551" lon="4.6966">
        <ele>254.93643</ele>
        <time>2022-06-18T09:48:42.000Z</time>
      </trkpt>
      <trkpt lat="45.87549" lon="4.69669">
        <ele>254.88851</ele>
        <time>2022-06-18T09:48:43.000Z</time>
      </trkpt>
      <trkpt lat="45.87545" lon="4.69683">
        <ele>254.69669</ele>
        <time>2022-06-18T09:48:44.000Z</time>
      </trkpt>
      <trkpt lat="45.87547" lon="4.6969">
        <ele>254.59165</ele>
        <time>2022-06-18T09:48:45.000Z</time>
      </trkpt>
      <trkpt lat="45.87546" lon="4.697">
        <ele>254.41068</ele>
        <time>2022-06-18T09:48:46.000Z</time>
      </trkpt>
      <trkpt lat="45.87546" lon="4.69709">
        <ele>254.24417</ele>
        <time>2022-06-18T09:48:47.000Z</time>
      </trkpt>
      <trkpt lat="45.87547" lon="4.69718">
        <ele>254.1027</ele>
        <time>2022-06-18T09:48:48.000Z</time>
      </trkpt>
      <trkpt lat="45.87547" lon="4.69727">
        <ele>253.91652</ele>
        <time>2022-06-18T09:48:49.000Z</time>
      </trkpt>
      <trkpt lat="45.87546" lon="4.69736">
        <ele>253.67579</ele>
        <time>2022-06-18T09:48:50.000Z</time>
      </trkpt>
      <trkpt lat="45.87547" lon="4.69746">
        <ele>253.43886</ele>
        <time>2022-06-18T09:48:51.000Z</time>
      </trkpt>
      <trkpt lat="45.87549" lon="4.6975">
        <ele>253.3046</ele>
        <time>2022-06-18T09:48:52.000Z</time>
      </trkpt>
      <trkpt lat="45.87551" lon="4.69753">
        <ele>253.22793</ele>
        <time>2022-06-18T09:48:53.000Z</time>
      </trkpt>
      <trkpt lat="45.87552" lon="4.69758">
        <ele>253.02377</ele>
        <time>2022-06-18T09:48:55.000Z</time>
      </trkpt>
      <trkpt lat="45.87552" lon="4.69764">
        <ele>252.72687</ele>
        <time>2022-06-18T09:48:57.000Z</time>
      </trkpt>
      <trkpt lat="45.87552" lon="4.69768">
        <ele>252.47593</ele>
        <time>2022-06-18T09:48:58.000Z</time>
      </trkpt>
      <trkpt lat="45.87552" lon="4.69773">
        <ele>252.12506</ele>
        <time>2022-06-18T09:48:59.000Z</time>
      </trkpt>
      <trkpt lat="45.87555" lon="4.69778">
        <ele>251.74402</ele>
        <time>2022-06-18T09:49:00.000Z</time>
      </trkpt>
      <trkpt lat="45.87555" lon="4.69784">
        <ele>251.21629</ele>
        <time>2022-06-18T09:49:01.000Z</time>
      </trkpt>
      <trkpt lat="45.87558" lon="4.69789">
        <ele>250.66931</ele>
        <time>2022-06-18T09:49:02.000Z</time>
      </trkpt>
      <trkpt lat="45.8756" lon="4.69796">
        <ele>249.81806</ele>
        <time>2022-06-18T09:49:03.000Z</time>
      </trkpt>
      <trkpt lat="45.87562" lon="4.69803">
        <ele>248.99258</ele>
        <time>2022-06-18T09:49:04.000Z</time>
      </trkpt>
      <trkpt lat="45.87565" lon="4.6981">
        <ele>248.05541</ele>
        <time>2022-06-18T09:49:05.000Z</time>
      </trkpt>
      <trkpt lat="45.87566" lon="4.69817">
        <ele>247.08319</ele>
        <time>2022-06-18T09:49:06.000Z</time>
      </trkpt>
      <trkpt lat="45.87568" lon="4.69825">
        <ele>245.89588</ele>
        <time>2022-06-18T09:49:07.000Z</time>
      </trkpt>
      <trkpt lat="45.87568" lon="4.69839">
        <ele>244.10667</ele>
        <time>2022-06-18T09:49:08.000Z</time>
      </trkpt>
      <trkpt lat="45.8757" lon="4.6985">
        <ele>242.7706</ele>
        <time>2022-06-18T09:49:09.000Z</time>
      </trkpt>
      <trkpt lat="45.87573" lon="4.69859">
        <ele>241.73509</ele>
        <time>2022-06-18T09:49:10.000Z</time>
      </trkpt>
      <trkpt lat="45.87576" lon="4.6987">
        <ele>240.47725</ele>
        <time>2022-06-18T09:49:11.000Z</time>
      </trkpt>
      <trkpt lat="45.87578" lon="4.69879">
        <ele>239.39218</ele>
        <time>2022-06-18T09:49:12.000Z</time>
      </trkpt>
      <trkpt lat="45.87581" lon="4.69885">
        <ele>238.73782</ele>
        <time>2022-06-18T09:49:13.000Z</time>
      </trkpt>
      <trkpt lat="45.87582" lon="4.69889">
        <ele>238.16001</ele>
        <time>2022-06-18T09:49:14.000Z</time>
      </trkpt>
      <trkpt lat="45.87583" lon="4.69893">
        <ele>237.67982</ele>
        <time>2022-06-18T09:49:15.000Z</time>
      </trkpt>
      <trkpt lat="45.87584" lon="4.69897">
        <ele>237.2411</ele>
        <time>2022-06-18T09:49:17.000Z</time>
      </trkpt>
      <trkpt lat="45.87585" lon="4.69899">
        <ele>236.94115</ele>
        <time>2022-06-18T09:49:18.000Z</time>
      </trkpt>
      <trkpt lat="45.87586" lon="4.69901">
        <ele>236.69005</ele>
        <time>2022-06-18T09:49:21.000Z</time>
      </trkpt>
      <trkpt lat="45.87584" lon="4.69902">
        <ele>236.5575</ele>
        <time>2022-06-18T09:49:28.000Z</time>
      </trkpt>
      <trkpt lat="45.87582" lon="4.69904">
        <ele>236.31438</ele>
        <time>2022-06-18T09:49:29.000Z</time>
      </trkpt>
      <trkpt lat="45.87579" lon="4.69906">
        <ele>236.08637</ele>
        <time>2022-06-18T09:49:30.000Z</time>
      </trkpt>
      <trkpt lat="45.87577" lon="4.69907">
        <ele>235.9276</ele>
        <time>2022-06-18T09:49:34.000Z</time>
      </trkpt>
      <trkpt lat="45.87576" lon="4.69911">
        <ele>235.47963</ele>
        <time>2022-06-18T09:49:35.000Z</time>
      </trkpt>
      <trkpt lat="45.87575" lon="4.69918">
        <ele>234.70921</ele>
        <time>2022-06-18T09:49:36.000Z</time>
      </trkpt>
      <trkpt lat="45.87574" lon="4.69932">
        <ele>232.98149</ele>
        <time>2022-06-18T09:49:37.000Z</time>
      </trkpt>
      <trkpt lat="45.8757" lon="4.69938">
        <ele>232.21931</ele>
        <time>2022-06-18T09:49:38.000Z</time>
      </trkpt>
      <trkpt lat="45.87572" lon="4.69941">
        <ele>231.89385</ele>
        <time>2022-06-18T09:49:39.000Z</time>
      </trkpt>
      <trkpt lat="45.87573" lon="4.69945">
        <ele>231.23957</ele>
        <time>2022-06-18T09:49:41.000Z</time>
      </trkpt>
      <trkpt lat="45.87574" lon="4.69949">
        <ele>230.64693</ele>
        <time>2022-06-18T09:49:42.000Z</time>
      </trkpt>
      <trkpt lat="45.87574" lon="4.69953">
        <ele>230.16782</ele>
        <time>2022-06-18T09:49:43.000Z</time>
      </trkpt>
      <trkpt lat="45.87572" lon="4.69959">
        <ele>229.4022</ele>
        <time>2022-06-18T09:49:44.000Z</time>
      </trkpt>
      <trkpt lat="45.87572" lon="4.69966">
        <ele>228.57448</ele>
        <time>2022-06-18T09:49:45.000Z</time>
      </trkpt>
      <trkpt lat="45.87572" lon="4.69973">
        <ele>227.88766</ele>
        <time>2022-06-18T09:49:46.000Z</time>
      </trkpt>
      <trkpt lat="45.87569" lon="4.69981">
        <ele>227.01475</ele>
        <time>2022-06-18T09:49:47.000Z</time>
      </trkpt>
      <trkpt lat="45.87566" lon="4.6999">
        <ele>226.23945</ele>
        <time>2022-06-18T09:49:48.000Z</time>
      </trkpt>
      <trkpt lat="45.87563" lon="4.69998">
        <ele>225.57187</ele>
        <time>2022-06-18T09:49:49.000Z</time>
      </trkpt>
      <trkpt lat="45.87562" lon="4.70007">
        <ele>224.98889</ele>
        <time>2022-06-18T09:49:50.000Z</time>
      </trkpt>
      <trkpt lat="45.8756" lon="4.70014">
        <ele>224.6242</ele>
        <time>2022-06-18T09:49:51.000Z</time>
      </trkpt>
      <trkpt lat="45.87559" lon="4.7002">
        <ele>224.32399</ele>
        <time>2022-06-18T09:49:52.000Z</time>
      </trkpt>
      <trkpt lat="45.87558" lon="4.70027">
        <ele>223.98386</ele>
        <time>2022-06-18T09:49:53.000Z</time>
      </trkpt>
      <trkpt lat="45.87556" lon="4.70034">
        <ele>223.54725</ele>
        <time>2022-06-18T09:49:54.000Z</time>
      </trkpt>
      <trkpt lat="45.87553" lon="4.70043">
        <ele>222.83007</ele>
        <time>2022-06-18T09:49:55.000Z</time>
      </trkpt>
      <trkpt lat="45.87551" lon="4.70049">
        <ele>222.32616</ele>
        <time>2022-06-18T09:49:56.000Z</time>
      </trkpt>
      <trkpt lat="45.87547" lon="4.70055">
        <ele>221.71288</ele>
        <time>2022-06-18T09:49:57.000Z</time>
      </trkpt>
      <trkpt lat="45.87545" lon="4.7006">
        <ele>221.30981</ele>
        <time>2022-06-18T09:49:58.000Z</time>
      </trkpt>
      <trkpt lat="45.87543" lon="4.70065">
        <ele>221.04769</ele>
        <time>2022-06-18T09:49:59.000Z</time>
      </trkpt>
      <trkpt lat="45.8754" lon="4.70072">
        <ele>220.8724</ele>
        <time>2022-06-18T09:50:00.000Z</time>
      </trkpt>
      <trkpt lat="45.87536" lon="4.7008">
        <ele>220.83282</ele>
        <time>2022-06-18T09:50:01.000Z</time>
      </trkpt>
      <trkpt lat="45.87534" lon="4.70089">
        <ele>220.72089</ele>
        <time>2022-06-18T09:50:02.000Z</time>
      </trkpt>
      <trkpt lat="45.87531" lon="4.70097">
        <ele>220.31711</ele>
        <time>2022-06-18T09:50:03.000Z</time>
      </trkpt>
      <trkpt lat="45.8753" lon="4.70106">
        <ele>219.74089</ele>
        <time>2022-06-18T09:50:04.000Z</time>
      </trkpt>
      <trkpt lat="45.87528" lon="4.70113">
        <ele>219.30659</ele>
        <time>2022-06-18T09:50:05.000Z</time>
      </trkpt>
      <trkpt lat="45.87525" lon="4.70121">
        <ele>218.99733</ele>
        <time>2022-06-18T09:50:06.000Z</time>
      </trkpt>
      <trkpt lat="45.87523" lon="4.70128">
        <ele>218.84916</ele>
        <time>2022-06-18T09:50:07.000Z</time>
      </trkpt>
      <trkpt lat="45.8752" lon="4.70135">
        <ele>218.74634</ele>
        <time>2022-06-18T09:50:08.000Z</time>
      </trkpt>
      <trkpt lat="45.87516" lon="4.70143">
        <ele>218.63774</ele>
        <time>2022-06-18T09:50:09.000Z</time>
      </trkpt>
      <trkpt lat="45.87515" lon="4.7015">
        <ele>218.52764</ele>
        <time>2022-06-18T09:50:10.000Z</time>
      </trkpt>
      <trkpt lat="45.87513" lon="4.70159">
        <ele>218.40474</ele>
        <time>2022-06-18T09:50:11.000Z</time>
      </trkpt>
      <trkpt lat="45.87509" lon="4.70168">
        <ele>218.20535</ele>
        <time>2022-06-18T09:50:12.000Z</time>
      </trkpt>
      <trkpt lat="45.87507" lon="4.70176">
        <ele>218.0012</ele>
        <time>2022-06-18T09:50:13.000Z</time>
      </trkpt>
      <trkpt lat="45.87504" lon="4.70184">
        <ele>217.82631</ele>
        <time>2022-06-18T09:50:14.000Z</time>
      </trkpt>
      <trkpt lat="45.87503" lon="4.70193">
        <ele>217.75043</ele>
        <time>2022-06-18T09:50:15.000Z</time>
      </trkpt>
      <trkpt lat="45.87501" lon="4.702">
        <ele>217.70406</ele>
        <time>2022-06-18T09:50:16.000Z</time>
      </trkpt>
      <trkpt lat="45.87499" lon="4.70208">
        <ele>217.60895</ele>
        <time>2022-06-18T09:50:17.000Z</time>
      </trkpt>
      <trkpt lat="45.87497" lon="4.70216">
        <ele>217.48254</ele>
        <time>2022-06-18T09:50:18.000Z</time>
      </trkpt>
      <trkpt lat="45.87496" lon="4.70225">
        <ele>217.28043</ele>
        <time>2022-06-18T09:50:19.000Z</time>
      </trkpt>
      <trkpt lat="45.87493" lon="4.70233">
        <ele>217.11787</ele>
        <time>2022-06-18T09:50:20.000Z</time>
      </trkpt>
      <trkpt lat="45.87491" lon="4.7024">
        <ele>217.05449</ele>
        <time>2022-06-18T09:50:21.000Z</time>
      </trkpt>
      <trkpt lat="45.8749" lon="4.70249">
        <ele>217.01966</ele>
        <time>2022-06-18T09:50:22.000Z</time>
      </trkpt>
      <trkpt lat="45.87489" lon="4.70256">
        <ele>216.97731</ele>
        <time>2022-06-18T09:50:23.000Z</time>
      </trkpt>
      <trkpt lat="45.87487" lon="4.70264">
        <ele>216.9102</ele>
        <time>2022-06-18T09:50:24.000Z</time>
      </trkpt>
      <trkpt lat="45.87485" lon="4.70271">
        <ele>216.7925</ele>
        <time>2022-06-18T09:50:25.000Z</time>
      </trkpt>
      <trkpt lat="45.87485" lon="4.70279">
        <ele>216.66234</ele>
        <time>2022-06-18T09:50:26.000Z</time>
      </trkpt>
      <trkpt lat="45.87484" lon="4.70286">
        <ele>216.46991</ele>
        <time>2022-06-18T09:50:27.000Z</time>
      </trkpt>
      <trkpt lat="45.87482" lon="4.70293">
        <ele>216.22184</ele>
        <time>2022-06-18T09:50:28.000Z</time>
      </trkpt>
      <trkpt lat="45.87481" lon="4.70298">
        <ele>216.02737</ele>
        <time>2022-06-18T09:50:29.000Z</time>
      </trkpt>
      <trkpt lat="45.87479" lon="4.70303">
        <ele>215.84029</ele>
        <time>2022-06-18T09:50:30.000Z</time>
      </trkpt>
      <trkpt lat="45.87478" lon="4.70308">
        <ele>215.68356</ele>
        <time>2022-06-18T09:50:31.000Z</time>
      </trkpt>
      <trkpt lat="45.87477" lon="4.70314">
        <ele>215.54729</ele>
        <time>2022-06-18T09:50:32.000Z</time>
      </trkpt>
      <trkpt lat="45.87474" lon="4.70321">
        <ele>215.42222</ele>
        <time>2022-06-18T09:50:33.000Z</time>
      </trkpt>
      <trkpt lat="45.87473" lon="4.70328">
        <ele>215.333</ele>
        <time>2022-06-18T09:50:34.000Z</time>
      </trkpt>
      <trkpt lat="45.87473" lon="4.70333">
        <ele>215.29639</ele>
        <time>2022-06-18T09:50:35.000Z</time>
      </trkpt>
      <trkpt lat="45.87471" lon="4.70338">
        <ele>215.24984</ele>
        <time>2022-06-18T09:50:36.000Z</time>
      </trkpt>
      <trkpt lat="45.87468" lon="4.70344">
        <ele>215.17124</ele>
        <time>2022-06-18T09:50:37.000Z</time>
      </trkpt>
      <trkpt lat="45.87465" lon="4.70351">
        <ele>215.11933</ele>
        <time>2022-06-18T09:50:38.000Z</time>
      </trkpt>
      <trkpt lat="45.87462" lon="4.70357">
        <ele>215.10105</ele>
        <time>2022-06-18T09:50:39.000Z</time>
      </trkpt>
      <trkpt lat="45.8746" lon="4.70362">
        <ele>215.1081</ele>
        <time>2022-06-18T09:50:40.000Z</time>
      </trkpt>
      <trkpt lat="45.87458" lon="4.70369">
        <ele>215.10727</ele>
        <time>2022-06-18T09:50:41.000Z</time>
      </trkpt>
      <trkpt lat="45.87457" lon="4.70376">
        <ele>215.08923</ele>
        <time>2022-06-18T09:50:42.000Z</time>
      </trkpt>
      <trkpt lat="45.87456" lon="4.70383">
        <ele>215.01189</ele>
        <time>2022-06-18T09:50:43.000Z</time>
      </trkpt>
      <trkpt lat="45.87456" lon="4.7039">
        <ele>214.9138</ele>
        <time>2022-06-18T09:50:44.000Z</time>
      </trkpt>
      <trkpt lat="45.87456" lon="4.70398">
        <ele>214.78919</ele>
        <time>2022-06-18T09:50:45.000Z</time>
      </trkpt>
      <trkpt lat="45.87457" lon="4.70405">
        <ele>214.67091</ele>
        <time>2022-06-18T09:50:46.000Z</time>
      </trkpt>
      <trkpt lat="45.87454" lon="4.70413">
        <ele>214.51212</ele>
        <time>2022-06-18T09:50:47.000Z</time>
      </trkpt>
      <trkpt lat="45.87453" lon="4.70421">
        <ele>214.43597</ele>
        <time>2022-06-18T09:50:48.000Z</time>
      </trkpt>
      <trkpt lat="45.87451" lon="4.70429">
        <ele>214.33416</ele>
        <time>2022-06-18T09:50:49.000Z</time>
      </trkpt>
      <trkpt lat="45.87448" lon="4.70437">
        <ele>214.13272</ele>
        <time>2022-06-18T09:50:50.000Z</time>
      </trkpt>
      <trkpt lat="45.87445" lon="4.70446">
        <ele>213.6947</ele>
        <time>2022-06-18T09:50:51.000Z</time>
      </trkpt>
      <trkpt lat="45.87443" lon="4.70455">
        <ele>213.05622</ele>
        <time>2022-06-18T09:50:52.000Z</time>
      </trkpt>
      <trkpt lat="45.87443" lon="4.70464">
        <ele>212.46438</ele>
        <time>2022-06-18T09:50:53.000Z</time>
      </trkpt>
      <trkpt lat="45.87439" lon="4.70474">
        <ele>211.77945</ele>
        <time>2022-06-18T09:50:54.000Z</time>
      </trkpt>
      <trkpt lat="45.87438" lon="4.70483">
        <ele>211.38488</ele>
        <time>2022-06-18T09:50:55.000Z</time>
      </trkpt>
      <trkpt lat="45.87437" lon="4.70491">
        <ele>211.1155</ele>
        <time>2022-06-18T09:50:56.000Z</time>
      </trkpt>
      <trkpt lat="45.87434" lon="4.70499">
        <ele>210.83031</ele>
        <time>2022-06-18T09:50:57.000Z</time>
      </trkpt>
      <trkpt lat="45.87433" lon="4.70508">
        <ele>210.46658</ele>
        <time>2022-06-18T09:50:58.000Z</time>
      </trkpt>
      <trkpt lat="45.87431" lon="4.70517">
        <ele>210.04035</ele>
        <time>2022-06-18T09:50:59.000Z</time>
      </trkpt>
      <trkpt lat="45.87428" lon="4.70528">
        <ele>209.40376</ele>
        <time>2022-06-18T09:51:00.000Z</time>
      </trkpt>
      <trkpt lat="45.87427" lon="4.70537">
        <ele>208.979</ele>
        <time>2022-06-18T09:51:01.000Z</time>
      </trkpt>
      <trkpt lat="45.87426" lon="4.70546">
        <ele>208.63151</ele>
        <time>2022-06-18T09:51:02.000Z</time>
      </trkpt>
      <trkpt lat="45.87425" lon="4.70555">
        <ele>208.36354</ele>
        <time>2022-06-18T09:51:03.000Z</time>
      </trkpt>
      <trkpt lat="45.87422" lon="4.70564">
        <ele>208.15056</ele>
        <time>2022-06-18T09:51:04.000Z</time>
      </trkpt>
      <trkpt lat="45.87421" lon="4.7057">
        <ele>208.02465</ele>
        <time>2022-06-18T09:51:05.000Z</time>
      </trkpt>
      <trkpt lat="45.87421" lon="4.70577">
        <ele>207.92137</ele>
        <time>2022-06-18T09:51:06.000Z</time>
      </trkpt>
      <trkpt lat="45.8742" lon="4.70583">
        <ele>207.86294</ele>
        <time>2022-06-18T09:51:07.000Z</time>
      </trkpt>
      <trkpt lat="45.87419" lon="4.70587">
        <ele>207.83873</ele>
        <time>2022-06-18T09:51:09.000Z</time>
      </trkpt>
      <trkpt lat="45.87416" lon="4.70587">
        <ele>207.86538</ele>
        <time>2022-06-18T09:51:11.000Z</time>
      </trkpt>
      <trkpt lat="45.87413" lon="4.70586">
        <ele>207.91354</ele>
        <time>2022-06-18T09:51:12.000Z</time>
      </trkpt>
      <trkpt lat="45.87411" lon="4.70586">
        <ele>207.96577</ele>
        <time>2022-06-18T09:51:13.000Z</time>
      </trkpt>
      <trkpt lat="45.87408" lon="4.70588">
        <ele>208.0453</ele>
        <time>2022-06-18T09:51:14.000Z</time>
      </trkpt>
      <trkpt lat="45.87406" lon="4.70591">
        <ele>208.13626</ele>
        <time>2022-06-18T09:51:15.000Z</time>
      </trkpt>
      <trkpt lat="45.87405" lon="4.70592">
        <ele>208.23464</ele>
        <time>2022-06-18T09:51:16.000Z</time>
      </trkpt>
      <trkpt lat="45.87404" lon="4.70596">
        <ele>208.3067</ele>
        <time>2022-06-18T09:51:17.000Z</time>
      </trkpt>
      <trkpt lat="45.87403" lon="4.70599">
        <ele>208.378</ele>
        <time>2022-06-18T09:51:18.000Z</time>
      </trkpt>
      <trkpt lat="45.87401" lon="4.70602">
        <ele>208.43814</ele>
        <time>2022-06-18T09:51:19.000Z</time>
      </trkpt>
      <trkpt lat="45.874" lon="4.70604">
        <ele>208.46765</ele>
        <time>2022-06-18T09:51:20.000Z</time>
      </trkpt>
      <trkpt lat="45.87399" lon="4.70608">
        <ele>208.42792</ele>
        <time>2022-06-18T09:51:21.000Z</time>
      </trkpt>
      <trkpt lat="45.87399" lon="4.70612">
        <ele>208.32188</ele>
        <time>2022-06-18T09:51:22.000Z</time>
      </trkpt>
      <trkpt lat="45.87397" lon="4.70617">
        <ele>208.17733</ele>
        <time>2022-06-18T09:51:23.000Z</time>
      </trkpt>
      <trkpt lat="45.87396" lon="4.70621">
        <ele>208.01777</ele>
        <time>2022-06-18T09:51:24.000Z</time>
      </trkpt>
      <trkpt lat="45.87394" lon="4.70624">
        <ele>207.8791</ele>
        <time>2022-06-18T09:51:25.000Z</time>
      </trkpt>
      <trkpt lat="45.87392" lon="4.70627">
        <ele>207.72823</ele>
        <time>2022-06-18T09:51:26.000Z</time>
      </trkpt>
      <trkpt lat="45.8739" lon="4.70631">
        <ele>207.57953</ele>
        <time>2022-06-18T09:51:27.000Z</time>
      </trkpt>
      <trkpt lat="45.87389" lon="4.70634">
        <ele>207.49549</ele>
        <time>2022-06-18T09:51:28.000Z</time>
      </trkpt>
      <trkpt lat="45.87387" lon="4.70638">
        <ele>207.46372</ele>
        <time>2022-06-18T09:51:29.000Z</time>
      </trkpt>
      <trkpt lat="45.87385" lon="4.70642">
        <ele>207.46668</ele>
        <time>2022-06-18T09:51:30.000Z</time>
      </trkpt>
      <trkpt lat="45.87384" lon="4.70647">
        <ele>207.49739</ele>
        <time>2022-06-18T09:51:31.000Z</time>
      </trkpt>
      <trkpt lat="45.87383" lon="4.70652">
        <ele>207.52577</ele>
        <time>2022-06-18T09:51:32.000Z</time>
      </trkpt>
      <trkpt lat="45.87384" lon="4.70657">
        <ele>207.53128</ele>
        <time>2022-06-18T09:51:33.000Z</time>
      </trkpt>
      <trkpt lat="45.8739" lon="4.70666">
        <ele>207.4522</ele>
        <time>2022-06-18T09:51:34.000Z</time>
      </trkpt>
      <trkpt lat="45.87391" lon="4.70674">
        <ele>207.32053</ele>
        <time>2022-06-18T09:51:35.000Z</time>
      </trkpt>
      <trkpt lat="45.87393" lon="4.70681">
        <ele>207.22782</ele>
        <time>2022-06-18T09:51:36.000Z</time>
      </trkpt>
      <trkpt lat="45.87395" lon="4.70687">
        <ele>207.18395</ele>
        <time>2022-06-18T09:51:37.000Z</time>
      </trkpt>
      <trkpt lat="45.87397" lon="4.70694">
        <ele>207.18538</ele>
        <time>2022-06-18T09:51:38.000Z</time>
      </trkpt>
      <trkpt lat="45.87398" lon="4.70702">
        <ele>207.19888</ele>
        <time>2022-06-18T09:51:39.000Z</time>
      </trkpt>
      <trkpt lat="45.87399" lon="4.70708">
        <ele>207.29142</ele>
        <time>2022-06-18T09:51:40.000Z</time>
      </trkpt>
      <trkpt lat="45.87401" lon="4.70715">
        <ele>207.37888</ele>
        <time>2022-06-18T09:51:41.000Z</time>
      </trkpt>
      <trkpt lat="45.87401" lon="4.70722">
        <ele>207.38685</ele>
        <time>2022-06-18T09:51:42.000Z</time>
      </trkpt>
      <trkpt lat="45.87402" lon="4.70729">
        <ele>207.41701</ele>
        <time>2022-06-18T09:51:43.000Z</time>
      </trkpt>
      <trkpt lat="45.87404" lon="4.70736">
        <ele>207.47654</ele>
        <time>2022-06-18T09:51:44.000Z</time>
      </trkpt>
      <trkpt lat="45.87406" lon="4.70742">
        <ele>207.54575</ele>
        <time>2022-06-18T09:51:45.000Z</time>
      </trkpt>
      <trkpt lat="45.87407" lon="4.70749">
        <ele>207.57201</ele>
        <time>2022-06-18T09:51:46.000Z</time>
      </trkpt>
      <trkpt lat="45.87407" lon="4.70755">
        <ele>207.56756</ele>
        <time>2022-06-18T09:51:47.000Z</time>
      </trkpt>
      <trkpt lat="45.87409" lon="4.70761">
        <ele>207.54653</ele>
        <time>2022-06-18T09:51:48.000Z</time>
      </trkpt>
      <trkpt lat="45.87411" lon="4.70763">
        <ele>207.71764</ele>
        <time>2022-06-18T09:51:49.000Z</time>
      </trkpt>
      <trkpt lat="45.87416" lon="4.70764">
        <ele>208.07032</ele>
        <time>2022-06-18T09:51:50.000Z</time>
      </trkpt>
      <trkpt lat="45.8742" lon="4.70768">
        <ele>208.42631</ele>
        <time>2022-06-18T09:51:51.000Z</time>
      </trkpt>
      <trkpt lat="45.87423" lon="4.70771">
        <ele>208.71746</ele>
        <time>2022-06-18T09:51:52.000Z</time>
      </trkpt>
      <trkpt lat="45.87426" lon="4.70775">
        <ele>209.03211</ele>
        <time>2022-06-18T09:51:53.000Z</time>
      </trkpt>
      <trkpt lat="45.87429" lon="4.70778">
        <ele>209.27924</ele>
        <time>2022-06-18T09:51:54.000Z</time>
      </trkpt>
      <trkpt lat="45.87432" lon="4.70781">
        <ele>209.49277</ele>
        <time>2022-06-18T09:51:55.000Z</time>
      </trkpt>
      <trkpt lat="45.87434" lon="4.70784">
        <ele>209.60477</ele>
        <time>2022-06-18T09:51:56.000Z</time>
      </trkpt>
      <trkpt lat="45.87434" lon="4.70787">
        <ele>209.54188</ele>
        <time>2022-06-18T09:51:57.000Z</time>
      </trkpt>
      <trkpt lat="45.87431" lon="4.70787">
        <ele>209.17502</ele>
        <time>2022-06-18T09:51:59.000Z</time>
      </trkpt>
      <trkpt lat="45.87428" lon="4.70785">
        <ele>208.91792</ele>
        <time>2022-06-18T09:52:00.000Z</time>
      </trkpt>
      <trkpt lat="45.87427" lon="4.70783">
        <ele>208.86755</ele>
        <time>2022-06-18T09:52:01.000Z</time>
      </trkpt>
      <trkpt lat="45.87426" lon="4.7078">
        <ele>208.88419</ele>
        <time>2022-06-18T09:52:02.000Z</time>
      </trkpt>
      <trkpt lat="45.87426" lon="4.70777">
        <ele>208.94935</ele>
        <time>2022-06-18T09:52:03.000Z</time>
      </trkpt>
      <trkpt lat="45.87425" lon="4.70773">
        <ele>209.00211</ele>
        <time>2022-06-18T09:52:04.000Z</time>
      </trkpt>
      <trkpt lat="45.87425" lon="4.7077">
        <ele>209.07455</ele>
        <time>2022-06-18T09:52:05.000Z</time>
      </trkpt>
      <trkpt lat="45.87425" lon="4.70767">
        <ele>209.09795</ele>
        <time>2022-06-18T09:52:06.000Z</time>
      </trkpt>
      <trkpt lat="45.87423" lon="4.70766">
        <ele>208.83768</ele>
        <time>2022-06-18T09:52:09.000Z</time>
      </trkpt>
      <trkpt lat="45.87421" lon="4.70768">
        <ele>208.56591</ele>
        <time>2022-06-18T09:52:10.000Z</time>
      </trkpt>
      <trkpt lat="45.8742" lon="4.7077">
        <ele>208.37484</ele>
        <time>2022-06-18T09:52:11.000Z</time>
      </trkpt>
      <trkpt lat="45.87419" lon="4.70773">
        <ele>208.20714</ele>
        <time>2022-06-18T09:52:12.000Z</time>
      </trkpt>
      <trkpt lat="45.87419" lon="4.70777">
        <ele>208.10078</ele>
        <time>2022-06-18T09:52:13.000Z</time>
      </trkpt>
      <trkpt lat="45.87419" lon="4.70779">
        <ele>208.08432</ele>
        <time>2022-06-18T09:52:14.000Z</time>
      </trkpt>
      <trkpt lat="45.87422" lon="4.70783">
        <ele>208.26078</ele>
        <time>2022-06-18T09:52:16.000Z</time>
      </trkpt>
      <trkpt lat="45.87424" lon="4.70784">
        <ele>208.5504</ele>
        <time>2022-06-18T09:52:18.000Z</time>
      </trkpt>
      <trkpt lat="45.87425" lon="4.70781">
        <ele>208.71202</ele>
        <time>2022-06-18T09:52:21.000Z</time>
      </trkpt>
      <trkpt lat="45.87425" lon="4.70778">
        <ele>208.8107</ele>
        <time>2022-06-18T09:52:24.000Z</time>
      </trkpt>
      <trkpt lat="45.87424" lon="4.70776">
        <ele>208.76662</ele>
        <time>2022-06-18T09:52:25.000Z</time>
      </trkpt>
      <trkpt lat="45.87422" lon="4.70774">
        <ele>208.60249</ele>
        <time>2022-06-18T09:52:26.000Z</time>
      </trkpt>
      <trkpt lat="45.8742" lon="4.70772">
        <ele>208.38041</ele>
        <time>2022-06-18T09:52:27.000Z</time>
      </trkpt>
      <trkpt lat="45.87417" lon="4.7077">
        <ele>208.14738</ele>
        <time>2022-06-18T09:52:28.000Z</time>
      </trkpt>
      <trkpt lat="45.87417" lon="4.70767">
        <ele>208.11399</ele>
        <time>2022-06-18T09:52:29.000Z</time>
      </trkpt>
      <trkpt lat="45.87418" lon="4.70765">
        <ele>208.31629</ele>
        <time>2022-06-18T09:52:30.000Z</time>
      </trkpt>
      <trkpt lat="45.87421" lon="4.70766">
        <ele>208.58088</ele>
        <time>2022-06-18T09:52:31.000Z</time>
      </trkpt>
      <trkpt lat="45.87423" lon="4.70768">
        <ele>208.8188</ele>
        <time>2022-06-18T09:52:32.000Z</time>
      </trkpt>
      <trkpt lat="45.87424" lon="4.7077">
        <ele>208.9712</ele>
        <time>2022-06-18T09:52:33.000Z</time>
      </trkpt>
      <trkpt lat="45.87426" lon="4.70772">
        <ele>209.11768</ele>
        <time>2022-06-18T09:52:34.000Z</time>
      </trkpt>
      <trkpt lat="45.87428" lon="4.70773">
        <ele>209.26757</ele>
        <time>2022-06-18T09:52:35.000Z</time>
      </trkpt>
      <trkpt lat="45.87431" lon="4.70775">
        <ele>209.62658</ele>
        <time>2022-06-18T09:52:37.000Z</time>
      </trkpt>
      <trkpt lat="45.87432" lon="4.70777">
        <ele>209.66461</ele>
        <time>2022-06-18T09:52:42.000Z</time>
      </trkpt>
      <trkpt lat="45.87433" lon="4.70775">
        <ele>209.86413</ele>
        <time>2022-06-18T09:52:51.000Z</time>
      </trkpt>
      <trkpt lat="45.87434" lon="4.70773">
        <ele>210.06842</ele>
        <time>2022-06-18T09:52:53.000Z</time>
      </trkpt>
      <trkpt lat="45.87436" lon="4.70773">
        <ele>210.31241</ele>
        <time>2022-06-18T09:52:56.000Z</time>
      </trkpt>
      <trkpt lat="45.87438" lon="4.70775">
        <ele>210.45827</ele>
        <time>2022-06-18T09:53:17.000Z</time>
      </trkpt>
      <trkpt lat="45.87439" lon="4.70779">
        <ele>210.45644</ele>
        <time>2022-06-18T09:53:19.000Z</time>
      </trkpt>
      <trkpt lat="45.8744" lon="4.70781">
        <ele>210.44438</ele>
        <time>2022-06-18T09:53:20.000Z</time>
      </trkpt>
      <trkpt lat="45.87441" lon="4.70786">
        <ele>210.36309</ele>
        <time>2022-06-18T09:53:22.000Z</time>
      </trkpt>
      <trkpt lat="45.87442" lon="4.70789">
        <ele>210.32494</ele>
        <time>2022-06-18T09:53:23.000Z</time>
      </trkpt>
      <trkpt lat="45.87444" lon="4.70792">
        <ele>210.29389</ele>
        <time>2022-06-18T09:53:24.000Z</time>
      </trkpt>
      <trkpt lat="45.87445" lon="4.70796">
        <ele>210.31954</ele>
        <time>2022-06-18T09:53:25.000Z</time>
      </trkpt>
      <trkpt lat="45.87446" lon="4.70799">
        <ele>210.36295</ele>
        <time>2022-06-18T09:53:26.000Z</time>
      </trkpt>
      <trkpt lat="45.87447" lon="4.70802">
        <ele>210.43149</ele>
        <time>2022-06-18T09:53:27.000Z</time>
      </trkpt>
      <trkpt lat="45.87448" lon="4.70806">
        <ele>210.53317</ele>
        <time>2022-06-18T09:53:28.000Z</time>
      </trkpt>
      <trkpt lat="45.87449" lon="4.7081">
        <ele>210.67068</ele>
        <time>2022-06-18T09:53:29.000Z</time>
      </trkpt>
      <trkpt lat="45.8745" lon="4.70814">
        <ele>210.86801</ele>
        <time>2022-06-18T09:53:30.000Z</time>
      </trkpt>
      <trkpt lat="45.87451" lon="4.70819">
        <ele>211.11759</ele>
        <time>2022-06-18T09:53:31.000Z</time>
      </trkpt>
      <trkpt lat="45.87452" lon="4.70823">
        <ele>211.37564</ele>
        <time>2022-06-18T09:53:32.000Z</time>
      </trkpt>
      <trkpt lat="45.87453" lon="4.70827">
        <ele>211.61561</ele>
        <time>2022-06-18T09:53:33.000Z</time>
      </trkpt>
      <trkpt lat="45.87454" lon="4.70832">
        <ele>211.827</ele>
        <time>2022-06-18T09:53:34.000Z</time>
      </trkpt>
      <trkpt lat="45.87455" lon="4.70836">
        <ele>212.03192</ele>
        <time>2022-06-18T09:53:35.000Z</time>
      </trkpt>
      <trkpt lat="45.87457" lon="4.7084">
        <ele>212.20293</ele>
        <time>2022-06-18T09:53:36.000Z</time>
      </trkpt>
      <trkpt lat="45.87458" lon="4.70844">
        <ele>212.35105</ele>
        <time>2022-06-18T09:53:37.000Z</time>
      </trkpt>
      <trkpt lat="45.87459" lon="4.70849">
        <ele>212.49381</ele>
        <time>2022-06-18T09:53:38.000Z</time>
      </trkpt>
      <trkpt lat="45.8746" lon="4.70854">
        <ele>212.65299</ele>
        <time>2022-06-18T09:53:39.000Z</time>
      </trkpt>
      <trkpt lat="45.87469" lon="4.70895">
        <ele>213.2498</ele>
        <time>2022-06-18T09:53:46.000Z</time>
      </trkpt>
      <trkpt lat="45.87471" lon="4.70901">
        <ele>213.16997</ele>
        <time>2022-06-18T09:53:47.000Z</time>
      </trkpt>
      <trkpt lat="45.87472" lon="4.70907">
        <ele>212.96477</ele>
        <time>2022-06-18T09:53:48.000Z</time>
      </trkpt>
      <trkpt lat="45.87473" lon="4.70913">
        <ele>212.73069</ele>
        <time>2022-06-18T09:53:49.000Z</time>
      </trkpt>
      <trkpt lat="45.87475" lon="4.70919">
        <ele>212.49432</ele>
        <time>2022-06-18T09:53:50.000Z</time>
      </trkpt>
      <trkpt lat="45.87476" lon="4.70924">
        <ele>212.33773</ele>
        <time>2022-06-18T09:53:51.000Z</time>
      </trkpt>
      <trkpt lat="45.87478" lon="4.70929">
        <ele>212.36478</ele>
        <time>2022-06-18T09:53:52.000Z</time>
      </trkpt>
      <trkpt lat="45.8748" lon="4.70936">
        <ele>212.4579</ele>
        <time>2022-06-18T09:53:53.000Z</time>
      </trkpt>
      <trkpt lat="45.87482" lon="4.70941">
        <ele>212.44859</ele>
        <time>2022-06-18T09:53:54.000Z</time>
      </trkpt>
      <trkpt lat="45.87484" lon="4.70948">
        <ele>212.47996</ele>
        <time>2022-06-18T09:53:55.000Z</time>
      </trkpt>
      <trkpt lat="45.87485" lon="4.70955">
        <ele>212.37341</ele>
        <time>2022-06-18T09:53:56.000Z</time>
      </trkpt>
      <trkpt lat="45.87485" lon="4.70961">
        <ele>212.31115</ele>
        <time>2022-06-18T09:53:57.000Z</time>
      </trkpt>
      <trkpt lat="45.87484" lon="4.70966">
        <ele>212.35091</ele>
        <time>2022-06-18T09:53:58.000Z</time>
      </trkpt>
      <trkpt lat="45.87485" lon="4.70971">
        <ele>212.42787</ele>
        <time>2022-06-18T09:53:59.000Z</time>
      </trkpt>
      <trkpt lat="45.87487" lon="4.70976">
        <ele>212.50675</ele>
        <time>2022-06-18T09:54:00.000Z</time>
      </trkpt>
      <trkpt lat="45.87491" lon="4.70979">
        <ele>212.51414</ele>
        <time>2022-06-18T09:54:01.000Z</time>
      </trkpt>
      <trkpt lat="45.87492" lon="4.70985">
        <ele>212.55407</ele>
        <time>2022-06-18T09:54:02.000Z</time>
      </trkpt>
      <trkpt lat="45.87491" lon="4.7099">
        <ele>212.57592</ele>
        <time>2022-06-18T09:54:03.000Z</time>
      </trkpt>
      <trkpt lat="45.87491" lon="4.70996">
        <ele>212.54973</ele>
        <time>2022-06-18T09:54:04.000Z</time>
      </trkpt>
      <trkpt lat="45.8749" lon="4.71002">
        <ele>212.50141</ele>
        <time>2022-06-18T09:54:05.000Z</time>
      </trkpt>
      <trkpt lat="45.87489" lon="4.71008">
        <ele>212.43351</ele>
        <time>2022-06-18T09:54:06.000Z</time>
      </trkpt>
      <trkpt lat="45.87488" lon="4.71016">
        <ele>212.39946</ele>
        <time>2022-06-18T09:54:07.000Z</time>
      </trkpt>
      <trkpt lat="45.87482" lon="4.71024">
        <ele>212.50773</ele>
        <time>2022-06-18T09:54:08.000Z</time>
      </trkpt>
      <trkpt lat="45.87482" lon="4.71029">
        <ele>212.542</ele>
        <time>2022-06-18T09:54:09.000Z</time>
      </trkpt>
      <trkpt lat="45.87476" lon="4.71033">
        <ele>212.57853</ele>
        <time>2022-06-18T09:54:10.000Z</time>
      </trkpt>
      <trkpt lat="45.87473" lon="4.71041">
        <ele>212.58517</ele>
        <time>2022-06-18T09:54:11.000Z</time>
      </trkpt>
      <trkpt lat="45.8747" lon="4.7105">
        <ele>212.67997</ele>
        <time>2022-06-18T09:54:12.000Z</time>
      </trkpt>
      <trkpt lat="45.87465" lon="4.71055">
        <ele>212.93345</ele>
        <time>2022-06-18T09:54:13.000Z</time>
      </trkpt>
      <trkpt lat="45.87462" lon="4.71061">
        <ele>213.2077</ele>
        <time>2022-06-18T09:54:14.000Z</time>
      </trkpt>
      <trkpt lat="45.87461" lon="4.71065">
        <ele>213.34278</ele>
        <time>2022-06-18T09:54:15.000Z</time>
      </trkpt>
      <trkpt lat="45.87461" lon="4.71069">
        <ele>213.45332</ele>
        <time>2022-06-18T09:54:16.000Z</time>
      </trkpt>
      <trkpt lat="45.87456" lon="4.7107">
        <ele>213.62109</ele>
        <time>2022-06-18T09:54:17.000Z</time>
      </trkpt>
      <trkpt lat="45.87453" lon="4.71072">
        <ele>213.73077</ele>
        <time>2022-06-18T09:54:18.000Z</time>
      </trkpt>
      <trkpt lat="45.87451" lon="4.71077">
        <ele>213.80798</ele>
        <time>2022-06-18T09:54:21.000Z</time>
      </trkpt>
      <trkpt lat="45.87447" lon="4.71079">
        <ele>213.85835</ele>
        <time>2022-06-18T09:54:22.000Z</time>
      </trkpt>
      <trkpt lat="45.87447" lon="4.71083">
        <ele>213.87877</ele>
        <time>2022-06-18T09:54:23.000Z</time>
      </trkpt>
      <trkpt lat="45.87449" lon="4.71088">
        <ele>213.90319</ele>
        <time>2022-06-18T09:54:24.000Z</time>
      </trkpt>
      <trkpt lat="45.87449" lon="4.71092">
        <ele>213.95369</ele>
        <time>2022-06-18T09:54:25.000Z</time>
      </trkpt>
      <trkpt lat="45.8745" lon="4.71097">
        <ele>214.01418</ele>
        <time>2022-06-18T09:54:26.000Z</time>
      </trkpt>
      <trkpt lat="45.87449" lon="4.71101">
        <ele>214.0571</ele>
        <time>2022-06-18T09:54:27.000Z</time>
      </trkpt>
      <trkpt lat="45.87447" lon="4.71104">
        <ele>214.08839</ele>
        <time>2022-06-18T09:54:28.000Z</time>
      </trkpt>
      <trkpt lat="45.87445" lon="4.71107">
        <ele>214.08422</ele>
        <time>2022-06-18T09:54:29.000Z</time>
      </trkpt>
      <trkpt lat="45.87442" lon="4.71109">
        <ele>214.01441</ele>
        <time>2022-06-18T09:54:30.000Z</time>
      </trkpt>
      <trkpt lat="45.87438" lon="4.71112">
        <ele>213.88379</ele>
        <time>2022-06-18T09:54:31.000Z</time>
      </trkpt>
      <trkpt lat="45.87435" lon="4.71114">
        <ele>213.70047</ele>
        <time>2022-06-18T09:54:32.000Z</time>
      </trkpt>
      <trkpt lat="45.87432" lon="4.71117">
        <ele>213.51795</ele>
        <time>2022-06-18T09:54:33.000Z</time>
      </trkpt>
      <trkpt lat="45.87429" lon="4.7112">
        <ele>213.32709</ele>
        <time>2022-06-18T09:54:34.000Z</time>
      </trkpt>
      <trkpt lat="45.87426" lon="4.71124">
        <ele>213.11275</ele>
        <time>2022-06-18T09:54:35.000Z</time>
      </trkpt>
      <trkpt lat="45.87424" lon="4.71127">
        <ele>212.88027</ele>
        <time>2022-06-18T09:54:36.000Z</time>
      </trkpt>
      <trkpt lat="45.87423" lon="4.71131">
        <ele>212.65475</ele>
        <time>2022-06-18T09:54:37.000Z</time>
      </trkpt>
      <trkpt lat="45.87421" lon="4.71134">
        <ele>212.45541</ele>
        <time>2022-06-18T09:54:38.000Z</time>
      </trkpt>
      <trkpt lat="45.87424" lon="4.71135">
        <ele>212.477</ele>
        <time>2022-06-18T09:54:42.000Z</time>
      </trkpt>
      <trkpt lat="45.87424" lon="4.71139">
        <ele>212.27875</ele>
        <time>2022-06-18T09:54:54.000Z</time>
      </trkpt>
      <trkpt lat="45.87422" lon="4.71142">
        <ele>212.11576</ele>
        <time>2022-06-18T09:54:56.000Z</time>
      </trkpt>
      <trkpt lat="45.8742" lon="4.71143">
        <ele>212.00409</ele>
        <time>2022-06-18T09:54:57.000Z</time>
      </trkpt>
      <trkpt lat="45.87417" lon="4.71144">
        <ele>211.88577</ele>
        <time>2022-06-18T09:54:58.000Z</time>
      </trkpt>
      <trkpt lat="45.87413" lon="4.71145">
        <ele>211.77771</ele>
        <time>2022-06-18T09:54:59.000Z</time>
      </trkpt>
      <trkpt lat="45.87409" lon="4.71146">
        <ele>211.6452</ele>
        <time>2022-06-18T09:55:00.000Z</time>
      </trkpt>
      <trkpt lat="45.87404" lon="4.71147">
        <ele>211.48293</ele>
        <time>2022-06-18T09:55:01.000Z</time>
      </trkpt>
      <trkpt lat="45.874" lon="4.71149">
        <ele>211.32259</ele>
        <time>2022-06-18T09:55:02.000Z</time>
      </trkpt>
      <trkpt lat="45.87396" lon="4.71151">
        <ele>211.18844</ele>
        <time>2022-06-18T09:55:03.000Z</time>
      </trkpt>
      <trkpt lat="45.87391" lon="4.71153">
        <ele>211.04446</ele>
        <time>2022-06-18T09:55:04.000Z</time>
      </trkpt>
      <trkpt lat="45.87386" lon="4.71155">
        <ele>210.85328</ele>
        <time>2022-06-18T09:55:05.000Z</time>
      </trkpt>
      <trkpt lat="45.87382" lon="4.71157">
        <ele>210.63541</ele>
        <time>2022-06-18T09:55:06.000Z</time>
      </trkpt>
      <trkpt lat="45.8738" lon="4.71158">
        <ele>210.46786</ele>
        <time>2022-06-18T09:55:07.000Z</time>
      </trkpt>
      <trkpt lat="45.87378" lon="4.71157">
        <ele>210.36371</ele>
        <time>2022-06-18T09:55:08.000Z</time>
      </trkpt>
      <trkpt lat="45.87376" lon="4.71153">
        <ele>210.27672</ele>
        <time>2022-06-18T09:55:10.000Z</time>
      </trkpt>
      <trkpt lat="45.87374" lon="4.71151">
        <ele>210.14861</ele>
        <time>2022-06-18T09:55:12.000Z</time>
      </trkpt>
      <trkpt lat="45.87372" lon="4.7115">
        <ele>210.00447</ele>
        <time>2022-06-18T09:55:13.000Z</time>
      </trkpt>
      <trkpt lat="45.8737" lon="4.7115">
        <ele>209.8054</ele>
        <time>2022-06-18T09:55:14.000Z</time>
      </trkpt>
      <trkpt lat="45.87367" lon="4.7115">
        <ele>209.56056</ele>
        <time>2022-06-18T09:55:15.000Z</time>
      </trkpt>
      <trkpt lat="45.87365" lon="4.7115">
        <ele>209.35372</ele>
        <time>2022-06-18T09:55:16.000Z</time>
      </trkpt>
      <trkpt lat="45.87362" lon="4.71148">
        <ele>209.0684</ele>
        <time>2022-06-18T09:55:18.000Z</time>
      </trkpt>
      <trkpt lat="45.87362" lon="4.71148">
        <ele>209.0684</ele>
        <time>2022-06-18T09:55:18.000Z</time>
      </trkpt>
      <trkpt lat="45.87363" lon="4.71151">
        <ele>209.13668</ele>
        <time>2022-06-18T09:55:26.000Z</time>
      </trkpt>
      <trkpt lat="45.87364" lon="4.71153">
        <ele>209.2539</ele>
        <time>2022-06-18T09:55:39.000Z</time>
      </trkpt>
      <trkpt lat="45.87361" lon="4.71152">
        <ele>208.98304</ele>
        <time>2022-06-18T09:55:48.000Z</time>
      </trkpt>
      <trkpt lat="45.87359" lon="4.71151">
        <ele>208.74467</ele>
        <time>2022-06-18T09:55:49.000Z</time>
      </trkpt>
      <trkpt lat="45.87356" lon="4.71149">
        <ele>208.44918</ele>
        <time>2022-06-18T09:55:50.000Z</time>
      </trkpt>
      <trkpt lat="45.87352" lon="4.71145">
        <ele>208.10199</ele>
        <time>2022-06-18T09:55:51.000Z</time>
      </trkpt>
      <trkpt lat="45.87348" lon="4.71134">
        <ele>207.41376</ele>
        <time>2022-06-18T09:55:52.000Z</time>
      </trkpt>
      <trkpt lat="45.87344" lon="4.71129">
        <ele>206.55602</ele>
        <time>2022-06-18T09:55:53.000Z</time>
      </trkpt>
      <trkpt lat="45.8734" lon="4.71123">
        <ele>205.6014</ele>
        <time>2022-06-18T09:55:54.000Z</time>
      </trkpt>
      <trkpt lat="45.87335" lon="4.71114">
        <ele>204.38696</ele>
        <time>2022-06-18T09:55:55.000Z</time>
      </trkpt>
      <trkpt lat="45.87329" lon="4.71103">
        <ele>203.47868</ele>
        <time>2022-06-18T09:55:56.000Z</time>
      </trkpt>
      <trkpt lat="45.87323" lon="4.71092">
        <ele>202.6158</ele>
        <time>2022-06-18T09:55:57.000Z</time>
      </trkpt>
      <trkpt lat="45.87317" lon="4.7108">
        <ele>201.57373</ele>
        <time>2022-06-18T09:55:58.000Z</time>
      </trkpt>
      <trkpt lat="45.87312" lon="4.71069">
        <ele>200.77727</ele>
        <time>2022-06-18T09:55:59.000Z</time>
      </trkpt>
      <trkpt lat="45.87306" lon="4.71057">
        <ele>200.03611</ele>
        <time>2022-06-18T09:56:00.000Z</time>
      </trkpt>
      <trkpt lat="45.87299" lon="4.71045">
        <ele>199.08075</ele>
        <time>2022-06-18T09:56:01.000Z</time>
      </trkpt>
      <trkpt lat="45.87294" lon="4.71036">
        <ele>198.35618</ele>
        <time>2022-06-18T09:56:02.000Z</time>
      </trkpt>
      <trkpt lat="45.87287" lon="4.71028">
        <ele>197.73405</ele>
        <time>2022-06-18T09:56:03.000Z</time>
      </trkpt>
      <trkpt lat="45.8728" lon="4.71013">
        <ele>197.16602</ele>
        <time>2022-06-18T09:56:04.000Z</time>
      </trkpt>
      <trkpt lat="45.87275" lon="4.70997">
        <ele>196.95544</ele>
        <time>2022-06-18T09:56:05.000Z</time>
      </trkpt>
      <trkpt lat="45.87268" lon="4.70982">
        <ele>197.22823</ele>
        <time>2022-06-18T09:56:06.000Z</time>
      </trkpt>
      <trkpt lat="45.87258" lon="4.70967">
        <ele>198.99507</ele>
        <time>2022-06-18T09:56:07.000Z</time>
      </trkpt>
      <trkpt lat="45.87253" lon="4.70947">
        <ele>201.60891</ele>
        <time>2022-06-18T09:56:08.000Z</time>
      </trkpt>
      <trkpt lat="45.87246" lon="4.70956">
        <ele>200.6347</ele>
        <time>2022-06-18T09:56:09.000Z</time>
      </trkpt>
      <trkpt lat="45.87239" lon="4.7097">
        <ele>198.43282</ele>
        <time>2022-06-18T09:56:10.000Z</time>
      </trkpt>
      <trkpt lat="45.87235" lon="4.70981">
        <ele>197.58727</ele>
        <time>2022-06-18T09:56:11.000Z</time>
      </trkpt>
      <trkpt lat="45.8723" lon="4.70994">
        <ele>197.00424</ele>
        <time>2022-06-18T09:56:12.000Z</time>
      </trkpt>
      <trkpt lat="45.87226" lon="4.71">
        <ele>196.71634</ele>
        <time>2022-06-18T09:56:13.000Z</time>
      </trkpt>
      <trkpt lat="45.87225" lon="4.71002">
        <ele>196.60582</ele>
        <time>2022-06-18T09:56:14.000Z</time>
      </trkpt>
      <trkpt lat="45.87223" lon="4.71008">
        <ele>196.40177</ele>
        <time>2022-06-18T09:56:15.000Z</time>
      </trkpt>
      <trkpt lat="45.8722" lon="4.71009">
        <ele>196.43952</ele>
        <time>2022-06-18T09:56:16.000Z</time>
      </trkpt>
      <trkpt lat="45.87216" lon="4.71013">
        <ele>196.55316</ele>
        <time>2022-06-18T09:56:18.000Z</time>
      </trkpt>
      <trkpt lat="45.87214" lon="4.71015">
        <ele>196.61397</ele>
        <time>2022-06-18T09:56:19.000Z</time>
      </trkpt>
      <trkpt lat="45.87212" lon="4.71018">
        <ele>196.64363</ele>
        <time>2022-06-18T09:56:20.000Z</time>
      </trkpt>
      <trkpt lat="45.8721" lon="4.7102">
        <ele>196.69929</ele>
        <time>2022-06-18T09:56:21.000Z</time>
      </trkpt>
      <trkpt lat="45.87207" lon="4.7102">
        <ele>196.83723</ele>
        <time>2022-06-18T09:56:22.000Z</time>
      </trkpt>
      <trkpt lat="45.87204" lon="4.71022">
        <ele>196.76818</ele>
        <time>2022-06-18T09:56:23.000Z</time>
      </trkpt>
      <trkpt lat="45.87201" lon="4.71024">
        <ele>196.68777</ele>
        <time>2022-06-18T09:56:24.000Z</time>
      </trkpt>
      <trkpt lat="45.87199" lon="4.71025">
        <ele>196.62675</ele>
        <time>2022-06-18T09:56:25.000Z</time>
      </trkpt>
      <trkpt lat="45.87197" lon="4.71025">
        <ele>196.54127</ele>
        <time>2022-06-18T09:56:26.000Z</time>
      </trkpt>
      <trkpt lat="45.87195" lon="4.71028">
        <ele>196.28825</ele>
        <time>2022-06-18T09:56:28.000Z</time>
      </trkpt>
      <trkpt lat="45.87194" lon="4.71032">
        <ele>195.92968</ele>
        <time>2022-06-18T09:56:30.000Z</time>
      </trkpt>
      <trkpt lat="45.87192" lon="4.71036">
        <ele>195.5638</ele>
        <time>2022-06-18T09:56:32.000Z</time>
      </trkpt>
      <trkpt lat="45.87191" lon="4.71038">
        <ele>195.36151</ele>
        <time>2022-06-18T09:56:33.000Z</time>
      </trkpt>
      <trkpt lat="45.8719" lon="4.7104">
        <ele>195.17399</ele>
        <time>2022-06-18T09:56:34.000Z</time>
      </trkpt>
      <trkpt lat="45.87186" lon="4.71045">
        <ele>194.89244</ele>
        <time>2022-06-18T09:56:36.000Z</time>
      </trkpt>
      <trkpt lat="45.87184" lon="4.71047">
        <ele>194.82556</ele>
        <time>2022-06-18T09:56:37.000Z</time>
      </trkpt>
      <trkpt lat="45.87182" lon="4.71048">
        <ele>194.80221</ele>
        <time>2022-06-18T09:56:38.000Z</time>
      </trkpt>
      <trkpt lat="45.87179" lon="4.7105">
        <ele>194.80796</ele>
        <time>2022-06-18T09:56:39.000Z</time>
      </trkpt>
      <trkpt lat="45.87176" lon="4.71051">
        <ele>194.88803</ele>
        <time>2022-06-18T09:56:40.000Z</time>
      </trkpt>
      <trkpt lat="45.87172" lon="4.71053">
        <ele>195.00845</ele>
        <time>2022-06-18T09:56:41.000Z</time>
      </trkpt>
      <trkpt lat="45.87168" lon="4.71055">
        <ele>195.15596</ele>
        <time>2022-06-18T09:56:42.000Z</time>
      </trkpt>
      <trkpt lat="45.87164" lon="4.71056">
        <ele>195.26987</ele>
        <time>2022-06-18T09:56:43.000Z</time>
      </trkpt>
      <trkpt lat="45.87161" lon="4.71056">
        <ele>195.32181</ele>
        <time>2022-06-18T09:56:44.000Z</time>
      </trkpt>
      <trkpt lat="45.87157" lon="4.71057">
        <ele>195.28931</ele>
        <time>2022-06-18T09:56:45.000Z</time>
      </trkpt>
      <trkpt lat="45.87153" lon="4.71058">
        <ele>195.19387</ele>
        <time>2022-06-18T09:56:46.000Z</time>
      </trkpt>
      <trkpt lat="45.87149" lon="4.71059">
        <ele>195.06999</ele>
        <time>2022-06-18T09:56:47.000Z</time>
      </trkpt>
      <trkpt lat="45.87145" lon="4.71059">
        <ele>194.95406</ele>
        <time>2022-06-18T09:56:48.000Z</time>
      </trkpt>
      <trkpt lat="45.87142" lon="4.71059">
        <ele>194.84671</ele>
        <time>2022-06-18T09:56:49.000Z</time>
      </trkpt>
      <trkpt lat="45.87138" lon="4.7106">
        <ele>194.74322</ele>
        <time>2022-06-18T09:56:50.000Z</time>
      </trkpt>
      <trkpt lat="45.87135" lon="4.7106">
        <ele>194.64406</ele>
        <time>2022-06-18T09:56:51.000Z</time>
      </trkpt>
      <trkpt lat="45.87131" lon="4.71061">
        <ele>194.52217</ele>
        <time>2022-06-18T09:56:52.000Z</time>
      </trkpt>
      <trkpt lat="45.87127" lon="4.71061">
        <ele>194.39293</ele>
        <time>2022-06-18T09:56:53.000Z</time>
      </trkpt>
      <trkpt lat="45.87124" lon="4.71062">
        <ele>194.28411</ele>
        <time>2022-06-18T09:56:54.000Z</time>
      </trkpt>
      <trkpt lat="45.87121" lon="4.71063">
        <ele>194.2095</ele>
        <time>2022-06-18T09:56:55.000Z</time>
      </trkpt>
      <trkpt lat="45.87117" lon="4.71063">
        <ele>194.12434</ele>
        <time>2022-06-18T09:56:57.000Z</time>
      </trkpt>
      <trkpt lat="45.87115" lon="4.71063">
        <ele>194.08093</ele>
        <time>2022-06-18T09:56:58.000Z</time>
      </trkpt>
      <trkpt lat="45.87113" lon="4.71063">
        <ele>194.05559</ele>
        <time>2022-06-18T09:56:59.000Z</time>
      </trkpt>
      <trkpt lat="45.87111" lon="4.71064">
        <ele>194.05295</ele>
        <time>2022-06-18T09:57:00.000Z</time>
      </trkpt>
      <trkpt lat="45.87107" lon="4.71065">
        <ele>194.06103</ele>
        <time>2022-06-18T09:57:02.000Z</time>
      </trkpt>
      <trkpt lat="45.87105" lon="4.71065">
        <ele>194.06494</ele>
        <time>2022-06-18T09:57:03.000Z</time>
      </trkpt>
      <trkpt lat="45.87103" lon="4.71065">
        <ele>194.07983</ele>
        <time>2022-06-18T09:57:04.000Z</time>
      </trkpt>
      <trkpt lat="45.871" lon="4.71067">
        <ele>194.11014</ele>
        <time>2022-06-18T09:57:05.000Z</time>
      </trkpt>
      <trkpt lat="45.87098" lon="4.71068">
        <ele>194.13734</ele>
        <time>2022-06-18T09:57:06.000Z</time>
      </trkpt>
      <trkpt lat="45.87095" lon="4.71069">
        <ele>194.14945</ele>
        <time>2022-06-18T09:57:07.000Z</time>
      </trkpt>
      <trkpt lat="45.87091" lon="4.7107">
        <ele>194.14018</ele>
        <time>2022-06-18T09:57:08.000Z</time>
      </trkpt>
      <trkpt lat="45.87088" lon="4.7107">
        <ele>194.11351</ele>
        <time>2022-06-18T09:57:09.000Z</time>
      </trkpt>
      <trkpt lat="45.87084" lon="4.71071">
        <ele>194.07232</ele>
        <time>2022-06-18T09:57:10.000Z</time>
      </trkpt>
      <trkpt lat="45.8708" lon="4.71072">
        <ele>194.02351</ele>
        <time>2022-06-18T09:57:11.000Z</time>
      </trkpt>
      <trkpt lat="45.87076" lon="4.71073">
        <ele>193.96142</ele>
        <time>2022-06-18T09:57:12.000Z</time>
      </trkpt>
      <trkpt lat="45.87072" lon="4.71074">
        <ele>193.89594</ele>
        <time>2022-06-18T09:57:13.000Z</time>
      </trkpt>
      <trkpt lat="45.87068" lon="4.71075">
        <ele>193.83897</ele>
        <time>2022-06-18T09:57:14.000Z</time>
      </trkpt>
      <trkpt lat="45.87065" lon="4.71076">
        <ele>193.79974</ele>
        <time>2022-06-18T09:57:15.000Z</time>
      </trkpt>
      <trkpt lat="45.87062" lon="4.71076">
        <ele>193.76571</ele>
        <time>2022-06-18T09:57:16.000Z</time>
      </trkpt>
      <trkpt lat="45.87058" lon="4.71077">
        <ele>193.73047</ele>
        <time>2022-06-18T09:57:17.000Z</time>
      </trkpt>
      <trkpt lat="45.87055" lon="4.71077">
        <ele>193.69804</ele>
        <time>2022-06-18T09:57:18.000Z</time>
      </trkpt>
      <trkpt lat="45.87051" lon="4.71077">
        <ele>193.66326</ele>
        <time>2022-06-18T09:57:19.000Z</time>
      </trkpt>
      <trkpt lat="45.87048" lon="4.71077">
        <ele>193.61875</ele>
        <time>2022-06-18T09:57:20.000Z</time>
      </trkpt>
      <trkpt lat="45.87044" lon="4.71077">
        <ele>193.5453</ele>
        <time>2022-06-18T09:57:21.000Z</time>
      </trkpt>
      <trkpt lat="45.8704" lon="4.71077">
        <ele>193.43894</ele>
        <time>2022-06-18T09:57:22.000Z</time>
      </trkpt>
      <trkpt lat="45.87035" lon="4.71078">
        <ele>193.30817</ele>
        <time>2022-06-18T09:57:23.000Z</time>
      </trkpt>
      <trkpt lat="45.87013" lon="4.7108">
        <ele>192.67546</ele>
        <time>2022-06-18T09:57:29.000Z</time>
      </trkpt>
      <trkpt lat="45.87011" lon="4.7108">
        <ele>192.61867</ele>
        <time>2022-06-18T09:57:30.000Z</time>
      </trkpt>
      <trkpt lat="45.87008" lon="4.7108">
        <ele>192.55133</ele>
        <time>2022-06-18T09:57:31.000Z</time>
      </trkpt>
      <trkpt lat="45.87004" lon="4.71081">
        <ele>192.45812</ele>
        <time>2022-06-18T09:57:32.000Z</time>
      </trkpt>
      <trkpt lat="45.87001" lon="4.71082">
        <ele>192.37455</ele>
        <time>2022-06-18T09:57:33.000Z</time>
      </trkpt>
      <trkpt lat="45.86998" lon="4.71081">
        <ele>192.3127</ele>
        <time>2022-06-18T09:57:34.000Z</time>
      </trkpt>
      <trkpt lat="45.86991" lon="4.71075">
        <ele>192.22592</ele>
        <time>2022-06-18T09:57:36.000Z</time>
      </trkpt>
      <trkpt lat="45.86988" lon="4.71073">
        <ele>192.18553</ele>
        <time>2022-06-18T09:57:37.000Z</time>
      </trkpt>
      <trkpt lat="45.86986" lon="4.71072">
        <ele>192.16265</ele>
        <time>2022-06-18T09:57:38.000Z</time>
      </trkpt>
      <trkpt lat="45.86983" lon="4.7107">
        <ele>192.14988</ele>
        <time>2022-06-18T09:57:40.000Z</time>
      </trkpt>
      <trkpt lat="45.86979" lon="4.71067">
        <ele>192.1262</ele>
        <time>2022-06-18T09:57:42.000Z</time>
      </trkpt>
      <trkpt lat="45.86976" lon="4.71067">
        <ele>192.08276</ele>
        <time>2022-06-18T09:57:44.000Z</time>
      </trkpt>
      <trkpt lat="45.86974" lon="4.71067">
        <ele>192.04936</ele>
        <time>2022-06-18T09:57:54.000Z</time>
      </trkpt>
      <trkpt lat="45.86972" lon="4.71068">
        <ele>191.98632</ele>
        <time>2022-06-18T09:58:05.000Z</time>
      </trkpt>
      <trkpt lat="45.86969" lon="4.71068">
        <ele>191.94518</ele>
        <time>2022-06-18T09:58:12.000Z</time>
      </trkpt>
      <trkpt lat="45.86965" lon="4.71067">
        <ele>191.87981</ele>
        <time>2022-06-18T09:58:14.000Z</time>
      </trkpt>
      <trkpt lat="45.86962" lon="4.71067">
        <ele>191.82729</ele>
        <time>2022-06-18T09:58:15.000Z</time>
      </trkpt>
      <trkpt lat="45.86958" lon="4.71068">
        <ele>191.7752</ele>
        <time>2022-06-18T09:58:16.000Z</time>
      </trkpt>
      <trkpt lat="45.86954" lon="4.71068">
        <ele>191.73137</ele>
        <time>2022-06-18T09:58:17.000Z</time>
      </trkpt>
      <trkpt lat="45.8695" lon="4.71069">
        <ele>191.70061</ele>
        <time>2022-06-18T09:58:18.000Z</time>
      </trkpt>
      <trkpt lat="45.86947" lon="4.71069">
        <ele>191.68327</ele>
        <time>2022-06-18T09:58:19.000Z</time>
      </trkpt>
      <trkpt lat="45.86943" lon="4.71068">
        <ele>191.67299</ele>
        <time>2022-06-18T09:58:20.000Z</time>
      </trkpt>
      <trkpt lat="45.86939" lon="4.71067">
        <ele>191.67599</ele>
        <time>2022-06-18T09:58:21.000Z</time>
      </trkpt>
      <trkpt lat="45.86935" lon="4.71066">
        <ele>191.68807</ele>
        <time>2022-06-18T09:58:22.000Z</time>
      </trkpt>
      <trkpt lat="45.8693" lon="4.71064">
        <ele>191.70339</ele>
        <time>2022-06-18T09:58:23.000Z</time>
      </trkpt>
      <trkpt lat="45.86926" lon="4.71063">
        <ele>191.70927</ele>
        <time>2022-06-18T09:58:24.000Z</time>
      </trkpt>
      <trkpt lat="45.86921" lon="4.71063">
        <ele>191.70092</ele>
        <time>2022-06-18T09:58:25.000Z</time>
      </trkpt>
      <trkpt lat="45.86917" lon="4.71063">
        <ele>191.68642</ele>
        <time>2022-06-18T09:58:26.000Z</time>
      </trkpt>
      <trkpt lat="45.86912" lon="4.71064">
        <ele>191.66874</ele>
        <time>2022-06-18T09:58:27.000Z</time>
      </trkpt>
      <trkpt lat="45.86908" lon="4.71064">
        <ele>191.65969</ele>
        <time>2022-06-18T09:58:28.000Z</time>
      </trkpt>
      <trkpt lat="45.86904" lon="4.71064">
        <ele>191.70286</ele>
        <time>2022-06-18T09:58:29.000Z</time>
      </trkpt>
      <trkpt lat="45.86901" lon="4.71065">
        <ele>191.75592</ele>
        <time>2022-06-18T09:58:30.000Z</time>
      </trkpt>
      <trkpt lat="45.86897" lon="4.71065">
        <ele>191.78805</ele>
        <time>2022-06-18T09:58:31.000Z</time>
      </trkpt>
      <trkpt lat="45.86895" lon="4.71065">
        <ele>191.78053</ele>
        <time>2022-06-18T09:58:32.000Z</time>
      </trkpt>
      <trkpt lat="45.86893" lon="4.71066">
        <ele>191.74384</ele>
        <time>2022-06-18T09:58:33.000Z</time>
      </trkpt>
      <trkpt lat="45.86892" lon="4.71069">
        <ele>191.72686</ele>
        <time>2022-06-18T09:58:38.000Z</time>
      </trkpt>
      <trkpt lat="45.8689" lon="4.71071">
        <ele>191.65089</ele>
        <time>2022-06-18T09:58:42.000Z</time>
      </trkpt>
      <trkpt lat="45.86888" lon="4.71071">
        <ele>191.5425</ele>
        <time>2022-06-18T09:58:49.000Z</time>
      </trkpt>
      <trkpt lat="45.86886" lon="4.71073">
        <ele>191.37461</ele>
        <time>2022-06-18T09:58:56.000Z</time>
      </trkpt>
      <trkpt lat="45.86884" lon="4.71072">
        <ele>191.15399</ele>
        <time>2022-06-18T09:58:59.000Z</time>
      </trkpt>
      <trkpt lat="45.86882" lon="4.71073">
        <ele>190.84703</ele>
        <time>2022-06-18T09:59:04.000Z</time>
      </trkpt>
      <trkpt lat="45.86878" lon="4.71075">
        <ele>190.19808</ele>
        <time>2022-06-18T09:59:06.000Z</time>
      </trkpt>
      <trkpt lat="45.86876" lon="4.71076">
        <ele>189.74286</ele>
        <time>2022-06-18T09:59:07.000Z</time>
      </trkpt>
      <trkpt lat="45.86873" lon="4.71079">
        <ele>189.2134</ele>
        <time>2022-06-18T09:59:08.000Z</time>
      </trkpt>
      <trkpt lat="45.86869" lon="4.71081">
        <ele>188.62205</ele>
        <time>2022-06-18T09:59:09.000Z</time>
      </trkpt>
      <trkpt lat="45.86865" lon="4.71083">
        <ele>188.16596</ele>
        <time>2022-06-18T09:59:10.000Z</time>
      </trkpt>
      <trkpt lat="45.86862" lon="4.71084">
        <ele>187.90386</ele>
        <time>2022-06-18T09:59:11.000Z</time>
      </trkpt>
      <trkpt lat="45.86854" lon="4.71084">
        <ele>187.63437</ele>
        <time>2022-06-18T09:59:13.000Z</time>
      </trkpt>
      <trkpt lat="45.8685" lon="4.71083">
        <ele>187.6554</ele>
        <time>2022-06-18T09:59:14.000Z</time>
      </trkpt>
      <trkpt lat="45.86846" lon="4.71083">
        <ele>187.77746</ele>
        <time>2022-06-18T09:59:15.000Z</time>
      </trkpt>
      <trkpt lat="45.86842" lon="4.71082">
        <ele>188.01075</ele>
        <time>2022-06-18T09:59:16.000Z</time>
      </trkpt>
      <trkpt lat="45.86837" lon="4.71081">
        <ele>188.49772</ele>
        <time>2022-06-18T09:59:17.000Z</time>
      </trkpt>
      <trkpt lat="45.86834" lon="4.7108">
        <ele>189.1151</ele>
        <time>2022-06-18T09:59:18.000Z</time>
      </trkpt>
      <trkpt lat="45.8683" lon="4.7108">
        <ele>189.89429</ele>
        <time>2022-06-18T09:59:19.000Z</time>
      </trkpt>
      <trkpt lat="45.86825" lon="4.7108">
        <ele>190.62576</ele>
        <time>2022-06-18T09:59:20.000Z</time>
      </trkpt>
      <trkpt lat="45.86821" lon="4.7108">
        <ele>191.16781</ele>
        <time>2022-06-18T09:59:21.000Z</time>
      </trkpt>
      <trkpt lat="45.86819" lon="4.7108">
        <ele>191.387</ele>
        <time>2022-06-18T09:59:22.000Z</time>
      </trkpt>
      <trkpt lat="45.86821" lon="4.7108">
        <ele>191.22909</ele>
        <time>2022-06-18T09:59:33.000Z</time>
      </trkpt>
      <trkpt lat="45.86822" lon="4.71082">
        <ele>191.10842</ele>
        <time>2022-06-18T09:59:36.000Z</time>
      </trkpt>
      <trkpt lat="45.86819" lon="4.71081">
        <ele>191.3715</ele>
        <time>2022-06-18T09:59:40.000Z</time>
      </trkpt>
      <trkpt lat="45.86817" lon="4.71081">
        <ele>191.46186</ele>
        <time>2022-06-18T09:59:41.000Z</time>
      </trkpt>
      <trkpt lat="45.86815" lon="4.71081">
        <ele>191.52702</ele>
        <time>2022-06-18T09:59:43.000Z</time>
      </trkpt>
      <trkpt lat="45.86813" lon="4.7108">
        <ele>191.53724</ele>
        <time>2022-06-18T09:59:48.000Z</time>
      </trkpt>
      <trkpt lat="45.8681" lon="4.71082">
        <ele>191.49871</ele>
        <time>2022-06-18T10:00:04.000Z</time>
      </trkpt>
      <trkpt lat="45.86807" lon="4.71084">
        <ele>191.40345</ele>
        <time>2022-06-18T10:00:06.000Z</time>
      </trkpt>
      <trkpt lat="45.86804" lon="4.71087">
        <ele>191.27513</ele>
        <time>2022-06-18T10:00:08.000Z</time>
      </trkpt>
      <trkpt lat="45.86802" lon="4.71087">
        <ele>191.1971</ele>
        <time>2022-06-18T10:00:10.000Z</time>
      </trkpt>
      <trkpt lat="45.86802" lon="4.71085">
        <ele>191.2185</ele>
        <time>2022-06-18T10:00:12.000Z</time>
      </trkpt>
      <trkpt lat="45.86799" lon="4.71083">
        <ele>191.16922</ele>
        <time>2022-06-18T10:00:14.000Z</time>
      </trkpt>
      <trkpt lat="45.86797" lon="4.71082">
        <ele>191.14194</ele>
        <time>2022-06-18T10:00:15.000Z</time>
      </trkpt>
      <trkpt lat="45.86793" lon="4.71082">
        <ele>191.09667</ele>
        <time>2022-06-18T10:00:16.000Z</time>
      </trkpt>
      <trkpt lat="45.86789" lon="4.71082">
        <ele>191.03254</ele>
        <time>2022-06-18T10:00:17.000Z</time>
      </trkpt>
      <trkpt lat="45.86786" lon="4.71081">
        <ele>190.96837</ele>
        <time>2022-06-18T10:00:18.000Z</time>
      </trkpt>
      <trkpt lat="45.86782" lon="4.71081">
        <ele>190.90997</ele>
        <time>2022-06-18T10:00:19.000Z</time>
      </trkpt>
      <trkpt lat="45.86779" lon="4.71081">
        <ele>190.86541</ele>
        <time>2022-06-18T10:00:20.000Z</time>
      </trkpt>
      <trkpt lat="45.86775" lon="4.7108">
        <ele>190.84541</ele>
        <time>2022-06-18T10:00:21.000Z</time>
      </trkpt>
      <trkpt lat="45.86771" lon="4.7108">
        <ele>190.85646</ele>
        <time>2022-06-18T10:00:22.000Z</time>
      </trkpt>
      <trkpt lat="45.86767" lon="4.7108">
        <ele>190.89943</ele>
        <time>2022-06-18T10:00:23.000Z</time>
      </trkpt>
      <trkpt lat="45.86762" lon="4.71079">
        <ele>190.96145</ele>
        <time>2022-06-18T10:00:24.000Z</time>
      </trkpt>
      <trkpt lat="45.86758" lon="4.71078">
        <ele>191.01953</ele>
        <time>2022-06-18T10:00:25.000Z</time>
      </trkpt>
      <trkpt lat="45.86753" lon="4.71077">
        <ele>191.05906</ele>
        <time>2022-06-18T10:00:26.000Z</time>
      </trkpt>
      <trkpt lat="45.86749" lon="4.71075">
        <ele>191.07826</ele>
        <time>2022-06-18T10:00:27.000Z</time>
      </trkpt>
      <trkpt lat="45.86745" lon="4.71072">
        <ele>191.09677</ele>
        <time>2022-06-18T10:00:28.000Z</time>
      </trkpt>
      <trkpt lat="45.86741" lon="4.71069">
        <ele>191.11881</ele>
        <time>2022-06-18T10:00:29.000Z</time>
      </trkpt>
      <trkpt lat="45.86736" lon="4.71067">
        <ele>191.13954</ele>
        <time>2022-06-18T10:00:30.000Z</time>
      </trkpt>
      <trkpt lat="45.86732" lon="4.71065">
        <ele>191.15534</ele>
        <time>2022-06-18T10:00:31.000Z</time>
      </trkpt>
      <trkpt lat="45.86728" lon="4.71063">
        <ele>191.15887</ele>
        <time>2022-06-18T10:00:32.000Z</time>
      </trkpt>
      <trkpt lat="45.86723" lon="4.7106">
        <ele>191.14602</ele>
        <time>2022-06-18T10:00:33.000Z</time>
      </trkpt>
      <trkpt lat="45.86718" lon="4.71057">
        <ele>191.1116</ele>
        <time>2022-06-18T10:00:34.000Z</time>
      </trkpt>
      <trkpt lat="45.86713" lon="4.71053">
        <ele>191.08527</ele>
        <time>2022-06-18T10:00:35.000Z</time>
      </trkpt>
      <trkpt lat="45.8671" lon="4.71051">
        <ele>191.05742</ele>
        <time>2022-06-18T10:00:36.000Z</time>
      </trkpt>
      <trkpt lat="45.86705" lon="4.71049">
        <ele>191.01491</ele>
        <time>2022-06-18T10:00:37.000Z</time>
      </trkpt>
      <trkpt lat="45.867" lon="4.71046">
        <ele>190.95967</ele>
        <time>2022-06-18T10:00:38.000Z</time>
      </trkpt>
      <trkpt lat="45.86696" lon="4.71044">
        <ele>190.91102</ele>
        <time>2022-06-18T10:00:39.000Z</time>
      </trkpt>
      <trkpt lat="45.86691" lon="4.71041">
        <ele>190.86512</ele>
        <time>2022-06-18T10:00:40.000Z</time>
      </trkpt>
      <trkpt lat="45.86686" lon="4.7104">
        <ele>190.83202</ele>
        <time>2022-06-18T10:00:41.000Z</time>
      </trkpt>
      <trkpt lat="45.86682" lon="4.71038">
        <ele>190.82134</ele>
        <time>2022-06-18T10:00:42.000Z</time>
      </trkpt>
      <trkpt lat="45.86678" lon="4.71038">
        <ele>190.82554</ele>
        <time>2022-06-18T10:00:43.000Z</time>
      </trkpt>
      <trkpt lat="45.86674" lon="4.71033">
        <ele>190.8475</ele>
        <time>2022-06-18T10:00:44.000Z</time>
      </trkpt>
      <trkpt lat="45.86669" lon="4.71031">
        <ele>190.8725</ele>
        <time>2022-06-18T10:00:45.000Z</time>
      </trkpt>
      <trkpt lat="45.86666" lon="4.7103">
        <ele>190.88313</ele>
        <time>2022-06-18T10:00:46.000Z</time>
      </trkpt>
      <trkpt lat="45.86662" lon="4.71027">
        <ele>190.9015</ele>
        <time>2022-06-18T10:00:47.000Z</time>
      </trkpt>
      <trkpt lat="45.86658" lon="4.71026">
        <ele>190.90885</ele>
        <time>2022-06-18T10:00:48.000Z</time>
      </trkpt>
      <trkpt lat="45.86654" lon="4.71025">
        <ele>190.91031</ele>
        <time>2022-06-18T10:00:49.000Z</time>
      </trkpt>
      <trkpt lat="45.8665" lon="4.71022">
        <ele>190.9171</ele>
        <time>2022-06-18T10:00:50.000Z</time>
      </trkpt>
      <trkpt lat="45.86647" lon="4.71021">
        <ele>190.90887</ele>
        <time>2022-06-18T10:00:51.000Z</time>
      </trkpt>
      <trkpt lat="45.86643" lon="4.7102">
        <ele>190.89139</ele>
        <time>2022-06-18T10:00:52.000Z</time>
      </trkpt>
      <trkpt lat="45.86639" lon="4.71019">
        <ele>190.87441</ele>
        <time>2022-06-18T10:00:53.000Z</time>
      </trkpt>
      <trkpt lat="45.86636" lon="4.71018">
        <ele>190.85216</ele>
        <time>2022-06-18T10:00:54.000Z</time>
      </trkpt>
      <trkpt lat="45.86632" lon="4.71015">
        <ele>190.83995</ele>
        <time>2022-06-18T10:00:55.000Z</time>
      </trkpt>
      <trkpt lat="45.86628" lon="4.71013">
        <ele>190.8532</ele>
        <time>2022-06-18T10:00:56.000Z</time>
      </trkpt>
      <trkpt lat="45.86624" lon="4.71011">
        <ele>190.89396</ele>
        <time>2022-06-18T10:00:57.000Z</time>
      </trkpt>
      <trkpt lat="45.8662" lon="4.71009">
        <ele>190.94343</ele>
        <time>2022-06-18T10:00:58.000Z</time>
      </trkpt>
      <trkpt lat="45.86616" lon="4.71007">
        <ele>190.98665</ele>
        <time>2022-06-18T10:00:59.000Z</time>
      </trkpt>
      <trkpt lat="45.86612" lon="4.71006">
        <ele>191.01616</ele>
        <time>2022-06-18T10:01:00.000Z</time>
      </trkpt>
      <trkpt lat="45.86608" lon="4.71004">
        <ele>191.02354</ele>
        <time>2022-06-18T10:01:01.000Z</time>
      </trkpt>
      <trkpt lat="45.86604" lon="4.71003">
        <ele>191.0169</ele>
        <time>2022-06-18T10:01:02.000Z</time>
      </trkpt>
      <trkpt lat="45.866" lon="4.71001">
        <ele>191.00913</ele>
        <time>2022-06-18T10:01:03.000Z</time>
      </trkpt>
      <trkpt lat="45.86596" lon="4.71">
        <ele>191.02292</ele>
        <time>2022-06-18T10:01:04.000Z</time>
      </trkpt>
      <trkpt lat="45.86592" lon="4.70999">
        <ele>191.06335</ele>
        <time>2022-06-18T10:01:05.000Z</time>
      </trkpt>
      <trkpt lat="45.86588" lon="4.70999">
        <ele>191.11819</ele>
        <time>2022-06-18T10:01:06.000Z</time>
      </trkpt>
      <trkpt lat="45.86585" lon="4.70999">
        <ele>191.18402</ele>
        <time>2022-06-18T10:01:07.000Z</time>
      </trkpt>
      <trkpt lat="45.86582" lon="4.70998">
        <ele>191.25843</ele>
        <time>2022-06-18T10:01:08.000Z</time>
      </trkpt>
      <trkpt lat="45.86578" lon="4.70998">
        <ele>191.35084</ele>
        <time>2022-06-18T10:01:09.000Z</time>
      </trkpt>
      <trkpt lat="45.86575" lon="4.70998">
        <ele>191.45568</ele>
        <time>2022-06-18T10:01:10.000Z</time>
      </trkpt>
      <trkpt lat="45.86571" lon="4.70997">
        <ele>191.57525</ele>
        <time>2022-06-18T10:01:11.000Z</time>
      </trkpt>
      <trkpt lat="45.86568" lon="4.70996">
        <ele>191.72638</ele>
        <time>2022-06-18T10:01:12.000Z</time>
      </trkpt>
      <trkpt lat="45.86564" lon="4.70994">
        <ele>191.88235</ele>
        <time>2022-06-18T10:01:13.000Z</time>
      </trkpt>
      <trkpt lat="45.86561" lon="4.70993">
        <ele>192.01217</ele>
        <time>2022-06-18T10:01:14.000Z</time>
      </trkpt>
      <trkpt lat="45.86559" lon="4.70992">
        <ele>192.12518</ele>
        <time>2022-06-18T10:01:15.000Z</time>
      </trkpt>
      <trkpt lat="45.86556" lon="4.7099">
        <ele>192.21159</ele>
        <time>2022-06-18T10:01:16.000Z</time>
      </trkpt>
      <trkpt lat="45.86553" lon="4.70989">
        <ele>192.28789</ele>
        <time>2022-06-18T10:01:17.000Z</time>
      </trkpt>
      <trkpt lat="45.8655" lon="4.70988">
        <ele>192.33912</ele>
        <time>2022-06-18T10:01:18.000Z</time>
      </trkpt>
      <trkpt lat="45.86546" lon="4.70987">
        <ele>192.38911</ele>
        <time>2022-06-18T10:01:19.000Z</time>
      </trkpt>
      <trkpt lat="45.86542" lon="4.70986">
        <ele>192.42673</ele>
        <time>2022-06-18T10:01:20.000Z</time>
      </trkpt>
      <trkpt lat="45.86539" lon="4.70986">
        <ele>192.45012</ele>
        <time>2022-06-18T10:01:21.000Z</time>
      </trkpt>
      <trkpt lat="45.86535" lon="4.70985">
        <ele>192.46541</ele>
        <time>2022-06-18T10:01:22.000Z</time>
      </trkpt>
      <trkpt lat="45.86532" lon="4.70984">
        <ele>192.47729</ele>
        <time>2022-06-18T10:01:23.000Z</time>
      </trkpt>
      <trkpt lat="45.86529" lon="4.70983">
        <ele>192.4826</ele>
        <time>2022-06-18T10:01:24.000Z</time>
      </trkpt>
      <trkpt lat="45.86525" lon="4.70983">
        <ele>192.48155</ele>
        <time>2022-06-18T10:01:25.000Z</time>
      </trkpt>
      <trkpt lat="45.86521" lon="4.70982">
        <ele>192.46937</ele>
        <time>2022-06-18T10:01:26.000Z</time>
      </trkpt>
      <trkpt lat="45.86517" lon="4.70982">
        <ele>192.45021</ele>
        <time>2022-06-18T10:01:27.000Z</time>
      </trkpt>
      <trkpt lat="45.86513" lon="4.70982">
        <ele>192.42997</ele>
        <time>2022-06-18T10:01:28.000Z</time>
      </trkpt>
      <trkpt lat="45.8651" lon="4.70982">
        <ele>192.41327</ele>
        <time>2022-06-18T10:01:29.000Z</time>
      </trkpt>
      <trkpt lat="45.86506" lon="4.70982">
        <ele>192.3961</ele>
        <time>2022-06-18T10:01:30.000Z</time>
      </trkpt>
      <trkpt lat="45.86503" lon="4.70981">
        <ele>192.38785</ele>
        <time>2022-06-18T10:01:31.000Z</time>
      </trkpt>
      <trkpt lat="45.865" lon="4.70981">
        <ele>192.38054</ele>
        <time>2022-06-18T10:01:32.000Z</time>
      </trkpt>
      <trkpt lat="45.86498" lon="4.7098">
        <ele>192.37486</ele>
        <time>2022-06-18T10:01:33.000Z</time>
      </trkpt>
      <trkpt lat="45.86495" lon="4.70979">
        <ele>192.36171</ele>
        <time>2022-06-18T10:01:34.000Z</time>
      </trkpt>
      <trkpt lat="45.86492" lon="4.70979">
        <ele>192.34934</ele>
        <time>2022-06-18T10:01:35.000Z</time>
      </trkpt>
      <trkpt lat="45.86488" lon="4.70979">
        <ele>192.33234</ele>
        <time>2022-06-18T10:01:36.000Z</time>
      </trkpt>
      <trkpt lat="45.86483" lon="4.7098">
        <ele>192.29781</ele>
        <time>2022-06-18T10:01:37.000Z</time>
      </trkpt>
      <trkpt lat="45.8648" lon="4.70982">
        <ele>192.23797</ele>
        <time>2022-06-18T10:01:38.000Z</time>
      </trkpt>
      <trkpt lat="45.86476" lon="4.70983">
        <ele>192.13122</ele>
        <time>2022-06-18T10:01:39.000Z</time>
      </trkpt>
      <trkpt lat="45.86472" lon="4.70984">
        <ele>191.99679</ele>
        <time>2022-06-18T10:01:40.000Z</time>
      </trkpt>
      <trkpt lat="45.86468" lon="4.70984">
        <ele>191.85621</ele>
        <time>2022-06-18T10:01:41.000Z</time>
      </trkpt>
      <trkpt lat="45.86464" lon="4.70983">
        <ele>191.74386</ele>
        <time>2022-06-18T10:01:42.000Z</time>
      </trkpt>
      <trkpt lat="45.86459" lon="4.70983">
        <ele>191.67702</ele>
        <time>2022-06-18T10:01:43.000Z</time>
      </trkpt>
      <trkpt lat="45.86455" lon="4.70983">
        <ele>191.65114</ele>
        <time>2022-06-18T10:01:44.000Z</time>
      </trkpt>
      <trkpt lat="45.8645" lon="4.70982">
        <ele>191.65827</ele>
        <time>2022-06-18T10:01:45.000Z</time>
      </trkpt>
      <trkpt lat="45.86445" lon="4.70983">
        <ele>191.68555</ele>
        <time>2022-06-18T10:01:46.000Z</time>
      </trkpt>
      <trkpt lat="45.86441" lon="4.70983">
        <ele>191.72394</ele>
        <time>2022-06-18T10:01:47.000Z</time>
      </trkpt>
      <trkpt lat="45.86437" lon="4.70984">
        <ele>191.77183</ele>
        <time>2022-06-18T10:01:48.000Z</time>
      </trkpt>
      <trkpt lat="45.86431" lon="4.70987">
        <ele>191.86982</ele>
        <time>2022-06-18T10:01:49.000Z</time>
      </trkpt>
      <trkpt lat="45.86426" lon="4.70987">
        <ele>192.00533</ele>
        <time>2022-06-18T10:01:50.000Z</time>
      </trkpt>
      <trkpt lat="45.86422" lon="4.70988">
        <ele>192.08269</ele>
        <time>2022-06-18T10:01:51.000Z</time>
      </trkpt>
      <trkpt lat="45.86418" lon="4.7099">
        <ele>192.14329</ele>
        <time>2022-06-18T10:01:52.000Z</time>
      </trkpt>
      <trkpt lat="45.86415" lon="4.70992">
        <ele>192.15557</ele>
        <time>2022-06-18T10:01:53.000Z</time>
      </trkpt>
      <trkpt lat="45.86411" lon="4.70994">
        <ele>192.12494</ele>
        <time>2022-06-18T10:01:54.000Z</time>
      </trkpt>
      <trkpt lat="45.86406" lon="4.70997">
        <ele>192.06085</ele>
        <time>2022-06-18T10:01:55.000Z</time>
      </trkpt>
      <trkpt lat="45.86402" lon="4.70999">
        <ele>191.99047</ele>
        <time>2022-06-18T10:01:56.000Z</time>
      </trkpt>
      <trkpt lat="45.86399" lon="4.71002">
        <ele>191.94757</ele>
        <time>2022-06-18T10:01:57.000Z</time>
      </trkpt>
      <trkpt lat="45.86395" lon="4.71002">
        <ele>191.92916</ele>
        <time>2022-06-18T10:01:58.000Z</time>
      </trkpt>
      <trkpt lat="45.86391" lon="4.71005">
        <ele>191.94536</ele>
        <time>2022-06-18T10:01:59.000Z</time>
      </trkpt>
      <trkpt lat="45.86388" lon="4.71008">
        <ele>192.0158</ele>
        <time>2022-06-18T10:02:00.000Z</time>
      </trkpt>
      <trkpt lat="45.86384" lon="4.7101">
        <ele>192.13317</ele>
        <time>2022-06-18T10:02:01.000Z</time>
      </trkpt>
      <trkpt lat="45.86379" lon="4.71012">
        <ele>192.27455</ele>
        <time>2022-06-18T10:02:02.000Z</time>
      </trkpt>
      <trkpt lat="45.86374" lon="4.71013">
        <ele>192.40681</ele>
        <time>2022-06-18T10:02:03.000Z</time>
      </trkpt>
      <trkpt lat="45.8637" lon="4.71015">
        <ele>192.46876</ele>
        <time>2022-06-18T10:02:04.000Z</time>
      </trkpt>
      <trkpt lat="45.86365" lon="4.71017">
        <ele>192.45104</ele>
        <time>2022-06-18T10:02:05.000Z</time>
      </trkpt>
      <trkpt lat="45.8636" lon="4.71018">
        <ele>192.36459</ele>
        <time>2022-06-18T10:02:06.000Z</time>
      </trkpt>
      <trkpt lat="45.86354" lon="4.71018">
        <ele>192.22161</ele>
        <time>2022-06-18T10:02:07.000Z</time>
      </trkpt>
      <trkpt lat="45.86351" lon="4.71019">
        <ele>192.1642</ele>
        <time>2022-06-18T10:02:08.000Z</time>
      </trkpt>
      <trkpt lat="45.86345" lon="4.71018">
        <ele>192.11867</ele>
        <time>2022-06-18T10:02:09.000Z</time>
      </trkpt>
      <trkpt lat="45.86341" lon="4.71019">
        <ele>192.1119</ele>
        <time>2022-06-18T10:02:10.000Z</time>
      </trkpt>
      <trkpt lat="45.86335" lon="4.71019">
        <ele>192.12471</ele>
        <time>2022-06-18T10:02:11.000Z</time>
      </trkpt>
      <trkpt lat="45.86331" lon="4.71018">
        <ele>192.14891</ele>
        <time>2022-06-18T10:02:12.000Z</time>
      </trkpt>
      <trkpt lat="45.86327" lon="4.71019">
        <ele>192.1972</ele>
        <time>2022-06-18T10:02:13.000Z</time>
      </trkpt>
      <trkpt lat="45.86323" lon="4.71019">
        <ele>192.25761</ele>
        <time>2022-06-18T10:02:14.000Z</time>
      </trkpt>
      <trkpt lat="45.86318" lon="4.71019">
        <ele>192.36473</ele>
        <time>2022-06-18T10:02:15.000Z</time>
      </trkpt>
      <trkpt lat="45.86314" lon="4.71019">
        <ele>192.47111</ele>
        <time>2022-06-18T10:02:16.000Z</time>
      </trkpt>
      <trkpt lat="45.86309" lon="4.71019">
        <ele>192.58983</ele>
        <time>2022-06-18T10:02:17.000Z</time>
      </trkpt>
      <trkpt lat="45.86305" lon="4.71017">
        <ele>192.6678</ele>
        <time>2022-06-18T10:02:18.000Z</time>
      </trkpt>
      <trkpt lat="45.86302" lon="4.7102">
        <ele>192.69471</ele>
        <time>2022-06-18T10:02:19.000Z</time>
      </trkpt>
      <trkpt lat="45.86297" lon="4.7102">
        <ele>192.66299</ele>
        <time>2022-06-18T10:02:20.000Z</time>
      </trkpt>
      <trkpt lat="45.86292" lon="4.71021">
        <ele>192.60061</ele>
        <time>2022-06-18T10:02:21.000Z</time>
      </trkpt>
      <trkpt lat="45.86288" lon="4.71022">
        <ele>192.55425</ele>
        <time>2022-06-18T10:02:22.000Z</time>
      </trkpt>
      <trkpt lat="45.86284" lon="4.71023">
        <ele>192.55824</ele>
        <time>2022-06-18T10:02:23.000Z</time>
      </trkpt>
      <trkpt lat="45.8628" lon="4.71023">
        <ele>192.66261</ele>
        <time>2022-06-18T10:02:24.000Z</time>
      </trkpt>
      <trkpt lat="45.86275" lon="4.71024">
        <ele>192.94174</ele>
        <time>2022-06-18T10:02:25.000Z</time>
      </trkpt>
      <trkpt lat="45.86271" lon="4.71025">
        <ele>193.24989</ele>
        <time>2022-06-18T10:02:26.000Z</time>
      </trkpt>
      <trkpt lat="45.86266" lon="4.71023">
        <ele>193.60781</ele>
        <time>2022-06-18T10:02:27.000Z</time>
      </trkpt>
      <trkpt lat="45.86262" lon="4.71019">
        <ele>193.8909</ele>
        <time>2022-06-18T10:02:28.000Z</time>
      </trkpt>
      <trkpt lat="45.86258" lon="4.71015">
        <ele>194.03045</ele>
        <time>2022-06-18T10:02:29.000Z</time>
      </trkpt>
      <trkpt lat="45.86255" lon="4.71008">
        <ele>193.95837</ele>
        <time>2022-06-18T10:02:30.000Z</time>
      </trkpt>
      <trkpt lat="45.86252" lon="4.71003">
        <ele>193.85536</ele>
        <time>2022-06-18T10:02:31.000Z</time>
      </trkpt>
      <trkpt lat="45.86248" lon="4.70999">
        <ele>193.76478</ele>
        <time>2022-06-18T10:02:32.000Z</time>
      </trkpt>
      <trkpt lat="45.86244" lon="4.70995">
        <ele>193.68089</ele>
        <time>2022-06-18T10:02:33.000Z</time>
      </trkpt>
      <trkpt lat="45.86241" lon="4.70994">
        <ele>193.71105</ele>
        <time>2022-06-18T10:02:34.000Z</time>
      </trkpt>
      <trkpt lat="45.86237" lon="4.70991">
        <ele>193.72138</ele>
        <time>2022-06-18T10:02:35.000Z</time>
      </trkpt>
      <trkpt lat="45.86233" lon="4.70991">
        <ele>193.85796</ele>
        <time>2022-06-18T10:02:36.000Z</time>
      </trkpt>
      <trkpt lat="45.86229" lon="4.70992">
        <ele>194.03566</ele>
        <time>2022-06-18T10:02:37.000Z</time>
      </trkpt>
      <trkpt lat="45.86224" lon="4.70993">
        <ele>194.2603</ele>
        <time>2022-06-18T10:02:38.000Z</time>
      </trkpt>
      <trkpt lat="45.8622" lon="4.70997">
        <ele>194.5041</ele>
        <time>2022-06-18T10:02:39.000Z</time>
      </trkpt>
      <trkpt lat="45.86216" lon="4.71003">
        <ele>194.65512</ele>
        <time>2022-06-18T10:02:40.000Z</time>
      </trkpt>
      <trkpt lat="45.86211" lon="4.71007">
        <ele>194.66165</ele>
        <time>2022-06-18T10:02:41.000Z</time>
      </trkpt>
      <trkpt lat="45.86208" lon="4.71014">
        <ele>194.56725</ele>
        <time>2022-06-18T10:02:42.000Z</time>
      </trkpt>
      <trkpt lat="45.86205" lon="4.7102">
        <ele>194.40395</ele>
        <time>2022-06-18T10:02:43.000Z</time>
      </trkpt>
      <trkpt lat="45.862" lon="4.71026">
        <ele>194.18611</ele>
        <time>2022-06-18T10:02:44.000Z</time>
      </trkpt>
      <trkpt lat="45.86197" lon="4.71029">
        <ele>194.10583</ele>
        <time>2022-06-18T10:02:45.000Z</time>
      </trkpt>
      <trkpt lat="45.86193" lon="4.71032">
        <ele>194.06174</ele>
        <time>2022-06-18T10:02:46.000Z</time>
      </trkpt>
      <trkpt lat="45.86188" lon="4.71036">
        <ele>194.03271</ele>
        <time>2022-06-18T10:02:47.000Z</time>
      </trkpt>
      <trkpt lat="45.86184" lon="4.71038">
        <ele>193.99712</ele>
        <time>2022-06-18T10:02:48.000Z</time>
      </trkpt>
      <trkpt lat="45.86181" lon="4.71043">
        <ele>193.95873</ele>
        <time>2022-06-18T10:02:49.000Z</time>
      </trkpt>
      <trkpt lat="45.86178" lon="4.71047">
        <ele>193.92172</ele>
        <time>2022-06-18T10:02:50.000Z</time>
      </trkpt>
      <trkpt lat="45.86172" lon="4.71046">
        <ele>193.88591</ele>
        <time>2022-06-18T10:02:51.000Z</time>
      </trkpt>
      <trkpt lat="45.86163" lon="4.71048">
        <ele>193.87972</ele>
        <time>2022-06-18T10:02:52.000Z</time>
      </trkpt>
      <trkpt lat="45.86158" lon="4.71049">
        <ele>193.87509</ele>
        <time>2022-06-18T10:02:53.000Z</time>
      </trkpt>
      <trkpt lat="45.86152" lon="4.7105">
        <ele>193.88865</ele>
        <time>2022-06-18T10:02:54.000Z</time>
      </trkpt>
      <trkpt lat="45.86147" lon="4.71051">
        <ele>193.92738</ele>
        <time>2022-06-18T10:02:55.000Z</time>
      </trkpt>
      <trkpt lat="45.86142" lon="4.71054">
        <ele>194.03176</ele>
        <time>2022-06-18T10:02:56.000Z</time>
      </trkpt>
      <trkpt lat="45.86139" lon="4.71063">
        <ele>194.17069</ele>
        <time>2022-06-18T10:02:57.000Z</time>
      </trkpt>
      <trkpt lat="45.86137" lon="4.71069">
        <ele>194.27302</ele>
        <time>2022-06-18T10:02:58.000Z</time>
      </trkpt>
      <trkpt lat="45.86136" lon="4.71076">
        <ele>194.36388</ele>
        <time>2022-06-18T10:02:59.000Z</time>
      </trkpt>
      <trkpt lat="45.86132" lon="4.71083">
        <ele>194.47433</ele>
        <time>2022-06-18T10:03:00.000Z</time>
      </trkpt>
      <trkpt lat="45.8613" lon="4.7109">
        <ele>194.52282</ele>
        <time>2022-06-18T10:03:01.000Z</time>
      </trkpt>
      <trkpt lat="45.86128" lon="4.71096">
        <ele>194.54213</ele>
        <time>2022-06-18T10:03:02.000Z</time>
      </trkpt>
      <trkpt lat="45.86127" lon="4.71102">
        <ele>194.49112</ele>
        <time>2022-06-18T10:03:03.000Z</time>
      </trkpt>
      <trkpt lat="45.86127" lon="4.71107">
        <ele>194.46467</ele>
        <time>2022-06-18T10:03:04.000Z</time>
      </trkpt>
      <trkpt lat="45.86127" lon="4.71112">
        <ele>194.44427</ele>
        <time>2022-06-18T10:03:05.000Z</time>
      </trkpt>
      <trkpt lat="45.86125" lon="4.71114">
        <ele>194.45397</ele>
        <time>2022-06-18T10:03:06.000Z</time>
      </trkpt>
      <trkpt lat="45.86123" lon="4.71119">
        <ele>194.46071</ele>
        <time>2022-06-18T10:03:07.000Z</time>
      </trkpt>
      <trkpt lat="45.86121" lon="4.71123">
        <ele>194.47866</ele>
        <time>2022-06-18T10:03:08.000Z</time>
      </trkpt>
      <trkpt lat="45.86117" lon="4.71126">
        <ele>194.50285</ele>
        <time>2022-06-18T10:03:09.000Z</time>
      </trkpt>
      <trkpt lat="45.86115" lon="4.7113">
        <ele>194.51434</ele>
        <time>2022-06-18T10:03:10.000Z</time>
      </trkpt>
      <trkpt lat="45.86114" lon="4.71135">
        <ele>194.52759</ele>
        <time>2022-06-18T10:03:11.000Z</time>
      </trkpt>
      <trkpt lat="45.86113" lon="4.71137">
        <ele>194.53384</ele>
        <time>2022-06-18T10:03:12.000Z</time>
      </trkpt>
      <trkpt lat="45.86111" lon="4.71139">
        <ele>194.53675</ele>
        <time>2022-06-18T10:03:14.000Z</time>
      </trkpt>
      <trkpt lat="45.8611" lon="4.71142">
        <ele>194.53843</ele>
        <time>2022-06-18T10:03:15.000Z</time>
      </trkpt>
      <trkpt lat="45.86108" lon="4.71144">
        <ele>194.54083</ele>
        <time>2022-06-18T10:03:16.000Z</time>
      </trkpt>
      <trkpt lat="45.86106" lon="4.71145">
        <ele>194.54488</ele>
        <time>2022-06-18T10:03:17.000Z</time>
      </trkpt>
      <trkpt lat="45.86104" lon="4.71146">
        <ele>194.5527</ele>
        <time>2022-06-18T10:03:18.000Z</time>
      </trkpt>
      <trkpt lat="45.86101" lon="4.71145">
        <ele>194.56859</ele>
        <time>2022-06-18T10:03:20.000Z</time>
      </trkpt>
      <trkpt lat="45.86098" lon="4.71144">
        <ele>194.5944</ele>
        <time>2022-06-18T10:03:23.000Z</time>
      </trkpt>
      <trkpt lat="45.86096" lon="4.71144">
        <ele>194.63562</ele>
        <time>2022-06-18T10:03:27.000Z</time>
      </trkpt>
      <trkpt lat="45.86096" lon="4.71147">
        <ele>194.65973</ele>
        <time>2022-06-18T10:03:59.000Z</time>
      </trkpt>
      <trkpt lat="45.86094" lon="4.71147">
        <ele>194.71162</ele>
        <time>2022-06-18T10:04:04.000Z</time>
      </trkpt>
      <trkpt lat="45.86095" lon="4.71151">
        <ele>194.75404</ele>
        <time>2022-06-18T10:05:24.000Z</time>
      </trkpt>
      <trkpt lat="45.86094" lon="4.71155">
        <ele>194.82963</ele>
        <time>2022-06-18T10:05:25.000Z</time>
      </trkpt>
      <trkpt lat="45.8609" lon="4.7116">
        <ele>195.08457</ele>
        <time>2022-06-18T10:05:26.000Z</time>
      </trkpt>
      <trkpt lat="45.86088" lon="4.71165">
        <ele>195.32013</ele>
        <time>2022-06-18T10:05:27.000Z</time>
      </trkpt>
      <trkpt lat="45.86086" lon="4.7117">
        <ele>195.54773</ele>
        <time>2022-06-18T10:05:28.000Z</time>
      </trkpt>
      <trkpt lat="45.86084" lon="4.71174">
        <ele>195.73062</ele>
        <time>2022-06-18T10:05:29.000Z</time>
      </trkpt>
      <trkpt lat="45.86083" lon="4.71178">
        <ele>195.79741</ele>
        <time>2022-06-18T10:05:30.000Z</time>
      </trkpt>
      <trkpt lat="45.86081" lon="4.71182">
        <ele>195.86036</ele>
        <time>2022-06-18T10:05:31.000Z</time>
      </trkpt>
      <trkpt lat="45.86081" lon="4.71186">
        <ele>195.85605</ele>
        <time>2022-06-18T10:05:32.000Z</time>
      </trkpt>
      <trkpt lat="45.86081" lon="4.7119">
        <ele>195.81744</ele>
        <time>2022-06-18T10:05:33.000Z</time>
      </trkpt>
      <trkpt lat="45.86081" lon="4.71196">
        <ele>195.7561</ele>
        <time>2022-06-18T10:05:34.000Z</time>
      </trkpt>
      <trkpt lat="45.86081" lon="4.71202">
        <ele>195.68918</ele>
        <time>2022-06-18T10:05:35.000Z</time>
      </trkpt>
      <trkpt lat="45.86081" lon="4.71207">
        <ele>195.62869</ele>
        <time>2022-06-18T10:05:36.000Z</time>
      </trkpt>
      <trkpt lat="45.8608" lon="4.71212">
        <ele>195.57293</ele>
        <time>2022-06-18T10:05:37.000Z</time>
      </trkpt>
      <trkpt lat="45.86079" lon="4.71217">
        <ele>195.51842</ele>
        <time>2022-06-18T10:05:38.000Z</time>
      </trkpt>
      <trkpt lat="45.8608" lon="4.71223">
        <ele>195.39052</ele>
        <time>2022-06-18T10:05:39.000Z</time>
      </trkpt>
      <trkpt lat="45.8608" lon="4.71231">
        <ele>195.22063</ele>
        <time>2022-06-18T10:05:40.000Z</time>
      </trkpt>
      <trkpt lat="45.8608" lon="4.71239">
        <ele>194.99967</ele>
        <time>2022-06-18T10:05:41.000Z</time>
      </trkpt>
      <trkpt lat="45.86078" lon="4.71246">
        <ele>194.59547</ele>
        <time>2022-06-18T10:05:42.000Z</time>
      </trkpt>
      <trkpt lat="45.86076" lon="4.71252">
        <ele>194.11267</ele>
        <time>2022-06-18T10:05:43.000Z</time>
      </trkpt>
      <trkpt lat="45.86073" lon="4.71257">
        <ele>193.73985</ele>
        <time>2022-06-18T10:05:44.000Z</time>
      </trkpt>
      <trkpt lat="45.86068" lon="4.71261">
        <ele>193.59804</ele>
        <time>2022-06-18T10:05:45.000Z</time>
      </trkpt>
      <trkpt lat="45.86064" lon="4.71262">
        <ele>193.71271</ele>
        <time>2022-06-18T10:05:46.000Z</time>
      </trkpt>
      <trkpt lat="45.86062" lon="4.71263">
        <ele>193.86886</ele>
        <time>2022-06-18T10:05:47.000Z</time>
      </trkpt>
      <trkpt lat="45.8606" lon="4.71263">
        <ele>194.01222</ele>
        <time>2022-06-18T10:05:48.000Z</time>
      </trkpt>
      <trkpt lat="45.86057" lon="4.71264">
        <ele>194.16656</ele>
        <time>2022-06-18T10:05:55.000Z</time>
      </trkpt>
      <trkpt lat="45.86054" lon="4.71265">
        <ele>194.31291</ele>
        <time>2022-06-18T10:05:56.000Z</time>
      </trkpt>
      <trkpt lat="45.86051" lon="4.71267">
        <ele>194.44595</ele>
        <time>2022-06-18T10:05:57.000Z</time>
      </trkpt>
      <trkpt lat="45.86047" lon="4.71268">
        <ele>194.54048</ele>
        <time>2022-06-18T10:05:58.000Z</time>
      </trkpt>
      <trkpt lat="45.86044" lon="4.71268">
        <ele>194.62201</ele>
        <time>2022-06-18T10:05:59.000Z</time>
      </trkpt>
      <trkpt lat="45.8604" lon="4.71267">
        <ele>194.69076</ele>
        <time>2022-06-18T10:06:00.000Z</time>
      </trkpt>
      <trkpt lat="45.86037" lon="4.71266">
        <ele>194.75618</ele>
        <time>2022-06-18T10:06:01.000Z</time>
      </trkpt>
      <trkpt lat="45.86035" lon="4.71266">
        <ele>194.79019</ele>
        <time>2022-06-18T10:06:02.000Z</time>
      </trkpt>
      <trkpt lat="45.86034" lon="4.71269">
        <ele>194.77736</ele>
        <time>2022-06-18T10:06:04.000Z</time>
      </trkpt>
      <trkpt lat="45.86035" lon="4.71273">
        <ele>194.78321</ele>
        <time>2022-06-18T10:06:05.000Z</time>
      </trkpt>
      <trkpt lat="45.86036" lon="4.71277">
        <ele>194.82645</ele>
        <time>2022-06-18T10:06:06.000Z</time>
      </trkpt>
      <trkpt lat="45.86036" lon="4.71279">
        <ele>194.87742</ele>
        <time>2022-06-18T10:06:07.000Z</time>
      </trkpt>
      <trkpt lat="45.86036" lon="4.71283">
        <ele>194.9793</ele>
        <time>2022-06-18T10:06:09.000Z</time>
      </trkpt>
      <trkpt lat="45.86032" lon="4.71284">
        <ele>195.01504</ele>
        <time>2022-06-18T10:06:11.000Z</time>
      </trkpt>
      <trkpt lat="45.8603" lon="4.71284">
        <ele>195.0201</ele>
        <time>2022-06-18T10:06:12.000Z</time>
      </trkpt>
      <trkpt lat="45.86028" lon="4.71283">
        <ele>195.02027</ele>
        <time>2022-06-18T10:06:13.000Z</time>
      </trkpt>
      <trkpt lat="45.86025" lon="4.71282">
        <ele>195.03099</ele>
        <time>2022-06-18T10:06:15.000Z</time>
      </trkpt>
      <trkpt lat="45.86022" lon="4.71283">
        <ele>195.05296</ele>
        <time>2022-06-18T10:06:17.000Z</time>
      </trkpt>
      <trkpt lat="45.86021" lon="4.71285">
        <ele>195.11573</ele>
        <time>2022-06-18T10:06:21.000Z</time>
      </trkpt>
      <trkpt lat="45.86019" lon="4.71287">
        <ele>195.1655</ele>
        <time>2022-06-18T10:06:29.000Z</time>
      </trkpt>
      <trkpt lat="45.86018" lon="4.71285">
        <ele>195.13001</ele>
        <time>2022-06-18T10:06:42.000Z</time>
      </trkpt>
      <trkpt lat="45.86017" lon="4.71282">
        <ele>195.08107</ele>
        <time>2022-06-18T10:06:52.000Z</time>
      </trkpt>
      <trkpt lat="45.86014" lon="4.71283">
        <ele>195.13352</ele>
        <time>2022-06-18T10:06:55.000Z</time>
      </trkpt>
      <trkpt lat="45.86011" lon="4.71284">
        <ele>195.18092</ele>
        <time>2022-06-18T10:06:56.000Z</time>
      </trkpt>
      <trkpt lat="45.86009" lon="4.71286">
        <ele>195.23232</ele>
        <time>2022-06-18T10:06:57.000Z</time>
      </trkpt>
      <trkpt lat="45.86006" lon="4.71287">
        <ele>195.28831</ele>
        <time>2022-06-18T10:06:58.000Z</time>
      </trkpt>
      <trkpt lat="45.86003" lon="4.71288">
        <ele>195.34996</ele>
        <time>2022-06-18T10:06:59.000Z</time>
      </trkpt>
      <trkpt lat="45.86" lon="4.71289">
        <ele>195.40363</ele>
        <time>2022-06-18T10:07:00.000Z</time>
      </trkpt>
      <trkpt lat="45.85997" lon="4.7129">
        <ele>195.45227</ele>
        <time>2022-06-18T10:07:01.000Z</time>
      </trkpt>
      <trkpt lat="45.85993" lon="4.7129">
        <ele>195.49368</ele>
        <time>2022-06-18T10:07:02.000Z</time>
      </trkpt>
      <trkpt lat="45.85989" lon="4.71289">
        <ele>195.52842</ele>
        <time>2022-06-18T10:07:03.000Z</time>
      </trkpt>
      <trkpt lat="45.85985" lon="4.71289">
        <ele>195.5634</ele>
        <time>2022-06-18T10:07:04.000Z</time>
      </trkpt>
      <trkpt lat="45.85981" lon="4.71288">
        <ele>195.60081</ele>
        <time>2022-06-18T10:07:05.000Z</time>
      </trkpt>
      <trkpt lat="45.85976" lon="4.71288">
        <ele>195.64673</ele>
        <time>2022-06-18T10:07:06.000Z</time>
      </trkpt>
      <trkpt lat="45.85972" lon="4.71288">
        <ele>195.69019</ele>
        <time>2022-06-18T10:07:07.000Z</time>
      </trkpt>
      <trkpt lat="45.85968" lon="4.71288">
        <ele>195.73338</ele>
        <time>2022-06-18T10:07:08.000Z</time>
      </trkpt>
      <trkpt lat="45.85964" lon="4.71288">
        <ele>195.76574</ele>
        <time>2022-06-18T10:07:09.000Z</time>
      </trkpt>
      <trkpt lat="45.85959" lon="4.71288">
        <ele>195.79012</ele>
        <time>2022-06-18T10:07:10.000Z</time>
      </trkpt>
      <trkpt lat="45.85955" lon="4.71288">
        <ele>195.80642</ele>
        <time>2022-06-18T10:07:11.000Z</time>
      </trkpt>
      <trkpt lat="45.85951" lon="4.71287">
        <ele>195.81395</ele>
        <time>2022-06-18T10:07:12.000Z</time>
      </trkpt>
      <trkpt lat="45.85947" lon="4.71287">
        <ele>195.8213</ele>
        <time>2022-06-18T10:07:13.000Z</time>
      </trkpt>
      <trkpt lat="45.85943" lon="4.71287">
        <ele>195.83155</ele>
        <time>2022-06-18T10:07:14.000Z</time>
      </trkpt>
      <trkpt lat="45.85939" lon="4.71288">
        <ele>195.84131</ele>
        <time>2022-06-18T10:07:15.000Z</time>
      </trkpt>
      <trkpt lat="45.85935" lon="4.71289">
        <ele>195.85047</ele>
        <time>2022-06-18T10:07:16.000Z</time>
      </trkpt>
      <trkpt lat="45.85932" lon="4.71289">
        <ele>195.85483</ele>
        <time>2022-06-18T10:07:17.000Z</time>
      </trkpt>
      <trkpt lat="45.85929" lon="4.7129">
        <ele>195.86526</ele>
        <time>2022-06-18T10:07:18.000Z</time>
      </trkpt>
      <trkpt lat="45.85927" lon="4.71291">
        <ele>195.87912</ele>
        <time>2022-06-18T10:07:19.000Z</time>
      </trkpt>
      <trkpt lat="45.85925" lon="4.71292">
        <ele>195.89571</ele>
        <time>2022-06-18T10:07:20.000Z</time>
      </trkpt>
      <trkpt lat="45.85922" lon="4.71294">
        <ele>195.92786</ele>
        <time>2022-06-18T10:07:22.000Z</time>
      </trkpt>
      <trkpt lat="45.85924" lon="4.71292">
        <ele>195.89614</ele>
        <time>2022-06-18T10:07:31.000Z</time>
      </trkpt>
      <trkpt lat="45.85921" lon="4.71292">
        <ele>195.91123</ele>
        <time>2022-06-18T10:07:39.000Z</time>
      </trkpt>
      <trkpt lat="45.85919" lon="4.71294">
        <ele>195.95004</ele>
        <time>2022-06-18T10:07:41.000Z</time>
      </trkpt>
      <trkpt lat="45.85918" lon="4.71296">
        <ele>196.00099</ele>
        <time>2022-06-18T10:07:45.000Z</time>
      </trkpt>
      <trkpt lat="45.85918" lon="4.71298">
        <ele>196.0412</ele>
        <time>2022-06-18T10:07:54.000Z</time>
      </trkpt>
      <trkpt lat="45.85917" lon="4.713">
        <ele>196.0903</ele>
        <time>2022-06-18T10:07:56.000Z</time>
      </trkpt>
      <trkpt lat="45.85915" lon="4.71299">
        <ele>196.10426</ele>
        <time>2022-06-18T10:07:59.000Z</time>
      </trkpt>
      <trkpt lat="45.85917" lon="4.71301">
        <ele>196.10826</ele>
        <time>2022-06-18T10:08:04.000Z</time>
      </trkpt>
      <trkpt lat="45.85917" lon="4.71304">
        <ele>196.20734</ele>
        <time>2022-06-18T10:08:08.000Z</time>
      </trkpt>
      <trkpt lat="45.85916" lon="4.71307">
        <ele>196.29467</ele>
        <time>2022-06-18T10:08:09.000Z</time>
      </trkpt>
      <trkpt lat="45.85911" lon="4.71312">
        <ele>196.51025</ele>
        <time>2022-06-18T10:08:11.000Z</time>
      </trkpt>
      <trkpt lat="45.85907" lon="4.71317">
        <ele>196.66223</ele>
        <time>2022-06-18T10:08:13.000Z</time>
      </trkpt>
      <trkpt lat="45.85906" lon="4.71319">
        <ele>196.72262</ele>
        <time>2022-06-18T10:08:14.000Z</time>
      </trkpt>
      <trkpt lat="45.85904" lon="4.71322">
        <ele>196.77781</ele>
        <time>2022-06-18T10:08:15.000Z</time>
      </trkpt>
      <trkpt lat="45.85902" lon="4.71324">
        <ele>196.8266</ele>
        <time>2022-06-18T10:08:16.000Z</time>
      </trkpt>
      <trkpt lat="45.85899" lon="4.71329">
        <ele>196.94027</ele>
        <time>2022-06-18T10:08:18.000Z</time>
      </trkpt>
      <trkpt lat="45.85897" lon="4.71331">
        <ele>197.02552</ele>
        <time>2022-06-18T10:08:19.000Z</time>
      </trkpt>
      <trkpt lat="45.85895" lon="4.71333">
        <ele>197.11483</ele>
        <time>2022-06-18T10:08:20.000Z</time>
      </trkpt>
      <trkpt lat="45.85894" lon="4.71335">
        <ele>197.21046</ele>
        <time>2022-06-18T10:08:21.000Z</time>
      </trkpt>
      <trkpt lat="45.85891" lon="4.71339">
        <ele>197.40841</ele>
        <time>2022-06-18T10:08:23.000Z</time>
      </trkpt>
      <trkpt lat="45.85889" lon="4.71342">
        <ele>197.6083</ele>
        <time>2022-06-18T10:08:25.000Z</time>
      </trkpt>
      <trkpt lat="45.85889" lon="4.71346">
        <ele>197.7306</ele>
        <time>2022-06-18T10:08:29.000Z</time>
      </trkpt>
      <trkpt lat="45.85887" lon="4.71349">
        <ele>197.85131</ele>
        <time>2022-06-18T10:08:30.000Z</time>
      </trkpt>
      <trkpt lat="45.85885" lon="4.71352">
        <ele>197.99502</ele>
        <time>2022-06-18T10:08:31.000Z</time>
      </trkpt>
      <trkpt lat="45.85881" lon="4.71353">
        <ele>198.1008</ele>
        <time>2022-06-18T10:08:32.000Z</time>
      </trkpt>
      <trkpt lat="45.85878" lon="4.71355">
        <ele>198.18174</ele>
        <time>2022-06-18T10:08:33.000Z</time>
      </trkpt>
      <trkpt lat="45.85875" lon="4.71357">
        <ele>198.23474</ele>
        <time>2022-06-18T10:08:34.000Z</time>
      </trkpt>
      <trkpt lat="45.85872" lon="4.7136">
        <ele>198.26564</ele>
        <time>2022-06-18T10:08:35.000Z</time>
      </trkpt>
      <trkpt lat="45.85869" lon="4.71364">
        <ele>198.28851</ele>
        <time>2022-06-18T10:08:36.000Z</time>
      </trkpt>
      <trkpt lat="45.85865" lon="4.71368">
        <ele>198.30064</ele>
        <time>2022-06-18T10:08:37.000Z</time>
      </trkpt>
      <trkpt lat="45.85862" lon="4.71373">
        <ele>198.31125</ele>
        <time>2022-06-18T10:08:38.000Z</time>
      </trkpt>
      <trkpt lat="45.8586" lon="4.71377">
        <ele>198.3295</ele>
        <time>2022-06-18T10:08:39.000Z</time>
      </trkpt>
      <trkpt lat="45.85857" lon="4.7138">
        <ele>198.36051</ele>
        <time>2022-06-18T10:08:40.000Z</time>
      </trkpt>
      <trkpt lat="45.85855" lon="4.71384">
        <ele>198.40469</ele>
        <time>2022-06-18T10:08:41.000Z</time>
      </trkpt>
      <trkpt lat="45.85853" lon="4.71387">
        <ele>198.46603</ele>
        <time>2022-06-18T10:08:42.000Z</time>
      </trkpt>
      <trkpt lat="45.85851" lon="4.71391">
        <ele>198.5582</ele>
        <time>2022-06-18T10:08:43.000Z</time>
      </trkpt>
      <trkpt lat="45.85848" lon="4.71394">
        <ele>198.69157</ele>
        <time>2022-06-18T10:08:44.000Z</time>
      </trkpt>
      <trkpt lat="45.85846" lon="4.71398">
        <ele>198.86748</ele>
        <time>2022-06-18T10:08:45.000Z</time>
      </trkpt>
      <trkpt lat="45.85843" lon="4.71402">
        <ele>199.10141</ele>
        <time>2022-06-18T10:08:46.000Z</time>
      </trkpt>
      <trkpt lat="45.85839" lon="4.71407">
        <ele>199.39785</ele>
        <time>2022-06-18T10:08:47.000Z</time>
      </trkpt>
      <trkpt lat="45.85837" lon="4.71411">
        <ele>199.67388</ele>
        <time>2022-06-18T10:08:48.000Z</time>
      </trkpt>
      <trkpt lat="45.85834" lon="4.71414">
        <ele>199.97276</ele>
        <time>2022-06-18T10:08:49.000Z</time>
      </trkpt>
      <trkpt lat="45.85831" lon="4.71417">
        <ele>200.30588</ele>
        <time>2022-06-18T10:08:50.000Z</time>
      </trkpt>
      <trkpt lat="45.85828" lon="4.71421">
        <ele>200.66197</ele>
        <time>2022-06-18T10:08:51.000Z</time>
      </trkpt>
      <trkpt lat="45.85827" lon="4.71425">
        <ele>201.05229</ele>
        <time>2022-06-18T10:08:52.000Z</time>
      </trkpt>
      <trkpt lat="45.85826" lon="4.7143">
        <ele>201.49174</ele>
        <time>2022-06-18T10:08:53.000Z</time>
      </trkpt>
      <trkpt lat="45.85826" lon="4.71435">
        <ele>201.957</ele>
        <time>2022-06-18T10:08:54.000Z</time>
      </trkpt>
      <trkpt lat="45.85826" lon="4.71441">
        <ele>202.51429</ele>
        <time>2022-06-18T10:08:55.000Z</time>
      </trkpt>
      <trkpt lat="45.85826" lon="4.71446">
        <ele>203.06842</ele>
        <time>2022-06-18T10:08:56.000Z</time>
      </trkpt>
      <trkpt lat="45.85828" lon="4.71458">
        <ele>204.23298</ele>
        <time>2022-06-18T10:08:58.000Z</time>
      </trkpt>
      <trkpt lat="45.8583" lon="4.71464">
        <ele>204.96802</ele>
        <time>2022-06-18T10:08:59.000Z</time>
      </trkpt>
      <trkpt lat="45.85831" lon="4.7147">
        <ele>205.70775</ele>
        <time>2022-06-18T10:09:00.000Z</time>
      </trkpt>
      <trkpt lat="45.85833" lon="4.71476">
        <ele>206.43664</ele>
        <time>2022-06-18T10:09:01.000Z</time>
      </trkpt>
      <trkpt lat="45.85835" lon="4.71481">
        <ele>207.122</ele>
        <time>2022-06-18T10:09:02.000Z</time>
      </trkpt>
      <trkpt lat="45.85837" lon="4.71486">
        <ele>207.7556</ele>
        <time>2022-06-18T10:09:03.000Z</time>
      </trkpt>
      <trkpt lat="45.85839" lon="4.71492">
        <ele>208.46452</ele>
        <time>2022-06-18T10:09:04.000Z</time>
      </trkpt>
      <trkpt lat="45.85841" lon="4.71497">
        <ele>209.26402</ele>
        <time>2022-06-18T10:09:05.000Z</time>
      </trkpt>
      <trkpt lat="45.85844" lon="4.71501">
        <ele>209.80909</ele>
        <time>2022-06-18T10:09:06.000Z</time>
      </trkpt>
      <trkpt lat="45.85846" lon="4.71505">
        <ele>210.27481</ele>
        <time>2022-06-18T10:09:07.000Z</time>
      </trkpt>
      <trkpt lat="45.85848" lon="4.71509">
        <ele>210.76994</ele>
        <time>2022-06-18T10:09:08.000Z</time>
      </trkpt>
      <trkpt lat="45.8585" lon="4.71513">
        <ele>211.16084</ele>
        <time>2022-06-18T10:09:09.000Z</time>
      </trkpt>
      <trkpt lat="45.85852" lon="4.71516">
        <ele>211.46108</ele>
        <time>2022-06-18T10:09:10.000Z</time>
      </trkpt>
      <trkpt lat="45.85854" lon="4.71519">
        <ele>211.70901</ele>
        <time>2022-06-18T10:09:11.000Z</time>
      </trkpt>
      <trkpt lat="45.85855" lon="4.71522">
        <ele>211.95845</ele>
        <time>2022-06-18T10:09:12.000Z</time>
      </trkpt>
      <trkpt lat="45.85857" lon="4.71525">
        <ele>212.2941</ele>
        <time>2022-06-18T10:09:13.000Z</time>
      </trkpt>
      <trkpt lat="45.85859" lon="4.71529">
        <ele>212.77945</ele>
        <time>2022-06-18T10:09:14.000Z</time>
      </trkpt>
      <trkpt lat="45.8586" lon="4.71534">
        <ele>213.44595</ele>
        <time>2022-06-18T10:09:15.000Z</time>
      </trkpt>
      <trkpt lat="45.85861" lon="4.71538">
        <ele>214.1893</ele>
        <time>2022-06-18T10:09:16.000Z</time>
      </trkpt>
      <trkpt lat="45.85863" lon="4.71547">
        <ele>215.66616</ele>
        <time>2022-06-18T10:09:18.000Z</time>
      </trkpt>
      <trkpt lat="45.85864" lon="4.71551">
        <ele>216.22914</ele>
        <time>2022-06-18T10:09:19.000Z</time>
      </trkpt>
      <trkpt lat="45.85864" lon="4.71555">
        <ele>216.72643</ele>
        <time>2022-06-18T10:09:20.000Z</time>
      </trkpt>
      <trkpt lat="45.85865" lon="4.71559">
        <ele>217.03448</ele>
        <time>2022-06-18T10:09:21.000Z</time>
      </trkpt>
      <trkpt lat="45.85865" lon="4.71562">
        <ele>217.23652</ele>
        <time>2022-06-18T10:09:22.000Z</time>
      </trkpt>
      <trkpt lat="45.85866" lon="4.71566">
        <ele>217.36319</ele>
        <time>2022-06-18T10:09:23.000Z</time>
      </trkpt>
      <trkpt lat="45.85867" lon="4.71569">
        <ele>217.39856</ele>
        <time>2022-06-18T10:09:24.000Z</time>
      </trkpt>
      <trkpt lat="45.85868" lon="4.71574">
        <ele>217.50283</ele>
        <time>2022-06-18T10:09:25.000Z</time>
      </trkpt>
      <trkpt lat="45.85869" lon="4.71582">
        <ele>217.79487</ele>
        <time>2022-06-18T10:09:27.000Z</time>
      </trkpt>
      <trkpt lat="45.8587" lon="4.71585">
        <ele>217.94213</ele>
        <time>2022-06-18T10:09:28.000Z</time>
      </trkpt>
      <trkpt lat="45.85871" lon="4.71589">
        <ele>218.18599</ele>
        <time>2022-06-18T10:09:29.000Z</time>
      </trkpt>
      <trkpt lat="45.85872" lon="4.71594">
        <ele>218.37333</ele>
        <time>2022-06-18T10:09:30.000Z</time>
      </trkpt>
      <trkpt lat="45.85873" lon="4.71599">
        <ele>218.6491</ele>
        <time>2022-06-18T10:09:31.000Z</time>
      </trkpt>
      <trkpt lat="45.85874" lon="4.71604">
        <ele>218.99002</ele>
        <time>2022-06-18T10:09:32.000Z</time>
      </trkpt>
      <trkpt lat="45.85876" lon="4.71614">
        <ele>219.69249</ele>
        <time>2022-06-18T10:09:34.000Z</time>
      </trkpt>
      <trkpt lat="45.85877" lon="4.71618">
        <ele>219.97</ele>
        <time>2022-06-18T10:09:35.000Z</time>
      </trkpt>
      <trkpt lat="45.85878" lon="4.7162">
        <ele>220.15857</ele>
        <time>2022-06-18T10:09:36.000Z</time>
      </trkpt>
      <trkpt lat="45.8588" lon="4.71623">
        <ele>220.2015</ele>
        <time>2022-06-18T10:09:37.000Z</time>
      </trkpt>
      <trkpt lat="45.85882" lon="4.71626">
        <ele>220.26929</ele>
        <time>2022-06-18T10:09:38.000Z</time>
      </trkpt>
      <trkpt lat="45.85884" lon="4.71629">
        <ele>220.42517</ele>
        <time>2022-06-18T10:09:39.000Z</time>
      </trkpt>
      <trkpt lat="45.85886" lon="4.71634">
        <ele>220.77713</ele>
        <time>2022-06-18T10:09:40.000Z</time>
      </trkpt>
      <trkpt lat="45.85887" lon="4.71639">
        <ele>221.29236</ele>
        <time>2022-06-18T10:09:41.000Z</time>
      </trkpt>
      <trkpt lat="45.85889" lon="4.71644">
        <ele>221.90425</ele>
        <time>2022-06-18T10:09:42.000Z</time>
      </trkpt>
      <trkpt lat="45.8589" lon="4.71649">
        <ele>222.51831</ele>
        <time>2022-06-18T10:09:43.000Z</time>
      </trkpt>
      <trkpt lat="45.85891" lon="4.71654">
        <ele>223.06637</ele>
        <time>2022-06-18T10:09:44.000Z</time>
      </trkpt>
      <trkpt lat="45.85892" lon="4.71659">
        <ele>223.51133</ele>
        <time>2022-06-18T10:09:45.000Z</time>
      </trkpt>
      <trkpt lat="45.85894" lon="4.71663">
        <ele>223.91344</ele>
        <time>2022-06-18T10:09:46.000Z</time>
      </trkpt>
      <trkpt lat="45.85895" lon="4.71668">
        <ele>224.3256</ele>
        <time>2022-06-18T10:09:47.000Z</time>
      </trkpt>
      <trkpt lat="45.85896" lon="4.71672">
        <ele>224.70548</ele>
        <time>2022-06-18T10:09:48.000Z</time>
      </trkpt>
      <trkpt lat="45.85897" lon="4.71676">
        <ele>225.09991</ele>
        <time>2022-06-18T10:09:49.000Z</time>
      </trkpt>
      <trkpt lat="45.85898" lon="4.7168">
        <ele>225.456</ele>
        <time>2022-06-18T10:09:50.000Z</time>
      </trkpt>
      <trkpt lat="45.85899" lon="4.71683">
        <ele>225.74828</ele>
        <time>2022-06-18T10:09:51.000Z</time>
      </trkpt>
      <trkpt lat="45.859" lon="4.71687">
        <ele>226.10817</ele>
        <time>2022-06-18T10:09:52.000Z</time>
      </trkpt>
      <trkpt lat="45.859" lon="4.71691">
        <ele>226.5527</ele>
        <time>2022-06-18T10:09:53.000Z</time>
      </trkpt>
      <trkpt lat="45.85901" lon="4.71701">
        <ele>227.76598</ele>
        <time>2022-06-18T10:09:55.000Z</time>
      </trkpt>
      <trkpt lat="45.85901" lon="4.71706">
        <ele>228.3749</ele>
        <time>2022-06-18T10:09:56.000Z</time>
      </trkpt>
      <trkpt lat="45.859" lon="4.7171">
        <ele>228.98222</ele>
        <time>2022-06-18T10:09:57.000Z</time>
      </trkpt>
      <trkpt lat="45.859" lon="4.71714">
        <ele>229.48519</ele>
        <time>2022-06-18T10:09:58.000Z</time>
      </trkpt>
      <trkpt lat="45.85899" lon="4.71718">
        <ele>230.10074</ele>
        <time>2022-06-18T10:09:59.000Z</time>
      </trkpt>
      <trkpt lat="45.85898" lon="4.71723">
        <ele>230.74251</ele>
        <time>2022-06-18T10:10:00.000Z</time>
      </trkpt>
      <trkpt lat="45.85896" lon="4.71727">
        <ele>231.28636</ele>
        <time>2022-06-18T10:10:01.000Z</time>
      </trkpt>
      <trkpt lat="45.85895" lon="4.71731">
        <ele>231.7491</ele>
        <time>2022-06-18T10:10:02.000Z</time>
      </trkpt>
      <trkpt lat="45.85893" lon="4.71735">
        <ele>232.08802</ele>
        <time>2022-06-18T10:10:03.000Z</time>
      </trkpt>
      <trkpt lat="45.85892" lon="4.71738">
        <ele>232.38764</ele>
        <time>2022-06-18T10:10:04.000Z</time>
      </trkpt>
      <trkpt lat="45.8589" lon="4.71742">
        <ele>232.713</ele>
        <time>2022-06-18T10:10:05.000Z</time>
      </trkpt>
      <trkpt lat="45.85888" lon="4.71746">
        <ele>232.98832</ele>
        <time>2022-06-18T10:10:06.000Z</time>
      </trkpt>
      <trkpt lat="45.85886" lon="4.7175">
        <ele>233.26837</ele>
        <time>2022-06-18T10:10:07.000Z</time>
      </trkpt>
      <trkpt lat="45.85883" lon="4.71754">
        <ele>233.52723</ele>
        <time>2022-06-18T10:10:08.000Z</time>
      </trkpt>
      <trkpt lat="45.85882" lon="4.71758">
        <ele>233.79298</ele>
        <time>2022-06-18T10:10:09.000Z</time>
      </trkpt>
      <trkpt lat="45.8588" lon="4.71761">
        <ele>234.04254</ele>
        <time>2022-06-18T10:10:10.000Z</time>
      </trkpt>
      <trkpt lat="45.8588" lon="4.71765">
        <ele>234.30702</ele>
        <time>2022-06-18T10:10:11.000Z</time>
      </trkpt>
      <trkpt lat="45.8588" lon="4.71769">
        <ele>234.5869</ele>
        <time>2022-06-18T10:10:12.000Z</time>
      </trkpt>
      <trkpt lat="45.85881" lon="4.71773">
        <ele>234.89069</ele>
        <time>2022-06-18T10:10:13.000Z</time>
      </trkpt>
      <trkpt lat="45.85882" lon="4.71777">
        <ele>235.15892</ele>
        <time>2022-06-18T10:10:14.000Z</time>
      </trkpt>
      <trkpt lat="45.85884" lon="4.7178">
        <ele>235.34952</ele>
        <time>2022-06-18T10:10:15.000Z</time>
      </trkpt>
      <trkpt lat="45.85886" lon="4.71782">
        <ele>235.51437</ele>
        <time>2022-06-18T10:10:16.000Z</time>
      </trkpt>
      <trkpt lat="45.85889" lon="4.71784">
        <ele>235.63333</ele>
        <time>2022-06-18T10:10:17.000Z</time>
      </trkpt>
      <trkpt lat="45.85892" lon="4.71786">
        <ele>235.73835</ele>
        <time>2022-06-18T10:10:18.000Z</time>
      </trkpt>
      <trkpt lat="45.85894" lon="4.71788">
        <ele>235.8593</ele>
        <time>2022-06-18T10:10:19.000Z</time>
      </trkpt>
      <trkpt lat="45.85896" lon="4.71789">
        <ele>235.92151</ele>
        <time>2022-06-18T10:10:20.000Z</time>
      </trkpt>
      <trkpt lat="45.85899" lon="4.71791">
        <ele>236.07662</ele>
        <time>2022-06-18T10:10:22.000Z</time>
      </trkpt>
      <trkpt lat="45.85902" lon="4.71795">
        <ele>236.49204</ele>
        <time>2022-06-18T10:10:24.000Z</time>
      </trkpt>
      <trkpt lat="45.85903" lon="4.71798">
        <ele>236.74785</ele>
        <time>2022-06-18T10:10:25.000Z</time>
      </trkpt>
      <trkpt lat="45.85905" lon="4.718">
        <ele>237.06524</ele>
        <time>2022-06-18T10:10:26.000Z</time>
      </trkpt>
      <trkpt lat="45.85906" lon="4.71805">
        <ele>237.637</ele>
        <time>2022-06-18T10:10:27.000Z</time>
      </trkpt>
      <trkpt lat="45.85908" lon="4.71811">
        <ele>238.17573</ele>
        <time>2022-06-18T10:10:28.000Z</time>
      </trkpt>
      <trkpt lat="45.85908" lon="4.71816">
        <ele>238.43992</ele>
        <time>2022-06-18T10:10:29.000Z</time>
      </trkpt>
      <trkpt lat="45.85908" lon="4.7182">
        <ele>238.47144</ele>
        <time>2022-06-18T10:10:30.000Z</time>
      </trkpt>
      <trkpt lat="45.85908" lon="4.71826">
        <ele>238.37701</ele>
        <time>2022-06-18T10:10:31.000Z</time>
      </trkpt>
      <trkpt lat="45.85907" lon="4.71831">
        <ele>238.25171</ele>
        <time>2022-06-18T10:10:32.000Z</time>
      </trkpt>
      <trkpt lat="45.85906" lon="4.71837">
        <ele>238.28169</ele>
        <time>2022-06-18T10:10:33.000Z</time>
      </trkpt>
      <trkpt lat="45.85904" lon="4.71843">
        <ele>238.62969</ele>
        <time>2022-06-18T10:10:34.000Z</time>
      </trkpt>
      <trkpt lat="45.85902" lon="4.71847">
        <ele>239.20754</ele>
        <time>2022-06-18T10:10:35.000Z</time>
      </trkpt>
      <trkpt lat="45.859" lon="4.7185">
        <ele>239.73989</ele>
        <time>2022-06-18T10:10:36.000Z</time>
      </trkpt>
      <trkpt lat="45.85898" lon="4.71853">
        <ele>240.20819</ele>
        <time>2022-06-18T10:10:37.000Z</time>
      </trkpt>
      <trkpt lat="45.85895" lon="4.71854">
        <ele>240.57639</ele>
        <time>2022-06-18T10:10:38.000Z</time>
      </trkpt>
      <trkpt lat="45.85892" lon="4.71855">
        <ele>240.89553</ele>
        <time>2022-06-18T10:10:39.000Z</time>
      </trkpt>
      <trkpt lat="45.8589" lon="4.71856">
        <ele>241.16582</ele>
        <time>2022-06-18T10:10:40.000Z</time>
      </trkpt>
      <trkpt lat="45.85887" lon="4.71857">
        <ele>241.40232</ele>
        <time>2022-06-18T10:10:41.000Z</time>
      </trkpt>
      <trkpt lat="45.85883" lon="4.71857">
        <ele>241.54334</ele>
        <time>2022-06-18T10:10:42.000Z</time>
      </trkpt>
      <trkpt lat="45.8588" lon="4.71857">
        <ele>241.64717</ele>
        <time>2022-06-18T10:10:43.000Z</time>
      </trkpt>
      <trkpt lat="45.85873" lon="4.71856">
        <ele>241.92073</ele>
        <time>2022-06-18T10:10:45.000Z</time>
      </trkpt>
      <trkpt lat="45.85866" lon="4.71858">
        <ele>242.52236</ele>
        <time>2022-06-18T10:10:47.000Z</time>
      </trkpt>
      <trkpt lat="45.85863" lon="4.71861">
        <ele>242.89431</ele>
        <time>2022-06-18T10:10:48.000Z</time>
      </trkpt>
      <trkpt lat="45.8586" lon="4.71863">
        <ele>243.22565</ele>
        <time>2022-06-18T10:10:49.000Z</time>
      </trkpt>
      <trkpt lat="45.85858" lon="4.71866">
        <ele>243.62596</ele>
        <time>2022-06-18T10:10:50.000Z</time>
      </trkpt>
      <trkpt lat="45.85856" lon="4.71873">
        <ele>244.63632</ele>
        <time>2022-06-18T10:10:52.000Z</time>
      </trkpt>
      <trkpt lat="45.85855" lon="4.71877">
        <ele>245.16674</ele>
        <time>2022-06-18T10:10:53.000Z</time>
      </trkpt>
      <trkpt lat="45.85855" lon="4.71885">
        <ele>246.27083</ele>
        <time>2022-06-18T10:10:55.000Z</time>
      </trkpt>
      <trkpt lat="45.85855" lon="4.71889">
        <ele>246.8369</ele>
        <time>2022-06-18T10:10:56.000Z</time>
      </trkpt>
      <trkpt lat="45.85854" lon="4.71892">
        <ele>247.38189</ele>
        <time>2022-06-18T10:10:57.000Z</time>
      </trkpt>
      <trkpt lat="45.85854" lon="4.71896">
        <ele>247.92402</ele>
        <time>2022-06-18T10:10:58.000Z</time>
      </trkpt>
      <trkpt lat="45.85854" lon="4.719">
        <ele>248.49878</ele>
        <time>2022-06-18T10:10:59.000Z</time>
      </trkpt>
      <trkpt lat="45.85855" lon="4.71904">
        <ele>249.20478</ele>
        <time>2022-06-18T10:11:00.000Z</time>
      </trkpt>
      <trkpt lat="45.85855" lon="4.71909">
        <ele>250.03464</ele>
        <time>2022-06-18T10:11:01.000Z</time>
      </trkpt>
      <trkpt lat="45.85855" lon="4.71914">
        <ele>250.86978</ele>
        <time>2022-06-18T10:11:02.000Z</time>
      </trkpt>
      <trkpt lat="45.85854" lon="4.71919">
        <ele>251.6817</ele>
        <time>2022-06-18T10:11:03.000Z</time>
      </trkpt>
      <trkpt lat="45.85854" lon="4.71923">
        <ele>252.47608</ele>
        <time>2022-06-18T10:11:04.000Z</time>
      </trkpt>
      <trkpt lat="45.85854" lon="4.71928">
        <ele>253.34827</ele>
        <time>2022-06-18T10:11:05.000Z</time>
      </trkpt>
      <trkpt lat="45.85854" lon="4.71933">
        <ele>254.21422</ele>
        <time>2022-06-18T10:11:06.000Z</time>
      </trkpt>
      <trkpt lat="45.85854" lon="4.71938">
        <ele>255.03008</ele>
        <time>2022-06-18T10:11:07.000Z</time>
      </trkpt>
      <trkpt lat="45.85854" lon="4.71942">
        <ele>255.73356</ele>
        <time>2022-06-18T10:11:08.000Z</time>
      </trkpt>
      <trkpt lat="45.85853" lon="4.71946">
        <ele>256.48935</ele>
        <time>2022-06-18T10:11:09.000Z</time>
      </trkpt>
      <trkpt lat="45.85853" lon="4.71951">
        <ele>257.36152</ele>
        <time>2022-06-18T10:11:10.000Z</time>
      </trkpt>
      <trkpt lat="45.85852" lon="4.71955">
        <ele>258.19414</ele>
        <time>2022-06-18T10:11:11.000Z</time>
      </trkpt>
      <trkpt lat="45.85852" lon="4.7196">
        <ele>258.96764</ele>
        <time>2022-06-18T10:11:12.000Z</time>
      </trkpt>
      <trkpt lat="45.8585" lon="4.71964">
        <ele>259.68609</ele>
        <time>2022-06-18T10:11:13.000Z</time>
      </trkpt>
      <trkpt lat="45.85849" lon="4.71968">
        <ele>260.35162</ele>
        <time>2022-06-18T10:11:14.000Z</time>
      </trkpt>
      <trkpt lat="45.85848" lon="4.71973">
        <ele>260.96715</ele>
        <time>2022-06-18T10:11:15.000Z</time>
      </trkpt>
      <trkpt lat="45.85847" lon="4.71976">
        <ele>261.46897</ele>
        <time>2022-06-18T10:11:16.000Z</time>
      </trkpt>
      <trkpt lat="45.85845" lon="4.71981">
        <ele>261.99475</ele>
        <time>2022-06-18T10:11:17.000Z</time>
      </trkpt>
      <trkpt lat="45.85844" lon="4.71986">
        <ele>262.51861</ele>
        <time>2022-06-18T10:11:18.000Z</time>
      </trkpt>
      <trkpt lat="45.85842" lon="4.7199">
        <ele>263.01458</ele>
        <time>2022-06-18T10:11:19.000Z</time>
      </trkpt>
      <trkpt lat="45.85841" lon="4.71996">
        <ele>263.52089</ele>
        <time>2022-06-18T10:11:20.000Z</time>
      </trkpt>
      <trkpt lat="45.8584" lon="4.72001">
        <ele>264.03093</ele>
        <time>2022-06-18T10:11:21.000Z</time>
      </trkpt>
      <trkpt lat="45.8584" lon="4.72008">
        <ele>264.51223</ele>
        <time>2022-06-18T10:11:22.000Z</time>
      </trkpt>
      <trkpt lat="45.85838" lon="4.72021">
        <ele>265.16123</ele>
        <time>2022-06-18T10:11:24.000Z</time>
      </trkpt>
      <trkpt lat="45.85836" lon="4.72032">
        <ele>265.73245</ele>
        <time>2022-06-18T10:11:25.000Z</time>
      </trkpt>
      <trkpt lat="45.85835" lon="4.72038">
        <ele>266.23662</ele>
        <time>2022-06-18T10:11:26.000Z</time>
      </trkpt>
      <trkpt lat="45.85836" lon="4.72043">
        <ele>266.70262</ele>
        <time>2022-06-18T10:11:27.000Z</time>
      </trkpt>
      <trkpt lat="45.85833" lon="4.72048">
        <ele>267.27556</ele>
        <time>2022-06-18T10:11:28.000Z</time>
      </trkpt>
      <trkpt lat="45.85828" lon="4.72055">
        <ele>267.87668</ele>
        <time>2022-06-18T10:11:29.000Z</time>
      </trkpt>
      <trkpt lat="45.85826" lon="4.72061">
        <ele>268.3082</ele>
        <time>2022-06-18T10:11:30.000Z</time>
      </trkpt>
      <trkpt lat="45.85823" lon="4.72066">
        <ele>268.57208</ele>
        <time>2022-06-18T10:11:31.000Z</time>
      </trkpt>
      <trkpt lat="45.85821" lon="4.72072">
        <ele>268.86407</ele>
        <time>2022-06-18T10:11:32.000Z</time>
      </trkpt>
      <trkpt lat="45.85822" lon="4.72076">
        <ele>269.24452</ele>
        <time>2022-06-18T10:11:33.000Z</time>
      </trkpt>
      <trkpt lat="45.85821" lon="4.7208">
        <ele>269.52472</ele>
        <time>2022-06-18T10:11:34.000Z</time>
      </trkpt>
      <trkpt lat="45.85821" lon="4.72085">
        <ele>269.89539</ele>
        <time>2022-06-18T10:11:35.000Z</time>
      </trkpt>
      <trkpt lat="45.85819" lon="4.72091">
        <ele>270.28887</ele>
        <time>2022-06-18T10:11:36.000Z</time>
      </trkpt>
      <trkpt lat="45.85818" lon="4.72097">
        <ele>270.64879</ele>
        <time>2022-06-18T10:11:37.000Z</time>
      </trkpt>
      <trkpt lat="45.85818" lon="4.72101">
        <ele>271.01077</ele>
        <time>2022-06-18T10:11:38.000Z</time>
      </trkpt>
      <trkpt lat="45.85816" lon="4.72107">
        <ele>271.41222</ele>
        <time>2022-06-18T10:11:39.000Z</time>
      </trkpt>
      <trkpt lat="45.85815" lon="4.72112">
        <ele>271.86068</ele>
        <time>2022-06-18T10:11:40.000Z</time>
      </trkpt>
      <trkpt lat="45.85814" lon="4.72118">
        <ele>272.28772</ele>
        <time>2022-06-18T10:11:41.000Z</time>
      </trkpt>
      <trkpt lat="45.85813" lon="4.72123">
        <ele>272.68245</ele>
        <time>2022-06-18T10:11:42.000Z</time>
      </trkpt>
      <trkpt lat="45.85811" lon="4.72128">
        <ele>273.01037</ele>
        <time>2022-06-18T10:11:43.000Z</time>
      </trkpt>
      <trkpt lat="45.8581" lon="4.72133">
        <ele>273.28791</ele>
        <time>2022-06-18T10:11:44.000Z</time>
      </trkpt>
      <trkpt lat="45.85809" lon="4.72137">
        <ele>273.50023</ele>
        <time>2022-06-18T10:11:45.000Z</time>
      </trkpt>
      <trkpt lat="45.85809" lon="4.72141">
        <ele>273.67994</ele>
        <time>2022-06-18T10:11:46.000Z</time>
      </trkpt>
      <trkpt lat="45.85809" lon="4.72145">
        <ele>273.85251</ele>
        <time>2022-06-18T10:11:47.000Z</time>
      </trkpt>
      <trkpt lat="45.85808" lon="4.72148">
        <ele>274.00187</ele>
        <time>2022-06-18T10:11:48.000Z</time>
      </trkpt>
      <trkpt lat="45.85807" lon="4.72151">
        <ele>274.15104</ele>
        <time>2022-06-18T10:11:49.000Z</time>
      </trkpt>
      <trkpt lat="45.85806" lon="4.72155">
        <ele>274.29377</ele>
        <time>2022-06-18T10:11:50.000Z</time>
      </trkpt>
      <trkpt lat="45.85805" lon="4.72157">
        <ele>274.40426</ele>
        <time>2022-06-18T10:11:51.000Z</time>
      </trkpt>
      <trkpt lat="45.85803" lon="4.72158">
        <ele>274.45168</ele>
        <time>2022-06-18T10:11:52.000Z</time>
      </trkpt>
      <trkpt lat="45.858" lon="4.72159">
        <ele>274.43933</ele>
        <time>2022-06-18T10:11:53.000Z</time>
      </trkpt>
      <trkpt lat="45.85797" lon="4.72159">
        <ele>274.36467</ele>
        <time>2022-06-18T10:11:54.000Z</time>
      </trkpt>
      <trkpt lat="45.85795" lon="4.72158">
        <ele>274.24869</ele>
        <time>2022-06-18T10:11:55.000Z</time>
      </trkpt>
      <trkpt lat="45.85791" lon="4.72157">
        <ele>274.12155</ele>
        <time>2022-06-18T10:11:56.000Z</time>
      </trkpt>
      <trkpt lat="45.85787" lon="4.72157">
        <ele>273.98337</ele>
        <time>2022-06-18T10:11:57.000Z</time>
      </trkpt>
      <trkpt lat="45.85783" lon="4.72156">
        <ele>273.87107</ele>
        <time>2022-06-18T10:11:58.000Z</time>
      </trkpt>
      <trkpt lat="45.85778" lon="4.72156">
        <ele>273.75934</ele>
        <time>2022-06-18T10:11:59.000Z</time>
      </trkpt>
      <trkpt lat="45.85774" lon="4.72156">
        <ele>273.71447</ele>
        <time>2022-06-18T10:12:00.000Z</time>
      </trkpt>
      <trkpt lat="45.8577" lon="4.72156">
        <ele>273.67257</ele>
        <time>2022-06-18T10:12:01.000Z</time>
      </trkpt>
      <trkpt lat="45.85767" lon="4.72156">
        <ele>273.61421</ele>
        <time>2022-06-18T10:12:02.000Z</time>
      </trkpt>
      <trkpt lat="45.85764" lon="4.72156">
        <ele>273.61625</ele>
        <time>2022-06-18T10:12:03.000Z</time>
      </trkpt>
      <trkpt lat="45.85759" lon="4.72157">
        <ele>273.68054</ele>
        <time>2022-06-18T10:12:04.000Z</time>
      </trkpt>
      <trkpt lat="45.85745" lon="4.72158">
        <ele>273.58747</ele>
        <time>2022-06-18T10:12:06.000Z</time>
      </trkpt>
      <trkpt lat="45.85734" lon="4.72161">
        <ele>273.44358</ele>
        <time>2022-06-18T10:12:08.000Z</time>
      </trkpt>
      <trkpt lat="45.85729" lon="4.72163">
        <ele>273.30479</ele>
        <time>2022-06-18T10:12:09.000Z</time>
      </trkpt>
      <trkpt lat="45.85724" lon="4.72164">
        <ele>273.15142</ele>
        <time>2022-06-18T10:12:10.000Z</time>
      </trkpt>
      <trkpt lat="45.85719" lon="4.72165">
        <ele>273.05176</ele>
        <time>2022-06-18T10:12:11.000Z</time>
      </trkpt>
      <trkpt lat="45.85715" lon="4.72167">
        <ele>273.08385</ele>
        <time>2022-06-18T10:12:12.000Z</time>
      </trkpt>
      <trkpt lat="45.85711" lon="4.72168">
        <ele>272.99625</ele>
        <time>2022-06-18T10:12:13.000Z</time>
      </trkpt>
      <trkpt lat="45.85706" lon="4.72167">
        <ele>272.63579</ele>
        <time>2022-06-18T10:12:14.000Z</time>
      </trkpt>
      <trkpt lat="45.85703" lon="4.7217">
        <ele>272.90128</ele>
        <time>2022-06-18T10:12:15.000Z</time>
      </trkpt>
      <trkpt lat="45.85699" lon="4.72172">
        <ele>273.03725</ele>
        <time>2022-06-18T10:12:16.000Z</time>
      </trkpt>
      <trkpt lat="45.85695" lon="4.72173">
        <ele>273.02857</ele>
        <time>2022-06-18T10:12:17.000Z</time>
      </trkpt>
      <trkpt lat="45.8569" lon="4.72175">
        <ele>273.25035</ele>
        <time>2022-06-18T10:12:18.000Z</time>
      </trkpt>
      <trkpt lat="45.85688" lon="4.72175">
        <ele>273.09646</ele>
        <time>2022-06-18T10:12:19.000Z</time>
      </trkpt>
      <trkpt lat="45.85686" lon="4.72177">
        <ele>273.29018</ele>
        <time>2022-06-18T10:12:20.000Z</time>
      </trkpt>
      <trkpt lat="45.85683" lon="4.72178">
        <ele>273.25398</ele>
        <time>2022-06-18T10:12:21.000Z</time>
      </trkpt>
      <trkpt lat="45.85679" lon="4.7218">
        <ele>273.27857</ele>
        <time>2022-06-18T10:12:22.000Z</time>
      </trkpt>
      <trkpt lat="45.8567" lon="4.72183">
        <ele>273.05633</ele>
        <time>2022-06-18T10:12:24.000Z</time>
      </trkpt>
      <trkpt lat="45.85666" lon="4.72185">
        <ele>272.83074</ele>
        <time>2022-06-18T10:12:25.000Z</time>
      </trkpt>
      <trkpt lat="45.85659" lon="4.72188">
        <ele>272.33147</ele>
        <time>2022-06-18T10:12:26.000Z</time>
      </trkpt>
      <trkpt lat="45.85655" lon="4.72191">
        <ele>272.31762</ele>
        <time>2022-06-18T10:12:27.000Z</time>
      </trkpt>
      <trkpt lat="45.85651" lon="4.72196">
        <ele>272.43071</ele>
        <time>2022-06-18T10:12:28.000Z</time>
      </trkpt>
      <trkpt lat="45.85647" lon="4.722">
        <ele>272.62662</ele>
        <time>2022-06-18T10:12:29.000Z</time>
      </trkpt>
      <trkpt lat="45.85636" lon="4.72208">
        <ele>272.86903</ele>
        <time>2022-06-18T10:12:31.000Z</time>
      </trkpt>
      <trkpt lat="45.85632" lon="4.7221">
        <ele>272.83812</ele>
        <time>2022-06-18T10:12:32.000Z</time>
      </trkpt>
      <trkpt lat="45.85629" lon="4.72212">
        <ele>272.7575</ele>
        <time>2022-06-18T10:12:33.000Z</time>
      </trkpt>
      <trkpt lat="45.85626" lon="4.72214">
        <ele>272.67823</ele>
        <time>2022-06-18T10:12:34.000Z</time>
      </trkpt>
      <trkpt lat="45.85619" lon="4.72216">
        <ele>272.08063</ele>
        <time>2022-06-18T10:12:35.000Z</time>
      </trkpt>
      <trkpt lat="45.85615" lon="4.72218">
        <ele>271.79847</ele>
        <time>2022-06-18T10:12:36.000Z</time>
      </trkpt>
      <trkpt lat="45.85607" lon="4.72222">
        <ele>271.5269</ele>
        <time>2022-06-18T10:12:37.000Z</time>
      </trkpt>
      <trkpt lat="45.85602" lon="4.72223">
        <ele>271.26676</ele>
        <time>2022-06-18T10:12:38.000Z</time>
      </trkpt>
      <trkpt lat="45.85598" lon="4.72226">
        <ele>271.3321</ele>
        <time>2022-06-18T10:12:39.000Z</time>
      </trkpt>
      <trkpt lat="45.85593" lon="4.72227">
        <ele>271.19477</ele>
        <time>2022-06-18T10:12:40.000Z</time>
      </trkpt>
      <trkpt lat="45.85587" lon="4.7223">
        <ele>271.17844</ele>
        <time>2022-06-18T10:12:41.000Z</time>
      </trkpt>
      <trkpt lat="45.85582" lon="4.7223">
        <ele>270.97317</ele>
        <time>2022-06-18T10:12:42.000Z</time>
      </trkpt>
      <trkpt lat="45.85578" lon="4.72232">
        <ele>270.98825</ele>
        <time>2022-06-18T10:12:43.000Z</time>
      </trkpt>
      <trkpt lat="45.85573" lon="4.72234">
        <ele>271.11733</ele>
        <time>2022-06-18T10:12:44.000Z</time>
      </trkpt>
      <trkpt lat="45.85569" lon="4.72236">
        <ele>271.14949</ele>
        <time>2022-06-18T10:12:45.000Z</time>
      </trkpt>
      <trkpt lat="45.85564" lon="4.72238">
        <ele>271.09095</ele>
        <time>2022-06-18T10:12:46.000Z</time>
      </trkpt>
      <trkpt lat="45.8556" lon="4.72239">
        <ele>270.98812</ele>
        <time>2022-06-18T10:12:47.000Z</time>
      </trkpt>
      <trkpt lat="45.85554" lon="4.72242">
        <ele>270.86136</ele>
        <time>2022-06-18T10:12:48.000Z</time>
      </trkpt>
      <trkpt lat="45.85549" lon="4.72244">
        <ele>270.81546</ele>
        <time>2022-06-18T10:12:49.000Z</time>
      </trkpt>
      <trkpt lat="45.85543" lon="4.72244">
        <ele>270.49938</ele>
        <time>2022-06-18T10:12:50.000Z</time>
      </trkpt>
      <trkpt lat="45.85538" lon="4.72246">
        <ele>270.40879</ele>
        <time>2022-06-18T10:12:51.000Z</time>
      </trkpt>
      <trkpt lat="45.85533" lon="4.72248">
        <ele>270.20578</ele>
        <time>2022-06-18T10:12:52.000Z</time>
      </trkpt>
      <trkpt lat="45.85528" lon="4.72247">
        <ele>269.78148</ele>
        <time>2022-06-18T10:12:53.000Z</time>
      </trkpt>
      <trkpt lat="45.85522" lon="4.72247">
        <ele>269.53599</ele>
        <time>2022-06-18T10:12:54.000Z</time>
      </trkpt>
      <trkpt lat="45.85518" lon="4.72249">
        <ele>269.58882</ele>
        <time>2022-06-18T10:12:55.000Z</time>
      </trkpt>
      <trkpt lat="45.85511" lon="4.72249">
        <ele>269.48533</ele>
        <time>2022-06-18T10:12:56.000Z</time>
      </trkpt>
      <trkpt lat="45.85505" lon="4.72249">
        <ele>269.4246</ele>
        <time>2022-06-18T10:12:57.000Z</time>
      </trkpt>
      <trkpt lat="45.85501" lon="4.72249">
        <ele>269.3867</ele>
        <time>2022-06-18T10:12:58.000Z</time>
      </trkpt>
      <trkpt lat="45.85496" lon="4.72251">
        <ele>269.36007</ele>
        <time>2022-06-18T10:12:59.000Z</time>
      </trkpt>
      <trkpt lat="45.85489" lon="4.72253">
        <ele>269.08937</ele>
        <time>2022-06-18T10:13:00.000Z</time>
      </trkpt>
      <trkpt lat="45.85484" lon="4.72254">
        <ele>268.70734</ele>
        <time>2022-06-18T10:13:01.000Z</time>
      </trkpt>
      <trkpt lat="45.85477" lon="4.72254">
        <ele>268.00834</ele>
        <time>2022-06-18T10:13:02.000Z</time>
      </trkpt>
      <trkpt lat="45.85469" lon="4.72255">
        <ele>267.47315</ele>
        <time>2022-06-18T10:13:03.000Z</time>
      </trkpt>
      <trkpt lat="45.85464" lon="4.72256">
        <ele>267.15692</ele>
        <time>2022-06-18T10:13:04.000Z</time>
      </trkpt>
      <trkpt lat="45.85455" lon="4.72256">
        <ele>266.40657</ele>
        <time>2022-06-18T10:13:05.000Z</time>
      </trkpt>
      <trkpt lat="45.85449" lon="4.72258">
        <ele>266.43929</ele>
        <time>2022-06-18T10:13:06.000Z</time>
      </trkpt>
      <trkpt lat="45.85442" lon="4.72257">
        <ele>266.36999</ele>
        <time>2022-06-18T10:13:07.000Z</time>
      </trkpt>
      <trkpt lat="45.85436" lon="4.72257">
        <ele>266.53611</ele>
        <time>2022-06-18T10:13:08.000Z</time>
      </trkpt>
      <trkpt lat="45.85429" lon="4.72253">
        <ele>266.54516</ele>
        <time>2022-06-18T10:13:09.000Z</time>
      </trkpt>
      <trkpt lat="45.85423" lon="4.72252">
        <ele>266.61399</ele>
        <time>2022-06-18T10:13:10.000Z</time>
      </trkpt>
      <trkpt lat="45.85418" lon="4.72249">
        <ele>266.65926</ele>
        <time>2022-06-18T10:13:11.000Z</time>
      </trkpt>
      <trkpt lat="45.85412" lon="4.72247">
        <ele>266.78053</ele>
        <time>2022-06-18T10:13:12.000Z</time>
      </trkpt>
      <trkpt lat="45.85407" lon="4.72244">
        <ele>266.87763</ele>
        <time>2022-06-18T10:13:13.000Z</time>
      </trkpt>
      <trkpt lat="45.85402" lon="4.72244">
        <ele>266.99804</ele>
        <time>2022-06-18T10:13:14.000Z</time>
      </trkpt>
      <trkpt lat="45.85397" lon="4.72245">
        <ele>267.05545</ele>
        <time>2022-06-18T10:13:15.000Z</time>
      </trkpt>
      <trkpt lat="45.85391" lon="4.72242">
        <ele>267.12074</ele>
        <time>2022-06-18T10:13:16.000Z</time>
      </trkpt>
      <trkpt lat="45.85386" lon="4.72241">
        <ele>267.30902</ele>
        <time>2022-06-18T10:13:17.000Z</time>
      </trkpt>
      <trkpt lat="45.85382" lon="4.7224">
        <ele>267.59758</ele>
        <time>2022-06-18T10:13:18.000Z</time>
      </trkpt>
      <trkpt lat="45.85376" lon="4.72237">
        <ele>268.08637</ele>
        <time>2022-06-18T10:13:19.000Z</time>
      </trkpt>
      <trkpt lat="45.85372" lon="4.72234">
        <ele>268.48491</ele>
        <time>2022-06-18T10:13:20.000Z</time>
      </trkpt>
      <trkpt lat="45.85368" lon="4.72232">
        <ele>268.79791</ele>
        <time>2022-06-18T10:13:21.000Z</time>
      </trkpt>
      <trkpt lat="45.85364" lon="4.72231">
        <ele>269.07413</ele>
        <time>2022-06-18T10:13:22.000Z</time>
      </trkpt>
      <trkpt lat="45.8536" lon="4.72231">
        <ele>269.37961</ele>
        <time>2022-06-18T10:13:23.000Z</time>
      </trkpt>
      <trkpt lat="45.85356" lon="4.72231">
        <ele>269.5872</ele>
        <time>2022-06-18T10:13:24.000Z</time>
      </trkpt>
      <trkpt lat="45.85352" lon="4.72232">
        <ele>269.84962</ele>
        <time>2022-06-18T10:13:25.000Z</time>
      </trkpt>
      <trkpt lat="45.85349" lon="4.72231">
        <ele>270.00748</ele>
        <time>2022-06-18T10:13:26.000Z</time>
      </trkpt>
      <trkpt lat="45.85342" lon="4.7223">
        <ele>270.35999</ele>
        <time>2022-06-18T10:13:28.000Z</time>
      </trkpt>
      <trkpt lat="45.85338" lon="4.72231">
        <ele>270.70702</ele>
        <time>2022-06-18T10:13:29.000Z</time>
      </trkpt>
      <trkpt lat="45.85333" lon="4.72231">
        <ele>271.2058</ele>
        <time>2022-06-18T10:13:30.000Z</time>
      </trkpt>
      <trkpt lat="45.8533" lon="4.72229">
        <ele>271.53605</ele>
        <time>2022-06-18T10:13:31.000Z</time>
      </trkpt>
      <trkpt lat="45.85326" lon="4.7223">
        <ele>272.07156</ele>
        <time>2022-06-18T10:13:32.000Z</time>
      </trkpt>
      <trkpt lat="45.85323" lon="4.72229">
        <ele>272.42123</ele>
        <time>2022-06-18T10:13:33.000Z</time>
      </trkpt>
      <trkpt lat="45.8532" lon="4.72231">
        <ele>272.88296</ele>
        <time>2022-06-18T10:13:34.000Z</time>
      </trkpt>
      <trkpt lat="45.85316" lon="4.72233">
        <ele>273.3092</ele>
        <time>2022-06-18T10:13:35.000Z</time>
      </trkpt>
      <trkpt lat="45.85313" lon="4.72235">
        <ele>273.66209</ele>
        <time>2022-06-18T10:13:36.000Z</time>
      </trkpt>
      <trkpt lat="45.85309" lon="4.72235">
        <ele>274.04419</ele>
        <time>2022-06-18T10:13:37.000Z</time>
      </trkpt>
      <trkpt lat="45.85306" lon="4.72241">
        <ele>274.44709</ele>
        <time>2022-06-18T10:13:38.000Z</time>
      </trkpt>
      <trkpt lat="45.85305" lon="4.72247">
        <ele>274.59929</ele>
        <time>2022-06-18T10:13:39.000Z</time>
      </trkpt>
      <trkpt lat="45.85301" lon="4.72251">
        <ele>274.93284</ele>
        <time>2022-06-18T10:13:40.000Z</time>
      </trkpt>
      <trkpt lat="45.853" lon="4.72257">
        <ele>275.08844</ele>
        <time>2022-06-18T10:13:41.000Z</time>
      </trkpt>
      <trkpt lat="45.85299" lon="4.72262">
        <ele>275.25416</ele>
        <time>2022-06-18T10:13:42.000Z</time>
      </trkpt>
      <trkpt lat="45.85297" lon="4.72267">
        <ele>275.41741</ele>
        <time>2022-06-18T10:13:43.000Z</time>
      </trkpt>
      <trkpt lat="45.85295" lon="4.72273">
        <ele>275.54225</ele>
        <time>2022-06-18T10:13:44.000Z</time>
      </trkpt>
      <trkpt lat="45.85293" lon="4.72278">
        <ele>275.65847</ele>
        <time>2022-06-18T10:13:45.000Z</time>
      </trkpt>
      <trkpt lat="45.85286" lon="4.72283">
        <ele>275.96368</ele>
        <time>2022-06-18T10:13:46.000Z</time>
      </trkpt>
      <trkpt lat="45.8528" lon="4.72289">
        <ele>276.18894</ele>
        <time>2022-06-18T10:13:47.000Z</time>
      </trkpt>
      <trkpt lat="45.85275" lon="4.72291">
        <ele>276.39027</ele>
        <time>2022-06-18T10:13:48.000Z</time>
      </trkpt>
      <trkpt lat="45.85269" lon="4.72292">
        <ele>276.64593</ele>
        <time>2022-06-18T10:13:49.000Z</time>
      </trkpt>
      <trkpt lat="45.85257" lon="4.72289">
        <ele>277.18463</ele>
        <time>2022-06-18T10:13:51.000Z</time>
      </trkpt>
      <trkpt lat="45.85252" lon="4.72288">
        <ele>277.3836</ele>
        <time>2022-06-18T10:13:52.000Z</time>
      </trkpt>
      <trkpt lat="45.85246" lon="4.72289">
        <ele>277.5372</ele>
        <time>2022-06-18T10:13:53.000Z</time>
      </trkpt>
      <trkpt lat="45.8524" lon="4.72284">
        <ele>277.7305</ele>
        <time>2022-06-18T10:13:54.000Z</time>
      </trkpt>
      <trkpt lat="45.85235" lon="4.72284">
        <ele>277.82783</ele>
        <time>2022-06-18T10:13:55.000Z</time>
      </trkpt>
      <trkpt lat="45.85229" lon="4.72282">
        <ele>277.89997</ele>
        <time>2022-06-18T10:13:56.000Z</time>
      </trkpt>
      <trkpt lat="45.85223" lon="4.72283">
        <ele>277.93645</ele>
        <time>2022-06-18T10:13:57.000Z</time>
      </trkpt>
      <trkpt lat="45.85219" lon="4.72281">
        <ele>277.94239</ele>
        <time>2022-06-18T10:13:58.000Z</time>
      </trkpt>
      <trkpt lat="45.85214" lon="4.7228">
        <ele>277.92572</ele>
        <time>2022-06-18T10:13:59.000Z</time>
      </trkpt>
      <trkpt lat="45.85211" lon="4.72279">
        <ele>277.91036</ele>
        <time>2022-06-18T10:14:00.000Z</time>
      </trkpt>
      <trkpt lat="45.85208" lon="4.72277">
        <ele>277.8922</ele>
        <time>2022-06-18T10:14:01.000Z</time>
      </trkpt>
      <trkpt lat="45.85205" lon="4.72276">
        <ele>277.87452</ele>
        <time>2022-06-18T10:14:02.000Z</time>
      </trkpt>
      <trkpt lat="45.852" lon="4.72276">
        <ele>277.86331</ele>
        <time>2022-06-18T10:14:03.000Z</time>
      </trkpt>
      <trkpt lat="45.85196" lon="4.72273">
        <ele>277.83545</ele>
        <time>2022-06-18T10:14:04.000Z</time>
      </trkpt>
      <trkpt lat="45.85192" lon="4.72272">
        <ele>277.81832</ele>
        <time>2022-06-18T10:14:05.000Z</time>
      </trkpt>
      <trkpt lat="45.85187" lon="4.72273">
        <ele>277.8156</ele>
        <time>2022-06-18T10:14:06.000Z</time>
      </trkpt>
      <trkpt lat="45.85184" lon="4.7227">
        <ele>277.74967</ele>
        <time>2022-06-18T10:14:07.000Z</time>
      </trkpt>
      <trkpt lat="45.85181" lon="4.72265">
        <ele>277.65531</ele>
        <time>2022-06-18T10:14:08.000Z</time>
      </trkpt>
      <trkpt lat="45.85176" lon="4.72258">
        <ele>277.46717</ele>
        <time>2022-06-18T10:14:09.000Z</time>
      </trkpt>
      <trkpt lat="45.85172" lon="4.72255">
        <ele>277.29828</ele>
        <time>2022-06-18T10:14:10.000Z</time>
      </trkpt>
      <trkpt lat="45.85167" lon="4.72247">
        <ele>276.98314</ele>
        <time>2022-06-18T10:14:11.000Z</time>
      </trkpt>
      <trkpt lat="45.85162" lon="4.7224">
        <ele>276.63699</ele>
        <time>2022-06-18T10:14:12.000Z</time>
      </trkpt>
      <trkpt lat="45.85157" lon="4.72236">
        <ele>276.31792</ele>
        <time>2022-06-18T10:14:13.000Z</time>
      </trkpt>
      <trkpt lat="45.85152" lon="4.7223">
        <ele>275.89595</ele>
        <time>2022-06-18T10:14:14.000Z</time>
      </trkpt>
      <trkpt lat="45.85146" lon="4.72226">
        <ele>275.45946</ele>
        <time>2022-06-18T10:14:15.000Z</time>
      </trkpt>
      <trkpt lat="45.8514" lon="4.72222">
        <ele>274.97793</ele>
        <time>2022-06-18T10:14:16.000Z</time>
      </trkpt>
      <trkpt lat="45.85134" lon="4.72222">
        <ele>274.69621</ele>
        <time>2022-06-18T10:14:17.000Z</time>
      </trkpt>
      <trkpt lat="45.85128" lon="4.72221">
        <ele>274.34775</ele>
        <time>2022-06-18T10:14:18.000Z</time>
      </trkpt>
      <trkpt lat="45.85122" lon="4.72222">
        <ele>274.18129</ele>
        <time>2022-06-18T10:14:19.000Z</time>
      </trkpt>
      <trkpt lat="45.85115" lon="4.72221">
        <ele>273.96556</ele>
        <time>2022-06-18T10:14:20.000Z</time>
      </trkpt>
      <trkpt lat="45.85109" lon="4.72223">
        <ele>274.02095</ele>
        <time>2022-06-18T10:14:21.000Z</time>
      </trkpt>
      <trkpt lat="45.85101" lon="4.72221">
        <ele>273.96622</ele>
        <time>2022-06-18T10:14:22.000Z</time>
      </trkpt>
      <trkpt lat="45.85096" lon="4.72221">
        <ele>274.04344</ele>
        <time>2022-06-18T10:14:23.000Z</time>
      </trkpt>
      <trkpt lat="45.85091" lon="4.7222">
        <ele>274.02645</ele>
        <time>2022-06-18T10:14:24.000Z</time>
      </trkpt>
      <trkpt lat="45.85087" lon="4.7222">
        <ele>274.00337</ele>
        <time>2022-06-18T10:14:25.000Z</time>
      </trkpt>
      <trkpt lat="45.8508" lon="4.72221">
        <ele>274.17436</ele>
        <time>2022-06-18T10:14:26.000Z</time>
      </trkpt>
      <trkpt lat="45.85074" lon="4.72221">
        <ele>274.22116</ele>
        <time>2022-06-18T10:14:27.000Z</time>
      </trkpt>
      <trkpt lat="45.85068" lon="4.7222">
        <ele>274.20029</ele>
        <time>2022-06-18T10:14:28.000Z</time>
      </trkpt>
      <trkpt lat="45.85066" lon="4.7222">
        <ele>274.2359</ele>
        <time>2022-06-18T10:14:29.000Z</time>
      </trkpt>
      <trkpt lat="45.85059" lon="4.72221">
        <ele>274.43665</ele>
        <time>2022-06-18T10:14:30.000Z</time>
      </trkpt>
      <trkpt lat="45.85052" lon="4.7222">
        <ele>274.50881</ele>
        <time>2022-06-18T10:14:31.000Z</time>
      </trkpt>
      <trkpt lat="45.85047" lon="4.72219">
        <ele>274.50214</ele>
        <time>2022-06-18T10:14:32.000Z</time>
      </trkpt>
      <trkpt lat="45.85042" lon="4.72218">
        <ele>274.45951</ele>
        <time>2022-06-18T10:14:33.000Z</time>
      </trkpt>
      <trkpt lat="45.85037" lon="4.72218">
        <ele>274.39314</ele>
        <time>2022-06-18T10:14:34.000Z</time>
      </trkpt>
      <trkpt lat="45.85032" lon="4.72218">
        <ele>274.31744</ele>
        <time>2022-06-18T10:14:35.000Z</time>
      </trkpt>
      <trkpt lat="45.85027" lon="4.72218">
        <ele>274.22914</ele>
        <time>2022-06-18T10:14:36.000Z</time>
      </trkpt>
      <trkpt lat="45.85023" lon="4.72217">
        <ele>274.13145</ele>
        <time>2022-06-18T10:14:37.000Z</time>
      </trkpt>
      <trkpt lat="45.85016" lon="4.72217">
        <ele>274.11113</ele>
        <time>2022-06-18T10:14:38.000Z</time>
      </trkpt>
      <trkpt lat="45.8501" lon="4.72214">
        <ele>273.83372</ele>
        <time>2022-06-18T10:14:39.000Z</time>
      </trkpt>
      <trkpt lat="45.85004" lon="4.72213">
        <ele>273.68839</ele>
        <time>2022-06-18T10:14:40.000Z</time>
      </trkpt>
      <trkpt lat="45.85" lon="4.72213">
        <ele>273.79528</ele>
        <time>2022-06-18T10:14:41.000Z</time>
      </trkpt>
      <trkpt lat="45.84997" lon="4.72213">
        <ele>273.80351</ele>
        <time>2022-06-18T10:14:42.000Z</time>
      </trkpt>
      <trkpt lat="45.84992" lon="4.72212">
        <ele>273.77835</ele>
        <time>2022-06-18T10:14:43.000Z</time>
      </trkpt>
      <trkpt lat="45.84987" lon="4.72211">
        <ele>273.76513</ele>
        <time>2022-06-18T10:14:44.000Z</time>
      </trkpt>
      <trkpt lat="45.84985" lon="4.72214">
        <ele>274.1507</ele>
        <time>2022-06-18T10:14:45.000Z</time>
      </trkpt>
      <trkpt lat="45.84979" lon="4.72212">
        <ele>274.14642</ele>
        <time>2022-06-18T10:14:46.000Z</time>
      </trkpt>
      <trkpt lat="45.84969" lon="4.7221">
        <ele>274.3002</ele>
        <time>2022-06-18T10:14:48.000Z</time>
      </trkpt>
      <trkpt lat="45.84964" lon="4.72208">
        <ele>274.38307</ele>
        <time>2022-06-18T10:14:49.000Z</time>
      </trkpt>
      <trkpt lat="45.84958" lon="4.72205">
        <ele>274.45727</ele>
        <time>2022-06-18T10:14:50.000Z</time>
      </trkpt>
      <trkpt lat="45.84952" lon="4.72203">
        <ele>274.50077</ele>
        <time>2022-06-18T10:14:51.000Z</time>
      </trkpt>
      <trkpt lat="45.84947" lon="4.72201">
        <ele>274.65179</ele>
        <time>2022-06-18T10:14:52.000Z</time>
      </trkpt>
      <trkpt lat="45.84942" lon="4.72199">
        <ele>274.7349</ele>
        <time>2022-06-18T10:14:53.000Z</time>
      </trkpt>
      <trkpt lat="45.84932" lon="4.72197">
        <ele>274.86032</ele>
        <time>2022-06-18T10:14:55.000Z</time>
      </trkpt>
      <trkpt lat="45.84926" lon="4.72196">
        <ele>274.85029</ele>
        <time>2022-06-18T10:14:56.000Z</time>
      </trkpt>
      <trkpt lat="45.84922" lon="4.72194">
        <ele>274.75927</ele>
        <time>2022-06-18T10:14:57.000Z</time>
      </trkpt>
      <trkpt lat="45.84918" lon="4.72198">
        <ele>275.00823</ele>
        <time>2022-06-18T10:14:58.000Z</time>
      </trkpt>
      <trkpt lat="45.84913" lon="4.72198">
        <ele>275.06817</ele>
        <time>2022-06-18T10:14:59.000Z</time>
      </trkpt>
      <trkpt lat="45.84908" lon="4.72198">
        <ele>275.11658</ele>
        <time>2022-06-18T10:15:00.000Z</time>
      </trkpt>
      <trkpt lat="45.84904" lon="4.722">
        <ele>275.32254</ele>
        <time>2022-06-18T10:15:01.000Z</time>
      </trkpt>
      <trkpt lat="45.84898" lon="4.72204">
        <ele>275.72579</ele>
        <time>2022-06-18T10:15:02.000Z</time>
      </trkpt>
      <trkpt lat="45.84893" lon="4.72206">
        <ele>275.96049</ele>
        <time>2022-06-18T10:15:03.000Z</time>
      </trkpt>
      <trkpt lat="45.84888" lon="4.72209">
        <ele>276.24189</ele>
        <time>2022-06-18T10:15:04.000Z</time>
      </trkpt>
      <trkpt lat="45.84884" lon="4.72212">
        <ele>276.47742</ele>
        <time>2022-06-18T10:15:05.000Z</time>
      </trkpt>
      <trkpt lat="45.84881" lon="4.72216">
        <ele>276.75034</ele>
        <time>2022-06-18T10:15:06.000Z</time>
      </trkpt>
      <trkpt lat="45.84878" lon="4.72219">
        <ele>276.97239</ele>
        <time>2022-06-18T10:15:07.000Z</time>
      </trkpt>
      <trkpt lat="45.84873" lon="4.72223">
        <ele>277.12452</ele>
        <time>2022-06-18T10:15:08.000Z</time>
      </trkpt>
      <trkpt lat="45.84869" lon="4.72226">
        <ele>277.22676</ele>
        <time>2022-06-18T10:15:09.000Z</time>
      </trkpt>
      <trkpt lat="45.84864" lon="4.72227">
        <ele>277.18067</ele>
        <time>2022-06-18T10:15:10.000Z</time>
      </trkpt>
      <trkpt lat="45.84859" lon="4.7223">
        <ele>277.13959</ele>
        <time>2022-06-18T10:15:11.000Z</time>
      </trkpt>
      <trkpt lat="45.84854" lon="4.72231">
        <ele>276.98243</ele>
        <time>2022-06-18T10:15:12.000Z</time>
      </trkpt>
      <trkpt lat="45.84851" lon="4.72234">
        <ele>276.98827</ele>
        <time>2022-06-18T10:15:13.000Z</time>
      </trkpt>
      <trkpt lat="45.84847" lon="4.72237">
        <ele>276.9407</ele>
        <time>2022-06-18T10:15:14.000Z</time>
      </trkpt>
      <trkpt lat="45.84843" lon="4.7224">
        <ele>276.91345</ele>
        <time>2022-06-18T10:15:15.000Z</time>
      </trkpt>
      <trkpt lat="45.84839" lon="4.72243">
        <ele>276.92532</ele>
        <time>2022-06-18T10:15:16.000Z</time>
      </trkpt>
      <trkpt lat="45.84836" lon="4.72245">
        <ele>276.92982</ele>
        <time>2022-06-18T10:15:17.000Z</time>
      </trkpt>
      <trkpt lat="45.84834" lon="4.72245">
        <ele>276.88601</ele>
        <time>2022-06-18T10:15:18.000Z</time>
      </trkpt>
      <trkpt lat="45.84831" lon="4.72246">
        <ele>276.85589</ele>
        <time>2022-06-18T10:15:19.000Z</time>
      </trkpt>
      <trkpt lat="45.84828" lon="4.72248">
        <ele>276.82907</ele>
        <time>2022-06-18T10:15:20.000Z</time>
      </trkpt>
      <trkpt lat="45.84825" lon="4.72251">
        <ele>276.84531</ele>
        <time>2022-06-18T10:15:21.000Z</time>
      </trkpt>
      <trkpt lat="45.84822" lon="4.72254">
        <ele>276.84236</ele>
        <time>2022-06-18T10:15:22.000Z</time>
      </trkpt>
      <trkpt lat="45.84819" lon="4.72258">
        <ele>276.82118</ele>
        <time>2022-06-18T10:15:23.000Z</time>
      </trkpt>
      <trkpt lat="45.84816" lon="4.7226">
        <ele>276.76158</ele>
        <time>2022-06-18T10:15:24.000Z</time>
      </trkpt>
      <trkpt lat="45.84813" lon="4.72264">
        <ele>276.72289</ele>
        <time>2022-06-18T10:15:25.000Z</time>
      </trkpt>
      <trkpt lat="45.84811" lon="4.72267">
        <ele>276.66951</ele>
        <time>2022-06-18T10:15:26.000Z</time>
      </trkpt>
      <trkpt lat="45.84808" lon="4.72272">
        <ele>276.57634</ele>
        <time>2022-06-18T10:15:27.000Z</time>
      </trkpt>
      <trkpt lat="45.84806" lon="4.72281">
        <ele>276.55941</ele>
        <time>2022-06-18T10:15:28.000Z</time>
      </trkpt>
      <trkpt lat="45.84802" lon="4.72287">
        <ele>276.35255</ele>
        <time>2022-06-18T10:15:29.000Z</time>
      </trkpt>
      <trkpt lat="45.84798" lon="4.72292">
        <ele>276.12351</ele>
        <time>2022-06-18T10:15:30.000Z</time>
      </trkpt>
      <trkpt lat="45.84794" lon="4.72296">
        <ele>275.85145</ele>
        <time>2022-06-18T10:15:31.000Z</time>
      </trkpt>
      <trkpt lat="45.84789" lon="4.72301">
        <ele>275.53111</ele>
        <time>2022-06-18T10:15:32.000Z</time>
      </trkpt>
      <trkpt lat="45.84785" lon="4.72304">
        <ele>275.33326</ele>
        <time>2022-06-18T10:15:33.000Z</time>
      </trkpt>
      <trkpt lat="45.8478" lon="4.72306">
        <ele>274.93641</ele>
        <time>2022-06-18T10:15:34.000Z</time>
      </trkpt>
      <trkpt lat="45.84775" lon="4.72308">
        <ele>274.66585</ele>
        <time>2022-06-18T10:15:35.000Z</time>
      </trkpt>
      <trkpt lat="45.84769" lon="4.72308">
        <ele>274.13616</ele>
        <time>2022-06-18T10:15:36.000Z</time>
      </trkpt>
      <trkpt lat="45.84763" lon="4.72308">
        <ele>273.6433</ele>
        <time>2022-06-18T10:15:37.000Z</time>
      </trkpt>
      <trkpt lat="45.84758" lon="4.72309">
        <ele>273.3538</ele>
        <time>2022-06-18T10:15:38.000Z</time>
      </trkpt>
      <trkpt lat="45.84752" lon="4.72309">
        <ele>272.92573</ele>
        <time>2022-06-18T10:15:39.000Z</time>
      </trkpt>
      <trkpt lat="45.84748" lon="4.72308">
        <ele>272.66168</ele>
        <time>2022-06-18T10:15:40.000Z</time>
      </trkpt>
      <trkpt lat="45.84744" lon="4.72308">
        <ele>272.44333</ele>
        <time>2022-06-18T10:15:41.000Z</time>
      </trkpt>
      <trkpt lat="45.8474" lon="4.72308">
        <ele>272.29963</ele>
        <time>2022-06-18T10:15:42.000Z</time>
      </trkpt>
      <trkpt lat="45.84737" lon="4.72309">
        <ele>272.24661</ele>
        <time>2022-06-18T10:15:43.000Z</time>
      </trkpt>
      <trkpt lat="45.84734" lon="4.72309">
        <ele>272.10949</ele>
        <time>2022-06-18T10:15:44.000Z</time>
      </trkpt>
      <trkpt lat="45.84725" lon="4.72311">
        <ele>272.10789</ele>
        <time>2022-06-18T10:15:45.000Z</time>
      </trkpt>
      <trkpt lat="45.84719" lon="4.7231">
        <ele>271.9684</ele>
        <time>2022-06-18T10:15:46.000Z</time>
      </trkpt>
      <trkpt lat="45.84715" lon="4.7231">
        <ele>271.98484</ele>
        <time>2022-06-18T10:15:47.000Z</time>
      </trkpt>
      <trkpt lat="45.8471" lon="4.72309">
        <ele>271.82962</ele>
        <time>2022-06-18T10:15:48.000Z</time>
      </trkpt>
      <trkpt lat="45.84704" lon="4.72309">
        <ele>271.63888</ele>
        <time>2022-06-18T10:15:49.000Z</time>
      </trkpt>
      <trkpt lat="45.84698" lon="4.72311">
        <ele>271.58275</ele>
        <time>2022-06-18T10:15:50.000Z</time>
      </trkpt>
      <trkpt lat="45.84693" lon="4.72311">
        <ele>271.37884</ele>
        <time>2022-06-18T10:15:51.000Z</time>
      </trkpt>
      <trkpt lat="45.84687" lon="4.72312">
        <ele>271.1791</ele>
        <time>2022-06-18T10:15:52.000Z</time>
      </trkpt>
      <trkpt lat="45.84684" lon="4.72313">
        <ele>271.0398</ele>
        <time>2022-06-18T10:15:53.000Z</time>
      </trkpt>
      <trkpt lat="45.84679" lon="4.72313">
        <ele>270.64867</ele>
        <time>2022-06-18T10:15:54.000Z</time>
      </trkpt>
      <trkpt lat="45.84674" lon="4.72314">
        <ele>270.29946</ele>
        <time>2022-06-18T10:15:55.000Z</time>
      </trkpt>
      <trkpt lat="45.84667" lon="4.72318">
        <ele>269.80365</ele>
        <time>2022-06-18T10:15:57.000Z</time>
      </trkpt>
      <trkpt lat="45.84661" lon="4.72317">
        <ele>269.1683</ele>
        <time>2022-06-18T10:15:59.000Z</time>
      </trkpt>
      <trkpt lat="45.84655" lon="4.72317">
        <ele>268.52205</ele>
        <time>2022-06-18T10:16:00.000Z</time>
      </trkpt>
      <trkpt lat="45.84652" lon="4.72318">
        <ele>268.16297</ele>
        <time>2022-06-18T10:16:01.000Z</time>
      </trkpt>
      <trkpt lat="45.84647" lon="4.72318">
        <ele>267.74726</ele>
        <time>2022-06-18T10:16:02.000Z</time>
      </trkpt>
      <trkpt lat="45.84643" lon="4.72319">
        <ele>267.32372</ele>
        <time>2022-06-18T10:16:03.000Z</time>
      </trkpt>
      <trkpt lat="45.84639" lon="4.7232">
        <ele>266.90381</ele>
        <time>2022-06-18T10:16:04.000Z</time>
      </trkpt>
      <trkpt lat="45.84634" lon="4.72321">
        <ele>266.5352</ele>
        <time>2022-06-18T10:16:05.000Z</time>
      </trkpt>
      <trkpt lat="45.8463" lon="4.72322">
        <ele>266.16517</ele>
        <time>2022-06-18T10:16:06.000Z</time>
      </trkpt>
      <trkpt lat="45.84626" lon="4.72323">
        <ele>265.83516</ele>
        <time>2022-06-18T10:16:07.000Z</time>
      </trkpt>
      <trkpt lat="45.84621" lon="4.72324">
        <ele>265.51374</ele>
        <time>2022-06-18T10:16:08.000Z</time>
      </trkpt>
      <trkpt lat="45.84613" lon="4.72326">
        <ele>264.88545</ele>
        <time>2022-06-18T10:16:09.000Z</time>
      </trkpt>
      <trkpt lat="45.84607" lon="4.7233">
        <ele>264.64019</ele>
        <time>2022-06-18T10:16:10.000Z</time>
      </trkpt>
      <trkpt lat="45.84599" lon="4.72332">
        <ele>264.03655</ele>
        <time>2022-06-18T10:16:11.000Z</time>
      </trkpt>
      <trkpt lat="45.84593" lon="4.72337">
        <ele>263.64169</ele>
        <time>2022-06-18T10:16:12.000Z</time>
      </trkpt>
      <trkpt lat="45.84586" lon="4.72343">
        <ele>263.07397</ele>
        <time>2022-06-18T10:16:13.000Z</time>
      </trkpt>
      <trkpt lat="45.84581" lon="4.72349">
        <ele>262.44314</ele>
        <time>2022-06-18T10:16:14.000Z</time>
      </trkpt>
      <trkpt lat="45.84576" lon="4.72355">
        <ele>261.80663</ele>
        <time>2022-06-18T10:16:15.000Z</time>
      </trkpt>
      <trkpt lat="45.8457" lon="4.72362">
        <ele>261.06162</ele>
        <time>2022-06-18T10:16:16.000Z</time>
      </trkpt>
      <trkpt lat="45.84563" lon="4.72368">
        <ele>260.16622</ele>
        <time>2022-06-18T10:16:17.000Z</time>
      </trkpt>
      <trkpt lat="45.84556" lon="4.72377">
        <ele>259.23064</ele>
        <time>2022-06-18T10:16:18.000Z</time>
      </trkpt>
      <trkpt lat="45.8455" lon="4.72382">
        <ele>258.42336</ele>
        <time>2022-06-18T10:16:19.000Z</time>
      </trkpt>
      <trkpt lat="45.84544" lon="4.72387">
        <ele>257.74472</ele>
        <time>2022-06-18T10:16:20.000Z</time>
      </trkpt>
      <trkpt lat="45.84538" lon="4.72394">
        <ele>256.97413</ele>
        <time>2022-06-18T10:16:21.000Z</time>
      </trkpt>
      <trkpt lat="45.8453" lon="4.724">
        <ele>256.16936</ele>
        <time>2022-06-18T10:16:22.000Z</time>
      </trkpt>
      <trkpt lat="45.84521" lon="4.72406">
        <ele>255.39513</ele>
        <time>2022-06-18T10:16:23.000Z</time>
      </trkpt>
      <trkpt lat="45.84505" lon="4.72417">
        <ele>254.57324</ele>
        <time>2022-06-18T10:16:25.000Z</time>
      </trkpt>
      <trkpt lat="45.84499" lon="4.72425">
        <ele>254.33939</ele>
        <time>2022-06-18T10:16:26.000Z</time>
      </trkpt>
      <trkpt lat="45.84492" lon="4.72432">
        <ele>254.35279</ele>
        <time>2022-06-18T10:16:27.000Z</time>
      </trkpt>
      <trkpt lat="45.84488" lon="4.72442">
        <ele>254.19087</ele>
        <time>2022-06-18T10:16:28.000Z</time>
      </trkpt>
      <trkpt lat="45.84496" lon="4.72454">
        <ele>253.86109</ele>
        <time>2022-06-18T10:16:29.000Z</time>
      </trkpt>
      <trkpt lat="45.845" lon="4.72465">
        <ele>253.71954</ele>
        <time>2022-06-18T10:16:30.000Z</time>
      </trkpt>
      <trkpt lat="45.84501" lon="4.72475">
        <ele>253.31249</ele>
        <time>2022-06-18T10:16:31.000Z</time>
      </trkpt>
      <trkpt lat="45.84504" lon="4.72488">
        <ele>253.04175</ele>
        <time>2022-06-18T10:16:32.000Z</time>
      </trkpt>
      <trkpt lat="45.84506" lon="4.72495">
        <ele>253.01102</ele>
        <time>2022-06-18T10:16:33.000Z</time>
      </trkpt>
      <trkpt lat="45.84505" lon="4.72499">
        <ele>252.28554</ele>
        <time>2022-06-18T10:16:34.000Z</time>
      </trkpt>
      <trkpt lat="45.84506" lon="4.72507">
        <ele>251.75373</ele>
        <time>2022-06-18T10:16:35.000Z</time>
      </trkpt>
      <trkpt lat="45.84504" lon="4.72512">
        <ele>250.74175</ele>
        <time>2022-06-18T10:16:36.000Z</time>
      </trkpt>
      <trkpt lat="45.84503" lon="4.72517">
        <ele>249.99441</ele>
        <time>2022-06-18T10:16:38.000Z</time>
      </trkpt>
      <trkpt lat="45.84503" lon="4.72521">
        <ele>249.67067</ele>
        <time>2022-06-18T10:16:39.000Z</time>
      </trkpt>
      <trkpt lat="45.84502" lon="4.72524">
        <ele>249.06433</ele>
        <time>2022-06-18T10:16:42.000Z</time>
      </trkpt>
      <trkpt lat="45.845" lon="4.72524">
        <ele>248.64608</ele>
        <time>2022-06-18T10:16:45.000Z</time>
      </trkpt>
      <trkpt lat="45.84501" lon="4.72528">
        <ele>248.42887</ele>
        <time>2022-06-18T10:16:50.000Z</time>
      </trkpt>
      <trkpt lat="45.84502" lon="4.72533">
        <ele>248.18481</ele>
        <time>2022-06-18T10:17:01.000Z</time>
      </trkpt>
      <trkpt lat="45.84505" lon="4.72536">
        <ele>248.22119</ele>
        <time>2022-06-18T10:17:02.000Z</time>
      </trkpt>
      <trkpt lat="45.84507" lon="4.7254">
        <ele>248.23319</ele>
        <time>2022-06-18T10:17:03.000Z</time>
      </trkpt>
      <trkpt lat="45.84509" lon="4.72543">
        <ele>248.25341</ele>
        <time>2022-06-18T10:17:04.000Z</time>
      </trkpt>
      <trkpt lat="45.84509" lon="4.72543">
        <ele>248.25341</ele>
        <time>2022-06-18T10:17:04.000Z</time>
      </trkpt>
      <trkpt lat="45.8451" lon="4.72545">
        <ele>248.32988</ele>
        <time>2022-06-18T10:17:05.000Z</time>
      </trkpt>
      <trkpt lat="45.84512" lon="4.72547">
        <ele>248.46591</ele>
        <time>2022-06-18T10:17:06.000Z</time>
      </trkpt>
      <trkpt lat="45.84514" lon="4.72549">
        <ele>248.60766</ele>
        <time>2022-06-18T10:17:07.000Z</time>
      </trkpt>
      <trkpt lat="45.84516" lon="4.7255">
        <ele>248.75708</ele>
        <time>2022-06-18T10:17:08.000Z</time>
      </trkpt>
      <trkpt lat="45.84518" lon="4.72553">
        <ele>248.84923</ele>
        <time>2022-06-18T10:17:09.000Z</time>
      </trkpt>
      <trkpt lat="45.84521" lon="4.72557">
        <ele>248.809</ele>
        <time>2022-06-18T10:17:10.000Z</time>
      </trkpt>
      <trkpt lat="45.84523" lon="4.72562">
        <ele>248.68465</ele>
        <time>2022-06-18T10:17:11.000Z</time>
      </trkpt>
      <trkpt lat="45.84526" lon="4.72567">
        <ele>248.52781</ele>
        <time>2022-06-18T10:17:12.000Z</time>
      </trkpt>
      <trkpt lat="45.84529" lon="4.72573">
        <ele>248.39128</ele>
        <time>2022-06-18T10:17:13.000Z</time>
      </trkpt>
      <trkpt lat="45.84531" lon="4.72579">
        <ele>248.25365</ele>
        <time>2022-06-18T10:17:14.000Z</time>
      </trkpt>
      <trkpt lat="45.84532" lon="4.72586">
        <ele>248.1296</ele>
        <time>2022-06-18T10:17:15.000Z</time>
      </trkpt>
      <trkpt lat="45.84533" lon="4.72593">
        <ele>248.04298</ele>
        <time>2022-06-18T10:17:16.000Z</time>
      </trkpt>
      <trkpt lat="45.84533" lon="4.726">
        <ele>248.01009</ele>
        <time>2022-06-18T10:17:17.000Z</time>
      </trkpt>
      <trkpt lat="45.8453" lon="4.72613">
        <ele>247.83288</ele>
        <time>2022-06-18T10:17:18.000Z</time>
      </trkpt>
      <trkpt lat="45.84529" lon="4.72622">
        <ele>248.09962</ele>
        <time>2022-06-18T10:17:19.000Z</time>
      </trkpt>
      <trkpt lat="45.8453" lon="4.72628">
        <ele>248.44083</ele>
        <time>2022-06-18T10:17:20.000Z</time>
      </trkpt>
      <trkpt lat="45.84525" lon="4.72646">
        <ele>248.51741</ele>
        <time>2022-06-18T10:17:22.000Z</time>
      </trkpt>
      <trkpt lat="45.84526" lon="4.72657">
        <ele>249.04502</ele>
        <time>2022-06-18T10:17:23.000Z</time>
      </trkpt>
      <trkpt lat="45.84523" lon="4.72663">
        <ele>248.89255</ele>
        <time>2022-06-18T10:17:24.000Z</time>
      </trkpt>
      <trkpt lat="45.84522" lon="4.72669">
        <ele>249.00791</ele>
        <time>2022-06-18T10:17:25.000Z</time>
      </trkpt>
      <trkpt lat="45.84518" lon="4.72676">
        <ele>248.70363</ele>
        <time>2022-06-18T10:17:26.000Z</time>
      </trkpt>
      <trkpt lat="45.84515" lon="4.72683">
        <ele>248.53297</ele>
        <time>2022-06-18T10:17:27.000Z</time>
      </trkpt>
      <trkpt lat="45.84512" lon="4.72689">
        <ele>248.47398</ele>
        <time>2022-06-18T10:17:28.000Z</time>
      </trkpt>
      <trkpt lat="45.84511" lon="4.72696">
        <ele>248.71355</ele>
        <time>2022-06-18T10:17:29.000Z</time>
      </trkpt>
      <trkpt lat="45.84508" lon="4.72703">
        <ele>248.70032</ele>
        <time>2022-06-18T10:17:30.000Z</time>
      </trkpt>
      <trkpt lat="45.84507" lon="4.72708">
        <ele>248.84204</ele>
        <time>2022-06-18T10:17:31.000Z</time>
      </trkpt>
      <trkpt lat="45.84503" lon="4.72717">
        <ele>248.79668</ele>
        <time>2022-06-18T10:17:32.000Z</time>
      </trkpt>
      <trkpt lat="45.845" lon="4.72724">
        <ele>248.84176</ele>
        <time>2022-06-18T10:17:33.000Z</time>
      </trkpt>
      <trkpt lat="45.84498" lon="4.72732">
        <ele>248.89371</ele>
        <time>2022-06-18T10:17:34.000Z</time>
      </trkpt>
      <trkpt lat="45.84495" lon="4.72745">
        <ele>249.08833</ele>
        <time>2022-06-18T10:17:35.000Z</time>
      </trkpt>
      <trkpt lat="45.84492" lon="4.72752">
        <ele>248.97399</ele>
        <time>2022-06-18T10:17:36.000Z</time>
      </trkpt>
      <trkpt lat="45.84491" lon="4.7276">
        <ele>249.19959</ele>
        <time>2022-06-18T10:17:37.000Z</time>
      </trkpt>
      <trkpt lat="45.8449" lon="4.72766">
        <ele>249.46002</ele>
        <time>2022-06-18T10:17:38.000Z</time>
      </trkpt>
      <trkpt lat="45.84489" lon="4.72771">
        <ele>249.51841</ele>
        <time>2022-06-18T10:17:39.000Z</time>
      </trkpt>
      <trkpt lat="45.84488" lon="4.72775">
        <ele>249.52303</ele>
        <time>2022-06-18T10:17:40.000Z</time>
      </trkpt>
      <trkpt lat="45.84488" lon="4.72781">
        <ele>249.85953</ele>
        <time>2022-06-18T10:17:41.000Z</time>
      </trkpt>
      <trkpt lat="45.84487" lon="4.72786">
        <ele>249.98179</ele>
        <time>2022-06-18T10:17:42.000Z</time>
      </trkpt>
      <trkpt lat="45.84488" lon="4.72793">
        <ele>250.54365</ele>
        <time>2022-06-18T10:17:43.000Z</time>
      </trkpt>
      <trkpt lat="45.84489" lon="4.72805">
        <ele>251.45375</ele>
        <time>2022-06-18T10:17:45.000Z</time>
      </trkpt>
      <trkpt lat="45.84488" lon="4.72811">
        <ele>251.71121</ele>
        <time>2022-06-18T10:17:46.000Z</time>
      </trkpt>
      <trkpt lat="45.84487" lon="4.72817">
        <ele>252.0801</ele>
        <time>2022-06-18T10:17:47.000Z</time>
      </trkpt>
      <trkpt lat="45.84487" lon="4.72821">
        <ele>252.39462</ele>
        <time>2022-06-18T10:17:48.000Z</time>
      </trkpt>
      <trkpt lat="45.84487" lon="4.72826">
        <ele>252.64137</ele>
        <time>2022-06-18T10:17:49.000Z</time>
      </trkpt>
      <trkpt lat="45.84486" lon="4.72831">
        <ele>252.84622</ele>
        <time>2022-06-18T10:17:50.000Z</time>
      </trkpt>
      <trkpt lat="45.84485" lon="4.72836">
        <ele>252.98582</ele>
        <time>2022-06-18T10:17:51.000Z</time>
      </trkpt>
      <trkpt lat="45.84485" lon="4.72841">
        <ele>253.11671</ele>
        <time>2022-06-18T10:17:52.000Z</time>
      </trkpt>
      <trkpt lat="45.84484" lon="4.72846">
        <ele>253.37884</ele>
        <time>2022-06-18T10:17:53.000Z</time>
      </trkpt>
      <trkpt lat="45.84485" lon="4.72852">
        <ele>253.9779</ele>
        <time>2022-06-18T10:17:54.000Z</time>
      </trkpt>
      <trkpt lat="45.84486" lon="4.72858">
        <ele>254.75568</ele>
        <time>2022-06-18T10:17:55.000Z</time>
      </trkpt>
      <trkpt lat="45.84487" lon="4.72864">
        <ele>255.49781</ele>
        <time>2022-06-18T10:17:56.000Z</time>
      </trkpt>
      <trkpt lat="45.84488" lon="4.7287">
        <ele>256.06631</ele>
        <time>2022-06-18T10:17:57.000Z</time>
      </trkpt>
      <trkpt lat="45.84489" lon="4.72876">
        <ele>256.60974</ele>
        <time>2022-06-18T10:17:58.000Z</time>
      </trkpt>
      <trkpt lat="45.84489" lon="4.72882">
        <ele>257.08231</ele>
        <time>2022-06-18T10:17:59.000Z</time>
      </trkpt>
      <trkpt lat="45.8449" lon="4.72889">
        <ele>257.54953</ele>
        <time>2022-06-18T10:18:00.000Z</time>
      </trkpt>
      <trkpt lat="45.84491" lon="4.72896">
        <ele>257.98165</ele>
        <time>2022-06-18T10:18:01.000Z</time>
      </trkpt>
      <trkpt lat="45.84492" lon="4.72903">
        <ele>258.43398</ele>
        <time>2022-06-18T10:18:02.000Z</time>
      </trkpt>
      <trkpt lat="45.84494" lon="4.72909">
        <ele>258.92576</ele>
        <time>2022-06-18T10:18:03.000Z</time>
      </trkpt>
      <trkpt lat="45.84496" lon="4.72915">
        <ele>259.35558</ele>
        <time>2022-06-18T10:18:04.000Z</time>
      </trkpt>
      <trkpt lat="45.84498" lon="4.7292">
        <ele>259.63707</ele>
        <time>2022-06-18T10:18:05.000Z</time>
      </trkpt>
      <trkpt lat="45.84498" lon="4.72923">
        <ele>259.7583</ele>
        <time>2022-06-18T10:18:06.000Z</time>
      </trkpt>
      <trkpt lat="45.84498" lon="4.72926">
        <ele>259.76413</ele>
        <time>2022-06-18T10:18:07.000Z</time>
      </trkpt>
      <trkpt lat="45.84499" lon="4.72929">
        <ele>259.96982</ele>
        <time>2022-06-18T10:18:08.000Z</time>
      </trkpt>
      <trkpt lat="45.84501" lon="4.72932">
        <ele>260.24475</ele>
        <time>2022-06-18T10:18:09.000Z</time>
      </trkpt>
      <trkpt lat="45.84503" lon="4.72936">
        <ele>260.65311</ele>
        <time>2022-06-18T10:18:10.000Z</time>
      </trkpt>
      <trkpt lat="45.84505" lon="4.7294">
        <ele>261.20879</ele>
        <time>2022-06-18T10:18:11.000Z</time>
      </trkpt>
      <trkpt lat="45.84508" lon="4.72944">
        <ele>261.7632</ele>
        <time>2022-06-18T10:18:12.000Z</time>
      </trkpt>
      <trkpt lat="45.8451" lon="4.72948">
        <ele>262.25476</ele>
        <time>2022-06-18T10:18:13.000Z</time>
      </trkpt>
      <trkpt lat="45.84515" lon="4.72963">
        <ele>263.25319</ele>
        <time>2022-06-18T10:18:15.000Z</time>
      </trkpt>
      <trkpt lat="45.84519" lon="4.72966">
        <ele>264.03134</ele>
        <time>2022-06-18T10:18:16.000Z</time>
      </trkpt>
      <trkpt lat="45.84521" lon="4.72967">
        <ele>264.52798</ele>
        <time>2022-06-18T10:18:17.000Z</time>
      </trkpt>
      <trkpt lat="45.84523" lon="4.72969">
        <ele>265.04399</ele>
        <time>2022-06-18T10:18:18.000Z</time>
      </trkpt>
      <trkpt lat="45.84531" lon="4.72971">
        <ele>266.89128</ele>
        <time>2022-06-18T10:18:22.000Z</time>
      </trkpt>
      <trkpt lat="45.84536" lon="4.72969">
        <ele>267.84334</ele>
        <time>2022-06-18T10:18:23.000Z</time>
      </trkpt>
      <trkpt lat="45.8454" lon="4.72969">
        <ele>268.6769</ele>
        <time>2022-06-18T10:18:24.000Z</time>
      </trkpt>
      <trkpt lat="45.84546" lon="4.72962">
        <ele>269.91936</ele>
        <time>2022-06-18T10:18:26.000Z</time>
      </trkpt>
      <trkpt lat="45.84552" lon="4.72956">
        <ele>270.99178</ele>
        <time>2022-06-18T10:18:27.000Z</time>
      </trkpt>
      <trkpt lat="45.84554" lon="4.72954">
        <ele>271.47089</ele>
        <time>2022-06-18T10:18:28.000Z</time>
      </trkpt>
      <trkpt lat="45.84557" lon="4.72952">
        <ele>271.92563</ele>
        <time>2022-06-18T10:18:29.000Z</time>
      </trkpt>
      <trkpt lat="45.8456" lon="4.72951">
        <ele>272.55506</ele>
        <time>2022-06-18T10:18:30.000Z</time>
      </trkpt>
      <trkpt lat="45.84564" lon="4.72955">
        <ele>273.2824</ele>
        <time>2022-06-18T10:18:32.000Z</time>
      </trkpt>
      <trkpt lat="45.84568" lon="4.72959">
        <ele>273.93251</ele>
        <time>2022-06-18T10:18:33.000Z</time>
      </trkpt>
      <trkpt lat="45.8457" lon="4.72963">
        <ele>274.28411</ele>
        <time>2022-06-18T10:18:34.000Z</time>
      </trkpt>
      <trkpt lat="45.84572" lon="4.72966">
        <ele>274.61526</ele>
        <time>2022-06-18T10:18:35.000Z</time>
      </trkpt>
      <trkpt lat="45.84572" lon="4.7297">
        <ele>274.5512</ele>
        <time>2022-06-18T10:18:36.000Z</time>
      </trkpt>
      <trkpt lat="45.84574" lon="4.72974">
        <ele>274.88472</ele>
        <time>2022-06-18T10:18:37.000Z</time>
      </trkpt>
      <trkpt lat="45.84575" lon="4.72978">
        <ele>275.15074</ele>
        <time>2022-06-18T10:18:38.000Z</time>
      </trkpt>
      <trkpt lat="45.84577" lon="4.72981">
        <ele>275.34634</ele>
        <time>2022-06-18T10:18:39.000Z</time>
      </trkpt>
      <trkpt lat="45.84578" lon="4.72985">
        <ele>275.54338</ele>
        <time>2022-06-18T10:18:40.000Z</time>
      </trkpt>
      <trkpt lat="45.8458" lon="4.72988">
        <ele>275.70965</ele>
        <time>2022-06-18T10:18:41.000Z</time>
      </trkpt>
      <trkpt lat="45.84581" lon="4.72992">
        <ele>275.81374</ele>
        <time>2022-06-18T10:18:42.000Z</time>
      </trkpt>
      <trkpt lat="45.84584" lon="4.73001">
        <ele>275.91424</ele>
        <time>2022-06-18T10:18:44.000Z</time>
      </trkpt>
      <trkpt lat="45.84586" lon="4.73005">
        <ele>275.93409</ele>
        <time>2022-06-18T10:18:45.000Z</time>
      </trkpt>
      <trkpt lat="45.84588" lon="4.73011">
        <ele>275.88157</ele>
        <time>2022-06-18T10:18:46.000Z</time>
      </trkpt>
      <trkpt lat="45.84589" lon="4.73017">
        <ele>275.70487</ele>
        <time>2022-06-18T10:18:47.000Z</time>
      </trkpt>
      <trkpt lat="45.84591" lon="4.73023">
        <ele>275.57836</ele>
        <time>2022-06-18T10:18:48.000Z</time>
      </trkpt>
      <trkpt lat="45.84593" lon="4.73029">
        <ele>275.40978</ele>
        <time>2022-06-18T10:18:49.000Z</time>
      </trkpt>
      <trkpt lat="45.84595" lon="4.73035">
        <ele>275.30003</ele>
        <time>2022-06-18T10:18:50.000Z</time>
      </trkpt>
      <trkpt lat="45.84596" lon="4.73041">
        <ele>275.2249</ele>
        <time>2022-06-18T10:18:51.000Z</time>
      </trkpt>
      <trkpt lat="45.84598" lon="4.73047">
        <ele>275.09892</ele>
        <time>2022-06-18T10:18:52.000Z</time>
      </trkpt>
      <trkpt lat="45.846" lon="4.73053">
        <ele>274.90307</ele>
        <time>2022-06-18T10:18:53.000Z</time>
      </trkpt>
      <trkpt lat="45.84601" lon="4.73066">
        <ele>274.00814</ele>
        <time>2022-06-18T10:18:54.000Z</time>
      </trkpt>
      <trkpt lat="45.84601" lon="4.73072">
        <ele>273.49696</ele>
        <time>2022-06-18T10:18:55.000Z</time>
      </trkpt>
      <trkpt lat="45.84602" lon="4.73078">
        <ele>273.0634</ele>
        <time>2022-06-18T10:18:56.000Z</time>
      </trkpt>
      <trkpt lat="45.84605" lon="4.73085">
        <ele>272.66537</ele>
        <time>2022-06-18T10:18:57.000Z</time>
      </trkpt>
      <trkpt lat="45.84606" lon="4.73093">
        <ele>272.07505</ele>
        <time>2022-06-18T10:18:58.000Z</time>
      </trkpt>
      <trkpt lat="45.84608" lon="4.73108">
        <ele>271.03397</ele>
        <time>2022-06-18T10:18:59.000Z</time>
      </trkpt>
      <trkpt lat="45.84609" lon="4.73116">
        <ele>270.45772</ele>
        <time>2022-06-18T10:19:00.000Z</time>
      </trkpt>
      <trkpt lat="45.84612" lon="4.73125">
        <ele>270.14965</ele>
        <time>2022-06-18T10:19:01.000Z</time>
      </trkpt>
      <trkpt lat="45.84615" lon="4.73136">
        <ele>269.52556</ele>
        <time>2022-06-18T10:19:02.000Z</time>
      </trkpt>
      <trkpt lat="45.84617" lon="4.73144">
        <ele>269.08209</ele>
        <time>2022-06-18T10:19:03.000Z</time>
      </trkpt>
      <trkpt lat="45.84623" lon="4.73149">
        <ele>269.0536</ele>
        <time>2022-06-18T10:19:04.000Z</time>
      </trkpt>
      <trkpt lat="45.84626" lon="4.73153">
        <ele>268.96515</ele>
        <time>2022-06-18T10:19:05.000Z</time>
      </trkpt>
      <trkpt lat="45.84632" lon="4.73155">
        <ele>269.05538</ele>
        <time>2022-06-18T10:19:06.000Z</time>
      </trkpt>
      <trkpt lat="45.84635" lon="4.73154">
        <ele>269.20201</ele>
        <time>2022-06-18T10:19:07.000Z</time>
      </trkpt>
      <trkpt lat="45.84644" lon="4.73159">
        <ele>269.19058</ele>
        <time>2022-06-18T10:19:08.000Z</time>
      </trkpt>
      <trkpt lat="45.84651" lon="4.73159">
        <ele>269.36743</ele>
        <time>2022-06-18T10:19:09.000Z</time>
      </trkpt>
      <trkpt lat="45.84661" lon="4.73161">
        <ele>269.35681</ele>
        <time>2022-06-18T10:19:10.000Z</time>
      </trkpt>
      <trkpt lat="45.84667" lon="4.73162">
        <ele>269.40363</ele>
        <time>2022-06-18T10:19:11.000Z</time>
      </trkpt>
      <trkpt lat="45.84686" lon="4.73172">
        <ele>269.27794</ele>
        <time>2022-06-18T10:19:13.000Z</time>
      </trkpt>
      <trkpt lat="45.84692" lon="4.73172">
        <ele>269.37938</ele>
        <time>2022-06-18T10:19:14.000Z</time>
      </trkpt>
      <trkpt lat="45.84695" lon="4.73168">
        <ele>269.62886</ele>
        <time>2022-06-18T10:19:15.000Z</time>
      </trkpt>
      <trkpt lat="45.84702" lon="4.73169">
        <ele>269.6764</ele>
        <time>2022-06-18T10:19:16.000Z</time>
      </trkpt>
      <trkpt lat="45.84708" lon="4.73168">
        <ele>269.82815</ele>
        <time>2022-06-18T10:19:17.000Z</time>
      </trkpt>
      <trkpt lat="45.84714" lon="4.7317">
        <ele>269.76935</ele>
        <time>2022-06-18T10:19:18.000Z</time>
      </trkpt>
      <trkpt lat="45.84718" lon="4.73169">
        <ele>269.89395</ele>
        <time>2022-06-18T10:19:19.000Z</time>
      </trkpt>
      <trkpt lat="45.84722" lon="4.73165">
        <ele>270.25086</ele>
        <time>2022-06-18T10:19:20.000Z</time>
      </trkpt>
      <trkpt lat="45.84726" lon="4.73164">
        <ele>270.36485</ele>
        <time>2022-06-18T10:19:21.000Z</time>
      </trkpt>
      <trkpt lat="45.84732" lon="4.73168">
        <ele>270.1894</ele>
        <time>2022-06-18T10:19:22.000Z</time>
      </trkpt>
      <trkpt lat="45.84737" lon="4.73167">
        <ele>270.28347</ele>
        <time>2022-06-18T10:19:23.000Z</time>
      </trkpt>
      <trkpt lat="45.84741" lon="4.73167">
        <ele>270.32777</ele>
        <time>2022-06-18T10:19:24.000Z</time>
      </trkpt>
      <trkpt lat="45.84745" lon="4.73168">
        <ele>270.33851</ele>
        <time>2022-06-18T10:19:25.000Z</time>
      </trkpt>
      <trkpt lat="45.84751" lon="4.73169">
        <ele>270.25648</ele>
        <time>2022-06-18T10:19:26.000Z</time>
      </trkpt>
      <trkpt lat="45.84755" lon="4.7317">
        <ele>270.23072</ele>
        <time>2022-06-18T10:19:27.000Z</time>
      </trkpt>
      <trkpt lat="45.84763" lon="4.73178">
        <ele>269.37353</ele>
        <time>2022-06-18T10:19:28.000Z</time>
      </trkpt>
      <trkpt lat="45.84766" lon="4.73187">
        <ele>268.26597</ele>
        <time>2022-06-18T10:19:29.000Z</time>
      </trkpt>
      <trkpt lat="45.84769" lon="4.73196">
        <ele>267.5448</ele>
        <time>2022-06-18T10:19:30.000Z</time>
      </trkpt>
      <trkpt lat="45.84769" lon="4.73201">
        <ele>267.43211</ele>
        <time>2022-06-18T10:19:31.000Z</time>
      </trkpt>
      <trkpt lat="45.84772" lon="4.73206">
        <ele>267.38744</ele>
        <time>2022-06-18T10:19:32.000Z</time>
      </trkpt>
      <trkpt lat="45.84773" lon="4.7321">
        <ele>267.43868</ele>
        <time>2022-06-18T10:19:33.000Z</time>
      </trkpt>
      <trkpt lat="45.84773" lon="4.73214">
        <ele>267.50237</ele>
        <time>2022-06-18T10:19:34.000Z</time>
      </trkpt>
      <trkpt lat="45.84772" lon="4.73218">
        <ele>267.56092</ele>
        <time>2022-06-18T10:19:41.000Z</time>
      </trkpt>
      <trkpt lat="45.84771" lon="4.73222">
        <ele>267.52316</ele>
        <time>2022-06-18T10:19:42.000Z</time>
      </trkpt>
      <trkpt lat="45.8477" lon="4.73226">
        <ele>267.40039</ele>
        <time>2022-06-18T10:19:43.000Z</time>
      </trkpt>
      <trkpt lat="45.84767" lon="4.73229">
        <ele>267.19565</ele>
        <time>2022-06-18T10:19:44.000Z</time>
      </trkpt>
      <trkpt lat="45.84762" lon="4.73227">
        <ele>267.29809</ele>
        <time>2022-06-18T10:19:45.000Z</time>
      </trkpt>
      <trkpt lat="45.84758" lon="4.7323">
        <ele>266.92298</ele>
        <time>2022-06-18T10:19:46.000Z</time>
      </trkpt>
      <trkpt lat="45.84754" lon="4.73238">
        <ele>265.82562</ele>
        <time>2022-06-18T10:19:47.000Z</time>
      </trkpt>
      <trkpt lat="45.84751" lon="4.73247">
        <ele>264.54812</ele>
        <time>2022-06-18T10:19:48.000Z</time>
      </trkpt>
      <trkpt lat="45.84752" lon="4.73255">
        <ele>263.71982</ele>
        <time>2022-06-18T10:19:49.000Z</time>
      </trkpt>
      <trkpt lat="45.84755" lon="4.73263">
        <ele>263.24609</ele>
        <time>2022-06-18T10:19:50.000Z</time>
      </trkpt>
      <trkpt lat="45.84758" lon="4.73275">
        <ele>262.9655</ele>
        <time>2022-06-18T10:19:51.000Z</time>
      </trkpt>
      <trkpt lat="45.84757" lon="4.73281">
        <ele>262.84677</ele>
        <time>2022-06-18T10:19:52.000Z</time>
      </trkpt>
      <trkpt lat="45.84757" lon="4.73286">
        <ele>262.71431</ele>
        <time>2022-06-18T10:19:53.000Z</time>
      </trkpt>
      <trkpt lat="45.84756" lon="4.7329">
        <ele>262.63878</ele>
        <time>2022-06-18T10:19:54.000Z</time>
      </trkpt>
      <trkpt lat="45.84756" lon="4.73295">
        <ele>262.51729</ele>
        <time>2022-06-18T10:19:56.000Z</time>
      </trkpt>
      <trkpt lat="45.84756" lon="4.73298">
        <ele>262.44313</ele>
        <time>2022-06-18T10:19:59.000Z</time>
      </trkpt>
      <trkpt lat="45.84756" lon="4.733">
        <ele>262.38274</ele>
        <time>2022-06-18T10:20:05.000Z</time>
      </trkpt>
      <trkpt lat="45.84755" lon="4.73303">
        <ele>262.31264</ele>
        <time>2022-06-18T10:20:14.000Z</time>
      </trkpt>
      <trkpt lat="45.84756" lon="4.73305">
        <ele>262.30673</ele>
        <time>2022-06-18T10:20:15.000Z</time>
      </trkpt>
      <trkpt lat="45.84757" lon="4.73309">
        <ele>262.28653</ele>
        <time>2022-06-18T10:20:17.000Z</time>
      </trkpt>
      <trkpt lat="45.84758" lon="4.73312">
        <ele>262.26919</ele>
        <time>2022-06-18T10:20:18.000Z</time>
      </trkpt>
      <trkpt lat="45.84758" lon="4.73316">
        <ele>262.23823</ele>
        <time>2022-06-18T10:20:19.000Z</time>
      </trkpt>
      <trkpt lat="45.8476" lon="4.73326">
        <ele>262.29347</ele>
        <time>2022-06-18T10:20:20.000Z</time>
      </trkpt>
      <trkpt lat="45.84762" lon="4.73331">
        <ele>262.39077</ele>
        <time>2022-06-18T10:20:21.000Z</time>
      </trkpt>
      <trkpt lat="45.84761" lon="4.73338">
        <ele>262.50918</ele>
        <time>2022-06-18T10:20:22.000Z</time>
      </trkpt>
      <trkpt lat="45.84761" lon="4.73343">
        <ele>262.66343</ele>
        <time>2022-06-18T10:20:23.000Z</time>
      </trkpt>
      <trkpt lat="45.84762" lon="4.73351">
        <ele>262.88817</ele>
        <time>2022-06-18T10:20:24.000Z</time>
      </trkpt>
      <trkpt lat="45.84762" lon="4.73358">
        <ele>263.0805</ele>
        <time>2022-06-18T10:20:25.000Z</time>
      </trkpt>
      <trkpt lat="45.84761" lon="4.73364">
        <ele>263.25574</ele>
        <time>2022-06-18T10:20:26.000Z</time>
      </trkpt>
      <trkpt lat="45.84764" lon="4.73372">
        <ele>263.57885</ele>
        <time>2022-06-18T10:20:27.000Z</time>
      </trkpt>
      <trkpt lat="45.84765" lon="4.73378">
        <ele>263.78526</ele>
        <time>2022-06-18T10:20:28.000Z</time>
      </trkpt>
      <trkpt lat="45.84766" lon="4.73383">
        <ele>263.9803</ele>
        <time>2022-06-18T10:20:29.000Z</time>
      </trkpt>
      <trkpt lat="45.84768" lon="4.73391">
        <ele>264.29535</ele>
        <time>2022-06-18T10:20:30.000Z</time>
      </trkpt>
      <trkpt lat="45.84768" lon="4.73397">
        <ele>264.57076</ele>
        <time>2022-06-18T10:20:31.000Z</time>
      </trkpt>
      <trkpt lat="45.84768" lon="4.73404">
        <ele>264.83744</ele>
        <time>2022-06-18T10:20:32.000Z</time>
      </trkpt>
      <trkpt lat="45.84769" lon="4.73411">
        <ele>265.16763</ele>
        <time>2022-06-18T10:20:33.000Z</time>
      </trkpt>
      <trkpt lat="45.8477" lon="4.73418">
        <ele>265.53942</ele>
        <time>2022-06-18T10:20:34.000Z</time>
      </trkpt>
      <trkpt lat="45.8477" lon="4.73424">
        <ele>265.88509</ele>
        <time>2022-06-18T10:20:35.000Z</time>
      </trkpt>
      <trkpt lat="45.8477" lon="4.73431">
        <ele>266.35739</ele>
        <time>2022-06-18T10:20:36.000Z</time>
      </trkpt>
      <trkpt lat="45.8477" lon="4.73439">
        <ele>266.95818</ele>
        <time>2022-06-18T10:20:37.000Z</time>
      </trkpt>
      <trkpt lat="45.84771" lon="4.73449">
        <ele>267.69748</ele>
        <time>2022-06-18T10:20:38.000Z</time>
      </trkpt>
      <trkpt lat="45.84771" lon="4.73456">
        <ele>268.0735</ele>
        <time>2022-06-18T10:20:39.000Z</time>
      </trkpt>
      <trkpt lat="45.84771" lon="4.73462">
        <ele>268.37977</ele>
        <time>2022-06-18T10:20:40.000Z</time>
      </trkpt>
      <trkpt lat="45.84772" lon="4.73467">
        <ele>268.67508</ele>
        <time>2022-06-18T10:20:41.000Z</time>
      </trkpt>
      <trkpt lat="45.84773" lon="4.73472">
        <ele>268.93638</ele>
        <time>2022-06-18T10:20:42.000Z</time>
      </trkpt>
      <trkpt lat="45.84778" lon="4.73488">
        <ele>269.90431</ele>
        <time>2022-06-18T10:20:44.000Z</time>
      </trkpt>
      <trkpt lat="45.84778" lon="4.7349">
        <ele>269.99393</ele>
        <time>2022-06-18T10:20:47.000Z</time>
      </trkpt>
      <trkpt lat="45.84776" lon="4.73492">
        <ele>270.00477</ele>
        <time>2022-06-18T10:20:59.000Z</time>
      </trkpt>
      <trkpt lat="45.84771" lon="4.7349">
        <ele>269.65688</ele>
        <time>2022-06-18T10:21:36.000Z</time>
      </trkpt>
      <trkpt lat="45.84768" lon="4.7349">
        <ele>269.5053</ele>
        <time>2022-06-18T10:21:37.000Z</time>
      </trkpt>
      <trkpt lat="45.84764" lon="4.7349">
        <ele>269.2408</ele>
        <time>2022-06-18T10:21:39.000Z</time>
      </trkpt>
      <trkpt lat="45.84758" lon="4.73489">
        <ele>268.91386</ele>
        <time>2022-06-18T10:21:41.000Z</time>
      </trkpt>
      <trkpt lat="45.84751" lon="4.73489">
        <ele>268.41378</ele>
        <time>2022-06-18T10:21:42.000Z</time>
      </trkpt>
      <trkpt lat="45.84743" lon="4.73487">
        <ele>267.86986</ele>
        <time>2022-06-18T10:21:43.000Z</time>
      </trkpt>
      <trkpt lat="45.84736" lon="4.73483">
        <ele>267.30211</ele>
        <time>2022-06-18T10:21:44.000Z</time>
      </trkpt>
      <trkpt lat="45.84729" lon="4.73482">
        <ele>266.73626</ele>
        <time>2022-06-18T10:21:45.000Z</time>
      </trkpt>
      <trkpt lat="45.84722" lon="4.7348">
        <ele>266.18285</ele>
        <time>2022-06-18T10:21:46.000Z</time>
      </trkpt>
      <trkpt lat="45.84715" lon="4.73477">
        <ele>265.58557</ele>
        <time>2022-06-18T10:21:47.000Z</time>
      </trkpt>
      <trkpt lat="45.84708" lon="4.73475">
        <ele>265.03359</ele>
        <time>2022-06-18T10:21:48.000Z</time>
      </trkpt>
      <trkpt lat="45.84701" lon="4.73474">
        <ele>264.58339</ele>
        <time>2022-06-18T10:21:49.000Z</time>
      </trkpt>
      <trkpt lat="45.84692" lon="4.7347">
        <ele>263.95847</ele>
        <time>2022-06-18T10:21:50.000Z</time>
      </trkpt>
      <trkpt lat="45.84687" lon="4.73466">
        <ele>263.54148</ele>
        <time>2022-06-18T10:21:51.000Z</time>
      </trkpt>
      <trkpt lat="45.84679" lon="4.73466">
        <ele>262.91423</ele>
        <time>2022-06-18T10:21:52.000Z</time>
      </trkpt>
      <trkpt lat="45.84671" lon="4.73464">
        <ele>262.24066</ele>
        <time>2022-06-18T10:21:53.000Z</time>
      </trkpt>
      <trkpt lat="45.84662" lon="4.73464">
        <ele>261.59224</ele>
        <time>2022-06-18T10:21:54.000Z</time>
      </trkpt>
      <trkpt lat="45.84653" lon="4.73463">
        <ele>260.90826</ele>
        <time>2022-06-18T10:21:55.000Z</time>
      </trkpt>
      <trkpt lat="45.84646" lon="4.73463">
        <ele>260.38789</ele>
        <time>2022-06-18T10:21:56.000Z</time>
      </trkpt>
      <trkpt lat="45.8464" lon="4.73463">
        <ele>260.02281</ele>
        <time>2022-06-18T10:21:57.000Z</time>
      </trkpt>
      <trkpt lat="45.84634" lon="4.73464">
        <ele>259.76803</ele>
        <time>2022-06-18T10:21:58.000Z</time>
      </trkpt>
      <trkpt lat="45.8463" lon="4.73465">
        <ele>259.6279</ele>
        <time>2022-06-18T10:21:59.000Z</time>
      </trkpt>
      <trkpt lat="45.84625" lon="4.73467">
        <ele>259.4157</ele>
        <time>2022-06-18T10:22:00.000Z</time>
      </trkpt>
      <trkpt lat="45.8462" lon="4.73469">
        <ele>259.23373</ele>
        <time>2022-06-18T10:22:01.000Z</time>
      </trkpt>
      <trkpt lat="45.84615" lon="4.73472">
        <ele>258.9904</ele>
        <time>2022-06-18T10:22:02.000Z</time>
      </trkpt>
      <trkpt lat="45.8461" lon="4.73475">
        <ele>258.78888</ele>
        <time>2022-06-18T10:22:03.000Z</time>
      </trkpt>
      <trkpt lat="45.84604" lon="4.73476">
        <ele>258.43398</ele>
        <time>2022-06-18T10:22:04.000Z</time>
      </trkpt>
      <trkpt lat="45.84598" lon="4.7348">
        <ele>258.12726</ele>
        <time>2022-06-18T10:22:05.000Z</time>
      </trkpt>
      <trkpt lat="45.84594" lon="4.73483">
        <ele>257.93943</ele>
        <time>2022-06-18T10:22:06.000Z</time>
      </trkpt>
      <trkpt lat="45.84587" lon="4.73488">
        <ele>257.69794</ele>
        <time>2022-06-18T10:22:07.000Z</time>
      </trkpt>
      <trkpt lat="45.84581" lon="4.73493">
        <ele>257.57103</ele>
        <time>2022-06-18T10:22:08.000Z</time>
      </trkpt>
      <trkpt lat="45.84576" lon="4.73496">
        <ele>257.44418</ele>
        <time>2022-06-18T10:22:09.000Z</time>
      </trkpt>
      <trkpt lat="45.84572" lon="4.73501">
        <ele>257.63864</ele>
        <time>2022-06-18T10:22:10.000Z</time>
      </trkpt>
      <trkpt lat="45.84568" lon="4.73504">
        <ele>257.45039</ele>
        <time>2022-06-18T10:22:11.000Z</time>
      </trkpt>
      <trkpt lat="45.84563" lon="4.7351">
        <ele>257.31481</ele>
        <time>2022-06-18T10:22:12.000Z</time>
      </trkpt>
      <trkpt lat="45.84557" lon="4.73515">
        <ele>257.13587</ele>
        <time>2022-06-18T10:22:13.000Z</time>
      </trkpt>
      <trkpt lat="45.84553" lon="4.73522">
        <ele>257.27584</ele>
        <time>2022-06-18T10:22:14.000Z</time>
      </trkpt>
      <trkpt lat="45.84549" lon="4.73528">
        <ele>257.48046</ele>
        <time>2022-06-18T10:22:15.000Z</time>
      </trkpt>
      <trkpt lat="45.84545" lon="4.73533">
        <ele>257.54595</ele>
        <time>2022-06-18T10:22:16.000Z</time>
      </trkpt>
      <trkpt lat="45.84542" lon="4.73537">
        <ele>257.57401</ele>
        <time>2022-06-18T10:22:17.000Z</time>
      </trkpt>
      <trkpt lat="45.84538" lon="4.73542">
        <ele>257.5765</ele>
        <time>2022-06-18T10:22:18.000Z</time>
      </trkpt>
      <trkpt lat="45.84534" lon="4.73547">
        <ele>257.58267</ele>
        <time>2022-06-18T10:22:19.000Z</time>
      </trkpt>
      <trkpt lat="45.8453" lon="4.73552">
        <ele>257.63533</ele>
        <time>2022-06-18T10:22:20.000Z</time>
      </trkpt>
      <trkpt lat="45.84525" lon="4.73558">
        <ele>257.59656</ele>
        <time>2022-06-18T10:22:21.000Z</time>
      </trkpt>
      <trkpt lat="45.84521" lon="4.73564">
        <ele>257.63041</ele>
        <time>2022-06-18T10:22:22.000Z</time>
      </trkpt>
      <trkpt lat="45.84516" lon="4.73569">
        <ele>257.51265</ele>
        <time>2022-06-18T10:22:23.000Z</time>
      </trkpt>
      <trkpt lat="45.8451" lon="4.73574">
        <ele>257.42004</ele>
        <time>2022-06-18T10:22:24.000Z</time>
      </trkpt>
      <trkpt lat="45.84506" lon="4.7358">
        <ele>257.55563</ele>
        <time>2022-06-18T10:22:25.000Z</time>
      </trkpt>
      <trkpt lat="45.84502" lon="4.73586">
        <ele>257.65032</ele>
        <time>2022-06-18T10:22:26.000Z</time>
      </trkpt>
      <trkpt lat="45.84497" lon="4.73592">
        <ele>257.70863</ele>
        <time>2022-06-18T10:22:27.000Z</time>
      </trkpt>
      <trkpt lat="45.84494" lon="4.73597">
        <ele>257.7705</ele>
        <time>2022-06-18T10:22:28.000Z</time>
      </trkpt>
      <trkpt lat="45.84488" lon="4.73601">
        <ele>257.59381</ele>
        <time>2022-06-18T10:22:29.000Z</time>
      </trkpt>
      <trkpt lat="45.84485" lon="4.73606">
        <ele>257.78725</ele>
        <time>2022-06-18T10:22:30.000Z</time>
      </trkpt>
      <trkpt lat="45.8448" lon="4.73614">
        <ele>258.13259</ele>
        <time>2022-06-18T10:22:32.000Z</time>
      </trkpt>
      <trkpt lat="45.84478" lon="4.73618">
        <ele>258.47222</ele>
        <time>2022-06-18T10:22:33.000Z</time>
      </trkpt>
      <trkpt lat="45.84476" lon="4.73621">
        <ele>258.58423</ele>
        <time>2022-06-18T10:22:34.000Z</time>
      </trkpt>
      <trkpt lat="45.84478" lon="4.73623">
        <ele>258.93693</ele>
        <time>2022-06-18T10:22:35.000Z</time>
      </trkpt>
      <trkpt lat="45.84477" lon="4.73627">
        <ele>259.34178</ele>
        <time>2022-06-18T10:22:36.000Z</time>
      </trkpt>
      <trkpt lat="45.84478" lon="4.7363">
        <ele>259.67695</ele>
        <time>2022-06-18T10:22:37.000Z</time>
      </trkpt>
      <trkpt lat="45.84478" lon="4.73634">
        <ele>260.19871</ele>
        <time>2022-06-18T10:22:38.000Z</time>
      </trkpt>
      <trkpt lat="45.84476" lon="4.73639">
        <ele>260.53101</ele>
        <time>2022-06-18T10:22:39.000Z</time>
      </trkpt>
      <trkpt lat="45.84473" lon="4.73641">
        <ele>260.54459</ele>
        <time>2022-06-18T10:22:40.000Z</time>
      </trkpt>
      <trkpt lat="45.8447" lon="4.73642">
        <ele>260.55059</ele>
        <time>2022-06-18T10:22:41.000Z</time>
      </trkpt>
      <trkpt lat="45.84466" lon="4.73644">
        <ele>260.52835</ele>
        <time>2022-06-18T10:22:42.000Z</time>
      </trkpt>
      <trkpt lat="45.84463" lon="4.73646">
        <ele>260.45965</ele>
        <time>2022-06-18T10:22:43.000Z</time>
      </trkpt>
      <trkpt lat="45.84458" lon="4.73647">
        <ele>260.37221</ele>
        <time>2022-06-18T10:22:44.000Z</time>
      </trkpt>
      <trkpt lat="45.84449" lon="4.73646">
        <ele>259.8586</ele>
        <time>2022-06-18T10:22:45.000Z</time>
      </trkpt>
      <trkpt lat="45.84443" lon="4.73647">
        <ele>259.74124</ele>
        <time>2022-06-18T10:22:46.000Z</time>
      </trkpt>
      <trkpt lat="45.8444" lon="4.73648">
        <ele>259.77189</ele>
        <time>2022-06-18T10:22:47.000Z</time>
      </trkpt>
      <trkpt lat="45.84437" lon="4.73649">
        <ele>259.86545</ele>
        <time>2022-06-18T10:22:48.000Z</time>
      </trkpt>
      <trkpt lat="45.84432" lon="4.7365">
        <ele>259.96361</ele>
        <time>2022-06-18T10:22:49.000Z</time>
      </trkpt>
      <trkpt lat="45.84428" lon="4.73649">
        <ele>259.93761</ele>
        <time>2022-06-18T10:22:50.000Z</time>
      </trkpt>
      <trkpt lat="45.84426" lon="4.7365">
        <ele>260.03008</ele>
        <time>2022-06-18T10:22:51.000Z</time>
      </trkpt>
      <trkpt lat="45.84422" lon="4.73651">
        <ele>260.38847</ele>
        <time>2022-06-18T10:22:52.000Z</time>
      </trkpt>
      <trkpt lat="45.8442" lon="4.73654">
        <ele>260.98093</ele>
        <time>2022-06-18T10:22:53.000Z</time>
      </trkpt>
      <trkpt lat="45.84417" lon="4.73657">
        <ele>261.51604</ele>
        <time>2022-06-18T10:22:54.000Z</time>
      </trkpt>
      <trkpt lat="45.84414" lon="4.73656">
        <ele>261.33589</ele>
        <time>2022-06-18T10:22:55.000Z</time>
      </trkpt>
      <trkpt lat="45.84412" lon="4.73657">
        <ele>261.53365</ele>
        <time>2022-06-18T10:22:56.000Z</time>
      </trkpt>
      <trkpt lat="45.84409" lon="4.73658">
        <ele>261.50778</ele>
        <time>2022-06-18T10:22:57.000Z</time>
      </trkpt>
      <trkpt lat="45.84406" lon="4.7366">
        <ele>261.60709</ele>
        <time>2022-06-18T10:22:58.000Z</time>
      </trkpt>
      <trkpt lat="45.84403" lon="4.73661">
        <ele>261.56298</ele>
        <time>2022-06-18T10:22:59.000Z</time>
      </trkpt>
      <trkpt lat="45.84399" lon="4.73662">
        <ele>261.42152</ele>
        <time>2022-06-18T10:23:00.000Z</time>
      </trkpt>
      <trkpt lat="45.84398" lon="4.73663">
        <ele>261.31869</ele>
        <time>2022-06-18T10:23:01.000Z</time>
      </trkpt>
      <trkpt lat="45.84396" lon="4.73664">
        <ele>261.2108</ele>
        <time>2022-06-18T10:23:02.000Z</time>
      </trkpt>
      <trkpt lat="45.84394" lon="4.73665">
        <ele>261.12198</ele>
        <time>2022-06-18T10:23:03.000Z</time>
      </trkpt>
      <trkpt lat="45.84391" lon="4.73666">
        <ele>260.94481</ele>
        <time>2022-06-18T10:23:05.000Z</time>
      </trkpt>
      <trkpt lat="45.84388" lon="4.73665">
        <ele>260.40836</ele>
        <time>2022-06-18T10:23:07.000Z</time>
      </trkpt>
      <trkpt lat="45.84386" lon="4.73664">
        <ele>259.97341</ele>
        <time>2022-06-18T10:23:08.000Z</time>
      </trkpt>
      <trkpt lat="45.84384" lon="4.73662">
        <ele>259.51039</ele>
        <time>2022-06-18T10:23:09.000Z</time>
      </trkpt>
      <trkpt lat="45.84383" lon="4.7366">
        <ele>259.09026</ele>
        <time>2022-06-18T10:23:10.000Z</time>
      </trkpt>
      <trkpt lat="45.84381" lon="4.73659">
        <ele>258.72985</ele>
        <time>2022-06-18T10:23:12.000Z</time>
      </trkpt>
      <trkpt lat="45.84379" lon="4.7366">
        <ele>258.55213</ele>
        <time>2022-06-18T10:23:16.000Z</time>
      </trkpt>
      <trkpt lat="45.84377" lon="4.73662">
        <ele>258.48115</ele>
        <time>2022-06-18T10:23:28.000Z</time>
      </trkpt>
      <trkpt lat="45.84375" lon="4.73662">
        <ele>258.17151</ele>
        <time>2022-06-18T10:23:30.000Z</time>
      </trkpt>
      <trkpt lat="45.84372" lon="4.73661">
        <ele>257.69604</ele>
        <time>2022-06-18T10:23:32.000Z</time>
      </trkpt>
      <trkpt lat="45.8437" lon="4.73661">
        <ele>257.44257</ele>
        <time>2022-06-18T10:23:33.000Z</time>
      </trkpt>
      <trkpt lat="45.84366" lon="4.73662">
        <ele>257.11675</ele>
        <time>2022-06-18T10:23:34.000Z</time>
      </trkpt>
      <trkpt lat="45.84362" lon="4.73664">
        <ele>256.77683</ele>
        <time>2022-06-18T10:23:35.000Z</time>
      </trkpt>
      <trkpt lat="45.84358" lon="4.73665">
        <ele>256.41591</ele>
        <time>2022-06-18T10:23:36.000Z</time>
      </trkpt>
      <trkpt lat="45.84346" lon="4.73669">
        <ele>255.63743</ele>
        <time>2022-06-18T10:23:38.000Z</time>
      </trkpt>
      <trkpt lat="45.84342" lon="4.73668">
        <ele>255.43216</ele>
        <time>2022-06-18T10:23:39.000Z</time>
      </trkpt>
      <trkpt lat="45.84338" lon="4.73669">
        <ele>255.29357</ele>
        <time>2022-06-18T10:23:40.000Z</time>
      </trkpt>
      <trkpt lat="45.84333" lon="4.7367">
        <ele>255.22123</ele>
        <time>2022-06-18T10:23:41.000Z</time>
      </trkpt>
      <trkpt lat="45.84328" lon="4.73672">
        <ele>255.29274</ele>
        <time>2022-06-18T10:23:42.000Z</time>
      </trkpt>
      <trkpt lat="45.84323" lon="4.73673">
        <ele>255.39414</ele>
        <time>2022-06-18T10:23:43.000Z</time>
      </trkpt>
      <trkpt lat="45.8432" lon="4.73674">
        <ele>255.50119</ele>
        <time>2022-06-18T10:23:44.000Z</time>
      </trkpt>
      <trkpt lat="45.84314" lon="4.73676">
        <ele>255.78553</ele>
        <time>2022-06-18T10:23:45.000Z</time>
      </trkpt>
      <trkpt lat="45.84311" lon="4.73674">
        <ele>255.78461</ele>
        <time>2022-06-18T10:23:46.000Z</time>
      </trkpt>
      <trkpt lat="45.84308" lon="4.73674">
        <ele>255.93678</ele>
        <time>2022-06-18T10:23:47.000Z</time>
      </trkpt>
      <trkpt lat="45.84304" lon="4.73676">
        <ele>256.19229</ele>
        <time>2022-06-18T10:23:48.000Z</time>
      </trkpt>
      <trkpt lat="45.84299" lon="4.73676">
        <ele>256.33244</ele>
        <time>2022-06-18T10:23:49.000Z</time>
      </trkpt>
      <trkpt lat="45.84296" lon="4.73678">
        <ele>256.5536</ele>
        <time>2022-06-18T10:23:50.000Z</time>
      </trkpt>
      <trkpt lat="45.84292" lon="4.73679">
        <ele>256.74686</ele>
        <time>2022-06-18T10:23:51.000Z</time>
      </trkpt>
      <trkpt lat="45.8429" lon="4.73682">
        <ele>257.02427</ele>
        <time>2022-06-18T10:23:52.000Z</time>
      </trkpt>
      <trkpt lat="45.84287" lon="4.73685">
        <ele>257.37937</ele>
        <time>2022-06-18T10:23:53.000Z</time>
      </trkpt>
      <trkpt lat="45.84284" lon="4.73687">
        <ele>257.64856</ele>
        <time>2022-06-18T10:23:54.000Z</time>
      </trkpt>
      <trkpt lat="45.84281" lon="4.73689">
        <ele>257.86007</ele>
        <time>2022-06-18T10:23:55.000Z</time>
      </trkpt>
      <trkpt lat="45.84278" lon="4.73691">
        <ele>258.0547</ele>
        <time>2022-06-18T10:23:56.000Z</time>
      </trkpt>
      <trkpt lat="45.84275" lon="4.73693">
        <ele>258.27114</ele>
        <time>2022-06-18T10:23:57.000Z</time>
      </trkpt>
      <trkpt lat="45.84272" lon="4.73696">
        <ele>258.51889</ele>
        <time>2022-06-18T10:23:58.000Z</time>
      </trkpt>
      <trkpt lat="45.8427" lon="4.737">
        <ele>258.73481</ele>
        <time>2022-06-18T10:23:59.000Z</time>
      </trkpt>
      <trkpt lat="45.84268" lon="4.73705">
        <ele>258.91673</ele>
        <time>2022-06-18T10:24:00.000Z</time>
      </trkpt>
      <trkpt lat="45.84267" lon="4.7371">
        <ele>259.05911</ele>
        <time>2022-06-18T10:24:01.000Z</time>
      </trkpt>
      <trkpt lat="45.84266" lon="4.73715">
        <ele>259.17265</ele>
        <time>2022-06-18T10:24:02.000Z</time>
      </trkpt>
      <trkpt lat="45.84265" lon="4.7372">
        <ele>259.31022</ele>
        <time>2022-06-18T10:24:03.000Z</time>
      </trkpt>
      <trkpt lat="45.84267" lon="4.73726">
        <ele>259.6067</ele>
        <time>2022-06-18T10:24:04.000Z</time>
      </trkpt>
      <trkpt lat="45.84269" lon="4.7373">
        <ele>260.03843</ele>
        <time>2022-06-18T10:24:05.000Z</time>
      </trkpt>
      <trkpt lat="45.84279" lon="4.73733">
        <ele>260.8668</ele>
        <time>2022-06-18T10:24:06.000Z</time>
      </trkpt>
      <trkpt lat="45.84283" lon="4.73738">
        <ele>261.29882</ele>
        <time>2022-06-18T10:24:07.000Z</time>
      </trkpt>
      <trkpt lat="45.84285" lon="4.73744">
        <ele>261.76515</ele>
        <time>2022-06-18T10:24:08.000Z</time>
      </trkpt>
      <trkpt lat="45.84286" lon="4.73754">
        <ele>262.46646</ele>
        <time>2022-06-18T10:24:09.000Z</time>
      </trkpt>
      <trkpt lat="45.8429" lon="4.73762">
        <ele>263.21676</ele>
        <time>2022-06-18T10:24:10.000Z</time>
      </trkpt>
      <trkpt lat="45.84296" lon="4.73778">
        <ele>264.99763</ele>
        <time>2022-06-18T10:24:12.000Z</time>
      </trkpt>
      <trkpt lat="45.84301" lon="4.73783">
        <ele>265.86375</ele>
        <time>2022-06-18T10:24:13.000Z</time>
      </trkpt>
      <trkpt lat="45.84305" lon="4.7379">
        <ele>266.77395</ele>
        <time>2022-06-18T10:24:14.000Z</time>
      </trkpt>
      <trkpt lat="45.84309" lon="4.73792">
        <ele>267.30958</ele>
        <time>2022-06-18T10:24:15.000Z</time>
      </trkpt>
      <trkpt lat="45.84315" lon="4.73805">
        <ele>268.84746</ele>
        <time>2022-06-18T10:24:17.000Z</time>
      </trkpt>
      <trkpt lat="45.84321" lon="4.73816">
        <ele>270.07105</ele>
        <time>2022-06-18T10:24:19.000Z</time>
      </trkpt>
      <trkpt lat="45.84324" lon="4.73822">
        <ele>270.56475</ele>
        <time>2022-06-18T10:24:20.000Z</time>
      </trkpt>
      <trkpt lat="45.84327" lon="4.73825">
        <ele>270.85422</ele>
        <time>2022-06-18T10:24:21.000Z</time>
      </trkpt>
      <trkpt lat="45.8433" lon="4.73831">
        <ele>271.12988</ele>
        <time>2022-06-18T10:24:22.000Z</time>
      </trkpt>
      <trkpt lat="45.84334" lon="4.73836">
        <ele>271.34616</ele>
        <time>2022-06-18T10:24:23.000Z</time>
      </trkpt>
      <trkpt lat="45.84336" lon="4.73842">
        <ele>271.49678</ele>
        <time>2022-06-18T10:24:24.000Z</time>
      </trkpt>
      <trkpt lat="45.84338" lon="4.73849">
        <ele>271.7077</ele>
        <time>2022-06-18T10:24:25.000Z</time>
      </trkpt>
      <trkpt lat="45.84341" lon="4.73856">
        <ele>271.97385</ele>
        <time>2022-06-18T10:24:26.000Z</time>
      </trkpt>
      <trkpt lat="45.84343" lon="4.73866">
        <ele>272.30379</ele>
        <time>2022-06-18T10:24:27.000Z</time>
      </trkpt>
      <trkpt lat="45.84345" lon="4.73872">
        <ele>272.53763</ele>
        <time>2022-06-18T10:24:28.000Z</time>
      </trkpt>
      <trkpt lat="45.84351" lon="4.73877">
        <ele>272.85969</ele>
        <time>2022-06-18T10:24:29.000Z</time>
      </trkpt>
      <trkpt lat="45.84355" lon="4.73881">
        <ele>273.06684</ele>
        <time>2022-06-18T10:24:30.000Z</time>
      </trkpt>
      <trkpt lat="45.84358" lon="4.73884">
        <ele>273.23924</ele>
        <time>2022-06-18T10:24:31.000Z</time>
      </trkpt>
      <trkpt lat="45.8436" lon="4.73892">
        <ele>273.54704</ele>
        <time>2022-06-18T10:24:32.000Z</time>
      </trkpt>
      <trkpt lat="45.84363" lon="4.73899">
        <ele>273.8926</ele>
        <time>2022-06-18T10:24:33.000Z</time>
      </trkpt>
      <trkpt lat="45.84367" lon="4.73906">
        <ele>274.31288</ele>
        <time>2022-06-18T10:24:34.000Z</time>
      </trkpt>
      <trkpt lat="45.84371" lon="4.73912">
        <ele>274.72474</ele>
        <time>2022-06-18T10:24:35.000Z</time>
      </trkpt>
      <trkpt lat="45.84374" lon="4.73917">
        <ele>275.07405</ele>
        <time>2022-06-18T10:24:36.000Z</time>
      </trkpt>
      <trkpt lat="45.84377" lon="4.73926">
        <ele>275.56446</ele>
        <time>2022-06-18T10:24:37.000Z</time>
      </trkpt>
      <trkpt lat="45.84379" lon="4.73933">
        <ele>275.94013</ele>
        <time>2022-06-18T10:24:38.000Z</time>
      </trkpt>
      <trkpt lat="45.84382" lon="4.7394">
        <ele>276.39464</ele>
        <time>2022-06-18T10:24:39.000Z</time>
      </trkpt>
      <trkpt lat="45.84383" lon="4.73947">
        <ele>276.74927</ele>
        <time>2022-06-18T10:24:40.000Z</time>
      </trkpt>
      <trkpt lat="45.84386" lon="4.73951">
        <ele>277.06095</ele>
        <time>2022-06-18T10:24:41.000Z</time>
      </trkpt>
      <trkpt lat="45.84389" lon="4.73957">
        <ele>277.39352</ele>
        <time>2022-06-18T10:24:42.000Z</time>
      </trkpt>
      <trkpt lat="45.8439" lon="4.73968">
        <ele>277.78994</ele>
        <time>2022-06-18T10:24:43.000Z</time>
      </trkpt>
      <trkpt lat="45.84394" lon="4.73971">
        <ele>278.04347</ele>
        <time>2022-06-18T10:24:44.000Z</time>
      </trkpt>
      <trkpt lat="45.84397" lon="4.73977">
        <ele>278.22425</ele>
        <time>2022-06-18T10:24:45.000Z</time>
      </trkpt>
      <trkpt lat="45.84398" lon="4.73981">
        <ele>278.35456</ele>
        <time>2022-06-18T10:24:46.000Z</time>
      </trkpt>
      <trkpt lat="45.84401" lon="4.73985">
        <ele>278.50076</ele>
        <time>2022-06-18T10:24:47.000Z</time>
      </trkpt>
      <trkpt lat="45.84403" lon="4.73986">
        <ele>278.5975</ele>
        <time>2022-06-18T10:24:48.000Z</time>
      </trkpt>
      <trkpt lat="45.84404" lon="4.73991">
        <ele>278.74369</ele>
        <time>2022-06-18T10:24:50.000Z</time>
      </trkpt>
      <trkpt lat="45.84406" lon="4.73997">
        <ele>278.95819</ele>
        <time>2022-06-18T10:24:51.000Z</time>
      </trkpt>
      <trkpt lat="45.84409" lon="4.74">
        <ele>279.13484</ele>
        <time>2022-06-18T10:24:52.000Z</time>
      </trkpt>
      <trkpt lat="45.84411" lon="4.74005">
        <ele>279.37886</ele>
        <time>2022-06-18T10:24:53.000Z</time>
      </trkpt>
      <trkpt lat="45.84414" lon="4.7401">
        <ele>279.62974</ele>
        <time>2022-06-18T10:24:54.000Z</time>
      </trkpt>
      <trkpt lat="45.84417" lon="4.74017">
        <ele>279.91488</ele>
        <time>2022-06-18T10:24:55.000Z</time>
      </trkpt>
      <trkpt lat="45.84421" lon="4.74023">
        <ele>280.16894</ele>
        <time>2022-06-18T10:24:56.000Z</time>
      </trkpt>
      <trkpt lat="45.84424" lon="4.74029">
        <ele>280.34876</ele>
        <time>2022-06-18T10:24:57.000Z</time>
      </trkpt>
      <trkpt lat="45.84428" lon="4.74035">
        <ele>280.54809</ele>
        <time>2022-06-18T10:24:58.000Z</time>
      </trkpt>
      <trkpt lat="45.84431" lon="4.74041">
        <ele>280.74793</ele>
        <time>2022-06-18T10:24:59.000Z</time>
      </trkpt>
      <trkpt lat="45.84436" lon="4.74048">
        <ele>281.06532</ele>
        <time>2022-06-18T10:25:00.000Z</time>
      </trkpt>
      <trkpt lat="45.84439" lon="4.74055">
        <ele>281.3559</ele>
        <time>2022-06-18T10:25:01.000Z</time>
      </trkpt>
      <trkpt lat="45.84443" lon="4.74063">
        <ele>281.66323</ele>
        <time>2022-06-18T10:25:02.000Z</time>
      </trkpt>
      <trkpt lat="45.84447" lon="4.7407">
        <ele>281.99015</ele>
        <time>2022-06-18T10:25:03.000Z</time>
      </trkpt>
      <trkpt lat="45.84451" lon="4.74078">
        <ele>282.32219</ele>
        <time>2022-06-18T10:25:04.000Z</time>
      </trkpt>
      <trkpt lat="45.84455" lon="4.74083">
        <ele>282.63454</ele>
        <time>2022-06-18T10:25:05.000Z</time>
      </trkpt>
      <trkpt lat="45.84458" lon="4.74089">
        <ele>282.90748</ele>
        <time>2022-06-18T10:25:06.000Z</time>
      </trkpt>
      <trkpt lat="45.8446" lon="4.74095">
        <ele>283.14766</ele>
        <time>2022-06-18T10:25:07.000Z</time>
      </trkpt>
      <trkpt lat="45.84463" lon="4.74101">
        <ele>283.42191</ele>
        <time>2022-06-18T10:25:08.000Z</time>
      </trkpt>
      <trkpt lat="45.84466" lon="4.74107">
        <ele>283.7294</ele>
        <time>2022-06-18T10:25:09.000Z</time>
      </trkpt>
      <trkpt lat="45.8447" lon="4.74114">
        <ele>284.14353</ele>
        <time>2022-06-18T10:25:10.000Z</time>
      </trkpt>
      <trkpt lat="45.84473" lon="4.74121">
        <ele>284.57629</ele>
        <time>2022-06-18T10:25:11.000Z</time>
      </trkpt>
      <trkpt lat="45.84478" lon="4.74125">
        <ele>285.03502</ele>
        <time>2022-06-18T10:25:12.000Z</time>
      </trkpt>
      <trkpt lat="45.84481" lon="4.74132">
        <ele>285.41442</ele>
        <time>2022-06-18T10:25:13.000Z</time>
      </trkpt>
      <trkpt lat="45.84484" lon="4.74138">
        <ele>285.81103</ele>
        <time>2022-06-18T10:25:14.000Z</time>
      </trkpt>
      <trkpt lat="45.84486" lon="4.74146">
        <ele>286.1886</ele>
        <time>2022-06-18T10:25:15.000Z</time>
      </trkpt>
      <trkpt lat="45.84486" lon="4.74153">
        <ele>286.43815</ele>
        <time>2022-06-18T10:25:16.000Z</time>
      </trkpt>
      <trkpt lat="45.84489" lon="4.7416">
        <ele>286.94041</ele>
        <time>2022-06-18T10:25:17.000Z</time>
      </trkpt>
      <trkpt lat="45.84488" lon="4.74169">
        <ele>287.22709</ele>
        <time>2022-06-18T10:25:18.000Z</time>
      </trkpt>
      <trkpt lat="45.84489" lon="4.7418">
        <ele>287.68915</ele>
        <time>2022-06-18T10:25:19.000Z</time>
      </trkpt>
      <trkpt lat="45.84493" lon="4.74187">
        <ele>288.17986</ele>
        <time>2022-06-18T10:25:20.000Z</time>
      </trkpt>
      <trkpt lat="45.84496" lon="4.74193">
        <ele>288.55006</ele>
        <time>2022-06-18T10:25:21.000Z</time>
      </trkpt>
      <trkpt lat="45.84498" lon="4.74198">
        <ele>288.88332</ele>
        <time>2022-06-18T10:25:22.000Z</time>
      </trkpt>
      <trkpt lat="45.84499" lon="4.74208">
        <ele>289.25988</ele>
        <time>2022-06-18T10:25:23.000Z</time>
      </trkpt>
      <trkpt lat="45.84501" lon="4.74215">
        <ele>289.6209</ele>
        <time>2022-06-18T10:25:24.000Z</time>
      </trkpt>
      <trkpt lat="45.84505" lon="4.74221">
        <ele>289.92528</ele>
        <time>2022-06-18T10:25:25.000Z</time>
      </trkpt>
      <trkpt lat="45.84507" lon="4.74227">
        <ele>290.16726</ele>
        <time>2022-06-18T10:25:26.000Z</time>
      </trkpt>
      <trkpt lat="45.84509" lon="4.74237">
        <ele>290.4564</ele>
        <time>2022-06-18T10:25:27.000Z</time>
      </trkpt>
      <trkpt lat="45.84512" lon="4.74243">
        <ele>290.84431</ele>
        <time>2022-06-18T10:25:28.000Z</time>
      </trkpt>
      <trkpt lat="45.84514" lon="4.7425">
        <ele>291.30131</ele>
        <time>2022-06-18T10:25:29.000Z</time>
      </trkpt>
      <trkpt lat="45.84518" lon="4.74257">
        <ele>291.84591</ele>
        <time>2022-06-18T10:25:30.000Z</time>
      </trkpt>
      <trkpt lat="45.84521" lon="4.74264">
        <ele>292.32573</ele>
        <time>2022-06-18T10:25:31.000Z</time>
      </trkpt>
      <trkpt lat="45.84524" lon="4.74273">
        <ele>292.84932</ele>
        <time>2022-06-18T10:25:32.000Z</time>
      </trkpt>
      <trkpt lat="45.84527" lon="4.74282">
        <ele>293.30262</ele>
        <time>2022-06-18T10:25:33.000Z</time>
      </trkpt>
      <trkpt lat="45.84535" lon="4.7429">
        <ele>293.71997</ele>
        <time>2022-06-18T10:25:35.000Z</time>
      </trkpt>
      <trkpt lat="45.84539" lon="4.74294">
        <ele>293.87802</ele>
        <time>2022-06-18T10:25:36.000Z</time>
      </trkpt>
      <trkpt lat="45.84544" lon="4.74299">
        <ele>294.02892</ele>
        <time>2022-06-18T10:25:37.000Z</time>
      </trkpt>
      <trkpt lat="45.84548" lon="4.74311">
        <ele>294.42116</ele>
        <time>2022-06-18T10:25:39.000Z</time>
      </trkpt>
      <trkpt lat="45.84549" lon="4.74316">
        <ele>294.55424</ele>
        <time>2022-06-18T10:25:40.000Z</time>
      </trkpt>
      <trkpt lat="45.84551" lon="4.74325">
        <ele>294.87968</ele>
        <time>2022-06-18T10:25:41.000Z</time>
      </trkpt>
      <trkpt lat="45.84552" lon="4.74328">
        <ele>294.99773</ele>
        <time>2022-06-18T10:25:42.000Z</time>
      </trkpt>
      <trkpt lat="45.84553" lon="4.74333">
        <ele>295.16614</ele>
        <time>2022-06-18T10:25:43.000Z</time>
      </trkpt>
      <trkpt lat="45.84549" lon="4.74338">
        <ele>295.42094</ele>
        <time>2022-06-18T10:25:44.000Z</time>
      </trkpt>
      <trkpt lat="45.84546" lon="4.7434">
        <ele>295.51725</ele>
        <time>2022-06-18T10:25:46.000Z</time>
      </trkpt>
      <trkpt lat="45.84544" lon="4.74343">
        <ele>295.61535</ele>
        <time>2022-06-18T10:25:47.000Z</time>
      </trkpt>
      <trkpt lat="45.84542" lon="4.74344">
        <ele>295.67732</ele>
        <time>2022-06-18T10:25:48.000Z</time>
      </trkpt>
      <trkpt lat="45.84539" lon="4.74347">
        <ele>295.75928</ele>
        <time>2022-06-18T10:25:50.000Z</time>
      </trkpt>
      <trkpt lat="45.84537" lon="4.74348">
        <ele>295.81113</ele>
        <time>2022-06-18T10:25:52.000Z</time>
      </trkpt>
      <trkpt lat="45.84534" lon="4.7435">
        <ele>295.84599</ele>
        <time>2022-06-18T10:25:54.000Z</time>
      </trkpt>
      <trkpt lat="45.84531" lon="4.74349">
        <ele>295.80349</ele>
        <time>2022-06-18T10:25:56.000Z</time>
      </trkpt>
      <trkpt lat="45.84531" lon="4.74346">
        <ele>295.66757</ele>
        <time>2022-06-18T10:26:04.000Z</time>
      </trkpt>
      <trkpt lat="45.84529" lon="4.74345">
        <ele>295.62943</ele>
        <time>2022-06-18T10:26:11.000Z</time>
      </trkpt>
      <trkpt lat="45.84528" lon="4.74348">
        <ele>295.69384</ele>
        <time>2022-06-18T10:26:18.000Z</time>
      </trkpt>
    </trkseg>
  </trk>
</gpx>